<?xml version="1.0" encoding="UTF-8" standalone="no" ?>
<gpx xmlns="http://www.topografix.com/GPX/1/1" xmlns:xsi="http://www.w3.org/2001/XMLSchema-instance" xsi:schemaLocation="http://www.topografix.com/GPX/1/1 http://www.topografix.com/GPX/1/1/gpx.xsd" version="1.1" creator="VisuGPX - https://www.visugpx.com">
  <metadata>
    <name>Des Mouettes aux Cigales 2021</name>
  </metadata>
  <trk>
    <name><![CDATA[Étape 2 : Vire - Mortagne-au-Perche]]></name>
    <extensions>
      <line xmlns="http://www.topografix.com/GPX/gpx_style/0/2">
        <color>00FF00</color>
        <width>4</width>
      </line>
    </extensions>
    <trkseg>
      <trkpt lat="48.83329" lon="-0.87343">
        <ele>220.294332</ele>
        <time>2021-09-06T06:40:53.000Z</time>
      </trkpt>
      <trkpt lat="48.83329" lon="-0.87343">
        <ele>220.294332</ele>
        <time>2021-09-06T06:40:54.000Z</time>
      </trkpt>
      <trkpt lat="48.83328" lon="-0.87343">
        <ele>220.294332</ele>
        <time>2021-09-06T06:45:05.000Z</time>
      </trkpt>
      <trkpt lat="48.83334" lon="-0.87341">
        <ele>220.294332</ele>
        <time>2021-09-06T06:49:28.000Z</time>
      </trkpt>
      <trkpt lat="48.83334" lon="-0.87338">
        <ele>220.294332</ele>
        <time>2021-09-06T06:49:30.000Z</time>
      </trkpt>
      <trkpt lat="48.83334" lon="-0.87337">
        <ele>220.294332</ele>
        <time>2021-09-06T06:49:33.000Z</time>
      </trkpt>
      <trkpt lat="48.83328" lon="-0.87324">
        <ele>220.294332</ele>
        <time>2021-09-06T06:50:18.000Z</time>
      </trkpt>
      <trkpt lat="48.83326" lon="-0.8732">
        <ele>220.294332</ele>
        <time>2021-09-06T06:50:20.000Z</time>
      </trkpt>
      <trkpt lat="48.83321" lon="-0.87308">
        <ele>220.294332</ele>
        <time>2021-09-06T06:50:27.000Z</time>
      </trkpt>
      <trkpt lat="48.83316" lon="-0.87302">
        <ele>220.294332</ele>
        <time>2021-09-06T06:50:32.000Z</time>
      </trkpt>
      <trkpt lat="48.83313" lon="-0.873">
        <ele>220.294332</ele>
        <time>2021-09-06T06:50:35.000Z</time>
      </trkpt>
      <trkpt lat="48.83311" lon="-0.87298">
        <ele>220.294332</ele>
        <time>2021-09-06T06:50:37.000Z</time>
      </trkpt>
      <trkpt lat="48.83309" lon="-0.87295">
        <ele>220.294332</ele>
        <time>2021-09-06T06:50:39.000Z</time>
      </trkpt>
      <trkpt lat="48.83306" lon="-0.87293">
        <ele>220.294332</ele>
        <time>2021-09-06T06:50:41.000Z</time>
      </trkpt>
      <trkpt lat="48.83306" lon="-0.87292">
        <ele>220.294332</ele>
        <time>2021-09-06T06:50:42.000Z</time>
      </trkpt>
      <trkpt lat="48.83305" lon="-0.87287">
        <ele>220.294332</ele>
        <time>2021-09-06T06:50:45.000Z</time>
      </trkpt>
      <trkpt lat="48.83299" lon="-0.87277">
        <ele>220.294332</ele>
        <time>2021-09-06T06:50:51.000Z</time>
      </trkpt>
      <trkpt lat="48.83299" lon="-0.87274">
        <ele>220.294332</ele>
        <time>2021-09-06T06:50:52.000Z</time>
      </trkpt>
      <trkpt lat="48.83295" lon="-0.87263">
        <ele>220.294332</ele>
        <time>2021-09-06T06:50:57.000Z</time>
      </trkpt>
      <trkpt lat="48.83294" lon="-0.87257">
        <ele>220.294332</ele>
        <time>2021-09-06T06:51:00.000Z</time>
      </trkpt>
      <trkpt lat="48.83293" lon="-0.87254">
        <ele>220.294332</ele>
        <time>2021-09-06T06:51:02.000Z</time>
      </trkpt>
      <trkpt lat="48.83291" lon="-0.87252">
        <ele>220.294332</ele>
        <time>2021-09-06T06:51:03.000Z</time>
      </trkpt>
      <trkpt lat="48.83286" lon="-0.87244">
        <ele>220.294332</ele>
        <time>2021-09-06T06:51:07.000Z</time>
      </trkpt>
      <trkpt lat="48.83283" lon="-0.8724">
        <ele>220.413082</ele>
        <time>2021-09-06T06:51:09.000Z</time>
      </trkpt>
      <trkpt lat="48.83274" lon="-0.87219">
        <ele>221.032665</ele>
        <time>2021-09-06T06:51:19.000Z</time>
      </trkpt>
      <trkpt lat="48.83271" lon="-0.87213">
        <ele>221.24752</ele>
        <time>2021-09-06T06:51:23.000Z</time>
      </trkpt>
      <trkpt lat="48.8327" lon="-0.87212">
        <ele>221.277459</ele>
        <time>2021-09-06T06:51:25.000Z</time>
      </trkpt>
      <trkpt lat="48.8327" lon="-0.87209">
        <ele>221.339709</ele>
        <time>2021-09-06T06:52:02.000Z</time>
      </trkpt>
      <trkpt lat="48.83269" lon="-0.87205">
        <ele>221.459342</ele>
        <time>2021-09-06T06:52:04.000Z</time>
      </trkpt>
      <trkpt lat="48.83265" lon="-0.87184">
        <ele>222.018428</ele>
        <time>2021-09-06T06:52:10.000Z</time>
      </trkpt>
      <trkpt lat="48.83256" lon="-0.87156">
        <ele>222.779938</ele>
        <time>2021-09-06T06:52:16.000Z</time>
      </trkpt>
      <trkpt lat="48.83242" lon="-0.87118">
        <ele>223.867913</ele>
        <time>2021-09-06T06:52:25.000Z</time>
      </trkpt>
      <trkpt lat="48.8324" lon="-0.87103">
        <ele>224.260949</ele>
        <time>2021-09-06T06:52:30.000Z</time>
      </trkpt>
      <trkpt lat="48.83241" lon="-0.87091">
        <ele>224.560102</ele>
        <time>2021-09-06T06:52:34.000Z</time>
      </trkpt>
      <trkpt lat="48.83239" lon="-0.87086">
        <ele>224.71979</ele>
        <time>2021-09-06T06:52:36.000Z</time>
      </trkpt>
      <trkpt lat="48.8323" lon="-0.87073">
        <ele>225.195906</ele>
        <time>2021-09-06T06:52:41.000Z</time>
      </trkpt>
      <trkpt lat="48.83214" lon="-0.87049">
        <ele>226.050319</ele>
        <time>2021-09-06T06:52:48.000Z</time>
      </trkpt>
      <trkpt lat="48.83193" lon="-0.87023">
        <ele>227.072347</ele>
        <time>2021-09-06T06:52:55.000Z</time>
      </trkpt>
      <trkpt lat="48.83178" lon="-0.87002">
        <ele>227.282007</ele>
        <time>2021-09-06T06:53:00.000Z</time>
      </trkpt>
      <trkpt lat="48.8316" lon="-0.86974">
        <ele>227.452937</ele>
        <time>2021-09-06T06:53:06.000Z</time>
      </trkpt>
      <trkpt lat="48.83155" lon="-0.86964">
        <ele>227.508327</ele>
        <time>2021-09-06T06:53:08.000Z</time>
      </trkpt>
      <trkpt lat="48.83138" lon="-0.86933">
        <ele>227.681131</ele>
        <time>2021-09-06T06:53:14.000Z</time>
      </trkpt>
      <trkpt lat="48.83136" lon="-0.86927">
        <ele>227.709512</ele>
        <time>2021-09-06T06:53:15.000Z</time>
      </trkpt>
      <trkpt lat="48.83121" lon="-0.86893">
        <ele>227.88196</ele>
        <time>2021-09-06T06:53:21.000Z</time>
      </trkpt>
      <trkpt lat="48.83112" lon="-0.86874">
        <ele>227.98566</ele>
        <time>2021-09-06T06:53:24.000Z</time>
      </trkpt>
      <trkpt lat="48.83104" lon="-0.86862">
        <ele>228.058959</ele>
        <time>2021-09-06T06:53:26.000Z</time>
      </trkpt>
      <trkpt lat="48.83092" lon="-0.86845">
        <ele>228.166646</ele>
        <time>2021-09-06T06:53:29.000Z</time>
      </trkpt>
      <trkpt lat="48.83083" lon="-0.86834">
        <ele>228.240241</ele>
        <time>2021-09-06T06:53:31.000Z</time>
      </trkpt>
      <trkpt lat="48.83066" lon="-0.86809">
        <ele>228.217049</ele>
        <time>2021-09-06T06:53:35.000Z</time>
      </trkpt>
      <trkpt lat="48.83058" lon="-0.86796">
        <ele>228.059069</ele>
        <time>2021-09-06T06:53:37.000Z</time>
      </trkpt>
      <trkpt lat="48.83041" lon="-0.86768">
        <ele>227.72665</ele>
        <time>2021-09-06T06:53:42.000Z</time>
      </trkpt>
      <trkpt lat="48.83018" lon="-0.86736">
        <ele>227.294038</ele>
        <time>2021-09-06T06:53:49.000Z</time>
      </trkpt>
      <trkpt lat="48.83009" lon="-0.86729">
        <ele>227.155505</ele>
        <time>2021-09-06T06:53:51.000Z</time>
      </trkpt>
      <trkpt lat="48.82996" lon="-0.86717">
        <ele>226.947019</ele>
        <time>2021-09-06T06:53:54.000Z</time>
      </trkpt>
      <trkpt lat="48.82988" lon="-0.8671">
        <ele>226.81889</ele>
        <time>2021-09-06T06:53:56.000Z</time>
      </trkpt>
      <trkpt lat="48.82979" lon="-0.86704">
        <ele>226.687817</ele>
        <time>2021-09-06T06:53:58.000Z</time>
      </trkpt>
      <trkpt lat="48.82962" lon="-0.86691">
        <ele>226.427051</ele>
        <time>2021-09-06T06:54:02.000Z</time>
      </trkpt>
      <trkpt lat="48.82946" lon="-0.86681">
        <ele>226.188784</ele>
        <time>2021-09-06T06:54:06.000Z</time>
      </trkpt>
      <trkpt lat="48.82922" lon="-0.86661">
        <ele>225.765414</ele>
        <time>2021-09-06T06:54:13.000Z</time>
      </trkpt>
      <trkpt lat="48.82908" lon="-0.86642">
        <ele>225.324047</ele>
        <time>2021-09-06T06:54:19.000Z</time>
      </trkpt>
      <trkpt lat="48.829" lon="-0.8662">
        <ele>224.929303</ele>
        <time>2021-09-06T06:54:24.000Z</time>
      </trkpt>
      <trkpt lat="48.8289" lon="-0.86585">
        <ele>224.332147</ele>
        <time>2021-09-06T06:54:29.000Z</time>
      </trkpt>
      <trkpt lat="48.82886" lon="-0.86578">
        <ele>224.193882</ele>
        <time>2021-09-06T06:54:30.000Z</time>
      </trkpt>
      <trkpt lat="48.8287" lon="-0.86554">
        <ele>223.651409</ele>
        <time>2021-09-06T06:54:34.000Z</time>
      </trkpt>
      <trkpt lat="48.82843" lon="-0.86525">
        <ele>222.868269</ele>
        <time>2021-09-06T06:54:40.000Z</time>
      </trkpt>
      <trkpt lat="48.82822" lon="-0.86506">
        <ele>222.295589</ele>
        <time>2021-09-06T06:54:44.000Z</time>
      </trkpt>
      <trkpt lat="48.82813" lon="-0.86494">
        <ele>222.004024</ele>
        <time>2021-09-06T06:54:46.000Z</time>
      </trkpt>
      <trkpt lat="48.82778" lon="-0.86451">
        <ele>221.463065</ele>
        <time>2021-09-06T06:54:53.000Z</time>
      </trkpt>
      <trkpt lat="48.82754" lon="-0.8642">
        <ele>221.292143</ele>
        <time>2021-09-06T06:54:58.000Z</time>
      </trkpt>
      <trkpt lat="48.82749" lon="-0.86413">
        <ele>221.256867</ele>
        <time>2021-09-06T06:54:59.000Z</time>
      </trkpt>
      <trkpt lat="48.8272" lon="-0.86363">
        <ele>221.019733</ele>
        <time>2021-09-06T06:55:06.000Z</time>
      </trkpt>
      <trkpt lat="48.82717" lon="-0.86355">
        <ele>220.987042</ele>
        <time>2021-09-06T06:55:07.000Z</time>
      </trkpt>
      <trkpt lat="48.8271" lon="-0.86341">
        <ele>220.925191</ele>
        <time>2021-09-06T06:55:09.000Z</time>
      </trkpt>
      <trkpt lat="48.82704" lon="-0.86327">
        <ele>220.866349</ele>
        <time>2021-09-06T06:55:11.000Z</time>
      </trkpt>
      <trkpt lat="48.82695" lon="-0.86311">
        <ele>220.789627</ele>
        <time>2021-09-06T06:55:15.000Z</time>
      </trkpt>
      <trkpt lat="48.82693" lon="-0.86308">
        <ele>220.776524</ele>
        <time>2021-09-06T06:55:16.000Z</time>
      </trkpt>
      <trkpt lat="48.82692" lon="-0.86298">
        <ele>220.73996</ele>
        <time>2021-09-06T06:55:19.000Z</time>
      </trkpt>
      <trkpt lat="48.82687" lon="-0.86275">
        <ele>220.652886</ele>
        <time>2021-09-06T06:55:24.000Z</time>
      </trkpt>
      <trkpt lat="48.82679" lon="-0.8625">
        <ele>221.029964</ele>
        <time>2021-09-06T06:55:29.000Z</time>
      </trkpt>
      <trkpt lat="48.82671" lon="-0.86228">
        <ele>221.415943</ele>
        <time>2021-09-06T06:55:34.000Z</time>
      </trkpt>
      <trkpt lat="48.82667" lon="-0.8621">
        <ele>221.697868</ele>
        <time>2021-09-06T06:55:38.000Z</time>
      </trkpt>
      <trkpt lat="48.8266" lon="-0.86185">
        <ele>222.117494</ele>
        <time>2021-09-06T06:55:43.000Z</time>
      </trkpt>
      <trkpt lat="48.82652" lon="-0.86164">
        <ele>222.473733</ele>
        <time>2021-09-06T06:55:48.000Z</time>
      </trkpt>
      <trkpt lat="48.82646" lon="-0.86139">
        <ele>222.879017</ele>
        <time>2021-09-06T06:55:54.000Z</time>
      </trkpt>
      <trkpt lat="48.82639" lon="-0.86119">
        <ele>223.225276</ele>
        <time>2021-09-06T06:55:59.000Z</time>
      </trkpt>
      <trkpt lat="48.82631" lon="-0.86081">
        <ele>223.829944</ele>
        <time>2021-09-06T06:56:07.000Z</time>
      </trkpt>
      <trkpt lat="48.82623" lon="-0.86042">
        <ele>224.455486</ele>
        <time>2021-09-06T06:56:15.000Z</time>
      </trkpt>
      <trkpt lat="48.82612" lon="-0.86008">
        <ele>225.102594</ele>
        <time>2021-09-06T06:56:22.000Z</time>
      </trkpt>
      <trkpt lat="48.82605" lon="-0.85986">
        <ele>225.601043</ele>
        <time>2021-09-06T06:56:27.000Z</time>
      </trkpt>
      <trkpt lat="48.82595" lon="-0.85945">
        <ele>226.50801</ele>
        <time>2021-09-06T06:56:35.000Z</time>
      </trkpt>
      <trkpt lat="48.82587" lon="-0.85912">
        <ele>227.25111</ele>
        <time>2021-09-06T06:56:42.000Z</time>
      </trkpt>
      <trkpt lat="48.8258" lon="-0.85882">
        <ele>227.904358</ele>
        <time>2021-09-06T06:56:48.000Z</time>
      </trkpt>
      <trkpt lat="48.82568" lon="-0.85845">
        <ele>228.771942</ele>
        <time>2021-09-06T06:56:55.000Z</time>
      </trkpt>
      <trkpt lat="48.82556" lon="-0.85805">
        <ele>229.686082</ele>
        <time>2021-09-06T06:57:02.000Z</time>
      </trkpt>
      <trkpt lat="48.82544" lon="-0.85745">
        <ele>230.829264</ele>
        <time>2021-09-06T06:57:12.000Z</time>
      </trkpt>
      <trkpt lat="48.82542" lon="-0.85733">
        <ele>231.02146</ele>
        <time>2021-09-06T06:57:14.000Z</time>
      </trkpt>
      <trkpt lat="48.82538" lon="-0.85707">
        <ele>231.423028</ele>
        <time>2021-09-06T06:57:18.000Z</time>
      </trkpt>
      <trkpt lat="48.82535" lon="-0.85665">
        <ele>232.058572</ele>
        <time>2021-09-06T06:57:24.000Z</time>
      </trkpt>
      <trkpt lat="48.82534" lon="-0.85651">
        <ele>232.277693</ele>
        <time>2021-09-06T06:57:26.000Z</time>
      </trkpt>
      <trkpt lat="48.82529" lon="-0.85586">
        <ele>233.260604</ele>
        <time>2021-09-06T06:57:35.000Z</time>
      </trkpt>
      <trkpt lat="48.82524" lon="-0.85521">
        <ele>234.253036</ele>
        <time>2021-09-06T06:57:44.000Z</time>
      </trkpt>
      <trkpt lat="48.82521" lon="-0.85471">
        <ele>234.925303</ele>
        <time>2021-09-06T06:57:52.000Z</time>
      </trkpt>
      <trkpt lat="48.82517" lon="-0.85429">
        <ele>235.438059</ele>
        <time>2021-09-06T06:57:59.000Z</time>
      </trkpt>
      <trkpt lat="48.82513" lon="-0.85384">
        <ele>235.98005</ele>
        <time>2021-09-06T06:58:06.000Z</time>
      </trkpt>
      <trkpt lat="48.82509" lon="-0.85339">
        <ele>236.537232</ele>
        <time>2021-09-06T06:58:12.000Z</time>
      </trkpt>
      <trkpt lat="48.82499" lon="-0.85261">
        <ele>237.496975</ele>
        <time>2021-09-06T06:58:21.000Z</time>
      </trkpt>
      <trkpt lat="48.82487" lon="-0.85223">
        <ele>237.946941</ele>
        <time>2021-09-06T06:58:26.000Z</time>
      </trkpt>
      <trkpt lat="48.82484" lon="-0.85216">
        <ele>238.001239</ele>
        <time>2021-09-06T06:58:27.000Z</time>
      </trkpt>
      <trkpt lat="48.82456" lon="-0.85171">
        <ele>238.411371</ele>
        <time>2021-09-06T06:58:35.000Z</time>
      </trkpt>
      <trkpt lat="48.82445" lon="-0.85171">
        <ele>238.517993</ele>
        <time>2021-09-06T06:58:37.000Z</time>
      </trkpt>
      <trkpt lat="48.8244" lon="-0.85173">
        <ele>238.5737</ele>
        <time>2021-09-06T06:58:38.000Z</time>
      </trkpt>
      <trkpt lat="48.824" lon="-0.85187">
        <ele>238.980908</ele>
        <time>2021-09-06T06:58:45.000Z</time>
      </trkpt>
      <trkpt lat="48.82342" lon="-0.85207">
        <ele>239.572841</ele>
        <time>2021-09-06T06:58:55.000Z</time>
      </trkpt>
      <trkpt lat="48.82307" lon="-0.85219">
        <ele>239.7605</ele>
        <time>2021-09-06T06:59:01.000Z</time>
      </trkpt>
      <trkpt lat="48.82267" lon="-0.85233">
        <ele>239.902562</ele>
        <time>2021-09-06T06:59:08.000Z</time>
      </trkpt>
      <trkpt lat="48.82226" lon="-0.85248">
        <ele>240.048109</ele>
        <time>2021-09-06T06:59:15.000Z</time>
      </trkpt>
      <trkpt lat="48.82178" lon="-0.85276">
        <ele>240.224529</ele>
        <time>2021-09-06T06:59:23.000Z</time>
      </trkpt>
      <trkpt lat="48.82138" lon="-0.85287">
        <ele>240.243425</ele>
        <time>2021-09-06T06:59:29.000Z</time>
      </trkpt>
      <trkpt lat="48.8209" lon="-0.85294">
        <ele>240.130655</ele>
        <time>2021-09-06T06:59:36.000Z</time>
      </trkpt>
      <trkpt lat="48.82036" lon="-0.85301">
        <ele>240.005818</ele>
        <time>2021-09-06T06:59:44.000Z</time>
      </trkpt>
      <trkpt lat="48.82029" lon="-0.85302">
        <ele>239.990224</ele>
        <time>2021-09-06T06:59:45.000Z</time>
      </trkpt>
      <trkpt lat="48.81996" lon="-0.85301">
        <ele>239.912773</ele>
        <time>2021-09-06T06:59:50.000Z</time>
      </trkpt>
      <trkpt lat="48.81989" lon="-0.85298">
        <ele>239.897536</ele>
        <time>2021-09-06T06:59:51.000Z</time>
      </trkpt>
      <trkpt lat="48.81978" lon="-0.8529">
        <ele>239.860849</ele>
        <time>2021-09-06T06:59:53.000Z</time>
      </trkpt>
      <trkpt lat="48.81973" lon="-0.85283">
        <ele>239.833639</ele>
        <time>2021-09-06T06:59:54.000Z</time>
      </trkpt>
      <trkpt lat="48.81965" lon="-0.85269">
        <ele>239.780357</ele>
        <time>2021-09-06T06:59:56.000Z</time>
      </trkpt>
      <trkpt lat="48.81959" lon="-0.85253">
        <ele>239.725514</ele>
        <time>2021-09-06T06:59:58.000Z</time>
      </trkpt>
      <trkpt lat="48.81933" lon="-0.85183">
        <ele>239.495069</ele>
        <time>2021-09-06T07:00:06.000Z</time>
      </trkpt>
      <trkpt lat="48.81907" lon="-0.85118">
        <ele>239.276944</ele>
        <time>2021-09-06T07:00:13.000Z</time>
      </trkpt>
      <trkpt lat="48.81884" lon="-0.85063">
        <ele>239.084097</ele>
        <time>2021-09-06T07:00:19.000Z</time>
      </trkpt>
      <trkpt lat="48.8186" lon="-0.85006">
        <ele>238.610264</ele>
        <time>2021-09-06T07:00:25.000Z</time>
      </trkpt>
      <trkpt lat="48.81836" lon="-0.84932">
        <ele>238.030782</ele>
        <time>2021-09-06T07:00:32.000Z</time>
      </trkpt>
      <trkpt lat="48.81817" lon="-0.84879">
        <ele>237.607647</ele>
        <time>2021-09-06T07:00:37.000Z</time>
      </trkpt>
      <trkpt lat="48.81797" lon="-0.84828">
        <ele>237.191607</ele>
        <time>2021-09-06T07:00:42.000Z</time>
      </trkpt>
      <trkpt lat="48.81784" lon="-0.84815">
        <ele>236.980933</ele>
        <time>2021-09-06T07:00:44.000Z</time>
      </trkpt>
      <trkpt lat="48.81777" lon="-0.84812">
        <ele>236.872122</ele>
        <time>2021-09-06T07:00:45.000Z</time>
      </trkpt>
      <trkpt lat="48.81768" lon="-0.84813">
        <ele>236.755585</ele>
        <time>2021-09-06T07:00:46.000Z</time>
      </trkpt>
      <trkpt lat="48.8176" lon="-0.84817">
        <ele>236.638754</ele>
        <time>2021-09-06T07:00:47.000Z</time>
      </trkpt>
      <trkpt lat="48.81753" lon="-0.84823">
        <ele>236.520033</ele>
        <time>2021-09-06T07:00:48.000Z</time>
      </trkpt>
      <trkpt lat="48.81731" lon="-0.84843">
        <ele>236.16266</ele>
        <time>2021-09-06T07:00:51.000Z</time>
      </trkpt>
      <trkpt lat="48.81715" lon="-0.84848">
        <ele>235.928199</ele>
        <time>2021-09-06T07:00:53.000Z</time>
      </trkpt>
      <trkpt lat="48.81706" lon="-0.84848">
        <ele>235.811739</ele>
        <time>2021-09-06T07:00:54.000Z</time>
      </trkpt>
      <trkpt lat="48.81691" lon="-0.84846">
        <ele>235.588966</ele>
        <time>2021-09-06T07:00:56.000Z</time>
      </trkpt>
      <trkpt lat="48.81677" lon="-0.84843">
        <ele>235.390339</ele>
        <time>2021-09-06T07:00:58.000Z</time>
      </trkpt>
      <trkpt lat="48.81645" lon="-0.84832">
        <ele>234.940022</ele>
        <time>2021-09-06T07:01:03.000Z</time>
      </trkpt>
      <trkpt lat="48.81612" lon="-0.84815">
        <ele>234.633607</ele>
        <time>2021-09-06T07:01:10.000Z</time>
      </trkpt>
      <trkpt lat="48.81562" lon="-0.8479">
        <ele>234.581084</ele>
        <time>2021-09-06T07:01:21.000Z</time>
      </trkpt>
      <trkpt lat="48.81512" lon="-0.84764">
        <ele>234.527015</ele>
        <time>2021-09-06T07:01:32.000Z</time>
      </trkpt>
      <trkpt lat="48.81478" lon="-0.84747">
        <ele>234.490951</ele>
        <time>2021-09-06T07:01:39.000Z</time>
      </trkpt>
      <trkpt lat="48.81435" lon="-0.84724">
        <ele>234.51848</ele>
        <time>2021-09-06T07:01:48.000Z</time>
      </trkpt>
      <trkpt lat="48.8143" lon="-0.8472">
        <ele>234.530818</ele>
        <time>2021-09-06T07:01:49.000Z</time>
      </trkpt>
      <trkpt lat="48.81426" lon="-0.84716">
        <ele>234.542843</ele>
        <time>2021-09-06T07:01:50.000Z</time>
      </trkpt>
      <trkpt lat="48.81419" lon="-0.84706">
        <ele>234.566424</ele>
        <time>2021-09-06T07:01:52.000Z</time>
      </trkpt>
      <trkpt lat="48.81416" lon="-0.847">
        <ele>234.578571</ele>
        <time>2021-09-06T07:01:53.000Z</time>
      </trkpt>
      <trkpt lat="48.81414" lon="-0.84693">
        <ele>234.590782</ele>
        <time>2021-09-06T07:01:54.000Z</time>
      </trkpt>
      <trkpt lat="48.81409" lon="-0.84663">
        <ele>234.639592</ele>
        <time>2021-09-06T07:01:58.000Z</time>
      </trkpt>
      <trkpt lat="48.81407" lon="-0.84649">
        <ele>234.663833</ele>
        <time>2021-09-06T07:02:00.000Z</time>
      </trkpt>
      <trkpt lat="48.81403" lon="-0.84635">
        <ele>234.688287</ele>
        <time>2021-09-06T07:02:02.000Z</time>
      </trkpt>
      <trkpt lat="48.81399" lon="-0.8463">
        <ele>234.700802</ele>
        <time>2021-09-06T07:02:03.000Z</time>
      </trkpt>
      <trkpt lat="48.81394" lon="-0.84626">
        <ele>234.713581</ele>
        <time>2021-09-06T07:02:04.000Z</time>
      </trkpt>
      <trkpt lat="48.81384" lon="-0.84623">
        <ele>234.738276</ele>
        <time>2021-09-06T07:02:06.000Z</time>
      </trkpt>
      <trkpt lat="48.81357" lon="-0.84628">
        <ele>234.804835</ele>
        <time>2021-09-06T07:02:11.000Z</time>
      </trkpt>
      <trkpt lat="48.81306" lon="-0.84641">
        <ele>234.862699</ele>
        <time>2021-09-06T07:02:20.000Z</time>
      </trkpt>
      <trkpt lat="48.81258" lon="-0.84651">
        <ele>234.692716</ele>
        <time>2021-09-06T07:02:28.000Z</time>
      </trkpt>
      <trkpt lat="48.81221" lon="-0.84657">
        <ele>234.561436</ele>
        <time>2021-09-06T07:02:34.000Z</time>
      </trkpt>
      <trkpt lat="48.81208" lon="-0.84653">
        <ele>234.517842</ele>
        <time>2021-09-06T07:02:36.000Z</time>
      </trkpt>
      <trkpt lat="48.81198" lon="-0.8464">
        <ele>234.470796</ele>
        <time>2021-09-06T07:02:38.000Z</time>
      </trkpt>
      <trkpt lat="48.81194" lon="-0.84631">
        <ele>234.446533</ele>
        <time>2021-09-06T07:02:39.000Z</time>
      </trkpt>
      <trkpt lat="48.81173" lon="-0.84578">
        <ele>234.3036</ele>
        <time>2021-09-06T07:02:45.000Z</time>
      </trkpt>
      <trkpt lat="48.81169" lon="-0.8457">
        <ele>234.280781</ele>
        <time>2021-09-06T07:02:46.000Z</time>
      </trkpt>
      <trkpt lat="48.81148" lon="-0.84536">
        <ele>234.342703</ele>
        <time>2021-09-06T07:02:51.000Z</time>
      </trkpt>
      <trkpt lat="48.81115" lon="-0.84479">
        <ele>234.463394</ele>
        <time>2021-09-06T07:03:00.000Z</time>
      </trkpt>
      <trkpt lat="48.81094" lon="-0.84456">
        <ele>234.526041</ele>
        <time>2021-09-06T07:03:05.000Z</time>
      </trkpt>
      <trkpt lat="48.8107" lon="-0.84445">
        <ele>234.587677</ele>
        <time>2021-09-06T07:03:10.000Z</time>
      </trkpt>
      <trkpt lat="48.81041" lon="-0.8444">
        <ele>234.658368</ele>
        <time>2021-09-06T07:03:16.000Z</time>
      </trkpt>
      <trkpt lat="48.81013" lon="-0.84427">
        <ele>234.821104</ele>
        <time>2021-09-06T07:03:22.000Z</time>
      </trkpt>
      <trkpt lat="48.80984" lon="-0.84402">
        <ele>235.247532</ele>
        <time>2021-09-06T07:03:29.000Z</time>
      </trkpt>
      <trkpt lat="48.80955" lon="-0.84386">
        <ele>235.650206</ele>
        <time>2021-09-06T07:03:36.000Z</time>
      </trkpt>
      <trkpt lat="48.80923" lon="-0.84378">
        <ele>236.068244</ele>
        <time>2021-09-06T07:03:44.000Z</time>
      </trkpt>
      <trkpt lat="48.80919" lon="-0.84378">
        <ele>236.120772</ele>
        <time>2021-09-06T07:03:45.000Z</time>
      </trkpt>
      <trkpt lat="48.80889" lon="-0.84369">
        <ele>236.524412</ele>
        <time>2021-09-06T07:03:53.000Z</time>
      </trkpt>
      <trkpt lat="48.8085" lon="-0.84355">
        <ele>237.036112</ele>
        <time>2021-09-06T07:04:03.000Z</time>
      </trkpt>
      <trkpt lat="48.80816" lon="-0.84341">
        <ele>237.662743</ele>
        <time>2021-09-06T07:04:12.000Z</time>
      </trkpt>
      <trkpt lat="48.80785" lon="-0.84329">
        <ele>238.218394</ele>
        <time>2021-09-06T07:04:20.000Z</time>
      </trkpt>
      <trkpt lat="48.80757" lon="-0.84317">
        <ele>238.723397</ele>
        <time>2021-09-06T07:04:27.000Z</time>
      </trkpt>
      <trkpt lat="48.80717" lon="-0.84299">
        <ele>239.452719</ele>
        <time>2021-09-06T07:04:37.000Z</time>
      </trkpt>
      <trkpt lat="48.80685" lon="-0.84287">
        <ele>240.01908</ele>
        <time>2021-09-06T07:04:45.000Z</time>
      </trkpt>
      <trkpt lat="48.80651" lon="-0.84275">
        <ele>240.541975</ele>
        <time>2021-09-06T07:04:53.000Z</time>
      </trkpt>
      <trkpt lat="48.80612" lon="-0.84274">
        <ele>241.089564</ele>
        <time>2021-09-06T07:05:01.000Z</time>
      </trkpt>
      <trkpt lat="48.80571" lon="-0.84277">
        <ele>241.677343</ele>
        <time>2021-09-06T07:05:10.000Z</time>
      </trkpt>
      <trkpt lat="48.80537" lon="-0.84281">
        <ele>242.154633</ele>
        <time>2021-09-06T07:05:17.000Z</time>
      </trkpt>
      <trkpt lat="48.80512" lon="-0.84284">
        <ele>242.499161</ele>
        <time>2021-09-06T07:05:22.000Z</time>
      </trkpt>
      <trkpt lat="48.80503" lon="-0.84287">
        <ele>242.636919</ele>
        <time>2021-09-06T07:05:24.000Z</time>
      </trkpt>
      <trkpt lat="48.8047" lon="-0.84305">
        <ele>243.018329</ele>
        <time>2021-09-06T07:05:31.000Z</time>
      </trkpt>
      <trkpt lat="48.80422" lon="-0.84336">
        <ele>243.546092</ele>
        <time>2021-09-06T07:05:41.000Z</time>
      </trkpt>
      <trkpt lat="48.80372" lon="-0.84368">
        <ele>244.101063</ele>
        <time>2021-09-06T07:05:51.000Z</time>
      </trkpt>
      <trkpt lat="48.80332" lon="-0.84392">
        <ele>244.541629</ele>
        <time>2021-09-06T07:05:59.000Z</time>
      </trkpt>
      <trkpt lat="48.80305" lon="-0.84401">
        <ele>245.461294</ele>
        <time>2021-09-06T07:06:05.000Z</time>
      </trkpt>
      <trkpt lat="48.80279" lon="-0.84405">
        <ele>246.340395</ele>
        <time>2021-09-06T07:06:12.000Z</time>
      </trkpt>
      <trkpt lat="48.80249" lon="-0.84407">
        <ele>247.346319</ele>
        <time>2021-09-06T07:06:22.000Z</time>
      </trkpt>
      <trkpt lat="48.80226" lon="-0.8441">
        <ele>248.138535</ele>
        <time>2021-09-06T07:06:31.000Z</time>
      </trkpt>
      <trkpt lat="48.802" lon="-0.84415">
        <ele>249.044402</ele>
        <time>2021-09-06T07:06:41.000Z</time>
      </trkpt>
      <trkpt lat="48.80168" lon="-0.84424">
        <ele>250.127571</ele>
        <time>2021-09-06T07:06:53.000Z</time>
      </trkpt>
      <trkpt lat="48.80145" lon="-0.84431">
        <ele>250.898937</ele>
        <time>2021-09-06T07:07:02.000Z</time>
      </trkpt>
      <trkpt lat="48.80123" lon="-0.84438">
        <ele>251.598386</ele>
        <time>2021-09-06T07:07:10.000Z</time>
      </trkpt>
      <trkpt lat="48.801" lon="-0.84442">
        <ele>252.299311</ele>
        <time>2021-09-06T07:07:17.000Z</time>
      </trkpt>
      <trkpt lat="48.8007" lon="-0.84441">
        <ele>253.218702</ele>
        <time>2021-09-06T07:07:26.000Z</time>
      </trkpt>
      <trkpt lat="48.80044" lon="-0.84438">
        <ele>254.005959</ele>
        <time>2021-09-06T07:07:33.000Z</time>
      </trkpt>
      <trkpt lat="48.80011" lon="-0.84432">
        <ele>255.002914</ele>
        <time>2021-09-06T07:07:41.000Z</time>
      </trkpt>
      <trkpt lat="48.79985" lon="-0.84431">
        <ele>255.797867</ele>
        <time>2021-09-06T07:07:46.000Z</time>
      </trkpt>
      <trkpt lat="48.79976" lon="-0.84432">
        <ele>256.074159</ele>
        <time>2021-09-06T07:07:48.000Z</time>
      </trkpt>
      <trkpt lat="48.79968" lon="-0.84431">
        <ele>256.172851</ele>
        <time>2021-09-06T07:07:50.000Z</time>
      </trkpt>
      <trkpt lat="48.79959" lon="-0.84426">
        <ele>256.23799</ele>
        <time>2021-09-06T07:07:52.000Z</time>
      </trkpt>
      <trkpt lat="48.79944" lon="-0.84416">
        <ele>256.345911</ele>
        <time>2021-09-06T07:07:55.000Z</time>
      </trkpt>
      <trkpt lat="48.79912" lon="-0.8438">
        <ele>256.614914</ele>
        <time>2021-09-06T07:08:02.000Z</time>
      </trkpt>
      <trkpt lat="48.79878" lon="-0.84331">
        <ele>256.932684</ele>
        <time>2021-09-06T07:08:10.000Z</time>
      </trkpt>
      <trkpt lat="48.79835" lon="-0.84268">
        <ele>257.337886</ele>
        <time>2021-09-06T07:08:20.000Z</time>
      </trkpt>
      <trkpt lat="48.79829" lon="-0.84252">
        <ele>257.410856</ele>
        <time>2021-09-06T07:08:22.000Z</time>
      </trkpt>
      <trkpt lat="48.79827" lon="-0.84235">
        <ele>257.482511</ele>
        <time>2021-09-06T07:08:24.000Z</time>
      </trkpt>
      <trkpt lat="48.79824" lon="-0.84219">
        <ele>257.547721</ele>
        <time>2021-09-06T07:08:26.000Z</time>
      </trkpt>
      <trkpt lat="48.79819" lon="-0.84206">
        <ele>257.608879</ele>
        <time>2021-09-06T07:08:28.000Z</time>
      </trkpt>
      <trkpt lat="48.79806" lon="-0.84195">
        <ele>257.697914</ele>
        <time>2021-09-06T07:08:31.000Z</time>
      </trkpt>
      <trkpt lat="48.79797" lon="-0.84189">
        <ele>257.758449</ele>
        <time>2021-09-06T07:08:33.000Z</time>
      </trkpt>
      <trkpt lat="48.79749" lon="-0.84159">
        <ele>258.079428</ele>
        <time>2021-09-06T07:08:43.000Z</time>
      </trkpt>
      <trkpt lat="48.79707" lon="-0.84139">
        <ele>258.349647</ele>
        <time>2021-09-06T07:08:51.000Z</time>
      </trkpt>
      <trkpt lat="48.79656" lon="-0.84122">
        <ele>258.712633</ele>
        <time>2021-09-06T07:09:00.000Z</time>
      </trkpt>
      <trkpt lat="48.79614" lon="-0.84101">
        <ele>259.030683</ele>
        <time>2021-09-06T07:09:08.000Z</time>
      </trkpt>
      <trkpt lat="48.79569" lon="-0.84076">
        <ele>259.375182</ele>
        <time>2021-09-06T07:09:17.000Z</time>
      </trkpt>
      <trkpt lat="48.79535" lon="-0.8405">
        <ele>259.654919</ele>
        <time>2021-09-06T07:09:25.000Z</time>
      </trkpt>
      <trkpt lat="48.79514" lon="-0.84024">
        <ele>259.833898</ele>
        <time>2021-09-06T07:09:32.000Z</time>
      </trkpt>
      <trkpt lat="48.79491" lon="-0.83993">
        <ele>260.012115</ele>
        <time>2021-09-06T07:09:40.000Z</time>
      </trkpt>
      <trkpt lat="48.79463" lon="-0.83966">
        <ele>260.204789</ele>
        <time>2021-09-06T07:09:47.000Z</time>
      </trkpt>
      <trkpt lat="48.79424" lon="-0.83931">
        <ele>260.465575</ele>
        <time>2021-09-06T07:09:55.000Z</time>
      </trkpt>
      <trkpt lat="48.79394" lon="-0.83898">
        <ele>260.681288</ele>
        <time>2021-09-06T07:10:01.000Z</time>
      </trkpt>
      <trkpt lat="48.7936" lon="-0.83851">
        <ele>260.705589</ele>
        <time>2021-09-06T07:10:07.000Z</time>
      </trkpt>
      <trkpt lat="48.79341" lon="-0.83827">
        <ele>260.621387</ele>
        <time>2021-09-06T07:10:10.000Z</time>
      </trkpt>
      <trkpt lat="48.79326" lon="-0.83815">
        <ele>260.566832</ele>
        <time>2021-09-06T07:10:12.000Z</time>
      </trkpt>
      <trkpt lat="48.79277" lon="-0.83783">
        <ele>260.384086</ele>
        <time>2021-09-06T07:10:19.000Z</time>
      </trkpt>
      <trkpt lat="48.79239" lon="-0.83765">
        <ele>260.248149</ele>
        <time>2021-09-06T07:10:25.000Z</time>
      </trkpt>
      <trkpt lat="48.79191" lon="-0.83749">
        <ele>260.219753</ele>
        <time>2021-09-06T07:10:33.000Z</time>
      </trkpt>
      <trkpt lat="48.79147" lon="-0.83734">
        <ele>260.273087</ele>
        <time>2021-09-06T07:10:41.000Z</time>
      </trkpt>
      <trkpt lat="48.79105" lon="-0.83713">
        <ele>260.325586</ele>
        <time>2021-09-06T07:10:50.000Z</time>
      </trkpt>
      <trkpt lat="48.79071" lon="-0.83695">
        <ele>260.368117</ele>
        <time>2021-09-06T07:10:58.000Z</time>
      </trkpt>
      <trkpt lat="48.79067" lon="-0.83693">
        <ele>260.373726</ele>
        <time>2021-09-06T07:10:59.000Z</time>
      </trkpt>
      <trkpt lat="48.79034" lon="-0.83678">
        <ele>260.400291</ele>
        <time>2021-09-06T07:11:06.000Z</time>
      </trkpt>
      <trkpt lat="48.79001" lon="-0.83666">
        <ele>260.407776</ele>
        <time>2021-09-06T07:11:14.000Z</time>
      </trkpt>
      <trkpt lat="48.78976" lon="-0.83659">
        <ele>260.413288</ele>
        <time>2021-09-06T07:11:21.000Z</time>
      </trkpt>
      <trkpt lat="48.78943" lon="-0.83642">
        <ele>260.420802</ele>
        <time>2021-09-06T07:11:28.000Z</time>
      </trkpt>
      <trkpt lat="48.78907" lon="-0.83624">
        <ele>260.428998</ele>
        <time>2021-09-06T07:11:34.000Z</time>
      </trkpt>
      <trkpt lat="48.7887" lon="-0.83609">
        <ele>260.407812</ele>
        <time>2021-09-06T07:11:40.000Z</time>
      </trkpt>
      <trkpt lat="48.78836" lon="-0.83595">
        <ele>260.217706</ele>
        <time>2021-09-06T07:11:46.000Z</time>
      </trkpt>
      <trkpt lat="48.78825" lon="-0.8359">
        <ele>260.157292</ele>
        <time>2021-09-06T07:11:48.000Z</time>
      </trkpt>
      <trkpt lat="48.78808" lon="-0.83584">
        <ele>260.06481</ele>
        <time>2021-09-06T07:11:51.000Z</time>
      </trkpt>
      <trkpt lat="48.7876" lon="-0.83565">
        <ele>259.798712</ele>
        <time>2021-09-06T07:12:00.000Z</time>
      </trkpt>
      <trkpt lat="48.78707" lon="-0.83548">
        <ele>259.508053</ele>
        <time>2021-09-06T07:12:09.000Z</time>
      </trkpt>
      <trkpt lat="48.78659" lon="-0.83537">
        <ele>259.579859</ele>
        <time>2021-09-06T07:12:17.000Z</time>
      </trkpt>
      <trkpt lat="48.78605" lon="-0.83524">
        <ele>259.720657</ele>
        <time>2021-09-06T07:12:26.000Z</time>
      </trkpt>
      <trkpt lat="48.78586" lon="-0.83516">
        <ele>259.770673</ele>
        <time>2021-09-06T07:12:29.000Z</time>
      </trkpt>
      <trkpt lat="48.78569" lon="-0.83505">
        <ele>259.820547</ele>
        <time>2021-09-06T07:12:32.000Z</time>
      </trkpt>
      <trkpt lat="48.78534" lon="-0.83486">
        <ele>259.916607</ele>
        <time>2021-09-06T07:12:38.000Z</time>
      </trkpt>
      <trkpt lat="48.7849" lon="-0.83473">
        <ele>259.963575</ele>
        <time>2021-09-06T07:12:46.000Z</time>
      </trkpt>
      <trkpt lat="48.78454" lon="-0.83455">
        <ele>259.990356</ele>
        <time>2021-09-06T07:12:53.000Z</time>
      </trkpt>
      <trkpt lat="48.78448" lon="-0.83443">
        <ele>259.997624</ele>
        <time>2021-09-06T07:12:55.000Z</time>
      </trkpt>
      <trkpt lat="48.78446" lon="-0.83435">
        <ele>260.001385</ele>
        <time>2021-09-06T07:12:56.000Z</time>
      </trkpt>
      <trkpt lat="48.78445" lon="-0.83427">
        <ele>260.005186</ele>
        <time>2021-09-06T07:12:57.000Z</time>
      </trkpt>
      <trkpt lat="48.78442" lon="-0.83393">
        <ele>260.021487</ele>
        <time>2021-09-06T07:13:01.000Z</time>
      </trkpt>
      <trkpt lat="48.78437" lon="-0.83324">
        <ele>260.053785</ele>
        <time>2021-09-06T07:13:08.000Z</time>
      </trkpt>
      <trkpt lat="48.78428" lon="-0.83233">
        <ele>259.493014</ele>
        <time>2021-09-06T07:13:16.000Z</time>
      </trkpt>
      <trkpt lat="48.78422" lon="-0.83149">
        <ele>258.779204</ele>
        <time>2021-09-06T07:13:23.000Z</time>
      </trkpt>
      <trkpt lat="48.7842" lon="-0.83124">
        <ele>258.568638</ele>
        <time>2021-09-06T07:13:25.000Z</time>
      </trkpt>
      <trkpt lat="48.78418" lon="-0.83032">
        <ele>257.785298</ele>
        <time>2021-09-06T07:13:32.000Z</time>
      </trkpt>
      <trkpt lat="48.78418" lon="-0.83018">
        <ele>257.665137</ele>
        <time>2021-09-06T07:13:33.000Z</time>
      </trkpt>
      <trkpt lat="48.7842" lon="-0.82923">
        <ele>256.812876</ele>
        <time>2021-09-06T07:13:40.000Z</time>
      </trkpt>
      <trkpt lat="48.7842" lon="-0.8291">
        <ele>256.689956</ele>
        <time>2021-09-06T07:13:41.000Z</time>
      </trkpt>
      <trkpt lat="48.78416" lon="-0.82883">
        <ele>256.44655</ele>
        <time>2021-09-06T07:13:43.000Z</time>
      </trkpt>
      <trkpt lat="48.78413" lon="-0.82871">
        <ele>256.326731</ele>
        <time>2021-09-06T07:13:44.000Z</time>
      </trkpt>
      <trkpt lat="48.78408" lon="-0.8286">
        <ele>256.209961</ele>
        <time>2021-09-06T07:13:45.000Z</time>
      </trkpt>
      <trkpt lat="48.78396" lon="-0.82843">
        <ele>255.988631</ele>
        <time>2021-09-06T07:13:47.000Z</time>
      </trkpt>
      <trkpt lat="48.78372" lon="-0.82821">
        <ele>255.6086</ele>
        <time>2021-09-06T07:13:51.000Z</time>
      </trkpt>
      <trkpt lat="48.78349" lon="-0.82805">
        <ele>255.353985</ele>
        <time>2021-09-06T07:13:56.000Z</time>
      </trkpt>
      <trkpt lat="48.78334" lon="-0.82791">
        <ele>255.581517</ele>
        <time>2021-09-06T07:14:01.000Z</time>
      </trkpt>
      <trkpt lat="48.78314" lon="-0.82775">
        <ele>255.882892</ele>
        <time>2021-09-06T07:14:09.000Z</time>
      </trkpt>
      <trkpt lat="48.78292" lon="-0.82755">
        <ele>256.217501</ele>
        <time>2021-09-06T07:14:18.000Z</time>
      </trkpt>
      <trkpt lat="48.78277" lon="-0.82737">
        <ele>256.472839</ele>
        <time>2021-09-06T07:14:25.000Z</time>
      </trkpt>
      <trkpt lat="48.78265" lon="-0.82713">
        <ele>256.73432</ele>
        <time>2021-09-06T07:14:33.000Z</time>
      </trkpt>
      <trkpt lat="48.78256" lon="-0.82691">
        <ele>256.960199</ele>
        <time>2021-09-06T07:14:40.000Z</time>
      </trkpt>
      <trkpt lat="48.78251" lon="-0.82671">
        <ele>257.149341</ele>
        <time>2021-09-06T07:14:46.000Z</time>
      </trkpt>
      <trkpt lat="48.78248" lon="-0.82644">
        <ele>257.384078</ele>
        <time>2021-09-06T07:14:53.000Z</time>
      </trkpt>
      <trkpt lat="48.78246" lon="-0.82612">
        <ele>257.665289</ele>
        <time>2021-09-06T07:15:01.000Z</time>
      </trkpt>
      <trkpt lat="48.78244" lon="-0.82584">
        <ele>258.199717</ele>
        <time>2021-09-06T07:15:08.000Z</time>
      </trkpt>
      <trkpt lat="48.78241" lon="-0.82552">
        <ele>258.836059</ele>
        <time>2021-09-06T07:15:16.000Z</time>
      </trkpt>
      <trkpt lat="48.78235" lon="-0.8252">
        <ele>259.494896</ele>
        <time>2021-09-06T07:15:24.000Z</time>
      </trkpt>
      <trkpt lat="48.78228" lon="-0.82485">
        <ele>260.212729</ele>
        <time>2021-09-06T07:15:32.000Z</time>
      </trkpt>
      <trkpt lat="48.78221" lon="-0.82453">
        <ele>260.890946</ele>
        <time>2021-09-06T07:15:39.000Z</time>
      </trkpt>
      <trkpt lat="48.78214" lon="-0.82416">
        <ele>261.640779</ele>
        <time>2021-09-06T07:15:46.000Z</time>
      </trkpt>
      <trkpt lat="48.7821" lon="-0.82399">
        <ele>261.991607</ele>
        <time>2021-09-06T07:15:49.000Z</time>
      </trkpt>
      <trkpt lat="48.78208" lon="-0.82387">
        <ele>262.246924</ele>
        <time>2021-09-06T07:15:51.000Z</time>
      </trkpt>
      <trkpt lat="48.78199" lon="-0.82345">
        <ele>263.086097</ele>
        <time>2021-09-06T07:15:57.000Z</time>
      </trkpt>
      <trkpt lat="48.78197" lon="-0.82338">
        <ele>263.141317</ele>
        <time>2021-09-06T07:15:58.000Z</time>
      </trkpt>
      <trkpt lat="48.78191" lon="-0.82305">
        <ele>263.371938</ele>
        <time>2021-09-06T07:16:02.000Z</time>
      </trkpt>
      <trkpt lat="48.78188" lon="-0.82281">
        <ele>263.543807</ele>
        <time>2021-09-06T07:16:05.000Z</time>
      </trkpt>
      <trkpt lat="48.78188" lon="-0.82257">
        <ele>263.707989</ele>
        <time>2021-09-06T07:16:08.000Z</time>
      </trkpt>
      <trkpt lat="48.78192" lon="-0.82241">
        <ele>263.820338</ele>
        <time>2021-09-06T07:16:10.000Z</time>
      </trkpt>
      <trkpt lat="48.78197" lon="-0.82226">
        <ele>263.933815</ele>
        <time>2021-09-06T07:16:12.000Z</time>
      </trkpt>
      <trkpt lat="48.78217" lon="-0.82178">
        <ele>264.327282</ele>
        <time>2021-09-06T07:16:19.000Z</time>
      </trkpt>
      <trkpt lat="48.78236" lon="-0.82124">
        <ele>264.74318</ele>
        <time>2021-09-06T07:16:27.000Z</time>
      </trkpt>
      <trkpt lat="48.78237" lon="-0.82117">
        <ele>264.793288</ele>
        <time>2021-09-06T07:16:28.000Z</time>
      </trkpt>
      <trkpt lat="48.78236" lon="-0.82102">
        <ele>264.892626</ele>
        <time>2021-09-06T07:16:30.000Z</time>
      </trkpt>
      <trkpt lat="48.78235" lon="-0.82095">
        <ele>264.945882</ele>
        <time>2021-09-06T07:16:31.000Z</time>
      </trkpt>
      <trkpt lat="48.78234" lon="-0.82089">
        <ele>265.037438</ele>
        <time>2021-09-06T07:16:32.000Z</time>
      </trkpt>
      <trkpt lat="48.78227" lon="-0.82072">
        <ele>265.299964</ele>
        <time>2021-09-06T07:16:35.000Z</time>
      </trkpt>
      <trkpt lat="48.78208" lon="-0.82047">
        <ele>265.798504</ele>
        <time>2021-09-06T07:16:41.000Z</time>
      </trkpt>
      <trkpt lat="48.78184" lon="-0.82015">
        <ele>266.434836</ele>
        <time>2021-09-06T07:16:49.000Z</time>
      </trkpt>
      <trkpt lat="48.7816" lon="-0.81982">
        <ele>267.07644</ele>
        <time>2021-09-06T07:16:57.000Z</time>
      </trkpt>
      <trkpt lat="48.78132" lon="-0.81944">
        <ele>267.829196</ele>
        <time>2021-09-06T07:17:06.000Z</time>
      </trkpt>
      <trkpt lat="48.78119" lon="-0.81929">
        <ele>268.170037</ele>
        <time>2021-09-06T07:17:10.000Z</time>
      </trkpt>
      <trkpt lat="48.78112" lon="-0.81922">
        <ele>268.341899</ele>
        <time>2021-09-06T07:17:12.000Z</time>
      </trkpt>
      <trkpt lat="48.78099" lon="-0.81904">
        <ele>268.622434</ele>
        <time>2021-09-06T07:17:16.000Z</time>
      </trkpt>
      <trkpt lat="48.78091" lon="-0.81888">
        <ele>268.76432</ele>
        <time>2021-09-06T07:17:19.000Z</time>
      </trkpt>
      <trkpt lat="48.7808" lon="-0.81862">
        <ele>268.979472</ele>
        <time>2021-09-06T07:17:23.000Z</time>
      </trkpt>
      <trkpt lat="48.78078" lon="-0.81853">
        <ele>269.039483</ele>
        <time>2021-09-06T07:17:24.000Z</time>
      </trkpt>
      <trkpt lat="48.78078" lon="-0.81845">
        <ele>269.098134</ele>
        <time>2021-09-06T07:17:25.000Z</time>
      </trkpt>
      <trkpt lat="48.78081" lon="-0.81821">
        <ele>269.270347</ele>
        <time>2021-09-06T07:17:28.000Z</time>
      </trkpt>
      <trkpt lat="48.78083" lon="-0.81786">
        <ele>269.513339</ele>
        <time>2021-09-06T07:17:32.000Z</time>
      </trkpt>
      <trkpt lat="48.78082" lon="-0.81769">
        <ele>269.634918</ele>
        <time>2021-09-06T07:17:34.000Z</time>
      </trkpt>
      <trkpt lat="48.78075" lon="-0.81744">
        <ele>269.818409</ele>
        <time>2021-09-06T07:17:37.000Z</time>
      </trkpt>
      <trkpt lat="48.78074" lon="-0.81726">
        <ele>269.948117</ele>
        <time>2021-09-06T07:17:39.000Z</time>
      </trkpt>
      <trkpt lat="48.78075" lon="-0.81707">
        <ele>270.080483</ele>
        <time>2021-09-06T07:17:41.000Z</time>
      </trkpt>
      <trkpt lat="48.78078" lon="-0.81679">
        <ele>270.28238</ele>
        <time>2021-09-06T07:17:44.000Z</time>
      </trkpt>
      <trkpt lat="48.78092" lon="-0.81593">
        <ele>270.595767</ele>
        <time>2021-09-06T07:17:53.000Z</time>
      </trkpt>
      <trkpt lat="48.78102" lon="-0.81551">
        <ele>270.699277</ele>
        <time>2021-09-06T07:17:58.000Z</time>
      </trkpt>
      <trkpt lat="48.78104" lon="-0.81543">
        <ele>270.718061</ele>
        <time>2021-09-06T07:17:59.000Z</time>
      </trkpt>
      <trkpt lat="48.78111" lon="-0.81507">
        <ele>270.803594</ele>
        <time>2021-09-06T07:18:04.000Z</time>
      </trkpt>
      <trkpt lat="48.78111" lon="-0.815">
        <ele>270.81872</ele>
        <time>2021-09-06T07:18:05.000Z</time>
      </trkpt>
      <trkpt lat="48.78111" lon="-0.81494">
        <ele>270.833358</ele>
        <time>2021-09-06T07:18:06.000Z</time>
      </trkpt>
      <trkpt lat="48.78108" lon="-0.81482">
        <ele>270.862533</ele>
        <time>2021-09-06T07:18:08.000Z</time>
      </trkpt>
      <trkpt lat="48.78104" lon="-0.81478">
        <ele>270.878038</ele>
        <time>2021-09-06T07:18:09.000Z</time>
      </trkpt>
      <trkpt lat="48.781" lon="-0.81474">
        <ele>270.894361</ele>
        <time>2021-09-06T07:18:10.000Z</time>
      </trkpt>
      <trkpt lat="48.78081" lon="-0.81464">
        <ele>270.965754</ele>
        <time>2021-09-06T07:18:14.000Z</time>
      </trkpt>
      <trkpt lat="48.78033" lon="-0.81436">
        <ele>270.939632</ele>
        <time>2021-09-06T07:18:23.000Z</time>
      </trkpt>
      <trkpt lat="48.78021" lon="-0.8143">
        <ele>270.860715</ele>
        <time>2021-09-06T07:18:25.000Z</time>
      </trkpt>
      <trkpt lat="48.78009" lon="-0.81423">
        <ele>270.780075</ele>
        <time>2021-09-06T07:18:27.000Z</time>
      </trkpt>
      <trkpt lat="48.77978" lon="-0.81403">
        <ele>270.562385</ele>
        <time>2021-09-06T07:18:32.000Z</time>
      </trkpt>
      <trkpt lat="48.77967" lon="-0.81395">
        <ele>270.480327</ele>
        <time>2021-09-06T07:18:34.000Z</time>
      </trkpt>
      <trkpt lat="48.77962" lon="-0.81391">
        <ele>270.441801</ele>
        <time>2021-09-06T07:18:35.000Z</time>
      </trkpt>
      <trkpt lat="48.77948" lon="-0.81379">
        <ele>270.33942</ele>
        <time>2021-09-06T07:18:38.000Z</time>
      </trkpt>
      <trkpt lat="48.77934" lon="-0.81367">
        <ele>270.232303</ele>
        <time>2021-09-06T07:18:41.000Z</time>
      </trkpt>
      <trkpt lat="48.77922" lon="-0.81359">
        <ele>270.151189</ele>
        <time>2021-09-06T07:18:43.000Z</time>
      </trkpt>
      <trkpt lat="48.77883" lon="-0.8134">
        <ele>269.880928</ele>
        <time>2021-09-06T07:18:50.000Z</time>
      </trkpt>
      <trkpt lat="48.77861" lon="-0.81328">
        <ele>269.685126</ele>
        <time>2021-09-06T07:18:54.000Z</time>
      </trkpt>
      <trkpt lat="48.7785" lon="-0.81322">
        <ele>269.589804</ele>
        <time>2021-09-06T07:18:56.000Z</time>
      </trkpt>
      <trkpt lat="48.7784" lon="-0.81316">
        <ele>269.495905</ele>
        <time>2021-09-06T07:18:58.000Z</time>
      </trkpt>
      <trkpt lat="48.77826" lon="-0.81304">
        <ele>269.365451</ele>
        <time>2021-09-06T07:19:01.000Z</time>
      </trkpt>
      <trkpt lat="48.77814" lon="-0.81291">
        <ele>269.244803</ele>
        <time>2021-09-06T07:19:04.000Z</time>
      </trkpt>
      <trkpt lat="48.77807" lon="-0.81281">
        <ele>269.162745</ele>
        <time>2021-09-06T07:19:06.000Z</time>
      </trkpt>
      <trkpt lat="48.77804" lon="-0.81277">
        <ele>269.125561</ele>
        <time>2021-09-06T07:19:07.000Z</time>
      </trkpt>
      <trkpt lat="48.77789" lon="-0.81257">
        <ele>268.961298</ele>
        <time>2021-09-06T07:19:11.000Z</time>
      </trkpt>
      <trkpt lat="48.77767" lon="-0.81224">
        <ele>268.708108</ele>
        <time>2021-09-06T07:19:18.000Z</time>
      </trkpt>
      <trkpt lat="48.77761" lon="-0.81213">
        <ele>268.627168</ele>
        <time>2021-09-06T07:19:20.000Z</time>
      </trkpt>
      <trkpt lat="48.77754" lon="-0.81193">
        <ele>268.50133</ele>
        <time>2021-09-06T07:19:23.000Z</time>
      </trkpt>
      <trkpt lat="48.77742" lon="-0.81159">
        <ele>268.533806</ele>
        <time>2021-09-06T07:19:28.000Z</time>
      </trkpt>
      <trkpt lat="48.77728" lon="-0.81119">
        <ele>268.771636</ele>
        <time>2021-09-06T07:19:34.000Z</time>
      </trkpt>
      <trkpt lat="48.77724" lon="-0.81106">
        <ele>268.847065</ele>
        <time>2021-09-06T07:19:36.000Z</time>
      </trkpt>
      <trkpt lat="48.77714" lon="-0.81088">
        <ele>268.963592</ele>
        <time>2021-09-06T07:19:39.000Z</time>
      </trkpt>
      <trkpt lat="48.77698" lon="-0.8106">
        <ele>269.160517</ele>
        <time>2021-09-06T07:19:44.000Z</time>
      </trkpt>
      <trkpt lat="48.77695" lon="-0.81054">
        <ele>269.196564</ele>
        <time>2021-09-06T07:19:45.000Z</time>
      </trkpt>
      <trkpt lat="48.77693" lon="-0.81049">
        <ele>269.23093</ele>
        <time>2021-09-06T07:19:46.000Z</time>
      </trkpt>
      <trkpt lat="48.77684" lon="-0.81034">
        <ele>269.336688</ele>
        <time>2021-09-06T07:19:49.000Z</time>
      </trkpt>
      <trkpt lat="48.77669" lon="-0.80999">
        <ele>269.549071</ele>
        <time>2021-09-06T07:19:55.000Z</time>
      </trkpt>
      <trkpt lat="48.77666" lon="-0.80988">
        <ele>269.613834</ele>
        <time>2021-09-06T07:19:57.000Z</time>
      </trkpt>
      <trkpt lat="48.77664" lon="-0.80973">
        <ele>269.693085</ele>
        <time>2021-09-06T07:19:59.000Z</time>
      </trkpt>
      <trkpt lat="48.77662" lon="-0.80957">
        <ele>269.778301</ele>
        <time>2021-09-06T07:20:01.000Z</time>
      </trkpt>
      <trkpt lat="48.77658" lon="-0.80934">
        <ele>270.00331</ele>
        <time>2021-09-06T07:20:04.000Z</time>
      </trkpt>
      <trkpt lat="48.77655" lon="-0.80919">
        <ele>270.213498</ele>
        <time>2021-09-06T07:20:06.000Z</time>
      </trkpt>
      <trkpt lat="48.77652" lon="-0.80896">
        <ele>270.545929</ele>
        <time>2021-09-06T07:20:09.000Z</time>
      </trkpt>
      <trkpt lat="48.77651" lon="-0.80888">
        <ele>270.651094</ele>
        <time>2021-09-06T07:20:10.000Z</time>
      </trkpt>
      <trkpt lat="48.7764" lon="-0.80839">
        <ele>271.362207</ele>
        <time>2021-09-06T07:20:17.000Z</time>
      </trkpt>
      <trkpt lat="48.77632" lon="-0.80808">
        <ele>271.816608</ele>
        <time>2021-09-06T07:20:22.000Z</time>
      </trkpt>
      <trkpt lat="48.7762" lon="-0.80799">
        <ele>272.090933</ele>
        <time>2021-09-06T07:20:26.000Z</time>
      </trkpt>
      <trkpt lat="48.77603" lon="-0.80789">
        <ele>272.482733</ele>
        <time>2021-09-06T07:20:32.000Z</time>
      </trkpt>
      <trkpt lat="48.7759" lon="-0.80781">
        <ele>272.768211</ele>
        <time>2021-09-06T07:20:36.000Z</time>
      </trkpt>
      <trkpt lat="48.77572" lon="-0.80771">
        <ele>273.168247</ele>
        <time>2021-09-06T07:20:42.000Z</time>
      </trkpt>
      <trkpt lat="48.77545" lon="-0.80754">
        <ele>273.796113</ele>
        <time>2021-09-06T07:20:51.000Z</time>
      </trkpt>
      <trkpt lat="48.77521" lon="-0.80739">
        <ele>274.42581</ele>
        <time>2021-09-06T07:21:00.000Z</time>
      </trkpt>
      <trkpt lat="48.77497" lon="-0.80723">
        <ele>275.077982</ele>
        <time>2021-09-06T07:21:09.000Z</time>
      </trkpt>
      <trkpt lat="48.77476" lon="-0.80708">
        <ele>275.628201</ele>
        <time>2021-09-06T07:21:16.000Z</time>
      </trkpt>
      <trkpt lat="48.77472" lon="-0.80701">
        <ele>275.778229</ele>
        <time>2021-09-06T07:21:18.000Z</time>
      </trkpt>
      <trkpt lat="48.77471" lon="-0.80692">
        <ele>275.938394</ele>
        <time>2021-09-06T07:21:20.000Z</time>
      </trkpt>
      <trkpt lat="48.77476" lon="-0.8066">
        <ele>276.465407</ele>
        <time>2021-09-06T07:21:26.000Z</time>
      </trkpt>
      <trkpt lat="48.77476" lon="-0.80649">
        <ele>276.640113</ele>
        <time>2021-09-06T07:21:28.000Z</time>
      </trkpt>
      <trkpt lat="48.77473" lon="-0.80632">
        <ele>276.913504</ele>
        <time>2021-09-06T07:21:31.000Z</time>
      </trkpt>
      <trkpt lat="48.7746" lon="-0.80604">
        <ele>277.470364</ele>
        <time>2021-09-06T07:21:37.000Z</time>
      </trkpt>
      <trkpt lat="48.77442" lon="-0.80573">
        <ele>278.075406</ele>
        <time>2021-09-06T07:21:44.000Z</time>
      </trkpt>
      <trkpt lat="48.77423" lon="-0.8054">
        <ele>278.600329</ele>
        <time>2021-09-06T07:21:51.000Z</time>
      </trkpt>
      <trkpt lat="48.77399" lon="-0.80497">
        <ele>279.272192</ele>
        <time>2021-09-06T07:21:59.000Z</time>
      </trkpt>
      <trkpt lat="48.77378" lon="-0.80459">
        <ele>279.875302</ele>
        <time>2021-09-06T07:22:06.000Z</time>
      </trkpt>
      <trkpt lat="48.77355" lon="-0.80417">
        <ele>280.527443</ele>
        <time>2021-09-06T07:22:14.000Z</time>
      </trkpt>
      <trkpt lat="48.77332" lon="-0.80374">
        <ele>281.195891</ele>
        <time>2021-09-06T07:22:23.000Z</time>
      </trkpt>
      <trkpt lat="48.77316" lon="-0.80334">
        <ele>282.132271</ele>
        <time>2021-09-06T07:22:31.000Z</time>
      </trkpt>
      <trkpt lat="48.77301" lon="-0.80292">
        <ele>283.122405</ele>
        <time>2021-09-06T07:22:40.000Z</time>
      </trkpt>
      <trkpt lat="48.77284" lon="-0.80249">
        <ele>284.137756</ele>
        <time>2021-09-06T07:22:49.000Z</time>
      </trkpt>
      <trkpt lat="48.77272" lon="-0.80218">
        <ele>284.877432</ele>
        <time>2021-09-06T07:22:56.000Z</time>
      </trkpt>
      <trkpt lat="48.77254" lon="-0.80181">
        <ele>285.829639</ele>
        <time>2021-09-06T07:23:05.000Z</time>
      </trkpt>
      <trkpt lat="48.77237" lon="-0.8016">
        <ele>286.484043</ele>
        <time>2021-09-06T07:23:11.000Z</time>
      </trkpt>
      <trkpt lat="48.77218" lon="-0.8014">
        <ele>287.106841</ele>
        <time>2021-09-06T07:23:17.000Z</time>
      </trkpt>
      <trkpt lat="48.77199" lon="-0.80119">
        <ele>287.681102</ele>
        <time>2021-09-06T07:23:23.000Z</time>
      </trkpt>
      <trkpt lat="48.77178" lon="-0.8009">
        <ele>288.37391</ele>
        <time>2021-09-06T07:23:30.000Z</time>
      </trkpt>
      <trkpt lat="48.77154" lon="-0.80052">
        <ele>289.20761</ele>
        <time>2021-09-06T07:23:38.000Z</time>
      </trkpt>
      <trkpt lat="48.77136" lon="-0.80014">
        <ele>289.947389</ele>
        <time>2021-09-06T07:23:45.000Z</time>
      </trkpt>
      <trkpt lat="48.77124" lon="-0.79986">
        <ele>290.472637</ele>
        <time>2021-09-06T07:23:50.000Z</time>
      </trkpt>
      <trkpt lat="48.77117" lon="-0.79969">
        <ele>290.792428</ele>
        <time>2021-09-06T07:23:53.000Z</time>
      </trkpt>
      <trkpt lat="48.77095" lon="-0.79915">
        <ele>291.183336</ele>
        <time>2021-09-06T07:24:02.000Z</time>
      </trkpt>
      <trkpt lat="48.7709" lon="-0.79902">
        <ele>291.207364</ele>
        <time>2021-09-06T07:24:04.000Z</time>
      </trkpt>
      <trkpt lat="48.77081" lon="-0.7988">
        <ele>291.246508</ele>
        <time>2021-09-06T07:24:07.000Z</time>
      </trkpt>
      <trkpt lat="48.7706" lon="-0.79829">
        <ele>291.340698</ele>
        <time>2021-09-06T07:24:13.000Z</time>
      </trkpt>
      <trkpt lat="48.77036" lon="-0.79768">
        <ele>291.450655</ele>
        <time>2021-09-06T07:24:19.000Z</time>
      </trkpt>
      <trkpt lat="48.77023" lon="-0.79724">
        <ele>291.526658</ele>
        <time>2021-09-06T07:24:23.000Z</time>
      </trkpt>
      <trkpt lat="48.77008" lon="-0.79649">
        <ele>290.770192</ele>
        <time>2021-09-06T07:24:29.000Z</time>
      </trkpt>
      <trkpt lat="48.76996" lon="-0.79562">
        <ele>289.770746</ele>
        <time>2021-09-06T07:24:36.000Z</time>
      </trkpt>
      <trkpt lat="48.76994" lon="-0.79538">
        <ele>289.500045</ele>
        <time>2021-09-06T07:24:38.000Z</time>
      </trkpt>
      <trkpt lat="48.76984" lon="-0.79461">
        <ele>288.62215</ele>
        <time>2021-09-06T07:24:45.000Z</time>
      </trkpt>
      <trkpt lat="48.76972" lon="-0.7939">
        <ele>288.000521</ele>
        <time>2021-09-06T07:24:52.000Z</time>
      </trkpt>
      <trkpt lat="48.76956" lon="-0.79337">
        <ele>287.531611</ele>
        <time>2021-09-06T07:24:58.000Z</time>
      </trkpt>
      <trkpt lat="48.76934" lon="-0.79286">
        <ele>287.039193</ele>
        <time>2021-09-06T07:25:05.000Z</time>
      </trkpt>
      <trkpt lat="48.76902" lon="-0.79232">
        <ele>286.464224</ele>
        <time>2021-09-06T07:25:13.000Z</time>
      </trkpt>
      <trkpt lat="48.76875" lon="-0.79203">
        <ele>286.075082</ele>
        <time>2021-09-06T07:25:18.000Z</time>
      </trkpt>
      <trkpt lat="48.76838" lon="-0.79173">
        <ele>285.605977</ele>
        <time>2021-09-06T07:25:23.000Z</time>
      </trkpt>
      <trkpt lat="48.76786" lon="-0.79132">
        <ele>284.949183</ele>
        <time>2021-09-06T07:25:30.000Z</time>
      </trkpt>
      <trkpt lat="48.76754" lon="-0.79115">
        <ele>284.56711</ele>
        <time>2021-09-06T07:25:35.000Z</time>
      </trkpt>
      <trkpt lat="48.76729" lon="-0.79106">
        <ele>284.280481</ele>
        <time>2021-09-06T07:25:40.000Z</time>
      </trkpt>
      <trkpt lat="48.76709" lon="-0.79101">
        <ele>284.572903</ele>
        <time>2021-09-06T07:25:46.000Z</time>
      </trkpt>
      <trkpt lat="48.76684" lon="-0.79093">
        <ele>284.935625</ele>
        <time>2021-09-06T07:25:54.000Z</time>
      </trkpt>
      <trkpt lat="48.76662" lon="-0.79087">
        <ele>285.241493</ele>
        <time>2021-09-06T07:26:01.000Z</time>
      </trkpt>
      <trkpt lat="48.76645" lon="-0.79082">
        <ele>285.48868</ele>
        <time>2021-09-06T07:26:07.000Z</time>
      </trkpt>
      <trkpt lat="48.76622" lon="-0.79074">
        <ele>285.825499</ele>
        <time>2021-09-06T07:26:15.000Z</time>
      </trkpt>
      <trkpt lat="48.76596" lon="-0.79066">
        <ele>286.198829</ele>
        <time>2021-09-06T07:26:24.000Z</time>
      </trkpt>
      <trkpt lat="48.76575" lon="-0.79061">
        <ele>286.503405</ele>
        <time>2021-09-06T07:26:31.000Z</time>
      </trkpt>
      <trkpt lat="48.76549" lon="-0.79052">
        <ele>286.878643</ele>
        <time>2021-09-06T07:26:39.000Z</time>
      </trkpt>
      <trkpt lat="48.76524" lon="-0.79045">
        <ele>287.276568</ele>
        <time>2021-09-06T07:26:46.000Z</time>
      </trkpt>
      <trkpt lat="48.76494" lon="-0.79031">
        <ele>287.761176</ele>
        <time>2021-09-06T07:26:54.000Z</time>
      </trkpt>
      <trkpt lat="48.7649" lon="-0.79029">
        <ele>287.826236</ele>
        <time>2021-09-06T07:26:55.000Z</time>
      </trkpt>
      <trkpt lat="48.76466" lon="-0.79014">
        <ele>288.221956</ele>
        <time>2021-09-06T07:27:01.000Z</time>
      </trkpt>
      <trkpt lat="48.76436" lon="-0.78995">
        <ele>288.730605</ele>
        <time>2021-09-06T07:27:08.000Z</time>
      </trkpt>
      <trkpt lat="48.76396" lon="-0.7897">
        <ele>289.403659</ele>
        <time>2021-09-06T07:27:16.000Z</time>
      </trkpt>
      <trkpt lat="48.76356" lon="-0.78945">
        <ele>289.653567</ele>
        <time>2021-09-06T07:27:23.000Z</time>
      </trkpt>
      <trkpt lat="48.76314" lon="-0.7892">
        <ele>289.735134</ele>
        <time>2021-09-06T07:27:30.000Z</time>
      </trkpt>
      <trkpt lat="48.7627" lon="-0.78885">
        <ele>289.82376</ele>
        <time>2021-09-06T07:27:37.000Z</time>
      </trkpt>
      <trkpt lat="48.7622" lon="-0.7884">
        <ele>289.900942</ele>
        <time>2021-09-06T07:27:45.000Z</time>
      </trkpt>
      <trkpt lat="48.76214" lon="-0.78835">
        <ele>289.848833</ele>
        <time>2021-09-06T07:27:46.000Z</time>
      </trkpt>
      <trkpt lat="48.76163" lon="-0.78794">
        <ele>289.436101</ele>
        <time>2021-09-06T07:27:54.000Z</time>
      </trkpt>
      <trkpt lat="48.7615" lon="-0.78784">
        <ele>289.332067</ele>
        <time>2021-09-06T07:27:56.000Z</time>
      </trkpt>
      <trkpt lat="48.76107" lon="-0.78751">
        <ele>288.992817</ele>
        <time>2021-09-06T07:28:03.000Z</time>
      </trkpt>
      <trkpt lat="48.76096" lon="-0.78742">
        <ele>288.904293</ele>
        <time>2021-09-06T07:28:06.000Z</time>
      </trkpt>
      <trkpt lat="48.76078" lon="-0.78726">
        <ele>288.751994</ele>
        <time>2021-09-06T07:28:11.000Z</time>
      </trkpt>
      <trkpt lat="48.76047" lon="-0.78703">
        <ele>288.35601</ele>
        <time>2021-09-06T07:28:17.000Z</time>
      </trkpt>
      <trkpt lat="48.76013" lon="-0.7868">
        <ele>287.774344</ele>
        <time>2021-09-06T07:28:23.000Z</time>
      </trkpt>
      <trkpt lat="48.75959" lon="-0.78655">
        <ele>286.895917</ele>
        <time>2021-09-06T07:28:32.000Z</time>
      </trkpt>
      <trkpt lat="48.75953" lon="-0.78652">
        <ele>286.799607</ele>
        <time>2021-09-06T07:28:33.000Z</time>
      </trkpt>
      <trkpt lat="48.75928" lon="-0.7864">
        <ele>286.384183</ele>
        <time>2021-09-06T07:28:37.000Z</time>
      </trkpt>
      <trkpt lat="48.7588" lon="-0.78618">
        <ele>285.515906</ele>
        <time>2021-09-06T07:28:44.000Z</time>
      </trkpt>
      <trkpt lat="48.75829" lon="-0.78595">
        <ele>284.378023</ele>
        <time>2021-09-06T07:28:51.000Z</time>
      </trkpt>
      <trkpt lat="48.75791" lon="-0.78578">
        <ele>283.542336</ele>
        <time>2021-09-06T07:28:56.000Z</time>
      </trkpt>
      <trkpt lat="48.75776" lon="-0.78571">
        <ele>283.206916</ele>
        <time>2021-09-06T07:28:58.000Z</time>
      </trkpt>
      <trkpt lat="48.75722" lon="-0.78546">
        <ele>281.997944</ele>
        <time>2021-09-06T07:29:05.000Z</time>
      </trkpt>
      <trkpt lat="48.75663" lon="-0.78518">
        <ele>280.325013</ele>
        <time>2021-09-06T07:29:12.000Z</time>
      </trkpt>
      <trkpt lat="48.75618" lon="-0.78493">
        <ele>279.027326</ele>
        <time>2021-09-06T07:29:17.000Z</time>
      </trkpt>
      <trkpt lat="48.75564" lon="-0.78447">
        <ele>277.346664</ele>
        <time>2021-09-06T07:29:23.000Z</time>
      </trkpt>
      <trkpt lat="48.75516" lon="-0.78406">
        <ele>276.717345</ele>
        <time>2021-09-06T07:29:29.000Z</time>
      </trkpt>
      <trkpt lat="48.75496" lon="-0.78389">
        <ele>276.509079</ele>
        <time>2021-09-06T07:29:33.000Z</time>
      </trkpt>
      <trkpt lat="48.75485" lon="-0.7838">
        <ele>276.399718</ele>
        <time>2021-09-06T07:29:37.000Z</time>
      </trkpt>
      <trkpt lat="48.75479" lon="-0.78375">
        <ele>276.337004</ele>
        <time>2021-09-06T07:29:41.000Z</time>
      </trkpt>
      <trkpt lat="48.75469" lon="-0.78364">
        <ele>276.230486</ele>
        <time>2021-09-06T07:29:47.000Z</time>
      </trkpt>
      <trkpt lat="48.75456" lon="-0.78353">
        <ele>276.104483</ele>
        <time>2021-09-06T07:29:54.000Z</time>
      </trkpt>
      <trkpt lat="48.75443" lon="-0.78343">
        <ele>275.977339</ele>
        <time>2021-09-06T07:30:00.000Z</time>
      </trkpt>
      <trkpt lat="48.75428" lon="-0.78332">
        <ele>275.827655</ele>
        <time>2021-09-06T07:30:08.000Z</time>
      </trkpt>
      <trkpt lat="48.7541" lon="-0.78317">
        <ele>275.646226</ele>
        <time>2021-09-06T07:30:18.000Z</time>
      </trkpt>
      <trkpt lat="48.75394" lon="-0.78304">
        <ele>275.830541</ele>
        <time>2021-09-06T07:30:27.000Z</time>
      </trkpt>
      <trkpt lat="48.75381" lon="-0.78293">
        <ele>276.558399</ele>
        <time>2021-09-06T07:30:35.000Z</time>
      </trkpt>
      <trkpt lat="48.75365" lon="-0.78279">
        <ele>277.404397</ele>
        <time>2021-09-06T07:30:44.000Z</time>
      </trkpt>
      <trkpt lat="48.7535" lon="-0.78266">
        <ele>278.207464</ele>
        <time>2021-09-06T07:30:53.000Z</time>
      </trkpt>
      <trkpt lat="48.75344" lon="-0.7826">
        <ele>278.520448</ele>
        <time>2021-09-06T07:30:57.000Z</time>
      </trkpt>
      <trkpt lat="48.75337" lon="-0.78251">
        <ele>278.944735</ele>
        <time>2021-09-06T07:31:02.000Z</time>
      </trkpt>
      <trkpt lat="48.75327" lon="-0.78236">
        <ele>279.607284</ele>
        <time>2021-09-06T07:31:09.000Z</time>
      </trkpt>
      <trkpt lat="48.75316" lon="-0.78218">
        <ele>280.36805</ele>
        <time>2021-09-06T07:31:16.000Z</time>
      </trkpt>
      <trkpt lat="48.75309" lon="-0.78198">
        <ele>281.059684</ele>
        <time>2021-09-06T07:31:23.000Z</time>
      </trkpt>
      <trkpt lat="48.75299" lon="-0.78173">
        <ele>281.95811</ele>
        <time>2021-09-06T07:31:31.000Z</time>
      </trkpt>
      <trkpt lat="48.75285" lon="-0.78142">
        <ele>283.099399</ele>
        <time>2021-09-06T07:31:41.000Z</time>
      </trkpt>
      <trkpt lat="48.75276" lon="-0.78121">
        <ele>283.87741</ele>
        <time>2021-09-06T07:31:48.000Z</time>
      </trkpt>
      <trkpt lat="48.75264" lon="-0.78101">
        <ele>284.501291</ele>
        <time>2021-09-06T07:31:56.000Z</time>
      </trkpt>
      <trkpt lat="48.75249" lon="-0.7808">
        <ele>285.180429</ele>
        <time>2021-09-06T07:32:04.000Z</time>
      </trkpt>
      <trkpt lat="48.75229" lon="-0.78057">
        <ele>286.027873</ele>
        <time>2021-09-06T07:32:13.000Z</time>
      </trkpt>
      <trkpt lat="48.75209" lon="-0.78038">
        <ele>286.828245</ele>
        <time>2021-09-06T07:32:20.000Z</time>
      </trkpt>
      <trkpt lat="48.75179" lon="-0.7801">
        <ele>288.038127</ele>
        <time>2021-09-06T07:32:29.000Z</time>
      </trkpt>
      <trkpt lat="48.75154" lon="-0.77987">
        <ele>289.027016</ele>
        <time>2021-09-06T07:32:36.000Z</time>
      </trkpt>
      <trkpt lat="48.75124" lon="-0.77959">
        <ele>290.034839</ele>
        <time>2021-09-06T07:32:44.000Z</time>
      </trkpt>
      <trkpt lat="48.75113" lon="-0.7795">
        <ele>290.095555</ele>
        <time>2021-09-06T07:32:47.000Z</time>
      </trkpt>
      <trkpt lat="48.75101" lon="-0.7794">
        <ele>290.158197</ele>
        <time>2021-09-06T07:32:50.000Z</time>
      </trkpt>
      <trkpt lat="48.75079" lon="-0.77922">
        <ele>290.280525</ele>
        <time>2021-09-06T07:32:56.000Z</time>
      </trkpt>
      <trkpt lat="48.75071" lon="-0.77915">
        <ele>290.32018</ele>
        <time>2021-09-06T07:32:58.000Z</time>
      </trkpt>
      <trkpt lat="48.75052" lon="-0.77904">
        <ele>290.41893</ele>
        <time>2021-09-06T07:33:03.000Z</time>
      </trkpt>
      <trkpt lat="48.75043" lon="-0.77902">
        <ele>290.460132</ele>
        <time>2021-09-06T07:33:05.000Z</time>
      </trkpt>
      <trkpt lat="48.75039" lon="-0.779">
        <ele>290.479871</ele>
        <time>2021-09-06T07:33:06.000Z</time>
      </trkpt>
      <trkpt lat="48.75027" lon="-0.77896">
        <ele>290.54064</ele>
        <time>2021-09-06T07:33:09.000Z</time>
      </trkpt>
      <trkpt lat="48.75022" lon="-0.77895">
        <ele>290.56194</ele>
        <time>2021-09-06T07:33:10.000Z</time>
      </trkpt>
      <trkpt lat="48.74997" lon="-0.77889">
        <ele>290.686297</ele>
        <time>2021-09-06T07:33:16.000Z</time>
      </trkpt>
      <trkpt lat="48.74987" lon="-0.77886">
        <ele>290.730357</ele>
        <time>2021-09-06T07:33:18.000Z</time>
      </trkpt>
      <trkpt lat="48.74978" lon="-0.77883">
        <ele>290.774883</ele>
        <time>2021-09-06T07:33:20.000Z</time>
      </trkpt>
      <trkpt lat="48.7496" lon="-0.77879">
        <ele>290.855721</ele>
        <time>2021-09-06T07:33:24.000Z</time>
      </trkpt>
      <trkpt lat="48.74934" lon="-0.77872">
        <ele>290.596387</ele>
        <time>2021-09-06T07:33:30.000Z</time>
      </trkpt>
      <trkpt lat="48.74925" lon="-0.77869">
        <ele>290.514158</ele>
        <time>2021-09-06T07:33:32.000Z</time>
      </trkpt>
      <trkpt lat="48.74909" lon="-0.77865">
        <ele>290.355905</ele>
        <time>2021-09-06T07:33:36.000Z</time>
      </trkpt>
      <trkpt lat="48.749" lon="-0.77863">
        <ele>290.267125</ele>
        <time>2021-09-06T07:33:38.000Z</time>
      </trkpt>
      <trkpt lat="48.74868" lon="-0.77856">
        <ele>289.960765</ele>
        <time>2021-09-06T07:33:44.000Z</time>
      </trkpt>
      <trkpt lat="48.74858" lon="-0.77852">
        <ele>289.855663</ele>
        <time>2021-09-06T07:33:46.000Z</time>
      </trkpt>
      <trkpt lat="48.7484" lon="-0.77848">
        <ele>289.686907</ele>
        <time>2021-09-06T07:33:49.000Z</time>
      </trkpt>
      <trkpt lat="48.74828" lon="-0.77843">
        <ele>289.56411</ele>
        <time>2021-09-06T07:33:51.000Z</time>
      </trkpt>
      <trkpt lat="48.74808" lon="-0.77832">
        <ele>289.362999</ele>
        <time>2021-09-06T07:33:54.000Z</time>
      </trkpt>
      <trkpt lat="48.74773" lon="-0.77805">
        <ele>288.717976</ele>
        <time>2021-09-06T07:33:59.000Z</time>
      </trkpt>
      <trkpt lat="48.74739" lon="-0.77787">
        <ele>287.782419</ele>
        <time>2021-09-06T07:34:03.000Z</time>
      </trkpt>
      <trkpt lat="48.74681" lon="-0.77773">
        <ele>286.245214</ele>
        <time>2021-09-06T07:34:09.000Z</time>
      </trkpt>
      <trkpt lat="48.74671" lon="-0.7777">
        <ele>285.980276</ele>
        <time>2021-09-06T07:34:10.000Z</time>
      </trkpt>
      <trkpt lat="48.7461" lon="-0.77754">
        <ele>284.341474</ele>
        <time>2021-09-06T07:34:16.000Z</time>
      </trkpt>
      <trkpt lat="48.74589" lon="-0.77749">
        <ele>283.64284</ele>
        <time>2021-09-06T07:34:18.000Z</time>
      </trkpt>
      <trkpt lat="48.74527" lon="-0.77732">
        <ele>281.554632</ele>
        <time>2021-09-06T07:34:24.000Z</time>
      </trkpt>
      <trkpt lat="48.74507" lon="-0.77727">
        <ele>280.867314</ele>
        <time>2021-09-06T07:34:26.000Z</time>
      </trkpt>
      <trkpt lat="48.74497" lon="-0.77725">
        <ele>280.515116</ele>
        <time>2021-09-06T07:34:27.000Z</time>
      </trkpt>
      <trkpt lat="48.74444" lon="-0.77723">
        <ele>278.767813</ele>
        <time>2021-09-06T07:34:32.000Z</time>
      </trkpt>
      <trkpt lat="48.7438" lon="-0.77729">
        <ele>276.953182</ele>
        <time>2021-09-06T07:34:38.000Z</time>
      </trkpt>
      <trkpt lat="48.74352" lon="-0.77733">
        <ele>276.18185</ele>
        <time>2021-09-06T07:34:41.000Z</time>
      </trkpt>
      <trkpt lat="48.74344" lon="-0.77732">
        <ele>275.967857</ele>
        <time>2021-09-06T07:34:42.000Z</time>
      </trkpt>
      <trkpt lat="48.74337" lon="-0.77732">
        <ele>275.772595</ele>
        <time>2021-09-06T07:34:43.000Z</time>
      </trkpt>
      <trkpt lat="48.74326" lon="-0.77727">
        <ele>275.441549</ele>
        <time>2021-09-06T07:34:45.000Z</time>
      </trkpt>
      <trkpt lat="48.74321" lon="-0.77724">
        <ele>275.294074</ele>
        <time>2021-09-06T07:34:46.000Z</time>
      </trkpt>
      <trkpt lat="48.74312" lon="-0.77717">
        <ele>275.028794</ele>
        <time>2021-09-06T07:34:48.000Z</time>
      </trkpt>
      <trkpt lat="48.74306" lon="-0.77709">
        <ele>274.793394</ele>
        <time>2021-09-06T07:34:50.000Z</time>
      </trkpt>
      <trkpt lat="48.74281" lon="-0.77671">
        <ele>273.835461</ele>
        <time>2021-09-06T07:34:59.000Z</time>
      </trkpt>
      <trkpt lat="48.74263" lon="-0.77646">
        <ele>273.378514</ele>
        <time>2021-09-06T07:35:06.000Z</time>
      </trkpt>
      <trkpt lat="48.74248" lon="-0.77627">
        <ele>273.194607</ele>
        <time>2021-09-06T07:35:12.000Z</time>
      </trkpt>
      <trkpt lat="48.74225" lon="-0.77612">
        <ele>272.949688</ele>
        <time>2021-09-06T07:35:19.000Z</time>
      </trkpt>
      <trkpt lat="48.74194" lon="-0.77592">
        <ele>272.615831</ele>
        <time>2021-09-06T07:35:28.000Z</time>
      </trkpt>
      <trkpt lat="48.74166" lon="-0.77574">
        <ele>272.325606</ele>
        <time>2021-09-06T07:35:34.000Z</time>
      </trkpt>
      <trkpt lat="48.74136" lon="-0.77554">
        <ele>271.999405</ele>
        <time>2021-09-06T07:35:40.000Z</time>
      </trkpt>
      <trkpt lat="48.74114" lon="-0.77542">
        <ele>271.771499</ele>
        <time>2021-09-06T07:35:45.000Z</time>
      </trkpt>
      <trkpt lat="48.74107" lon="-0.77534">
        <ele>271.643199</ele>
        <time>2021-09-06T07:35:47.000Z</time>
      </trkpt>
      <trkpt lat="48.74097" lon="-0.77527">
        <ele>271.47049</ele>
        <time>2021-09-06T07:35:49.000Z</time>
      </trkpt>
      <trkpt lat="48.74067" lon="-0.77513">
        <ele>270.969613</ele>
        <time>2021-09-06T07:35:54.000Z</time>
      </trkpt>
      <trkpt lat="48.74061" lon="-0.77512">
        <ele>270.862694</ele>
        <time>2021-09-06T07:35:55.000Z</time>
      </trkpt>
      <trkpt lat="48.74018" lon="-0.77505">
        <ele>270.172846</ele>
        <time>2021-09-06T07:36:01.000Z</time>
      </trkpt>
      <trkpt lat="48.73961" lon="-0.77495">
        <ele>269.247781</ele>
        <time>2021-09-06T07:36:08.000Z</time>
      </trkpt>
      <trkpt lat="48.73907" lon="-0.77486">
        <ele>268.101685</ele>
        <time>2021-09-06T07:36:14.000Z</time>
      </trkpt>
      <trkpt lat="48.73897" lon="-0.77485">
        <ele>267.867475</ele>
        <time>2021-09-06T07:36:15.000Z</time>
      </trkpt>
      <trkpt lat="48.73839" lon="-0.77474">
        <ele>266.407968</ele>
        <time>2021-09-06T07:36:21.000Z</time>
      </trkpt>
      <trkpt lat="48.73829" lon="-0.77473">
        <ele>266.159402</ele>
        <time>2021-09-06T07:36:22.000Z</time>
      </trkpt>
      <trkpt lat="48.73809" lon="-0.77468">
        <ele>265.672845</ele>
        <time>2021-09-06T07:36:24.000Z</time>
      </trkpt>
      <trkpt lat="48.73791" lon="-0.77463">
        <ele>265.209354</ele>
        <time>2021-09-06T07:36:26.000Z</time>
      </trkpt>
      <trkpt lat="48.73759" lon="-0.77444">
        <ele>264.367103</ele>
        <time>2021-09-06T07:36:30.000Z</time>
      </trkpt>
      <trkpt lat="48.73726" lon="-0.77415">
        <ele>263.56578</ele>
        <time>2021-09-06T07:36:35.000Z</time>
      </trkpt>
      <trkpt lat="48.73702" lon="-0.77381">
        <ele>262.874102</ele>
        <time>2021-09-06T07:36:40.000Z</time>
      </trkpt>
      <trkpt lat="48.73693" lon="-0.77367">
        <ele>262.603336</ele>
        <time>2021-09-06T07:36:42.000Z</time>
      </trkpt>
      <trkpt lat="48.73681" lon="-0.77345">
        <ele>262.211444</ele>
        <time>2021-09-06T07:36:45.000Z</time>
      </trkpt>
      <trkpt lat="48.73656" lon="-0.77301">
        <ele>261.390543</ele>
        <time>2021-09-06T07:36:51.000Z</time>
      </trkpt>
      <trkpt lat="48.73624" lon="-0.77252">
        <ele>260.765807</ele>
        <time>2021-09-06T07:36:58.000Z</time>
      </trkpt>
      <trkpt lat="48.73614" lon="-0.77232">
        <ele>261.119444</ele>
        <time>2021-09-06T07:37:02.000Z</time>
      </trkpt>
      <trkpt lat="48.73605" lon="-0.77217">
        <ele>261.408807</ele>
        <time>2021-09-06T07:37:07.000Z</time>
      </trkpt>
      <trkpt lat="48.73592" lon="-0.772">
        <ele>261.760079</ele>
        <time>2021-09-06T07:37:14.000Z</time>
      </trkpt>
      <trkpt lat="48.73578" lon="-0.77177">
        <ele>262.212329</ele>
        <time>2021-09-06T07:37:24.000Z</time>
      </trkpt>
      <trkpt lat="48.73568" lon="-0.77162">
        <ele>262.502833</ele>
        <time>2021-09-06T07:37:31.000Z</time>
      </trkpt>
      <trkpt lat="48.73557" lon="-0.77145">
        <ele>262.832154</ele>
        <time>2021-09-06T07:37:39.000Z</time>
      </trkpt>
      <trkpt lat="48.73551" lon="-0.77134">
        <ele>263.0406</ele>
        <time>2021-09-06T07:37:44.000Z</time>
      </trkpt>
      <trkpt lat="48.73548" lon="-0.77129">
        <ele>263.122239</ele>
        <time>2021-09-06T07:37:46.000Z</time>
      </trkpt>
      <trkpt lat="48.73541" lon="-0.77118">
        <ele>263.332814</ele>
        <time>2021-09-06T07:37:51.000Z</time>
      </trkpt>
      <trkpt lat="48.73532" lon="-0.77103">
        <ele>263.620502</ele>
        <time>2021-09-06T07:37:58.000Z</time>
      </trkpt>
      <trkpt lat="48.73523" lon="-0.77087">
        <ele>263.91342</ele>
        <time>2021-09-06T07:38:05.000Z</time>
      </trkpt>
      <trkpt lat="48.73514" lon="-0.77073">
        <ele>264.195663</ele>
        <time>2021-09-06T07:38:12.000Z</time>
      </trkpt>
      <trkpt lat="48.73501" lon="-0.7705">
        <ele>264.960937</ele>
        <time>2021-09-06T07:38:22.000Z</time>
      </trkpt>
      <trkpt lat="48.73493" lon="-0.77038">
        <ele>265.619796</ele>
        <time>2021-09-06T07:38:28.000Z</time>
      </trkpt>
      <trkpt lat="48.7348" lon="-0.77016">
        <ele>266.75161</ele>
        <time>2021-09-06T07:38:38.000Z</time>
      </trkpt>
      <trkpt lat="48.73467" lon="-0.76996">
        <ele>267.812289</ele>
        <time>2021-09-06T07:38:47.000Z</time>
      </trkpt>
      <trkpt lat="48.73453" lon="-0.76974">
        <ele>268.967638</ele>
        <time>2021-09-06T07:38:56.000Z</time>
      </trkpt>
      <trkpt lat="48.7344" lon="-0.76953">
        <ele>270.038644</ele>
        <time>2021-09-06T07:39:04.000Z</time>
      </trkpt>
      <trkpt lat="48.7343" lon="-0.76935">
        <ele>270.940225</ele>
        <time>2021-09-06T07:39:11.000Z</time>
      </trkpt>
      <trkpt lat="48.73418" lon="-0.76915">
        <ele>272.002218</ele>
        <time>2021-09-06T07:39:19.000Z</time>
      </trkpt>
      <trkpt lat="48.73405" lon="-0.76897">
        <ele>273.010246</ele>
        <time>2021-09-06T07:39:26.000Z</time>
      </trkpt>
      <trkpt lat="48.73403" lon="-0.76894">
        <ele>273.152836</ele>
        <time>2021-09-06T07:39:27.000Z</time>
      </trkpt>
      <trkpt lat="48.73393" lon="-0.76875">
        <ele>274.113244</ele>
        <time>2021-09-06T07:39:33.000Z</time>
      </trkpt>
      <trkpt lat="48.73374" lon="-0.76843">
        <ele>275.073509</ele>
        <time>2021-09-06T07:39:41.000Z</time>
      </trkpt>
      <trkpt lat="48.73355" lon="-0.76811">
        <ele>275.575271</ele>
        <time>2021-09-06T07:39:48.000Z</time>
      </trkpt>
      <trkpt lat="48.73336" lon="-0.7678">
        <ele>276.079251</ele>
        <time>2021-09-06T07:39:54.000Z</time>
      </trkpt>
      <trkpt lat="48.73316" lon="-0.76748">
        <ele>276.588175</ele>
        <time>2021-09-06T07:39:59.000Z</time>
      </trkpt>
      <trkpt lat="48.73284" lon="-0.76696">
        <ele>277.407442</ele>
        <time>2021-09-06T07:40:06.000Z</time>
      </trkpt>
      <trkpt lat="48.73246" lon="-0.76629">
        <ele>277.981032</ele>
        <time>2021-09-06T07:40:15.000Z</time>
      </trkpt>
      <trkpt lat="48.7324" lon="-0.76613">
        <ele>277.990582</ele>
        <time>2021-09-06T07:40:17.000Z</time>
      </trkpt>
      <trkpt lat="48.73234" lon="-0.76587">
        <ele>278.00444</ele>
        <time>2021-09-06T07:40:20.000Z</time>
      </trkpt>
      <trkpt lat="48.73224" lon="-0.76527">
        <ele>278.036306</ele>
        <time>2021-09-06T07:40:27.000Z</time>
      </trkpt>
      <trkpt lat="48.73211" lon="-0.7645">
        <ele>278.077742</ele>
        <time>2021-09-06T07:40:36.000Z</time>
      </trkpt>
      <trkpt lat="48.73196" lon="-0.76363">
        <ele>277.970983</ele>
        <time>2021-09-06T07:40:46.000Z</time>
      </trkpt>
      <trkpt lat="48.73194" lon="-0.76354">
        <ele>277.944937</ele>
        <time>2021-09-06T07:40:47.000Z</time>
      </trkpt>
      <trkpt lat="48.73183" lon="-0.76293">
        <ele>277.761924</ele>
        <time>2021-09-06T07:40:54.000Z</time>
      </trkpt>
      <trkpt lat="48.73172" lon="-0.76228">
        <ele>277.571563</ele>
        <time>2021-09-06T07:41:01.000Z</time>
      </trkpt>
      <trkpt lat="48.73161" lon="-0.76169">
        <ele>277.394566</ele>
        <time>2021-09-06T07:41:07.000Z</time>
      </trkpt>
      <trkpt lat="48.73145" lon="-0.76097">
        <ele>276.761247</ele>
        <time>2021-09-06T07:41:14.000Z</time>
      </trkpt>
      <trkpt lat="48.73135" lon="-0.7608">
        <ele>276.515034</ele>
        <time>2021-09-06T07:41:16.000Z</time>
      </trkpt>
      <trkpt lat="48.7313" lon="-0.76073">
        <ele>276.387612</ele>
        <time>2021-09-06T07:41:17.000Z</time>
      </trkpt>
      <trkpt lat="48.73123" lon="-0.76067">
        <ele>276.258883</ele>
        <time>2021-09-06T07:41:18.000Z</time>
      </trkpt>
      <trkpt lat="48.73101" lon="-0.7605">
        <ele>275.840678</ele>
        <time>2021-09-06T07:41:21.000Z</time>
      </trkpt>
      <trkpt lat="48.73053" lon="-0.76011">
        <ele>274.915122</ele>
        <time>2021-09-06T07:41:27.000Z</time>
      </trkpt>
      <trkpt lat="48.73003" lon="-0.75969">
        <ele>274.453486</ele>
        <time>2021-09-06T07:41:33.000Z</time>
      </trkpt>
      <trkpt lat="48.72967" lon="-0.75941">
        <ele>274.841549</ele>
        <time>2021-09-06T07:41:38.000Z</time>
      </trkpt>
      <trkpt lat="48.72939" lon="-0.75925">
        <ele>275.115842</ele>
        <time>2021-09-06T07:41:43.000Z</time>
      </trkpt>
      <trkpt lat="48.72923" lon="-0.75914">
        <ele>275.281203</ele>
        <time>2021-09-06T07:41:48.000Z</time>
      </trkpt>
      <trkpt lat="48.7291" lon="-0.75904">
        <ele>275.413812</ele>
        <time>2021-09-06T07:41:54.000Z</time>
      </trkpt>
      <trkpt lat="48.72904" lon="-0.75897">
        <ele>275.492248</ele>
        <time>2021-09-06T07:41:59.000Z</time>
      </trkpt>
      <trkpt lat="48.729" lon="-0.75893">
        <ele>275.53777</ele>
        <time>2021-09-06T07:42:03.000Z</time>
      </trkpt>
      <trkpt lat="48.72899" lon="-0.75891">
        <ele>275.551721</ele>
        <time>2021-09-06T07:42:04.000Z</time>
      </trkpt>
      <trkpt lat="48.72898" lon="-0.75889">
        <ele>275.564122</ele>
        <time>2021-09-06T07:42:05.000Z</time>
      </trkpt>
      <trkpt lat="48.72893" lon="-0.7588">
        <ele>275.639567</ele>
        <time>2021-09-06T07:42:10.000Z</time>
      </trkpt>
      <trkpt lat="48.72892" lon="-0.75878">
        <ele>275.655068</ele>
        <time>2021-09-06T07:42:11.000Z</time>
      </trkpt>
      <trkpt lat="48.72886" lon="-0.75868">
        <ele>275.734785</ele>
        <time>2021-09-06T07:42:16.000Z</time>
      </trkpt>
      <trkpt lat="48.72881" lon="-0.75862">
        <ele>275.801203</ele>
        <time>2021-09-06T07:42:20.000Z</time>
      </trkpt>
      <trkpt lat="48.72879" lon="-0.7586">
        <ele>275.819616</ele>
        <time>2021-09-06T07:42:21.000Z</time>
      </trkpt>
      <trkpt lat="48.72867" lon="-0.7585">
        <ele>275.945809</ele>
        <time>2021-09-06T07:42:27.000Z</time>
      </trkpt>
      <trkpt lat="48.72858" lon="-0.75844">
        <ele>276.248855</ele>
        <time>2021-09-06T07:42:32.000Z</time>
      </trkpt>
      <trkpt lat="48.72846" lon="-0.75835">
        <ele>276.727584</ele>
        <time>2021-09-06T07:42:39.000Z</time>
      </trkpt>
      <trkpt lat="48.72838" lon="-0.7583">
        <ele>277.039624</ele>
        <time>2021-09-06T07:42:43.000Z</time>
      </trkpt>
      <trkpt lat="48.72834" lon="-0.75827">
        <ele>277.212658</ele>
        <time>2021-09-06T07:42:45.000Z</time>
      </trkpt>
      <trkpt lat="48.72826" lon="-0.7582">
        <ele>277.542809</ele>
        <time>2021-09-06T07:42:49.000Z</time>
      </trkpt>
      <trkpt lat="48.72812" lon="-0.75809">
        <ele>278.099094</ele>
        <time>2021-09-06T07:42:55.000Z</time>
      </trkpt>
      <trkpt lat="48.72792" lon="-0.75793">
        <ele>278.91376</ele>
        <time>2021-09-06T07:43:02.000Z</time>
      </trkpt>
      <trkpt lat="48.72776" lon="-0.75778">
        <ele>279.582607</ele>
        <time>2021-09-06T07:43:08.000Z</time>
      </trkpt>
      <trkpt lat="48.72763" lon="-0.75767">
        <ele>280.09698</ele>
        <time>2021-09-06T07:43:13.000Z</time>
      </trkpt>
      <trkpt lat="48.72744" lon="-0.75748">
        <ele>280.918493</ele>
        <time>2021-09-06T07:43:21.000Z</time>
      </trkpt>
      <trkpt lat="48.72725" lon="-0.75736">
        <ele>281.634603</ele>
        <time>2021-09-06T07:43:28.000Z</time>
      </trkpt>
      <trkpt lat="48.72707" lon="-0.75726">
        <ele>282.337176</ele>
        <time>2021-09-06T07:43:35.000Z</time>
      </trkpt>
      <trkpt lat="48.72694" lon="-0.75721">
        <ele>282.711598</ele>
        <time>2021-09-06T07:43:40.000Z</time>
      </trkpt>
      <trkpt lat="48.72682" lon="-0.75716">
        <ele>283.036893</ele>
        <time>2021-09-06T07:43:45.000Z</time>
      </trkpt>
      <trkpt lat="48.7268" lon="-0.75714">
        <ele>283.107156</ele>
        <time>2021-09-06T07:43:47.000Z</time>
      </trkpt>
      <trkpt lat="48.72678" lon="-0.75713">
        <ele>283.164425</ele>
        <time>2021-09-06T07:43:48.000Z</time>
      </trkpt>
      <trkpt lat="48.72666" lon="-0.75706">
        <ele>283.492235</ele>
        <time>2021-09-06T07:43:53.000Z</time>
      </trkpt>
      <trkpt lat="48.72649" lon="-0.75697">
        <ele>283.991732</ele>
        <time>2021-09-06T07:43:59.000Z</time>
      </trkpt>
      <trkpt lat="48.72632" lon="-0.75688">
        <ele>284.464791</ele>
        <time>2021-09-06T07:44:05.000Z</time>
      </trkpt>
      <trkpt lat="48.72613" lon="-0.75677">
        <ele>285.019872</ele>
        <time>2021-09-06T07:44:11.000Z</time>
      </trkpt>
      <trkpt lat="48.72587" lon="-0.75654">
        <ele>285.824684</ele>
        <time>2021-09-06T07:44:18.000Z</time>
      </trkpt>
      <trkpt lat="48.72574" lon="-0.7564">
        <ele>286.240137</ele>
        <time>2021-09-06T07:44:21.000Z</time>
      </trkpt>
      <trkpt lat="48.72566" lon="-0.75629">
        <ele>286.529585</ele>
        <time>2021-09-06T07:44:23.000Z</time>
      </trkpt>
      <trkpt lat="48.72561" lon="-0.75623">
        <ele>286.694037</ele>
        <time>2021-09-06T07:44:24.000Z</time>
      </trkpt>
      <trkpt lat="48.72543" lon="-0.75604">
        <ele>287.360558</ele>
        <time>2021-09-06T07:44:27.000Z</time>
      </trkpt>
      <trkpt lat="48.72504" lon="-0.75562">
        <ele>289.456938</ele>
        <time>2021-09-06T07:44:33.000Z</time>
      </trkpt>
      <trkpt lat="48.72499" lon="-0.75554">
        <ele>289.780835</ele>
        <time>2021-09-06T07:44:34.000Z</time>
      </trkpt>
      <trkpt lat="48.72487" lon="-0.75531">
        <ele>290.636425</ele>
        <time>2021-09-06T07:44:37.000Z</time>
      </trkpt>
      <trkpt lat="48.7248" lon="-0.75519">
        <ele>291.087338</ele>
        <time>2021-09-06T07:44:39.000Z</time>
      </trkpt>
      <trkpt lat="48.72473" lon="-0.75511">
        <ele>291.465974</ele>
        <time>2021-09-06T07:44:41.000Z</time>
      </trkpt>
      <trkpt lat="48.72463" lon="-0.75503">
        <ele>291.955275</ele>
        <time>2021-09-06T07:44:45.000Z</time>
      </trkpt>
      <trkpt lat="48.72452" lon="-0.755">
        <ele>292.455889</ele>
        <time>2021-09-06T07:44:51.000Z</time>
      </trkpt>
      <trkpt lat="48.72442" lon="-0.75499">
        <ele>292.914297</ele>
        <time>2021-09-06T07:44:57.000Z</time>
      </trkpt>
      <trkpt lat="48.7243" lon="-0.75496">
        <ele>293.458223</ele>
        <time>2021-09-06T07:45:05.000Z</time>
      </trkpt>
      <trkpt lat="48.72422" lon="-0.75495">
        <ele>293.782547</ele>
        <time>2021-09-06T07:45:10.000Z</time>
      </trkpt>
      <trkpt lat="48.72415" lon="-0.75491">
        <ele>294.113291</ele>
        <time>2021-09-06T07:45:15.000Z</time>
      </trkpt>
      <trkpt lat="48.72408" lon="-0.75489">
        <ele>294.438079</ele>
        <time>2021-09-06T07:45:20.000Z</time>
      </trkpt>
      <trkpt lat="48.72403" lon="-0.75486">
        <ele>294.6813</ele>
        <time>2021-09-06T07:45:24.000Z</time>
      </trkpt>
      <trkpt lat="48.72401" lon="-0.75486">
        <ele>294.748269</ele>
        <time>2021-09-06T07:45:25.000Z</time>
      </trkpt>
      <trkpt lat="48.72395" lon="-0.75483">
        <ele>295.037204</ele>
        <time>2021-09-06T07:45:29.000Z</time>
      </trkpt>
      <trkpt lat="48.72394" lon="-0.75482">
        <ele>295.101305</ele>
        <time>2021-09-06T07:45:30.000Z</time>
      </trkpt>
      <trkpt lat="48.72386" lon="-0.75478">
        <ele>295.80498</ele>
        <time>2021-09-06T07:45:35.000Z</time>
      </trkpt>
      <trkpt lat="48.72379" lon="-0.75476">
        <ele>296.539015</ele>
        <time>2021-09-06T07:45:40.000Z</time>
      </trkpt>
      <trkpt lat="48.72367" lon="-0.7547">
        <ele>297.69769</ele>
        <time>2021-09-06T07:45:47.000Z</time>
      </trkpt>
      <trkpt lat="48.72359" lon="-0.75469">
        <ele>298.519016</ele>
        <time>2021-09-06T07:45:51.000Z</time>
      </trkpt>
      <trkpt lat="48.72353" lon="-0.75469">
        <ele>299.090066</ele>
        <time>2021-09-06T07:45:54.000Z</time>
      </trkpt>
      <trkpt lat="48.72349" lon="-0.75467">
        <ele>299.458939</ele>
        <time>2021-09-06T07:45:56.000Z</time>
      </trkpt>
      <trkpt lat="48.72347" lon="-0.75467">
        <ele>299.658899</ele>
        <time>2021-09-06T07:45:57.000Z</time>
      </trkpt>
      <trkpt lat="48.72339" lon="-0.75466">
        <ele>300.357401</ele>
        <time>2021-09-06T07:46:00.000Z</time>
      </trkpt>
      <trkpt lat="48.72327" lon="-0.75464">
        <ele>301.513437</ele>
        <time>2021-09-06T07:46:04.000Z</time>
      </trkpt>
      <trkpt lat="48.7231" lon="-0.75461">
        <ele>303.120286</ele>
        <time>2021-09-06T07:46:10.000Z</time>
      </trkpt>
      <trkpt lat="48.72295" lon="-0.75456">
        <ele>304.670132</ele>
        <time>2021-09-06T07:46:17.000Z</time>
      </trkpt>
      <trkpt lat="48.72276" lon="-0.75451">
        <ele>306.486348</ele>
        <time>2021-09-06T07:46:24.000Z</time>
      </trkpt>
      <trkpt lat="48.72263" lon="-0.75448">
        <ele>307.662963</ele>
        <time>2021-09-06T07:46:29.000Z</time>
      </trkpt>
      <trkpt lat="48.72253" lon="-0.75446">
        <ele>308.69549</ele>
        <time>2021-09-06T07:46:33.000Z</time>
      </trkpt>
      <trkpt lat="48.72244" lon="-0.75445">
        <ele>309.528327</ele>
        <time>2021-09-06T07:46:36.000Z</time>
      </trkpt>
      <trkpt lat="48.72241" lon="-0.75444">
        <ele>309.848137</ele>
        <time>2021-09-06T07:46:37.000Z</time>
      </trkpt>
      <trkpt lat="48.7222" lon="-0.7544">
        <ele>311.802934</ele>
        <time>2021-09-06T07:46:43.000Z</time>
      </trkpt>
      <trkpt lat="48.72199" lon="-0.75432">
        <ele>312.716607</ele>
        <time>2021-09-06T07:46:48.000Z</time>
      </trkpt>
      <trkpt lat="48.72179" lon="-0.75417">
        <ele>313.379314</ele>
        <time>2021-09-06T07:46:54.000Z</time>
      </trkpt>
      <trkpt lat="48.72157" lon="-0.75393">
        <ele>314.182649</ele>
        <time>2021-09-06T07:47:00.000Z</time>
      </trkpt>
      <trkpt lat="48.72143" lon="-0.75378">
        <ele>314.68213</ele>
        <time>2021-09-06T07:47:04.000Z</time>
      </trkpt>
      <trkpt lat="48.72122" lon="-0.75355">
        <ele>315.451512</ele>
        <time>2021-09-06T07:47:10.000Z</time>
      </trkpt>
      <trkpt lat="48.72108" lon="-0.7534">
        <ele>315.938147</ele>
        <time>2021-09-06T07:47:14.000Z</time>
      </trkpt>
      <trkpt lat="48.72092" lon="-0.75324">
        <ele>316.511265</ele>
        <time>2021-09-06T07:47:18.000Z</time>
      </trkpt>
      <trkpt lat="48.72087" lon="-0.7532">
        <ele>316.671777</ele>
        <time>2021-09-06T07:47:19.000Z</time>
      </trkpt>
      <trkpt lat="48.72066" lon="-0.75296">
        <ele>317.446943</ele>
        <time>2021-09-06T07:47:24.000Z</time>
      </trkpt>
      <trkpt lat="48.72063" lon="-0.75291">
        <ele>317.442595</ele>
        <time>2021-09-06T07:47:25.000Z</time>
      </trkpt>
      <trkpt lat="48.72058" lon="-0.75279">
        <ele>317.303056</ele>
        <time>2021-09-06T07:47:27.000Z</time>
      </trkpt>
      <trkpt lat="48.72053" lon="-0.75267">
        <ele>317.16254</ele>
        <time>2021-09-06T07:47:29.000Z</time>
      </trkpt>
      <trkpt lat="48.72051" lon="-0.75261">
        <ele>317.091889</ele>
        <time>2021-09-06T07:47:30.000Z</time>
      </trkpt>
      <trkpt lat="48.72042" lon="-0.75229">
        <ele>316.743613</ele>
        <time>2021-09-06T07:47:35.000Z</time>
      </trkpt>
      <trkpt lat="48.7204" lon="-0.75222">
        <ele>316.663426</ele>
        <time>2021-09-06T07:47:36.000Z</time>
      </trkpt>
      <trkpt lat="48.7203" lon="-0.7517">
        <ele>316.121184</ele>
        <time>2021-09-06T07:47:42.000Z</time>
      </trkpt>
      <trkpt lat="48.72014" lon="-0.75108">
        <ele>315.454662</ele>
        <time>2021-09-06T07:47:48.000Z</time>
      </trkpt>
      <trkpt lat="48.72004" lon="-0.75063">
        <ele>314.97595</ele>
        <time>2021-09-06T07:47:52.000Z</time>
      </trkpt>
      <trkpt lat="48.71997" lon="-0.7499">
        <ele>313.987033</ele>
        <time>2021-09-06T07:47:58.000Z</time>
      </trkpt>
      <trkpt lat="48.71995" lon="-0.74912">
        <ele>312.841722</ele>
        <time>2021-09-06T07:48:05.000Z</time>
      </trkpt>
      <trkpt lat="48.71992" lon="-0.74893">
        <ele>312.556139</ele>
        <time>2021-09-06T07:48:07.000Z</time>
      </trkpt>
      <trkpt lat="48.71987" lon="-0.74877">
        <ele>312.291735</ele>
        <time>2021-09-06T07:48:09.000Z</time>
      </trkpt>
      <trkpt lat="48.7198" lon="-0.74855">
        <ele>311.941601</ele>
        <time>2021-09-06T07:48:12.000Z</time>
      </trkpt>
      <trkpt lat="48.71977" lon="-0.74843">
        <ele>311.749474</ele>
        <time>2021-09-06T07:48:14.000Z</time>
      </trkpt>
      <trkpt lat="48.71968" lon="-0.74826">
        <ele>311.430585</ele>
        <time>2021-09-06T07:48:18.000Z</time>
      </trkpt>
      <trkpt lat="48.71956" lon="-0.74794">
        <ele>310.887895</ele>
        <time>2021-09-06T07:48:25.000Z</time>
      </trkpt>
      <trkpt lat="48.71942" lon="-0.74755">
        <ele>310.320729</ele>
        <time>2021-09-06T07:48:33.000Z</time>
      </trkpt>
      <trkpt lat="48.7193" lon="-0.7472">
        <ele>309.829459</ele>
        <time>2021-09-06T07:48:39.000Z</time>
      </trkpt>
      <trkpt lat="48.71928" lon="-0.74714">
        <ele>309.74433</ele>
        <time>2021-09-06T07:48:40.000Z</time>
      </trkpt>
      <trkpt lat="48.71917" lon="-0.74684">
        <ele>309.331317</ele>
        <time>2021-09-06T07:48:45.000Z</time>
      </trkpt>
      <trkpt lat="48.71916" lon="-0.74678">
        <ele>309.249526</ele>
        <time>2021-09-06T07:48:46.000Z</time>
      </trkpt>
      <trkpt lat="48.71909" lon="-0.74658">
        <ele>308.970147</ele>
        <time>2021-09-06T07:48:49.000Z</time>
      </trkpt>
      <trkpt lat="48.71906" lon="-0.74641">
        <ele>308.751887</ele>
        <time>2021-09-06T07:48:51.000Z</time>
      </trkpt>
      <trkpt lat="48.71903" lon="-0.74632">
        <ele>308.633274</ele>
        <time>2021-09-06T07:48:52.000Z</time>
      </trkpt>
      <trkpt lat="48.71896" lon="-0.74604">
        <ele>308.263728</ele>
        <time>2021-09-06T07:48:55.000Z</time>
      </trkpt>
      <trkpt lat="48.71883" lon="-0.7457">
        <ele>307.781424</ele>
        <time>2021-09-06T07:48:59.000Z</time>
      </trkpt>
      <trkpt lat="48.71878" lon="-0.74563">
        <ele>307.661239</ele>
        <time>2021-09-06T07:49:00.000Z</time>
      </trkpt>
      <trkpt lat="48.71864" lon="-0.74544">
        <ele>307.326066</ele>
        <time>2021-09-06T07:49:03.000Z</time>
      </trkpt>
      <trkpt lat="48.71852" lon="-0.74525">
        <ele>307.071849</ele>
        <time>2021-09-06T07:49:06.000Z</time>
      </trkpt>
      <trkpt lat="48.7183" lon="-0.74476">
        <ele>306.511421</ele>
        <time>2021-09-06T07:49:13.000Z</time>
      </trkpt>
      <trkpt lat="48.71814" lon="-0.74427">
        <ele>305.993064</ele>
        <time>2021-09-06T07:49:20.000Z</time>
      </trkpt>
      <trkpt lat="48.71795" lon="-0.74371">
        <ele>305.399595</ele>
        <time>2021-09-06T07:49:27.000Z</time>
      </trkpt>
      <trkpt lat="48.71783" lon="-0.74322">
        <ele>304.904128</ele>
        <time>2021-09-06T07:49:32.000Z</time>
      </trkpt>
      <trkpt lat="48.7177" lon="-0.74243">
        <ele>303.832876</ele>
        <time>2021-09-06T07:49:39.000Z</time>
      </trkpt>
      <trkpt lat="48.71758" lon="-0.74177">
        <ele>302.891237</ele>
        <time>2021-09-06T07:49:44.000Z</time>
      </trkpt>
      <trkpt lat="48.71748" lon="-0.741">
        <ele>301.826297</ele>
        <time>2021-09-06T07:49:49.000Z</time>
      </trkpt>
      <trkpt lat="48.71734" lon="-0.74049">
        <ele>301.071688</ele>
        <time>2021-09-06T07:49:53.000Z</time>
      </trkpt>
      <trkpt lat="48.71718" lon="-0.73999">
        <ele>300.261809</ele>
        <time>2021-09-06T07:49:58.000Z</time>
      </trkpt>
      <trkpt lat="48.71701" lon="-0.73956">
        <ele>299.527708</ele>
        <time>2021-09-06T07:50:03.000Z</time>
      </trkpt>
      <trkpt lat="48.71696" lon="-0.73949">
        <ele>299.381577</ele>
        <time>2021-09-06T07:50:04.000Z</time>
      </trkpt>
      <trkpt lat="48.7169" lon="-0.73943">
        <ele>299.231034</ele>
        <time>2021-09-06T07:50:05.000Z</time>
      </trkpt>
      <trkpt lat="48.71678" lon="-0.73933">
        <ele>298.924662</ele>
        <time>2021-09-06T07:50:07.000Z</time>
      </trkpt>
      <trkpt lat="48.71671" lon="-0.73929">
        <ele>298.761479</ele>
        <time>2021-09-06T07:50:08.000Z</time>
      </trkpt>
      <trkpt lat="48.71619" lon="-0.73897">
        <ele>297.524765</ele>
        <time>2021-09-06T07:50:15.000Z</time>
      </trkpt>
      <trkpt lat="48.71596" lon="-0.73882">
        <ele>296.883249</ele>
        <time>2021-09-06T07:50:18.000Z</time>
      </trkpt>
      <trkpt lat="48.7158" lon="-0.73873">
        <ele>296.284543</ele>
        <time>2021-09-06T07:50:20.000Z</time>
      </trkpt>
      <trkpt lat="48.71541" lon="-0.73849">
        <ele>294.787185</ele>
        <time>2021-09-06T07:50:25.000Z</time>
      </trkpt>
      <trkpt lat="48.71499" lon="-0.73814">
        <ele>293.126372</ele>
        <time>2021-09-06T07:50:30.000Z</time>
      </trkpt>
      <trkpt lat="48.71474" lon="-0.73784">
        <ele>291.979592</ele>
        <time>2021-09-06T07:50:33.000Z</time>
      </trkpt>
      <trkpt lat="48.71465" lon="-0.73771">
        <ele>291.557845</ele>
        <time>2021-09-06T07:50:34.000Z</time>
      </trkpt>
      <trkpt lat="48.71427" lon="-0.73703">
        <ele>288.504661</ele>
        <time>2021-09-06T07:50:39.000Z</time>
      </trkpt>
      <trkpt lat="48.71419" lon="-0.73689">
        <ele>287.770786</ele>
        <time>2021-09-06T07:50:40.000Z</time>
      </trkpt>
      <trkpt lat="48.71378" lon="-0.73616">
        <ele>283.882454</ele>
        <time>2021-09-06T07:50:45.000Z</time>
      </trkpt>
      <trkpt lat="48.71369" lon="-0.73604">
        <ele>283.132733</ele>
        <time>2021-09-06T07:50:46.000Z</time>
      </trkpt>
      <trkpt lat="48.71348" lon="-0.73589">
        <ele>281.660346</ele>
        <time>2021-09-06T07:50:48.000Z</time>
      </trkpt>
      <trkpt lat="48.71311" lon="-0.73582">
        <ele>279.327113</ele>
        <time>2021-09-06T07:50:51.000Z</time>
      </trkpt>
      <trkpt lat="48.713" lon="-0.73579">
        <ele>278.57568</ele>
        <time>2021-09-06T07:50:52.000Z</time>
      </trkpt>
      <trkpt lat="48.71291" lon="-0.73573">
        <ele>277.862946</ele>
        <time>2021-09-06T07:50:53.000Z</time>
      </trkpt>
      <trkpt lat="48.71283" lon="-0.73562">
        <ele>277.158175</ele>
        <time>2021-09-06T07:50:54.000Z</time>
      </trkpt>
      <trkpt lat="48.71278" lon="-0.73549">
        <ele>276.441072</ele>
        <time>2021-09-06T07:50:55.000Z</time>
      </trkpt>
      <trkpt lat="48.71275" lon="-0.73534">
        <ele>275.721537</ele>
        <time>2021-09-06T07:50:56.000Z</time>
      </trkpt>
      <trkpt lat="48.71272" lon="-0.73503">
        <ele>274.28617</ele>
        <time>2021-09-06T07:50:58.000Z</time>
      </trkpt>
      <trkpt lat="48.71262" lon="-0.73419">
        <ele>270.381415</ele>
        <time>2021-09-06T07:51:04.000Z</time>
      </trkpt>
      <trkpt lat="48.71254" lon="-0.73361">
        <ele>267.652508</ele>
        <time>2021-09-06T07:51:09.000Z</time>
      </trkpt>
      <trkpt lat="48.71253" lon="-0.73351">
        <ele>267.219275</ele>
        <time>2021-09-06T07:51:10.000Z</time>
      </trkpt>
      <trkpt lat="48.71251" lon="-0.73334">
        <ele>266.476134</ele>
        <time>2021-09-06T07:51:12.000Z</time>
      </trkpt>
      <trkpt lat="48.71249" lon="-0.73312">
        <ele>265.550313</ele>
        <time>2021-09-06T07:51:15.000Z</time>
      </trkpt>
      <trkpt lat="48.71248" lon="-0.73299">
        <ele>264.972319</ele>
        <time>2021-09-06T07:51:17.000Z</time>
      </trkpt>
      <trkpt lat="48.71243" lon="-0.73236">
        <ele>262.296985</ele>
        <time>2021-09-06T07:51:26.000Z</time>
      </trkpt>
      <trkpt lat="48.71237" lon="-0.73174">
        <ele>259.67513</ele>
        <time>2021-09-06T07:51:34.000Z</time>
      </trkpt>
      <trkpt lat="48.71238" lon="-0.73111">
        <ele>257.037932</ele>
        <time>2021-09-06T07:51:42.000Z</time>
      </trkpt>
      <trkpt lat="48.71241" lon="-0.73067">
        <ele>255.451544</ele>
        <time>2021-09-06T07:51:48.000Z</time>
      </trkpt>
      <trkpt lat="48.71242" lon="-0.73061">
        <ele>255.317296</ele>
        <time>2021-09-06T07:51:49.000Z</time>
      </trkpt>
      <trkpt lat="48.71242" lon="-0.73055">
        <ele>255.190769</ele>
        <time>2021-09-06T07:51:50.000Z</time>
      </trkpt>
      <trkpt lat="48.71248" lon="-0.73019">
        <ele>254.433241</ele>
        <time>2021-09-06T07:51:56.000Z</time>
      </trkpt>
      <trkpt lat="48.71254" lon="-0.7298">
        <ele>253.621756</ele>
        <time>2021-09-06T07:52:03.000Z</time>
      </trkpt>
      <trkpt lat="48.71258" lon="-0.7295">
        <ele>252.980479</ele>
        <time>2021-09-06T07:52:09.000Z</time>
      </trkpt>
      <trkpt lat="48.71265" lon="-0.72909">
        <ele>252.122648</ele>
        <time>2021-09-06T07:52:17.000Z</time>
      </trkpt>
      <trkpt lat="48.71272" lon="-0.72868">
        <ele>251.248625</ele>
        <time>2021-09-06T07:52:24.000Z</time>
      </trkpt>
      <trkpt lat="48.71281" lon="-0.72814">
        <ele>250.112768</ele>
        <time>2021-09-06T07:52:31.000Z</time>
      </trkpt>
      <trkpt lat="48.7129" lon="-0.72754">
        <ele>249.807369</ele>
        <time>2021-09-06T07:52:39.000Z</time>
      </trkpt>
      <trkpt lat="48.71291" lon="-0.72747">
        <ele>249.775411</ele>
        <time>2021-09-06T07:52:40.000Z</time>
      </trkpt>
      <trkpt lat="48.71295" lon="-0.72718">
        <ele>249.626914</ele>
        <time>2021-09-06T07:52:45.000Z</time>
      </trkpt>
      <trkpt lat="48.713" lon="-0.72679">
        <ele>249.427218</ele>
        <time>2021-09-06T07:52:52.000Z</time>
      </trkpt>
      <trkpt lat="48.71307" lon="-0.7263">
        <ele>249.182486</ele>
        <time>2021-09-06T07:53:00.000Z</time>
      </trkpt>
      <trkpt lat="48.71313" lon="-0.72577">
        <ele>248.916466</ele>
        <time>2021-09-06T07:53:07.000Z</time>
      </trkpt>
      <trkpt lat="48.71313" lon="-0.72562">
        <ele>248.838074</ele>
        <time>2021-09-06T07:53:09.000Z</time>
      </trkpt>
      <trkpt lat="48.71311" lon="-0.72532">
        <ele>248.761603</ele>
        <time>2021-09-06T07:53:13.000Z</time>
      </trkpt>
      <trkpt lat="48.713" lon="-0.72493">
        <ele>248.748664</ele>
        <time>2021-09-06T07:53:19.000Z</time>
      </trkpt>
      <trkpt lat="48.71297" lon="-0.72487">
        <ele>248.746423</ele>
        <time>2021-09-06T07:53:20.000Z</time>
      </trkpt>
      <trkpt lat="48.7129" lon="-0.72475">
        <ele>248.741692</ele>
        <time>2021-09-06T07:53:22.000Z</time>
      </trkpt>
      <trkpt lat="48.71277" lon="-0.72458">
        <ele>248.733895</ele>
        <time>2021-09-06T07:53:25.000Z</time>
      </trkpt>
      <trkpt lat="48.71253" lon="-0.72432">
        <ele>248.720568</ele>
        <time>2021-09-06T07:53:30.000Z</time>
      </trkpt>
      <trkpt lat="48.71246" lon="-0.7242">
        <ele>248.715755</ele>
        <time>2021-09-06T07:53:32.000Z</time>
      </trkpt>
      <trkpt lat="48.71243" lon="-0.72406">
        <ele>248.711334</ele>
        <time>2021-09-06T07:53:34.000Z</time>
      </trkpt>
      <trkpt lat="48.71241" lon="-0.72392">
        <ele>248.707071</ele>
        <time>2021-09-06T07:53:36.000Z</time>
      </trkpt>
      <trkpt lat="48.71241" lon="-0.72374">
        <ele>248.701622</ele>
        <time>2021-09-06T07:53:39.000Z</time>
      </trkpt>
      <trkpt lat="48.71244" lon="-0.72342">
        <ele>248.691944</ele>
        <time>2021-09-06T07:53:45.000Z</time>
      </trkpt>
      <trkpt lat="48.71244" lon="-0.72309">
        <ele>248.676844</ele>
        <time>2021-09-06T07:53:52.000Z</time>
      </trkpt>
      <trkpt lat="48.71246" lon="-0.72276">
        <ele>248.64544</ele>
        <time>2021-09-06T07:53:59.000Z</time>
      </trkpt>
      <trkpt lat="48.71246" lon="-0.72248">
        <ele>248.618472</ele>
        <time>2021-09-06T07:54:05.000Z</time>
      </trkpt>
      <trkpt lat="48.71239" lon="-0.72231">
        <ele>248.599633</ele>
        <time>2021-09-06T07:54:09.000Z</time>
      </trkpt>
      <trkpt lat="48.71235" lon="-0.72227">
        <ele>248.592928</ele>
        <time>2021-09-06T07:54:10.000Z</time>
      </trkpt>
      <trkpt lat="48.71231" lon="-0.72224">
        <ele>248.585598</ele>
        <time>2021-09-06T07:54:11.000Z</time>
      </trkpt>
      <trkpt lat="48.71213" lon="-0.72216">
        <ele>248.559108</ele>
        <time>2021-09-06T07:54:14.000Z</time>
      </trkpt>
      <trkpt lat="48.71178" lon="-0.72209">
        <ele>248.507357</ele>
        <time>2021-09-06T07:54:19.000Z</time>
      </trkpt>
      <trkpt lat="48.71123" lon="-0.72197">
        <ele>248.427428</ele>
        <time>2021-09-06T07:54:26.000Z</time>
      </trkpt>
      <trkpt lat="48.7107" lon="-0.72185">
        <ele>248.338692</ele>
        <time>2021-09-06T07:54:32.000Z</time>
      </trkpt>
      <trkpt lat="48.71039" lon="-0.72177">
        <ele>248.287108</ele>
        <time>2021-09-06T07:54:36.000Z</time>
      </trkpt>
      <trkpt lat="48.71007" lon="-0.7217">
        <ele>248.233447</ele>
        <time>2021-09-06T07:54:42.000Z</time>
      </trkpt>
      <trkpt lat="48.70983" lon="-0.72164">
        <ele>248.19316</ele>
        <time>2021-09-06T07:54:48.000Z</time>
      </trkpt>
      <trkpt lat="48.7095" lon="-0.72156">
        <ele>248.136319</ele>
        <time>2021-09-06T07:54:57.000Z</time>
      </trkpt>
      <trkpt lat="48.70918" lon="-0.7215">
        <ele>248.397631</ele>
        <time>2021-09-06T07:55:05.000Z</time>
      </trkpt>
      <trkpt lat="48.70884" lon="-0.72141">
        <ele>248.760395</ele>
        <time>2021-09-06T07:55:14.000Z</time>
      </trkpt>
      <trkpt lat="48.70865" lon="-0.72124">
        <ele>249.000682</ele>
        <time>2021-09-06T07:55:21.000Z</time>
      </trkpt>
      <trkpt lat="48.70857" lon="-0.72104">
        <ele>249.16668</ele>
        <time>2021-09-06T07:55:27.000Z</time>
      </trkpt>
      <trkpt lat="48.70855" lon="-0.72081">
        <ele>249.331459</ele>
        <time>2021-09-06T07:55:33.000Z</time>
      </trkpt>
      <trkpt lat="48.70852" lon="-0.72059">
        <ele>249.490718</ele>
        <time>2021-09-06T07:55:39.000Z</time>
      </trkpt>
      <trkpt lat="48.70851" lon="-0.72051">
        <ele>249.548896</ele>
        <time>2021-09-06T07:55:41.000Z</time>
      </trkpt>
      <trkpt lat="48.70851" lon="-0.72041">
        <ele>249.622778</ele>
        <time>2021-09-06T07:55:43.000Z</time>
      </trkpt>
      <trkpt lat="48.70851" lon="-0.72027">
        <ele>249.723278</ele>
        <time>2021-09-06T07:55:46.000Z</time>
      </trkpt>
      <trkpt lat="48.70852" lon="-0.72022">
        <ele>249.75994</ele>
        <time>2021-09-06T07:55:47.000Z</time>
      </trkpt>
      <trkpt lat="48.70851" lon="-0.71979">
        <ele>250.091217</ele>
        <time>2021-09-06T07:55:55.000Z</time>
      </trkpt>
      <trkpt lat="48.70851" lon="-0.71952">
        <ele>250.783836</ele>
        <time>2021-09-06T07:56:00.000Z</time>
      </trkpt>
      <trkpt lat="48.70851" lon="-0.71928">
        <ele>251.409557</ele>
        <time>2021-09-06T07:56:04.000Z</time>
      </trkpt>
      <trkpt lat="48.70847" lon="-0.71893">
        <ele>252.325025</ele>
        <time>2021-09-06T07:56:10.000Z</time>
      </trkpt>
      <trkpt lat="48.70835" lon="-0.71866">
        <ele>253.166277</ele>
        <time>2021-09-06T07:56:16.000Z</time>
      </trkpt>
      <trkpt lat="48.70823" lon="-0.71853">
        <ele>253.7521</ele>
        <time>2021-09-06T07:56:21.000Z</time>
      </trkpt>
      <trkpt lat="48.70816" lon="-0.71865">
        <ele>254.15654</ele>
        <time>2021-09-06T07:56:26.000Z</time>
      </trkpt>
      <trkpt lat="48.70809" lon="-0.71885">
        <ele>254.743828</ele>
        <time>2021-09-06T07:56:33.000Z</time>
      </trkpt>
      <trkpt lat="48.70796" lon="-0.71903">
        <ele>255.428837</ele>
        <time>2021-09-06T07:56:41.000Z</time>
      </trkpt>
      <trkpt lat="48.70779" lon="-0.71914">
        <ele>256.151758</ele>
        <time>2021-09-06T07:56:49.000Z</time>
      </trkpt>
      <trkpt lat="48.70761" lon="-0.71917">
        <ele>256.848365</ele>
        <time>2021-09-06T07:56:57.000Z</time>
      </trkpt>
      <trkpt lat="48.70745" lon="-0.71918">
        <ele>257.781176</ele>
        <time>2021-09-06T07:57:04.000Z</time>
      </trkpt>
      <trkpt lat="48.70726" lon="-0.71921">
        <ele>259.101627</ele>
        <time>2021-09-06T07:57:13.000Z</time>
      </trkpt>
      <trkpt lat="48.70706" lon="-0.71925">
        <ele>260.544927</ele>
        <time>2021-09-06T07:57:22.000Z</time>
      </trkpt>
      <trkpt lat="48.70688" lon="-0.71927">
        <ele>261.81116</ele>
        <time>2021-09-06T07:57:30.000Z</time>
      </trkpt>
      <trkpt lat="48.70676" lon="-0.71929">
        <ele>262.643179</ele>
        <time>2021-09-06T07:57:36.000Z</time>
      </trkpt>
      <trkpt lat="48.70663" lon="-0.71932">
        <ele>263.578138</ele>
        <time>2021-09-06T07:57:42.000Z</time>
      </trkpt>
      <trkpt lat="48.70645" lon="-0.71934">
        <ele>264.846107</ele>
        <time>2021-09-06T07:57:50.000Z</time>
      </trkpt>
      <trkpt lat="48.70629" lon="-0.71937">
        <ele>265.997078</ele>
        <time>2021-09-06T07:57:57.000Z</time>
      </trkpt>
      <trkpt lat="48.70617" lon="-0.71938">
        <ele>266.840941</ele>
        <time>2021-09-06T07:58:02.000Z</time>
      </trkpt>
      <trkpt lat="48.70607" lon="-0.71939">
        <ele>267.516087</ele>
        <time>2021-09-06T07:58:06.000Z</time>
      </trkpt>
      <trkpt lat="48.7059" lon="-0.71941">
        <ele>268.692742</ele>
        <time>2021-09-06T07:58:12.000Z</time>
      </trkpt>
      <trkpt lat="48.70571" lon="-0.71944">
        <ele>269.84826</ele>
        <time>2021-09-06T07:58:19.000Z</time>
      </trkpt>
      <trkpt lat="48.70542" lon="-0.71949">
        <ele>270.561128</ele>
        <time>2021-09-06T07:58:28.000Z</time>
      </trkpt>
      <trkpt lat="48.70515" lon="-0.71953">
        <ele>271.236613</ele>
        <time>2021-09-06T07:58:35.000Z</time>
      </trkpt>
      <trkpt lat="48.70485" lon="-0.71957">
        <ele>271.994113</ele>
        <time>2021-09-06T07:58:42.000Z</time>
      </trkpt>
      <trkpt lat="48.70471" lon="-0.71959">
        <ele>272.330201</ele>
        <time>2021-09-06T07:58:45.000Z</time>
      </trkpt>
      <trkpt lat="48.70457" lon="-0.71962">
        <ele>272.688735</ele>
        <time>2021-09-06T07:58:48.000Z</time>
      </trkpt>
      <trkpt lat="48.70419" lon="-0.71968">
        <ele>273.637158</ele>
        <time>2021-09-06T07:58:55.000Z</time>
      </trkpt>
      <trkpt lat="48.70379" lon="-0.71974">
        <ele>273.984785</ele>
        <time>2021-09-06T07:59:01.000Z</time>
      </trkpt>
      <trkpt lat="48.7033" lon="-0.71984">
        <ele>273.441368</ele>
        <time>2021-09-06T07:59:07.000Z</time>
      </trkpt>
      <trkpt lat="48.70272" lon="-0.71993">
        <ele>272.793741</ele>
        <time>2021-09-06T07:59:13.000Z</time>
      </trkpt>
      <trkpt lat="48.70243" lon="-0.71995">
        <ele>272.464917</ele>
        <time>2021-09-06T07:59:16.000Z</time>
      </trkpt>
      <trkpt lat="48.70234" lon="-0.71992">
        <ele>272.364625</ele>
        <time>2021-09-06T07:59:17.000Z</time>
      </trkpt>
      <trkpt lat="48.70226" lon="-0.71988">
        <ele>272.262303</ele>
        <time>2021-09-06T07:59:18.000Z</time>
      </trkpt>
      <trkpt lat="48.70209" lon="-0.71972">
        <ele>272.063934</ele>
        <time>2021-09-06T07:59:20.000Z</time>
      </trkpt>
      <trkpt lat="48.70179" lon="-0.7193">
        <ele>271.653287</ele>
        <time>2021-09-06T07:59:25.000Z</time>
      </trkpt>
      <trkpt lat="48.70171" lon="-0.71917">
        <ele>271.539899</ele>
        <time>2021-09-06T07:59:27.000Z</time>
      </trkpt>
      <trkpt lat="48.70167" lon="-0.71911">
        <ele>271.48437</ele>
        <time>2021-09-06T07:59:28.000Z</time>
      </trkpt>
      <trkpt lat="48.70163" lon="-0.71905">
        <ele>271.42763</ele>
        <time>2021-09-06T07:59:29.000Z</time>
      </trkpt>
      <trkpt lat="48.7015" lon="-0.71888">
        <ele>271.258879</ele>
        <time>2021-09-06T07:59:32.000Z</time>
      </trkpt>
      <trkpt lat="48.70125" lon="-0.71858">
        <ele>270.939844</ele>
        <time>2021-09-06T07:59:39.000Z</time>
      </trkpt>
      <trkpt lat="48.70104" lon="-0.71839">
        <ele>270.699904</ele>
        <time>2021-09-06T07:59:45.000Z</time>
      </trkpt>
      <trkpt lat="48.70085" lon="-0.71825">
        <ele>270.48641</ele>
        <time>2021-09-06T07:59:51.000Z</time>
      </trkpt>
      <trkpt lat="48.70083" lon="-0.71821">
        <ele>270.450938</ele>
        <time>2021-09-06T07:59:52.000Z</time>
      </trkpt>
      <trkpt lat="48.70082" lon="-0.71815">
        <ele>270.412808</ele>
        <time>2021-09-06T07:59:53.000Z</time>
      </trkpt>
      <trkpt lat="48.70086" lon="-0.71805">
        <ele>270.515373</ele>
        <time>2021-09-06T07:59:55.000Z</time>
      </trkpt>
      <trkpt lat="48.70089" lon="-0.718">
        <ele>270.583604</ele>
        <time>2021-09-06T07:59:56.000Z</time>
      </trkpt>
      <trkpt lat="48.70118" lon="-0.71757">
        <ele>271.270582</ele>
        <time>2021-09-06T08:00:06.000Z</time>
      </trkpt>
      <trkpt lat="48.70139" lon="-0.71726">
        <ele>271.760433</ele>
        <time>2021-09-06T08:00:14.000Z</time>
      </trkpt>
      <trkpt lat="48.70157" lon="-0.717">
        <ele>272.189912</ele>
        <time>2021-09-06T08:00:21.000Z</time>
      </trkpt>
      <trkpt lat="48.70177" lon="-0.71671">
        <ele>272.654731</ele>
        <time>2021-09-06T08:00:29.000Z</time>
      </trkpt>
      <trkpt lat="48.70195" lon="-0.71645">
        <ele>273.073066</ele>
        <time>2021-09-06T08:00:36.000Z</time>
      </trkpt>
      <trkpt lat="48.702" lon="-0.71639">
        <ele>273.185263</ele>
        <time>2021-09-06T08:00:38.000Z</time>
      </trkpt>
      <trkpt lat="48.70205" lon="-0.71632">
        <ele>273.30078</ele>
        <time>2021-09-06T08:00:40.000Z</time>
      </trkpt>
      <trkpt lat="48.70218" lon="-0.71612">
        <ele>273.633681</ele>
        <time>2021-09-06T08:00:45.000Z</time>
      </trkpt>
      <trkpt lat="48.70237" lon="-0.71582">
        <ele>274.162527</ele>
        <time>2021-09-06T08:00:53.000Z</time>
      </trkpt>
      <trkpt lat="48.7025" lon="-0.71545">
        <ele>274.70343</ele>
        <time>2021-09-06T08:01:01.000Z</time>
      </trkpt>
      <trkpt lat="48.70257" lon="-0.71509">
        <ele>275.189523</ele>
        <time>2021-09-06T08:01:08.000Z</time>
      </trkpt>
      <trkpt lat="48.70266" lon="-0.7145">
        <ele>275.972479</ele>
        <time>2021-09-06T08:01:18.000Z</time>
      </trkpt>
      <trkpt lat="48.70271" lon="-0.71408">
        <ele>276.518742</ele>
        <time>2021-09-06T08:01:24.000Z</time>
      </trkpt>
      <trkpt lat="48.70271" lon="-0.71401">
        <ele>276.608799</ele>
        <time>2021-09-06T08:01:25.000Z</time>
      </trkpt>
      <trkpt lat="48.70272" lon="-0.71386">
        <ele>276.792136</ele>
        <time>2021-09-06T08:01:27.000Z</time>
      </trkpt>
      <trkpt lat="48.70274" lon="-0.71365">
        <ele>276.906924</ele>
        <time>2021-09-06T08:01:30.000Z</time>
      </trkpt>
      <trkpt lat="48.70279" lon="-0.71302">
        <ele>276.745664</ele>
        <time>2021-09-06T08:01:38.000Z</time>
      </trkpt>
      <trkpt lat="48.7028" lon="-0.71294">
        <ele>276.725973</ele>
        <time>2021-09-06T08:01:39.000Z</time>
      </trkpt>
      <trkpt lat="48.70281" lon="-0.71271">
        <ele>276.666793</ele>
        <time>2021-09-06T08:01:42.000Z</time>
      </trkpt>
      <trkpt lat="48.7028" lon="-0.71255">
        <ele>276.627321</ele>
        <time>2021-09-06T08:01:44.000Z</time>
      </trkpt>
      <trkpt lat="48.70279" lon="-0.71238">
        <ele>276.585048</ele>
        <time>2021-09-06T08:01:46.000Z</time>
      </trkpt>
      <trkpt lat="48.70279" lon="-0.7122">
        <ele>276.539724</ele>
        <time>2021-09-06T08:01:48.000Z</time>
      </trkpt>
      <trkpt lat="48.7028" lon="-0.71201">
        <ele>276.491069</ele>
        <time>2021-09-06T08:01:50.000Z</time>
      </trkpt>
      <trkpt lat="48.7028" lon="-0.71173">
        <ele>276.419287</ele>
        <time>2021-09-06T08:01:53.000Z</time>
      </trkpt>
      <trkpt lat="48.7028" lon="-0.71164">
        <ele>276.396045</ele>
        <time>2021-09-06T08:01:54.000Z</time>
      </trkpt>
      <trkpt lat="48.70278" lon="-0.71125">
        <ele>276.297917</ele>
        <time>2021-09-06T08:01:58.000Z</time>
      </trkpt>
      <trkpt lat="48.70276" lon="-0.71057">
        <ele>275.919103</ele>
        <time>2021-09-06T08:02:05.000Z</time>
      </trkpt>
      <trkpt lat="48.70276" lon="-0.71038">
        <ele>275.78842</ele>
        <time>2021-09-06T08:02:07.000Z</time>
      </trkpt>
      <trkpt lat="48.70278" lon="-0.71003">
        <ele>275.550417</ele>
        <time>2021-09-06T08:02:11.000Z</time>
      </trkpt>
      <trkpt lat="48.70281" lon="-0.7095">
        <ele>275.184843</ele>
        <time>2021-09-06T08:02:17.000Z</time>
      </trkpt>
      <trkpt lat="48.70281" lon="-0.70913">
        <ele>274.925574</ele>
        <time>2021-09-06T08:02:21.000Z</time>
      </trkpt>
      <trkpt lat="48.70278" lon="-0.70906">
        <ele>274.873835</ele>
        <time>2021-09-06T08:02:22.000Z</time>
      </trkpt>
      <trkpt lat="48.70275" lon="-0.70901">
        <ele>274.822334</ele>
        <time>2021-09-06T08:02:23.000Z</time>
      </trkpt>
      <trkpt lat="48.70266" lon="-0.70899">
        <ele>274.726729</ele>
        <time>2021-09-06T08:02:25.000Z</time>
      </trkpt>
      <trkpt lat="48.70229" lon="-0.7089">
        <ele>274.36336</ele>
        <time>2021-09-06T08:02:33.000Z</time>
      </trkpt>
      <trkpt lat="48.70203" lon="-0.70879">
        <ele>274.278399</ele>
        <time>2021-09-06T08:02:40.000Z</time>
      </trkpt>
      <trkpt lat="48.70175" lon="-0.70865">
        <ele>274.184515</ele>
        <time>2021-09-06T08:02:47.000Z</time>
      </trkpt>
      <trkpt lat="48.70153" lon="-0.70852">
        <ele>274.112192</ele>
        <time>2021-09-06T08:02:52.000Z</time>
      </trkpt>
      <trkpt lat="48.70149" lon="-0.7085">
        <ele>274.096775</ele>
        <time>2021-09-06T08:02:53.000Z</time>
      </trkpt>
      <trkpt lat="48.70118" lon="-0.70833">
        <ele>273.993315</ele>
        <time>2021-09-06T08:02:59.000Z</time>
      </trkpt>
      <trkpt lat="48.70067" lon="-0.70807">
        <ele>273.825295</ele>
        <time>2021-09-06T08:03:08.000Z</time>
      </trkpt>
      <trkpt lat="48.70026" lon="-0.70802">
        <ele>273.898128</ele>
        <time>2021-09-06T08:03:15.000Z</time>
      </trkpt>
      <trkpt lat="48.69989" lon="-0.70812">
        <ele>273.996684</ele>
        <time>2021-09-06T08:03:22.000Z</time>
      </trkpt>
      <trkpt lat="48.6995" lon="-0.70825">
        <ele>274.099703</ele>
        <time>2021-09-06T08:03:29.000Z</time>
      </trkpt>
      <trkpt lat="48.69905" lon="-0.70843">
        <ele>274.219895</ele>
        <time>2021-09-06T08:03:37.000Z</time>
      </trkpt>
      <trkpt lat="48.69866" lon="-0.70859">
        <ele>274.039625</ele>
        <time>2021-09-06T08:03:43.000Z</time>
      </trkpt>
      <trkpt lat="48.69817" lon="-0.70877">
        <ele>273.46265</ele>
        <time>2021-09-06T08:03:49.000Z</time>
      </trkpt>
      <trkpt lat="48.69763" lon="-0.70898">
        <ele>272.808419</ele>
        <time>2021-09-06T08:03:55.000Z</time>
      </trkpt>
      <trkpt lat="48.69754" lon="-0.70901">
        <ele>272.697767</ele>
        <time>2021-09-06T08:03:56.000Z</time>
      </trkpt>
      <trkpt lat="48.69697" lon="-0.70921">
        <ele>271.97266</ele>
        <time>2021-09-06T08:04:02.000Z</time>
      </trkpt>
      <trkpt lat="48.69687" lon="-0.70924">
        <ele>271.827841</ele>
        <time>2021-09-06T08:04:03.000Z</time>
      </trkpt>
      <trkpt lat="48.69631" lon="-0.70946">
        <ele>270.951856</ele>
        <time>2021-09-06T08:04:09.000Z</time>
      </trkpt>
      <trkpt lat="48.69613" lon="-0.70952">
        <ele>270.671036</ele>
        <time>2021-09-06T08:04:11.000Z</time>
      </trkpt>
      <trkpt lat="48.69565" lon="-0.70969">
        <ele>269.934669</ele>
        <time>2021-09-06T08:04:17.000Z</time>
      </trkpt>
      <trkpt lat="48.69526" lon="-0.70983">
        <ele>269.377001</ele>
        <time>2021-09-06T08:04:23.000Z</time>
      </trkpt>
      <trkpt lat="48.69501" lon="-0.7099">
        <ele>269.122591</ele>
        <time>2021-09-06T08:04:27.000Z</time>
      </trkpt>
      <trkpt lat="48.69469" lon="-0.71001">
        <ele>268.796344</ele>
        <time>2021-09-06T08:04:32.000Z</time>
      </trkpt>
      <trkpt lat="48.69425" lon="-0.71016">
        <ele>268.337875</ele>
        <time>2021-09-06T08:04:39.000Z</time>
      </trkpt>
      <trkpt lat="48.69378" lon="-0.71033">
        <ele>267.856241</ele>
        <time>2021-09-06T08:04:46.000Z</time>
      </trkpt>
      <trkpt lat="48.69364" lon="-0.71037">
        <ele>267.717718</ele>
        <time>2021-09-06T08:04:48.000Z</time>
      </trkpt>
      <trkpt lat="48.69344" lon="-0.71046">
        <ele>267.435467</ele>
        <time>2021-09-06T08:04:51.000Z</time>
      </trkpt>
      <trkpt lat="48.69288" lon="-0.71066">
        <ele>266.625955</ele>
        <time>2021-09-06T08:04:59.000Z</time>
      </trkpt>
      <trkpt lat="48.69274" lon="-0.71071">
        <ele>266.430525</ele>
        <time>2021-09-06T08:05:01.000Z</time>
      </trkpt>
      <trkpt lat="48.69239" lon="-0.71083">
        <ele>265.921751</ele>
        <time>2021-09-06T08:05:06.000Z</time>
      </trkpt>
      <trkpt lat="48.69201" lon="-0.71096">
        <ele>265.38339</ele>
        <time>2021-09-06T08:05:11.000Z</time>
      </trkpt>
      <trkpt lat="48.69155" lon="-0.71113">
        <ele>264.698351</ele>
        <time>2021-09-06T08:05:17.000Z</time>
      </trkpt>
      <trkpt lat="48.69096" lon="-0.71131">
        <ele>263.809408</ele>
        <time>2021-09-06T08:05:24.000Z</time>
      </trkpt>
      <trkpt lat="48.69047" lon="-0.71145">
        <ele>263.082712</ele>
        <time>2021-09-06T08:05:30.000Z</time>
      </trkpt>
      <trkpt lat="48.69004" lon="-0.7116">
        <ele>262.460786</ele>
        <time>2021-09-06T08:05:36.000Z</time>
      </trkpt>
      <trkpt lat="48.68974" lon="-0.71171">
        <ele>262.123672</ele>
        <time>2021-09-06T08:05:41.000Z</time>
      </trkpt>
      <trkpt lat="48.68945" lon="-0.71181">
        <ele>261.805924</ele>
        <time>2021-09-06T08:05:46.000Z</time>
      </trkpt>
      <trkpt lat="48.68913" lon="-0.71192">
        <ele>261.457866</ele>
        <time>2021-09-06T08:05:52.000Z</time>
      </trkpt>
      <trkpt lat="48.68889" lon="-0.71199">
        <ele>261.192084</ele>
        <time>2021-09-06T08:05:57.000Z</time>
      </trkpt>
      <trkpt lat="48.68879" lon="-0.71203">
        <ele>261.088258</ele>
        <time>2021-09-06T08:05:59.000Z</time>
      </trkpt>
      <trkpt lat="48.68856" lon="-0.71211">
        <ele>260.831362</ele>
        <time>2021-09-06T08:06:04.000Z</time>
      </trkpt>
      <trkpt lat="48.68821" lon="-0.71223">
        <ele>260.364125</ele>
        <time>2021-09-06T08:06:11.000Z</time>
      </trkpt>
      <trkpt lat="48.68777" lon="-0.71238">
        <ele>259.614739</ele>
        <time>2021-09-06T08:06:18.000Z</time>
      </trkpt>
      <trkpt lat="48.6872" lon="-0.71257">
        <ele>258.628585</ele>
        <time>2021-09-06T08:06:26.000Z</time>
      </trkpt>
      <trkpt lat="48.68705" lon="-0.7126">
        <ele>258.380228</ele>
        <time>2021-09-06T08:06:28.000Z</time>
      </trkpt>
      <trkpt lat="48.68693" lon="-0.71255">
        <ele>258.167736</ele>
        <time>2021-09-06T08:06:30.000Z</time>
      </trkpt>
      <trkpt lat="48.68689" lon="-0.71252">
        <ele>258.086381</ele>
        <time>2021-09-06T08:06:31.000Z</time>
      </trkpt>
      <trkpt lat="48.68684" lon="-0.71239">
        <ele>257.933813</ele>
        <time>2021-09-06T08:06:33.000Z</time>
      </trkpt>
      <trkpt lat="48.68689" lon="-0.71224">
        <ele>257.748671</ele>
        <time>2021-09-06T08:06:35.000Z</time>
      </trkpt>
      <trkpt lat="48.68692" lon="-0.71216">
        <ele>257.646099</ele>
        <time>2021-09-06T08:06:36.000Z</time>
      </trkpt>
      <trkpt lat="48.6871" lon="-0.71171">
        <ele>257.009176</ele>
        <time>2021-09-06T08:06:41.000Z</time>
      </trkpt>
      <trkpt lat="48.68737" lon="-0.71096">
        <ele>255.964951</ele>
        <time>2021-09-06T08:06:48.000Z</time>
      </trkpt>
      <trkpt lat="48.68763" lon="-0.71023">
        <ele>254.946699</ele>
        <time>2021-09-06T08:06:55.000Z</time>
      </trkpt>
      <trkpt lat="48.68787" lon="-0.70958">
        <ele>254.13438</ele>
        <time>2021-09-06T08:07:02.000Z</time>
      </trkpt>
      <trkpt lat="48.68807" lon="-0.7089">
        <ele>253.676717</ele>
        <time>2021-09-06T08:07:10.000Z</time>
      </trkpt>
      <trkpt lat="48.68816" lon="-0.70849">
        <ele>253.415324</ele>
        <time>2021-09-06T08:07:15.000Z</time>
      </trkpt>
      <trkpt lat="48.68825" lon="-0.70791">
        <ele>253.053177</ele>
        <time>2021-09-06T08:07:22.000Z</time>
      </trkpt>
      <trkpt lat="48.68827" lon="-0.70766">
        <ele>252.900917</ele>
        <time>2021-09-06T08:07:25.000Z</time>
      </trkpt>
      <trkpt lat="48.6883" lon="-0.70742">
        <ele>252.75225</ele>
        <time>2021-09-06T08:07:28.000Z</time>
      </trkpt>
      <trkpt lat="48.68839" lon="-0.70658">
        <ele>252.556569</ele>
        <time>2021-09-06T08:07:38.000Z</time>
      </trkpt>
      <trkpt lat="48.68848" lon="-0.70576">
        <ele>252.533877</ele>
        <time>2021-09-06T08:07:48.000Z</time>
      </trkpt>
      <trkpt lat="48.68859" lon="-0.70514">
        <ele>252.516487</ele>
        <time>2021-09-06T08:07:56.000Z</time>
      </trkpt>
      <trkpt lat="48.68871" lon="-0.7046">
        <ele>252.500839</ele>
        <time>2021-09-06T08:08:03.000Z</time>
      </trkpt>
      <trkpt lat="48.68886" lon="-0.70408">
        <ele>252.104355</ele>
        <time>2021-09-06T08:08:09.000Z</time>
      </trkpt>
      <trkpt lat="48.68902" lon="-0.70346">
        <ele>251.508019</ele>
        <time>2021-09-06T08:08:15.000Z</time>
      </trkpt>
      <trkpt lat="48.68908" lon="-0.70324">
        <ele>251.302478</ele>
        <time>2021-09-06T08:08:17.000Z</time>
      </trkpt>
      <trkpt lat="48.68913" lon="-0.70302">
        <ele>251.087727</ele>
        <time>2021-09-06T08:08:19.000Z</time>
      </trkpt>
      <trkpt lat="48.68931" lon="-0.70236">
        <ele>250.456002</ele>
        <time>2021-09-06T08:08:24.000Z</time>
      </trkpt>
      <trkpt lat="48.68946" lon="-0.70155">
        <ele>249.901192</ele>
        <time>2021-09-06T08:08:30.000Z</time>
      </trkpt>
      <trkpt lat="48.68946" lon="-0.70107">
        <ele>249.707363</ele>
        <time>2021-09-06T08:08:34.000Z</time>
      </trkpt>
      <trkpt lat="48.68944" lon="-0.70071">
        <ele>249.56082</ele>
        <time>2021-09-06T08:08:38.000Z</time>
      </trkpt>
      <trkpt lat="48.68941" lon="-0.70032">
        <ele>249.398793</ele>
        <time>2021-09-06T08:08:44.000Z</time>
      </trkpt>
      <trkpt lat="48.6894" lon="-0.70002">
        <ele>249.280484</ele>
        <time>2021-09-06T08:08:50.000Z</time>
      </trkpt>
      <trkpt lat="48.68937" lon="-0.69976">
        <ele>249.171782</ele>
        <time>2021-09-06T08:08:56.000Z</time>
      </trkpt>
      <trkpt lat="48.68936" lon="-0.69943">
        <ele>249.038911</ele>
        <time>2021-09-06T08:09:03.000Z</time>
      </trkpt>
      <trkpt lat="48.68933" lon="-0.69916">
        <ele>249.006014</ele>
        <time>2021-09-06T08:09:09.000Z</time>
      </trkpt>
      <trkpt lat="48.68932" lon="-0.69876">
        <ele>249.209104</ele>
        <time>2021-09-06T08:09:17.000Z</time>
      </trkpt>
      <trkpt lat="48.6893" lon="-0.69847">
        <ele>249.36007</ele>
        <time>2021-09-06T08:09:23.000Z</time>
      </trkpt>
      <trkpt lat="48.68928" lon="-0.698">
        <ele>249.601906</ele>
        <time>2021-09-06T08:09:31.000Z</time>
      </trkpt>
      <trkpt lat="48.68925" lon="-0.69755">
        <ele>249.834217</ele>
        <time>2021-09-06T08:09:38.000Z</time>
      </trkpt>
      <trkpt lat="48.68924" lon="-0.69749">
        <ele>249.866673</ele>
        <time>2021-09-06T08:09:39.000Z</time>
      </trkpt>
      <trkpt lat="48.68917" lon="-0.69744">
        <ele>249.929924</ele>
        <time>2021-09-06T08:09:41.000Z</time>
      </trkpt>
      <trkpt lat="48.68912" lon="-0.69743">
        <ele>249.963545</ele>
        <time>2021-09-06T08:09:42.000Z</time>
      </trkpt>
      <trkpt lat="48.68904" lon="-0.69743">
        <ele>250.028945</ele>
        <time>2021-09-06T08:09:44.000Z</time>
      </trkpt>
      <trkpt lat="48.689" lon="-0.69742">
        <ele>250.059741</ele>
        <time>2021-09-06T08:09:45.000Z</time>
      </trkpt>
      <trkpt lat="48.68868" lon="-0.69731">
        <ele>250.312182</ele>
        <time>2021-09-06T08:09:52.000Z</time>
      </trkpt>
      <trkpt lat="48.68828" lon="-0.69718">
        <ele>250.591157</ele>
        <time>2021-09-06T08:10:00.000Z</time>
      </trkpt>
      <trkpt lat="48.68808" lon="-0.69712">
        <ele>250.724153</ele>
        <time>2021-09-06T08:10:04.000Z</time>
      </trkpt>
      <trkpt lat="48.6878" lon="-0.69701">
        <ele>250.918945</ele>
        <time>2021-09-06T08:10:10.000Z</time>
      </trkpt>
      <trkpt lat="48.68756" lon="-0.69691">
        <ele>251.084357</ele>
        <time>2021-09-06T08:10:15.000Z</time>
      </trkpt>
      <trkpt lat="48.68726" lon="-0.69674">
        <ele>251.292706</ele>
        <time>2021-09-06T08:10:22.000Z</time>
      </trkpt>
      <trkpt lat="48.68722" lon="-0.69672">
        <ele>251.321106</ele>
        <time>2021-09-06T08:10:23.000Z</time>
      </trkpt>
      <trkpt lat="48.68702" lon="-0.69661">
        <ele>251.461409</ele>
        <time>2021-09-06T08:10:28.000Z</time>
      </trkpt>
      <trkpt lat="48.6869" lon="-0.69654">
        <ele>251.544441</ele>
        <time>2021-09-06T08:10:31.000Z</time>
      </trkpt>
      <trkpt lat="48.68674" lon="-0.69646">
        <ele>251.668622</ele>
        <time>2021-09-06T08:10:35.000Z</time>
      </trkpt>
      <trkpt lat="48.68638" lon="-0.69626">
        <ele>251.950098</ele>
        <time>2021-09-06T08:10:43.000Z</time>
      </trkpt>
      <trkpt lat="48.68599" lon="-0.69607">
        <ele>252.252877</ele>
        <time>2021-09-06T08:10:50.000Z</time>
      </trkpt>
      <trkpt lat="48.68555" lon="-0.69586">
        <ele>252.589091</ele>
        <time>2021-09-06T08:10:57.000Z</time>
      </trkpt>
      <trkpt lat="48.68511" lon="-0.69565">
        <ele>252.947727</ele>
        <time>2021-09-06T08:11:04.000Z</time>
      </trkpt>
      <trkpt lat="48.68471" lon="-0.69547">
        <ele>253.325536</ele>
        <time>2021-09-06T08:11:11.000Z</time>
      </trkpt>
      <trkpt lat="48.68438" lon="-0.69531">
        <ele>253.645516</ele>
        <time>2021-09-06T08:11:18.000Z</time>
      </trkpt>
      <trkpt lat="48.68406" lon="-0.69518">
        <ele>253.943748</ele>
        <time>2021-09-06T08:11:25.000Z</time>
      </trkpt>
      <trkpt lat="48.68369" lon="-0.69504">
        <ele>254.294257</ele>
        <time>2021-09-06T08:11:32.000Z</time>
      </trkpt>
      <trkpt lat="48.68326" lon="-0.69483">
        <ele>254.566927</ele>
        <time>2021-09-06T08:11:39.000Z</time>
      </trkpt>
      <trkpt lat="48.68286" lon="-0.69458">
        <ele>254.681953</ele>
        <time>2021-09-06T08:11:46.000Z</time>
      </trkpt>
      <trkpt lat="48.6828" lon="-0.69454">
        <ele>254.698332</ele>
        <time>2021-09-06T08:11:47.000Z</time>
      </trkpt>
      <trkpt lat="48.68266" lon="-0.69446">
        <ele>254.735782</ele>
        <time>2021-09-06T08:11:50.000Z</time>
      </trkpt>
      <trkpt lat="48.68245" lon="-0.69433">
        <ele>254.796424</ele>
        <time>2021-09-06T08:11:54.000Z</time>
      </trkpt>
      <trkpt lat="48.68233" lon="-0.69427">
        <ele>254.829252</ele>
        <time>2021-09-06T08:11:56.000Z</time>
      </trkpt>
      <trkpt lat="48.68211" lon="-0.69415">
        <ele>254.890542</ele>
        <time>2021-09-06T08:12:00.000Z</time>
      </trkpt>
      <trkpt lat="48.6818" lon="-0.69399">
        <ele>254.97494</ele>
        <time>2021-09-06T08:12:06.000Z</time>
      </trkpt>
      <trkpt lat="48.68176" lon="-0.69397">
        <ele>255.012723</ele>
        <time>2021-09-06T08:12:07.000Z</time>
      </trkpt>
      <trkpt lat="48.68157" lon="-0.69388">
        <ele>255.28537</ele>
        <time>2021-09-06T08:12:11.000Z</time>
      </trkpt>
      <trkpt lat="48.68154" lon="-0.69386">
        <ele>255.338374</ele>
        <time>2021-09-06T08:12:12.000Z</time>
      </trkpt>
      <trkpt lat="48.68143" lon="-0.69378">
        <ele>255.510734</ele>
        <time>2021-09-06T08:12:15.000Z</time>
      </trkpt>
      <trkpt lat="48.68126" lon="-0.69367">
        <ele>255.779918</ele>
        <time>2021-09-06T08:12:19.000Z</time>
      </trkpt>
      <trkpt lat="48.681" lon="-0.69348">
        <ele>256.181306</ele>
        <time>2021-09-06T08:12:25.000Z</time>
      </trkpt>
      <trkpt lat="48.68079" lon="-0.69332">
        <ele>256.521942</ele>
        <time>2021-09-06T08:12:30.000Z</time>
      </trkpt>
      <trkpt lat="48.68065" lon="-0.6932">
        <ele>256.750244</ele>
        <time>2021-09-06T08:12:33.000Z</time>
      </trkpt>
      <trkpt lat="48.68061" lon="-0.69317">
        <ele>256.818965</ele>
        <time>2021-09-06T08:12:34.000Z</time>
      </trkpt>
      <trkpt lat="48.68052" lon="-0.6931">
        <ele>256.952382</ele>
        <time>2021-09-06T08:12:36.000Z</time>
      </trkpt>
      <trkpt lat="48.68044" lon="-0.69303">
        <ele>257.085046</ele>
        <time>2021-09-06T08:12:38.000Z</time>
      </trkpt>
      <trkpt lat="48.68037" lon="-0.69296">
        <ele>257.212344</ele>
        <time>2021-09-06T08:12:40.000Z</time>
      </trkpt>
      <trkpt lat="48.68027" lon="-0.69289">
        <ele>257.365522</ele>
        <time>2021-09-06T08:12:42.000Z</time>
      </trkpt>
      <trkpt lat="48.68003" lon="-0.69269">
        <ele>257.961869</ele>
        <time>2021-09-06T08:12:47.000Z</time>
      </trkpt>
      <trkpt lat="48.67976" lon="-0.69245">
        <ele>258.830127</ele>
        <time>2021-09-06T08:12:53.000Z</time>
      </trkpt>
      <trkpt lat="48.67948" lon="-0.69221">
        <ele>259.715492</ele>
        <time>2021-09-06T08:13:00.000Z</time>
      </trkpt>
      <trkpt lat="48.67932" lon="-0.69208">
        <ele>260.228821</ele>
        <time>2021-09-06T08:13:06.000Z</time>
      </trkpt>
      <trkpt lat="48.6792" lon="-0.69199">
        <ele>260.599383</ele>
        <time>2021-09-06T08:13:10.000Z</time>
      </trkpt>
      <trkpt lat="48.67909" lon="-0.69189">
        <ele>260.949168</ele>
        <time>2021-09-06T08:13:14.000Z</time>
      </trkpt>
      <trkpt lat="48.67898" lon="-0.69179">
        <ele>261.313429</ele>
        <time>2021-09-06T08:13:18.000Z</time>
      </trkpt>
      <trkpt lat="48.67875" lon="-0.69161">
        <ele>262.047869</ele>
        <time>2021-09-06T08:13:26.000Z</time>
      </trkpt>
      <trkpt lat="48.67858" lon="-0.69148">
        <ele>262.566409</ele>
        <time>2021-09-06T08:13:32.000Z</time>
      </trkpt>
      <trkpt lat="48.67844" lon="-0.69138">
        <ele>262.756889</ele>
        <time>2021-09-06T08:13:37.000Z</time>
      </trkpt>
      <trkpt lat="48.67826" lon="-0.69128">
        <ele>262.987985</ele>
        <time>2021-09-06T08:13:43.000Z</time>
      </trkpt>
      <trkpt lat="48.67804" lon="-0.69108">
        <ele>263.309846</ele>
        <time>2021-09-06T08:13:50.000Z</time>
      </trkpt>
      <trkpt lat="48.67789" lon="-0.69098">
        <ele>263.506111</ele>
        <time>2021-09-06T08:13:54.000Z</time>
      </trkpt>
      <trkpt lat="48.67786" lon="-0.69094">
        <ele>263.563151</ele>
        <time>2021-09-06T08:13:55.000Z</time>
      </trkpt>
      <trkpt lat="48.67766" lon="-0.69073">
        <ele>263.866196</ele>
        <time>2021-09-06T08:14:00.000Z</time>
      </trkpt>
      <trkpt lat="48.67743" lon="-0.69043">
        <ele>264.238004</ele>
        <time>2021-09-06T08:14:05.000Z</time>
      </trkpt>
      <trkpt lat="48.67733" lon="-0.69027">
        <ele>264.413278</ele>
        <time>2021-09-06T08:14:07.000Z</time>
      </trkpt>
      <trkpt lat="48.67721" lon="-0.69">
        <ele>264.687925</ele>
        <time>2021-09-06T08:14:10.000Z</time>
      </trkpt>
      <trkpt lat="48.67701" lon="-0.68948">
        <ele>264.309093</ele>
        <time>2021-09-06T08:14:15.000Z</time>
      </trkpt>
      <trkpt lat="48.67678" lon="-0.68878">
        <ele>263.531476</ele>
        <time>2021-09-06T08:14:21.000Z</time>
      </trkpt>
      <trkpt lat="48.67655" lon="-0.68817">
        <ele>262.835552</ele>
        <time>2021-09-06T08:14:26.000Z</time>
      </trkpt>
      <trkpt lat="48.67621" lon="-0.68754">
        <ele>262.009561</ele>
        <time>2021-09-06T08:14:32.000Z</time>
      </trkpt>
      <trkpt lat="48.67603" lon="-0.68731">
        <ele>261.609218</ele>
        <time>2021-09-06T08:14:35.000Z</time>
      </trkpt>
      <trkpt lat="48.67597" lon="-0.68725">
        <ele>261.473436</ele>
        <time>2021-09-06T08:14:36.000Z</time>
      </trkpt>
      <trkpt lat="48.67566" lon="-0.68696">
        <ele>260.84946</ele>
        <time>2021-09-06T08:14:41.000Z</time>
      </trkpt>
      <trkpt lat="48.67539" lon="-0.68667">
        <ele>260.273765</ele>
        <time>2021-09-06T08:14:46.000Z</time>
      </trkpt>
      <trkpt lat="48.67535" lon="-0.68661">
        <ele>260.168077</ele>
        <time>2021-09-06T08:14:47.000Z</time>
      </trkpt>
      <trkpt lat="48.67524" lon="-0.68645">
        <ele>259.911689</ele>
        <time>2021-09-06T08:14:50.000Z</time>
      </trkpt>
      <trkpt lat="48.67511" lon="-0.68623">
        <ele>259.564938</ele>
        <time>2021-09-06T08:14:55.000Z</time>
      </trkpt>
      <trkpt lat="48.67504" lon="-0.68602">
        <ele>259.293796</ele>
        <time>2021-09-06T08:15:00.000Z</time>
      </trkpt>
      <trkpt lat="48.67482" lon="-0.68576">
        <ele>258.86137</ele>
        <time>2021-09-06T08:15:06.000Z</time>
      </trkpt>
      <trkpt lat="48.67466" lon="-0.6856">
        <ele>258.663796</ele>
        <time>2021-09-06T08:15:10.000Z</time>
      </trkpt>
      <trkpt lat="48.67452" lon="-0.68547">
        <ele>258.492763</ele>
        <time>2021-09-06T08:15:14.000Z</time>
      </trkpt>
      <trkpt lat="48.67428" lon="-0.68531">
        <ele>258.216056</ele>
        <time>2021-09-06T08:15:20.000Z</time>
      </trkpt>
      <trkpt lat="48.67419" lon="-0.68529">
        <ele>258.119116</ele>
        <time>2021-09-06T08:15:22.000Z</time>
      </trkpt>
      <trkpt lat="48.67403" lon="-0.68525">
        <ele>257.950784</ele>
        <time>2021-09-06T08:15:25.000Z</time>
      </trkpt>
      <trkpt lat="48.67385" lon="-0.68525">
        <ele>257.77042</ele>
        <time>2021-09-06T08:15:28.000Z</time>
      </trkpt>
      <trkpt lat="48.67366" lon="-0.68527">
        <ele>257.57201</ele>
        <time>2021-09-06T08:15:31.000Z</time>
      </trkpt>
      <trkpt lat="48.67348" lon="-0.68529">
        <ele>257.380404</ele>
        <time>2021-09-06T08:15:34.000Z</time>
      </trkpt>
      <trkpt lat="48.67335" lon="-0.68529">
        <ele>257.247949</ele>
        <time>2021-09-06T08:15:36.000Z</time>
      </trkpt>
      <trkpt lat="48.67322" lon="-0.68527">
        <ele>257.105635</ele>
        <time>2021-09-06T08:15:38.000Z</time>
      </trkpt>
      <trkpt lat="48.67307" lon="-0.68524">
        <ele>256.874018</ele>
        <time>2021-09-06T08:15:40.000Z</time>
      </trkpt>
      <trkpt lat="48.67253" lon="-0.68515">
        <ele>255.897893</ele>
        <time>2021-09-06T08:15:47.000Z</time>
      </trkpt>
      <trkpt lat="48.67222" lon="-0.68507">
        <ele>255.332373</ele>
        <time>2021-09-06T08:15:51.000Z</time>
      </trkpt>
      <trkpt lat="48.67192" lon="-0.68495">
        <ele>254.787965</ele>
        <time>2021-09-06T08:15:55.000Z</time>
      </trkpt>
      <trkpt lat="48.67161" lon="-0.68483">
        <ele>254.216512</ele>
        <time>2021-09-06T08:15:59.000Z</time>
      </trkpt>
      <trkpt lat="48.67123" lon="-0.68471">
        <ele>253.442508</ele>
        <time>2021-09-06T08:16:04.000Z</time>
      </trkpt>
      <trkpt lat="48.67095" lon="-0.68462">
        <ele>252.817704</ele>
        <time>2021-09-06T08:16:08.000Z</time>
      </trkpt>
      <trkpt lat="48.67075" lon="-0.68455">
        <ele>252.345196</ele>
        <time>2021-09-06T08:16:11.000Z</time>
      </trkpt>
      <trkpt lat="48.6706" lon="-0.6845">
        <ele>252.019623</ele>
        <time>2021-09-06T08:16:13.000Z</time>
      </trkpt>
      <trkpt lat="48.67023" lon="-0.68439">
        <ele>251.163831</ele>
        <time>2021-09-06T08:16:18.000Z</time>
      </trkpt>
      <trkpt lat="48.66991" lon="-0.68426">
        <ele>250.43893</ele>
        <time>2021-09-06T08:16:22.000Z</time>
      </trkpt>
      <trkpt lat="48.66978" lon="-0.68414">
        <ele>250.093559</ele>
        <time>2021-09-06T08:16:24.000Z</time>
      </trkpt>
      <trkpt lat="48.66971" lon="-0.68404">
        <ele>249.878795</ele>
        <time>2021-09-06T08:16:25.000Z</time>
      </trkpt>
      <trkpt lat="48.66964" lon="-0.68393">
        <ele>249.63497</ele>
        <time>2021-09-06T08:16:26.000Z</time>
      </trkpt>
      <trkpt lat="48.66952" lon="-0.68369">
        <ele>249.133274</ele>
        <time>2021-09-06T08:16:28.000Z</time>
      </trkpt>
      <trkpt lat="48.66929" lon="-0.68319">
        <ele>248.119885</ele>
        <time>2021-09-06T08:16:33.000Z</time>
      </trkpt>
      <trkpt lat="48.66922" lon="-0.68304">
        <ele>247.809994</ele>
        <time>2021-09-06T08:16:35.000Z</time>
      </trkpt>
      <trkpt lat="48.66915" lon="-0.68292">
        <ele>247.531681</ele>
        <time>2021-09-06T08:16:37.000Z</time>
      </trkpt>
      <trkpt lat="48.66912" lon="-0.68286">
        <ele>247.411236</ele>
        <time>2021-09-06T08:16:38.000Z</time>
      </trkpt>
      <trkpt lat="48.66903" lon="-0.68275">
        <ele>247.126248</ele>
        <time>2021-09-06T08:16:41.000Z</time>
      </trkpt>
      <trkpt lat="48.66893" lon="-0.68259">
        <ele>246.745907</ele>
        <time>2021-09-06T08:16:46.000Z</time>
      </trkpt>
      <trkpt lat="48.66881" lon="-0.68237">
        <ele>246.27077</ele>
        <time>2021-09-06T08:16:53.000Z</time>
      </trkpt>
      <trkpt lat="48.66871" lon="-0.68214">
        <ele>245.813591</ele>
        <time>2021-09-06T08:17:00.000Z</time>
      </trkpt>
      <trkpt lat="48.66866" lon="-0.68203">
        <ele>245.591154</ele>
        <time>2021-09-06T08:17:04.000Z</time>
      </trkpt>
      <trkpt lat="48.66858" lon="-0.68186">
        <ele>245.346345</ele>
        <time>2021-09-06T08:17:09.000Z</time>
      </trkpt>
      <trkpt lat="48.66855" lon="-0.68171">
        <ele>245.451882</ele>
        <time>2021-09-06T08:17:13.000Z</time>
      </trkpt>
      <trkpt lat="48.66854" lon="-0.68167">
        <ele>245.478182</ele>
        <time>2021-09-06T08:17:14.000Z</time>
      </trkpt>
      <trkpt lat="48.66848" lon="-0.6815">
        <ele>245.600925</ele>
        <time>2021-09-06T08:17:18.000Z</time>
      </trkpt>
      <trkpt lat="48.66836" lon="-0.68127">
        <ele>245.789091</ele>
        <time>2021-09-06T08:17:25.000Z</time>
      </trkpt>
      <trkpt lat="48.6683" lon="-0.68107">
        <ele>245.933895</ele>
        <time>2021-09-06T08:17:31.000Z</time>
      </trkpt>
      <trkpt lat="48.66822" lon="-0.68089">
        <ele>246.06772</ele>
        <time>2021-09-06T08:17:36.000Z</time>
      </trkpt>
      <trkpt lat="48.66814" lon="-0.68068">
        <ele>246.225737</ele>
        <time>2021-09-06T08:17:42.000Z</time>
      </trkpt>
      <trkpt lat="48.66804" lon="-0.6805">
        <ele>246.372321</ele>
        <time>2021-09-06T08:17:48.000Z</time>
      </trkpt>
      <trkpt lat="48.66796" lon="-0.68034">
        <ele>246.508106</ele>
        <time>2021-09-06T08:17:54.000Z</time>
      </trkpt>
      <trkpt lat="48.66784" lon="-0.68011">
        <ele>246.691253</ele>
        <time>2021-09-06T08:18:01.000Z</time>
      </trkpt>
      <trkpt lat="48.66776" lon="-0.67984">
        <ele>246.885738</ele>
        <time>2021-09-06T08:18:08.000Z</time>
      </trkpt>
      <trkpt lat="48.66771" lon="-0.67963">
        <ele>247.029462</ele>
        <time>2021-09-06T08:18:13.000Z</time>
      </trkpt>
      <trkpt lat="48.66767" lon="-0.67938">
        <ele>247.464329</ele>
        <time>2021-09-06T08:18:19.000Z</time>
      </trkpt>
      <trkpt lat="48.66762" lon="-0.67904">
        <ele>248.170031</ele>
        <time>2021-09-06T08:18:27.000Z</time>
      </trkpt>
      <trkpt lat="48.66761" lon="-0.67881">
        <ele>248.632943</ele>
        <time>2021-09-06T08:18:33.000Z</time>
      </trkpt>
      <trkpt lat="48.6676" lon="-0.67878">
        <ele>248.687274</ele>
        <time>2021-09-06T08:18:34.000Z</time>
      </trkpt>
      <trkpt lat="48.6676" lon="-0.67869">
        <ele>248.870539</ele>
        <time>2021-09-06T08:18:37.000Z</time>
      </trkpt>
      <trkpt lat="48.6676" lon="-0.67846">
        <ele>249.352904</ele>
        <time>2021-09-06T08:18:45.000Z</time>
      </trkpt>
      <trkpt lat="48.6676" lon="-0.67843">
        <ele>249.403782</ele>
        <time>2021-09-06T08:18:46.000Z</time>
      </trkpt>
      <trkpt lat="48.66759" lon="-0.67839">
        <ele>249.502288</ele>
        <time>2021-09-06T08:18:48.000Z</time>
      </trkpt>
      <trkpt lat="48.66758" lon="-0.67838">
        <ele>249.541516</ele>
        <time>2021-09-06T08:18:49.000Z</time>
      </trkpt>
      <trkpt lat="48.66756" lon="-0.67831">
        <ele>249.688352</ele>
        <time>2021-09-06T08:18:51.000Z</time>
      </trkpt>
      <trkpt lat="48.66755" lon="-0.67828">
        <ele>249.755026</ele>
        <time>2021-09-06T08:18:52.000Z</time>
      </trkpt>
      <trkpt lat="48.66754" lon="-0.67824">
        <ele>249.84121</ele>
        <time>2021-09-06T08:18:54.000Z</time>
      </trkpt>
      <trkpt lat="48.66753" lon="-0.67818">
        <ele>249.961026</ele>
        <time>2021-09-06T08:18:56.000Z</time>
      </trkpt>
      <trkpt lat="48.66752" lon="-0.67786">
        <ele>250.610592</ele>
        <time>2021-09-06T08:19:03.000Z</time>
      </trkpt>
      <trkpt lat="48.6675" lon="-0.67756">
        <ele>251.233679</ele>
        <time>2021-09-06T08:19:10.000Z</time>
      </trkpt>
      <trkpt lat="48.66743" lon="-0.67722">
        <ele>251.959367</ele>
        <time>2021-09-06T08:19:18.000Z</time>
      </trkpt>
      <trkpt lat="48.66738" lon="-0.67698">
        <ele>252.468588</ele>
        <time>2021-09-06T08:19:24.000Z</time>
      </trkpt>
      <trkpt lat="48.66734" lon="-0.67675">
        <ele>252.903492</ele>
        <time>2021-09-06T08:19:30.000Z</time>
      </trkpt>
      <trkpt lat="48.66731" lon="-0.67655">
        <ele>253.237408</ele>
        <time>2021-09-06T08:19:35.000Z</time>
      </trkpt>
      <trkpt lat="48.66729" lon="-0.67648">
        <ele>253.374306</ele>
        <time>2021-09-06T08:19:37.000Z</time>
      </trkpt>
      <trkpt lat="48.66728" lon="-0.6764">
        <ele>253.51293</ele>
        <time>2021-09-06T08:19:39.000Z</time>
      </trkpt>
      <trkpt lat="48.66723" lon="-0.67618">
        <ele>253.904295</ele>
        <time>2021-09-06T08:19:44.000Z</time>
      </trkpt>
      <trkpt lat="48.66718" lon="-0.67595">
        <ele>254.306106</ele>
        <time>2021-09-06T08:19:49.000Z</time>
      </trkpt>
      <trkpt lat="48.66713" lon="-0.67575">
        <ele>254.679667</ele>
        <time>2021-09-06T08:19:53.000Z</time>
      </trkpt>
      <trkpt lat="48.66701" lon="-0.67529">
        <ele>255.514595</ele>
        <time>2021-09-06T08:20:00.000Z</time>
      </trkpt>
      <trkpt lat="48.66684" lon="-0.67486">
        <ele>256.374061</ele>
        <time>2021-09-06T08:20:06.000Z</time>
      </trkpt>
      <trkpt lat="48.6667" lon="-0.67456">
        <ele>256.985943</ele>
        <time>2021-09-06T08:20:10.000Z</time>
      </trkpt>
      <trkpt lat="48.66666" lon="-0.67449">
        <ele>257.145194</ele>
        <time>2021-09-06T08:20:11.000Z</time>
      </trkpt>
      <trkpt lat="48.66636" lon="-0.67413">
        <ele>257.758093</ele>
        <time>2021-09-06T08:20:17.000Z</time>
      </trkpt>
      <trkpt lat="48.6661" lon="-0.67387">
        <ele>258.234802</ele>
        <time>2021-09-06T08:20:23.000Z</time>
      </trkpt>
      <trkpt lat="48.66606" lon="-0.67385">
        <ele>258.29942</ele>
        <time>2021-09-06T08:20:24.000Z</time>
      </trkpt>
      <trkpt lat="48.66595" lon="-0.67377">
        <ele>258.478803</ele>
        <time>2021-09-06T08:20:27.000Z</time>
      </trkpt>
      <trkpt lat="48.66586" lon="-0.67371">
        <ele>258.626896</ele>
        <time>2021-09-06T08:20:29.000Z</time>
      </trkpt>
      <trkpt lat="48.66576" lon="-0.67363">
        <ele>258.803577</ele>
        <time>2021-09-06T08:20:32.000Z</time>
      </trkpt>
      <trkpt lat="48.66562" lon="-0.67353">
        <ele>259.048241</ele>
        <time>2021-09-06T08:20:36.000Z</time>
      </trkpt>
      <trkpt lat="48.66542" lon="-0.6734">
        <ele>259.37876</ele>
        <time>2021-09-06T08:20:41.000Z</time>
      </trkpt>
      <trkpt lat="48.66521" lon="-0.67329">
        <ele>259.716596</ele>
        <time>2021-09-06T08:20:46.000Z</time>
      </trkpt>
      <trkpt lat="48.66488" lon="-0.6731">
        <ele>260.010027</ele>
        <time>2021-09-06T08:20:52.000Z</time>
      </trkpt>
      <trkpt lat="48.66442" lon="-0.67286">
        <ele>260.120829</ele>
        <time>2021-09-06T08:21:00.000Z</time>
      </trkpt>
      <trkpt lat="48.66436" lon="-0.67284">
        <ele>260.134495</ele>
        <time>2021-09-06T08:21:01.000Z</time>
      </trkpt>
      <trkpt lat="48.66419" lon="-0.67278">
        <ele>260.17426</ele>
        <time>2021-09-06T08:21:04.000Z</time>
      </trkpt>
      <trkpt lat="48.66394" lon="-0.67271">
        <ele>260.230478</ele>
        <time>2021-09-06T08:21:08.000Z</time>
      </trkpt>
      <trkpt lat="48.66376" lon="-0.67269">
        <ele>260.272251</ele>
        <time>2021-09-06T08:21:11.000Z</time>
      </trkpt>
      <trkpt lat="48.66365" lon="-0.6727">
        <ele>260.297738</ele>
        <time>2021-09-06T08:21:13.000Z</time>
      </trkpt>
      <trkpt lat="48.66359" lon="-0.67269">
        <ele>260.310153</ele>
        <time>2021-09-06T08:21:14.000Z</time>
      </trkpt>
      <trkpt lat="48.66336" lon="-0.67269">
        <ele>260.362926</ele>
        <time>2021-09-06T08:21:18.000Z</time>
      </trkpt>
      <trkpt lat="48.66318" lon="-0.67266">
        <ele>260.364587</ele>
        <time>2021-09-06T08:21:21.000Z</time>
      </trkpt>
      <trkpt lat="48.66283" lon="-0.67265">
        <ele>260.337</ele>
        <time>2021-09-06T08:21:27.000Z</time>
      </trkpt>
      <trkpt lat="48.66278" lon="-0.67264">
        <ele>260.332939</ele>
        <time>2021-09-06T08:21:28.000Z</time>
      </trkpt>
      <trkpt lat="48.66258" lon="-0.67263">
        <ele>260.316506</ele>
        <time>2021-09-06T08:21:32.000Z</time>
      </trkpt>
      <trkpt lat="48.66224" lon="-0.67256">
        <ele>260.28844</ele>
        <time>2021-09-06T08:21:39.000Z</time>
      </trkpt>
      <trkpt lat="48.66191" lon="-0.67246">
        <ele>260.261607</ele>
        <time>2021-09-06T08:21:46.000Z</time>
      </trkpt>
      <trkpt lat="48.6616" lon="-0.67234">
        <ele>260.235349</ele>
        <time>2021-09-06T08:21:52.000Z</time>
      </trkpt>
      <trkpt lat="48.66154" lon="-0.67231">
        <ele>260.230714</ele>
        <time>2021-09-06T08:21:53.000Z</time>
      </trkpt>
      <trkpt lat="48.66133" lon="-0.67211">
        <ele>260.014792</ele>
        <time>2021-09-06T08:21:57.000Z</time>
      </trkpt>
      <trkpt lat="48.66097" lon="-0.67176">
        <ele>259.631469</ele>
        <time>2021-09-06T08:22:03.000Z</time>
      </trkpt>
      <trkpt lat="48.66058" lon="-0.67154">
        <ele>259.25974</ele>
        <time>2021-09-06T08:22:09.000Z</time>
      </trkpt>
      <trkpt lat="48.66039" lon="-0.67141">
        <ele>259.071139</ele>
        <time>2021-09-06T08:22:12.000Z</time>
      </trkpt>
      <trkpt lat="48.66022" lon="-0.67124">
        <ele>258.881788</ele>
        <time>2021-09-06T08:22:15.000Z</time>
      </trkpt>
      <trkpt lat="48.66013" lon="-0.67111">
        <ele>258.771046</ele>
        <time>2021-09-06T08:22:17.000Z</time>
      </trkpt>
      <trkpt lat="48.66009" lon="-0.67106">
        <ele>258.723664</ele>
        <time>2021-09-06T08:22:18.000Z</time>
      </trkpt>
      <trkpt lat="48.65993" lon="-0.67087">
        <ele>258.539208</ele>
        <time>2021-09-06T08:22:21.000Z</time>
      </trkpt>
      <trkpt lat="48.65982" lon="-0.67076">
        <ele>258.402957</ele>
        <time>2021-09-06T08:22:23.000Z</time>
      </trkpt>
      <trkpt lat="48.6597" lon="-0.67066">
        <ele>258.273001</ele>
        <time>2021-09-06T08:22:25.000Z</time>
      </trkpt>
      <trkpt lat="48.65952" lon="-0.67053">
        <ele>258.079333</ele>
        <time>2021-09-06T08:22:28.000Z</time>
      </trkpt>
      <trkpt lat="48.65921" lon="-0.67029">
        <ele>257.735797</ele>
        <time>2021-09-06T08:22:34.000Z</time>
      </trkpt>
      <trkpt lat="48.65903" lon="-0.67015">
        <ele>257.542761</ele>
        <time>2021-09-06T08:22:38.000Z</time>
      </trkpt>
      <trkpt lat="48.65894" lon="-0.67007">
        <ele>257.44167</ele>
        <time>2021-09-06T08:22:40.000Z</time>
      </trkpt>
      <trkpt lat="48.65885" lon="-0.66999">
        <ele>257.333296</ele>
        <time>2021-09-06T08:22:42.000Z</time>
      </trkpt>
      <trkpt lat="48.65856" lon="-0.66973">
        <ele>257.010445</ele>
        <time>2021-09-06T08:22:48.000Z</time>
      </trkpt>
      <trkpt lat="48.65826" lon="-0.66949">
        <ele>257.112157</ele>
        <time>2021-09-06T08:22:54.000Z</time>
      </trkpt>
      <trkpt lat="48.6582" lon="-0.66946">
        <ele>257.193417</ele>
        <time>2021-09-06T08:22:55.000Z</time>
      </trkpt>
      <trkpt lat="48.65809" lon="-0.66943">
        <ele>257.356745</ele>
        <time>2021-09-06T08:22:57.000Z</time>
      </trkpt>
      <trkpt lat="48.65794" lon="-0.66942">
        <ele>257.575585</ele>
        <time>2021-09-06T08:23:00.000Z</time>
      </trkpt>
      <trkpt lat="48.65781" lon="-0.66943">
        <ele>257.760325</ele>
        <time>2021-09-06T08:23:03.000Z</time>
      </trkpt>
      <trkpt lat="48.65777" lon="-0.66944">
        <ele>257.821394</ele>
        <time>2021-09-06T08:23:04.000Z</time>
      </trkpt>
      <trkpt lat="48.65763" lon="-0.66946">
        <ele>258.027452</ele>
        <time>2021-09-06T08:23:08.000Z</time>
      </trkpt>
      <trkpt lat="48.65754" lon="-0.66947">
        <ele>258.162945</ele>
        <time>2021-09-06T08:23:11.000Z</time>
      </trkpt>
      <trkpt lat="48.65744" lon="-0.66947">
        <ele>258.301943</ele>
        <time>2021-09-06T08:23:15.000Z</time>
      </trkpt>
      <trkpt lat="48.65723" lon="-0.66944">
        <ele>258.606552</ele>
        <time>2021-09-06T08:23:20.000Z</time>
      </trkpt>
      <trkpt lat="48.65703" lon="-0.66939">
        <ele>258.905119</ele>
        <time>2021-09-06T08:23:26.000Z</time>
      </trkpt>
      <trkpt lat="48.65697" lon="-0.66937">
        <ele>258.98723</ele>
        <time>2021-09-06T08:23:28.000Z</time>
      </trkpt>
      <trkpt lat="48.65692" lon="-0.66933">
        <ele>259.071322</ele>
        <time>2021-09-06T08:23:30.000Z</time>
      </trkpt>
      <trkpt lat="48.65664" lon="-0.66917">
        <ele>259.466993</ele>
        <time>2021-09-06T08:23:37.000Z</time>
      </trkpt>
      <trkpt lat="48.65648" lon="-0.66899">
        <ele>259.556018</ele>
        <time>2021-09-06T08:23:41.000Z</time>
      </trkpt>
      <trkpt lat="48.65639" lon="-0.66885">
        <ele>259.613481</ele>
        <time>2021-09-06T08:23:44.000Z</time>
      </trkpt>
      <trkpt lat="48.65624" lon="-0.66868">
        <ele>259.695818</ele>
        <time>2021-09-06T08:23:48.000Z</time>
      </trkpt>
      <trkpt lat="48.65598" lon="-0.66841">
        <ele>259.835847</ele>
        <time>2021-09-06T08:23:54.000Z</time>
      </trkpt>
      <trkpt lat="48.65594" lon="-0.66836">
        <ele>259.8584</ele>
        <time>2021-09-06T08:23:55.000Z</time>
      </trkpt>
      <trkpt lat="48.65584" lon="-0.66826">
        <ele>259.909912</ele>
        <time>2021-09-06T08:23:57.000Z</time>
      </trkpt>
      <trkpt lat="48.6558" lon="-0.6682">
        <ele>259.93736</ele>
        <time>2021-09-06T08:23:58.000Z</time>
      </trkpt>
      <trkpt lat="48.65575" lon="-0.66815">
        <ele>259.963578</ele>
        <time>2021-09-06T08:23:59.000Z</time>
      </trkpt>
      <trkpt lat="48.65558" lon="-0.66799">
        <ele>260.049735</ele>
        <time>2021-09-06T08:24:03.000Z</time>
      </trkpt>
      <trkpt lat="48.65553" lon="-0.66794">
        <ele>260.079722</ele>
        <time>2021-09-06T08:24:04.000Z</time>
      </trkpt>
      <trkpt lat="48.6553" lon="-0.66775">
        <ele>260.194656</ele>
        <time>2021-09-06T08:24:08.000Z</time>
      </trkpt>
      <trkpt lat="48.655" lon="-0.66761">
        <ele>260.326044</ele>
        <time>2021-09-06T08:24:13.000Z</time>
      </trkpt>
      <trkpt lat="48.65467" lon="-0.66756">
        <ele>260.463327</ele>
        <time>2021-09-06T08:24:19.000Z</time>
      </trkpt>
      <trkpt lat="48.65441" lon="-0.66752">
        <ele>260.570584</ele>
        <time>2021-09-06T08:24:24.000Z</time>
      </trkpt>
      <trkpt lat="48.65411" lon="-0.66747">
        <ele>260.69287</ele>
        <time>2021-09-06T08:24:30.000Z</time>
      </trkpt>
      <trkpt lat="48.65393" lon="-0.66742">
        <ele>260.770104</ele>
        <time>2021-09-06T08:24:34.000Z</time>
      </trkpt>
      <trkpt lat="48.65369" lon="-0.66735">
        <ele>260.872881</ele>
        <time>2021-09-06T08:24:40.000Z</time>
      </trkpt>
      <trkpt lat="48.65351" lon="-0.66728">
        <ele>260.945903</ele>
        <time>2021-09-06T08:24:45.000Z</time>
      </trkpt>
      <trkpt lat="48.65327" lon="-0.66725">
        <ele>260.937826</ele>
        <time>2021-09-06T08:24:51.000Z</time>
      </trkpt>
      <trkpt lat="48.65305" lon="-0.66722">
        <ele>260.856345</ele>
        <time>2021-09-06T08:24:56.000Z</time>
      </trkpt>
      <trkpt lat="48.653" lon="-0.66722">
        <ele>260.839765</ele>
        <time>2021-09-06T08:24:57.000Z</time>
      </trkpt>
      <trkpt lat="48.65282" lon="-0.66717">
        <ele>260.773975</ele>
        <time>2021-09-06T08:25:00.000Z</time>
      </trkpt>
      <trkpt lat="48.65254" lon="-0.6671">
        <ele>260.67325</ele>
        <time>2021-09-06T08:25:04.000Z</time>
      </trkpt>
      <trkpt lat="48.65248" lon="-0.66709">
        <ele>260.649465</ele>
        <time>2021-09-06T08:25:05.000Z</time>
      </trkpt>
      <trkpt lat="48.65206" lon="-0.66711">
        <ele>260.499454</ele>
        <time>2021-09-06T08:25:11.000Z</time>
      </trkpt>
      <trkpt lat="48.65178" lon="-0.66717">
        <ele>260.396334</ele>
        <time>2021-09-06T08:25:15.000Z</time>
      </trkpt>
      <trkpt lat="48.65127" lon="-0.66727">
        <ele>260.168386</ele>
        <time>2021-09-06T08:25:22.000Z</time>
      </trkpt>
      <trkpt lat="48.65069" lon="-0.66739">
        <ele>259.893595</ele>
        <time>2021-09-06T08:25:30.000Z</time>
      </trkpt>
      <trkpt lat="48.65055" lon="-0.66742">
        <ele>259.826377</ele>
        <time>2021-09-06T08:25:32.000Z</time>
      </trkpt>
      <trkpt lat="48.65001" lon="-0.66753">
        <ele>259.562748</ele>
        <time>2021-09-06T08:25:40.000Z</time>
      </trkpt>
      <trkpt lat="48.64987" lon="-0.66756">
        <ele>259.498433</ele>
        <time>2021-09-06T08:25:42.000Z</time>
      </trkpt>
      <trkpt lat="48.64949" lon="-0.66763">
        <ele>258.982895</ele>
        <time>2021-09-06T08:25:48.000Z</time>
      </trkpt>
      <trkpt lat="48.6491" lon="-0.66762">
        <ele>258.443767</ele>
        <time>2021-09-06T08:25:54.000Z</time>
      </trkpt>
      <trkpt lat="48.64864" lon="-0.6675">
        <ele>257.797773</ele>
        <time>2021-09-06T08:26:01.000Z</time>
      </trkpt>
      <trkpt lat="48.64827" lon="-0.66734">
        <ele>257.262088</ele>
        <time>2021-09-06T08:26:06.000Z</time>
      </trkpt>
      <trkpt lat="48.64779" lon="-0.66701">
        <ele>256.30605</ele>
        <time>2021-09-06T08:26:12.000Z</time>
      </trkpt>
      <trkpt lat="48.64725" lon="-0.66676">
        <ele>255.133368</ele>
        <time>2021-09-06T08:26:18.000Z</time>
      </trkpt>
      <trkpt lat="48.6467" lon="-0.66658">
        <ele>253.961243</ele>
        <time>2021-09-06T08:26:24.000Z</time>
      </trkpt>
      <trkpt lat="48.64653" lon="-0.66652">
        <ele>253.596716</ele>
        <time>2021-09-06T08:26:26.000Z</time>
      </trkpt>
      <trkpt lat="48.64598" lon="-0.66628">
        <ele>252.714801</ele>
        <time>2021-09-06T08:26:33.000Z</time>
      </trkpt>
      <trkpt lat="48.64544" lon="-0.66598">
        <ele>251.945824</ele>
        <time>2021-09-06T08:26:41.000Z</time>
      </trkpt>
      <trkpt lat="48.64501" lon="-0.66581">
        <ele>251.341165</ele>
        <time>2021-09-06T08:26:48.000Z</time>
      </trkpt>
      <trkpt lat="48.64465" lon="-0.66566">
        <ele>250.839362</ele>
        <time>2021-09-06T08:26:55.000Z</time>
      </trkpt>
      <trkpt lat="48.6446" lon="-0.66556">
        <ele>250.844147</ele>
        <time>2021-09-06T08:26:57.000Z</time>
      </trkpt>
      <trkpt lat="48.6446" lon="-0.66549">
        <ele>250.846642</ele>
        <time>2021-09-06T08:26:58.000Z</time>
      </trkpt>
      <trkpt lat="48.64466" lon="-0.66511">
        <ele>250.861571</ele>
        <time>2021-09-06T08:27:05.000Z</time>
      </trkpt>
      <trkpt lat="48.64464" lon="-0.66472">
        <ele>250.876379</ele>
        <time>2021-09-06T08:27:13.000Z</time>
      </trkpt>
      <trkpt lat="48.64462" lon="-0.66425">
        <ele>250.894087</ele>
        <time>2021-09-06T08:27:23.000Z</time>
      </trkpt>
      <trkpt lat="48.64458" lon="-0.66387">
        <ele>250.908594</ele>
        <time>2021-09-06T08:27:31.000Z</time>
      </trkpt>
      <trkpt lat="48.64452" lon="-0.6633">
        <ele>250.930353</ele>
        <time>2021-09-06T08:27:41.000Z</time>
      </trkpt>
      <trkpt lat="48.64451" lon="-0.66304">
        <ele>250.939998</ele>
        <time>2021-09-06T08:27:45.000Z</time>
      </trkpt>
      <trkpt lat="48.64452" lon="-0.66284">
        <ele>250.931145</ele>
        <time>2021-09-06T08:27:48.000Z</time>
      </trkpt>
      <trkpt lat="48.64459" lon="-0.66234">
        <ele>250.894368</ele>
        <time>2021-09-06T08:27:55.000Z</time>
      </trkpt>
      <trkpt lat="48.6446" lon="-0.66212">
        <ele>250.878155</ele>
        <time>2021-09-06T08:27:58.000Z</time>
      </trkpt>
      <trkpt lat="48.64458" lon="-0.6619">
        <ele>250.862174</ele>
        <time>2021-09-06T08:28:01.000Z</time>
      </trkpt>
      <trkpt lat="48.64454" lon="-0.66176">
        <ele>250.850882</ele>
        <time>2021-09-06T08:28:03.000Z</time>
      </trkpt>
      <trkpt lat="48.64448" lon="-0.66153">
        <ele>250.832777</ele>
        <time>2021-09-06T08:28:06.000Z</time>
      </trkpt>
      <trkpt lat="48.64439" lon="-0.66117">
        <ele>250.805142</ele>
        <time>2021-09-06T08:28:11.000Z</time>
      </trkpt>
      <trkpt lat="48.64439" lon="-0.66109">
        <ele>250.799636</ele>
        <time>2021-09-06T08:28:12.000Z</time>
      </trkpt>
      <trkpt lat="48.64438" lon="-0.66101">
        <ele>250.79386</ele>
        <time>2021-09-06T08:28:13.000Z</time>
      </trkpt>
      <trkpt lat="48.64438" lon="-0.66085">
        <ele>250.781826</ele>
        <time>2021-09-06T08:28:15.000Z</time>
      </trkpt>
      <trkpt lat="48.64439" lon="-0.66067">
        <ele>250.76865</ele>
        <time>2021-09-06T08:28:17.000Z</time>
      </trkpt>
      <trkpt lat="48.6444" lon="-0.66058">
        <ele>250.762095</ele>
        <time>2021-09-06T08:28:18.000Z</time>
      </trkpt>
      <trkpt lat="48.64439" lon="-0.66039">
        <ele>250.748716</ele>
        <time>2021-09-06T08:28:20.000Z</time>
      </trkpt>
      <trkpt lat="48.64437" lon="-0.6603">
        <ele>250.717471</ele>
        <time>2021-09-06T08:28:21.000Z</time>
      </trkpt>
      <trkpt lat="48.64428" lon="-0.65978">
        <ele>250.387214</ele>
        <time>2021-09-06T08:28:26.000Z</time>
      </trkpt>
      <trkpt lat="48.64427" lon="-0.65953">
        <ele>250.237495</ele>
        <time>2021-09-06T08:28:28.000Z</time>
      </trkpt>
      <trkpt lat="48.64428" lon="-0.65928">
        <ele>250.080384</ele>
        <time>2021-09-06T08:28:30.000Z</time>
      </trkpt>
      <trkpt lat="48.64435" lon="-0.65863">
        <ele>249.677068</ele>
        <time>2021-09-06T08:28:35.000Z</time>
      </trkpt>
      <trkpt lat="48.64439" lon="-0.65823">
        <ele>249.434659</ele>
        <time>2021-09-06T08:28:39.000Z</time>
      </trkpt>
      <trkpt lat="48.6444" lon="-0.658">
        <ele>249.289428</ele>
        <time>2021-09-06T08:28:43.000Z</time>
      </trkpt>
      <trkpt lat="48.64442" lon="-0.65774">
        <ele>249.131476</ele>
        <time>2021-09-06T08:28:49.000Z</time>
      </trkpt>
      <trkpt lat="48.64446" lon="-0.65737">
        <ele>248.876929</ele>
        <time>2021-09-06T08:28:56.000Z</time>
      </trkpt>
      <trkpt lat="48.64449" lon="-0.65699">
        <ele>248.60547</ele>
        <time>2021-09-06T08:29:01.000Z</time>
      </trkpt>
      <trkpt lat="48.64449" lon="-0.6569">
        <ele>248.542414</ele>
        <time>2021-09-06T08:29:02.000Z</time>
      </trkpt>
      <trkpt lat="48.64447" lon="-0.65671">
        <ele>248.408849</ele>
        <time>2021-09-06T08:29:04.000Z</time>
      </trkpt>
      <trkpt lat="48.64444" lon="-0.65653">
        <ele>248.275445</ele>
        <time>2021-09-06T08:29:06.000Z</time>
      </trkpt>
      <trkpt lat="48.64437" lon="-0.65618">
        <ele>248.025719</ele>
        <time>2021-09-06T08:29:10.000Z</time>
      </trkpt>
      <trkpt lat="48.64436" lon="-0.65603">
        <ele>247.919723</ele>
        <time>2021-09-06T08:29:12.000Z</time>
      </trkpt>
      <trkpt lat="48.64435" lon="-0.65547">
        <ele>247.523999</ele>
        <time>2021-09-06T08:29:19.000Z</time>
      </trkpt>
      <trkpt lat="48.6444" lon="-0.65503">
        <ele>247.212753</ele>
        <time>2021-09-06T08:29:25.000Z</time>
      </trkpt>
      <trkpt lat="48.64446" lon="-0.65442">
        <ele>246.168101</ele>
        <time>2021-09-06T08:29:32.000Z</time>
      </trkpt>
      <trkpt lat="48.64445" lon="-0.65408">
        <ele>245.562814</ele>
        <time>2021-09-06T08:29:35.000Z</time>
      </trkpt>
      <trkpt lat="48.64443" lon="-0.65396">
        <ele>245.337957</ele>
        <time>2021-09-06T08:29:36.000Z</time>
      </trkpt>
      <trkpt lat="48.64436" lon="-0.65371">
        <ele>244.846011</ele>
        <time>2021-09-06T08:29:38.000Z</time>
      </trkpt>
      <trkpt lat="48.64427" lon="-0.65346">
        <ele>244.325108</ele>
        <time>2021-09-06T08:29:40.000Z</time>
      </trkpt>
      <trkpt lat="48.64404" lon="-0.65279">
        <ele>242.988304</ele>
        <time>2021-09-06T08:29:45.000Z</time>
      </trkpt>
      <trkpt lat="48.64381" lon="-0.65208">
        <ele>241.37303</ele>
        <time>2021-09-06T08:29:50.000Z</time>
      </trkpt>
      <trkpt lat="48.64364" lon="-0.65163">
        <ele>240.210339</ele>
        <time>2021-09-06T08:29:53.000Z</time>
      </trkpt>
      <trkpt lat="48.64356" lon="-0.6515">
        <ele>239.817796</ele>
        <time>2021-09-06T08:29:54.000Z</time>
      </trkpt>
      <trkpt lat="48.6433" lon="-0.65112">
        <ele>238.575636</ele>
        <time>2021-09-06T08:29:57.000Z</time>
      </trkpt>
      <trkpt lat="48.64323" lon="-0.65097">
        <ele>238.159343</ele>
        <time>2021-09-06T08:29:58.000Z</time>
      </trkpt>
      <trkpt lat="48.64319" lon="-0.6508">
        <ele>237.756802</ele>
        <time>2021-09-06T08:29:59.000Z</time>
      </trkpt>
      <trkpt lat="48.64318" lon="-0.65063">
        <ele>237.370031</ele>
        <time>2021-09-06T08:30:00.000Z</time>
      </trkpt>
      <trkpt lat="48.64319" lon="-0.65046">
        <ele>236.991293</ele>
        <time>2021-09-06T08:30:01.000Z</time>
      </trkpt>
      <trkpt lat="48.64328" lon="-0.65017">
        <ele>236.266074</ele>
        <time>2021-09-06T08:30:03.000Z</time>
      </trkpt>
      <trkpt lat="48.64346" lon="-0.64988">
        <ele>235.549474</ele>
        <time>2021-09-06T08:30:06.000Z</time>
      </trkpt>
      <trkpt lat="48.64374" lon="-0.64959">
        <ele>234.672034</ele>
        <time>2021-09-06T08:30:11.000Z</time>
      </trkpt>
      <trkpt lat="48.64396" lon="-0.64933">
        <ele>233.948032</ele>
        <time>2021-09-06T08:30:17.000Z</time>
      </trkpt>
      <trkpt lat="48.64413" lon="-0.64908">
        <ele>233.330277</ele>
        <time>2021-09-06T08:30:24.000Z</time>
      </trkpt>
      <trkpt lat="48.64423" lon="-0.64886">
        <ele>232.881307</ele>
        <time>2021-09-06T08:30:31.000Z</time>
      </trkpt>
      <trkpt lat="48.64433" lon="-0.64858">
        <ele>232.339804</ele>
        <time>2021-09-06T08:30:40.000Z</time>
      </trkpt>
      <trkpt lat="48.64439" lon="-0.64837">
        <ele>231.946357</ele>
        <time>2021-09-06T08:30:47.000Z</time>
      </trkpt>
      <trkpt lat="48.64444" lon="-0.64809">
        <ele>231.513759</ele>
        <time>2021-09-06T08:30:56.000Z</time>
      </trkpt>
      <trkpt lat="48.64447" lon="-0.64782">
        <ele>232.155581</ele>
        <time>2021-09-06T08:31:05.000Z</time>
      </trkpt>
      <trkpt lat="48.64448" lon="-0.64767">
        <ele>232.499818</ele>
        <time>2021-09-06T08:31:11.000Z</time>
      </trkpt>
      <trkpt lat="48.64449" lon="-0.64762">
        <ele>232.617996</ele>
        <time>2021-09-06T08:31:13.000Z</time>
      </trkpt>
      <trkpt lat="48.64451" lon="-0.64757">
        <ele>232.746844</ele>
        <time>2021-09-06T08:31:15.000Z</time>
      </trkpt>
      <trkpt lat="48.64452" lon="-0.6475">
        <ele>232.932966</ele>
        <time>2021-09-06T08:31:18.000Z</time>
      </trkpt>
      <trkpt lat="48.64453" lon="-0.64745">
        <ele>233.055462</ele>
        <time>2021-09-06T08:31:20.000Z</time>
      </trkpt>
      <trkpt lat="48.64458" lon="-0.64727">
        <ele>233.501144</ele>
        <time>2021-09-06T08:31:27.000Z</time>
      </trkpt>
      <trkpt lat="48.6446" lon="-0.64719">
        <ele>233.69573</ele>
        <time>2021-09-06T08:31:30.000Z</time>
      </trkpt>
      <trkpt lat="48.64461" lon="-0.64716">
        <ele>233.756978</ele>
        <time>2021-09-06T08:31:31.000Z</time>
      </trkpt>
      <trkpt lat="48.64467" lon="-0.647">
        <ele>234.197194</ele>
        <time>2021-09-06T08:31:37.000Z</time>
      </trkpt>
      <trkpt lat="48.64474" lon="-0.64685">
        <ele>234.612631</ele>
        <time>2021-09-06T08:31:43.000Z</time>
      </trkpt>
      <trkpt lat="48.64479" lon="-0.64667">
        <ele>235.059473</ele>
        <time>2021-09-06T08:31:50.000Z</time>
      </trkpt>
      <trkpt lat="48.64486" lon="-0.64645">
        <ele>235.614515</ele>
        <time>2021-09-06T08:31:58.000Z</time>
      </trkpt>
      <trkpt lat="48.64493" lon="-0.64627">
        <ele>236.110067</ele>
        <time>2021-09-06T08:32:06.000Z</time>
      </trkpt>
      <trkpt lat="48.64498" lon="-0.64609">
        <ele>236.539266</ele>
        <time>2021-09-06T08:32:12.000Z</time>
      </trkpt>
      <trkpt lat="48.64503" lon="-0.64586">
        <ele>237.103394</ele>
        <time>2021-09-06T08:32:20.000Z</time>
      </trkpt>
      <trkpt lat="48.64504" lon="-0.64567">
        <ele>237.556991</ele>
        <time>2021-09-06T08:32:27.000Z</time>
      </trkpt>
      <trkpt lat="48.64505" lon="-0.64544">
        <ele>237.83608</ele>
        <time>2021-09-06T08:32:34.000Z</time>
      </trkpt>
      <trkpt lat="48.64502" lon="-0.64524">
        <ele>237.95284</ele>
        <time>2021-09-06T08:32:40.000Z</time>
      </trkpt>
      <trkpt lat="48.64496" lon="-0.64488">
        <ele>238.161445</ele>
        <time>2021-09-06T08:32:48.000Z</time>
      </trkpt>
      <trkpt lat="48.6449" lon="-0.64444">
        <ele>238.424149</ele>
        <time>2021-09-06T08:32:56.000Z</time>
      </trkpt>
      <trkpt lat="48.64487" lon="-0.64431">
        <ele>238.501212</ele>
        <time>2021-09-06T08:32:58.000Z</time>
      </trkpt>
      <trkpt lat="48.64479" lon="-0.6441">
        <ele>238.639536</ele>
        <time>2021-09-06T08:33:01.000Z</time>
      </trkpt>
      <trkpt lat="48.64462" lon="-0.64374">
        <ele>238.893193</ele>
        <time>2021-09-06T08:33:05.000Z</time>
      </trkpt>
      <trkpt lat="48.64442" lon="-0.64327">
        <ele>239.217361</ele>
        <time>2021-09-06T08:33:09.000Z</time>
      </trkpt>
      <trkpt lat="48.64423" lon="-0.64265">
        <ele>239.149562</ele>
        <time>2021-09-06T08:33:14.000Z</time>
      </trkpt>
      <trkpt lat="48.64415" lon="-0.64237">
        <ele>239.047799</ele>
        <time>2021-09-06T08:33:17.000Z</time>
      </trkpt>
      <trkpt lat="48.64413" lon="-0.64229">
        <ele>239.01864</ele>
        <time>2021-09-06T08:33:18.000Z</time>
      </trkpt>
      <trkpt lat="48.64411" lon="-0.64213">
        <ele>238.966457</ele>
        <time>2021-09-06T08:33:20.000Z</time>
      </trkpt>
      <trkpt lat="48.64409" lon="-0.64193">
        <ele>238.897535</ele>
        <time>2021-09-06T08:33:23.000Z</time>
      </trkpt>
      <trkpt lat="48.64407" lon="-0.64136">
        <ele>238.706702</ele>
        <time>2021-09-06T08:33:31.000Z</time>
      </trkpt>
      <trkpt lat="48.64402" lon="-0.64074">
        <ele>238.498461</ele>
        <time>2021-09-06T08:33:38.000Z</time>
      </trkpt>
      <trkpt lat="48.64397" lon="-0.63996">
        <ele>238.399312</ele>
        <time>2021-09-06T08:33:46.000Z</time>
      </trkpt>
      <trkpt lat="48.64395" lon="-0.63986">
        <ele>238.397095</ele>
        <time>2021-09-06T08:33:47.000Z</time>
      </trkpt>
      <trkpt lat="48.64388" lon="-0.63947">
        <ele>238.388308</ele>
        <time>2021-09-06T08:33:51.000Z</time>
      </trkpt>
      <trkpt lat="48.64382" lon="-0.63929">
        <ele>238.384058</ele>
        <time>2021-09-06T08:33:53.000Z</time>
      </trkpt>
      <trkpt lat="48.64372" lon="-0.63897">
        <ele>238.376245</ele>
        <time>2021-09-06T08:33:58.000Z</time>
      </trkpt>
      <trkpt lat="48.64365" lon="-0.63878">
        <ele>238.371533</ele>
        <time>2021-09-06T08:34:03.000Z</time>
      </trkpt>
      <trkpt lat="48.64356" lon="-0.63849">
        <ele>238.364608</ele>
        <time>2021-09-06T08:34:12.000Z</time>
      </trkpt>
      <trkpt lat="48.64351" lon="-0.63826">
        <ele>238.359329</ele>
        <time>2021-09-06T08:34:19.000Z</time>
      </trkpt>
      <trkpt lat="48.64348" lon="-0.63792">
        <ele>238.351946</ele>
        <time>2021-09-06T08:34:28.000Z</time>
      </trkpt>
      <trkpt lat="48.64346" lon="-0.63753">
        <ele>238.477652</ele>
        <time>2021-09-06T08:34:38.000Z</time>
      </trkpt>
      <trkpt lat="48.64346" lon="-0.63712">
        <ele>238.614918</ele>
        <time>2021-09-06T08:34:46.000Z</time>
      </trkpt>
      <trkpt lat="48.64349" lon="-0.63666">
        <ele>238.769289</ele>
        <time>2021-09-06T08:34:54.000Z</time>
      </trkpt>
      <trkpt lat="48.64355" lon="-0.6363">
        <ele>238.892694</ele>
        <time>2021-09-06T08:34:59.000Z</time>
      </trkpt>
      <trkpt lat="48.64362" lon="-0.63588">
        <ele>239.037263</ele>
        <time>2021-09-06T08:35:04.000Z</time>
      </trkpt>
      <trkpt lat="48.64363" lon="-0.63579">
        <ele>239.06782</ele>
        <time>2021-09-06T08:35:05.000Z</time>
      </trkpt>
      <trkpt lat="48.64365" lon="-0.6357">
        <ele>239.098571</ele>
        <time>2021-09-06T08:35:06.000Z</time>
      </trkpt>
      <trkpt lat="48.64372" lon="-0.63527">
        <ele>239.248055</ele>
        <time>2021-09-06T08:35:11.000Z</time>
      </trkpt>
      <trkpt lat="48.64377" lon="-0.63502">
        <ele>239.37502</ele>
        <time>2021-09-06T08:35:14.000Z</time>
      </trkpt>
      <trkpt lat="48.64381" lon="-0.63474">
        <ele>239.51727</ele>
        <time>2021-09-06T08:35:17.000Z</time>
      </trkpt>
      <trkpt lat="48.64391" lon="-0.63406">
        <ele>239.873994</ele>
        <time>2021-09-06T08:35:25.000Z</time>
      </trkpt>
      <trkpt lat="48.64399" lon="-0.63358">
        <ele>240.123545</ele>
        <time>2021-09-06T08:35:32.000Z</time>
      </trkpt>
      <trkpt lat="48.64404" lon="-0.63326">
        <ele>240.293157</ele>
        <time>2021-09-06T08:35:38.000Z</time>
      </trkpt>
      <trkpt lat="48.6441" lon="-0.63295">
        <ele>240.458807</ele>
        <time>2021-09-06T08:35:45.000Z</time>
      </trkpt>
      <trkpt lat="48.64412" lon="-0.63275">
        <ele>240.558967</ele>
        <time>2021-09-06T08:35:50.000Z</time>
      </trkpt>
      <trkpt lat="48.64409" lon="-0.63269">
        <ele>240.60016</ele>
        <time>2021-09-06T08:35:52.000Z</time>
      </trkpt>
      <trkpt lat="48.64405" lon="-0.63262">
        <ele>240.644241</ele>
        <time>2021-09-06T08:35:54.000Z</time>
      </trkpt>
      <trkpt lat="48.644" lon="-0.63241">
        <ele>240.775057</ele>
        <time>2021-09-06T08:35:59.000Z</time>
      </trkpt>
      <trkpt lat="48.64397" lon="-0.63208">
        <ele>240.972703</ele>
        <time>2021-09-06T08:36:05.000Z</time>
      </trkpt>
      <trkpt lat="48.64396" lon="-0.63201">
        <ele>241.012032</ele>
        <time>2021-09-06T08:36:06.000Z</time>
      </trkpt>
      <trkpt lat="48.64389" lon="-0.63164">
        <ele>241.239661</ele>
        <time>2021-09-06T08:36:11.000Z</time>
      </trkpt>
      <trkpt lat="48.64381" lon="-0.6315">
        <ele>241.347561</ele>
        <time>2021-09-06T08:36:13.000Z</time>
      </trkpt>
      <trkpt lat="48.64376" lon="-0.63145">
        <ele>241.402645</ele>
        <time>2021-09-06T08:36:14.000Z</time>
      </trkpt>
      <trkpt lat="48.64342" lon="-0.63118">
        <ele>241.743738</ele>
        <time>2021-09-06T08:36:21.000Z</time>
      </trkpt>
      <trkpt lat="48.64321" lon="-0.63102">
        <ele>241.954596</ele>
        <time>2021-09-06T08:36:26.000Z</time>
      </trkpt>
      <trkpt lat="48.64317" lon="-0.63098">
        <ele>241.997798</ele>
        <time>2021-09-06T08:36:27.000Z</time>
      </trkpt>
      <trkpt lat="48.64287" lon="-0.63078">
        <ele>242.232385</ele>
        <time>2021-09-06T08:36:33.000Z</time>
      </trkpt>
      <trkpt lat="48.64254" lon="-0.63058">
        <ele>242.119873</ele>
        <time>2021-09-06T08:36:39.000Z</time>
      </trkpt>
      <trkpt lat="48.64209" lon="-0.63028">
        <ele>241.968133</ele>
        <time>2021-09-06T08:36:47.000Z</time>
      </trkpt>
      <trkpt lat="48.64165" lon="-0.62991">
        <ele>241.808625</ele>
        <time>2021-09-06T08:36:55.000Z</time>
      </trkpt>
      <trkpt lat="48.6412" lon="-0.62959">
        <ele>241.556349</ele>
        <time>2021-09-06T08:37:02.000Z</time>
      </trkpt>
      <trkpt lat="48.6408" lon="-0.62931">
        <ele>240.964421</ele>
        <time>2021-09-06T08:37:08.000Z</time>
      </trkpt>
      <trkpt lat="48.64045" lon="-0.62892">
        <ele>240.39011</ele>
        <time>2021-09-06T08:37:13.000Z</time>
      </trkpt>
      <trkpt lat="48.64008" lon="-0.62832">
        <ele>239.670201</ele>
        <time>2021-09-06T08:37:19.000Z</time>
      </trkpt>
      <trkpt lat="48.63978" lon="-0.62774">
        <ele>239.030074</ele>
        <time>2021-09-06T08:37:25.000Z</time>
      </trkpt>
      <trkpt lat="48.63965" lon="-0.62746">
        <ele>238.743504</ele>
        <time>2021-09-06T08:37:29.000Z</time>
      </trkpt>
      <trkpt lat="48.63967" lon="-0.62729">
        <ele>238.599576</ele>
        <time>2021-09-06T08:37:32.000Z</time>
      </trkpt>
      <trkpt lat="48.63972" lon="-0.6271">
        <ele>238.424641</ele>
        <time>2021-09-06T08:37:35.000Z</time>
      </trkpt>
      <trkpt lat="48.63973" lon="-0.62702">
        <ele>238.356375</ele>
        <time>2021-09-06T08:37:36.000Z</time>
      </trkpt>
      <trkpt lat="48.63972" lon="-0.62664">
        <ele>238.041048</ele>
        <time>2021-09-06T08:37:40.000Z</time>
      </trkpt>
      <trkpt lat="48.63971" lon="-0.62654">
        <ele>237.955512</ele>
        <time>2021-09-06T08:37:41.000Z</time>
      </trkpt>
      <trkpt lat="48.63967" lon="-0.62634">
        <ele>237.781927</ele>
        <time>2021-09-06T08:37:43.000Z</time>
      </trkpt>
      <trkpt lat="48.63961" lon="-0.62615">
        <ele>237.606684</ele>
        <time>2021-09-06T08:37:45.000Z</time>
      </trkpt>
      <trkpt lat="48.63936" lon="-0.62577">
        <ele>237.162033</ele>
        <time>2021-09-06T08:37:50.000Z</time>
      </trkpt>
      <trkpt lat="48.63894" lon="-0.62516">
        <ele>236.508085</ele>
        <time>2021-09-06T08:37:58.000Z</time>
      </trkpt>
      <trkpt lat="48.63884" lon="-0.62499">
        <ele>236.344741</ele>
        <time>2021-09-06T08:38:00.000Z</time>
      </trkpt>
      <trkpt lat="48.63853" lon="-0.62436">
        <ele>235.78177</ele>
        <time>2021-09-06T08:38:07.000Z</time>
      </trkpt>
      <trkpt lat="48.63826" lon="-0.6237">
        <ele>235.221378</ele>
        <time>2021-09-06T08:38:14.000Z</time>
      </trkpt>
      <trkpt lat="48.63801" lon="-0.62315">
        <ele>234.779098</ele>
        <time>2021-09-06T08:38:20.000Z</time>
      </trkpt>
      <trkpt lat="48.63765" lon="-0.62263">
        <ele>234.30082</ele>
        <time>2021-09-06T08:38:27.000Z</time>
      </trkpt>
      <trkpt lat="48.63728" lon="-0.62219">
        <ele>233.854011</ele>
        <time>2021-09-06T08:38:34.000Z</time>
      </trkpt>
      <trkpt lat="48.63694" lon="-0.62161">
        <ele>233.353567</ele>
        <time>2021-09-06T08:38:42.000Z</time>
      </trkpt>
      <trkpt lat="48.63666" lon="-0.62112">
        <ele>232.994409</ele>
        <time>2021-09-06T08:38:49.000Z</time>
      </trkpt>
      <trkpt lat="48.63643" lon="-0.62069">
        <ele>232.690114</ele>
        <time>2021-09-06T08:38:56.000Z</time>
      </trkpt>
      <trkpt lat="48.63623" lon="-0.62028">
        <ele>232.409428</ele>
        <time>2021-09-06T08:39:03.000Z</time>
      </trkpt>
      <trkpt lat="48.63602" lon="-0.61974">
        <ele>232.060535</ele>
        <time>2021-09-06T08:39:11.000Z</time>
      </trkpt>
      <trkpt lat="48.63581" lon="-0.61916">
        <ele>231.710357</ele>
        <time>2021-09-06T08:39:19.000Z</time>
      </trkpt>
      <trkpt lat="48.63563" lon="-0.61877">
        <ele>231.483795</ele>
        <time>2021-09-06T08:39:25.000Z</time>
      </trkpt>
      <trkpt lat="48.63561" lon="-0.61869">
        <ele>231.444583</ele>
        <time>2021-09-06T08:39:26.000Z</time>
      </trkpt>
      <trkpt lat="48.63559" lon="-0.61862">
        <ele>231.405555</ele>
        <time>2021-09-06T08:39:27.000Z</time>
      </trkpt>
      <trkpt lat="48.63556" lon="-0.61828">
        <ele>231.244955</ele>
        <time>2021-09-06T08:39:31.000Z</time>
      </trkpt>
      <trkpt lat="48.63555" lon="-0.61768">
        <ele>230.957207</ele>
        <time>2021-09-06T08:39:38.000Z</time>
      </trkpt>
      <trkpt lat="48.63555" lon="-0.61724">
        <ele>230.747902</ele>
        <time>2021-09-06T08:39:43.000Z</time>
      </trkpt>
      <trkpt lat="48.63555" lon="-0.61716">
        <ele>230.707755</ele>
        <time>2021-09-06T08:39:44.000Z</time>
      </trkpt>
      <trkpt lat="48.63556" lon="-0.61682">
        <ele>230.545049</ele>
        <time>2021-09-06T08:39:48.000Z</time>
      </trkpt>
      <trkpt lat="48.63557" lon="-0.61674">
        <ele>230.494674</ele>
        <time>2021-09-06T08:39:49.000Z</time>
      </trkpt>
      <trkpt lat="48.6356" lon="-0.61602">
        <ele>229.93532</ele>
        <time>2021-09-06T08:39:57.000Z</time>
      </trkpt>
      <trkpt lat="48.63561" lon="-0.61593">
        <ele>229.859921</ele>
        <time>2021-09-06T08:39:58.000Z</time>
      </trkpt>
      <trkpt lat="48.63566" lon="-0.61555">
        <ele>229.55518</ele>
        <time>2021-09-06T08:40:02.000Z</time>
      </trkpt>
      <trkpt lat="48.63576" lon="-0.61484">
        <ele>228.985477</ele>
        <time>2021-09-06T08:40:09.000Z</time>
      </trkpt>
      <trkpt lat="48.63589" lon="-0.61397">
        <ele>228.228175</ele>
        <time>2021-09-06T08:40:17.000Z</time>
      </trkpt>
      <trkpt lat="48.63591" lon="-0.61386">
        <ele>228.093201</ele>
        <time>2021-09-06T08:40:18.000Z</time>
      </trkpt>
      <trkpt lat="48.63598" lon="-0.61302">
        <ele>227.086925</ele>
        <time>2021-09-06T08:40:25.000Z</time>
      </trkpt>
      <trkpt lat="48.63596" lon="-0.61216">
        <ele>226.060495</ele>
        <time>2021-09-06T08:40:32.000Z</time>
      </trkpt>
      <trkpt lat="48.63588" lon="-0.61127">
        <ele>224.960513</ele>
        <time>2021-09-06T08:40:39.000Z</time>
      </trkpt>
      <trkpt lat="48.63589" lon="-0.61056">
        <ele>223.941614</ele>
        <time>2021-09-06T08:40:45.000Z</time>
      </trkpt>
      <trkpt lat="48.63599" lon="-0.60981">
        <ele>222.851806</ele>
        <time>2021-09-06T08:40:52.000Z</time>
      </trkpt>
      <trkpt lat="48.63603" lon="-0.60952">
        <ele>222.415035</ele>
        <time>2021-09-06T08:40:55.000Z</time>
      </trkpt>
      <trkpt lat="48.63604" lon="-0.60932">
        <ele>222.139084</ele>
        <time>2021-09-06T08:40:57.000Z</time>
      </trkpt>
      <trkpt lat="48.63604" lon="-0.60913">
        <ele>221.856011</ele>
        <time>2021-09-06T08:40:59.000Z</time>
      </trkpt>
      <trkpt lat="48.636" lon="-0.60871">
        <ele>221.256159</ele>
        <time>2021-09-06T08:41:03.000Z</time>
      </trkpt>
      <trkpt lat="48.63597" lon="-0.6085">
        <ele>220.854662</ele>
        <time>2021-09-06T08:41:05.000Z</time>
      </trkpt>
      <trkpt lat="48.63596" lon="-0.60816">
        <ele>220.200721</ele>
        <time>2021-09-06T08:41:08.000Z</time>
      </trkpt>
      <trkpt lat="48.63601" lon="-0.60745">
        <ele>218.836227</ele>
        <time>2021-09-06T08:41:14.000Z</time>
      </trkpt>
      <trkpt lat="48.6361" lon="-0.6067">
        <ele>217.379977</ele>
        <time>2021-09-06T08:41:20.000Z</time>
      </trkpt>
      <trkpt lat="48.6361" lon="-0.60657">
        <ele>217.127131</ele>
        <time>2021-09-06T08:41:21.000Z</time>
      </trkpt>
      <trkpt lat="48.63606" lon="-0.60619">
        <ele>216.381678</ele>
        <time>2021-09-06T08:41:24.000Z</time>
      </trkpt>
      <trkpt lat="48.63597" lon="-0.60582">
        <ele>215.562778</ele>
        <time>2021-09-06T08:41:27.000Z</time>
      </trkpt>
      <trkpt lat="48.63589" lon="-0.60559">
        <ele>214.978888</ele>
        <time>2021-09-06T08:41:29.000Z</time>
      </trkpt>
      <trkpt lat="48.63568" lon="-0.60479">
        <ele>213.011076</ele>
        <time>2021-09-06T08:41:36.000Z</time>
      </trkpt>
      <trkpt lat="48.63567" lon="-0.60468">
        <ele>212.737907</ele>
        <time>2021-09-06T08:41:37.000Z</time>
      </trkpt>
      <trkpt lat="48.63567" lon="-0.60445">
        <ele>212.229789</ele>
        <time>2021-09-06T08:41:39.000Z</time>
      </trkpt>
      <trkpt lat="48.63575" lon="-0.60384">
        <ele>210.793698</ele>
        <time>2021-09-06T08:41:44.000Z</time>
      </trkpt>
      <trkpt lat="48.63581" lon="-0.60345">
        <ele>209.889507</ele>
        <time>2021-09-06T08:41:47.000Z</time>
      </trkpt>
      <trkpt lat="48.63583" lon="-0.60319">
        <ele>209.283557</ele>
        <time>2021-09-06T08:41:49.000Z</time>
      </trkpt>
      <trkpt lat="48.63579" lon="-0.60251">
        <ele>207.715262</ele>
        <time>2021-09-06T08:41:54.000Z</time>
      </trkpt>
      <trkpt lat="48.63577" lon="-0.60238">
        <ele>207.402591</ele>
        <time>2021-09-06T08:41:55.000Z</time>
      </trkpt>
      <trkpt lat="48.63569" lon="-0.60199">
        <ele>206.452492</ele>
        <time>2021-09-06T08:41:58.000Z</time>
      </trkpt>
      <trkpt lat="48.63565" lon="-0.60186">
        <ele>206.134183</ele>
        <time>2021-09-06T08:41:59.000Z</time>
      </trkpt>
      <trkpt lat="48.63542" lon="-0.60111">
        <ele>204.216755</ele>
        <time>2021-09-06T08:42:05.000Z</time>
      </trkpt>
      <trkpt lat="48.63513" lon="-0.60032">
        <ele>202.121424</ele>
        <time>2021-09-06T08:42:12.000Z</time>
      </trkpt>
      <trkpt lat="48.63485" lon="-0.59986">
        <ele>200.708894</ele>
        <time>2021-09-06T08:42:17.000Z</time>
      </trkpt>
      <trkpt lat="48.63451" lon="-0.59949">
        <ele>199.257655</ele>
        <time>2021-09-06T08:42:22.000Z</time>
      </trkpt>
      <trkpt lat="48.63444" lon="-0.59944">
        <ele>198.967605</ele>
        <time>2021-09-06T08:42:23.000Z</time>
      </trkpt>
      <trkpt lat="48.6339" lon="-0.59914">
        <ele>196.940747</ele>
        <time>2021-09-06T08:42:30.000Z</time>
      </trkpt>
      <trkpt lat="48.63342" lon="-0.59888">
        <ele>195.048357</ele>
        <time>2021-09-06T08:42:36.000Z</time>
      </trkpt>
      <trkpt lat="48.63294" lon="-0.59861">
        <ele>193.125398</ele>
        <time>2021-09-06T08:42:42.000Z</time>
      </trkpt>
      <trkpt lat="48.63253" lon="-0.59832">
        <ele>191.441563</ele>
        <time>2021-09-06T08:42:47.000Z</time>
      </trkpt>
      <trkpt lat="48.63237" lon="-0.59816">
        <ele>190.729232</ele>
        <time>2021-09-06T08:42:49.000Z</time>
      </trkpt>
      <trkpt lat="48.63223" lon="-0.59797">
        <ele>190.015741</ele>
        <time>2021-09-06T08:42:51.000Z</time>
      </trkpt>
      <trkpt lat="48.63198" lon="-0.59754">
        <ele>188.595451</ele>
        <time>2021-09-06T08:42:55.000Z</time>
      </trkpt>
      <trkpt lat="48.63172" lon="-0.59682">
        <ele>186.547196</ele>
        <time>2021-09-06T08:43:01.000Z</time>
      </trkpt>
      <trkpt lat="48.63152" lon="-0.596">
        <ele>184.389566</ele>
        <time>2021-09-06T08:43:08.000Z</time>
      </trkpt>
      <trkpt lat="48.6314" lon="-0.59561">
        <ele>183.57431</ele>
        <time>2021-09-06T08:43:12.000Z</time>
      </trkpt>
      <trkpt lat="48.63125" lon="-0.59535">
        <ele>183.139905</ele>
        <time>2021-09-06T08:43:16.000Z</time>
      </trkpt>
      <trkpt lat="48.63121" lon="-0.5953">
        <ele>183.039602</ele>
        <time>2021-09-06T08:43:17.000Z</time>
      </trkpt>
      <trkpt lat="48.63112" lon="-0.59521">
        <ele>182.84894</ele>
        <time>2021-09-06T08:43:19.000Z</time>
      </trkpt>
      <trkpt lat="48.63103" lon="-0.59517">
        <ele>182.682887</ele>
        <time>2021-09-06T08:43:21.000Z</time>
      </trkpt>
      <trkpt lat="48.6309" lon="-0.59514">
        <ele>182.438357</ele>
        <time>2021-09-06T08:43:24.000Z</time>
      </trkpt>
      <trkpt lat="48.6308" lon="-0.59515">
        <ele>182.254842</ele>
        <time>2021-09-06T08:43:28.000Z</time>
      </trkpt>
      <trkpt lat="48.63079" lon="-0.59517">
        <ele>182.222245</ele>
        <time>2021-09-06T08:43:29.000Z</time>
      </trkpt>
      <trkpt lat="48.63072" lon="-0.59522">
        <ele>182.08294</ele>
        <time>2021-09-06T08:43:32.000Z</time>
      </trkpt>
      <trkpt lat="48.63059" lon="-0.59526">
        <ele>181.828527</ele>
        <time>2021-09-06T08:43:37.000Z</time>
      </trkpt>
      <trkpt lat="48.63041" lon="-0.59531">
        <ele>181.502036</ele>
        <time>2021-09-06T08:43:42.000Z</time>
      </trkpt>
      <trkpt lat="48.63026" lon="-0.59533">
        <ele>181.21766</ele>
        <time>2021-09-06T08:43:47.000Z</time>
      </trkpt>
      <trkpt lat="48.63006" lon="-0.59541">
        <ele>180.840401</ele>
        <time>2021-09-06T08:43:51.000Z</time>
      </trkpt>
      <trkpt lat="48.62986" lon="-0.59541">
        <ele>180.48255</ele>
        <time>2021-09-06T08:43:56.000Z</time>
      </trkpt>
      <trkpt lat="48.62972" lon="-0.59542">
        <ele>180.59626</ele>
        <time>2021-09-06T08:44:00.000Z</time>
      </trkpt>
      <trkpt lat="48.62956" lon="-0.59539">
        <ele>180.72427</ele>
        <time>2021-09-06T08:44:05.000Z</time>
      </trkpt>
      <trkpt lat="48.6294" lon="-0.59534">
        <ele>180.852709</ele>
        <time>2021-09-06T08:44:10.000Z</time>
      </trkpt>
      <trkpt lat="48.62927" lon="-0.59526">
        <ele>180.97109</ele>
        <time>2021-09-06T08:44:14.000Z</time>
      </trkpt>
      <trkpt lat="48.62907" lon="-0.59509">
        <ele>181.153049</ele>
        <time>2021-09-06T08:44:20.000Z</time>
      </trkpt>
      <trkpt lat="48.62898" lon="-0.59494">
        <ele>181.261301</ele>
        <time>2021-09-06T08:44:24.000Z</time>
      </trkpt>
      <trkpt lat="48.62888" lon="-0.59475">
        <ele>181.3933</ele>
        <time>2021-09-06T08:44:29.000Z</time>
      </trkpt>
      <trkpt lat="48.62877" lon="-0.59442">
        <ele>181.585803</ele>
        <time>2021-09-06T08:44:36.000Z</time>
      </trkpt>
      <trkpt lat="48.62877" lon="-0.5941">
        <ele>181.757397</ele>
        <time>2021-09-06T08:44:44.000Z</time>
      </trkpt>
      <trkpt lat="48.62882" lon="-0.59384">
        <ele>181.900203</ele>
        <time>2021-09-06T08:44:51.000Z</time>
      </trkpt>
      <trkpt lat="48.62889" lon="-0.5936">
        <ele>181.902009</ele>
        <time>2021-09-06T08:44:58.000Z</time>
      </trkpt>
      <trkpt lat="48.62898" lon="-0.59332">
        <ele>181.867945</ele>
        <time>2021-09-06T08:45:06.000Z</time>
      </trkpt>
      <trkpt lat="48.62904" lon="-0.59304">
        <ele>181.836183</ele>
        <time>2021-09-06T08:45:13.000Z</time>
      </trkpt>
      <trkpt lat="48.62905" lon="-0.59279">
        <ele>181.808907</ele>
        <time>2021-09-06T08:45:18.000Z</time>
      </trkpt>
      <trkpt lat="48.62901" lon="-0.59262">
        <ele>181.789635</ele>
        <time>2021-09-06T08:45:21.000Z</time>
      </trkpt>
      <trkpt lat="48.62896" lon="-0.59252">
        <ele>181.775506</ele>
        <time>2021-09-06T08:45:23.000Z</time>
      </trkpt>
      <trkpt lat="48.62889" lon="-0.59242">
        <ele>181.760106</ele>
        <time>2021-09-06T08:45:25.000Z</time>
      </trkpt>
      <trkpt lat="48.62876" lon="-0.59228">
        <ele>181.734312</ele>
        <time>2021-09-06T08:45:28.000Z</time>
      </trkpt>
      <trkpt lat="48.62844" lon="-0.59189">
        <ele>181.666447</ele>
        <time>2021-09-06T08:45:35.000Z</time>
      </trkpt>
      <trkpt lat="48.62839" lon="-0.59183">
        <ele>181.656846</ele>
        <time>2021-09-06T08:45:36.000Z</time>
      </trkpt>
      <trkpt lat="48.62821" lon="-0.5916">
        <ele>181.585287</ele>
        <time>2021-09-06T08:45:40.000Z</time>
      </trkpt>
      <trkpt lat="48.62805" lon="-0.59128">
        <ele>181.429212</ele>
        <time>2021-09-06T08:45:45.000Z</time>
      </trkpt>
      <trkpt lat="48.62803" lon="-0.59121">
        <ele>181.400819</ele>
        <time>2021-09-06T08:45:46.000Z</time>
      </trkpt>
      <trkpt lat="48.62789" lon="-0.59069">
        <ele>181.18075</ele>
        <time>2021-09-06T08:45:54.000Z</time>
      </trkpt>
      <trkpt lat="48.62777" lon="-0.59025">
        <ele>180.999144</ele>
        <time>2021-09-06T08:46:00.000Z</time>
      </trkpt>
      <trkpt lat="48.62762" lon="-0.5896">
        <ele>180.73101</ele>
        <time>2021-09-06T08:46:07.000Z</time>
      </trkpt>
      <trkpt lat="48.6275" lon="-0.58881">
        <ele>180.986964</ele>
        <time>2021-09-06T08:46:15.000Z</time>
      </trkpt>
      <trkpt lat="48.62739" lon="-0.58837">
        <ele>181.462529</ele>
        <time>2021-09-06T08:46:21.000Z</time>
      </trkpt>
      <trkpt lat="48.6273" lon="-0.58806">
        <ele>181.800592</ele>
        <time>2021-09-06T08:46:27.000Z</time>
      </trkpt>
      <trkpt lat="48.62725" lon="-0.58788">
        <ele>181.997134</ele>
        <time>2021-09-06T08:46:32.000Z</time>
      </trkpt>
      <trkpt lat="48.62725" lon="-0.58785">
        <ele>182.033531</ele>
        <time>2021-09-06T08:46:33.000Z</time>
      </trkpt>
      <trkpt lat="48.62716" lon="-0.58758">
        <ele>182.328898</ele>
        <time>2021-09-06T08:46:40.000Z</time>
      </trkpt>
      <trkpt lat="48.62706" lon="-0.58721">
        <ele>182.734257</ele>
        <time>2021-09-06T08:46:50.000Z</time>
      </trkpt>
      <trkpt lat="48.62704" lon="-0.58702">
        <ele>182.930156</ele>
        <time>2021-09-06T08:46:55.000Z</time>
      </trkpt>
      <trkpt lat="48.62702" lon="-0.58674">
        <ele>183.209378</ele>
        <time>2021-09-06T08:47:02.000Z</time>
      </trkpt>
      <trkpt lat="48.62703" lon="-0.5864">
        <ele>183.809143</ele>
        <time>2021-09-06T08:47:10.000Z</time>
      </trkpt>
      <trkpt lat="48.62704" lon="-0.58603">
        <ele>184.569597</ele>
        <time>2021-09-06T08:47:19.000Z</time>
      </trkpt>
      <trkpt lat="48.62707" lon="-0.58568">
        <ele>185.294878</ele>
        <time>2021-09-06T08:47:28.000Z</time>
      </trkpt>
      <trkpt lat="48.62707" lon="-0.58549">
        <ele>185.693921</ele>
        <time>2021-09-06T08:47:33.000Z</time>
      </trkpt>
      <trkpt lat="48.62709" lon="-0.58524">
        <ele>186.206629</ele>
        <time>2021-09-06T08:47:39.000Z</time>
      </trkpt>
      <trkpt lat="48.6271" lon="-0.58497">
        <ele>186.765982</ele>
        <time>2021-09-06T08:47:45.000Z</time>
      </trkpt>
      <trkpt lat="48.62712" lon="-0.58445">
        <ele>187.842645</ele>
        <time>2021-09-06T08:47:56.000Z</time>
      </trkpt>
      <trkpt lat="48.62713" lon="-0.58409">
        <ele>188.59514</ele>
        <time>2021-09-06T08:48:03.000Z</time>
      </trkpt>
      <trkpt lat="48.62712" lon="-0.58365">
        <ele>188.988784</ele>
        <time>2021-09-06T08:48:11.000Z</time>
      </trkpt>
      <trkpt lat="48.6271" lon="-0.58325">
        <ele>189.059577</ele>
        <time>2021-09-06T08:48:17.000Z</time>
      </trkpt>
      <trkpt lat="48.62705" lon="-0.58302">
        <ele>189.102724</ele>
        <time>2021-09-06T08:48:20.000Z</time>
      </trkpt>
      <trkpt lat="48.62698" lon="-0.58286">
        <ele>189.135389</ele>
        <time>2021-09-06T08:48:22.000Z</time>
      </trkpt>
      <trkpt lat="48.6267" lon="-0.58239">
        <ele>189.247029</ele>
        <time>2021-09-06T08:48:28.000Z</time>
      </trkpt>
      <trkpt lat="48.62633" lon="-0.58178">
        <ele>189.395038</ele>
        <time>2021-09-06T08:48:36.000Z</time>
      </trkpt>
      <trkpt lat="48.62606" lon="-0.58134">
        <ele>189.717932</ele>
        <time>2021-09-06T08:48:42.000Z</time>
      </trkpt>
      <trkpt lat="48.62581" lon="-0.58092">
        <ele>190.098194</ele>
        <time>2021-09-06T08:48:49.000Z</time>
      </trkpt>
      <trkpt lat="48.62578" lon="-0.58087">
        <ele>190.144803</ele>
        <time>2021-09-06T08:48:50.000Z</time>
      </trkpt>
      <trkpt lat="48.62565" lon="-0.58062">
        <ele>190.352363</ele>
        <time>2021-09-06T08:48:55.000Z</time>
      </trkpt>
      <trkpt lat="48.62551" lon="-0.58037">
        <ele>190.570567</ele>
        <time>2021-09-06T08:49:01.000Z</time>
      </trkpt>
      <trkpt lat="48.62539" lon="-0.58006">
        <ele>190.806301</ele>
        <time>2021-09-06T08:49:08.000Z</time>
      </trkpt>
      <trkpt lat="48.62526" lon="-0.57971">
        <ele>191.076147</ele>
        <time>2021-09-06T08:49:16.000Z</time>
      </trkpt>
      <trkpt lat="48.62519" lon="-0.57946">
        <ele>191.303911</ele>
        <time>2021-09-06T08:49:22.000Z</time>
      </trkpt>
      <trkpt lat="48.62507" lon="-0.57902">
        <ele>192.184141</ele>
        <time>2021-09-06T08:49:32.000Z</time>
      </trkpt>
      <trkpt lat="48.62498" lon="-0.57868">
        <ele>192.886123</ele>
        <time>2021-09-06T08:49:40.000Z</time>
      </trkpt>
      <trkpt lat="48.6249" lon="-0.57838">
        <ele>193.490858</ele>
        <time>2021-09-06T08:49:47.000Z</time>
      </trkpt>
      <trkpt lat="48.6248" lon="-0.5781">
        <ele>194.07888</ele>
        <time>2021-09-06T08:49:54.000Z</time>
      </trkpt>
      <trkpt lat="48.62474" lon="-0.57796">
        <ele>194.396378</ele>
        <time>2021-09-06T08:49:58.000Z</time>
      </trkpt>
      <trkpt lat="48.62451" lon="-0.57756">
        <ele>195.397382</ele>
        <time>2021-09-06T08:50:09.000Z</time>
      </trkpt>
      <trkpt lat="48.62433" lon="-0.57733">
        <ele>196.054574</ele>
        <time>2021-09-06T08:50:17.000Z</time>
      </trkpt>
      <trkpt lat="48.62417" lon="-0.57717">
        <ele>196.619569</ele>
        <time>2021-09-06T08:50:24.000Z</time>
      </trkpt>
      <trkpt lat="48.62398" lon="-0.57706">
        <ele>197.252834</ele>
        <time>2021-09-06T08:50:32.000Z</time>
      </trkpt>
      <trkpt lat="48.62376" lon="-0.57703">
        <ele>197.92053</ele>
        <time>2021-09-06T08:50:40.000Z</time>
      </trkpt>
      <trkpt lat="48.62356" lon="-0.57703">
        <ele>198.519401</ele>
        <time>2021-09-06T08:50:47.000Z</time>
      </trkpt>
      <trkpt lat="48.62333" lon="-0.57706">
        <ele>199.246943</ele>
        <time>2021-09-06T08:50:55.000Z</time>
      </trkpt>
      <trkpt lat="48.623" lon="-0.57711">
        <ele>200.248663</ele>
        <time>2021-09-06T08:51:04.000Z</time>
      </trkpt>
      <trkpt lat="48.62268" lon="-0.5771">
        <ele>201.234326</ele>
        <time>2021-09-06T08:51:12.000Z</time>
      </trkpt>
      <trkpt lat="48.62247" lon="-0.57703">
        <ele>201.86241</ele>
        <time>2021-09-06T08:51:17.000Z</time>
      </trkpt>
      <trkpt lat="48.62243" lon="-0.577">
        <ele>201.883736</ele>
        <time>2021-09-06T08:51:18.000Z</time>
      </trkpt>
      <trkpt lat="48.62212" lon="-0.57678">
        <ele>202.045193</ele>
        <time>2021-09-06T08:51:25.000Z</time>
      </trkpt>
      <trkpt lat="48.62175" lon="-0.57653">
        <ele>202.232375</ele>
        <time>2021-09-06T08:51:33.000Z</time>
      </trkpt>
      <trkpt lat="48.62162" lon="-0.5764">
        <ele>202.30347</ele>
        <time>2021-09-06T08:51:36.000Z</time>
      </trkpt>
      <trkpt lat="48.62151" lon="-0.57632">
        <ele>202.359566</ele>
        <time>2021-09-06T08:51:38.000Z</time>
      </trkpt>
      <trkpt lat="48.62125" lon="-0.57614">
        <ele>202.492064</ele>
        <time>2021-09-06T08:51:42.000Z</time>
      </trkpt>
      <trkpt lat="48.62075" lon="-0.57578">
        <ele>202.782529</ele>
        <time>2021-09-06T08:51:49.000Z</time>
      </trkpt>
      <trkpt lat="48.62045" lon="-0.57554">
        <ele>203.036637</ele>
        <time>2021-09-06T08:51:54.000Z</time>
      </trkpt>
      <trkpt lat="48.62007" lon="-0.57514">
        <ele>203.381135</ele>
        <time>2021-09-06T08:52:01.000Z</time>
      </trkpt>
      <trkpt lat="48.61978" lon="-0.57468">
        <ele>203.697245</ele>
        <time>2021-09-06T08:52:08.000Z</time>
      </trkpt>
      <trkpt lat="48.61959" lon="-0.57429">
        <ele>203.934707</ele>
        <time>2021-09-06T08:52:14.000Z</time>
      </trkpt>
      <trkpt lat="48.61947" lon="-0.57394">
        <ele>204.140668</ele>
        <time>2021-09-06T08:52:19.000Z</time>
      </trkpt>
      <trkpt lat="48.61935" lon="-0.57354">
        <ele>204.385358</ele>
        <time>2021-09-06T08:52:25.000Z</time>
      </trkpt>
      <trkpt lat="48.61933" lon="-0.57348">
        <ele>204.424349</ele>
        <time>2021-09-06T08:52:26.000Z</time>
      </trkpt>
      <trkpt lat="48.61922" lon="-0.57302">
        <ele>204.695273</ele>
        <time>2021-09-06T08:52:33.000Z</time>
      </trkpt>
      <trkpt lat="48.61914" lon="-0.5726">
        <ele>204.936798</ele>
        <time>2021-09-06T08:52:40.000Z</time>
      </trkpt>
      <trkpt lat="48.61909" lon="-0.5722">
        <ele>205.164161</ele>
        <time>2021-09-06T08:52:48.000Z</time>
      </trkpt>
      <trkpt lat="48.61907" lon="-0.5717">
        <ele>205.44241</ele>
        <time>2021-09-06T08:52:59.000Z</time>
      </trkpt>
      <trkpt lat="48.61907" lon="-0.5713">
        <ele>206.054941</ele>
        <time>2021-09-06T08:53:09.000Z</time>
      </trkpt>
      <trkpt lat="48.61908" lon="-0.57092">
        <ele>206.94568</ele>
        <time>2021-09-06T08:53:19.000Z</time>
      </trkpt>
      <trkpt lat="48.61909" lon="-0.57057">
        <ele>207.748048</ele>
        <time>2021-09-06T08:53:28.000Z</time>
      </trkpt>
      <trkpt lat="48.6191" lon="-0.57022">
        <ele>208.566485</ele>
        <time>2021-09-06T08:53:37.000Z</time>
      </trkpt>
      <trkpt lat="48.61911" lon="-0.56993">
        <ele>209.256994</ele>
        <time>2021-09-06T08:53:45.000Z</time>
      </trkpt>
      <trkpt lat="48.61912" lon="-0.56963">
        <ele>209.951522</ele>
        <time>2021-09-06T08:53:53.000Z</time>
      </trkpt>
      <trkpt lat="48.61914" lon="-0.56925">
        <ele>210.835401</ele>
        <time>2021-09-06T08:54:03.000Z</time>
      </trkpt>
      <trkpt lat="48.61914" lon="-0.56891">
        <ele>211.646368</ele>
        <time>2021-09-06T08:54:12.000Z</time>
      </trkpt>
      <trkpt lat="48.61914" lon="-0.56861">
        <ele>212.531972</ele>
        <time>2021-09-06T08:54:20.000Z</time>
      </trkpt>
      <trkpt lat="48.61915" lon="-0.56835">
        <ele>213.425877</ele>
        <time>2021-09-06T08:54:27.000Z</time>
      </trkpt>
      <trkpt lat="48.61916" lon="-0.56797">
        <ele>214.700708</ele>
        <time>2021-09-06T08:54:37.000Z</time>
      </trkpt>
      <trkpt lat="48.61917" lon="-0.56766">
        <ele>215.727102</ele>
        <time>2021-09-06T08:54:45.000Z</time>
      </trkpt>
      <trkpt lat="48.61917" lon="-0.56733">
        <ele>216.860403</ele>
        <time>2021-09-06T08:54:54.000Z</time>
      </trkpt>
      <trkpt lat="48.61919" lon="-0.56703">
        <ele>217.878423</ele>
        <time>2021-09-06T08:55:02.000Z</time>
      </trkpt>
      <trkpt lat="48.61919" lon="-0.5667">
        <ele>218.984485</ele>
        <time>2021-09-06T08:55:11.000Z</time>
      </trkpt>
      <trkpt lat="48.61919" lon="-0.56633">
        <ele>220.239096</ele>
        <time>2021-09-06T08:55:21.000Z</time>
      </trkpt>
      <trkpt lat="48.61915" lon="-0.56604">
        <ele>221.141091</ele>
        <time>2021-09-06T08:55:29.000Z</time>
      </trkpt>
      <trkpt lat="48.61913" lon="-0.56581">
        <ele>221.529793</ele>
        <time>2021-09-06T08:55:35.000Z</time>
      </trkpt>
      <trkpt lat="48.61904" lon="-0.56547">
        <ele>222.129359</ele>
        <time>2021-09-06T08:55:44.000Z</time>
      </trkpt>
      <trkpt lat="48.61893" lon="-0.56515">
        <ele>222.724113</ele>
        <time>2021-09-06T08:55:52.000Z</time>
      </trkpt>
      <trkpt lat="48.61877" lon="-0.56484">
        <ele>223.363003</ele>
        <time>2021-09-06T08:55:59.000Z</time>
      </trkpt>
      <trkpt lat="48.61857" lon="-0.56451">
        <ele>224.102679</ele>
        <time>2021-09-06T08:56:06.000Z</time>
      </trkpt>
      <trkpt lat="48.61831" lon="-0.564">
        <ele>225.149044</ele>
        <time>2021-09-06T08:56:14.000Z</time>
      </trkpt>
      <trkpt lat="48.61814" lon="-0.56349">
        <ele>225.294986</ele>
        <time>2021-09-06T08:56:20.000Z</time>
      </trkpt>
      <trkpt lat="48.61805" lon="-0.56299">
        <ele>224.918765</ele>
        <time>2021-09-06T08:56:25.000Z</time>
      </trkpt>
      <trkpt lat="48.61804" lon="-0.56288">
        <ele>224.839971</ele>
        <time>2021-09-06T08:56:26.000Z</time>
      </trkpt>
      <trkpt lat="48.61803" lon="-0.56218">
        <ele>224.335347</ele>
        <time>2021-09-06T08:56:32.000Z</time>
      </trkpt>
      <trkpt lat="48.61801" lon="-0.56131">
        <ele>223.703649</ele>
        <time>2021-09-06T08:56:39.000Z</time>
      </trkpt>
      <trkpt lat="48.61793" lon="-0.56067">
        <ele>222.936961</ele>
        <time>2021-09-06T08:56:44.000Z</time>
      </trkpt>
      <trkpt lat="48.61773" lon="-0.56008">
        <ele>222.038571</ele>
        <time>2021-09-06T08:56:49.000Z</time>
      </trkpt>
      <trkpt lat="48.61744" lon="-0.55958">
        <ele>221.141996</ele>
        <time>2021-09-06T08:56:54.000Z</time>
      </trkpt>
      <trkpt lat="48.61706" lon="-0.55912">
        <ele>220.132725</ele>
        <time>2021-09-06T08:57:00.000Z</time>
      </trkpt>
      <trkpt lat="48.6167" lon="-0.55873">
        <ele>219.119214</ele>
        <time>2021-09-06T08:57:06.000Z</time>
      </trkpt>
      <trkpt lat="48.61641" lon="-0.55839">
        <ele>218.249415</ele>
        <time>2021-09-06T08:57:11.000Z</time>
      </trkpt>
      <trkpt lat="48.61597" lon="-0.55788">
        <ele>216.933598</ele>
        <time>2021-09-06T08:57:18.000Z</time>
      </trkpt>
      <trkpt lat="48.61591" lon="-0.55781">
        <ele>216.744928</ele>
        <time>2021-09-06T08:57:19.000Z</time>
      </trkpt>
      <trkpt lat="48.61545" lon="-0.55728">
        <ele>215.285286</ele>
        <time>2021-09-06T08:57:26.000Z</time>
      </trkpt>
      <trkpt lat="48.61508" lon="-0.55688">
        <ele>213.804082</ele>
        <time>2021-09-06T08:57:31.000Z</time>
      </trkpt>
      <trkpt lat="48.61463" lon="-0.55638">
        <ele>211.964441</ele>
        <time>2021-09-06T08:57:37.000Z</time>
      </trkpt>
      <trkpt lat="48.61455" lon="-0.55631">
        <ele>211.658419</ele>
        <time>2021-09-06T08:57:38.000Z</time>
      </trkpt>
      <trkpt lat="48.61406" lon="-0.55594">
        <ele>209.876051</ele>
        <time>2021-09-06T08:57:44.000Z</time>
      </trkpt>
      <trkpt lat="48.61363" lon="-0.55578">
        <ele>208.402101</ele>
        <time>2021-09-06T08:57:49.000Z</time>
      </trkpt>
      <trkpt lat="48.61324" lon="-0.5557">
        <ele>207.054964</ele>
        <time>2021-09-06T08:57:54.000Z</time>
      </trkpt>
      <trkpt lat="48.6131" lon="-0.55565">
        <ele>206.578194</ele>
        <time>2021-09-06T08:57:56.000Z</time>
      </trkpt>
      <trkpt lat="48.6129" lon="-0.55555">
        <ele>205.868846</ele>
        <time>2021-09-06T08:57:59.000Z</time>
      </trkpt>
      <trkpt lat="48.61284" lon="-0.5555">
        <ele>205.635419</ele>
        <time>2021-09-06T08:58:00.000Z</time>
      </trkpt>
      <trkpt lat="48.61266" lon="-0.55535">
        <ele>204.949115</ele>
        <time>2021-09-06T08:58:03.000Z</time>
      </trkpt>
      <trkpt lat="48.61255" lon="-0.55525">
        <ele>204.492309</ele>
        <time>2021-09-06T08:58:05.000Z</time>
      </trkpt>
      <trkpt lat="48.61242" lon="-0.55515">
        <ele>204.029811</ele>
        <time>2021-09-06T08:58:07.000Z</time>
      </trkpt>
      <trkpt lat="48.61209" lon="-0.55493">
        <ele>203.161012</ele>
        <time>2021-09-06T08:58:12.000Z</time>
      </trkpt>
      <trkpt lat="48.61196" lon="-0.55486">
        <ele>202.901691</ele>
        <time>2021-09-06T08:58:14.000Z</time>
      </trkpt>
      <trkpt lat="48.61182" lon="-0.55484">
        <ele>202.633445</ele>
        <time>2021-09-06T08:58:16.000Z</time>
      </trkpt>
      <trkpt lat="48.61143" lon="-0.55491">
        <ele>201.908107</ele>
        <time>2021-09-06T08:58:21.000Z</time>
      </trkpt>
      <trkpt lat="48.61094" lon="-0.55497">
        <ele>200.972092</ele>
        <time>2021-09-06T08:58:28.000Z</time>
      </trkpt>
      <trkpt lat="48.61074" lon="-0.55493">
        <ele>200.595121</ele>
        <time>2021-09-06T08:58:31.000Z</time>
      </trkpt>
      <trkpt lat="48.61062" lon="-0.55488">
        <ele>200.370055</ele>
        <time>2021-09-06T08:58:33.000Z</time>
      </trkpt>
      <trkpt lat="48.61057" lon="-0.55486">
        <ele>200.270194</ele>
        <time>2021-09-06T08:58:34.000Z</time>
      </trkpt>
      <trkpt lat="48.61045" lon="-0.55479">
        <ele>200.300371</ele>
        <time>2021-09-06T08:58:37.000Z</time>
      </trkpt>
      <trkpt lat="48.6103" lon="-0.55467">
        <ele>200.379201</ele>
        <time>2021-09-06T08:58:42.000Z</time>
      </trkpt>
      <trkpt lat="48.61013" lon="-0.55453">
        <ele>200.468931</ele>
        <time>2021-09-06T08:58:49.000Z</time>
      </trkpt>
      <trkpt lat="48.60999" lon="-0.55441">
        <ele>200.543298</ele>
        <time>2021-09-06T08:58:55.000Z</time>
      </trkpt>
      <trkpt lat="48.60982" lon="-0.55426">
        <ele>200.633546</ele>
        <time>2021-09-06T08:59:03.000Z</time>
      </trkpt>
      <trkpt lat="48.60965" lon="-0.55413">
        <ele>200.719208</ele>
        <time>2021-09-06T08:59:11.000Z</time>
      </trkpt>
      <trkpt lat="48.60948" lon="-0.55396">
        <ele>200.812874</ele>
        <time>2021-09-06T08:59:20.000Z</time>
      </trkpt>
      <trkpt lat="48.60936" lon="-0.55371">
        <ele>200.906268</ele>
        <time>2021-09-06T08:59:29.000Z</time>
      </trkpt>
      <trkpt lat="48.60929" lon="-0.55351">
        <ele>200.975601</ele>
        <time>2021-09-06T08:59:36.000Z</time>
      </trkpt>
      <trkpt lat="48.60922" lon="-0.55319">
        <ele>201.126212</ele>
        <time>2021-09-06T08:59:46.000Z</time>
      </trkpt>
      <trkpt lat="48.60921" lon="-0.55295">
        <ele>201.97316</ele>
        <time>2021-09-06T08:59:53.000Z</time>
      </trkpt>
      <trkpt lat="48.60921" lon="-0.5527">
        <ele>202.85776</ele>
        <time>2021-09-06T09:00:00.000Z</time>
      </trkpt>
      <trkpt lat="48.60922" lon="-0.55246">
        <ele>203.679578</ele>
        <time>2021-09-06T09:00:07.000Z</time>
      </trkpt>
      <trkpt lat="48.60922" lon="-0.55226">
        <ele>204.371893</ele>
        <time>2021-09-06T09:00:13.000Z</time>
      </trkpt>
      <trkpt lat="48.60921" lon="-0.55203">
        <ele>205.169713</ele>
        <time>2021-09-06T09:00:20.000Z</time>
      </trkpt>
      <trkpt lat="48.60921" lon="-0.5518">
        <ele>205.984539</ele>
        <time>2021-09-06T09:00:27.000Z</time>
      </trkpt>
      <trkpt lat="48.60922" lon="-0.55149">
        <ele>207.070962</ele>
        <time>2021-09-06T09:00:36.000Z</time>
      </trkpt>
      <trkpt lat="48.60923" lon="-0.55125">
        <ele>207.928634</ele>
        <time>2021-09-06T09:00:43.000Z</time>
      </trkpt>
      <trkpt lat="48.6092" lon="-0.55101">
        <ele>208.771362</ele>
        <time>2021-09-06T09:00:50.000Z</time>
      </trkpt>
      <trkpt lat="48.6092" lon="-0.5508">
        <ele>209.488211</ele>
        <time>2021-09-06T09:00:56.000Z</time>
      </trkpt>
      <trkpt lat="48.6092" lon="-0.55061">
        <ele>210.166521</ele>
        <time>2021-09-06T09:01:02.000Z</time>
      </trkpt>
      <trkpt lat="48.60919" lon="-0.55037">
        <ele>210.842415</ele>
        <time>2021-09-06T09:01:08.000Z</time>
      </trkpt>
      <trkpt lat="48.60919" lon="-0.55003">
        <ele>211.541938</ele>
        <time>2021-09-06T09:01:16.000Z</time>
      </trkpt>
      <trkpt lat="48.60907" lon="-0.54959">
        <ele>212.514631</ele>
        <time>2021-09-06T09:01:26.000Z</time>
      </trkpt>
      <trkpt lat="48.60894" lon="-0.5492">
        <ele>213.411384</ele>
        <time>2021-09-06T09:01:35.000Z</time>
      </trkpt>
      <trkpt lat="48.60882" lon="-0.54873">
        <ele>214.449445</ele>
        <time>2021-09-06T09:01:45.000Z</time>
      </trkpt>
      <trkpt lat="48.60874" lon="-0.54846">
        <ele>215.061982</ele>
        <time>2021-09-06T09:01:51.000Z</time>
      </trkpt>
      <trkpt lat="48.60862" lon="-0.54806">
        <ele>215.95812</ele>
        <time>2021-09-06T09:02:00.000Z</time>
      </trkpt>
      <trkpt lat="48.60855" lon="-0.5478">
        <ele>216.553756</ele>
        <time>2021-09-06T09:02:06.000Z</time>
      </trkpt>
      <trkpt lat="48.60842" lon="-0.54731">
        <ele>217.660112</ele>
        <time>2021-09-06T09:02:17.000Z</time>
      </trkpt>
      <trkpt lat="48.60833" lon="-0.54698">
        <ele>218.415622</ele>
        <time>2021-09-06T09:02:25.000Z</time>
      </trkpt>
      <trkpt lat="48.60821" lon="-0.54656">
        <ele>219.370107</ele>
        <time>2021-09-06T09:02:36.000Z</time>
      </trkpt>
      <trkpt lat="48.60812" lon="-0.54626">
        <ele>220.06215</ele>
        <time>2021-09-06T09:02:45.000Z</time>
      </trkpt>
      <trkpt lat="48.60807" lon="-0.54605">
        <ele>220.528416</ele>
        <time>2021-09-06T09:02:51.000Z</time>
      </trkpt>
      <trkpt lat="48.60799" lon="-0.54578">
        <ele>221.143332</ele>
        <time>2021-09-06T09:02:59.000Z</time>
      </trkpt>
      <trkpt lat="48.60793" lon="-0.54556">
        <ele>221.650363</ele>
        <time>2021-09-06T09:03:06.000Z</time>
      </trkpt>
      <trkpt lat="48.60786" lon="-0.5453">
        <ele>222.346841</ele>
        <time>2021-09-06T09:03:14.000Z</time>
      </trkpt>
      <trkpt lat="48.6078" lon="-0.54509">
        <ele>222.995743</ele>
        <time>2021-09-06T09:03:21.000Z</time>
      </trkpt>
      <trkpt lat="48.60771" lon="-0.54481">
        <ele>223.87264</ele>
        <time>2021-09-06T09:03:30.000Z</time>
      </trkpt>
      <trkpt lat="48.60766" lon="-0.54459">
        <ele>224.530557</ele>
        <time>2021-09-06T09:03:37.000Z</time>
      </trkpt>
      <trkpt lat="48.6076" lon="-0.54437">
        <ele>225.195777</ele>
        <time>2021-09-06T09:03:44.000Z</time>
      </trkpt>
      <trkpt lat="48.60757" lon="-0.54424">
        <ele>225.601784</ele>
        <time>2021-09-06T09:03:48.000Z</time>
      </trkpt>
      <trkpt lat="48.60754" lon="-0.54404">
        <ele>226.174114</ele>
        <time>2021-09-06T09:03:53.000Z</time>
      </trkpt>
      <trkpt lat="48.60747" lon="-0.54384">
        <ele>226.798558</ele>
        <time>2021-09-06T09:03:59.000Z</time>
      </trkpt>
      <trkpt lat="48.60742" lon="-0.54366">
        <ele>227.357674</ele>
        <time>2021-09-06T09:04:03.000Z</time>
      </trkpt>
      <trkpt lat="48.60734" lon="-0.54334">
        <ele>228.30812</ele>
        <time>2021-09-06T09:04:08.000Z</time>
      </trkpt>
      <trkpt lat="48.60732" lon="-0.54328">
        <ele>228.509685</ele>
        <time>2021-09-06T09:04:09.000Z</time>
      </trkpt>
      <trkpt lat="48.60721" lon="-0.54302">
        <ele>229.387487</ele>
        <time>2021-09-06T09:04:13.000Z</time>
      </trkpt>
      <trkpt lat="48.60697" lon="-0.54257">
        <ele>229.325044</ele>
        <time>2021-09-06T09:04:19.000Z</time>
      </trkpt>
      <trkpt lat="48.60669" lon="-0.54206">
        <ele>229.011846</ele>
        <time>2021-09-06T09:04:25.000Z</time>
      </trkpt>
      <trkpt lat="48.60632" lon="-0.54137">
        <ele>228.595305</ele>
        <time>2021-09-06T09:04:32.000Z</time>
      </trkpt>
      <trkpt lat="48.60596" lon="-0.54074">
        <ele>227.984799</ele>
        <time>2021-09-06T09:04:38.000Z</time>
      </trkpt>
      <trkpt lat="48.6059" lon="-0.54063">
        <ele>227.731572</ele>
        <time>2021-09-06T09:04:39.000Z</time>
      </trkpt>
      <trkpt lat="48.60573" lon="-0.54026">
        <ele>226.963972</ele>
        <time>2021-09-06T09:04:42.000Z</time>
      </trkpt>
      <trkpt lat="48.60564" lon="-0.53999">
        <ele>226.453627</ele>
        <time>2021-09-06T09:04:44.000Z</time>
      </trkpt>
      <trkpt lat="48.60555" lon="-0.5394">
        <ele>225.425146</ele>
        <time>2021-09-06T09:04:48.000Z</time>
      </trkpt>
      <trkpt lat="48.60555" lon="-0.53925">
        <ele>225.163918</ele>
        <time>2021-09-06T09:04:49.000Z</time>
      </trkpt>
      <trkpt lat="48.60558" lon="-0.53879">
        <ele>224.374462</ele>
        <time>2021-09-06T09:04:52.000Z</time>
      </trkpt>
      <trkpt lat="48.60571" lon="-0.53811">
        <ele>223.920161</ele>
        <time>2021-09-06T09:04:57.000Z</time>
      </trkpt>
      <trkpt lat="48.60588" lon="-0.53771">
        <ele>224.390374</ele>
        <time>2021-09-06T09:05:01.000Z</time>
      </trkpt>
      <trkpt lat="48.6061" lon="-0.53744">
        <ele>224.823566</ele>
        <time>2021-09-06T09:05:06.000Z</time>
      </trkpt>
      <trkpt lat="48.60626" lon="-0.53732">
        <ele>225.084974</ele>
        <time>2021-09-06T09:05:11.000Z</time>
      </trkpt>
      <trkpt lat="48.60636" lon="-0.53727">
        <ele>225.250116</ele>
        <time>2021-09-06T09:05:16.000Z</time>
      </trkpt>
      <trkpt lat="48.60645" lon="-0.53722">
        <ele>225.387012</ele>
        <time>2021-09-06T09:05:22.000Z</time>
      </trkpt>
      <trkpt lat="48.60656" lon="-0.53714">
        <ele>225.573052</ele>
        <time>2021-09-06T09:05:29.000Z</time>
      </trkpt>
      <trkpt lat="48.6066" lon="-0.53709">
        <ele>225.655565</ele>
        <time>2021-09-06T09:05:34.000Z</time>
      </trkpt>
      <trkpt lat="48.60666" lon="-0.53702">
        <ele>225.768259</ele>
        <time>2021-09-06T09:05:38.000Z</time>
      </trkpt>
      <trkpt lat="48.60674" lon="-0.53692">
        <ele>225.926653</ele>
        <time>2021-09-06T09:05:44.000Z</time>
      </trkpt>
      <trkpt lat="48.60682" lon="-0.53679">
        <ele>226.103265</ele>
        <time>2021-09-06T09:05:50.000Z</time>
      </trkpt>
      <trkpt lat="48.60685" lon="-0.53672">
        <ele>226.183991</ele>
        <time>2021-09-06T09:05:53.000Z</time>
      </trkpt>
      <trkpt lat="48.60686" lon="-0.53668">
        <ele>226.226003</ele>
        <time>2021-09-06T09:05:55.000Z</time>
      </trkpt>
      <trkpt lat="48.60687" lon="-0.5366">
        <ele>226.312713</ele>
        <time>2021-09-06T09:06:00.000Z</time>
      </trkpt>
      <trkpt lat="48.60694" lon="-0.53645">
        <ele>228.940382</ele>
        <time>2021-09-06T09:06:06.000Z</time>
      </trkpt>
      <trkpt lat="48.60699" lon="-0.53629">
        <ele>232.187871</ele>
        <time>2021-09-06T09:06:11.000Z</time>
      </trkpt>
      <trkpt lat="48.60701" lon="-0.53618">
        <ele>234.394092</ele>
        <time>2021-09-06T09:06:16.000Z</time>
      </trkpt>
      <trkpt lat="48.60706" lon="-0.53602">
        <ele>237.560622</ele>
        <time>2021-09-06T09:06:22.000Z</time>
      </trkpt>
      <trkpt lat="48.60708" lon="-0.53597">
        <ele>238.76487</ele>
        <time>2021-09-06T09:06:24.000Z</time>
      </trkpt>
      <trkpt lat="48.60709" lon="-0.5359">
        <ele>240.089801</ele>
        <time>2021-09-06T09:06:26.000Z</time>
      </trkpt>
      <trkpt lat="48.6071" lon="-0.53588">
        <ele>240.552776</ele>
        <time>2021-09-06T09:06:27.000Z</time>
      </trkpt>
      <trkpt lat="48.6071" lon="-0.53575">
        <ele>242.967284</ele>
        <time>2021-09-06T09:06:32.000Z</time>
      </trkpt>
      <trkpt lat="48.60712" lon="-0.53564">
        <ele>245.047212</ele>
        <time>2021-09-06T09:06:36.000Z</time>
      </trkpt>
      <trkpt lat="48.60716" lon="-0.53544">
        <ele>248.953306</ele>
        <time>2021-09-06T09:06:43.000Z</time>
      </trkpt>
      <trkpt lat="48.60716" lon="-0.53533">
        <ele>250.99711</ele>
        <time>2021-09-06T09:06:48.000Z</time>
      </trkpt>
      <trkpt lat="48.60716" lon="-0.53531">
        <ele>251.352515</ele>
        <time>2021-09-06T09:06:49.000Z</time>
      </trkpt>
      <trkpt lat="48.60714" lon="-0.53516">
        <ele>254.287494</ele>
        <time>2021-09-06T09:06:57.000Z</time>
      </trkpt>
      <trkpt lat="48.60712" lon="-0.535">
        <ele>257.191528</ele>
        <time>2021-09-06T09:07:04.000Z</time>
      </trkpt>
      <trkpt lat="48.60713" lon="-0.5348">
        <ele>260.897926</ele>
        <time>2021-09-06T09:07:12.000Z</time>
      </trkpt>
      <trkpt lat="48.60713" lon="-0.53463">
        <ele>264.133986</ele>
        <time>2021-09-06T09:07:20.000Z</time>
      </trkpt>
      <trkpt lat="48.60712" lon="-0.53454">
        <ele>265.910645</ele>
        <time>2021-09-06T09:07:24.000Z</time>
      </trkpt>
      <trkpt lat="48.60711" lon="-0.53448">
        <ele>267.064239</ele>
        <time>2021-09-06T09:07:26.000Z</time>
      </trkpt>
      <trkpt lat="48.6071" lon="-0.5344">
        <ele>268.486021</ele>
        <time>2021-09-06T09:07:29.000Z</time>
      </trkpt>
      <trkpt lat="48.60708" lon="-0.53433">
        <ele>270.078351</ele>
        <time>2021-09-06T09:07:32.000Z</time>
      </trkpt>
      <trkpt lat="48.60703" lon="-0.53414">
        <ele>273.84487</ele>
        <time>2021-09-06T09:07:39.000Z</time>
      </trkpt>
      <trkpt lat="48.60699" lon="-0.53397">
        <ele>277.263106</ele>
        <time>2021-09-06T09:07:45.000Z</time>
      </trkpt>
      <trkpt lat="48.60693" lon="-0.53382">
        <ele>280.318025</ele>
        <time>2021-09-06T09:07:51.000Z</time>
      </trkpt>
      <trkpt lat="48.60691" lon="-0.53377">
        <ele>281.417386</ele>
        <time>2021-09-06T09:07:53.000Z</time>
      </trkpt>
      <trkpt lat="48.60688" lon="-0.53373">
        <ele>282.544612</ele>
        <time>2021-09-06T09:07:55.000Z</time>
      </trkpt>
      <trkpt lat="48.60685" lon="-0.53359">
        <ele>285.080271</ele>
        <time>2021-09-06T09:08:00.000Z</time>
      </trkpt>
      <trkpt lat="48.6068" lon="-0.53345">
        <ele>287.941869</ele>
        <time>2021-09-06T09:08:06.000Z</time>
      </trkpt>
      <trkpt lat="48.60677" lon="-0.53322">
        <ele>292.229403</ele>
        <time>2021-09-06T09:08:13.000Z</time>
      </trkpt>
      <trkpt lat="48.60676" lon="-0.53295">
        <ele>297.19504</ele>
        <time>2021-09-06T09:08:21.000Z</time>
      </trkpt>
      <trkpt lat="48.60676" lon="-0.53277">
        <ele>300.557653</ele>
        <time>2021-09-06T09:08:26.000Z</time>
      </trkpt>
      <trkpt lat="48.60676" lon="-0.53251">
        <ele>305.226546</ele>
        <time>2021-09-06T09:08:32.000Z</time>
      </trkpt>
      <trkpt lat="48.60674" lon="-0.5322">
        <ele>310.869593</ele>
        <time>2021-09-06T09:08:40.000Z</time>
      </trkpt>
      <trkpt lat="48.60671" lon="-0.53211">
        <ele>312.626265</ele>
        <time>2021-09-06T09:08:43.000Z</time>
      </trkpt>
      <trkpt lat="48.60671" lon="-0.53204">
        <ele>313.843427</ele>
        <time>2021-09-06T09:08:45.000Z</time>
      </trkpt>
      <trkpt lat="48.60669" lon="-0.53183">
        <ele>317.838001</ele>
        <time>2021-09-06T09:08:51.000Z</time>
      </trkpt>
      <trkpt lat="48.60667" lon="-0.5315">
        <ele>323.827227</ele>
        <time>2021-09-06T09:08:59.000Z</time>
      </trkpt>
      <trkpt lat="48.60666" lon="-0.5312">
        <ele>325.19405</ele>
        <time>2021-09-06T09:09:06.000Z</time>
      </trkpt>
      <trkpt lat="48.60665" lon="-0.53079">
        <ele>321.038977</ele>
        <time>2021-09-06T09:09:15.000Z</time>
      </trkpt>
      <trkpt lat="48.60668" lon="-0.53033">
        <ele>316.370664</ele>
        <time>2021-09-06T09:09:24.000Z</time>
      </trkpt>
      <trkpt lat="48.60671" lon="-0.5301">
        <ele>314.062468</ele>
        <time>2021-09-06T09:09:30.000Z</time>
      </trkpt>
      <trkpt lat="48.60673" lon="-0.53007">
        <ele>313.581129</ele>
        <time>2021-09-06T09:09:31.000Z</time>
      </trkpt>
      <trkpt lat="48.60681" lon="-0.53002">
        <ele>312.240177</ele>
        <time>2021-09-06T09:09:34.000Z</time>
      </trkpt>
      <trkpt lat="48.60684" lon="-0.52999">
        <ele>311.729228</ele>
        <time>2021-09-06T09:09:35.000Z</time>
      </trkpt>
      <trkpt lat="48.60691" lon="-0.52992">
        <ele>310.411017</ele>
        <time>2021-09-06T09:09:38.000Z</time>
      </trkpt>
      <trkpt lat="48.60692" lon="-0.5299">
        <ele>310.167043</ele>
        <time>2021-09-06T09:09:39.000Z</time>
      </trkpt>
      <trkpt lat="48.60692" lon="-0.5299">
        <ele>310.151792</ele>
        <time>2021-09-06T09:09:44.000Z</time>
      </trkpt>
      <trkpt lat="48.60691" lon="-0.52992">
        <ele>309.884178</ele>
        <time>2021-09-06T09:09:46.000Z</time>
      </trkpt>
      <trkpt lat="48.60691" lon="-0.52991">
        <ele>309.782542</ele>
        <time>2021-09-06T09:09:48.000Z</time>
      </trkpt>
      <trkpt lat="48.60701" lon="-0.52972">
        <ele>307.275275</ele>
        <time>2021-09-06T09:11:00.000Z</time>
      </trkpt>
      <trkpt lat="48.60701" lon="-0.52963">
        <ele>306.443341</ele>
        <time>2021-09-06T09:11:02.000Z</time>
      </trkpt>
      <trkpt lat="48.60699" lon="-0.5293">
        <ele>303.029985</ele>
        <time>2021-09-06T09:11:07.000Z</time>
      </trkpt>
      <trkpt lat="48.60697" lon="-0.52898">
        <ele>299.768651</ele>
        <time>2021-09-06T09:11:12.000Z</time>
      </trkpt>
      <trkpt lat="48.60696" lon="-0.52888">
        <ele>298.961972</ele>
        <time>2021-09-06T09:11:14.000Z</time>
      </trkpt>
      <trkpt lat="48.60693" lon="-0.5288">
        <ele>298.35638</ele>
        <time>2021-09-06T09:11:16.000Z</time>
      </trkpt>
      <trkpt lat="48.6069" lon="-0.52855">
        <ele>296.683093</ele>
        <time>2021-09-06T09:11:20.000Z</time>
      </trkpt>
      <trkpt lat="48.60688" lon="-0.52845">
        <ele>296.007328</ele>
        <time>2021-09-06T09:11:22.000Z</time>
      </trkpt>
      <trkpt lat="48.60687" lon="-0.52839">
        <ele>295.612059</ele>
        <time>2021-09-06T09:11:23.000Z</time>
      </trkpt>
      <trkpt lat="48.60688" lon="-0.52829">
        <ele>294.93902</ele>
        <time>2021-09-06T09:11:24.000Z</time>
      </trkpt>
      <trkpt lat="48.60684" lon="-0.52791">
        <ele>292.482368</ele>
        <time>2021-09-06T09:11:28.000Z</time>
      </trkpt>
      <trkpt lat="48.60679" lon="-0.52737">
        <ele>288.92059</ele>
        <time>2021-09-06T09:11:33.000Z</time>
      </trkpt>
      <trkpt lat="48.60676" lon="-0.5269">
        <ele>285.829698</ele>
        <time>2021-09-06T09:11:37.000Z</time>
      </trkpt>
      <trkpt lat="48.60674" lon="-0.52678">
        <ele>285.03097</ele>
        <time>2021-09-06T09:11:38.000Z</time>
      </trkpt>
      <trkpt lat="48.60671" lon="-0.52641">
        <ele>282.580182</ele>
        <time>2021-09-06T09:11:41.000Z</time>
      </trkpt>
      <trkpt lat="48.60665" lon="-0.52576">
        <ele>279.484587</ele>
        <time>2021-09-06T09:11:46.000Z</time>
      </trkpt>
      <trkpt lat="48.60659" lon="-0.52521">
        <ele>277.253412</ele>
        <time>2021-09-06T09:11:50.000Z</time>
      </trkpt>
      <trkpt lat="48.60649" lon="-0.52497">
        <ele>276.08169</ele>
        <time>2021-09-06T09:11:52.000Z</time>
      </trkpt>
      <trkpt lat="48.60642" lon="-0.52486">
        <ele>275.460501</ele>
        <time>2021-09-06T09:11:53.000Z</time>
      </trkpt>
      <trkpt lat="48.60633" lon="-0.52479">
        <ele>274.837748</ele>
        <time>2021-09-06T09:11:54.000Z</time>
      </trkpt>
      <trkpt lat="48.60613" lon="-0.52473">
        <ele>273.609939</ele>
        <time>2021-09-06T09:11:56.000Z</time>
      </trkpt>
      <trkpt lat="48.60571" lon="-0.52478">
        <ele>271.030044</ele>
        <time>2021-09-06T09:12:00.000Z</time>
      </trkpt>
      <trkpt lat="48.60517" lon="-0.52487">
        <ele>267.927727</ele>
        <time>2021-09-06T09:12:05.000Z</time>
      </trkpt>
      <trkpt lat="48.60493" lon="-0.52487">
        <ele>266.637277</ele>
        <time>2021-09-06T09:12:07.000Z</time>
      </trkpt>
      <trkpt lat="48.6047" lon="-0.52484">
        <ele>265.333834</ele>
        <time>2021-09-06T09:12:09.000Z</time>
      </trkpt>
      <trkpt lat="48.60459" lon="-0.5248">
        <ele>264.689985</ele>
        <time>2021-09-06T09:12:10.000Z</time>
      </trkpt>
      <trkpt lat="48.60438" lon="-0.52467">
        <ele>263.442371</ele>
        <time>2021-09-06T09:12:12.000Z</time>
      </trkpt>
      <trkpt lat="48.60419" lon="-0.52448">
        <ele>262.182676</ele>
        <time>2021-09-06T09:12:14.000Z</time>
      </trkpt>
      <trkpt lat="48.60411" lon="-0.52436">
        <ele>261.546834</ele>
        <time>2021-09-06T09:12:15.000Z</time>
      </trkpt>
      <trkpt lat="48.60404" lon="-0.52422">
        <ele>260.903962</ele>
        <time>2021-09-06T09:12:16.000Z</time>
      </trkpt>
      <trkpt lat="48.60393" lon="-0.52392">
        <ele>259.529799</ele>
        <time>2021-09-06T09:12:18.000Z</time>
      </trkpt>
      <trkpt lat="48.6039" lon="-0.52377">
        <ele>258.8365</ele>
        <time>2021-09-06T09:12:19.000Z</time>
      </trkpt>
      <trkpt lat="48.60386" lon="-0.52345">
        <ele>257.449183</ele>
        <time>2021-09-06T09:12:21.000Z</time>
      </trkpt>
      <trkpt lat="48.60379" lon="-0.52282">
        <ele>254.733399</ele>
        <time>2021-09-06T09:12:25.000Z</time>
      </trkpt>
      <trkpt lat="48.60376" lon="-0.52267">
        <ele>254.072191</ele>
        <time>2021-09-06T09:12:26.000Z</time>
      </trkpt>
      <trkpt lat="48.60357" lon="-0.52214">
        <ele>251.492351</ele>
        <time>2021-09-06T09:12:30.000Z</time>
      </trkpt>
      <trkpt lat="48.60352" lon="-0.52186">
        <ele>250.239149</ele>
        <time>2021-09-06T09:12:32.000Z</time>
      </trkpt>
      <trkpt lat="48.60352" lon="-0.5217">
        <ele>249.596237</ele>
        <time>2021-09-06T09:12:33.000Z</time>
      </trkpt>
      <trkpt lat="48.60352" lon="-0.52122">
        <ele>247.087422</ele>
        <time>2021-09-06T09:12:36.000Z</time>
      </trkpt>
      <trkpt lat="48.60348" lon="-0.52108">
        <ele>246.201595</ele>
        <time>2021-09-06T09:12:37.000Z</time>
      </trkpt>
      <trkpt lat="48.60342" lon="-0.52097">
        <ele>245.406032</ele>
        <time>2021-09-06T09:12:38.000Z</time>
      </trkpt>
      <trkpt lat="48.60334" lon="-0.52092">
        <ele>244.683053</ele>
        <time>2021-09-06T09:12:39.000Z</time>
      </trkpt>
      <trkpt lat="48.60327" lon="-0.52093">
        <ele>244.051055</ele>
        <time>2021-09-06T09:12:40.000Z</time>
      </trkpt>
      <trkpt lat="48.6032" lon="-0.52096">
        <ele>243.449459</ele>
        <time>2021-09-06T09:12:41.000Z</time>
      </trkpt>
      <trkpt lat="48.60315" lon="-0.52101">
        <ele>242.914816</ele>
        <time>2021-09-06T09:12:42.000Z</time>
      </trkpt>
      <trkpt lat="48.60309" lon="-0.52111">
        <ele>242.081605</ele>
        <time>2021-09-06T09:12:44.000Z</time>
      </trkpt>
      <trkpt lat="48.60296" lon="-0.52135">
        <ele>240.330403</ele>
        <time>2021-09-06T09:12:49.000Z</time>
      </trkpt>
      <trkpt lat="48.60286" lon="-0.52144">
        <ele>239.309996</ele>
        <time>2021-09-06T09:12:54.000Z</time>
      </trkpt>
      <trkpt lat="48.60274" lon="-0.52145">
        <ele>238.331641</ele>
        <time>2021-09-06T09:12:59.000Z</time>
      </trkpt>
      <trkpt lat="48.60271" lon="-0.52143">
        <ele>237.995683</ele>
        <time>2021-09-06T09:13:01.000Z</time>
      </trkpt>
      <trkpt lat="48.60268" lon="-0.52141">
        <ele>237.734999</ele>
        <time>2021-09-06T09:13:03.000Z</time>
      </trkpt>
      <trkpt lat="48.60262" lon="-0.52136">
        <ele>237.103511</ele>
        <time>2021-09-06T09:13:07.000Z</time>
      </trkpt>
      <trkpt lat="48.60252" lon="-0.52128">
        <ele>236.17639</ele>
        <time>2021-09-06T09:13:12.000Z</time>
      </trkpt>
      <trkpt lat="48.60249" lon="-0.52124">
        <ele>235.837125</ele>
        <time>2021-09-06T09:13:14.000Z</time>
      </trkpt>
      <trkpt lat="48.60245" lon="-0.52122">
        <ele>235.484032</ele>
        <time>2021-09-06T09:13:16.000Z</time>
      </trkpt>
      <trkpt lat="48.60235" lon="-0.52111">
        <ele>234.39932</ele>
        <time>2021-09-06T09:13:23.000Z</time>
      </trkpt>
      <trkpt lat="48.60231" lon="-0.52108">
        <ele>234.014558</ele>
        <time>2021-09-06T09:13:26.000Z</time>
      </trkpt>
      <trkpt lat="48.60229" lon="-0.52108">
        <ele>233.858675</ele>
        <time>2021-09-06T09:13:27.000Z</time>
      </trkpt>
      <trkpt lat="48.60227" lon="-0.52108">
        <ele>233.708795</ele>
        <time>2021-09-06T09:13:28.000Z</time>
      </trkpt>
      <trkpt lat="48.60224" lon="-0.52102">
        <ele>233.303334</ele>
        <time>2021-09-06T09:13:31.000Z</time>
      </trkpt>
      <trkpt lat="48.6022" lon="-0.52096">
        <ele>233.531859</ele>
        <time>2021-09-06T09:13:34.000Z</time>
      </trkpt>
      <trkpt lat="48.60216" lon="-0.5209">
        <ele>233.773671</ele>
        <time>2021-09-06T09:13:37.000Z</time>
      </trkpt>
      <trkpt lat="48.60214" lon="-0.52088">
        <ele>233.862364</ele>
        <time>2021-09-06T09:13:38.000Z</time>
      </trkpt>
      <trkpt lat="48.6021" lon="-0.52082">
        <ele>234.099238</ele>
        <time>2021-09-06T09:13:41.000Z</time>
      </trkpt>
      <trkpt lat="48.60202" lon="-0.52075">
        <ele>234.481502</ele>
        <time>2021-09-06T09:13:46.000Z</time>
      </trkpt>
      <trkpt lat="48.60192" lon="-0.52063">
        <ele>234.987188</ele>
        <time>2021-09-06T09:13:53.000Z</time>
      </trkpt>
      <trkpt lat="48.60185" lon="-0.52052">
        <ele>235.407105</ele>
        <time>2021-09-06T09:13:59.000Z</time>
      </trkpt>
      <trkpt lat="48.60172" lon="-0.5204">
        <ele>236.015816</ele>
        <time>2021-09-06T09:14:07.000Z</time>
      </trkpt>
      <trkpt lat="48.60169" lon="-0.52038">
        <ele>236.147689</ele>
        <time>2021-09-06T09:14:09.000Z</time>
      </trkpt>
      <trkpt lat="48.60163" lon="-0.52033">
        <ele>236.438968</ele>
        <time>2021-09-06T09:14:13.000Z</time>
      </trkpt>
      <trkpt lat="48.60154" lon="-0.52025">
        <ele>236.891168</ele>
        <time>2021-09-06T09:14:19.000Z</time>
      </trkpt>
      <trkpt lat="48.60152" lon="-0.52024">
        <ele>236.956403</ele>
        <time>2021-09-06T09:14:20.000Z</time>
      </trkpt>
      <trkpt lat="48.6015" lon="-0.52021">
        <ele>237.087634</ele>
        <time>2021-09-06T09:14:22.000Z</time>
      </trkpt>
      <trkpt lat="48.60147" lon="-0.52014">
        <ele>237.298329</ele>
        <time>2021-09-06T09:14:25.000Z</time>
      </trkpt>
      <trkpt lat="48.60136" lon="-0.52003">
        <ele>237.854204</ele>
        <time>2021-09-06T09:14:32.000Z</time>
      </trkpt>
      <trkpt lat="48.6013" lon="-0.51994">
        <ele>238.194619</ele>
        <time>2021-09-06T09:14:37.000Z</time>
      </trkpt>
      <trkpt lat="48.60128" lon="-0.51992">
        <ele>238.309374</ele>
        <time>2021-09-06T09:14:40.000Z</time>
      </trkpt>
      <trkpt lat="48.60122" lon="-0.51984">
        <ele>238.638754</ele>
        <time>2021-09-06T09:14:45.000Z</time>
      </trkpt>
      <trkpt lat="48.6012" lon="-0.51976">
        <ele>238.861659</ele>
        <time>2021-09-06T09:14:48.000Z</time>
      </trkpt>
      <trkpt lat="48.60118" lon="-0.51971">
        <ele>239.023255</ele>
        <time>2021-09-06T09:14:50.000Z</time>
      </trkpt>
      <trkpt lat="48.6011" lon="-0.5196">
        <ele>239.462196</ele>
        <time>2021-09-06T09:14:56.000Z</time>
      </trkpt>
      <trkpt lat="48.60104" lon="-0.51949">
        <ele>239.852308</ele>
        <time>2021-09-06T09:15:00.000Z</time>
      </trkpt>
      <trkpt lat="48.60102" lon="-0.51946">
        <ele>239.957416</ele>
        <time>2021-09-06T09:15:01.000Z</time>
      </trkpt>
      <trkpt lat="48.60096" lon="-0.51929">
        <ele>240.483593</ele>
        <time>2021-09-06T09:15:06.000Z</time>
      </trkpt>
      <trkpt lat="48.60087" lon="-0.51912">
        <ele>241.235484</ele>
        <time>2021-09-06T09:15:14.000Z</time>
      </trkpt>
      <trkpt lat="48.6008" lon="-0.51899">
        <ele>241.887442</ele>
        <time>2021-09-06T09:15:20.000Z</time>
      </trkpt>
      <trkpt lat="48.60072" lon="-0.51883">
        <ele>242.633628</ele>
        <time>2021-09-06T09:15:26.000Z</time>
      </trkpt>
      <trkpt lat="48.60063" lon="-0.51866">
        <ele>243.49407</ele>
        <time>2021-09-06T09:15:33.000Z</time>
      </trkpt>
      <trkpt lat="48.60055" lon="-0.51847">
        <ele>244.351586</ele>
        <time>2021-09-06T09:15:41.000Z</time>
      </trkpt>
      <trkpt lat="48.60051" lon="-0.51834">
        <ele>244.889385</ele>
        <time>2021-09-06T09:15:46.000Z</time>
      </trkpt>
      <trkpt lat="48.6005" lon="-0.5183">
        <ele>245.046614</ele>
        <time>2021-09-06T09:15:47.000Z</time>
      </trkpt>
      <trkpt lat="48.60042" lon="-0.51816">
        <ele>245.78307</ele>
        <time>2021-09-06T09:15:53.000Z</time>
      </trkpt>
      <trkpt lat="48.60033" lon="-0.51799">
        <ele>246.592897</ele>
        <time>2021-09-06T09:15:59.000Z</time>
      </trkpt>
      <trkpt lat="48.60027" lon="-0.51781">
        <ele>247.35419</ele>
        <time>2021-09-06T09:16:04.000Z</time>
      </trkpt>
      <trkpt lat="48.60015" lon="-0.51757">
        <ele>248.512969</ele>
        <time>2021-09-06T09:16:11.000Z</time>
      </trkpt>
      <trkpt lat="48.60008" lon="-0.5174">
        <ele>249.266266</ele>
        <time>2021-09-06T09:16:16.000Z</time>
      </trkpt>
      <trkpt lat="48.59998" lon="-0.51718">
        <ele>250.289201</ele>
        <time>2021-09-06T09:16:21.000Z</time>
      </trkpt>
      <trkpt lat="48.59983" lon="-0.51695">
        <ele>251.007081</ele>
        <time>2021-09-06T09:16:27.000Z</time>
      </trkpt>
      <trkpt lat="48.59978" lon="-0.51686">
        <ele>250.997135</ele>
        <time>2021-09-06T09:16:29.000Z</time>
      </trkpt>
      <trkpt lat="48.59973" lon="-0.51675">
        <ele>250.986326</ele>
        <time>2021-09-06T09:16:31.000Z</time>
      </trkpt>
      <trkpt lat="48.59971" lon="-0.51669">
        <ele>250.980184</ele>
        <time>2021-09-06T09:16:32.000Z</time>
      </trkpt>
      <trkpt lat="48.59962" lon="-0.51649">
        <ele>250.959934</ele>
        <time>2021-09-06T09:16:35.000Z</time>
      </trkpt>
      <trkpt lat="48.59943" lon="-0.51606">
        <ele>250.917942</ele>
        <time>2021-09-06T09:16:40.000Z</time>
      </trkpt>
      <trkpt lat="48.59918" lon="-0.51555">
        <ele>250.865275</ele>
        <time>2021-09-06T09:16:45.000Z</time>
      </trkpt>
      <trkpt lat="48.59883" lon="-0.5148">
        <ele>250.704852</ele>
        <time>2021-09-06T09:16:51.000Z</time>
      </trkpt>
      <trkpt lat="48.59848" lon="-0.5141">
        <ele>248.658674</ele>
        <time>2021-09-06T09:16:56.000Z</time>
      </trkpt>
      <trkpt lat="48.59842" lon="-0.51396">
        <ele>248.250511</ele>
        <time>2021-09-06T09:16:57.000Z</time>
      </trkpt>
      <trkpt lat="48.59808" lon="-0.51323">
        <ele>246.16447</ele>
        <time>2021-09-06T09:17:02.000Z</time>
      </trkpt>
      <trkpt lat="48.59784" lon="-0.51269">
        <ele>244.651039</ele>
        <time>2021-09-06T09:17:06.000Z</time>
      </trkpt>
      <trkpt lat="48.59766" lon="-0.51233">
        <ele>243.589742</ele>
        <time>2021-09-06T09:17:10.000Z</time>
      </trkpt>
      <trkpt lat="48.59762" lon="-0.51225">
        <ele>243.365399</ele>
        <time>2021-09-06T09:17:11.000Z</time>
      </trkpt>
      <trkpt lat="48.59754" lon="-0.51204">
        <ele>242.788306</ele>
        <time>2021-09-06T09:17:14.000Z</time>
      </trkpt>
      <trkpt lat="48.5974" lon="-0.51175">
        <ele>241.950008</ele>
        <time>2021-09-06T09:17:20.000Z</time>
      </trkpt>
      <trkpt lat="48.59731" lon="-0.51157">
        <ele>241.421664</ele>
        <time>2021-09-06T09:17:25.000Z</time>
      </trkpt>
      <trkpt lat="48.59723" lon="-0.51142">
        <ele>240.97627</ele>
        <time>2021-09-06T09:17:30.000Z</time>
      </trkpt>
      <trkpt lat="48.59714" lon="-0.51124">
        <ele>240.449129</ele>
        <time>2021-09-06T09:17:36.000Z</time>
      </trkpt>
      <trkpt lat="48.59707" lon="-0.51111">
        <ele>240.048513</ele>
        <time>2021-09-06T09:17:41.000Z</time>
      </trkpt>
      <trkpt lat="48.59706" lon="-0.51108">
        <ele>239.96078</ele>
        <time>2021-09-06T09:17:42.000Z</time>
      </trkpt>
      <trkpt lat="48.59698" lon="-0.51097">
        <ele>239.581255</ele>
        <time>2021-09-06T09:17:46.000Z</time>
      </trkpt>
      <trkpt lat="48.59692" lon="-0.51087">
        <ele>239.287921</ele>
        <time>2021-09-06T09:17:50.000Z</time>
      </trkpt>
      <trkpt lat="48.59691" lon="-0.51081">
        <ele>239.123223</ele>
        <time>2021-09-06T09:17:52.000Z</time>
      </trkpt>
      <trkpt lat="48.59688" lon="-0.51077">
        <ele>238.986328</ele>
        <time>2021-09-06T09:17:54.000Z</time>
      </trkpt>
      <trkpt lat="48.59687" lon="-0.51075">
        <ele>238.933154</ele>
        <time>2021-09-06T09:17:55.000Z</time>
      </trkpt>
      <trkpt lat="48.59678" lon="-0.51062">
        <ele>238.49842</ele>
        <time>2021-09-06T09:18:00.000Z</time>
      </trkpt>
      <trkpt lat="48.59669" lon="-0.51044">
        <ele>238.10536</ele>
        <time>2021-09-06T09:18:06.000Z</time>
      </trkpt>
      <trkpt lat="48.59661" lon="-0.51024">
        <ele>238.332662</ele>
        <time>2021-09-06T09:18:12.000Z</time>
      </trkpt>
      <trkpt lat="48.59653" lon="-0.51007">
        <ele>238.524775</ele>
        <time>2021-09-06T09:18:18.000Z</time>
      </trkpt>
      <trkpt lat="48.59644" lon="-0.50985">
        <ele>238.768568</ele>
        <time>2021-09-06T09:18:24.000Z</time>
      </trkpt>
      <trkpt lat="48.59634" lon="-0.50959">
        <ele>239.045704</ele>
        <time>2021-09-06T09:18:30.000Z</time>
      </trkpt>
      <trkpt lat="48.59625" lon="-0.50943">
        <ele>239.247823</ele>
        <time>2021-09-06T09:18:35.000Z</time>
      </trkpt>
      <trkpt lat="48.59618" lon="-0.50931">
        <ele>239.401311</ele>
        <time>2021-09-06T09:18:39.000Z</time>
      </trkpt>
      <trkpt lat="48.59615" lon="-0.50926">
        <ele>239.463596</ele>
        <time>2021-09-06T09:18:41.000Z</time>
      </trkpt>
      <trkpt lat="48.59612" lon="-0.50917">
        <ele>239.552255</ele>
        <time>2021-09-06T09:18:43.000Z</time>
      </trkpt>
      <trkpt lat="48.59601" lon="-0.50889">
        <ele>239.859507</ele>
        <time>2021-09-06T09:18:49.000Z</time>
      </trkpt>
      <trkpt lat="48.59593" lon="-0.50871">
        <ele>240.063314</ele>
        <time>2021-09-06T09:18:54.000Z</time>
      </trkpt>
      <trkpt lat="48.59584" lon="-0.50844">
        <ele>240.344073</ele>
        <time>2021-09-06T09:18:59.000Z</time>
      </trkpt>
      <trkpt lat="48.59574" lon="-0.50816">
        <ele>240.65857</ele>
        <time>2021-09-06T09:19:04.000Z</time>
      </trkpt>
      <trkpt lat="48.59554" lon="-0.50779">
        <ele>241.300951</ele>
        <time>2021-09-06T09:19:11.000Z</time>
      </trkpt>
      <trkpt lat="48.59541" lon="-0.50755">
        <ele>241.711823</ele>
        <time>2021-09-06T09:19:16.000Z</time>
      </trkpt>
      <trkpt lat="48.59528" lon="-0.50731">
        <ele>242.13877</ele>
        <time>2021-09-06T09:19:22.000Z</time>
      </trkpt>
      <trkpt lat="48.59519" lon="-0.50711">
        <ele>242.464793</ele>
        <time>2021-09-06T09:19:28.000Z</time>
      </trkpt>
      <trkpt lat="48.59512" lon="-0.50693">
        <ele>242.746362</ele>
        <time>2021-09-06T09:19:33.000Z</time>
      </trkpt>
      <trkpt lat="48.59499" lon="-0.50668">
        <ele>243.167608</ele>
        <time>2021-09-06T09:19:39.000Z</time>
      </trkpt>
      <trkpt lat="48.59487" lon="-0.50644">
        <ele>243.567353</ele>
        <time>2021-09-06T09:19:46.000Z</time>
      </trkpt>
      <trkpt lat="48.5948" lon="-0.5063">
        <ele>243.815995</ele>
        <time>2021-09-06T09:19:51.000Z</time>
      </trkpt>
      <trkpt lat="48.59472" lon="-0.50613">
        <ele>244.100245</ele>
        <time>2021-09-06T09:19:56.000Z</time>
      </trkpt>
      <trkpt lat="48.59464" lon="-0.50595">
        <ele>244.481428</ele>
        <time>2021-09-06T09:20:01.000Z</time>
      </trkpt>
      <trkpt lat="48.59456" lon="-0.5058">
        <ele>244.934283</ele>
        <time>2021-09-06T09:20:06.000Z</time>
      </trkpt>
      <trkpt lat="48.59446" lon="-0.50559">
        <ele>245.552995</ele>
        <time>2021-09-06T09:20:12.000Z</time>
      </trkpt>
      <trkpt lat="48.59438" lon="-0.50538">
        <ele>246.129688</ele>
        <time>2021-09-06T09:20:17.000Z</time>
      </trkpt>
      <trkpt lat="48.5943" lon="-0.50524">
        <ele>246.581515</ele>
        <time>2021-09-06T09:20:22.000Z</time>
      </trkpt>
      <trkpt lat="48.5942" lon="-0.50506">
        <ele>247.165363</ele>
        <time>2021-09-06T09:20:27.000Z</time>
      </trkpt>
      <trkpt lat="48.59409" lon="-0.50481">
        <ele>247.872392</ele>
        <time>2021-09-06T09:20:33.000Z</time>
      </trkpt>
      <trkpt lat="48.59397" lon="-0.50451">
        <ele>248.732894</ele>
        <time>2021-09-06T09:20:40.000Z</time>
      </trkpt>
      <trkpt lat="48.59384" lon="-0.50426">
        <ele>249.487564</ele>
        <time>2021-09-06T09:20:47.000Z</time>
      </trkpt>
      <trkpt lat="48.59378" lon="-0.5041">
        <ele>249.935403</ele>
        <time>2021-09-06T09:20:51.000Z</time>
      </trkpt>
      <trkpt lat="48.59364" lon="-0.50377">
        <ele>250.878337</ele>
        <time>2021-09-06T09:20:59.000Z</time>
      </trkpt>
      <trkpt lat="48.59349" lon="-0.50346">
        <ele>251.567496</ele>
        <time>2021-09-06T09:21:07.000Z</time>
      </trkpt>
      <trkpt lat="48.59337" lon="-0.50318">
        <ele>252.162048</ele>
        <time>2021-09-06T09:21:14.000Z</time>
      </trkpt>
      <trkpt lat="48.59324" lon="-0.50291">
        <ele>252.771731</ele>
        <time>2021-09-06T09:21:21.000Z</time>
      </trkpt>
      <trkpt lat="48.59313" lon="-0.50265">
        <ele>253.33023</ele>
        <time>2021-09-06T09:21:28.000Z</time>
      </trkpt>
      <trkpt lat="48.59304" lon="-0.50244">
        <ele>253.778137</ele>
        <time>2021-09-06T09:21:33.000Z</time>
      </trkpt>
      <trkpt lat="48.59291" lon="-0.50214">
        <ele>254.417679</ele>
        <time>2021-09-06T09:21:40.000Z</time>
      </trkpt>
      <trkpt lat="48.59281" lon="-0.5019">
        <ele>254.935615</ele>
        <time>2021-09-06T09:21:46.000Z</time>
      </trkpt>
      <trkpt lat="48.59268" lon="-0.50158">
        <ele>255.60979</ele>
        <time>2021-09-06T09:21:53.000Z</time>
      </trkpt>
      <trkpt lat="48.59256" lon="-0.50131">
        <ele>256.160125</ele>
        <time>2021-09-06T09:21:59.000Z</time>
      </trkpt>
      <trkpt lat="48.59244" lon="-0.50105">
        <ele>256.727382</ele>
        <time>2021-09-06T09:22:05.000Z</time>
      </trkpt>
      <trkpt lat="48.59236" lon="-0.50085">
        <ele>257.10964</ele>
        <time>2021-09-06T09:22:09.000Z</time>
      </trkpt>
      <trkpt lat="48.59229" lon="-0.50063">
        <ele>257.542887</ele>
        <time>2021-09-06T09:22:14.000Z</time>
      </trkpt>
      <trkpt lat="48.59221" lon="-0.50045">
        <ele>257.918954</ele>
        <time>2021-09-06T09:22:18.000Z</time>
      </trkpt>
      <trkpt lat="48.59214" lon="-0.50027">
        <ele>258.27493</ele>
        <time>2021-09-06T09:22:22.000Z</time>
      </trkpt>
      <trkpt lat="48.59204" lon="-0.50006">
        <ele>258.717058</ele>
        <time>2021-09-06T09:22:27.000Z</time>
      </trkpt>
      <trkpt lat="48.59193" lon="-0.49978">
        <ele>259.279967</ele>
        <time>2021-09-06T09:22:33.000Z</time>
      </trkpt>
      <trkpt lat="48.59184" lon="-0.49959">
        <ele>259.680452</ele>
        <time>2021-09-06T09:22:37.000Z</time>
      </trkpt>
      <trkpt lat="48.59175" lon="-0.49933">
        <ele>260.182411</ele>
        <time>2021-09-06T09:22:42.000Z</time>
      </trkpt>
      <trkpt lat="48.59167" lon="-0.49914">
        <ele>260.535421</ele>
        <time>2021-09-06T09:22:46.000Z</time>
      </trkpt>
      <trkpt lat="48.59162" lon="-0.49902">
        <ele>260.736215</ele>
        <time>2021-09-06T09:22:49.000Z</time>
      </trkpt>
      <trkpt lat="48.59154" lon="-0.49881">
        <ele>261.070125</ele>
        <time>2021-09-06T09:22:53.000Z</time>
      </trkpt>
      <trkpt lat="48.59142" lon="-0.4985">
        <ele>261.56156</ele>
        <time>2021-09-06T09:22:59.000Z</time>
      </trkpt>
      <trkpt lat="48.59132" lon="-0.49831">
        <ele>261.874881</ele>
        <time>2021-09-06T09:23:03.000Z</time>
      </trkpt>
      <trkpt lat="48.5912" lon="-0.49802">
        <ele>262.350753</ele>
        <time>2021-09-06T09:23:08.000Z</time>
      </trkpt>
      <trkpt lat="48.5911" lon="-0.49776">
        <ele>262.753236</ele>
        <time>2021-09-06T09:23:12.000Z</time>
      </trkpt>
      <trkpt lat="48.591" lon="-0.49757">
        <ele>263.082863</ele>
        <time>2021-09-06T09:23:15.000Z</time>
      </trkpt>
      <trkpt lat="48.59089" lon="-0.49738">
        <ele>263.41973</ele>
        <time>2021-09-06T09:23:18.000Z</time>
      </trkpt>
      <trkpt lat="48.59076" lon="-0.49702">
        <ele>263.979518</ele>
        <time>2021-09-06T09:23:23.000Z</time>
      </trkpt>
      <trkpt lat="48.59068" lon="-0.4968">
        <ele>264.241162</ele>
        <time>2021-09-06T09:23:26.000Z</time>
      </trkpt>
      <trkpt lat="48.59065" lon="-0.49673">
        <ele>264.303739</ele>
        <time>2021-09-06T09:23:27.000Z</time>
      </trkpt>
      <trkpt lat="48.59059" lon="-0.4966">
        <ele>264.424936</ele>
        <time>2021-09-06T09:23:29.000Z</time>
      </trkpt>
      <trkpt lat="48.59055" lon="-0.49647">
        <ele>264.541931</ele>
        <time>2021-09-06T09:23:31.000Z</time>
      </trkpt>
      <trkpt lat="48.59051" lon="-0.4964">
        <ele>264.605327</ele>
        <time>2021-09-06T09:23:32.000Z</time>
      </trkpt>
      <trkpt lat="48.59043" lon="-0.49622">
        <ele>264.782661</ele>
        <time>2021-09-06T09:23:35.000Z</time>
      </trkpt>
      <trkpt lat="48.5904" lon="-0.49616">
        <ele>264.843268</ele>
        <time>2021-09-06T09:23:36.000Z</time>
      </trkpt>
      <trkpt lat="48.59031" lon="-0.49597">
        <ele>265.020023</ele>
        <time>2021-09-06T09:23:39.000Z</time>
      </trkpt>
      <trkpt lat="48.59029" lon="-0.49589">
        <ele>265.089606</ele>
        <time>2021-09-06T09:23:40.000Z</time>
      </trkpt>
      <trkpt lat="48.59022" lon="-0.49565">
        <ele>265.295482</ele>
        <time>2021-09-06T09:23:43.000Z</time>
      </trkpt>
      <trkpt lat="48.59014" lon="-0.49545">
        <ele>265.473577</ele>
        <time>2021-09-06T09:23:46.000Z</time>
      </trkpt>
      <trkpt lat="48.59008" lon="-0.49532">
        <ele>265.59806</ele>
        <time>2021-09-06T09:23:48.000Z</time>
      </trkpt>
      <trkpt lat="48.59003" lon="-0.49521">
        <ele>265.702366</ele>
        <time>2021-09-06T09:23:50.000Z</time>
      </trkpt>
      <trkpt lat="48.59" lon="-0.49516">
        <ele>265.756505</ele>
        <time>2021-09-06T09:23:51.000Z</time>
      </trkpt>
      <trkpt lat="48.58991" lon="-0.49495">
        <ele>265.950738</ele>
        <time>2021-09-06T09:23:55.000Z</time>
      </trkpt>
      <trkpt lat="48.58989" lon="-0.49487">
        <ele>266.022485</ele>
        <time>2021-09-06T09:23:56.000Z</time>
      </trkpt>
      <trkpt lat="48.58981" lon="-0.49466">
        <ele>266.203266</ele>
        <time>2021-09-06T09:23:59.000Z</time>
      </trkpt>
      <trkpt lat="48.58966" lon="-0.49432">
        <ele>266.290511</ele>
        <time>2021-09-06T09:24:04.000Z</time>
      </trkpt>
      <trkpt lat="48.58947" lon="-0.4939">
        <ele>266.349105</ele>
        <time>2021-09-06T09:24:10.000Z</time>
      </trkpt>
      <trkpt lat="48.58941" lon="-0.49377">
        <ele>266.367745</ele>
        <time>2021-09-06T09:24:12.000Z</time>
      </trkpt>
      <trkpt lat="48.58935" lon="-0.49363">
        <ele>266.38705</ele>
        <time>2021-09-06T09:24:14.000Z</time>
      </trkpt>
      <trkpt lat="48.58916" lon="-0.49319">
        <ele>266.448575</ele>
        <time>2021-09-06T09:24:20.000Z</time>
      </trkpt>
      <trkpt lat="48.589" lon="-0.49274">
        <ele>266.508702</ele>
        <time>2021-09-06T09:24:26.000Z</time>
      </trkpt>
      <trkpt lat="48.58892" lon="-0.49256">
        <ele>266.534831</ele>
        <time>2021-09-06T09:24:29.000Z</time>
      </trkpt>
      <trkpt lat="48.58884" lon="-0.49238">
        <ele>266.559012</ele>
        <time>2021-09-06T09:24:32.000Z</time>
      </trkpt>
      <trkpt lat="48.58877" lon="-0.49221">
        <ele>266.37662</ele>
        <time>2021-09-06T09:24:35.000Z</time>
      </trkpt>
      <trkpt lat="48.5887" lon="-0.49206">
        <ele>266.119645</ele>
        <time>2021-09-06T09:24:38.000Z</time>
      </trkpt>
      <trkpt lat="48.58858" lon="-0.49175">
        <ele>265.63129</ele>
        <time>2021-09-06T09:24:44.000Z</time>
      </trkpt>
      <trkpt lat="48.5885" lon="-0.49159">
        <ele>265.367457</ele>
        <time>2021-09-06T09:24:47.000Z</time>
      </trkpt>
      <trkpt lat="48.58845" lon="-0.49148">
        <ele>265.180648</ele>
        <time>2021-09-06T09:24:49.000Z</time>
      </trkpt>
      <trkpt lat="48.58843" lon="-0.49142">
        <ele>265.090038</ele>
        <time>2021-09-06T09:24:50.000Z</time>
      </trkpt>
      <trkpt lat="48.5883" lon="-0.49113">
        <ele>264.622577</ele>
        <time>2021-09-06T09:24:55.000Z</time>
      </trkpt>
      <trkpt lat="48.58811" lon="-0.49074">
        <ele>263.966219</ele>
        <time>2021-09-06T09:25:02.000Z</time>
      </trkpt>
      <trkpt lat="48.58809" lon="-0.49068">
        <ele>263.86349</ele>
        <time>2021-09-06T09:25:03.000Z</time>
      </trkpt>
      <trkpt lat="48.58808" lon="-0.49052">
        <ele>263.648718</ele>
        <time>2021-09-06T09:25:05.000Z</time>
      </trkpt>
      <trkpt lat="48.58809" lon="-0.49045">
        <ele>263.547945</ele>
        <time>2021-09-06T09:25:06.000Z</time>
      </trkpt>
      <trkpt lat="48.5881" lon="-0.49038">
        <ele>263.452436</ele>
        <time>2021-09-06T09:25:07.000Z</time>
      </trkpt>
      <trkpt lat="48.58817" lon="-0.49017">
        <ele>263.137034</ele>
        <time>2021-09-06T09:25:11.000Z</time>
      </trkpt>
      <trkpt lat="48.58817" lon="-0.48992">
        <ele>262.803763</ele>
        <time>2021-09-06T09:25:16.000Z</time>
      </trkpt>
      <trkpt lat="48.58811" lon="-0.48976">
        <ele>262.566926</ele>
        <time>2021-09-06T09:25:20.000Z</time>
      </trkpt>
      <trkpt lat="48.5881" lon="-0.48973">
        <ele>262.517175</ele>
        <time>2021-09-06T09:25:23.000Z</time>
      </trkpt>
      <trkpt lat="48.58806" lon="-0.48973">
        <ele>262.453104</ele>
        <time>2021-09-06T09:26:12.000Z</time>
      </trkpt>
      <trkpt lat="48.588" lon="-0.48975">
        <ele>262.333543</ele>
        <time>2021-09-06T09:26:15.000Z</time>
      </trkpt>
      <trkpt lat="48.58783" lon="-0.48977">
        <ele>261.988903</ele>
        <time>2021-09-06T09:26:22.000Z</time>
      </trkpt>
      <trkpt lat="48.58768" lon="-0.48978">
        <ele>261.690849</ele>
        <time>2021-09-06T09:26:26.000Z</time>
      </trkpt>
      <trkpt lat="48.58764" lon="-0.48977">
        <ele>261.598156</ele>
        <time>2021-09-06T09:26:27.000Z</time>
      </trkpt>
      <trkpt lat="48.58754" lon="-0.48975">
        <ele>261.408968</ele>
        <time>2021-09-06T09:26:29.000Z</time>
      </trkpt>
      <trkpt lat="48.58746" lon="-0.48967">
        <ele>261.204782</ele>
        <time>2021-09-06T09:26:31.000Z</time>
      </trkpt>
      <trkpt lat="48.5874" lon="-0.48952">
        <ele>260.976448</ele>
        <time>2021-09-06T09:26:33.000Z</time>
      </trkpt>
      <trkpt lat="48.58738" lon="-0.48944">
        <ele>260.85888</ele>
        <time>2021-09-06T09:26:34.000Z</time>
      </trkpt>
      <trkpt lat="48.58737" lon="-0.48925">
        <ele>260.612735</ele>
        <time>2021-09-06T09:26:36.000Z</time>
      </trkpt>
      <trkpt lat="48.58734" lon="-0.48898">
        <ele>260.24232</ele>
        <time>2021-09-06T09:26:39.000Z</time>
      </trkpt>
      <trkpt lat="48.5872" lon="-0.48855">
        <ele>259.607008</ele>
        <time>2021-09-06T09:26:44.000Z</time>
      </trkpt>
      <trkpt lat="48.58702" lon="-0.48815">
        <ele>259.03203</ele>
        <time>2021-09-06T09:26:49.000Z</time>
      </trkpt>
      <trkpt lat="48.58674" lon="-0.48747">
        <ele>258.173566</ele>
        <time>2021-09-06T09:26:57.000Z</time>
      </trkpt>
      <trkpt lat="48.58651" lon="-0.48692">
        <ele>257.477781</ele>
        <time>2021-09-06T09:27:03.000Z</time>
      </trkpt>
      <trkpt lat="48.58621" lon="-0.4862">
        <ele>256.56441</ele>
        <time>2021-09-06T09:27:10.000Z</time>
      </trkpt>
      <trkpt lat="48.58617" lon="-0.4861">
        <ele>256.431876</ele>
        <time>2021-09-06T09:27:11.000Z</time>
      </trkpt>
      <trkpt lat="48.58591" lon="-0.48548">
        <ele>255.555412</ele>
        <time>2021-09-06T09:27:17.000Z</time>
      </trkpt>
      <trkpt lat="48.5856" lon="-0.4847">
        <ele>254.458028</ele>
        <time>2021-09-06T09:27:24.000Z</time>
      </trkpt>
      <trkpt lat="48.58531" lon="-0.484">
        <ele>253.467486</ele>
        <time>2021-09-06T09:27:30.000Z</time>
      </trkpt>
      <trkpt lat="48.58521" lon="-0.48376">
        <ele>253.126018</ele>
        <time>2021-09-06T09:27:32.000Z</time>
      </trkpt>
      <trkpt lat="48.58491" lon="-0.48305">
        <ele>252.205615</ele>
        <time>2021-09-06T09:27:38.000Z</time>
      </trkpt>
      <trkpt lat="48.58486" lon="-0.48294">
        <ele>252.057107</ele>
        <time>2021-09-06T09:27:39.000Z</time>
      </trkpt>
      <trkpt lat="48.58464" lon="-0.48242">
        <ele>251.380573</ele>
        <time>2021-09-06T09:27:44.000Z</time>
      </trkpt>
      <trkpt lat="48.58442" lon="-0.48195">
        <ele>250.756719</ele>
        <time>2021-09-06T09:27:49.000Z</time>
      </trkpt>
      <trkpt lat="48.58417" lon="-0.48134">
        <ele>249.925045</ele>
        <time>2021-09-06T09:27:55.000Z</time>
      </trkpt>
      <trkpt lat="48.58395" lon="-0.48077">
        <ele>248.979284</ele>
        <time>2021-09-06T09:28:00.000Z</time>
      </trkpt>
      <trkpt lat="48.58362" lon="-0.47997">
        <ele>247.644335</ele>
        <time>2021-09-06T09:28:07.000Z</time>
      </trkpt>
      <trkpt lat="48.58332" lon="-0.47922">
        <ele>246.380896</ele>
        <time>2021-09-06T09:28:14.000Z</time>
      </trkpt>
      <trkpt lat="48.58308" lon="-0.47861">
        <ele>245.645052</ele>
        <time>2021-09-06T09:28:20.000Z</time>
      </trkpt>
      <trkpt lat="48.58286" lon="-0.47808">
        <ele>245.024673</ele>
        <time>2021-09-06T09:28:26.000Z</time>
      </trkpt>
      <trkpt lat="48.58264" lon="-0.47756">
        <ele>244.427944</ele>
        <time>2021-09-06T09:28:32.000Z</time>
      </trkpt>
      <trkpt lat="48.58237" lon="-0.4769">
        <ele>243.663947</ele>
        <time>2021-09-06T09:28:40.000Z</time>
      </trkpt>
      <trkpt lat="48.58213" lon="-0.47632">
        <ele>243.224778</ele>
        <time>2021-09-06T09:28:47.000Z</time>
      </trkpt>
      <trkpt lat="48.5819" lon="-0.47575">
        <ele>242.823987</ele>
        <time>2021-09-06T09:28:54.000Z</time>
      </trkpt>
      <trkpt lat="48.58157" lon="-0.475">
        <ele>242.284546</ele>
        <time>2021-09-06T09:29:04.000Z</time>
      </trkpt>
      <trkpt lat="48.58135" lon="-0.47447">
        <ele>241.96345</ele>
        <time>2021-09-06T09:29:11.000Z</time>
      </trkpt>
      <trkpt lat="48.58118" lon="-0.47405">
        <ele>242.06148</ele>
        <time>2021-09-06T09:29:17.000Z</time>
      </trkpt>
      <trkpt lat="48.58104" lon="-0.47366">
        <ele>242.148245</ele>
        <time>2021-09-06T09:29:23.000Z</time>
      </trkpt>
      <trkpt lat="48.58087" lon="-0.47327">
        <ele>242.240604</ele>
        <time>2021-09-06T09:29:30.000Z</time>
      </trkpt>
      <trkpt lat="48.58083" lon="-0.47316">
        <ele>242.265444</ele>
        <time>2021-09-06T09:29:32.000Z</time>
      </trkpt>
      <trkpt lat="48.58072" lon="-0.4729">
        <ele>242.326517</ele>
        <time>2021-09-06T09:29:37.000Z</time>
      </trkpt>
      <trkpt lat="48.58068" lon="-0.47279">
        <ele>242.351395</ele>
        <time>2021-09-06T09:29:39.000Z</time>
      </trkpt>
      <trkpt lat="48.58059" lon="-0.47259">
        <ele>242.399384</ele>
        <time>2021-09-06T09:29:43.000Z</time>
      </trkpt>
      <trkpt lat="48.58053" lon="-0.47244">
        <ele>242.4353</ele>
        <time>2021-09-06T09:29:46.000Z</time>
      </trkpt>
      <trkpt lat="48.58046" lon="-0.47229">
        <ele>242.470889</ele>
        <time>2021-09-06T09:29:49.000Z</time>
      </trkpt>
      <trkpt lat="48.58028" lon="-0.47189">
        <ele>243.062545</ele>
        <time>2021-09-06T09:29:57.000Z</time>
      </trkpt>
      <trkpt lat="48.58019" lon="-0.4717">
        <ele>243.396716</ele>
        <time>2021-09-06T09:30:01.000Z</time>
      </trkpt>
      <trkpt lat="48.58001" lon="-0.47131">
        <ele>244.090619</ele>
        <time>2021-09-06T09:30:09.000Z</time>
      </trkpt>
      <trkpt lat="48.57992" lon="-0.4711">
        <ele>244.460776</ele>
        <time>2021-09-06T09:30:13.000Z</time>
      </trkpt>
      <trkpt lat="48.57987" lon="-0.47099">
        <ele>244.648914</ele>
        <time>2021-09-06T09:30:15.000Z</time>
      </trkpt>
      <trkpt lat="48.57978" lon="-0.47072">
        <ele>245.087899</ele>
        <time>2021-09-06T09:30:20.000Z</time>
      </trkpt>
      <trkpt lat="48.57965" lon="-0.47041">
        <ele>245.62043</ele>
        <time>2021-09-06T09:30:26.000Z</time>
      </trkpt>
      <trkpt lat="48.57957" lon="-0.4702">
        <ele>245.968984</ele>
        <time>2021-09-06T09:30:30.000Z</time>
      </trkpt>
      <trkpt lat="48.57948" lon="-0.46993">
        <ele>246.4077</ele>
        <time>2021-09-06T09:30:35.000Z</time>
      </trkpt>
      <trkpt lat="48.57947" lon="-0.46989">
        <ele>246.467378</ele>
        <time>2021-09-06T09:30:36.000Z</time>
      </trkpt>
      <trkpt lat="48.57942" lon="-0.46982">
        <ele>246.593148</ele>
        <time>2021-09-06T09:30:38.000Z</time>
      </trkpt>
      <trkpt lat="48.57925" lon="-0.46944">
        <ele>247.16275</ele>
        <time>2021-09-06T09:30:45.000Z</time>
      </trkpt>
      <trkpt lat="48.57913" lon="-0.46909">
        <ele>247.637605</ele>
        <time>2021-09-06T09:30:51.000Z</time>
      </trkpt>
      <trkpt lat="48.57904" lon="-0.4689">
        <ele>247.926187</ele>
        <time>2021-09-06T09:30:55.000Z</time>
      </trkpt>
      <trkpt lat="48.57892" lon="-0.46864">
        <ele>248.316807</ele>
        <time>2021-09-06T09:31:00.000Z</time>
      </trkpt>
      <trkpt lat="48.5788" lon="-0.46833">
        <ele>248.761841</ele>
        <time>2021-09-06T09:31:05.000Z</time>
      </trkpt>
      <trkpt lat="48.57866" lon="-0.468">
        <ele>249.231589</ele>
        <time>2021-09-06T09:31:10.000Z</time>
      </trkpt>
      <trkpt lat="48.57864" lon="-0.46794">
        <ele>249.318541</ele>
        <time>2021-09-06T09:31:11.000Z</time>
      </trkpt>
      <trkpt lat="48.5785" lon="-0.46763">
        <ele>249.770519</ele>
        <time>2021-09-06T09:31:16.000Z</time>
      </trkpt>
      <trkpt lat="48.57848" lon="-0.46757">
        <ele>249.859818</ele>
        <time>2021-09-06T09:31:17.000Z</time>
      </trkpt>
      <trkpt lat="48.57839" lon="-0.4674">
        <ele>250.125683</ele>
        <time>2021-09-06T09:31:20.000Z</time>
      </trkpt>
      <trkpt lat="48.57832" lon="-0.46721">
        <ele>250.389702</ele>
        <time>2021-09-06T09:31:23.000Z</time>
      </trkpt>
      <trkpt lat="48.57812" lon="-0.46674">
        <ele>251.076182</ele>
        <time>2021-09-06T09:31:31.000Z</time>
      </trkpt>
      <trkpt lat="48.57805" lon="-0.46656">
        <ele>251.337849</ele>
        <time>2021-09-06T09:31:34.000Z</time>
      </trkpt>
      <trkpt lat="48.57798" lon="-0.46639">
        <ele>251.58932</ele>
        <time>2021-09-06T09:31:37.000Z</time>
      </trkpt>
      <trkpt lat="48.57793" lon="-0.46626">
        <ele>251.760064</ele>
        <time>2021-09-06T09:31:39.000Z</time>
      </trkpt>
      <trkpt lat="48.57788" lon="-0.46615">
        <ele>251.930394</ele>
        <time>2021-09-06T09:31:41.000Z</time>
      </trkpt>
      <trkpt lat="48.57785" lon="-0.46609">
        <ele>252.02172</ele>
        <time>2021-09-06T09:31:42.000Z</time>
      </trkpt>
      <trkpt lat="48.57767" lon="-0.4657">
        <ele>252.603701</ele>
        <time>2021-09-06T09:31:49.000Z</time>
      </trkpt>
      <trkpt lat="48.57761" lon="-0.46553">
        <ele>252.84843</ele>
        <time>2021-09-06T09:31:52.000Z</time>
      </trkpt>
      <trkpt lat="48.57756" lon="-0.46541">
        <ele>253.02811</ele>
        <time>2021-09-06T09:31:54.000Z</time>
      </trkpt>
      <trkpt lat="48.57732" lon="-0.46486">
        <ele>253.889577</ele>
        <time>2021-09-06T09:32:03.000Z</time>
      </trkpt>
      <trkpt lat="48.57713" lon="-0.46436">
        <ele>254.656761</ele>
        <time>2021-09-06T09:32:11.000Z</time>
      </trkpt>
      <trkpt lat="48.57699" lon="-0.46399">
        <ele>255.213515</ele>
        <time>2021-09-06T09:32:17.000Z</time>
      </trkpt>
      <trkpt lat="48.5769" lon="-0.46377">
        <ele>255.568651</ele>
        <time>2021-09-06T09:32:21.000Z</time>
      </trkpt>
      <trkpt lat="48.57681" lon="-0.46361">
        <ele>255.852422</ele>
        <time>2021-09-06T09:32:24.000Z</time>
      </trkpt>
      <trkpt lat="48.57675" lon="-0.46349">
        <ele>256.053956</ele>
        <time>2021-09-06T09:32:26.000Z</time>
      </trkpt>
      <trkpt lat="48.57662" lon="-0.46324">
        <ele>256.472276</ele>
        <time>2021-09-06T09:32:30.000Z</time>
      </trkpt>
      <trkpt lat="48.57659" lon="-0.46316">
        <ele>256.589676</ele>
        <time>2021-09-06T09:32:31.000Z</time>
      </trkpt>
      <trkpt lat="48.57657" lon="-0.46308">
        <ele>256.713637</ele>
        <time>2021-09-06T09:32:32.000Z</time>
      </trkpt>
      <trkpt lat="48.5765" lon="-0.46294">
        <ele>256.956684</ele>
        <time>2021-09-06T09:32:34.000Z</time>
      </trkpt>
      <trkpt lat="48.57647" lon="-0.46287">
        <ele>257.080549</ele>
        <time>2021-09-06T09:32:35.000Z</time>
      </trkpt>
      <trkpt lat="48.57632" lon="-0.46253">
        <ele>257.685106</ele>
        <time>2021-09-06T09:32:40.000Z</time>
      </trkpt>
      <trkpt lat="48.5762" lon="-0.46224">
        <ele>258.183004</ele>
        <time>2021-09-06T09:32:44.000Z</time>
      </trkpt>
      <trkpt lat="48.57602" lon="-0.4618">
        <ele>258.943374</ele>
        <time>2021-09-06T09:32:50.000Z</time>
      </trkpt>
      <trkpt lat="48.57599" lon="-0.46173">
        <ele>259.069833</ele>
        <time>2021-09-06T09:32:51.000Z</time>
      </trkpt>
      <trkpt lat="48.57587" lon="-0.46143">
        <ele>259.58509</ele>
        <time>2021-09-06T09:32:55.000Z</time>
      </trkpt>
      <trkpt lat="48.57571" lon="-0.46104">
        <ele>260.258838</ele>
        <time>2021-09-06T09:33:00.000Z</time>
      </trkpt>
      <trkpt lat="48.57568" lon="-0.46097">
        <ele>260.385144</ele>
        <time>2021-09-06T09:33:01.000Z</time>
      </trkpt>
      <trkpt lat="48.57562" lon="-0.46082">
        <ele>260.64638</ele>
        <time>2021-09-06T09:33:03.000Z</time>
      </trkpt>
      <trkpt lat="48.57552" lon="-0.46057">
        <ele>260.6597</ele>
        <time>2021-09-06T09:33:06.000Z</time>
      </trkpt>
      <trkpt lat="48.57533" lon="-0.46011">
        <ele>260.478666</ele>
        <time>2021-09-06T09:33:12.000Z</time>
      </trkpt>
      <trkpt lat="48.57513" lon="-0.45956">
        <ele>260.271318</ele>
        <time>2021-09-06T09:33:18.000Z</time>
      </trkpt>
      <trkpt lat="48.57489" lon="-0.45898">
        <ele>260.047817</ele>
        <time>2021-09-06T09:33:24.000Z</time>
      </trkpt>
      <trkpt lat="48.57462" lon="-0.45831">
        <ele>259.733733</ele>
        <time>2021-09-06T09:33:31.000Z</time>
      </trkpt>
      <trkpt lat="48.57437" lon="-0.45773">
        <ele>259.244295</ele>
        <time>2021-09-06T09:33:37.000Z</time>
      </trkpt>
      <trkpt lat="48.57417" lon="-0.45724">
        <ele>258.837145</ele>
        <time>2021-09-06T09:33:42.000Z</time>
      </trkpt>
      <trkpt lat="48.57393" lon="-0.45669">
        <ele>258.375436</ele>
        <time>2021-09-06T09:33:48.000Z</time>
      </trkpt>
      <trkpt lat="48.57381" lon="-0.45643">
        <ele>258.155739</ele>
        <time>2021-09-06T09:33:51.000Z</time>
      </trkpt>
      <trkpt lat="48.57373" lon="-0.45626">
        <ele>258.008839</ele>
        <time>2021-09-06T09:33:53.000Z</time>
      </trkpt>
      <trkpt lat="48.57354" lon="-0.45586">
        <ele>258.020048</ele>
        <time>2021-09-06T09:33:58.000Z</time>
      </trkpt>
      <trkpt lat="48.57351" lon="-0.45577">
        <ele>258.046354</ele>
        <time>2021-09-06T09:33:59.000Z</time>
      </trkpt>
      <trkpt lat="48.57327" lon="-0.4552">
        <ele>258.218769</ele>
        <time>2021-09-06T09:34:06.000Z</time>
      </trkpt>
      <trkpt lat="48.57311" lon="-0.45485">
        <ele>258.327839</ele>
        <time>2021-09-06T09:34:11.000Z</time>
      </trkpt>
      <trkpt lat="48.57305" lon="-0.4547">
        <ele>258.371902</ele>
        <time>2021-09-06T09:34:13.000Z</time>
      </trkpt>
      <trkpt lat="48.57294" lon="-0.4544">
        <ele>258.460122</ele>
        <time>2021-09-06T09:34:17.000Z</time>
      </trkpt>
      <trkpt lat="48.57283" lon="-0.45415">
        <ele>258.537613</ele>
        <time>2021-09-06T09:34:21.000Z</time>
      </trkpt>
      <trkpt lat="48.57271" lon="-0.45386">
        <ele>258.604985</ele>
        <time>2021-09-06T09:34:25.000Z</time>
      </trkpt>
      <trkpt lat="48.57265" lon="-0.4537">
        <ele>258.356014</ele>
        <time>2021-09-06T09:34:27.000Z</time>
      </trkpt>
      <trkpt lat="48.57255" lon="-0.45346">
        <ele>257.97624</ele>
        <time>2021-09-06T09:34:30.000Z</time>
      </trkpt>
      <trkpt lat="48.57248" lon="-0.45328">
        <ele>257.699988</ele>
        <time>2021-09-06T09:34:32.000Z</time>
      </trkpt>
      <trkpt lat="48.57234" lon="-0.45282">
        <ele>257.016426</ele>
        <time>2021-09-06T09:34:37.000Z</time>
      </trkpt>
      <trkpt lat="48.57231" lon="-0.45271">
        <ele>256.86574</ele>
        <time>2021-09-06T09:34:38.000Z</time>
      </trkpt>
      <trkpt lat="48.57224" lon="-0.45251">
        <ele>256.562817</ele>
        <time>2021-09-06T09:34:40.000Z</time>
      </trkpt>
      <trkpt lat="48.5722" lon="-0.45241">
        <ele>256.407357</ele>
        <time>2021-09-06T09:34:41.000Z</time>
      </trkpt>
      <trkpt lat="48.57198" lon="-0.4519">
        <ele>255.597001</ele>
        <time>2021-09-06T09:34:46.000Z</time>
      </trkpt>
      <trkpt lat="48.5717" lon="-0.45119">
        <ele>254.203402</ele>
        <time>2021-09-06T09:34:52.000Z</time>
      </trkpt>
      <trkpt lat="48.57137" lon="-0.45046">
        <ele>252.335962</ele>
        <time>2021-09-06T09:34:58.000Z</time>
      </trkpt>
      <trkpt lat="48.57108" lon="-0.44979">
        <ele>250.654581</ele>
        <time>2021-09-06T09:35:03.000Z</time>
      </trkpt>
      <trkpt lat="48.57078" lon="-0.44909">
        <ele>248.832253</ele>
        <time>2021-09-06T09:35:08.000Z</time>
      </trkpt>
      <trkpt lat="48.57048" lon="-0.44838">
        <ele>246.680592</ele>
        <time>2021-09-06T09:35:13.000Z</time>
      </trkpt>
      <trkpt lat="48.57018" lon="-0.44766">
        <ele>244.503278</ele>
        <time>2021-09-06T09:35:18.000Z</time>
      </trkpt>
      <trkpt lat="48.57006" lon="-0.44738">
        <ele>243.64836</ele>
        <time>2021-09-06T09:35:20.000Z</time>
      </trkpt>
      <trkpt lat="48.56978" lon="-0.44672">
        <ele>241.528281</ele>
        <time>2021-09-06T09:35:25.000Z</time>
      </trkpt>
      <trkpt lat="48.56962" lon="-0.44635">
        <ele>240.27645</ele>
        <time>2021-09-06T09:35:28.000Z</time>
      </trkpt>
      <trkpt lat="48.56953" lon="-0.44611">
        <ele>239.449083</ele>
        <time>2021-09-06T09:35:30.000Z</time>
      </trkpt>
      <trkpt lat="48.56919" lon="-0.44534">
        <ele>236.798741</ele>
        <time>2021-09-06T09:35:37.000Z</time>
      </trkpt>
      <trkpt lat="48.56897" lon="-0.44486">
        <ele>235.10497</ele>
        <time>2021-09-06T09:35:42.000Z</time>
      </trkpt>
      <trkpt lat="48.56889" lon="-0.4447">
        <ele>234.51228</ele>
        <time>2021-09-06T09:35:44.000Z</time>
      </trkpt>
      <trkpt lat="48.5688" lon="-0.44456">
        <ele>234.086487</ele>
        <time>2021-09-06T09:35:46.000Z</time>
      </trkpt>
      <trkpt lat="48.56859" lon="-0.44408">
        <ele>232.870891</ele>
        <time>2021-09-06T09:35:51.000Z</time>
      </trkpt>
      <trkpt lat="48.56852" lon="-0.44388">
        <ele>232.369931</ele>
        <time>2021-09-06T09:35:53.000Z</time>
      </trkpt>
      <trkpt lat="48.56841" lon="-0.44358">
        <ele>231.647875</ele>
        <time>2021-09-06T09:35:56.000Z</time>
      </trkpt>
      <trkpt lat="48.56815" lon="-0.4429">
        <ele>229.980978</ele>
        <time>2021-09-06T09:36:03.000Z</time>
      </trkpt>
      <trkpt lat="48.56799" lon="-0.44255">
        <ele>229.074249</ele>
        <time>2021-09-06T09:36:07.000Z</time>
      </trkpt>
      <trkpt lat="48.56784" lon="-0.44222">
        <ele>228.419634</ele>
        <time>2021-09-06T09:36:11.000Z</time>
      </trkpt>
      <trkpt lat="48.56778" lon="-0.44206">
        <ele>228.193816</ele>
        <time>2021-09-06T09:36:13.000Z</time>
      </trkpt>
      <trkpt lat="48.56768" lon="-0.44181">
        <ele>227.844835</ele>
        <time>2021-09-06T09:36:16.000Z</time>
      </trkpt>
      <trkpt lat="48.56761" lon="-0.44164">
        <ele>227.599275</ele>
        <time>2021-09-06T09:36:18.000Z</time>
      </trkpt>
      <trkpt lat="48.56747" lon="-0.44128">
        <ele>227.101957</ele>
        <time>2021-09-06T09:36:22.000Z</time>
      </trkpt>
      <trkpt lat="48.56729" lon="-0.44085">
        <ele>226.478271</ele>
        <time>2021-09-06T09:36:27.000Z</time>
      </trkpt>
      <trkpt lat="48.56711" lon="-0.44044">
        <ele>225.886942</ele>
        <time>2021-09-06T09:36:32.000Z</time>
      </trkpt>
      <trkpt lat="48.56695" lon="-0.44002">
        <ele>225.247016</ele>
        <time>2021-09-06T09:36:37.000Z</time>
      </trkpt>
      <trkpt lat="48.56689" lon="-0.43986">
        <ele>224.87446</ele>
        <time>2021-09-06T09:36:39.000Z</time>
      </trkpt>
      <trkpt lat="48.56685" lon="-0.43976">
        <ele>224.65329</ele>
        <time>2021-09-06T09:36:40.000Z</time>
      </trkpt>
      <trkpt lat="48.56664" lon="-0.4392">
        <ele>223.362458</ele>
        <time>2021-09-06T09:36:46.000Z</time>
      </trkpt>
      <trkpt lat="48.56648" lon="-0.43873">
        <ele>222.302184</ele>
        <time>2021-09-06T09:36:51.000Z</time>
      </trkpt>
      <trkpt lat="48.56627" lon="-0.43822">
        <ele>221.103032</ele>
        <time>2021-09-06T09:36:57.000Z</time>
      </trkpt>
      <trkpt lat="48.56612" lon="-0.43789">
        <ele>220.302896</ele>
        <time>2021-09-06T09:37:01.000Z</time>
      </trkpt>
      <trkpt lat="48.56601" lon="-0.43763">
        <ele>219.567167</ele>
        <time>2021-09-06T09:37:04.000Z</time>
      </trkpt>
      <trkpt lat="48.56593" lon="-0.43748">
        <ele>219.024922</ele>
        <time>2021-09-06T09:37:06.000Z</time>
      </trkpt>
      <trkpt lat="48.56589" lon="-0.4374">
        <ele>218.745531</ele>
        <time>2021-09-06T09:37:07.000Z</time>
      </trkpt>
      <trkpt lat="48.56577" lon="-0.43709">
        <ele>217.711424</ele>
        <time>2021-09-06T09:37:10.000Z</time>
      </trkpt>
      <trkpt lat="48.56549" lon="-0.4364">
        <ele>215.414203</ele>
        <time>2021-09-06T09:37:16.000Z</time>
      </trkpt>
      <trkpt lat="48.56526" lon="-0.43588">
        <ele>213.641216</ele>
        <time>2021-09-06T09:37:21.000Z</time>
      </trkpt>
      <trkpt lat="48.56506" lon="-0.43539">
        <ele>212.010924</ele>
        <time>2021-09-06T09:37:26.000Z</time>
      </trkpt>
      <trkpt lat="48.56477" lon="-0.43474">
        <ele>209.696395</ele>
        <time>2021-09-06T09:37:33.000Z</time>
      </trkpt>
      <trkpt lat="48.56449" lon="-0.43409">
        <ele>207.384183</ele>
        <time>2021-09-06T09:37:41.000Z</time>
      </trkpt>
      <trkpt lat="48.56422" lon="-0.43342">
        <ele>205.08508</ele>
        <time>2021-09-06T09:37:49.000Z</time>
      </trkpt>
      <trkpt lat="48.56405" lon="-0.43298">
        <ele>203.659836</ele>
        <time>2021-09-06T09:37:54.000Z</time>
      </trkpt>
      <trkpt lat="48.5639" lon="-0.43267">
        <ele>202.705499</ele>
        <time>2021-09-06T09:37:58.000Z</time>
      </trkpt>
      <trkpt lat="48.56383" lon="-0.43251">
        <ele>202.216958</ele>
        <time>2021-09-06T09:38:00.000Z</time>
      </trkpt>
      <trkpt lat="48.56376" lon="-0.43237">
        <ele>201.761168</ele>
        <time>2021-09-06T09:38:02.000Z</time>
      </trkpt>
      <trkpt lat="48.56372" lon="-0.4323">
        <ele>201.538269</ele>
        <time>2021-09-06T09:38:03.000Z</time>
      </trkpt>
      <trkpt lat="48.56356" lon="-0.43187">
        <ele>200.30804</ele>
        <time>2021-09-06T09:38:08.000Z</time>
      </trkpt>
      <trkpt lat="48.56349" lon="-0.43171">
        <ele>199.813179</ele>
        <time>2021-09-06T09:38:10.000Z</time>
      </trkpt>
      <trkpt lat="48.56339" lon="-0.43148">
        <ele>199.141756</ele>
        <time>2021-09-06T09:38:13.000Z</time>
      </trkpt>
      <trkpt lat="48.56316" lon="-0.43094">
        <ele>197.512434</ele>
        <time>2021-09-06T09:38:20.000Z</time>
      </trkpt>
      <trkpt lat="48.56307" lon="-0.43071">
        <ele>197.358162</ele>
        <time>2021-09-06T09:38:23.000Z</time>
      </trkpt>
      <trkpt lat="48.56301" lon="-0.43055">
        <ele>197.343212</ele>
        <time>2021-09-06T09:38:25.000Z</time>
      </trkpt>
      <trkpt lat="48.56285" lon="-0.43013">
        <ele>197.30279</ele>
        <time>2021-09-06T09:38:31.000Z</time>
      </trkpt>
      <trkpt lat="48.56281" lon="-0.43006">
        <ele>197.295529</ele>
        <time>2021-09-06T09:38:32.000Z</time>
      </trkpt>
      <trkpt lat="48.56269" lon="-0.42978">
        <ele>197.267593</ele>
        <time>2021-09-06T09:38:36.000Z</time>
      </trkpt>
      <trkpt lat="48.56264" lon="-0.42966">
        <ele>197.255693</ele>
        <time>2021-09-06T09:38:38.000Z</time>
      </trkpt>
      <trkpt lat="48.56256" lon="-0.4295">
        <ele>197.239442</ele>
        <time>2021-09-06T09:38:41.000Z</time>
      </trkpt>
      <trkpt lat="48.56247" lon="-0.42926">
        <ele>197.216259</ele>
        <time>2021-09-06T09:38:45.000Z</time>
      </trkpt>
      <trkpt lat="48.56237" lon="-0.42906">
        <ele>197.195624</ele>
        <time>2021-09-06T09:38:49.000Z</time>
      </trkpt>
      <trkpt lat="48.56227" lon="-0.42884">
        <ele>197.173278</ele>
        <time>2021-09-06T09:38:54.000Z</time>
      </trkpt>
      <trkpt lat="48.56219" lon="-0.42864">
        <ele>197.153901</ele>
        <time>2021-09-06T09:38:58.000Z</time>
      </trkpt>
      <trkpt lat="48.5621" lon="-0.42841">
        <ele>197.750385</ele>
        <time>2021-09-06T09:39:02.000Z</time>
      </trkpt>
      <trkpt lat="48.56195" lon="-0.42807">
        <ele>198.827854</ele>
        <time>2021-09-06T09:39:08.000Z</time>
      </trkpt>
      <trkpt lat="48.56185" lon="-0.42777">
        <ele>199.709586</ele>
        <time>2021-09-06T09:39:14.000Z</time>
      </trkpt>
      <trkpt lat="48.56181" lon="-0.42768">
        <ele>199.991179</ele>
        <time>2021-09-06T09:39:16.000Z</time>
      </trkpt>
      <trkpt lat="48.56178" lon="-0.42761">
        <ele>200.202421</ele>
        <time>2021-09-06T09:39:18.000Z</time>
      </trkpt>
      <trkpt lat="48.56167" lon="-0.42739">
        <ele>200.92701</ele>
        <time>2021-09-06T09:39:23.000Z</time>
      </trkpt>
      <trkpt lat="48.56159" lon="-0.42714">
        <ele>201.653352</ele>
        <time>2021-09-06T09:39:28.000Z</time>
      </trkpt>
      <trkpt lat="48.56153" lon="-0.42696">
        <ele>202.190711</ele>
        <time>2021-09-06T09:39:32.000Z</time>
      </trkpt>
      <trkpt lat="48.56144" lon="-0.42674">
        <ele>202.879797</ele>
        <time>2021-09-06T09:39:36.000Z</time>
      </trkpt>
      <trkpt lat="48.56128" lon="-0.42646">
        <ele>203.849184</ele>
        <time>2021-09-06T09:39:41.000Z</time>
      </trkpt>
      <trkpt lat="48.56107" lon="-0.42619">
        <ele>204.375091</ele>
        <time>2021-09-06T09:39:46.000Z</time>
      </trkpt>
      <trkpt lat="48.56101" lon="-0.42583">
        <ele>204.460556</ele>
        <time>2021-09-06T09:39:50.000Z</time>
      </trkpt>
      <trkpt lat="48.56084" lon="-0.42542">
        <ele>204.574037</ele>
        <time>2021-09-06T09:39:56.000Z</time>
      </trkpt>
      <trkpt lat="48.56077" lon="-0.4253">
        <ele>204.611439</ele>
        <time>2021-09-06T09:39:58.000Z</time>
      </trkpt>
      <trkpt lat="48.56068" lon="-0.42509">
        <ele>204.66923</ele>
        <time>2021-09-06T09:40:01.000Z</time>
      </trkpt>
      <trkpt lat="48.56045" lon="-0.42458">
        <ele>204.81472</ele>
        <time>2021-09-06T09:40:08.000Z</time>
      </trkpt>
      <trkpt lat="48.56021" lon="-0.42407">
        <ele>204.926047</ele>
        <time>2021-09-06T09:40:15.000Z</time>
      </trkpt>
      <trkpt lat="48.56" lon="-0.42366">
        <ele>204.585425</ele>
        <time>2021-09-06T09:40:21.000Z</time>
      </trkpt>
      <trkpt lat="48.55997" lon="-0.42359">
        <ele>204.528854</ele>
        <time>2021-09-06T09:40:22.000Z</time>
      </trkpt>
      <trkpt lat="48.55994" lon="-0.42352">
        <ele>204.470618</ele>
        <time>2021-09-06T09:40:23.000Z</time>
      </trkpt>
      <trkpt lat="48.55984" lon="-0.42332">
        <ele>204.308444</ele>
        <time>2021-09-06T09:40:26.000Z</time>
      </trkpt>
      <trkpt lat="48.55981" lon="-0.42325">
        <ele>204.254643</ele>
        <time>2021-09-06T09:40:27.000Z</time>
      </trkpt>
      <trkpt lat="48.55953" lon="-0.4227">
        <ele>203.789102</ele>
        <time>2021-09-06T09:40:36.000Z</time>
      </trkpt>
      <trkpt lat="48.5594" lon="-0.42236">
        <ele>203.529599</ele>
        <time>2021-09-06T09:40:41.000Z</time>
      </trkpt>
      <trkpt lat="48.55938" lon="-0.4223">
        <ele>203.479513</ele>
        <time>2021-09-06T09:40:42.000Z</time>
      </trkpt>
      <trkpt lat="48.55935" lon="-0.42223">
        <ele>203.426823</ele>
        <time>2021-09-06T09:40:43.000Z</time>
      </trkpt>
      <trkpt lat="48.55923" lon="-0.42196">
        <ele>203.213289</ele>
        <time>2021-09-06T09:40:47.000Z</time>
      </trkpt>
      <trkpt lat="48.55898" lon="-0.42146">
        <ele>202.539376</ele>
        <time>2021-09-06T09:40:55.000Z</time>
      </trkpt>
      <trkpt lat="48.55875" lon="-0.42095">
        <ele>201.831486</ele>
        <time>2021-09-06T09:41:02.000Z</time>
      </trkpt>
      <trkpt lat="48.5585" lon="-0.4204">
        <ele>201.072974</ele>
        <time>2021-09-06T09:41:09.000Z</time>
      </trkpt>
      <trkpt lat="48.55829" lon="-0.41992">
        <ele>200.40807</ele>
        <time>2021-09-06T09:41:15.000Z</time>
      </trkpt>
      <trkpt lat="48.55802" lon="-0.41936">
        <ele>198.910495</ele>
        <time>2021-09-06T09:41:22.000Z</time>
      </trkpt>
      <trkpt lat="48.55795" lon="-0.4192">
        <ele>198.28322</ele>
        <time>2021-09-06T09:41:24.000Z</time>
      </trkpt>
      <trkpt lat="48.55785" lon="-0.41897">
        <ele>197.416534</ele>
        <time>2021-09-06T09:41:27.000Z</time>
      </trkpt>
      <trkpt lat="48.55773" lon="-0.41869">
        <ele>196.36017</ele>
        <time>2021-09-06T09:41:32.000Z</time>
      </trkpt>
      <trkpt lat="48.55767" lon="-0.4186">
        <ele>195.965607</ele>
        <time>2021-09-06T09:41:37.000Z</time>
      </trkpt>
      <trkpt lat="48.55759" lon="-0.41851">
        <ele>195.486663</ele>
        <time>2021-09-06T09:41:44.000Z</time>
      </trkpt>
      <trkpt lat="48.55755" lon="-0.41839">
        <ele>195.091883</ele>
        <time>2021-09-06T09:41:49.000Z</time>
      </trkpt>
      <trkpt lat="48.55753" lon="-0.41837">
        <ele>194.939768</ele>
        <time>2021-09-06T09:41:51.000Z</time>
      </trkpt>
      <trkpt lat="48.5575" lon="-0.41843">
        <ele>194.736757</ele>
        <time>2021-09-06T09:41:54.000Z</time>
      </trkpt>
      <trkpt lat="48.55753" lon="-0.41851">
        <ele>194.440267</ele>
        <time>2021-09-06T09:41:58.000Z</time>
      </trkpt>
      <trkpt lat="48.55755" lon="-0.41852">
        <ele>194.364951</ele>
        <time>2021-09-06T09:41:59.000Z</time>
      </trkpt>
      <trkpt lat="48.55756" lon="-0.41852">
        <ele>194.302583</ele>
        <time>2021-09-06T09:42:00.000Z</time>
      </trkpt>
      <trkpt lat="48.55761" lon="-0.41853">
        <ele>194.067668</ele>
        <time>2021-09-06T09:42:03.000Z</time>
      </trkpt>
      <trkpt lat="48.55766" lon="-0.41862">
        <ele>193.668412</ele>
        <time>2021-09-06T09:42:08.000Z</time>
      </trkpt>
      <trkpt lat="48.55769" lon="-0.41871">
        <ele>193.362002</ele>
        <time>2021-09-06T09:42:13.000Z</time>
      </trkpt>
      <trkpt lat="48.55769" lon="-0.41874">
        <ele>193.270398</ele>
        <time>2021-09-06T09:42:16.000Z</time>
      </trkpt>
      <trkpt lat="48.5577" lon="-0.41867">
        <ele>193.055328</ele>
        <time>2021-09-06T09:42:24.000Z</time>
      </trkpt>
      <trkpt lat="48.55769" lon="-0.41865">
        <ele>192.957589</ele>
        <time>2021-09-06T09:42:25.000Z</time>
      </trkpt>
      <trkpt lat="48.55759" lon="-0.41842">
        <ele>192.098554</ele>
        <time>2021-09-06T09:42:31.000Z</time>
      </trkpt>
      <trkpt lat="48.55744" lon="-0.41811">
        <ele>191.136015</ele>
        <time>2021-09-06T09:42:38.000Z</time>
      </trkpt>
      <trkpt lat="48.55733" lon="-0.41788">
        <ele>190.647324</ele>
        <time>2021-09-06T09:42:43.000Z</time>
      </trkpt>
      <trkpt lat="48.55727" lon="-0.41779">
        <ele>190.425435</ele>
        <time>2021-09-06T09:42:45.000Z</time>
      </trkpt>
      <trkpt lat="48.55714" lon="-0.41764">
        <ele>189.98758</ele>
        <time>2021-09-06T09:42:50.000Z</time>
      </trkpt>
      <trkpt lat="48.55697" lon="-0.41755">
        <ele>189.522983</ele>
        <time>2021-09-06T09:42:55.000Z</time>
      </trkpt>
      <trkpt lat="48.55691" lon="-0.41751">
        <ele>189.337082</ele>
        <time>2021-09-06T09:42:57.000Z</time>
      </trkpt>
      <trkpt lat="48.55689" lon="-0.41744">
        <ele>189.218384</ele>
        <time>2021-09-06T09:42:58.000Z</time>
      </trkpt>
      <trkpt lat="48.55689" lon="-0.41738">
        <ele>189.105482</ele>
        <time>2021-09-06T09:42:59.000Z</time>
      </trkpt>
      <trkpt lat="48.55691" lon="-0.4172">
        <ele>188.795615</ele>
        <time>2021-09-06T09:43:02.000Z</time>
      </trkpt>
      <trkpt lat="48.55688" lon="-0.41696">
        <ele>188.382302</ele>
        <time>2021-09-06T09:43:07.000Z</time>
      </trkpt>
      <trkpt lat="48.55685" lon="-0.41676">
        <ele>188.019038</ele>
        <time>2021-09-06T09:43:12.000Z</time>
      </trkpt>
      <trkpt lat="48.55686" lon="-0.41674">
        <ele>187.965186</ele>
        <time>2021-09-06T09:43:13.000Z</time>
      </trkpt>
      <trkpt lat="48.55689" lon="-0.41671">
        <ele>187.860458</ele>
        <time>2021-09-06T09:43:15.000Z</time>
      </trkpt>
      <trkpt lat="48.5569" lon="-0.41672">
        <ele>187.823996</ele>
        <time>2021-09-06T09:43:17.000Z</time>
      </trkpt>
      <trkpt lat="48.5569" lon="-0.41675">
        <ele>187.776818</ele>
        <time>2021-09-06T09:43:21.000Z</time>
      </trkpt>
      <trkpt lat="48.55721" lon="-0.41462">
        <ele>188.32214</ele>
        <time>2021-09-06T09:47:05.000Z</time>
      </trkpt>
      <trkpt lat="48.55724" lon="-0.41422">
        <ele>188.731104</ele>
        <time>2021-09-06T09:47:14.000Z</time>
      </trkpt>
      <trkpt lat="48.55722" lon="-0.41397">
        <ele>188.992283</ele>
        <time>2021-09-06T09:47:20.000Z</time>
      </trkpt>
      <trkpt lat="48.55716" lon="-0.41379">
        <ele>189.189183</ele>
        <time>2021-09-06T09:47:25.000Z</time>
      </trkpt>
      <trkpt lat="48.55711" lon="-0.41372">
        <ele>189.300185</ele>
        <time>2021-09-06T09:47:28.000Z</time>
      </trkpt>
      <trkpt lat="48.5571" lon="-0.41365">
        <ele>189.367586</ele>
        <time>2021-09-06T09:47:30.000Z</time>
      </trkpt>
      <trkpt lat="48.55711" lon="-0.41352">
        <ele>189.496785</ele>
        <time>2021-09-06T09:47:35.000Z</time>
      </trkpt>
      <trkpt lat="48.55711" lon="-0.4135">
        <ele>189.517324</ele>
        <time>2021-09-06T09:47:38.000Z</time>
      </trkpt>
      <trkpt lat="48.55714" lon="-0.41352">
        <ele>189.558257</ele>
        <time>2021-09-06T09:48:38.000Z</time>
      </trkpt>
      <trkpt lat="48.55716" lon="-0.41353">
        <ele>189.587986</ele>
        <time>2021-09-06T09:48:39.000Z</time>
      </trkpt>
      <trkpt lat="48.55733" lon="-0.41361">
        <ele>189.809049</ele>
        <time>2021-09-06T09:48:45.000Z</time>
      </trkpt>
      <trkpt lat="48.55747" lon="-0.41361">
        <ele>189.979105</ele>
        <time>2021-09-06T09:48:51.000Z</time>
      </trkpt>
      <trkpt lat="48.5576" lon="-0.41364">
        <ele>190.137148</ele>
        <time>2021-09-06T09:48:56.000Z</time>
      </trkpt>
      <trkpt lat="48.55765" lon="-0.41366">
        <ele>190.197782</ele>
        <time>2021-09-06T09:48:58.000Z</time>
      </trkpt>
      <trkpt lat="48.55769" lon="-0.41369">
        <ele>190.256494</ele>
        <time>2021-09-06T09:49:00.000Z</time>
      </trkpt>
      <trkpt lat="48.55778" lon="-0.41375">
        <ele>190.379844</ele>
        <time>2021-09-06T09:49:04.000Z</time>
      </trkpt>
      <trkpt lat="48.5579" lon="-0.41388">
        <ele>190.566846</ele>
        <time>2021-09-06T09:49:10.000Z</time>
      </trkpt>
      <trkpt lat="48.55807" lon="-0.41407">
        <ele>190.825935</ele>
        <time>2021-09-06T09:49:18.000Z</time>
      </trkpt>
      <trkpt lat="48.55826" lon="-0.41422">
        <ele>191.086792</ele>
        <time>2021-09-06T09:49:26.000Z</time>
      </trkpt>
      <trkpt lat="48.55846" lon="-0.41447">
        <ele>191.40288</ele>
        <time>2021-09-06T09:49:36.000Z</time>
      </trkpt>
      <trkpt lat="48.55858" lon="-0.41461">
        <ele>191.591672</ele>
        <time>2021-09-06T09:49:42.000Z</time>
      </trkpt>
      <trkpt lat="48.55864" lon="-0.41467">
        <ele>191.682844</ele>
        <time>2021-09-06T09:49:46.000Z</time>
      </trkpt>
      <trkpt lat="48.55867" lon="-0.41467">
        <ele>191.637696</ele>
        <time>2021-09-06T09:49:48.000Z</time>
      </trkpt>
      <trkpt lat="48.55868" lon="-0.41467">
        <ele>191.595437</ele>
        <time>2021-09-06T09:49:50.000Z</time>
      </trkpt>
      <trkpt lat="48.55746" lon="-0.4181">
        <ele>185.067702</ele>
        <time>2021-09-06T10:47:41.000Z</time>
      </trkpt>
      <trkpt lat="48.55745" lon="-0.41807">
        <ele>185.029361</ele>
        <time>2021-09-06T10:47:42.000Z</time>
      </trkpt>
      <trkpt lat="48.55742" lon="-0.41802">
        <ele>184.956787</ele>
        <time>2021-09-06T10:47:44.000Z</time>
      </trkpt>
      <trkpt lat="48.55732" lon="-0.41784">
        <ele>184.715777</ele>
        <time>2021-09-06T10:47:49.000Z</time>
      </trkpt>
      <trkpt lat="48.55725" lon="-0.41777">
        <ele>184.592377</ele>
        <time>2021-09-06T10:47:51.000Z</time>
      </trkpt>
      <trkpt lat="48.55718" lon="-0.41769">
        <ele>184.457316</ele>
        <time>2021-09-06T10:47:53.000Z</time>
      </trkpt>
      <trkpt lat="48.5571" lon="-0.4176">
        <ele>184.310431</ele>
        <time>2021-09-06T10:47:55.000Z</time>
      </trkpt>
      <trkpt lat="48.55706" lon="-0.41757">
        <ele>184.230255</ele>
        <time>2021-09-06T10:47:56.000Z</time>
      </trkpt>
      <trkpt lat="48.55695" lon="-0.41752">
        <ele>184.065893</ele>
        <time>2021-09-06T10:47:58.000Z</time>
      </trkpt>
      <trkpt lat="48.55689" lon="-0.4174">
        <ele>183.910126</ele>
        <time>2021-09-06T10:48:00.000Z</time>
      </trkpt>
      <trkpt lat="48.55689" lon="-0.41725">
        <ele>183.751265</ele>
        <time>2021-09-06T10:48:02.000Z</time>
      </trkpt>
      <trkpt lat="48.55689" lon="-0.41711">
        <ele>183.607479</ele>
        <time>2021-09-06T10:48:04.000Z</time>
      </trkpt>
      <trkpt lat="48.55688" lon="-0.41698">
        <ele>183.571645</ele>
        <time>2021-09-06T10:48:06.000Z</time>
      </trkpt>
      <trkpt lat="48.55683" lon="-0.41672">
        <ele>183.646504</ele>
        <time>2021-09-06T10:48:10.000Z</time>
      </trkpt>
      <trkpt lat="48.55682" lon="-0.41665">
        <ele>183.664798</ele>
        <time>2021-09-06T10:48:11.000Z</time>
      </trkpt>
      <trkpt lat="48.55682" lon="-0.41639">
        <ele>183.735957</ele>
        <time>2021-09-06T10:48:15.000Z</time>
      </trkpt>
      <trkpt lat="48.55686" lon="-0.41614">
        <ele>183.805817</ele>
        <time>2021-09-06T10:48:19.000Z</time>
      </trkpt>
      <trkpt lat="48.5569" lon="-0.41603">
        <ele>183.841914</ele>
        <time>2021-09-06T10:48:21.000Z</time>
      </trkpt>
      <trkpt lat="48.55692" lon="-0.41597">
        <ele>183.85903</ele>
        <time>2021-09-06T10:48:22.000Z</time>
      </trkpt>
      <trkpt lat="48.55698" lon="-0.41581">
        <ele>183.909636</ele>
        <time>2021-09-06T10:48:25.000Z</time>
      </trkpt>
      <trkpt lat="48.557" lon="-0.41576">
        <ele>183.927014</ele>
        <time>2021-09-06T10:48:26.000Z</time>
      </trkpt>
      <trkpt lat="48.55702" lon="-0.4157">
        <ele>183.944794</ele>
        <time>2021-09-06T10:48:27.000Z</time>
      </trkpt>
      <trkpt lat="48.55705" lon="-0.41558">
        <ele>183.980156</ele>
        <time>2021-09-06T10:48:29.000Z</time>
      </trkpt>
      <trkpt lat="48.5571" lon="-0.41541">
        <ele>184.031452</ele>
        <time>2021-09-06T10:48:32.000Z</time>
      </trkpt>
      <trkpt lat="48.55715" lon="-0.41524">
        <ele>184.080714</ele>
        <time>2021-09-06T10:48:35.000Z</time>
      </trkpt>
      <trkpt lat="48.55717" lon="-0.415">
        <ele>184.148291</ele>
        <time>2021-09-06T10:48:39.000Z</time>
      </trkpt>
      <trkpt lat="48.5572" lon="-0.4145">
        <ele>184.28598</ele>
        <time>2021-09-06T10:48:47.000Z</time>
      </trkpt>
      <trkpt lat="48.55721" lon="-0.41407">
        <ele>184.543909</ele>
        <time>2021-09-06T10:48:54.000Z</time>
      </trkpt>
      <trkpt lat="48.55716" lon="-0.4138">
        <ele>184.723975</ele>
        <time>2021-09-06T10:48:59.000Z</time>
      </trkpt>
      <trkpt lat="48.55713" lon="-0.41375">
        <ele>184.766033</ele>
        <time>2021-09-06T10:49:00.000Z</time>
      </trkpt>
      <trkpt lat="48.5571" lon="-0.41363">
        <ele>184.851133</ele>
        <time>2021-09-06T10:49:02.000Z</time>
      </trkpt>
      <trkpt lat="48.5571" lon="-0.41356">
        <ele>184.892036</ele>
        <time>2021-09-06T10:49:03.000Z</time>
      </trkpt>
      <trkpt lat="48.5571" lon="-0.41343">
        <ele>184.976387</ele>
        <time>2021-09-06T10:49:05.000Z</time>
      </trkpt>
      <trkpt lat="48.55709" lon="-0.41322">
        <ele>185.113162</ele>
        <time>2021-09-06T10:49:08.000Z</time>
      </trkpt>
      <trkpt lat="48.55703" lon="-0.41275">
        <ele>185.415903</ele>
        <time>2021-09-06T10:49:15.000Z</time>
      </trkpt>
      <trkpt lat="48.55702" lon="-0.41269">
        <ele>185.457206</ele>
        <time>2021-09-06T10:49:16.000Z</time>
      </trkpt>
      <trkpt lat="48.557" lon="-0.41257">
        <ele>185.535247</ele>
        <time>2021-09-06T10:49:18.000Z</time>
      </trkpt>
      <trkpt lat="48.55697" lon="-0.41246">
        <ele>185.609521</ele>
        <time>2021-09-06T10:49:20.000Z</time>
      </trkpt>
      <trkpt lat="48.55686" lon="-0.41216">
        <ele>185.826779</ele>
        <time>2021-09-06T10:49:26.000Z</time>
      </trkpt>
      <trkpt lat="48.55686" lon="-0.41188">
        <ele>186.007207</ele>
        <time>2021-09-06T10:49:31.000Z</time>
      </trkpt>
      <trkpt lat="48.55684" lon="-0.41159">
        <ele>186.348551</ele>
        <time>2021-09-06T10:49:36.000Z</time>
      </trkpt>
      <trkpt lat="48.55679" lon="-0.41124">
        <ele>186.800972</ele>
        <time>2021-09-06T10:49:42.000Z</time>
      </trkpt>
      <trkpt lat="48.55673" lon="-0.41079">
        <ele>187.371205</ele>
        <time>2021-09-06T10:49:50.000Z</time>
      </trkpt>
      <trkpt lat="48.55666" lon="-0.41041">
        <ele>187.864169</ele>
        <time>2021-09-06T10:49:57.000Z</time>
      </trkpt>
      <trkpt lat="48.55659" lon="-0.40986">
        <ele>188.564968</ele>
        <time>2021-09-06T10:50:07.000Z</time>
      </trkpt>
      <trkpt lat="48.55652" lon="-0.40941">
        <ele>189.134394</ele>
        <time>2021-09-06T10:50:15.000Z</time>
      </trkpt>
      <trkpt lat="48.55647" lon="-0.40907">
        <ele>189.578955</ele>
        <time>2021-09-06T10:50:21.000Z</time>
      </trkpt>
      <trkpt lat="48.55645" lon="-0.40878">
        <ele>189.962376</ele>
        <time>2021-09-06T10:50:26.000Z</time>
      </trkpt>
      <trkpt lat="48.55642" lon="-0.40844">
        <ele>190.412192</ele>
        <time>2021-09-06T10:50:32.000Z</time>
      </trkpt>
      <trkpt lat="48.5564" lon="-0.40816">
        <ele>190.789015</ele>
        <time>2021-09-06T10:50:37.000Z</time>
      </trkpt>
      <trkpt lat="48.55641" lon="-0.40788">
        <ele>191.153856</ele>
        <time>2021-09-06T10:50:42.000Z</time>
      </trkpt>
      <trkpt lat="48.55643" lon="-0.40752">
        <ele>191.62695</ele>
        <time>2021-09-06T10:50:49.000Z</time>
      </trkpt>
      <trkpt lat="48.55644" lon="-0.40721">
        <ele>192.034147</ele>
        <time>2021-09-06T10:50:54.000Z</time>
      </trkpt>
      <trkpt lat="48.55648" lon="-0.40681">
        <ele>192.569658</ele>
        <time>2021-09-06T10:51:01.000Z</time>
      </trkpt>
      <trkpt lat="48.55652" lon="-0.40648">
        <ele>193.02105</ele>
        <time>2021-09-06T10:51:07.000Z</time>
      </trkpt>
      <trkpt lat="48.55657" lon="-0.40621">
        <ele>193.472223</ele>
        <time>2021-09-06T10:51:12.000Z</time>
      </trkpt>
      <trkpt lat="48.55662" lon="-0.40593">
        <ele>193.948121</ele>
        <time>2021-09-06T10:51:17.000Z</time>
      </trkpt>
      <trkpt lat="48.5567" lon="-0.40563">
        <ele>194.466881</ele>
        <time>2021-09-06T10:51:22.000Z</time>
      </trkpt>
      <trkpt lat="48.55683" lon="-0.40519">
        <ele>195.250802</ele>
        <time>2021-09-06T10:51:30.000Z</time>
      </trkpt>
      <trkpt lat="48.55693" lon="-0.40494">
        <ele>195.722332</ele>
        <time>2021-09-06T10:51:35.000Z</time>
      </trkpt>
      <trkpt lat="48.55699" lon="-0.40485">
        <ele>195.918586</ele>
        <time>2021-09-06T10:51:37.000Z</time>
      </trkpt>
      <trkpt lat="48.55706" lon="-0.40471">
        <ele>196.210511</ele>
        <time>2021-09-06T10:51:40.000Z</time>
      </trkpt>
      <trkpt lat="48.55717" lon="-0.40438">
        <ele>196.804534</ele>
        <time>2021-09-06T10:51:46.000Z</time>
      </trkpt>
      <trkpt lat="48.55727" lon="-0.40402">
        <ele>197.435862</ele>
        <time>2021-09-06T10:51:53.000Z</time>
      </trkpt>
      <trkpt lat="48.55737" lon="-0.40375">
        <ele>197.787933</ele>
        <time>2021-09-06T10:51:58.000Z</time>
      </trkpt>
      <trkpt lat="48.55742" lon="-0.40364">
        <ele>197.938674</ele>
        <time>2021-09-06T10:52:00.000Z</time>
      </trkpt>
      <trkpt lat="48.55749" lon="-0.4034">
        <ele>198.240697</ele>
        <time>2021-09-06T10:52:04.000Z</time>
      </trkpt>
      <trkpt lat="48.55763" lon="-0.40301">
        <ele>198.749505</ele>
        <time>2021-09-06T10:52:11.000Z</time>
      </trkpt>
      <trkpt lat="48.55771" lon="-0.40277">
        <ele>199.059995</ele>
        <time>2021-09-06T10:52:15.000Z</time>
      </trkpt>
      <trkpt lat="48.55777" lon="-0.40258">
        <ele>199.300806</ele>
        <time>2021-09-06T10:52:18.000Z</time>
      </trkpt>
      <trkpt lat="48.55787" lon="-0.40225">
        <ele>199.721832</ele>
        <time>2021-09-06T10:52:23.000Z</time>
      </trkpt>
      <trkpt lat="48.55789" lon="-0.40218">
        <ele>199.802302</ele>
        <time>2021-09-06T10:52:24.000Z</time>
      </trkpt>
      <trkpt lat="48.55791" lon="-0.40212">
        <ele>199.886359</ele>
        <time>2021-09-06T10:52:25.000Z</time>
      </trkpt>
      <trkpt lat="48.55797" lon="-0.40191">
        <ele>200.154772</ele>
        <time>2021-09-06T10:52:28.000Z</time>
      </trkpt>
      <trkpt lat="48.558" lon="-0.40184">
        <ele>200.244753</ele>
        <time>2021-09-06T10:52:29.000Z</time>
      </trkpt>
      <trkpt lat="48.55815" lon="-0.40142">
        <ele>200.420412</ele>
        <time>2021-09-06T10:52:35.000Z</time>
      </trkpt>
      <trkpt lat="48.55829" lon="-0.40099">
        <ele>200.192992</ele>
        <time>2021-09-06T10:52:41.000Z</time>
      </trkpt>
      <trkpt lat="48.55831" lon="-0.40092">
        <ele>200.154476</ele>
        <time>2021-09-06T10:52:42.000Z</time>
      </trkpt>
      <trkpt lat="48.55841" lon="-0.40061">
        <ele>199.990208</ele>
        <time>2021-09-06T10:52:46.000Z</time>
      </trkpt>
      <trkpt lat="48.55843" lon="-0.40054">
        <ele>199.956036</ele>
        <time>2021-09-06T10:52:47.000Z</time>
      </trkpt>
      <trkpt lat="48.55848" lon="-0.40038">
        <ele>199.870305</ele>
        <time>2021-09-06T10:52:50.000Z</time>
      </trkpt>
      <trkpt lat="48.55852" lon="-0.40009">
        <ele>199.72843</ele>
        <time>2021-09-06T10:52:55.000Z</time>
      </trkpt>
      <trkpt lat="48.55861" lon="-0.39981">
        <ele>199.585185</ele>
        <time>2021-09-06T10:52:59.000Z</time>
      </trkpt>
      <trkpt lat="48.55864" lon="-0.39974">
        <ele>199.545126</ele>
        <time>2021-09-06T10:53:00.000Z</time>
      </trkpt>
      <trkpt lat="48.55878" lon="-0.39926">
        <ele>199.292448</ele>
        <time>2021-09-06T10:53:06.000Z</time>
      </trkpt>
      <trkpt lat="48.55881" lon="-0.39918">
        <ele>199.252389</ele>
        <time>2021-09-06T10:53:07.000Z</time>
      </trkpt>
      <trkpt lat="48.55889" lon="-0.39893">
        <ele>199.063646</ele>
        <time>2021-09-06T10:53:10.000Z</time>
      </trkpt>
      <trkpt lat="48.55891" lon="-0.39883">
        <ele>198.992994</ele>
        <time>2021-09-06T10:53:11.000Z</time>
      </trkpt>
      <trkpt lat="48.5589" lon="-0.39865">
        <ele>198.864743</ele>
        <time>2021-09-06T10:53:13.000Z</time>
      </trkpt>
      <trkpt lat="48.55889" lon="-0.39847">
        <ele>198.740377</ele>
        <time>2021-09-06T10:53:16.000Z</time>
      </trkpt>
      <trkpt lat="48.55894" lon="-0.3983">
        <ele>198.61051</ele>
        <time>2021-09-06T10:53:19.000Z</time>
      </trkpt>
      <trkpt lat="48.55898" lon="-0.39825">
        <ele>198.560898</ele>
        <time>2021-09-06T10:53:20.000Z</time>
      </trkpt>
      <trkpt lat="48.55924" lon="-0.39796">
        <ele>198.219531</ele>
        <time>2021-09-06T10:53:26.000Z</time>
      </trkpt>
      <trkpt lat="48.55965" lon="-0.39754">
        <ele>197.701036</ele>
        <time>2021-09-06T10:53:33.000Z</time>
      </trkpt>
      <trkpt lat="48.56004" lon="-0.39711">
        <ele>197.376925</ele>
        <time>2021-09-06T10:53:40.000Z</time>
      </trkpt>
      <trkpt lat="48.56042" lon="-0.39668">
        <ele>197.467875</ele>
        <time>2021-09-06T10:53:47.000Z</time>
      </trkpt>
      <trkpt lat="48.56076" lon="-0.39633">
        <ele>197.547933</ele>
        <time>2021-09-06T10:53:53.000Z</time>
      </trkpt>
      <trkpt lat="48.56099" lon="-0.39609">
        <ele>197.600717</ele>
        <time>2021-09-06T10:53:57.000Z</time>
      </trkpt>
      <trkpt lat="48.56129" lon="-0.39578">
        <ele>197.670021</ele>
        <time>2021-09-06T10:54:02.000Z</time>
      </trkpt>
      <trkpt lat="48.56133" lon="-0.39569">
        <ele>197.683919</ele>
        <time>2021-09-06T10:54:03.000Z</time>
      </trkpt>
      <trkpt lat="48.56136" lon="-0.39559">
        <ele>197.766456</ele>
        <time>2021-09-06T10:54:04.000Z</time>
      </trkpt>
      <trkpt lat="48.56136" lon="-0.39549">
        <ele>198.011532</ele>
        <time>2021-09-06T10:54:05.000Z</time>
      </trkpt>
      <trkpt lat="48.56135" lon="-0.3954">
        <ele>198.250279</ele>
        <time>2021-09-06T10:54:06.000Z</time>
      </trkpt>
      <trkpt lat="48.56127" lon="-0.39515">
        <ele>198.915416</ele>
        <time>2021-09-06T10:54:09.000Z</time>
      </trkpt>
      <trkpt lat="48.56121" lon="-0.39503">
        <ele>199.285484</ele>
        <time>2021-09-06T10:54:11.000Z</time>
      </trkpt>
      <trkpt lat="48.56115" lon="-0.39493">
        <ele>199.639598</ele>
        <time>2021-09-06T10:54:13.000Z</time>
      </trkpt>
      <trkpt lat="48.56099" lon="-0.39466">
        <ele>200.53701</ele>
        <time>2021-09-06T10:54:19.000Z</time>
      </trkpt>
      <trkpt lat="48.56089" lon="-0.39448">
        <ele>201.114723</ele>
        <time>2021-09-06T10:54:23.000Z</time>
      </trkpt>
      <trkpt lat="48.56077" lon="-0.39425">
        <ele>201.827729</ele>
        <time>2021-09-06T10:54:28.000Z</time>
      </trkpt>
      <trkpt lat="48.56062" lon="-0.39398">
        <ele>202.720609</ele>
        <time>2021-09-06T10:54:35.000Z</time>
      </trkpt>
      <trkpt lat="48.56051" lon="-0.3938">
        <ele>203.318314</ele>
        <time>2021-09-06T10:54:40.000Z</time>
      </trkpt>
      <trkpt lat="48.56044" lon="-0.39366">
        <ele>203.738026</ele>
        <time>2021-09-06T10:54:44.000Z</time>
      </trkpt>
      <trkpt lat="48.56033" lon="-0.39347">
        <ele>204.376632</ele>
        <time>2021-09-06T10:54:50.000Z</time>
      </trkpt>
      <trkpt lat="48.56033" lon="-0.39344">
        <ele>204.46389</ele>
        <time>2021-09-06T10:54:51.000Z</time>
      </trkpt>
      <trkpt lat="48.5603" lon="-0.39338">
        <ele>204.706525</ele>
        <time>2021-09-06T10:54:53.000Z</time>
      </trkpt>
      <trkpt lat="48.56022" lon="-0.39326">
        <ele>205.314497</ele>
        <time>2021-09-06T10:54:58.000Z</time>
      </trkpt>
      <trkpt lat="48.56017" lon="-0.39314">
        <ele>205.829782</ele>
        <time>2021-09-06T10:55:02.000Z</time>
      </trkpt>
      <trkpt lat="48.56009" lon="-0.39299">
        <ele>206.516174</ele>
        <time>2021-09-06T10:55:07.000Z</time>
      </trkpt>
      <trkpt lat="48.55999" lon="-0.39271">
        <ele>207.671264</ele>
        <time>2021-09-06T10:55:14.000Z</time>
      </trkpt>
      <trkpt lat="48.55988" lon="-0.39249">
        <ele>208.666441</ele>
        <time>2021-09-06T10:55:21.000Z</time>
      </trkpt>
      <trkpt lat="48.55978" lon="-0.39229">
        <ele>209.542668</ele>
        <time>2021-09-06T10:55:27.000Z</time>
      </trkpt>
      <trkpt lat="48.55976" lon="-0.39226">
        <ele>209.73166</ele>
        <time>2021-09-06T10:55:28.000Z</time>
      </trkpt>
      <trkpt lat="48.55964" lon="-0.39207">
        <ele>210.677635</ele>
        <time>2021-09-06T10:55:33.000Z</time>
      </trkpt>
      <trkpt lat="48.55954" lon="-0.39189">
        <ele>211.528039</ele>
        <time>2021-09-06T10:55:38.000Z</time>
      </trkpt>
      <trkpt lat="48.55945" lon="-0.39172">
        <ele>212.274972</ele>
        <time>2021-09-06T10:55:42.000Z</time>
      </trkpt>
      <trkpt lat="48.55931" lon="-0.39148">
        <ele>213.426817</ele>
        <time>2021-09-06T10:55:47.000Z</time>
      </trkpt>
      <trkpt lat="48.55929" lon="-0.39142">
        <ele>213.673228</ele>
        <time>2021-09-06T10:55:48.000Z</time>
      </trkpt>
      <trkpt lat="48.55913" lon="-0.39113">
        <ele>214.146025</ele>
        <time>2021-09-06T10:55:54.000Z</time>
      </trkpt>
      <trkpt lat="48.55901" lon="-0.39091">
        <ele>214.103028</ele>
        <time>2021-09-06T10:55:58.000Z</time>
      </trkpt>
      <trkpt lat="48.5589" lon="-0.39074">
        <ele>214.068097</ele>
        <time>2021-09-06T10:56:01.000Z</time>
      </trkpt>
      <trkpt lat="48.55884" lon="-0.39062">
        <ele>214.044199</ele>
        <time>2021-09-06T10:56:03.000Z</time>
      </trkpt>
      <trkpt lat="48.55866" lon="-0.3903">
        <ele>213.979427</ele>
        <time>2021-09-06T10:56:08.000Z</time>
      </trkpt>
      <trkpt lat="48.55845" lon="-0.38993">
        <ele>213.90535</ele>
        <time>2021-09-06T10:56:13.000Z</time>
      </trkpt>
      <trkpt lat="48.55823" lon="-0.38957">
        <ele>213.829128</ele>
        <time>2021-09-06T10:56:18.000Z</time>
      </trkpt>
      <trkpt lat="48.55802" lon="-0.38922">
        <ele>213.718537</ele>
        <time>2021-09-06T10:56:23.000Z</time>
      </trkpt>
      <trkpt lat="48.55798" lon="-0.38916">
        <ele>213.646567</ele>
        <time>2021-09-06T10:56:24.000Z</time>
      </trkpt>
      <trkpt lat="48.55792" lon="-0.38904">
        <ele>213.515445</ele>
        <time>2021-09-06T10:56:26.000Z</time>
      </trkpt>
      <trkpt lat="48.55789" lon="-0.38899">
        <ele>213.458351</ele>
        <time>2021-09-06T10:56:27.000Z</time>
      </trkpt>
      <trkpt lat="48.55773" lon="-0.38871">
        <ele>213.137344</ele>
        <time>2021-09-06T10:56:32.000Z</time>
      </trkpt>
      <trkpt lat="48.55755" lon="-0.38837">
        <ele>212.768513</ele>
        <time>2021-09-06T10:56:38.000Z</time>
      </trkpt>
      <trkpt lat="48.55745" lon="-0.38821">
        <ele>212.58566</ele>
        <time>2021-09-06T10:56:41.000Z</time>
      </trkpt>
      <trkpt lat="48.55739" lon="-0.38809">
        <ele>212.459474</ele>
        <time>2021-09-06T10:56:43.000Z</time>
      </trkpt>
      <trkpt lat="48.55728" lon="-0.38791">
        <ele>212.24331</ele>
        <time>2021-09-06T10:56:46.000Z</time>
      </trkpt>
      <trkpt lat="48.55721" lon="-0.38778">
        <ele>212.106156</ele>
        <time>2021-09-06T10:56:48.000Z</time>
      </trkpt>
      <trkpt lat="48.55701" lon="-0.3874">
        <ele>211.68611</ele>
        <time>2021-09-06T10:56:54.000Z</time>
      </trkpt>
      <trkpt lat="48.55685" lon="-0.38714">
        <ele>211.331752</ele>
        <time>2021-09-06T10:56:58.000Z</time>
      </trkpt>
      <trkpt lat="48.55682" lon="-0.38708">
        <ele>211.216679</ele>
        <time>2021-09-06T10:56:59.000Z</time>
      </trkpt>
      <trkpt lat="48.5568" lon="-0.38703">
        <ele>211.108315</ele>
        <time>2021-09-06T10:57:00.000Z</time>
      </trkpt>
      <trkpt lat="48.55673" lon="-0.38692">
        <ele>210.851281</ele>
        <time>2021-09-06T10:57:02.000Z</time>
      </trkpt>
      <trkpt lat="48.55666" lon="-0.38679">
        <ele>210.587573</ele>
        <time>2021-09-06T10:57:04.000Z</time>
      </trkpt>
      <trkpt lat="48.55659" lon="-0.38666">
        <ele>210.304063</ele>
        <time>2021-09-06T10:57:06.000Z</time>
      </trkpt>
      <trkpt lat="48.55651" lon="-0.38652">
        <ele>210.006322</ele>
        <time>2021-09-06T10:57:08.000Z</time>
      </trkpt>
      <trkpt lat="48.55645" lon="-0.38639">
        <ele>209.740007</ele>
        <time>2021-09-06T10:57:10.000Z</time>
      </trkpt>
      <trkpt lat="48.5563" lon="-0.38612">
        <ele>209.163825</ele>
        <time>2021-09-06T10:57:14.000Z</time>
      </trkpt>
      <trkpt lat="48.55612" lon="-0.3858">
        <ele>208.464527</ele>
        <time>2021-09-06T10:57:19.000Z</time>
      </trkpt>
      <trkpt lat="48.55608" lon="-0.38574">
        <ele>208.330999</ele>
        <time>2021-09-06T10:57:20.000Z</time>
      </trkpt>
      <trkpt lat="48.55596" lon="-0.38554">
        <ele>207.901546</ele>
        <time>2021-09-06T10:57:23.000Z</time>
      </trkpt>
      <trkpt lat="48.55589" lon="-0.3854">
        <ele>207.600008</ele>
        <time>2021-09-06T10:57:25.000Z</time>
      </trkpt>
      <trkpt lat="48.55577" lon="-0.38519">
        <ele>207.14751</ele>
        <time>2021-09-06T10:57:28.000Z</time>
      </trkpt>
      <trkpt lat="48.55562" lon="-0.38492">
        <ele>206.628965</ele>
        <time>2021-09-06T10:57:32.000Z</time>
      </trkpt>
      <trkpt lat="48.5555" lon="-0.38471">
        <ele>206.249082</ele>
        <time>2021-09-06T10:57:35.000Z</time>
      </trkpt>
      <trkpt lat="48.55545" lon="-0.38457">
        <ele>206.025776</ele>
        <time>2021-09-06T10:57:37.000Z</time>
      </trkpt>
      <trkpt lat="48.55538" lon="-0.38444">
        <ele>205.794896</ele>
        <time>2021-09-06T10:57:39.000Z</time>
      </trkpt>
      <trkpt lat="48.55525" lon="-0.38422">
        <ele>205.397685</ele>
        <time>2021-09-06T10:57:42.000Z</time>
      </trkpt>
      <trkpt lat="48.55512" lon="-0.38399">
        <ele>204.972941</ele>
        <time>2021-09-06T10:57:45.000Z</time>
      </trkpt>
      <trkpt lat="48.55504" lon="-0.38383">
        <ele>204.698838</ele>
        <time>2021-09-06T10:57:47.000Z</time>
      </trkpt>
      <trkpt lat="48.55483" lon="-0.38343">
        <ele>203.977096</ele>
        <time>2021-09-06T10:57:52.000Z</time>
      </trkpt>
      <trkpt lat="48.5546" lon="-0.38302">
        <ele>203.244268</ele>
        <time>2021-09-06T10:57:57.000Z</time>
      </trkpt>
      <trkpt lat="48.55452" lon="-0.38287">
        <ele>203.142219</ele>
        <time>2021-09-06T10:57:59.000Z</time>
      </trkpt>
      <trkpt lat="48.55443" lon="-0.38271">
        <ele>203.049964</ele>
        <time>2021-09-06T10:58:01.000Z</time>
      </trkpt>
      <trkpt lat="48.55423" lon="-0.38232">
        <ele>202.833264</ele>
        <time>2021-09-06T10:58:06.000Z</time>
      </trkpt>
      <trkpt lat="48.55411" lon="-0.38209">
        <ele>202.703918</ele>
        <time>2021-09-06T10:58:09.000Z</time>
      </trkpt>
      <trkpt lat="48.55401" lon="-0.38195">
        <ele>202.618097</ele>
        <time>2021-09-06T10:58:11.000Z</time>
      </trkpt>
      <trkpt lat="48.55394" lon="-0.3818">
        <ele>202.538515</ele>
        <time>2021-09-06T10:58:13.000Z</time>
      </trkpt>
      <trkpt lat="48.55387" lon="-0.38166">
        <ele>202.459988</ele>
        <time>2021-09-06T10:58:15.000Z</time>
      </trkpt>
      <trkpt lat="48.55377" lon="-0.38146">
        <ele>202.348203</ele>
        <time>2021-09-06T10:58:18.000Z</time>
      </trkpt>
      <trkpt lat="48.55369" lon="-0.38133">
        <ele>202.27377</ele>
        <time>2021-09-06T10:58:20.000Z</time>
      </trkpt>
      <trkpt lat="48.55357" lon="-0.38113">
        <ele>202.157147</ele>
        <time>2021-09-06T10:58:23.000Z</time>
      </trkpt>
      <trkpt lat="48.55349" lon="-0.38101">
        <ele>202.081719</ele>
        <time>2021-09-06T10:58:25.000Z</time>
      </trkpt>
      <trkpt lat="48.5534" lon="-0.38089">
        <ele>201.976414</ele>
        <time>2021-09-06T10:58:27.000Z</time>
      </trkpt>
      <trkpt lat="48.55333" lon="-0.38076">
        <ele>201.835186</ele>
        <time>2021-09-06T10:58:29.000Z</time>
      </trkpt>
      <trkpt lat="48.5533" lon="-0.3807">
        <ele>201.775005</ele>
        <time>2021-09-06T10:58:30.000Z</time>
      </trkpt>
      <trkpt lat="48.55324" lon="-0.38056">
        <ele>201.642263</ele>
        <time>2021-09-06T10:58:32.000Z</time>
      </trkpt>
      <trkpt lat="48.5532" lon="-0.3805">
        <ele>201.569934</ele>
        <time>2021-09-06T10:58:33.000Z</time>
      </trkpt>
      <trkpt lat="48.55309" lon="-0.38029">
        <ele>201.345543</ele>
        <time>2021-09-06T10:58:36.000Z</time>
      </trkpt>
      <trkpt lat="48.55288" lon="-0.37995">
        <ele>200.968055</ele>
        <time>2021-09-06T10:58:41.000Z</time>
      </trkpt>
      <trkpt lat="48.55263" lon="-0.37949">
        <ele>200.477138</ele>
        <time>2021-09-06T10:58:48.000Z</time>
      </trkpt>
      <trkpt lat="48.55252" lon="-0.37929">
        <ele>200.270694</ele>
        <time>2021-09-06T10:58:51.000Z</time>
      </trkpt>
      <trkpt lat="48.55245" lon="-0.37915">
        <ele>200.120993</ele>
        <time>2021-09-06T10:58:53.000Z</time>
      </trkpt>
      <trkpt lat="48.55229" lon="-0.37886">
        <ele>199.81734</ele>
        <time>2021-09-06T10:58:57.000Z</time>
      </trkpt>
      <trkpt lat="48.55217" lon="-0.37862">
        <ele>199.730362</ele>
        <time>2021-09-06T10:59:00.000Z</time>
      </trkpt>
      <trkpt lat="48.55213" lon="-0.37855">
        <ele>199.704629</ele>
        <time>2021-09-06T10:59:01.000Z</time>
      </trkpt>
      <trkpt lat="48.55204" lon="-0.37839">
        <ele>199.651982</ele>
        <time>2021-09-06T10:59:03.000Z</time>
      </trkpt>
      <trkpt lat="48.55195" lon="-0.37823">
        <ele>199.597974</ele>
        <time>2021-09-06T10:59:05.000Z</time>
      </trkpt>
      <trkpt lat="48.55182" lon="-0.378">
        <ele>199.519828</ele>
        <time>2021-09-06T10:59:08.000Z</time>
      </trkpt>
      <trkpt lat="48.55178" lon="-0.37793">
        <ele>199.498903</ele>
        <time>2021-09-06T10:59:09.000Z</time>
      </trkpt>
      <trkpt lat="48.55175" lon="-0.37786">
        <ele>199.476661</ele>
        <time>2021-09-06T10:59:10.000Z</time>
      </trkpt>
      <trkpt lat="48.55162" lon="-0.37763">
        <ele>199.400534</ele>
        <time>2021-09-06T10:59:13.000Z</time>
      </trkpt>
      <trkpt lat="48.55126" lon="-0.37699">
        <ele>199.184413</ele>
        <time>2021-09-06T10:59:21.000Z</time>
      </trkpt>
      <trkpt lat="48.55113" lon="-0.37674">
        <ele>199.115013</ele>
        <time>2021-09-06T10:59:24.000Z</time>
      </trkpt>
      <trkpt lat="48.551" lon="-0.3765">
        <ele>199.181272</ele>
        <time>2021-09-06T10:59:27.000Z</time>
      </trkpt>
      <trkpt lat="48.55082" lon="-0.37617">
        <ele>199.274178</ele>
        <time>2021-09-06T10:59:31.000Z</time>
      </trkpt>
      <trkpt lat="48.55077" lon="-0.37608">
        <ele>199.299131</ele>
        <time>2021-09-06T10:59:32.000Z</time>
      </trkpt>
      <trkpt lat="48.55051" lon="-0.37562">
        <ele>199.429359</ele>
        <time>2021-09-06T10:59:37.000Z</time>
      </trkpt>
      <trkpt lat="48.55027" lon="-0.37518">
        <ele>199.553856</ele>
        <time>2021-09-06T10:59:42.000Z</time>
      </trkpt>
      <trkpt lat="48.55018" lon="-0.37501">
        <ele>199.60313</ele>
        <time>2021-09-06T10:59:44.000Z</time>
      </trkpt>
      <trkpt lat="48.55008" lon="-0.37484">
        <ele>199.650415</ele>
        <time>2021-09-06T10:59:46.000Z</time>
      </trkpt>
      <trkpt lat="48.55" lon="-0.37467">
        <ele>199.695704</ele>
        <time>2021-09-06T10:59:48.000Z</time>
      </trkpt>
      <trkpt lat="48.54993" lon="-0.37451">
        <ele>199.848492</ele>
        <time>2021-09-06T10:59:50.000Z</time>
      </trkpt>
      <trkpt lat="48.54978" lon="-0.37403">
        <ele>200.291755</ele>
        <time>2021-09-06T10:59:55.000Z</time>
      </trkpt>
      <trkpt lat="48.54975" lon="-0.37394">
        <ele>200.380408</ele>
        <time>2021-09-06T10:59:56.000Z</time>
      </trkpt>
      <trkpt lat="48.54969" lon="-0.37378">
        <ele>200.536521</ele>
        <time>2021-09-06T10:59:58.000Z</time>
      </trkpt>
      <trkpt lat="48.54968" lon="-0.3736">
        <ele>200.683103</ele>
        <time>2021-09-06T11:00:00.000Z</time>
      </trkpt>
      <trkpt lat="48.54965" lon="-0.37351">
        <ele>200.766459</ele>
        <time>2021-09-06T11:00:01.000Z</time>
      </trkpt>
      <trkpt lat="48.54955" lon="-0.37304">
        <ele>201.179557</ele>
        <time>2021-09-06T11:00:06.000Z</time>
      </trkpt>
      <trkpt lat="48.54942" lon="-0.3725">
        <ele>201.656357</ele>
        <time>2021-09-06T11:00:12.000Z</time>
      </trkpt>
      <trkpt lat="48.54938" lon="-0.37232">
        <ele>201.8186</ele>
        <time>2021-09-06T11:00:14.000Z</time>
      </trkpt>
      <trkpt lat="48.54931" lon="-0.37203">
        <ele>202.134397</ele>
        <time>2021-09-06T11:00:17.000Z</time>
      </trkpt>
      <trkpt lat="48.54928" lon="-0.37184">
        <ele>202.383476</ele>
        <time>2021-09-06T11:00:19.000Z</time>
      </trkpt>
      <trkpt lat="48.54924" lon="-0.37167">
        <ele>202.615602</ele>
        <time>2021-09-06T11:00:21.000Z</time>
      </trkpt>
      <trkpt lat="48.54915" lon="-0.37123">
        <ele>203.219196</ele>
        <time>2021-09-06T11:00:26.000Z</time>
      </trkpt>
      <trkpt lat="48.54914" lon="-0.37116">
        <ele>203.309213</ele>
        <time>2021-09-06T11:00:27.000Z</time>
      </trkpt>
      <trkpt lat="48.54911" lon="-0.37095">
        <ele>203.582399</ele>
        <time>2021-09-06T11:00:30.000Z</time>
      </trkpt>
      <trkpt lat="48.54908" lon="-0.37087">
        <ele>203.70509</ele>
        <time>2021-09-06T11:00:31.000Z</time>
      </trkpt>
      <trkpt lat="48.549" lon="-0.37059">
        <ele>204.099638</ele>
        <time>2021-09-06T11:00:34.000Z</time>
      </trkpt>
      <trkpt lat="48.54895" lon="-0.37043">
        <ele>204.322456</ele>
        <time>2021-09-06T11:00:36.000Z</time>
      </trkpt>
      <trkpt lat="48.54892" lon="-0.37035">
        <ele>204.437626</ele>
        <time>2021-09-06T11:00:37.000Z</time>
      </trkpt>
      <trkpt lat="48.5489" lon="-0.37027">
        <ele>204.552338</ele>
        <time>2021-09-06T11:00:38.000Z</time>
      </trkpt>
      <trkpt lat="48.54887" lon="-0.37012">
        <ele>204.762125</ele>
        <time>2021-09-06T11:00:40.000Z</time>
      </trkpt>
      <trkpt lat="48.54878" lon="-0.36974">
        <ele>205.272497</ele>
        <time>2021-09-06T11:00:45.000Z</time>
      </trkpt>
      <trkpt lat="48.5487" lon="-0.36949">
        <ele>205.556164</ele>
        <time>2021-09-06T11:00:48.000Z</time>
      </trkpt>
      <trkpt lat="48.54866" lon="-0.36934">
        <ele>205.65864</ele>
        <time>2021-09-06T11:00:50.000Z</time>
      </trkpt>
      <trkpt lat="48.54865" lon="-0.36927">
        <ele>205.709874</ele>
        <time>2021-09-06T11:00:51.000Z</time>
      </trkpt>
      <trkpt lat="48.54858" lon="-0.36897">
        <ele>205.91451</ele>
        <time>2021-09-06T11:00:55.000Z</time>
      </trkpt>
      <trkpt lat="48.54846" lon="-0.36849">
        <ele>206.238225</ele>
        <time>2021-09-06T11:01:02.000Z</time>
      </trkpt>
      <trkpt lat="48.54842" lon="-0.3682">
        <ele>206.430481</ele>
        <time>2021-09-06T11:01:06.000Z</time>
      </trkpt>
      <trkpt lat="48.54843" lon="-0.36805">
        <ele>206.523639</ele>
        <time>2021-09-06T11:01:08.000Z</time>
      </trkpt>
      <trkpt lat="48.54842" lon="-0.36799">
        <ele>206.568347</ele>
        <time>2021-09-06T11:01:09.000Z</time>
      </trkpt>
      <trkpt lat="48.54839" lon="-0.36776">
        <ele>206.716345</ele>
        <time>2021-09-06T11:01:12.000Z</time>
      </trkpt>
      <trkpt lat="48.54838" lon="-0.36769">
        <ele>206.760258</ele>
        <time>2021-09-06T11:01:13.000Z</time>
      </trkpt>
      <trkpt lat="48.54834" lon="-0.3675">
        <ele>206.889863</ele>
        <time>2021-09-06T11:01:16.000Z</time>
      </trkpt>
      <trkpt lat="48.54831" lon="-0.36727">
        <ele>207.044246</ele>
        <time>2021-09-06T11:01:19.000Z</time>
      </trkpt>
      <trkpt lat="48.54829" lon="-0.36719">
        <ele>207.097154</ele>
        <time>2021-09-06T11:01:20.000Z</time>
      </trkpt>
      <trkpt lat="48.54821" lon="-0.36699">
        <ele>207.197325</ele>
        <time>2021-09-06T11:01:23.000Z</time>
      </trkpt>
      <trkpt lat="48.54811" lon="-0.36682">
        <ele>207.005593</ele>
        <time>2021-09-06T11:01:26.000Z</time>
      </trkpt>
      <trkpt lat="48.54808" lon="-0.36676">
        <ele>206.942401</ele>
        <time>2021-09-06T11:01:27.000Z</time>
      </trkpt>
      <trkpt lat="48.54803" lon="-0.36664">
        <ele>206.820819</ele>
        <time>2021-09-06T11:01:29.000Z</time>
      </trkpt>
      <trkpt lat="48.54798" lon="-0.36651">
        <ele>206.693015</ele>
        <time>2021-09-06T11:01:31.000Z</time>
      </trkpt>
      <trkpt lat="48.54792" lon="-0.36627">
        <ele>206.477458</ele>
        <time>2021-09-06T11:01:34.000Z</time>
      </trkpt>
      <trkpt lat="48.54791" lon="-0.36619">
        <ele>206.404039</ele>
        <time>2021-09-06T11:01:35.000Z</time>
      </trkpt>
      <trkpt lat="48.5479" lon="-0.3661">
        <ele>206.331428</ele>
        <time>2021-09-06T11:01:36.000Z</time>
      </trkpt>
      <trkpt lat="48.54783" lon="-0.36583">
        <ele>206.079949</ele>
        <time>2021-09-06T11:01:39.000Z</time>
      </trkpt>
      <trkpt lat="48.54768" lon="-0.36524">
        <ele>205.546343</ele>
        <time>2021-09-06T11:01:45.000Z</time>
      </trkpt>
      <trkpt lat="48.54754" lon="-0.36469">
        <ele>205.047476</ele>
        <time>2021-09-06T11:01:50.000Z</time>
      </trkpt>
      <trkpt lat="48.5474" lon="-0.36408">
        <ele>204.44939</ele>
        <time>2021-09-06T11:01:56.000Z</time>
      </trkpt>
      <trkpt lat="48.54725" lon="-0.36346">
        <ele>203.822284</ele>
        <time>2021-09-06T11:02:02.000Z</time>
      </trkpt>
      <trkpt lat="48.54723" lon="-0.36336">
        <ele>203.719077</ele>
        <time>2021-09-06T11:02:03.000Z</time>
      </trkpt>
      <trkpt lat="48.54708" lon="-0.36272">
        <ele>203.077592</ele>
        <time>2021-09-06T11:02:09.000Z</time>
      </trkpt>
      <trkpt lat="48.54695" lon="-0.3621">
        <ele>202.461378</ele>
        <time>2021-09-06T11:02:15.000Z</time>
      </trkpt>
      <trkpt lat="48.54689" lon="-0.3619">
        <ele>202.187503</ele>
        <time>2021-09-06T11:02:17.000Z</time>
      </trkpt>
      <trkpt lat="48.54679" lon="-0.36159">
        <ele>201.60722</ele>
        <time>2021-09-06T11:02:20.000Z</time>
      </trkpt>
      <trkpt lat="48.54663" lon="-0.36095">
        <ele>200.440798</ele>
        <time>2021-09-06T11:02:26.000Z</time>
      </trkpt>
      <trkpt lat="48.54645" lon="-0.36022">
        <ele>199.123</ele>
        <time>2021-09-06T11:02:32.000Z</time>
      </trkpt>
      <trkpt lat="48.54626" lon="-0.35943">
        <ele>197.655889</ele>
        <time>2021-09-06T11:02:38.000Z</time>
      </trkpt>
      <trkpt lat="48.54622" lon="-0.3593">
        <ele>197.310257</ele>
        <time>2021-09-06T11:02:39.000Z</time>
      </trkpt>
      <trkpt lat="48.54606" lon="-0.35864">
        <ele>195.585366</ele>
        <time>2021-09-06T11:02:44.000Z</time>
      </trkpt>
      <trkpt lat="48.54602" lon="-0.35851">
        <ele>195.223405</ele>
        <time>2021-09-06T11:02:45.000Z</time>
      </trkpt>
      <trkpt lat="48.54588" lon="-0.35796">
        <ele>193.751454</ele>
        <time>2021-09-06T11:02:49.000Z</time>
      </trkpt>
      <trkpt lat="48.5457" lon="-0.35719">
        <ele>191.721761</ele>
        <time>2021-09-06T11:02:54.000Z</time>
      </trkpt>
      <trkpt lat="48.54551" lon="-0.35646">
        <ele>190.860376</ele>
        <time>2021-09-06T11:02:59.000Z</time>
      </trkpt>
      <trkpt lat="48.54545" lon="-0.35622">
        <ele>190.793303</ele>
        <time>2021-09-06T11:03:01.000Z</time>
      </trkpt>
      <trkpt lat="48.54542" lon="-0.35612">
        <ele>190.766502</ele>
        <time>2021-09-06T11:03:02.000Z</time>
      </trkpt>
      <trkpt lat="48.54539" lon="-0.35605">
        <ele>190.744708</ele>
        <time>2021-09-06T11:03:03.000Z</time>
      </trkpt>
      <trkpt lat="48.54536" lon="-0.35596">
        <ele>190.715818</ele>
        <time>2021-09-06T11:03:05.000Z</time>
      </trkpt>
      <trkpt lat="48.54535" lon="-0.35592">
        <ele>190.705916</ele>
        <time>2021-09-06T11:03:06.000Z</time>
      </trkpt>
      <trkpt lat="48.54535" lon="-0.35583">
        <ele>190.680002</ele>
        <time>2021-09-06T11:03:09.000Z</time>
      </trkpt>
      <trkpt lat="48.54533" lon="-0.35565">
        <ele>190.634027</ele>
        <time>2021-09-06T11:03:14.000Z</time>
      </trkpt>
      <trkpt lat="48.5453" lon="-0.35548">
        <ele>190.585749</ele>
        <time>2021-09-06T11:03:20.000Z</time>
      </trkpt>
      <trkpt lat="48.54525" lon="-0.35531">
        <ele>190.535678</ele>
        <time>2021-09-06T11:03:26.000Z</time>
      </trkpt>
      <trkpt lat="48.54522" lon="-0.35515">
        <ele>190.49255</ele>
        <time>2021-09-06T11:03:31.000Z</time>
      </trkpt>
      <trkpt lat="48.54521" lon="-0.35509">
        <ele>190.477341</ele>
        <time>2021-09-06T11:03:33.000Z</time>
      </trkpt>
      <trkpt lat="48.54517" lon="-0.35493">
        <ele>190.43286</ele>
        <time>2021-09-06T11:03:39.000Z</time>
      </trkpt>
      <trkpt lat="48.54514" lon="-0.35478">
        <ele>190.391268</ele>
        <time>2021-09-06T11:03:45.000Z</time>
      </trkpt>
      <trkpt lat="48.54512" lon="-0.35458">
        <ele>190.33802</ele>
        <time>2021-09-06T11:03:52.000Z</time>
      </trkpt>
      <trkpt lat="48.54509" lon="-0.35443">
        <ele>190.294892</ele>
        <time>2021-09-06T11:03:58.000Z</time>
      </trkpt>
      <trkpt lat="48.54506" lon="-0.35429">
        <ele>190.393534</ele>
        <time>2021-09-06T11:04:03.000Z</time>
      </trkpt>
      <trkpt lat="48.545" lon="-0.35405">
        <ele>190.884965</ele>
        <time>2021-09-06T11:04:11.000Z</time>
      </trkpt>
      <trkpt lat="48.54495" lon="-0.35387">
        <ele>191.268865</ele>
        <time>2021-09-06T11:04:18.000Z</time>
      </trkpt>
      <trkpt lat="48.54491" lon="-0.35372">
        <ele>191.581033</ele>
        <time>2021-09-06T11:04:24.000Z</time>
      </trkpt>
      <trkpt lat="48.54487" lon="-0.35354">
        <ele>191.953885</ele>
        <time>2021-09-06T11:04:31.000Z</time>
      </trkpt>
      <trkpt lat="48.5448" lon="-0.35334">
        <ele>192.389023</ele>
        <time>2021-09-06T11:04:38.000Z</time>
      </trkpt>
      <trkpt lat="48.54474" lon="-0.35308">
        <ele>192.916083</ele>
        <time>2021-09-06T11:04:46.000Z</time>
      </trkpt>
      <trkpt lat="48.54466" lon="-0.35285">
        <ele>193.415067</ele>
        <time>2021-09-06T11:04:53.000Z</time>
      </trkpt>
      <trkpt lat="48.54458" lon="-0.35248">
        <ele>194.189044</ele>
        <time>2021-09-06T11:05:02.000Z</time>
      </trkpt>
      <trkpt lat="48.5445" lon="-0.35215">
        <ele>194.852693</ele>
        <time>2021-09-06T11:05:09.000Z</time>
      </trkpt>
      <trkpt lat="48.54443" lon="-0.35185">
        <ele>195.482103</ele>
        <time>2021-09-06T11:05:15.000Z</time>
      </trkpt>
      <trkpt lat="48.54435" lon="-0.35155">
        <ele>195.911544</ele>
        <time>2021-09-06T11:05:21.000Z</time>
      </trkpt>
      <trkpt lat="48.54424" lon="-0.35109">
        <ele>196.551523</ele>
        <time>2021-09-06T11:05:29.000Z</time>
      </trkpt>
      <trkpt lat="48.54413" lon="-0.35059">
        <ele>197.247546</ele>
        <time>2021-09-06T11:05:38.000Z</time>
      </trkpt>
      <trkpt lat="48.54401" lon="-0.35011">
        <ele>197.930591</ele>
        <time>2021-09-06T11:05:47.000Z</time>
      </trkpt>
      <trkpt lat="48.54391" lon="-0.3497">
        <ele>198.505487</ele>
        <time>2021-09-06T11:05:55.000Z</time>
      </trkpt>
      <trkpt lat="48.54382" lon="-0.34935">
        <ele>198.996399</ele>
        <time>2021-09-06T11:06:03.000Z</time>
      </trkpt>
      <trkpt lat="48.54378" lon="-0.34911">
        <ele>199.63578</ele>
        <time>2021-09-06T11:06:09.000Z</time>
      </trkpt>
      <trkpt lat="48.54374" lon="-0.34891">
        <ele>200.337501</ele>
        <time>2021-09-06T11:06:14.000Z</time>
      </trkpt>
      <trkpt lat="48.54369" lon="-0.34871">
        <ele>201.046232</ele>
        <time>2021-09-06T11:06:19.000Z</time>
      </trkpt>
      <trkpt lat="48.54363" lon="-0.34849">
        <ele>201.813348</ele>
        <time>2021-09-06T11:06:24.000Z</time>
      </trkpt>
      <trkpt lat="48.54357" lon="-0.3482">
        <ele>202.819106</ele>
        <time>2021-09-06T11:06:31.000Z</time>
      </trkpt>
      <trkpt lat="48.54351" lon="-0.34797">
        <ele>203.647293</ele>
        <time>2021-09-06T11:06:37.000Z</time>
      </trkpt>
      <trkpt lat="48.54345" lon="-0.34778">
        <ele>204.325515</ele>
        <time>2021-09-06T11:06:42.000Z</time>
      </trkpt>
      <trkpt lat="48.54339" lon="-0.34753">
        <ele>205.204864</ele>
        <time>2021-09-06T11:06:48.000Z</time>
      </trkpt>
      <trkpt lat="48.54333" lon="-0.34731">
        <ele>205.962721</ele>
        <time>2021-09-06T11:06:53.000Z</time>
      </trkpt>
      <trkpt lat="48.54327" lon="-0.34704">
        <ele>206.925061</ele>
        <time>2021-09-06T11:06:59.000Z</time>
      </trkpt>
      <trkpt lat="48.54323" lon="-0.34681">
        <ele>207.695993</ele>
        <time>2021-09-06T11:07:04.000Z</time>
      </trkpt>
      <trkpt lat="48.54316" lon="-0.34656">
        <ele>208.638279</ele>
        <time>2021-09-06T11:07:10.000Z</time>
      </trkpt>
      <trkpt lat="48.54309" lon="-0.34627">
        <ele>209.695432</ele>
        <time>2021-09-06T11:07:16.000Z</time>
      </trkpt>
      <trkpt lat="48.54298" lon="-0.34588">
        <ele>211.151533</ele>
        <time>2021-09-06T11:07:25.000Z</time>
      </trkpt>
      <trkpt lat="48.54294" lon="-0.34566">
        <ele>211.954793</ele>
        <time>2021-09-06T11:07:30.000Z</time>
      </trkpt>
      <trkpt lat="48.54286" lon="-0.3453">
        <ele>213.263298</ele>
        <time>2021-09-06T11:07:38.000Z</time>
      </trkpt>
      <trkpt lat="48.5428" lon="-0.34508">
        <ele>214.06917</ele>
        <time>2021-09-06T11:07:43.000Z</time>
      </trkpt>
      <trkpt lat="48.54273" lon="-0.34478">
        <ele>215.16896</ele>
        <time>2021-09-06T11:07:50.000Z</time>
      </trkpt>
      <trkpt lat="48.54265" lon="-0.34448">
        <ele>216.306744</ele>
        <time>2021-09-06T11:07:57.000Z</time>
      </trkpt>
      <trkpt lat="48.5426" lon="-0.34431">
        <ele>216.937419</ele>
        <time>2021-09-06T11:08:01.000Z</time>
      </trkpt>
      <trkpt lat="48.54256" lon="-0.34413">
        <ele>217.539557</ele>
        <time>2021-09-06T11:08:05.000Z</time>
      </trkpt>
      <trkpt lat="48.54251" lon="-0.34388">
        <ele>218.112409</ele>
        <time>2021-09-06T11:08:10.000Z</time>
      </trkpt>
      <trkpt lat="48.54249" lon="-0.34384">
        <ele>218.223837</ele>
        <time>2021-09-06T11:08:11.000Z</time>
      </trkpt>
      <trkpt lat="48.54242" lon="-0.34352">
        <ele>218.966317</ele>
        <time>2021-09-06T11:08:18.000Z</time>
      </trkpt>
      <trkpt lat="48.54235" lon="-0.34333">
        <ele>219.441607</ele>
        <time>2021-09-06T11:08:22.000Z</time>
      </trkpt>
      <trkpt lat="48.54228" lon="-0.34308">
        <ele>220.030086</ele>
        <time>2021-09-06T11:08:27.000Z</time>
      </trkpt>
      <trkpt lat="48.54224" lon="-0.3428">
        <ele>220.65761</ele>
        <time>2021-09-06T11:08:32.000Z</time>
      </trkpt>
      <trkpt lat="48.54221" lon="-0.34255">
        <ele>221.214702</ele>
        <time>2021-09-06T11:08:36.000Z</time>
      </trkpt>
      <trkpt lat="48.54212" lon="-0.34212">
        <ele>222.211934</ele>
        <time>2021-09-06T11:08:42.000Z</time>
      </trkpt>
      <trkpt lat="48.54202" lon="-0.34169">
        <ele>223.215565</ele>
        <time>2021-09-06T11:08:48.000Z</time>
      </trkpt>
      <trkpt lat="48.54197" lon="-0.34147">
        <ele>223.442977</ele>
        <time>2021-09-06T11:08:51.000Z</time>
      </trkpt>
      <trkpt lat="48.54193" lon="-0.3413">
        <ele>223.501489</ele>
        <time>2021-09-06T11:08:53.000Z</time>
      </trkpt>
      <trkpt lat="48.54185" lon="-0.34103">
        <ele>223.597795</ele>
        <time>2021-09-06T11:08:56.000Z</time>
      </trkpt>
      <trkpt lat="48.54166" lon="-0.34045">
        <ele>223.809164</ele>
        <time>2021-09-06T11:09:02.000Z</time>
      </trkpt>
      <trkpt lat="48.54147" lon="-0.33976">
        <ele>224.054187</ele>
        <time>2021-09-06T11:09:09.000Z</time>
      </trkpt>
      <trkpt lat="48.54131" lon="-0.33908">
        <ele>224.282943</ele>
        <time>2021-09-06T11:09:16.000Z</time>
      </trkpt>
      <trkpt lat="48.54117" lon="-0.33846">
        <ele>224.315854</ele>
        <time>2021-09-06T11:09:22.000Z</time>
      </trkpt>
      <trkpt lat="48.54112" lon="-0.33825">
        <ele>224.326788</ele>
        <time>2021-09-06T11:09:24.000Z</time>
      </trkpt>
      <trkpt lat="48.54107" lon="-0.33806">
        <ele>224.337206</ele>
        <time>2021-09-06T11:09:26.000Z</time>
      </trkpt>
      <trkpt lat="48.54104" lon="-0.33786">
        <ele>224.347414</ele>
        <time>2021-09-06T11:09:28.000Z</time>
      </trkpt>
      <trkpt lat="48.541" lon="-0.33767">
        <ele>224.357562</ele>
        <time>2021-09-06T11:09:30.000Z</time>
      </trkpt>
      <trkpt lat="48.54083" lon="-0.33707">
        <ele>224.390165</ele>
        <time>2021-09-06T11:09:36.000Z</time>
      </trkpt>
      <trkpt lat="48.5407" lon="-0.33656">
        <ele>224.417283</ele>
        <time>2021-09-06T11:09:41.000Z</time>
      </trkpt>
      <trkpt lat="48.54061" lon="-0.33615">
        <ele>224.359483</ele>
        <time>2021-09-06T11:09:45.000Z</time>
      </trkpt>
      <trkpt lat="48.5405" lon="-0.33563">
        <ele>224.284866</ele>
        <time>2021-09-06T11:09:50.000Z</time>
      </trkpt>
      <trkpt lat="48.54042" lon="-0.33536">
        <ele>224.243087</ele>
        <time>2021-09-06T11:09:53.000Z</time>
      </trkpt>
      <trkpt lat="48.54031" lon="-0.33497">
        <ele>224.185871</ele>
        <time>2021-09-06T11:09:57.000Z</time>
      </trkpt>
      <trkpt lat="48.54016" lon="-0.33429">
        <ele>224.087637</ele>
        <time>2021-09-06T11:10:04.000Z</time>
      </trkpt>
      <trkpt lat="48.54005" lon="-0.33384">
        <ele>223.934799</ele>
        <time>2021-09-06T11:10:09.000Z</time>
      </trkpt>
      <trkpt lat="48.53999" lon="-0.33358">
        <ele>223.756287</ele>
        <time>2021-09-06T11:10:12.000Z</time>
      </trkpt>
      <trkpt lat="48.53995" lon="-0.3334">
        <ele>223.629669</ele>
        <time>2021-09-06T11:10:14.000Z</time>
      </trkpt>
      <trkpt lat="48.53991" lon="-0.33321">
        <ele>223.501108</ele>
        <time>2021-09-06T11:10:16.000Z</time>
      </trkpt>
      <trkpt lat="48.53987" lon="-0.33313">
        <ele>223.437975</ele>
        <time>2021-09-06T11:10:17.000Z</time>
      </trkpt>
      <trkpt lat="48.53985" lon="-0.33304">
        <ele>223.377496</ele>
        <time>2021-09-06T11:10:18.000Z</time>
      </trkpt>
      <trkpt lat="48.53974" lon="-0.33269">
        <ele>223.128914</ele>
        <time>2021-09-06T11:10:22.000Z</time>
      </trkpt>
      <trkpt lat="48.53967" lon="-0.33232">
        <ele>222.874276</ele>
        <time>2021-09-06T11:10:26.000Z</time>
      </trkpt>
      <trkpt lat="48.53966" lon="-0.33222">
        <ele>222.809053</ele>
        <time>2021-09-06T11:10:27.000Z</time>
      </trkpt>
      <trkpt lat="48.53963" lon="-0.33213">
        <ele>222.742177</ele>
        <time>2021-09-06T11:10:28.000Z</time>
      </trkpt>
      <trkpt lat="48.53957" lon="-0.33192">
        <ele>222.599924</ele>
        <time>2021-09-06T11:10:30.000Z</time>
      </trkpt>
      <trkpt lat="48.53943" lon="-0.33145">
        <ele>222.245213</ele>
        <time>2021-09-06T11:10:34.000Z</time>
      </trkpt>
      <trkpt lat="48.5394" lon="-0.33133">
        <ele>222.050943</ele>
        <time>2021-09-06T11:10:35.000Z</time>
      </trkpt>
      <trkpt lat="48.53932" lon="-0.33096">
        <ele>221.477865</ele>
        <time>2021-09-06T11:10:38.000Z</time>
      </trkpt>
      <trkpt lat="48.53916" lon="-0.33031">
        <ele>220.459444</ele>
        <time>2021-09-06T11:10:43.000Z</time>
      </trkpt>
      <trkpt lat="48.5391" lon="-0.33007">
        <ele>220.07363</ele>
        <time>2021-09-06T11:10:45.000Z</time>
      </trkpt>
      <trkpt lat="48.53905" lon="-0.32982">
        <ele>219.693147</ele>
        <time>2021-09-06T11:10:47.000Z</time>
      </trkpt>
      <trkpt lat="48.53902" lon="-0.3297">
        <ele>219.506318</ele>
        <time>2021-09-06T11:10:48.000Z</time>
      </trkpt>
      <trkpt lat="48.53893" lon="-0.32934">
        <ele>218.925709</ele>
        <time>2021-09-06T11:10:51.000Z</time>
      </trkpt>
      <trkpt lat="48.53878" lon="-0.32871">
        <ele>217.981551</ele>
        <time>2021-09-06T11:10:56.000Z</time>
      </trkpt>
      <trkpt lat="48.5387" lon="-0.32837">
        <ele>217.502928</ele>
        <time>2021-09-06T11:10:59.000Z</time>
      </trkpt>
      <trkpt lat="48.53867" lon="-0.32826">
        <ele>217.343492</ele>
        <time>2021-09-06T11:11:00.000Z</time>
      </trkpt>
      <trkpt lat="48.53854" lon="-0.32768">
        <ele>216.537355</ele>
        <time>2021-09-06T11:11:05.000Z</time>
      </trkpt>
      <trkpt lat="48.53848" lon="-0.32746">
        <ele>216.217033</ele>
        <time>2021-09-06T11:11:07.000Z</time>
      </trkpt>
      <trkpt lat="48.53843" lon="-0.32722">
        <ele>215.883746</ele>
        <time>2021-09-06T11:11:09.000Z</time>
      </trkpt>
      <trkpt lat="48.53826" lon="-0.32651">
        <ele>214.893269</ele>
        <time>2021-09-06T11:11:15.000Z</time>
      </trkpt>
      <trkpt lat="48.5382" lon="-0.32628">
        <ele>214.606844</ele>
        <time>2021-09-06T11:11:17.000Z</time>
      </trkpt>
      <trkpt lat="48.53813" lon="-0.32595">
        <ele>214.302086</ele>
        <time>2021-09-06T11:11:20.000Z</time>
      </trkpt>
      <trkpt lat="48.53798" lon="-0.32535">
        <ele>213.746221</ele>
        <time>2021-09-06T11:11:26.000Z</time>
      </trkpt>
      <trkpt lat="48.53788" lon="-0.32483">
        <ele>213.278101</ele>
        <time>2021-09-06T11:11:32.000Z</time>
      </trkpt>
      <trkpt lat="48.53781" lon="-0.32451">
        <ele>212.986901</ele>
        <time>2021-09-06T11:11:36.000Z</time>
      </trkpt>
      <trkpt lat="48.53778" lon="-0.32444">
        <ele>212.912169</ele>
        <time>2021-09-06T11:11:37.000Z</time>
      </trkpt>
      <trkpt lat="48.53775" lon="-0.32436">
        <ele>212.840772</ele>
        <time>2021-09-06T11:11:38.000Z</time>
      </trkpt>
      <trkpt lat="48.53771" lon="-0.32421">
        <ele>212.697436</ele>
        <time>2021-09-06T11:11:40.000Z</time>
      </trkpt>
      <trkpt lat="48.53755" lon="-0.32358">
        <ele>212.270181</ele>
        <time>2021-09-06T11:11:48.000Z</time>
      </trkpt>
      <trkpt lat="48.53747" lon="-0.32328">
        <ele>212.198491</ele>
        <time>2021-09-06T11:11:52.000Z</time>
      </trkpt>
      <trkpt lat="48.53746" lon="-0.32321">
        <ele>212.18059</ele>
        <time>2021-09-06T11:11:53.000Z</time>
      </trkpt>
      <trkpt lat="48.53737" lon="-0.32284">
        <ele>212.093113</ele>
        <time>2021-09-06T11:11:58.000Z</time>
      </trkpt>
      <trkpt lat="48.53736" lon="-0.32276">
        <ele>212.073668</ele>
        <time>2021-09-06T11:11:59.000Z</time>
      </trkpt>
      <trkpt lat="48.53721" lon="-0.32213">
        <ele>211.922426</ele>
        <time>2021-09-06T11:12:06.000Z</time>
      </trkpt>
      <trkpt lat="48.53706" lon="-0.32147">
        <ele>211.764304</ele>
        <time>2021-09-06T11:12:13.000Z</time>
      </trkpt>
      <trkpt lat="48.53691" lon="-0.3208">
        <ele>211.17051</ele>
        <time>2021-09-06T11:12:20.000Z</time>
      </trkpt>
      <trkpt lat="48.53674" lon="-0.32008">
        <ele>210.302045</ele>
        <time>2021-09-06T11:12:28.000Z</time>
      </trkpt>
      <trkpt lat="48.53662" lon="-0.3196">
        <ele>209.709544</ele>
        <time>2021-09-06T11:12:33.000Z</time>
      </trkpt>
      <trkpt lat="48.53659" lon="-0.3195">
        <ele>209.583945</ele>
        <time>2021-09-06T11:12:34.000Z</time>
      </trkpt>
      <trkpt lat="48.53656" lon="-0.3194">
        <ele>209.461057</ele>
        <time>2021-09-06T11:12:35.000Z</time>
      </trkpt>
      <trkpt lat="48.53647" lon="-0.31909">
        <ele>209.075962</ele>
        <time>2021-09-06T11:12:38.000Z</time>
      </trkpt>
      <trkpt lat="48.5365" lon="-0.31882">
        <ele>208.758813</ele>
        <time>2021-09-06T11:12:40.000Z</time>
      </trkpt>
      <trkpt lat="48.53653" lon="-0.31867">
        <ele>208.555232</ele>
        <time>2021-09-06T11:12:41.000Z</time>
      </trkpt>
      <trkpt lat="48.53669" lon="-0.3179">
        <ele>206.746574</ele>
        <time>2021-09-06T11:12:46.000Z</time>
      </trkpt>
      <trkpt lat="48.53683" lon="-0.31719">
        <ele>205.081386</ele>
        <time>2021-09-06T11:12:51.000Z</time>
      </trkpt>
      <trkpt lat="48.53692" lon="-0.31671">
        <ele>203.977521</ele>
        <time>2021-09-06T11:12:55.000Z</time>
      </trkpt>
      <trkpt lat="48.53699" lon="-0.31649">
        <ele>203.405806</ele>
        <time>2021-09-06T11:12:57.000Z</time>
      </trkpt>
      <trkpt lat="48.53709" lon="-0.31631">
        <ele>202.90032</ele>
        <time>2021-09-06T11:12:59.000Z</time>
      </trkpt>
      <trkpt lat="48.53734" lon="-0.31593">
        <ele>201.405573</ele>
        <time>2021-09-06T11:13:04.000Z</time>
      </trkpt>
      <trkpt lat="48.53739" lon="-0.31586">
        <ele>201.096527</ele>
        <time>2021-09-06T11:13:05.000Z</time>
      </trkpt>
      <trkpt lat="48.53769" lon="-0.31538">
        <ele>199.140221</ele>
        <time>2021-09-06T11:13:12.000Z</time>
      </trkpt>
      <trkpt lat="48.53797" lon="-0.31494">
        <ele>197.286933</ele>
        <time>2021-09-06T11:13:19.000Z</time>
      </trkpt>
      <trkpt lat="48.53817" lon="-0.31464">
        <ele>196.002803</ele>
        <time>2021-09-06T11:13:24.000Z</time>
      </trkpt>
      <trkpt lat="48.53838" lon="-0.31431">
        <ele>194.631293</ele>
        <time>2021-09-06T11:13:30.000Z</time>
      </trkpt>
      <trkpt lat="48.53852" lon="-0.31413">
        <ele>194.041313</ele>
        <time>2021-09-06T11:13:34.000Z</time>
      </trkpt>
      <trkpt lat="48.53868" lon="-0.31389">
        <ele>193.458661</ele>
        <time>2021-09-06T11:13:39.000Z</time>
      </trkpt>
      <trkpt lat="48.53873" lon="-0.31379">
        <ele>193.246835</ele>
        <time>2021-09-06T11:13:41.000Z</time>
      </trkpt>
      <trkpt lat="48.53882" lon="-0.31353">
        <ele>192.752318</ele>
        <time>2021-09-06T11:13:46.000Z</time>
      </trkpt>
      <trkpt lat="48.53895" lon="-0.313">
        <ele>191.789714</ele>
        <time>2021-09-06T11:13:56.000Z</time>
      </trkpt>
      <trkpt lat="48.53906" lon="-0.31257">
        <ele>190.999675</ele>
        <time>2021-09-06T11:14:04.000Z</time>
      </trkpt>
      <trkpt lat="48.53915" lon="-0.31218">
        <ele>190.31593</ele>
        <time>2021-09-06T11:14:12.000Z</time>
      </trkpt>
      <trkpt lat="48.53916" lon="-0.31199">
        <ele>189.984044</ele>
        <time>2021-09-06T11:14:18.000Z</time>
      </trkpt>
      <trkpt lat="48.53923" lon="-0.3117">
        <ele>189.710669</ele>
        <time>2021-09-06T11:14:25.000Z</time>
      </trkpt>
      <trkpt lat="48.53933" lon="-0.31135">
        <ele>189.628089</ele>
        <time>2021-09-06T11:14:33.000Z</time>
      </trkpt>
      <trkpt lat="48.53945" lon="-0.311">
        <ele>189.546243</ele>
        <time>2021-09-06T11:14:41.000Z</time>
      </trkpt>
      <trkpt lat="48.53954" lon="-0.31068">
        <ele>189.473043</ele>
        <time>2021-09-06T11:14:48.000Z</time>
      </trkpt>
      <trkpt lat="48.53955" lon="-0.31036">
        <ele>189.406239</ele>
        <time>2021-09-06T11:14:54.000Z</time>
      </trkpt>
      <trkpt lat="48.53954" lon="-0.30993">
        <ele>189.314849</ele>
        <time>2021-09-06T11:15:01.000Z</time>
      </trkpt>
      <trkpt lat="48.53959" lon="-0.30944">
        <ele>189.212319</ele>
        <time>2021-09-06T11:15:08.000Z</time>
      </trkpt>
      <trkpt lat="48.53969" lon="-0.30901">
        <ele>189.065872</ele>
        <time>2021-09-06T11:15:14.000Z</time>
      </trkpt>
      <trkpt lat="48.53974" lon="-0.30886">
        <ele>189.004797</ele>
        <time>2021-09-06T11:15:16.000Z</time>
      </trkpt>
      <trkpt lat="48.53988" lon="-0.3086">
        <ele>188.880042</ele>
        <time>2021-09-06T11:15:20.000Z</time>
      </trkpt>
      <trkpt lat="48.53991" lon="-0.30855">
        <ele>188.849529</ele>
        <time>2021-09-06T11:15:21.000Z</time>
      </trkpt>
      <trkpt lat="48.5401" lon="-0.30837">
        <ele>188.71957</ele>
        <time>2021-09-06T11:15:25.000Z</time>
      </trkpt>
      <trkpt lat="48.54047" lon="-0.308">
        <ele>188.467703</ele>
        <time>2021-09-06T11:15:33.000Z</time>
      </trkpt>
      <trkpt lat="48.54075" lon="-0.30765">
        <ele>188.255418</ele>
        <time>2021-09-06T11:15:40.000Z</time>
      </trkpt>
      <trkpt lat="48.54089" lon="-0.30753">
        <ele>188.165845</ele>
        <time>2021-09-06T11:15:43.000Z</time>
      </trkpt>
      <trkpt lat="48.54097" lon="-0.30743">
        <ele>188.085744</ele>
        <time>2021-09-06T11:15:45.000Z</time>
      </trkpt>
      <trkpt lat="48.54104" lon="-0.30727">
        <ele>187.981002</ele>
        <time>2021-09-06T11:15:47.000Z</time>
      </trkpt>
      <trkpt lat="48.54106" lon="-0.30718">
        <ele>187.92629</ele>
        <time>2021-09-06T11:15:48.000Z</time>
      </trkpt>
      <trkpt lat="48.54106" lon="-0.30709">
        <ele>187.871263</ele>
        <time>2021-09-06T11:15:49.000Z</time>
      </trkpt>
      <trkpt lat="48.54106" lon="-0.30669">
        <ele>187.645894</ele>
        <time>2021-09-06T11:15:53.000Z</time>
      </trkpt>
      <trkpt lat="48.54106" lon="-0.30639">
        <ele>187.469863</ele>
        <time>2021-09-06T11:15:56.000Z</time>
      </trkpt>
      <trkpt lat="48.5411" lon="-0.30608">
        <ele>187.292179</ele>
        <time>2021-09-06T11:15:59.000Z</time>
      </trkpt>
      <trkpt lat="48.54115" lon="-0.3059">
        <ele>187.180165</ele>
        <time>2021-09-06T11:16:01.000Z</time>
      </trkpt>
      <trkpt lat="48.54124" lon="-0.30565">
        <ele>187.01474</ele>
        <time>2021-09-06T11:16:04.000Z</time>
      </trkpt>
      <trkpt lat="48.54145" lon="-0.30529">
        <ele>186.739914</ele>
        <time>2021-09-06T11:16:09.000Z</time>
      </trkpt>
      <trkpt lat="48.54182" lon="-0.30487">
        <ele>186.605684</ele>
        <time>2021-09-06T11:16:16.000Z</time>
      </trkpt>
      <trkpt lat="48.54204" lon="-0.30454">
        <ele>186.637973</ele>
        <time>2021-09-06T11:16:21.000Z</time>
      </trkpt>
      <trkpt lat="48.54207" lon="-0.30446">
        <ele>186.644528</ele>
        <time>2021-09-06T11:16:22.000Z</time>
      </trkpt>
      <trkpt lat="48.54208" lon="-0.30437">
        <ele>186.651044</ele>
        <time>2021-09-06T11:16:23.000Z</time>
      </trkpt>
      <trkpt lat="48.54209" lon="-0.30418">
        <ele>186.664156</ele>
        <time>2021-09-06T11:16:25.000Z</time>
      </trkpt>
      <trkpt lat="48.54203" lon="-0.30375">
        <ele>186.695023</ele>
        <time>2021-09-06T11:16:30.000Z</time>
      </trkpt>
      <trkpt lat="48.54196" lon="-0.30328">
        <ele>186.728303</ele>
        <time>2021-09-06T11:16:37.000Z</time>
      </trkpt>
      <trkpt lat="48.5419" lon="-0.30294">
        <ele>186.75248</ele>
        <time>2021-09-06T11:16:44.000Z</time>
      </trkpt>
      <trkpt lat="48.54187" lon="-0.30262">
        <ele>186.849948</ele>
        <time>2021-09-06T11:16:52.000Z</time>
      </trkpt>
      <trkpt lat="48.54187" lon="-0.30237">
        <ele>187.006836</ele>
        <time>2021-09-06T11:16:58.000Z</time>
      </trkpt>
      <trkpt lat="48.54187" lon="-0.30206">
        <ele>187.208538</ele>
        <time>2021-09-06T11:17:06.000Z</time>
      </trkpt>
      <trkpt lat="48.54183" lon="-0.30192">
        <ele>187.304495</ele>
        <time>2021-09-06T11:17:10.000Z</time>
      </trkpt>
      <trkpt lat="48.54173" lon="-0.30178">
        <ele>187.440115</ele>
        <time>2021-09-06T11:17:15.000Z</time>
      </trkpt>
      <trkpt lat="48.54164" lon="-0.30164">
        <ele>187.565453</ele>
        <time>2021-09-06T11:17:19.000Z</time>
      </trkpt>
      <trkpt lat="48.54151" lon="-0.30139">
        <ele>187.760517</ele>
        <time>2021-09-06T11:17:24.000Z</time>
      </trkpt>
      <trkpt lat="48.54148" lon="-0.30135">
        <ele>187.807194</ele>
        <time>2021-09-06T11:17:25.000Z</time>
      </trkpt>
      <trkpt lat="48.54123" lon="-0.30109">
        <ele>188.098835</ele>
        <time>2021-09-06T11:17:30.000Z</time>
      </trkpt>
      <trkpt lat="48.54085" lon="-0.30075">
        <ele>188.521441</ele>
        <time>2021-09-06T11:17:36.000Z</time>
      </trkpt>
      <trkpt lat="48.54066" lon="-0.30059">
        <ele>188.734595</ele>
        <time>2021-09-06T11:17:39.000Z</time>
      </trkpt>
      <trkpt lat="48.54055" lon="-0.30049">
        <ele>188.868708</ele>
        <time>2021-09-06T11:17:41.000Z</time>
      </trkpt>
      <trkpt lat="48.54039" lon="-0.30035">
        <ele>189.049724</ele>
        <time>2021-09-06T11:17:44.000Z</time>
      </trkpt>
      <trkpt lat="48.54031" lon="-0.30024">
        <ele>189.152238</ele>
        <time>2021-09-06T11:17:46.000Z</time>
      </trkpt>
      <trkpt lat="48.54027" lon="-0.30013">
        <ele>189.238121</ele>
        <time>2021-09-06T11:17:48.000Z</time>
      </trkpt>
      <trkpt lat="48.54026" lon="-0.30001">
        <ele>189.317021</ele>
        <time>2021-09-06T11:17:50.000Z</time>
      </trkpt>
      <trkpt lat="48.54023" lon="-0.29961">
        <ele>189.577803</ele>
        <time>2021-09-06T11:17:58.000Z</time>
      </trkpt>
      <trkpt lat="48.54019" lon="-0.29919">
        <ele>189.860335</ele>
        <time>2021-09-06T11:18:07.000Z</time>
      </trkpt>
      <trkpt lat="48.54009" lon="-0.29879">
        <ele>190.141097</ele>
        <time>2021-09-06T11:18:16.000Z</time>
      </trkpt>
      <trkpt lat="48.53996" lon="-0.29851">
        <ele>190.40976</ele>
        <time>2021-09-06T11:18:23.000Z</time>
      </trkpt>
      <trkpt lat="48.53978" lon="-0.29819">
        <ele>190.860478</ele>
        <time>2021-09-06T11:18:32.000Z</time>
      </trkpt>
      <trkpt lat="48.53964" lon="-0.29793">
        <ele>191.220456</ele>
        <time>2021-09-06T11:18:39.000Z</time>
      </trkpt>
      <trkpt lat="48.53948" lon="-0.29769">
        <ele>191.584701</ele>
        <time>2021-09-06T11:18:46.000Z</time>
      </trkpt>
      <trkpt lat="48.53928" lon="-0.29739">
        <ele>192.033748</ele>
        <time>2021-09-06T11:18:54.000Z</time>
      </trkpt>
      <trkpt lat="48.53907" lon="-0.29702">
        <ele>192.562826</ele>
        <time>2021-09-06T11:19:03.000Z</time>
      </trkpt>
      <trkpt lat="48.53893" lon="-0.29663">
        <ele>193.03809</ele>
        <time>2021-09-06T11:19:11.000Z</time>
      </trkpt>
      <trkpt lat="48.53881" lon="-0.29614">
        <ele>193.452897</ele>
        <time>2021-09-06T11:19:20.000Z</time>
      </trkpt>
      <trkpt lat="48.53872" lon="-0.29563">
        <ele>193.829859</ele>
        <time>2021-09-06T11:19:29.000Z</time>
      </trkpt>
      <trkpt lat="48.53861" lon="-0.295">
        <ele>194.294917</ele>
        <time>2021-09-06T11:19:39.000Z</time>
      </trkpt>
      <trkpt lat="48.53854" lon="-0.29463">
        <ele>194.567784</ele>
        <time>2021-09-06T11:19:45.000Z</time>
      </trkpt>
      <trkpt lat="48.53853" lon="-0.29457">
        <ele>194.61305</ele>
        <time>2021-09-06T11:19:46.000Z</time>
      </trkpt>
      <trkpt lat="48.53843" lon="-0.29394">
        <ele>195.076202</ele>
        <time>2021-09-06T11:19:56.000Z</time>
      </trkpt>
      <trkpt lat="48.53837" lon="-0.29338">
        <ele>195.553802</ele>
        <time>2021-09-06T11:20:05.000Z</time>
      </trkpt>
      <trkpt lat="48.53834" lon="-0.29308">
        <ele>195.81807</ele>
        <time>2021-09-06T11:20:10.000Z</time>
      </trkpt>
      <trkpt lat="48.53833" lon="-0.29284">
        <ele>196.023857</ele>
        <time>2021-09-06T11:20:14.000Z</time>
      </trkpt>
      <trkpt lat="48.53836" lon="-0.2924">
        <ele>196.405501</ele>
        <time>2021-09-06T11:20:22.000Z</time>
      </trkpt>
      <trkpt lat="48.53842" lon="-0.29209">
        <ele>196.685566</ele>
        <time>2021-09-06T11:20:28.000Z</time>
      </trkpt>
      <trkpt lat="48.53846" lon="-0.29174">
        <ele>196.992147</ele>
        <time>2021-09-06T11:20:35.000Z</time>
      </trkpt>
      <trkpt lat="48.53847" lon="-0.2913">
        <ele>197.373225</ele>
        <time>2021-09-06T11:20:44.000Z</time>
      </trkpt>
      <trkpt lat="48.53845" lon="-0.29075">
        <ele>198.096877</ele>
        <time>2021-09-06T11:20:55.000Z</time>
      </trkpt>
      <trkpt lat="48.53842" lon="-0.29023">
        <ele>198.84576</ele>
        <time>2021-09-06T11:21:05.000Z</time>
      </trkpt>
      <trkpt lat="48.53837" lon="-0.28983">
        <ele>199.423189</ele>
        <time>2021-09-06T11:21:13.000Z</time>
      </trkpt>
      <trkpt lat="48.53831" lon="-0.28945">
        <ele>199.978314</ele>
        <time>2021-09-06T11:21:21.000Z</time>
      </trkpt>
      <trkpt lat="48.53822" lon="-0.28908">
        <ele>200.53323</ele>
        <time>2021-09-06T11:21:29.000Z</time>
      </trkpt>
      <trkpt lat="48.5381" lon="-0.28872">
        <ele>201.11112</ele>
        <time>2021-09-06T11:21:37.000Z</time>
      </trkpt>
      <trkpt lat="48.53798" lon="-0.28835">
        <ele>201.877936</ele>
        <time>2021-09-06T11:21:45.000Z</time>
      </trkpt>
      <trkpt lat="48.53783" lon="-0.2879">
        <ele>202.957224</ele>
        <time>2021-09-06T11:21:55.000Z</time>
      </trkpt>
      <trkpt lat="48.53771" lon="-0.28754">
        <ele>203.810179</ele>
        <time>2021-09-06T11:22:03.000Z</time>
      </trkpt>
      <trkpt lat="48.53762" lon="-0.28724">
        <ele>204.5168</ele>
        <time>2021-09-06T11:22:10.000Z</time>
      </trkpt>
      <trkpt lat="48.53751" lon="-0.28692">
        <ele>205.293249</ele>
        <time>2021-09-06T11:22:18.000Z</time>
      </trkpt>
      <trkpt lat="48.53741" lon="-0.28661">
        <ele>206.021631</ele>
        <time>2021-09-06T11:22:26.000Z</time>
      </trkpt>
      <trkpt lat="48.53728" lon="-0.28627">
        <ele>206.873717</ele>
        <time>2021-09-06T11:22:35.000Z</time>
      </trkpt>
      <trkpt lat="48.53716" lon="-0.28599">
        <ele>207.640251</ele>
        <time>2021-09-06T11:22:43.000Z</time>
      </trkpt>
      <trkpt lat="48.53707" lon="-0.28573">
        <ele>208.339687</ele>
        <time>2021-09-06T11:22:50.000Z</time>
      </trkpt>
      <trkpt lat="48.53697" lon="-0.28546">
        <ele>209.061751</ele>
        <time>2021-09-06T11:22:57.000Z</time>
      </trkpt>
      <trkpt lat="48.53688" lon="-0.28514">
        <ele>209.906143</ele>
        <time>2021-09-06T11:23:05.000Z</time>
      </trkpt>
      <trkpt lat="48.53687" lon="-0.28493">
        <ele>210.401839</ele>
        <time>2021-09-06T11:23:10.000Z</time>
      </trkpt>
      <trkpt lat="48.53681" lon="-0.28457">
        <ele>211.305334</ele>
        <time>2021-09-06T11:23:19.000Z</time>
      </trkpt>
      <trkpt lat="48.53676" lon="-0.28414">
        <ele>212.356453</ele>
        <time>2021-09-06T11:23:29.000Z</time>
      </trkpt>
      <trkpt lat="48.53671" lon="-0.28386">
        <ele>213.045205</ele>
        <time>2021-09-06T11:23:35.000Z</time>
      </trkpt>
      <trkpt lat="48.53665" lon="-0.28354">
        <ele>213.791401</ele>
        <time>2021-09-06T11:23:41.000Z</time>
      </trkpt>
      <trkpt lat="48.53656" lon="-0.28314">
        <ele>214.51185</ele>
        <time>2021-09-06T11:23:48.000Z</time>
      </trkpt>
      <trkpt lat="48.53652" lon="-0.28302">
        <ele>214.733412</ele>
        <time>2021-09-06T11:23:50.000Z</time>
      </trkpt>
      <trkpt lat="48.53642" lon="-0.28274">
        <ele>215.290618</ele>
        <time>2021-09-06T11:23:55.000Z</time>
      </trkpt>
      <trkpt lat="48.53627" lon="-0.28234">
        <ele>216.074381</ele>
        <time>2021-09-06T11:24:02.000Z</time>
      </trkpt>
      <trkpt lat="48.53623" lon="-0.28224">
        <ele>216.286808</ele>
        <time>2021-09-06T11:24:04.000Z</time>
      </trkpt>
      <trkpt lat="48.53613" lon="-0.28193">
        <ele>216.889486</ele>
        <time>2021-09-06T11:24:10.000Z</time>
      </trkpt>
      <trkpt lat="48.53604" lon="-0.28168">
        <ele>217.37227</ele>
        <time>2021-09-06T11:24:15.000Z</time>
      </trkpt>
      <trkpt lat="48.53597" lon="-0.2814">
        <ele>217.893001</ele>
        <time>2021-09-06T11:24:20.000Z</time>
      </trkpt>
      <trkpt lat="48.53586" lon="-0.28113">
        <ele>218.403558</ele>
        <time>2021-09-06T11:24:25.000Z</time>
      </trkpt>
      <trkpt lat="48.53583" lon="-0.28102">
        <ele>218.578376</ele>
        <time>2021-09-06T11:24:27.000Z</time>
      </trkpt>
      <trkpt lat="48.5357" lon="-0.28066">
        <ele>219.161942</ele>
        <time>2021-09-06T11:24:34.000Z</time>
      </trkpt>
      <trkpt lat="48.53557" lon="-0.28031">
        <ele>219.743498</ele>
        <time>2021-09-06T11:24:41.000Z</time>
      </trkpt>
      <trkpt lat="48.53542" lon="-0.27992">
        <ele>220.384015</ele>
        <time>2021-09-06T11:24:49.000Z</time>
      </trkpt>
      <trkpt lat="48.53529" lon="-0.27957">
        <ele>220.964031</ele>
        <time>2021-09-06T11:24:56.000Z</time>
      </trkpt>
      <trkpt lat="48.53516" lon="-0.27922">
        <ele>221.523832</ele>
        <time>2021-09-06T11:25:03.000Z</time>
      </trkpt>
      <trkpt lat="48.53504" lon="-0.27893">
        <ele>222.024374</ele>
        <time>2021-09-06T11:25:09.000Z</time>
      </trkpt>
      <trkpt lat="48.53497" lon="-0.27877">
        <ele>222.274776</ele>
        <time>2021-09-06T11:25:12.000Z</time>
      </trkpt>
      <trkpt lat="48.53491" lon="-0.2786">
        <ele>222.476375</ele>
        <time>2021-09-06T11:25:15.000Z</time>
      </trkpt>
      <trkpt lat="48.53475" lon="-0.27822">
        <ele>222.972286</ele>
        <time>2021-09-06T11:25:22.000Z</time>
      </trkpt>
      <trkpt lat="48.53467" lon="-0.27797">
        <ele>223.273555</ele>
        <time>2021-09-06T11:25:26.000Z</time>
      </trkpt>
      <trkpt lat="48.5346" lon="-0.27778">
        <ele>223.5102</ele>
        <time>2021-09-06T11:25:29.000Z</time>
      </trkpt>
      <trkpt lat="48.53444" lon="-0.27734">
        <ele>224.051171</ele>
        <time>2021-09-06T11:25:36.000Z</time>
      </trkpt>
      <trkpt lat="48.53434" lon="-0.27708">
        <ele>224.379839</ele>
        <time>2021-09-06T11:25:40.000Z</time>
      </trkpt>
      <trkpt lat="48.53429" lon="-0.27695">
        <ele>224.54205</ele>
        <time>2021-09-06T11:25:42.000Z</time>
      </trkpt>
      <trkpt lat="48.53422" lon="-0.27684">
        <ele>224.711022</ele>
        <time>2021-09-06T11:25:44.000Z</time>
      </trkpt>
      <trkpt lat="48.5342" lon="-0.27678">
        <ele>224.786955</ele>
        <time>2021-09-06T11:25:45.000Z</time>
      </trkpt>
      <trkpt lat="48.53418" lon="-0.27671">
        <ele>224.859718</ele>
        <time>2021-09-06T11:25:46.000Z</time>
      </trkpt>
      <trkpt lat="48.5341" lon="-0.27645">
        <ele>225.168599</ele>
        <time>2021-09-06T11:25:50.000Z</time>
      </trkpt>
      <trkpt lat="48.53393" lon="-0.27593">
        <ele>225.537919</ele>
        <time>2021-09-06T11:25:58.000Z</time>
      </trkpt>
      <trkpt lat="48.53375" lon="-0.27548">
        <ele>225.866671</ele>
        <time>2021-09-06T11:26:05.000Z</time>
      </trkpt>
      <trkpt lat="48.5337" lon="-0.27534">
        <ele>225.965217</ele>
        <time>2021-09-06T11:26:07.000Z</time>
      </trkpt>
      <trkpt lat="48.5336" lon="-0.27508">
        <ele>226.157131</ele>
        <time>2021-09-06T11:26:11.000Z</time>
      </trkpt>
      <trkpt lat="48.53342" lon="-0.2746">
        <ele>226.504261</ele>
        <time>2021-09-06T11:26:18.000Z</time>
      </trkpt>
      <trkpt lat="48.53318" lon="-0.27389">
        <ele>227.082736</ele>
        <time>2021-09-06T11:26:27.000Z</time>
      </trkpt>
      <trkpt lat="48.53307" lon="-0.27339">
        <ele>227.590644</ele>
        <time>2021-09-06T11:26:33.000Z</time>
      </trkpt>
      <trkpt lat="48.53301" lon="-0.27282">
        <ele>228.146626</ele>
        <time>2021-09-06T11:26:40.000Z</time>
      </trkpt>
      <trkpt lat="48.53298" lon="-0.27234">
        <ele>228.611567</ele>
        <time>2021-09-06T11:26:46.000Z</time>
      </trkpt>
      <trkpt lat="48.53296" lon="-0.27204">
        <ele>228.905787</ele>
        <time>2021-09-06T11:26:50.000Z</time>
      </trkpt>
      <trkpt lat="48.53296" lon="-0.27189">
        <ele>229.05168</ele>
        <time>2021-09-06T11:26:52.000Z</time>
      </trkpt>
      <trkpt lat="48.53295" lon="-0.27166">
        <ele>229.26915</ele>
        <time>2021-09-06T11:26:55.000Z</time>
      </trkpt>
      <trkpt lat="48.53293" lon="-0.27152">
        <ele>229.409664</ele>
        <time>2021-09-06T11:26:57.000Z</time>
      </trkpt>
      <trkpt lat="48.53293" lon="-0.27145">
        <ele>229.481501</ele>
        <time>2021-09-06T11:26:58.000Z</time>
      </trkpt>
      <trkpt lat="48.53292" lon="-0.27129">
        <ele>229.793196</ele>
        <time>2021-09-06T11:27:00.000Z</time>
      </trkpt>
      <trkpt lat="48.53292" lon="-0.27121">
        <ele>229.954614</ele>
        <time>2021-09-06T11:27:01.000Z</time>
      </trkpt>
      <trkpt lat="48.5329" lon="-0.27091">
        <ele>230.59946</ele>
        <time>2021-09-06T11:27:05.000Z</time>
      </trkpt>
      <trkpt lat="48.53289" lon="-0.27075">
        <ele>230.92716</ele>
        <time>2021-09-06T11:27:07.000Z</time>
      </trkpt>
      <trkpt lat="48.53284" lon="-0.27014">
        <ele>232.204015</ele>
        <time>2021-09-06T11:27:15.000Z</time>
      </trkpt>
      <trkpt lat="48.53283" lon="-0.26992">
        <ele>232.675174</ele>
        <time>2021-09-06T11:27:18.000Z</time>
      </trkpt>
      <trkpt lat="48.5328" lon="-0.2697">
        <ele>233.134585</ele>
        <time>2021-09-06T11:27:21.000Z</time>
      </trkpt>
      <trkpt lat="48.53279" lon="-0.26963">
        <ele>233.282401</ele>
        <time>2021-09-06T11:27:22.000Z</time>
      </trkpt>
      <trkpt lat="48.53277" lon="-0.26905">
        <ele>234.509835</ele>
        <time>2021-09-06T11:27:30.000Z</time>
      </trkpt>
      <trkpt lat="48.53275" lon="-0.2689">
        <ele>234.817717</ele>
        <time>2021-09-06T11:27:32.000Z</time>
      </trkpt>
      <trkpt lat="48.53272" lon="-0.26853">
        <ele>235.620301</ele>
        <time>2021-09-06T11:27:37.000Z</time>
      </trkpt>
      <trkpt lat="48.5327" lon="-0.26809">
        <ele>236.599209</ele>
        <time>2021-09-06T11:27:43.000Z</time>
      </trkpt>
      <trkpt lat="48.53266" lon="-0.26755">
        <ele>237.775647</ele>
        <time>2021-09-06T11:27:50.000Z</time>
      </trkpt>
      <trkpt lat="48.53261" lon="-0.26695">
        <ele>239.116919</ele>
        <time>2021-09-06T11:27:58.000Z</time>
      </trkpt>
      <trkpt lat="48.5326" lon="-0.26688">
        <ele>239.273579</ele>
        <time>2021-09-06T11:27:59.000Z</time>
      </trkpt>
      <trkpt lat="48.53258" lon="-0.26659">
        <ele>239.920571</ele>
        <time>2021-09-06T11:28:03.000Z</time>
      </trkpt>
      <trkpt lat="48.53252" lon="-0.26604">
        <ele>241.137684</ele>
        <time>2021-09-06T11:28:10.000Z</time>
      </trkpt>
      <trkpt lat="48.53244" lon="-0.2654">
        <ele>241.218301</ele>
        <time>2021-09-06T11:28:18.000Z</time>
      </trkpt>
      <trkpt lat="48.53245" lon="-0.2648">
        <ele>241.294055</ele>
        <time>2021-09-06T11:28:25.000Z</time>
      </trkpt>
      <trkpt lat="48.53243" lon="-0.26401">
        <ele>241.391766</ele>
        <time>2021-09-06T11:28:35.000Z</time>
      </trkpt>
      <trkpt lat="48.53242" lon="-0.26347">
        <ele>241.459573</ele>
        <time>2021-09-06T11:28:42.000Z</time>
      </trkpt>
      <trkpt lat="48.53242" lon="-0.26331">
        <ele>241.471382</ele>
        <time>2021-09-06T11:28:44.000Z</time>
      </trkpt>
      <trkpt lat="48.53242" lon="-0.26307">
        <ele>241.415251</ele>
        <time>2021-09-06T11:28:47.000Z</time>
      </trkpt>
      <trkpt lat="48.53245" lon="-0.2626">
        <ele>241.304319</ele>
        <time>2021-09-06T11:28:53.000Z</time>
      </trkpt>
      <trkpt lat="48.53247" lon="-0.26252">
        <ele>241.286394</ele>
        <time>2021-09-06T11:28:54.000Z</time>
      </trkpt>
      <trkpt lat="48.5325" lon="-0.26238">
        <ele>241.250327</ele>
        <time>2021-09-06T11:28:56.000Z</time>
      </trkpt>
      <trkpt lat="48.53258" lon="-0.26217">
        <ele>241.193872</ele>
        <time>2021-09-06T11:28:59.000Z</time>
      </trkpt>
      <trkpt lat="48.53279" lon="-0.26169">
        <ele>241.060259</ele>
        <time>2021-09-06T11:29:06.000Z</time>
      </trkpt>
      <trkpt lat="48.53295" lon="-0.26129">
        <ele>240.95087</ele>
        <time>2021-09-06T11:29:12.000Z</time>
      </trkpt>
      <trkpt lat="48.53309" lon="-0.26094">
        <ele>240.855666</ele>
        <time>2021-09-06T11:29:17.000Z</time>
      </trkpt>
      <trkpt lat="48.53312" lon="-0.26087">
        <ele>240.842251</ele>
        <time>2021-09-06T11:29:18.000Z</time>
      </trkpt>
      <trkpt lat="48.53328" lon="-0.26052">
        <ele>240.816181</ele>
        <time>2021-09-06T11:29:23.000Z</time>
      </trkpt>
      <trkpt lat="48.53351" lon="-0.26">
        <ele>240.779531</ele>
        <time>2021-09-06T11:29:30.000Z</time>
      </trkpt>
      <trkpt lat="48.5338" lon="-0.25927">
        <ele>240.728022</ele>
        <time>2021-09-06T11:29:40.000Z</time>
      </trkpt>
      <trkpt lat="48.53398" lon="-0.25876">
        <ele>240.693718</ele>
        <time>2021-09-06T11:29:47.000Z</time>
      </trkpt>
      <trkpt lat="48.53411" lon="-0.25833">
        <ele>240.764335</ele>
        <time>2021-09-06T11:29:53.000Z</time>
      </trkpt>
      <trkpt lat="48.53436" lon="-0.25765">
        <ele>241.008036</ele>
        <time>2021-09-06T11:30:02.000Z</time>
      </trkpt>
      <trkpt lat="48.53452" lon="-0.25723">
        <ele>241.161742</ele>
        <time>2021-09-06T11:30:08.000Z</time>
      </trkpt>
      <trkpt lat="48.5347" lon="-0.25672">
        <ele>241.339394</ele>
        <time>2021-09-06T11:30:15.000Z</time>
      </trkpt>
      <trkpt lat="48.53489" lon="-0.2561">
        <ele>241.55318</ele>
        <time>2021-09-06T11:30:24.000Z</time>
      </trkpt>
      <trkpt lat="48.53509" lon="-0.25555">
        <ele>241.721794</ele>
        <time>2021-09-06T11:30:32.000Z</time>
      </trkpt>
      <trkpt lat="48.53529" lon="-0.255">
        <ele>241.89184</ele>
        <time>2021-09-06T11:30:40.000Z</time>
      </trkpt>
      <trkpt lat="48.53541" lon="-0.25466">
        <ele>241.997112</ele>
        <time>2021-09-06T11:30:45.000Z</time>
      </trkpt>
      <trkpt lat="48.53546" lon="-0.25453">
        <ele>242.038272</ele>
        <time>2021-09-06T11:30:47.000Z</time>
      </trkpt>
      <trkpt lat="48.53556" lon="-0.25417">
        <ele>242.143865</ele>
        <time>2021-09-06T11:30:52.000Z</time>
      </trkpt>
      <trkpt lat="48.53561" lon="-0.25403">
        <ele>242.187698</ele>
        <time>2021-09-06T11:30:54.000Z</time>
      </trkpt>
      <trkpt lat="48.53565" lon="-0.25388">
        <ele>242.230126</ele>
        <time>2021-09-06T11:30:56.000Z</time>
      </trkpt>
      <trkpt lat="48.5357" lon="-0.25368">
        <ele>242.245603</ele>
        <time>2021-09-06T11:30:59.000Z</time>
      </trkpt>
      <trkpt lat="48.53582" lon="-0.25327">
        <ele>242.08879</ele>
        <time>2021-09-06T11:31:05.000Z</time>
      </trkpt>
      <trkpt lat="48.536" lon="-0.2527">
        <ele>241.86391</ele>
        <time>2021-09-06T11:31:13.000Z</time>
      </trkpt>
      <trkpt lat="48.53615" lon="-0.25208">
        <ele>241.631941</ele>
        <time>2021-09-06T11:31:21.000Z</time>
      </trkpt>
      <trkpt lat="48.53626" lon="-0.25146">
        <ele>241.405471</ele>
        <time>2021-09-06T11:31:28.000Z</time>
      </trkpt>
      <trkpt lat="48.53637" lon="-0.25085">
        <ele>240.888196</ele>
        <time>2021-09-06T11:31:34.000Z</time>
      </trkpt>
      <trkpt lat="48.53641" lon="-0.25053">
        <ele>240.519081</ele>
        <time>2021-09-06T11:31:37.000Z</time>
      </trkpt>
      <trkpt lat="48.5364" lon="-0.25033">
        <ele>240.286381</ele>
        <time>2021-09-06T11:31:39.000Z</time>
      </trkpt>
      <trkpt lat="48.53637" lon="-0.25005">
        <ele>239.956237</ele>
        <time>2021-09-06T11:31:42.000Z</time>
      </trkpt>
      <trkpt lat="48.53637" lon="-0.24996">
        <ele>239.847433</ele>
        <time>2021-09-06T11:31:43.000Z</time>
      </trkpt>
      <trkpt lat="48.53638" lon="-0.24986">
        <ele>239.734713</ele>
        <time>2021-09-06T11:31:44.000Z</time>
      </trkpt>
      <trkpt lat="48.53645" lon="-0.24958">
        <ele>239.388445</ele>
        <time>2021-09-06T11:31:47.000Z</time>
      </trkpt>
      <trkpt lat="48.53664" lon="-0.24893">
        <ele>238.575689</ele>
        <time>2021-09-06T11:31:54.000Z</time>
      </trkpt>
      <trkpt lat="48.53682" lon="-0.24855">
        <ele>238.085263</ele>
        <time>2021-09-06T11:31:59.000Z</time>
      </trkpt>
      <trkpt lat="48.53693" lon="-0.24836">
        <ele>237.900725</ele>
        <time>2021-09-06T11:32:02.000Z</time>
      </trkpt>
      <trkpt lat="48.53723" lon="-0.2479">
        <ele>237.421014</ele>
        <time>2021-09-06T11:32:09.000Z</time>
      </trkpt>
      <trkpt lat="48.53753" lon="-0.2474">
        <ele>236.919095</ele>
        <time>2021-09-06T11:32:17.000Z</time>
      </trkpt>
      <trkpt lat="48.53776" lon="-0.247">
        <ele>236.529201</ele>
        <time>2021-09-06T11:32:24.000Z</time>
      </trkpt>
      <trkpt lat="48.53795" lon="-0.24655">
        <ele>236.187169</ele>
        <time>2021-09-06T11:32:32.000Z</time>
      </trkpt>
      <trkpt lat="48.53812" lon="-0.24605">
        <ele>236.427552</ele>
        <time>2021-09-06T11:32:40.000Z</time>
      </trkpt>
      <trkpt lat="48.53824" lon="-0.24567">
        <ele>236.606949</ele>
        <time>2021-09-06T11:32:46.000Z</time>
      </trkpt>
      <trkpt lat="48.53828" lon="-0.24555">
        <ele>236.667184</ele>
        <time>2021-09-06T11:32:48.000Z</time>
      </trkpt>
      <trkpt lat="48.5383" lon="-0.24548">
        <ele>236.696191</ele>
        <time>2021-09-06T11:32:49.000Z</time>
      </trkpt>
      <trkpt lat="48.53834" lon="-0.24536">
        <ele>236.759113</ele>
        <time>2021-09-06T11:32:51.000Z</time>
      </trkpt>
      <trkpt lat="48.53836" lon="-0.24529">
        <ele>236.788549</ele>
        <time>2021-09-06T11:32:52.000Z</time>
      </trkpt>
      <trkpt lat="48.53845" lon="-0.24491">
        <ele>236.961362</ele>
        <time>2021-09-06T11:32:58.000Z</time>
      </trkpt>
      <trkpt lat="48.53858" lon="-0.24445">
        <ele>237.176567</ele>
        <time>2021-09-06T11:33:06.000Z</time>
      </trkpt>
      <trkpt lat="48.53867" lon="-0.24416">
        <ele>237.317154</ele>
        <time>2021-09-06T11:33:12.000Z</time>
      </trkpt>
      <trkpt lat="48.53879" lon="-0.24389">
        <ele>237.852725</ele>
        <time>2021-09-06T11:33:18.000Z</time>
      </trkpt>
      <trkpt lat="48.53899" lon="-0.24354">
        <ele>238.688616</ele>
        <time>2021-09-06T11:33:26.000Z</time>
      </trkpt>
      <trkpt lat="48.53912" lon="-0.24327">
        <ele>239.282755</ele>
        <time>2021-09-06T11:33:33.000Z</time>
      </trkpt>
      <trkpt lat="48.5392" lon="-0.24306">
        <ele>239.731014</ele>
        <time>2021-09-06T11:33:39.000Z</time>
      </trkpt>
      <trkpt lat="48.53928" lon="-0.24285">
        <ele>240.18199</ele>
        <time>2021-09-06T11:33:45.000Z</time>
      </trkpt>
      <trkpt lat="48.53936" lon="-0.24262">
        <ele>240.650849</ele>
        <time>2021-09-06T11:33:51.000Z</time>
      </trkpt>
      <trkpt lat="48.53944" lon="-0.24235">
        <ele>241.186308</ele>
        <time>2021-09-06T11:33:58.000Z</time>
      </trkpt>
      <trkpt lat="48.53953" lon="-0.24206">
        <ele>241.761277</ele>
        <time>2021-09-06T11:34:05.000Z</time>
      </trkpt>
      <trkpt lat="48.53962" lon="-0.24175">
        <ele>242.424852</ele>
        <time>2021-09-06T11:34:12.000Z</time>
      </trkpt>
      <trkpt lat="48.53974" lon="-0.24142">
        <ele>243.320272</ele>
        <time>2021-09-06T11:34:19.000Z</time>
      </trkpt>
      <trkpt lat="48.53978" lon="-0.24128">
        <ele>243.680277</ele>
        <time>2021-09-06T11:34:22.000Z</time>
      </trkpt>
      <trkpt lat="48.53978" lon="-0.24124">
        <ele>243.774589</ele>
        <time>2021-09-06T11:34:23.000Z</time>
      </trkpt>
      <trkpt lat="48.53987" lon="-0.24101">
        <ele>244.411764</ele>
        <time>2021-09-06T11:34:28.000Z</time>
      </trkpt>
      <trkpt lat="48.54001" lon="-0.24073">
        <ele>245.245703</ele>
        <time>2021-09-06T11:34:34.000Z</time>
      </trkpt>
      <trkpt lat="48.54013" lon="-0.24049">
        <ele>245.961229</ele>
        <time>2021-09-06T11:34:40.000Z</time>
      </trkpt>
      <trkpt lat="48.54025" lon="-0.2403">
        <ele>246.603075</ele>
        <time>2021-09-06T11:34:46.000Z</time>
      </trkpt>
      <trkpt lat="48.54042" lon="-0.24011">
        <ele>247.347699</ele>
        <time>2021-09-06T11:34:53.000Z</time>
      </trkpt>
      <trkpt lat="48.54059" lon="-0.23994">
        <ele>248.077584</ele>
        <time>2021-09-06T11:35:00.000Z</time>
      </trkpt>
      <trkpt lat="48.54071" lon="-0.23981">
        <ele>248.61511</ele>
        <time>2021-09-06T11:35:05.000Z</time>
      </trkpt>
      <trkpt lat="48.54083" lon="-0.23969">
        <ele>249.15001</ele>
        <time>2021-09-06T11:35:10.000Z</time>
      </trkpt>
      <trkpt lat="48.54099" lon="-0.23954">
        <ele>249.818035</ele>
        <time>2021-09-06T11:35:16.000Z</time>
      </trkpt>
      <trkpt lat="48.54111" lon="-0.23944">
        <ele>250.291931</ele>
        <time>2021-09-06T11:35:21.000Z</time>
      </trkpt>
      <trkpt lat="48.54128" lon="-0.23927">
        <ele>251.034299</ele>
        <time>2021-09-06T11:35:28.000Z</time>
      </trkpt>
      <trkpt lat="48.54151" lon="-0.23906">
        <ele>252.00038</ele>
        <time>2021-09-06T11:35:37.000Z</time>
      </trkpt>
      <trkpt lat="48.54168" lon="-0.23889">
        <ele>252.720055</ele>
        <time>2021-09-06T11:35:44.000Z</time>
      </trkpt>
      <trkpt lat="48.54184" lon="-0.23872">
        <ele>253.424702</ele>
        <time>2021-09-06T11:35:51.000Z</time>
      </trkpt>
      <trkpt lat="48.54203" lon="-0.23849">
        <ele>254.303283</ele>
        <time>2021-09-06T11:36:00.000Z</time>
      </trkpt>
      <trkpt lat="48.5422" lon="-0.23828">
        <ele>255.081554</ele>
        <time>2021-09-06T11:36:08.000Z</time>
      </trkpt>
      <trkpt lat="48.54234" lon="-0.2381">
        <ele>255.973731</ele>
        <time>2021-09-06T11:36:15.000Z</time>
      </trkpt>
      <trkpt lat="48.54252" lon="-0.23789">
        <ele>257.082505</ele>
        <time>2021-09-06T11:36:23.000Z</time>
      </trkpt>
      <trkpt lat="48.54267" lon="-0.23771">
        <ele>258.054225</ele>
        <time>2021-09-06T11:36:30.000Z</time>
      </trkpt>
      <trkpt lat="48.54283" lon="-0.23751">
        <ele>259.135088</ele>
        <time>2021-09-06T11:36:38.000Z</time>
      </trkpt>
      <trkpt lat="48.543" lon="-0.2373">
        <ele>260.203947</ele>
        <time>2021-09-06T11:36:46.000Z</time>
      </trkpt>
      <trkpt lat="48.54312" lon="-0.23716">
        <ele>260.96506</ele>
        <time>2021-09-06T11:36:52.000Z</time>
      </trkpt>
      <trkpt lat="48.54324" lon="-0.23701">
        <ele>261.76223</ele>
        <time>2021-09-06T11:36:59.000Z</time>
      </trkpt>
      <trkpt lat="48.54337" lon="-0.23687">
        <ele>262.571314</ele>
        <time>2021-09-06T11:37:05.000Z</time>
      </trkpt>
      <trkpt lat="48.54353" lon="-0.23671">
        <ele>263.552963</ele>
        <time>2021-09-06T11:37:12.000Z</time>
      </trkpt>
      <trkpt lat="48.54374" lon="-0.23649">
        <ele>264.645988</ele>
        <time>2021-09-06T11:37:21.000Z</time>
      </trkpt>
      <trkpt lat="48.54393" lon="-0.23628">
        <ele>265.477865</ele>
        <time>2021-09-06T11:37:29.000Z</time>
      </trkpt>
      <trkpt lat="48.54403" lon="-0.23606">
        <ele>266.133306</ele>
        <time>2021-09-06T11:37:35.000Z</time>
      </trkpt>
      <trkpt lat="48.544" lon="-0.23576">
        <ele>266.853254</ele>
        <time>2021-09-06T11:37:41.000Z</time>
      </trkpt>
      <trkpt lat="48.54392" lon="-0.23534">
        <ele>267.888983</ele>
        <time>2021-09-06T11:37:49.000Z</time>
      </trkpt>
      <trkpt lat="48.54382" lon="-0.23494">
        <ele>268.902277</ele>
        <time>2021-09-06T11:37:56.000Z</time>
      </trkpt>
      <trkpt lat="48.54371" lon="-0.23451">
        <ele>269.984989</ele>
        <time>2021-09-06T11:38:03.000Z</time>
      </trkpt>
      <trkpt lat="48.54361" lon="-0.23413">
        <ele>270.70334</ele>
        <time>2021-09-06T11:38:09.000Z</time>
      </trkpt>
      <trkpt lat="48.54357" lon="-0.23398">
        <ele>270.736144</ele>
        <time>2021-09-06T11:38:11.000Z</time>
      </trkpt>
      <trkpt lat="48.54354" lon="-0.23382">
        <ele>270.773068</ele>
        <time>2021-09-06T11:38:13.000Z</time>
      </trkpt>
      <trkpt lat="48.54351" lon="-0.23362">
        <ele>270.815831</ele>
        <time>2021-09-06T11:38:15.000Z</time>
      </trkpt>
      <trkpt lat="48.54351" lon="-0.23351">
        <ele>270.838106</ele>
        <time>2021-09-06T11:38:16.000Z</time>
      </trkpt>
      <trkpt lat="48.54356" lon="-0.23331">
        <ele>270.884594</ele>
        <time>2021-09-06T11:38:18.000Z</time>
      </trkpt>
      <trkpt lat="48.54368" lon="-0.23314">
        <ele>270.93788</ele>
        <time>2021-09-06T11:38:20.000Z</time>
      </trkpt>
      <trkpt lat="48.54376" lon="-0.23307">
        <ele>270.965227</ele>
        <time>2021-09-06T11:38:21.000Z</time>
      </trkpt>
      <trkpt lat="48.54419" lon="-0.23273">
        <ele>271.121205</ele>
        <time>2021-09-06T11:38:27.000Z</time>
      </trkpt>
      <trkpt lat="48.54464" lon="-0.23239">
        <ele>271.159086</ele>
        <time>2021-09-06T11:38:34.000Z</time>
      </trkpt>
      <trkpt lat="48.54502" lon="-0.23212">
        <ele>270.740349</ele>
        <time>2021-09-06T11:38:40.000Z</time>
      </trkpt>
      <trkpt lat="48.54541" lon="-0.23178">
        <ele>270.286405</ele>
        <time>2021-09-06T11:38:46.000Z</time>
      </trkpt>
      <trkpt lat="48.54547" lon="-0.23171">
        <ele>270.209373</ele>
        <time>2021-09-06T11:38:47.000Z</time>
      </trkpt>
      <trkpt lat="48.54556" lon="-0.23153">
        <ele>270.05545</ele>
        <time>2021-09-06T11:38:49.000Z</time>
      </trkpt>
      <trkpt lat="48.5456" lon="-0.23143">
        <ele>269.979335</ele>
        <time>2021-09-06T11:38:50.000Z</time>
      </trkpt>
      <trkpt lat="48.54563" lon="-0.23134">
        <ele>269.908118</ele>
        <time>2021-09-06T11:38:51.000Z</time>
      </trkpt>
      <trkpt lat="48.54567" lon="-0.23104">
        <ele>269.704388</ele>
        <time>2021-09-06T11:38:54.000Z</time>
      </trkpt>
      <trkpt lat="48.54566" lon="-0.23061">
        <ele>269.429101</ele>
        <time>2021-09-06T11:38:59.000Z</time>
      </trkpt>
      <trkpt lat="48.54562" lon="-0.23014">
        <ele>269.314899</ele>
        <time>2021-09-06T11:39:06.000Z</time>
      </trkpt>
      <trkpt lat="48.54553" lon="-0.22986">
        <ele>269.23777</ele>
        <time>2021-09-06T11:39:12.000Z</time>
      </trkpt>
      <trkpt lat="48.54539" lon="-0.22951">
        <ele>269.138263</ele>
        <time>2021-09-06T11:39:20.000Z</time>
      </trkpt>
      <trkpt lat="48.54528" lon="-0.22924">
        <ele>269.060616</ele>
        <time>2021-09-06T11:39:26.000Z</time>
      </trkpt>
      <trkpt lat="48.5451" lon="-0.22884">
        <ele>268.944286</ele>
        <time>2021-09-06T11:39:34.000Z</time>
      </trkpt>
      <trkpt lat="48.54494" lon="-0.22862">
        <ele>268.862815</ele>
        <time>2021-09-06T11:39:39.000Z</time>
      </trkpt>
      <trkpt lat="48.54487" lon="-0.22853">
        <ele>268.829337</ele>
        <time>2021-09-06T11:39:41.000Z</time>
      </trkpt>
      <trkpt lat="48.54464" lon="-0.22823">
        <ele>268.631011</ele>
        <time>2021-09-06T11:39:47.000Z</time>
      </trkpt>
      <trkpt lat="48.54441" lon="-0.2279">
        <ele>268.336838</ele>
        <time>2021-09-06T11:39:53.000Z</time>
      </trkpt>
      <trkpt lat="48.54419" lon="-0.22743">
        <ele>267.978075</ele>
        <time>2021-09-06T11:40:00.000Z</time>
      </trkpt>
      <trkpt lat="48.54401" lon="-0.22683">
        <ele>267.573394</ele>
        <time>2021-09-06T11:40:08.000Z</time>
      </trkpt>
      <trkpt lat="48.54386" lon="-0.22638">
        <ele>267.263625</ele>
        <time>2021-09-06T11:40:14.000Z</time>
      </trkpt>
      <trkpt lat="48.54363" lon="-0.22585">
        <ele>266.74085</ele>
        <time>2021-09-06T11:40:21.000Z</time>
      </trkpt>
      <trkpt lat="48.54339" lon="-0.22539">
        <ele>266.179622</ele>
        <time>2021-09-06T11:40:27.000Z</time>
      </trkpt>
      <trkpt lat="48.54336" lon="-0.22531">
        <ele>266.087865</ele>
        <time>2021-09-06T11:40:28.000Z</time>
      </trkpt>
      <trkpt lat="48.54331" lon="-0.22503">
        <ele>265.805038</ele>
        <time>2021-09-06T11:40:31.000Z</time>
      </trkpt>
      <trkpt lat="48.5432" lon="-0.2243">
        <ele>265.081126</ele>
        <time>2021-09-06T11:40:38.000Z</time>
      </trkpt>
      <trkpt lat="48.54312" lon="-0.224">
        <ele>264.766751</ele>
        <time>2021-09-06T11:40:41.000Z</time>
      </trkpt>
      <trkpt lat="48.54304" lon="-0.22382">
        <ele>264.557086</ele>
        <time>2021-09-06T11:40:43.000Z</time>
      </trkpt>
      <trkpt lat="48.543" lon="-0.22374">
        <ele>264.455957</ele>
        <time>2021-09-06T11:40:44.000Z</time>
      </trkpt>
      <trkpt lat="48.54284" lon="-0.22353">
        <ele>264.275874</ele>
        <time>2021-09-06T11:40:47.000Z</time>
      </trkpt>
      <trkpt lat="48.54263" lon="-0.22322">
        <ele>264.031299</ele>
        <time>2021-09-06T11:40:51.000Z</time>
      </trkpt>
      <trkpt lat="48.54259" lon="-0.22312">
        <ele>263.96846</ele>
        <time>2021-09-06T11:40:52.000Z</time>
      </trkpt>
      <trkpt lat="48.54229" lon="-0.22247">
        <ele>263.524769</ele>
        <time>2021-09-06T11:40:59.000Z</time>
      </trkpt>
      <trkpt lat="48.54207" lon="-0.22214">
        <ele>263.262767</ele>
        <time>2021-09-06T11:41:04.000Z</time>
      </trkpt>
      <trkpt lat="48.54193" lon="-0.22191">
        <ele>263.089019</ele>
        <time>2021-09-06T11:41:09.000Z</time>
      </trkpt>
      <trkpt lat="48.54182" lon="-0.22168">
        <ele>262.961941</ele>
        <time>2021-09-06T11:41:15.000Z</time>
      </trkpt>
      <trkpt lat="48.54171" lon="-0.22128">
        <ele>263.372015</ele>
        <time>2021-09-06T11:41:24.000Z</time>
      </trkpt>
      <trkpt lat="48.54166" lon="-0.22096">
        <ele>263.686142</ele>
        <time>2021-09-06T11:41:32.000Z</time>
      </trkpt>
      <trkpt lat="48.54163" lon="-0.2207">
        <ele>263.943179</ele>
        <time>2021-09-06T11:41:39.000Z</time>
      </trkpt>
      <trkpt lat="48.54162" lon="-0.22042">
        <ele>264.208312</ele>
        <time>2021-09-06T11:41:46.000Z</time>
      </trkpt>
      <trkpt lat="48.5416" lon="-0.22013">
        <ele>264.485518</ele>
        <time>2021-09-06T11:41:53.000Z</time>
      </trkpt>
      <trkpt lat="48.54159" lon="-0.21976">
        <ele>264.833452</ele>
        <time>2021-09-06T11:42:02.000Z</time>
      </trkpt>
      <trkpt lat="48.5416" lon="-0.21931">
        <ele>265.264425</ele>
        <time>2021-09-06T11:42:12.000Z</time>
      </trkpt>
      <trkpt lat="48.54161" lon="-0.21902">
        <ele>265.553386</ele>
        <time>2021-09-06T11:42:18.000Z</time>
      </trkpt>
      <trkpt lat="48.54163" lon="-0.2186">
        <ele>266.427855</ele>
        <time>2021-09-06T11:42:26.000Z</time>
      </trkpt>
      <trkpt lat="48.54165" lon="-0.21805">
        <ele>267.56921</ele>
        <time>2021-09-06T11:42:36.000Z</time>
      </trkpt>
      <trkpt lat="48.54165" lon="-0.21762">
        <ele>268.440331</ele>
        <time>2021-09-06T11:42:44.000Z</time>
      </trkpt>
      <trkpt lat="48.5416" lon="-0.21728">
        <ele>269.163769</ele>
        <time>2021-09-06T11:42:52.000Z</time>
      </trkpt>
      <trkpt lat="48.54154" lon="-0.21704">
        <ele>269.705868</ele>
        <time>2021-09-06T11:43:00.000Z</time>
      </trkpt>
      <trkpt lat="48.54149" lon="-0.21683">
        <ele>270.160091</ele>
        <time>2021-09-06T11:43:07.000Z</time>
      </trkpt>
      <trkpt lat="48.54143" lon="-0.21657">
        <ele>270.729291</ele>
        <time>2021-09-06T11:43:15.000Z</time>
      </trkpt>
      <trkpt lat="48.54141" lon="-0.21633">
        <ele>271.230927</ele>
        <time>2021-09-06T11:43:22.000Z</time>
      </trkpt>
      <trkpt lat="48.54143" lon="-0.21605">
        <ele>271.829609</ele>
        <time>2021-09-06T11:43:29.000Z</time>
      </trkpt>
      <trkpt lat="48.54148" lon="-0.21569">
        <ele>272.626376</ele>
        <time>2021-09-06T11:43:37.000Z</time>
      </trkpt>
      <trkpt lat="48.54155" lon="-0.21522">
        <ele>273.665468</ele>
        <time>2021-09-06T11:43:47.000Z</time>
      </trkpt>
      <trkpt lat="48.54161" lon="-0.21472">
        <ele>274.757265</ele>
        <time>2021-09-06T11:43:57.000Z</time>
      </trkpt>
      <trkpt lat="48.54167" lon="-0.21432">
        <ele>275.642245</ele>
        <time>2021-09-06T11:44:05.000Z</time>
      </trkpt>
      <trkpt lat="48.54173" lon="-0.21393">
        <ele>276.498547</ele>
        <time>2021-09-06T11:44:13.000Z</time>
      </trkpt>
      <trkpt lat="48.54175" lon="-0.21351">
        <ele>277.234444</ele>
        <time>2021-09-06T11:44:22.000Z</time>
      </trkpt>
      <trkpt lat="48.54169" lon="-0.2133">
        <ele>277.543538</ele>
        <time>2021-09-06T11:44:27.000Z</time>
      </trkpt>
      <trkpt lat="48.54148" lon="-0.21306">
        <ele>278.058226</ele>
        <time>2021-09-06T11:44:34.000Z</time>
      </trkpt>
      <trkpt lat="48.54129" lon="-0.21284">
        <ele>278.534324</ele>
        <time>2021-09-06T11:44:40.000Z</time>
      </trkpt>
      <trkpt lat="48.54125" lon="-0.21274">
        <ele>278.682507</ele>
        <time>2021-09-06T11:44:42.000Z</time>
      </trkpt>
      <trkpt lat="48.54125" lon="-0.21268">
        <ele>278.760174</ele>
        <time>2021-09-06T11:44:43.000Z</time>
      </trkpt>
      <trkpt lat="48.54127" lon="-0.21263">
        <ele>278.841804</ele>
        <time>2021-09-06T11:44:44.000Z</time>
      </trkpt>
      <trkpt lat="48.54132" lon="-0.21253">
        <ele>279.009555</ele>
        <time>2021-09-06T11:44:46.000Z</time>
      </trkpt>
      <trkpt lat="48.54136" lon="-0.21249">
        <ele>279.097715</ele>
        <time>2021-09-06T11:44:47.000Z</time>
      </trkpt>
      <trkpt lat="48.54146" lon="-0.21229">
        <ele>279.422021</ele>
        <time>2021-09-06T11:44:51.000Z</time>
      </trkpt>
      <trkpt lat="48.54149" lon="-0.21224">
        <ele>279.510264</ele>
        <time>2021-09-06T11:44:52.000Z</time>
      </trkpt>
      <trkpt lat="48.54159" lon="-0.21202">
        <ele>279.862172</ele>
        <time>2021-09-06T11:44:56.000Z</time>
      </trkpt>
      <trkpt lat="48.54163" lon="-0.2119">
        <ele>280.039981</ele>
        <time>2021-09-06T11:44:58.000Z</time>
      </trkpt>
      <trkpt lat="48.54174" lon="-0.21152">
        <ele>280.554206</ele>
        <time>2021-09-06T11:45:04.000Z</time>
      </trkpt>
      <trkpt lat="48.5418" lon="-0.21107">
        <ele>280.838678</ele>
        <time>2021-09-06T11:45:11.000Z</time>
      </trkpt>
      <trkpt lat="48.5418" lon="-0.211">
        <ele>280.88283</ele>
        <time>2021-09-06T11:45:12.000Z</time>
      </trkpt>
      <trkpt lat="48.54182" lon="-0.2108">
        <ele>281.011298</ele>
        <time>2021-09-06T11:45:15.000Z</time>
      </trkpt>
      <trkpt lat="48.5419" lon="-0.21031">
        <ele>281.327683</ele>
        <time>2021-09-06T11:45:22.000Z</time>
      </trkpt>
      <trkpt lat="48.54196" lon="-0.20989">
        <ele>281.600181</ele>
        <time>2021-09-06T11:45:28.000Z</time>
      </trkpt>
      <trkpt lat="48.54201" lon="-0.20948">
        <ele>281.858331</ele>
        <time>2021-09-06T11:45:34.000Z</time>
      </trkpt>
      <trkpt lat="48.54211" lon="-0.2088">
        <ele>282.27252</ele>
        <time>2021-09-06T11:45:43.000Z</time>
      </trkpt>
      <trkpt lat="48.54213" lon="-0.20872">
        <ele>282.300581</ele>
        <time>2021-09-06T11:45:44.000Z</time>
      </trkpt>
      <trkpt lat="48.54217" lon="-0.20835">
        <ele>282.438033</ele>
        <time>2021-09-06T11:45:49.000Z</time>
      </trkpt>
      <trkpt lat="48.54224" lon="-0.20783">
        <ele>282.629529</ele>
        <time>2021-09-06T11:45:56.000Z</time>
      </trkpt>
      <trkpt lat="48.5423" lon="-0.20747">
        <ele>282.762471</ele>
        <time>2021-09-06T11:46:01.000Z</time>
      </trkpt>
      <trkpt lat="48.54231" lon="-0.20733">
        <ele>282.813763</ele>
        <time>2021-09-06T11:46:03.000Z</time>
      </trkpt>
      <trkpt lat="48.54231" lon="-0.20697">
        <ele>282.941824</ele>
        <time>2021-09-06T11:46:08.000Z</time>
      </trkpt>
      <trkpt lat="48.5423" lon="-0.2069">
        <ele>282.968513</ele>
        <time>2021-09-06T11:46:09.000Z</time>
      </trkpt>
      <trkpt lat="48.5423" lon="-0.20682">
        <ele>282.995615</ele>
        <time>2021-09-06T11:46:10.000Z</time>
      </trkpt>
      <trkpt lat="48.54228" lon="-0.20668">
        <ele>283.048334</ele>
        <time>2021-09-06T11:46:12.000Z</time>
      </trkpt>
      <trkpt lat="48.54225" lon="-0.20662">
        <ele>283.075646</ele>
        <time>2021-09-06T11:46:13.000Z</time>
      </trkpt>
      <trkpt lat="48.54216" lon="-0.20653">
        <ele>283.132166</ele>
        <time>2021-09-06T11:46:15.000Z</time>
      </trkpt>
      <trkpt lat="48.54202" lon="-0.20641">
        <ele>283.211903</ele>
        <time>2021-09-06T11:46:18.000Z</time>
      </trkpt>
      <trkpt lat="48.54193" lon="-0.20632">
        <ele>283.186016</ele>
        <time>2021-09-06T11:46:20.000Z</time>
      </trkpt>
      <trkpt lat="48.54189" lon="-0.20617">
        <ele>283.161043</ele>
        <time>2021-09-06T11:46:22.000Z</time>
      </trkpt>
      <trkpt lat="48.54192" lon="-0.20561">
        <ele>283.071093</ele>
        <time>2021-09-06T11:46:29.000Z</time>
      </trkpt>
      <trkpt lat="48.54197" lon="-0.20496">
        <ele>282.967973</ele>
        <time>2021-09-06T11:46:37.000Z</time>
      </trkpt>
      <trkpt lat="48.54198" lon="-0.2048">
        <ele>282.941615</ele>
        <time>2021-09-06T11:46:39.000Z</time>
      </trkpt>
      <trkpt lat="48.542" lon="-0.20455">
        <ele>282.902522</ele>
        <time>2021-09-06T11:46:42.000Z</time>
      </trkpt>
      <trkpt lat="48.54205" lon="-0.20374">
        <ele>282.744792</ele>
        <time>2021-09-06T11:46:52.000Z</time>
      </trkpt>
      <trkpt lat="48.54208" lon="-0.2029">
        <ele>282.273244</ele>
        <time>2021-09-06T11:47:02.000Z</time>
      </trkpt>
      <trkpt lat="48.54212" lon="-0.20232">
        <ele>281.950499</ele>
        <time>2021-09-06T11:47:09.000Z</time>
      </trkpt>
      <trkpt lat="48.54216" lon="-0.20161">
        <ele>281.550784</ele>
        <time>2021-09-06T11:47:17.000Z</time>
      </trkpt>
      <trkpt lat="48.54219" lon="-0.20097">
        <ele>281.156799</ele>
        <time>2021-09-06T11:47:24.000Z</time>
      </trkpt>
      <trkpt lat="48.54224" lon="-0.20016">
        <ele>280.45778</ele>
        <time>2021-09-06T11:47:33.000Z</time>
      </trkpt>
      <trkpt lat="48.54228" lon="-0.19942">
        <ele>279.830883</ele>
        <time>2021-09-06T11:47:41.000Z</time>
      </trkpt>
      <trkpt lat="48.54232" lon="-0.19861">
        <ele>279.137913</ele>
        <time>2021-09-06T11:47:50.000Z</time>
      </trkpt>
      <trkpt lat="48.54233" lon="-0.19853">
        <ele>279.065138</ele>
        <time>2021-09-06T11:47:51.000Z</time>
      </trkpt>
      <trkpt lat="48.54235" lon="-0.19818">
        <ele>278.838798</ele>
        <time>2021-09-06T11:47:55.000Z</time>
      </trkpt>
      <trkpt lat="48.54236" lon="-0.19792">
        <ele>278.699083</ele>
        <time>2021-09-06T11:47:58.000Z</time>
      </trkpt>
      <trkpt lat="48.54241" lon="-0.19712">
        <ele>278.270268</ele>
        <time>2021-09-06T11:48:07.000Z</time>
      </trkpt>
      <trkpt lat="48.54245" lon="-0.19645">
        <ele>277.909989</ele>
        <time>2021-09-06T11:48:15.000Z</time>
      </trkpt>
      <trkpt lat="48.54248" lon="-0.19594">
        <ele>277.63543</ele>
        <time>2021-09-06T11:48:21.000Z</time>
      </trkpt>
      <trkpt lat="48.5425" lon="-0.19551">
        <ele>277.620837</ele>
        <time>2021-09-06T11:48:27.000Z</time>
      </trkpt>
      <trkpt lat="48.54252" lon="-0.19518">
        <ele>277.85468</ele>
        <time>2021-09-06T11:48:33.000Z</time>
      </trkpt>
      <trkpt lat="48.54255" lon="-0.19471">
        <ele>278.187382</ele>
        <time>2021-09-06T11:48:42.000Z</time>
      </trkpt>
      <trkpt lat="48.54257" lon="-0.19424">
        <ele>278.516499</ele>
        <time>2021-09-06T11:48:51.000Z</time>
      </trkpt>
      <trkpt lat="48.5426" lon="-0.19384">
        <ele>278.800894</ele>
        <time>2021-09-06T11:48:59.000Z</time>
      </trkpt>
      <trkpt lat="48.54263" lon="-0.19332">
        <ele>279.16537</ele>
        <time>2021-09-06T11:49:09.000Z</time>
      </trkpt>
      <trkpt lat="48.54265" lon="-0.19296">
        <ele>279.451621</ele>
        <time>2021-09-06T11:49:16.000Z</time>
      </trkpt>
      <trkpt lat="48.54267" lon="-0.19257">
        <ele>280.242216</ele>
        <time>2021-09-06T11:49:24.000Z</time>
      </trkpt>
      <trkpt lat="48.5427" lon="-0.19219">
        <ele>281.008067</ele>
        <time>2021-09-06T11:49:32.000Z</time>
      </trkpt>
      <trkpt lat="48.54271" lon="-0.1919">
        <ele>281.593824</ele>
        <time>2021-09-06T11:49:39.000Z</time>
      </trkpt>
      <trkpt lat="48.54273" lon="-0.19157">
        <ele>282.274809</ele>
        <time>2021-09-06T11:49:47.000Z</time>
      </trkpt>
      <trkpt lat="48.54275" lon="-0.1912">
        <ele>283.02327</ele>
        <time>2021-09-06T11:49:56.000Z</time>
      </trkpt>
      <trkpt lat="48.54278" lon="-0.1908">
        <ele>283.840634</ele>
        <time>2021-09-06T11:50:06.000Z</time>
      </trkpt>
      <trkpt lat="48.54279" lon="-0.19045">
        <ele>284.534178</ele>
        <time>2021-09-06T11:50:15.000Z</time>
      </trkpt>
      <trkpt lat="48.54281" lon="-0.19011">
        <ele>285.306687</ele>
        <time>2021-09-06T11:50:24.000Z</time>
      </trkpt>
      <trkpt lat="48.54283" lon="-0.18983">
        <ele>285.977944</ele>
        <time>2021-09-06T11:50:31.000Z</time>
      </trkpt>
      <trkpt lat="48.54286" lon="-0.18947">
        <ele>286.845937</ele>
        <time>2021-09-06T11:50:40.000Z</time>
      </trkpt>
      <trkpt lat="48.54286" lon="-0.18923">
        <ele>287.425976</ele>
        <time>2021-09-06T11:50:46.000Z</time>
      </trkpt>
      <trkpt lat="48.54288" lon="-0.18894">
        <ele>288.128056</ele>
        <time>2021-09-06T11:50:53.000Z</time>
      </trkpt>
      <trkpt lat="48.54289" lon="-0.18856">
        <ele>289.045155</ele>
        <time>2021-09-06T11:51:02.000Z</time>
      </trkpt>
      <trkpt lat="48.54288" lon="-0.18811">
        <ele>290.11379</ele>
        <time>2021-09-06T11:51:12.000Z</time>
      </trkpt>
      <trkpt lat="48.54285" lon="-0.18777">
        <ele>290.948459</ele>
        <time>2021-09-06T11:51:19.000Z</time>
      </trkpt>
      <trkpt lat="48.54278" lon="-0.18739">
        <ele>291.486493</ele>
        <time>2021-09-06T11:51:26.000Z</time>
      </trkpt>
      <trkpt lat="48.54274" lon="-0.1872">
        <ele>291.542107</ele>
        <time>2021-09-06T11:51:29.000Z</time>
      </trkpt>
      <trkpt lat="48.54269" lon="-0.18701">
        <ele>291.598816</ele>
        <time>2021-09-06T11:51:32.000Z</time>
      </trkpt>
      <trkpt lat="48.54255" lon="-0.18658">
        <ele>291.727887</ele>
        <time>2021-09-06T11:51:38.000Z</time>
      </trkpt>
      <trkpt lat="48.54231" lon="-0.18605">
        <ele>291.902288</ele>
        <time>2021-09-06T11:51:45.000Z</time>
      </trkpt>
      <trkpt lat="48.54217" lon="-0.18573">
        <ele>292.008638</ele>
        <time>2021-09-06T11:51:49.000Z</time>
      </trkpt>
      <trkpt lat="48.54211" lon="-0.18555">
        <ele>292.06277</ele>
        <time>2021-09-06T11:51:51.000Z</time>
      </trkpt>
      <trkpt lat="48.54209" lon="-0.18512">
        <ele>292.168964</ele>
        <time>2021-09-06T11:51:55.000Z</time>
      </trkpt>
      <trkpt lat="48.54209" lon="-0.18465">
        <ele>291.914616</ele>
        <time>2021-09-06T11:51:59.000Z</time>
      </trkpt>
      <trkpt lat="48.54207" lon="-0.18453">
        <ele>291.851888</ele>
        <time>2021-09-06T11:52:00.000Z</time>
      </trkpt>
      <trkpt lat="48.54197" lon="-0.18368">
        <ele>291.384559</ele>
        <time>2021-09-06T11:52:07.000Z</time>
      </trkpt>
      <trkpt lat="48.54196" lon="-0.18356">
        <ele>291.318375</ele>
        <time>2021-09-06T11:52:08.000Z</time>
      </trkpt>
      <trkpt lat="48.54192" lon="-0.18305">
        <ele>291.040592</ele>
        <time>2021-09-06T11:52:13.000Z</time>
      </trkpt>
      <trkpt lat="48.54191" lon="-0.18267">
        <ele>290.834227</ele>
        <time>2021-09-06T11:52:18.000Z</time>
      </trkpt>
      <trkpt lat="48.54192" lon="-0.18238">
        <ele>290.764073</ele>
        <time>2021-09-06T11:52:23.000Z</time>
      </trkpt>
      <trkpt lat="48.54187" lon="-0.18206">
        <ele>291.056941</ele>
        <time>2021-09-06T11:52:29.000Z</time>
      </trkpt>
      <trkpt lat="48.54174" lon="-0.18183">
        <ele>291.329459</ele>
        <time>2021-09-06T11:52:35.000Z</time>
      </trkpt>
      <trkpt lat="48.54159" lon="-0.18154">
        <ele>291.657539</ele>
        <time>2021-09-06T11:52:43.000Z</time>
      </trkpt>
      <trkpt lat="48.5415" lon="-0.18124">
        <ele>291.950805</ele>
        <time>2021-09-06T11:52:50.000Z</time>
      </trkpt>
      <trkpt lat="48.54146" lon="-0.18093">
        <ele>292.236437</ele>
        <time>2021-09-06T11:52:57.000Z</time>
      </trkpt>
      <trkpt lat="48.54143" lon="-0.18054">
        <ele>292.589816</ele>
        <time>2021-09-06T11:53:06.000Z</time>
      </trkpt>
      <trkpt lat="48.54143" lon="-0.18008">
        <ele>292.997656</ele>
        <time>2021-09-06T11:53:16.000Z</time>
      </trkpt>
      <trkpt lat="48.54145" lon="-0.17971">
        <ele>293.266961</ele>
        <time>2021-09-06T11:53:23.000Z</time>
      </trkpt>
      <trkpt lat="48.54146" lon="-0.17965">
        <ele>293.302515</ele>
        <time>2021-09-06T11:53:24.000Z</time>
      </trkpt>
      <trkpt lat="48.5415" lon="-0.17938">
        <ele>293.465298</ele>
        <time>2021-09-06T11:53:28.000Z</time>
      </trkpt>
      <trkpt lat="48.54155" lon="-0.17909">
        <ele>293.646639</ele>
        <time>2021-09-06T11:53:32.000Z</time>
      </trkpt>
      <trkpt lat="48.54164" lon="-0.17864">
        <ele>293.923731</ele>
        <time>2021-09-06T11:53:37.000Z</time>
      </trkpt>
      <trkpt lat="48.54185" lon="-0.17787">
        <ele>294.419341</ele>
        <time>2021-09-06T11:53:45.000Z</time>
      </trkpt>
      <trkpt lat="48.54208" lon="-0.17718">
        <ele>294.617062</ele>
        <time>2021-09-06T11:53:52.000Z</time>
      </trkpt>
      <trkpt lat="48.54233" lon="-0.17653">
        <ele>294.107338</ele>
        <time>2021-09-06T11:53:59.000Z</time>
      </trkpt>
      <trkpt lat="48.54237" lon="-0.17645">
        <ele>294.03833</ele>
        <time>2021-09-06T11:54:00.000Z</time>
      </trkpt>
      <trkpt lat="48.54255" lon="-0.17603">
        <ele>293.702305</ele>
        <time>2021-09-06T11:54:05.000Z</time>
      </trkpt>
      <trkpt lat="48.54274" lon="-0.17566">
        <ele>293.382931</ele>
        <time>2021-09-06T11:54:10.000Z</time>
      </trkpt>
      <trkpt lat="48.543" lon="-0.17516">
        <ele>292.952952</ele>
        <time>2021-09-06T11:54:17.000Z</time>
      </trkpt>
      <trkpt lat="48.54332" lon="-0.1746">
        <ele>292.332559</ele>
        <time>2021-09-06T11:54:25.000Z</time>
      </trkpt>
      <trkpt lat="48.5436" lon="-0.17416">
        <ele>291.824835</ele>
        <time>2021-09-06T11:54:31.000Z</time>
      </trkpt>
      <trkpt lat="48.54389" lon="-0.17374">
        <ele>291.30748</ele>
        <time>2021-09-06T11:54:37.000Z</time>
      </trkpt>
      <trkpt lat="48.54405" lon="-0.17353">
        <ele>291.045372</ele>
        <time>2021-09-06T11:54:40.000Z</time>
      </trkpt>
      <trkpt lat="48.54414" lon="-0.1734">
        <ele>290.881391</ele>
        <time>2021-09-06T11:54:42.000Z</time>
      </trkpt>
      <trkpt lat="48.54434" lon="-0.17313">
        <ele>290.679124</ele>
        <time>2021-09-06T11:54:47.000Z</time>
      </trkpt>
      <trkpt lat="48.54457" lon="-0.17283">
        <ele>290.942482</ele>
        <time>2021-09-06T11:54:54.000Z</time>
      </trkpt>
      <trkpt lat="48.54472" lon="-0.17264">
        <ele>291.107058</ele>
        <time>2021-09-06T11:55:00.000Z</time>
      </trkpt>
      <trkpt lat="48.54486" lon="-0.17247">
        <ele>291.260402</ele>
        <time>2021-09-06T11:55:06.000Z</time>
      </trkpt>
      <trkpt lat="48.54501" lon="-0.1723">
        <ele>291.428896</ele>
        <time>2021-09-06T11:55:13.000Z</time>
      </trkpt>
      <trkpt lat="48.54517" lon="-0.17214">
        <ele>291.593347</ele>
        <time>2021-09-06T11:55:19.000Z</time>
      </trkpt>
      <trkpt lat="48.54535" lon="-0.17193">
        <ele>291.790804</ele>
        <time>2021-09-06T11:55:27.000Z</time>
      </trkpt>
      <trkpt lat="48.54556" lon="-0.17172">
        <ele>292.009324</ele>
        <time>2021-09-06T11:55:35.000Z</time>
      </trkpt>
      <trkpt lat="48.54585" lon="-0.17146">
        <ele>292.084071</ele>
        <time>2021-09-06T11:55:44.000Z</time>
      </trkpt>
      <trkpt lat="48.54616" lon="-0.17118">
        <ele>291.848797</ele>
        <time>2021-09-06T11:55:53.000Z</time>
      </trkpt>
      <trkpt lat="48.5462" lon="-0.17116">
        <ele>291.820646</ele>
        <time>2021-09-06T11:55:54.000Z</time>
      </trkpt>
      <trkpt lat="48.54644" lon="-0.17096">
        <ele>291.645899</ele>
        <time>2021-09-06T11:56:00.000Z</time>
      </trkpt>
      <trkpt lat="48.54655" lon="-0.17089">
        <ele>291.566802</ele>
        <time>2021-09-06T11:56:03.000Z</time>
      </trkpt>
      <trkpt lat="48.54666" lon="-0.1708">
        <ele>291.481354</ele>
        <time>2021-09-06T11:56:06.000Z</time>
      </trkpt>
      <trkpt lat="48.5467" lon="-0.17077">
        <ele>291.451654</ele>
        <time>2021-09-06T11:56:07.000Z</time>
      </trkpt>
      <trkpt lat="48.54688" lon="-0.17065">
        <ele>291.325014</ele>
        <time>2021-09-06T11:56:11.000Z</time>
      </trkpt>
      <trkpt lat="48.5471" lon="-0.1705">
        <ele>291.16635</ele>
        <time>2021-09-06T11:56:16.000Z</time>
      </trkpt>
      <trkpt lat="48.54719" lon="-0.17045">
        <ele>291.10337</ele>
        <time>2021-09-06T11:56:18.000Z</time>
      </trkpt>
      <trkpt lat="48.54757" lon="-0.17021">
        <ele>290.654311</ele>
        <time>2021-09-06T11:56:26.000Z</time>
      </trkpt>
      <trkpt lat="48.54792" lon="-0.16999">
        <ele>290.137247</ele>
        <time>2021-09-06T11:56:33.000Z</time>
      </trkpt>
      <trkpt lat="48.54826" lon="-0.16979">
        <ele>289.646423</ele>
        <time>2021-09-06T11:56:39.000Z</time>
      </trkpt>
      <trkpt lat="48.54871" lon="-0.16952">
        <ele>288.983495</ele>
        <time>2021-09-06T11:56:46.000Z</time>
      </trkpt>
      <trkpt lat="48.54907" lon="-0.1693">
        <ele>288.38061</ele>
        <time>2021-09-06T11:56:51.000Z</time>
      </trkpt>
      <trkpt lat="48.54959" lon="-0.16897">
        <ele>286.981503</ele>
        <time>2021-09-06T11:56:58.000Z</time>
      </trkpt>
      <trkpt lat="48.54975" lon="-0.16887">
        <ele>286.572395</ele>
        <time>2021-09-06T11:57:00.000Z</time>
      </trkpt>
      <trkpt lat="48.55029" lon="-0.16855">
        <ele>285.125372</ele>
        <time>2021-09-06T11:57:07.000Z</time>
      </trkpt>
      <trkpt lat="48.55036" lon="-0.1685">
        <ele>284.944481</ele>
        <time>2021-09-06T11:57:08.000Z</time>
      </trkpt>
      <trkpt lat="48.55044" lon="-0.16845">
        <ele>284.735131</ele>
        <time>2021-09-06T11:57:10.000Z</time>
      </trkpt>
      <trkpt lat="48.55045" lon="-0.16847">
        <ele>284.688046</ele>
        <time>2021-09-06T11:57:11.000Z</time>
      </trkpt>
      <trkpt lat="48.55043" lon="-0.16851">
        <ele>284.587388</ele>
        <time>2021-09-06T11:57:13.000Z</time>
      </trkpt>
      <trkpt lat="48.55029" lon="-0.16854">
        <ele>284.236001</ele>
        <time>2021-09-06T11:57:18.000Z</time>
      </trkpt>
      <trkpt lat="48.55019" lon="-0.16837">
        <ele>284.044823</ele>
        <time>2021-09-06T11:57:22.000Z</time>
      </trkpt>
      <trkpt lat="48.55008" lon="-0.16802">
        <ele>283.838017</ele>
        <time>2021-09-06T11:57:29.000Z</time>
      </trkpt>
      <trkpt lat="48.54998" lon="-0.16773">
        <ele>283.663725</ele>
        <time>2021-09-06T11:57:36.000Z</time>
      </trkpt>
      <trkpt lat="48.54986" lon="-0.16739">
        <ele>283.458235</ele>
        <time>2021-09-06T11:57:45.000Z</time>
      </trkpt>
      <trkpt lat="48.54977" lon="-0.16708">
        <ele>283.27425</ele>
        <time>2021-09-06T11:57:53.000Z</time>
      </trkpt>
      <trkpt lat="48.54964" lon="-0.16665">
        <ele>283.021432</ele>
        <time>2021-09-06T11:58:04.000Z</time>
      </trkpt>
      <trkpt lat="48.54956" lon="-0.16627">
        <ele>282.812485</ele>
        <time>2021-09-06T11:58:12.000Z</time>
      </trkpt>
      <trkpt lat="48.54948" lon="-0.16583">
        <ele>282.588012</ele>
        <time>2021-09-06T11:58:20.000Z</time>
      </trkpt>
      <trkpt lat="48.54946" lon="-0.16558">
        <ele>282.482442</ele>
        <time>2021-09-06T11:58:24.000Z</time>
      </trkpt>
      <trkpt lat="48.54946" lon="-0.16544">
        <ele>282.421118</ele>
        <time>2021-09-06T11:58:26.000Z</time>
      </trkpt>
      <trkpt lat="48.54945" lon="-0.16492">
        <ele>282.202933</ele>
        <time>2021-09-06T11:58:32.000Z</time>
      </trkpt>
      <trkpt lat="48.54945" lon="-0.16452">
        <ele>282.03282</ele>
        <time>2021-09-06T11:58:36.000Z</time>
      </trkpt>
      <trkpt lat="48.54944" lon="-0.16431">
        <ele>281.943787</ele>
        <time>2021-09-06T11:58:38.000Z</time>
      </trkpt>
      <trkpt lat="48.54943" lon="-0.16367">
        <ele>281.671091</ele>
        <time>2021-09-06T11:58:44.000Z</time>
      </trkpt>
      <trkpt lat="48.54949" lon="-0.16303">
        <ele>281.244088</ele>
        <time>2021-09-06T11:58:50.000Z</time>
      </trkpt>
      <trkpt lat="48.54957" lon="-0.16235">
        <ele>280.597866</ele>
        <time>2021-09-06T11:58:57.000Z</time>
      </trkpt>
      <trkpt lat="48.54963" lon="-0.16178">
        <ele>280.052734</ele>
        <time>2021-09-06T11:59:03.000Z</time>
      </trkpt>
      <trkpt lat="48.54969" lon="-0.16108">
        <ele>279.392119</ele>
        <time>2021-09-06T11:59:11.000Z</time>
      </trkpt>
      <trkpt lat="48.5497" lon="-0.16083">
        <ele>279.15451</ele>
        <time>2021-09-06T11:59:14.000Z</time>
      </trkpt>
      <trkpt lat="48.5497" lon="-0.1606">
        <ele>278.973436</ele>
        <time>2021-09-06T11:59:17.000Z</time>
      </trkpt>
      <trkpt lat="48.54969" lon="-0.16011">
        <ele>279.070227</ele>
        <time>2021-09-06T11:59:24.000Z</time>
      </trkpt>
      <trkpt lat="48.54968" lon="-0.15997">
        <ele>279.096605</ele>
        <time>2021-09-06T11:59:26.000Z</time>
      </trkpt>
      <trkpt lat="48.54968" lon="-0.1597">
        <ele>279.149503</ele>
        <time>2021-09-06T11:59:30.000Z</time>
      </trkpt>
      <trkpt lat="48.54967" lon="-0.1595">
        <ele>279.189465</ele>
        <time>2021-09-06T11:59:33.000Z</time>
      </trkpt>
      <trkpt lat="48.54968" lon="-0.1593">
        <ele>279.229225</ele>
        <time>2021-09-06T11:59:36.000Z</time>
      </trkpt>
      <trkpt lat="48.5497" lon="-0.15897">
        <ele>279.293337</ele>
        <time>2021-09-06T11:59:41.000Z</time>
      </trkpt>
      <trkpt lat="48.54973" lon="-0.15878">
        <ele>279.331587</ele>
        <time>2021-09-06T11:59:44.000Z</time>
      </trkpt>
      <trkpt lat="48.54978" lon="-0.15836">
        <ele>279.414572</ele>
        <time>2021-09-06T11:59:51.000Z</time>
      </trkpt>
      <trkpt lat="48.54983" lon="-0.15788">
        <ele>279.583136</ele>
        <time>2021-09-06T12:00:00.000Z</time>
      </trkpt>
      <trkpt lat="48.54985" lon="-0.15756">
        <ele>280.026551</ele>
        <time>2021-09-06T12:00:06.000Z</time>
      </trkpt>
      <trkpt lat="48.54986" lon="-0.15706">
        <ele>280.717777</ele>
        <time>2021-09-06T12:00:16.000Z</time>
      </trkpt>
      <trkpt lat="48.54983" lon="-0.15672">
        <ele>281.187698</ele>
        <time>2021-09-06T12:00:23.000Z</time>
      </trkpt>
      <trkpt lat="48.54978" lon="-0.15625">
        <ele>281.8404</ele>
        <time>2021-09-06T12:00:32.000Z</time>
      </trkpt>
      <trkpt lat="48.54975" lon="-0.15582">
        <ele>282.43559</ele>
        <time>2021-09-06T12:00:40.000Z</time>
      </trkpt>
      <trkpt lat="48.54973" lon="-0.15538">
        <ele>283.043391</ele>
        <time>2021-09-06T12:00:48.000Z</time>
      </trkpt>
      <trkpt lat="48.54974" lon="-0.15486">
        <ele>283.529727</ele>
        <time>2021-09-06T12:00:57.000Z</time>
      </trkpt>
      <trkpt lat="48.54974" lon="-0.15437">
        <ele>283.901294</ele>
        <time>2021-09-06T12:01:05.000Z</time>
      </trkpt>
      <trkpt lat="48.54973" lon="-0.15381">
        <ele>284.324482</ele>
        <time>2021-09-06T12:01:14.000Z</time>
      </trkpt>
      <trkpt lat="48.54968" lon="-0.15326">
        <ele>284.750883</ele>
        <time>2021-09-06T12:01:23.000Z</time>
      </trkpt>
      <trkpt lat="48.54957" lon="-0.15284">
        <ele>285.09458</ele>
        <time>2021-09-06T12:01:30.000Z</time>
      </trkpt>
      <trkpt lat="48.54935" lon="-0.15233">
        <ele>285.374278</ele>
        <time>2021-09-06T12:01:39.000Z</time>
      </trkpt>
      <trkpt lat="48.54911" lon="-0.15173">
        <ele>285.514861</ele>
        <time>2021-09-06T12:01:49.000Z</time>
      </trkpt>
      <trkpt lat="48.54891" lon="-0.15128">
        <ele>285.624678</ele>
        <time>2021-09-06T12:01:57.000Z</time>
      </trkpt>
      <trkpt lat="48.54875" lon="-0.15089">
        <ele>285.718359</ele>
        <time>2021-09-06T12:02:04.000Z</time>
      </trkpt>
      <trkpt lat="48.54855" lon="-0.15031">
        <ele>285.849877</ele>
        <time>2021-09-06T12:02:14.000Z</time>
      </trkpt>
      <trkpt lat="48.54841" lon="-0.14971">
        <ele>286.175821</ele>
        <time>2021-09-06T12:02:24.000Z</time>
      </trkpt>
      <trkpt lat="48.54832" lon="-0.14924">
        <ele>286.438381</ele>
        <time>2021-09-06T12:02:32.000Z</time>
      </trkpt>
      <trkpt lat="48.54822" lon="-0.14872">
        <ele>286.72824</ele>
        <time>2021-09-06T12:02:41.000Z</time>
      </trkpt>
      <trkpt lat="48.54813" lon="-0.14826">
        <ele>286.991013</ele>
        <time>2021-09-06T12:02:50.000Z</time>
      </trkpt>
      <trkpt lat="48.54805" lon="-0.14786">
        <ele>287.210334</ele>
        <time>2021-09-06T12:02:58.000Z</time>
      </trkpt>
      <trkpt lat="48.54792" lon="-0.14722">
        <ele>287.510823</ele>
        <time>2021-09-06T12:03:11.000Z</time>
      </trkpt>
      <trkpt lat="48.54785" lon="-0.14691">
        <ele>287.642308</ele>
        <time>2021-09-06T12:03:17.000Z</time>
      </trkpt>
      <trkpt lat="48.54773" lon="-0.14642">
        <ele>287.854833</ele>
        <time>2021-09-06T12:03:25.000Z</time>
      </trkpt>
      <trkpt lat="48.54757" lon="-0.14582">
        <ele>288.117671</ele>
        <time>2021-09-06T12:03:34.000Z</time>
      </trkpt>
      <trkpt lat="48.54743" lon="-0.1452">
        <ele>288.385052</ele>
        <time>2021-09-06T12:03:43.000Z</time>
      </trkpt>
      <trkpt lat="48.54736" lon="-0.14465">
        <ele>288.336998</ele>
        <time>2021-09-06T12:03:50.000Z</time>
      </trkpt>
      <trkpt lat="48.54729" lon="-0.14401">
        <ele>288.22224</ele>
        <time>2021-09-06T12:03:58.000Z</time>
      </trkpt>
      <trkpt lat="48.54715" lon="-0.14333">
        <ele>288.095685</ele>
        <time>2021-09-06T12:04:07.000Z</time>
      </trkpt>
      <trkpt lat="48.54698" lon="-0.14262">
        <ele>287.964269</ele>
        <time>2021-09-06T12:04:16.000Z</time>
      </trkpt>
      <trkpt lat="48.54686" lon="-0.14209">
        <ele>287.878088</ele>
        <time>2021-09-06T12:04:23.000Z</time>
      </trkpt>
      <trkpt lat="48.54672" lon="-0.14149">
        <ele>287.784176</ele>
        <time>2021-09-06T12:04:31.000Z</time>
      </trkpt>
      <trkpt lat="48.54661" lon="-0.14103">
        <ele>287.712987</ele>
        <time>2021-09-06T12:04:38.000Z</time>
      </trkpt>
      <trkpt lat="48.5466" lon="-0.14095">
        <ele>287.702367</ele>
        <time>2021-09-06T12:04:39.000Z</time>
      </trkpt>
      <trkpt lat="48.5466" lon="-0.14067">
        <ele>287.660522</ele>
        <time>2021-09-06T12:04:43.000Z</time>
      </trkpt>
      <trkpt lat="48.54661" lon="-0.14053">
        <ele>287.640738</ele>
        <time>2021-09-06T12:04:45.000Z</time>
      </trkpt>
      <trkpt lat="48.54663" lon="-0.14041">
        <ele>287.622046</ele>
        <time>2021-09-06T12:04:47.000Z</time>
      </trkpt>
      <trkpt lat="48.54665" lon="-0.14029">
        <ele>287.604028</ele>
        <time>2021-09-06T12:04:49.000Z</time>
      </trkpt>
      <trkpt lat="48.54672" lon="-0.13979">
        <ele>287.547072</ele>
        <time>2021-09-06T12:04:57.000Z</time>
      </trkpt>
      <trkpt lat="48.54679" lon="-0.13928">
        <ele>287.564953</ele>
        <time>2021-09-06T12:05:05.000Z</time>
      </trkpt>
      <trkpt lat="48.54688" lon="-0.13894">
        <ele>287.577582</ele>
        <time>2021-09-06T12:05:10.000Z</time>
      </trkpt>
      <trkpt lat="48.54691" lon="-0.13888">
        <ele>287.580176</ele>
        <time>2021-09-06T12:05:11.000Z</time>
      </trkpt>
      <trkpt lat="48.54708" lon="-0.13861">
        <ele>287.592981</ele>
        <time>2021-09-06T12:05:16.000Z</time>
      </trkpt>
      <trkpt lat="48.54717" lon="-0.13842">
        <ele>287.601205</ele>
        <time>2021-09-06T12:05:19.000Z</time>
      </trkpt>
      <trkpt lat="48.54724" lon="-0.1382">
        <ele>287.609651</ele>
        <time>2021-09-06T12:05:22.000Z</time>
      </trkpt>
      <trkpt lat="48.54726" lon="-0.13813">
        <ele>287.612441</ele>
        <time>2021-09-06T12:05:23.000Z</time>
      </trkpt>
      <trkpt lat="48.54728" lon="-0.1379">
        <ele>287.62031</ele>
        <time>2021-09-06T12:05:26.000Z</time>
      </trkpt>
      <trkpt lat="48.54728" lon="-0.13783">
        <ele>287.622592</ele>
        <time>2021-09-06T12:05:27.000Z</time>
      </trkpt>
      <trkpt lat="48.54726" lon="-0.13762">
        <ele>287.629976</ele>
        <time>2021-09-06T12:05:31.000Z</time>
      </trkpt>
      <trkpt lat="48.5472" lon="-0.13741">
        <ele>287.648649</ele>
        <time>2021-09-06T12:05:38.000Z</time>
      </trkpt>
      <trkpt lat="48.54716" lon="-0.13738">
        <ele>287.709445</ele>
        <time>2021-09-06T12:05:40.000Z</time>
      </trkpt>
      <trkpt lat="48.54709" lon="-0.13738">
        <ele>287.815506</ele>
        <time>2021-09-06T12:05:43.000Z</time>
      </trkpt>
      <trkpt lat="48.5469" lon="-0.13736">
        <ele>288.095068</ele>
        <time>2021-09-06T12:05:50.000Z</time>
      </trkpt>
      <trkpt lat="48.54664" lon="-0.13732">
        <ele>288.482342</ele>
        <time>2021-09-06T12:05:58.000Z</time>
      </trkpt>
      <trkpt lat="48.54629" lon="-0.13721">
        <ele>289.007339</ele>
        <time>2021-09-06T12:06:09.000Z</time>
      </trkpt>
      <trkpt lat="48.54602" lon="-0.13714">
        <ele>289.406413</ele>
        <time>2021-09-06T12:06:17.000Z</time>
      </trkpt>
      <trkpt lat="48.54572" lon="-0.13706">
        <ele>289.850317</ele>
        <time>2021-09-06T12:06:26.000Z</time>
      </trkpt>
      <trkpt lat="48.54546" lon="-0.13696">
        <ele>290.244469</ele>
        <time>2021-09-06T12:06:34.000Z</time>
      </trkpt>
      <trkpt lat="48.54544" lon="-0.13693">
        <ele>290.296301</ele>
        <time>2021-09-06T12:06:35.000Z</time>
      </trkpt>
      <trkpt lat="48.54538" lon="-0.13681">
        <ele>290.515732</ele>
        <time>2021-09-06T12:06:38.000Z</time>
      </trkpt>
      <trkpt lat="48.54535" lon="-0.13663">
        <ele>290.808639</ele>
        <time>2021-09-06T12:06:42.000Z</time>
      </trkpt>
      <trkpt lat="48.5453" lon="-0.13642">
        <ele>291.136093</ele>
        <time>2021-09-06T12:06:47.000Z</time>
      </trkpt>
      <trkpt lat="48.54523" lon="-0.13619">
        <ele>291.517887</ele>
        <time>2021-09-06T12:06:53.000Z</time>
      </trkpt>
      <trkpt lat="48.54522" lon="-0.13595">
        <ele>291.874213</ele>
        <time>2021-09-06T12:06:58.000Z</time>
      </trkpt>
      <trkpt lat="48.54515" lon="-0.13563">
        <ele>292.373654</ele>
        <time>2021-09-06T12:07:05.000Z</time>
      </trkpt>
      <trkpt lat="48.54509" lon="-0.13526">
        <ele>292.947275</ele>
        <time>2021-09-06T12:07:13.000Z</time>
      </trkpt>
      <trkpt lat="48.54506" lon="-0.13491">
        <ele>293.481091</ele>
        <time>2021-09-06T12:07:21.000Z</time>
      </trkpt>
      <trkpt lat="48.54505" lon="-0.13454">
        <ele>294.033053</ele>
        <time>2021-09-06T12:07:29.000Z</time>
      </trkpt>
      <trkpt lat="48.54507" lon="-0.13409">
        <ele>294.757632</ele>
        <time>2021-09-06T12:07:38.000Z</time>
      </trkpt>
      <trkpt lat="48.5451" lon="-0.13372">
        <ele>295.405727</ele>
        <time>2021-09-06T12:07:45.000Z</time>
      </trkpt>
      <trkpt lat="48.54512" lon="-0.13337">
        <ele>295.998803</ele>
        <time>2021-09-06T12:07:51.000Z</time>
      </trkpt>
      <trkpt lat="48.54511" lon="-0.13331">
        <ele>296.104705</ele>
        <time>2021-09-06T12:07:52.000Z</time>
      </trkpt>
      <trkpt lat="48.5451" lon="-0.13308">
        <ele>296.496967</ele>
        <time>2021-09-06T12:07:56.000Z</time>
      </trkpt>
      <trkpt lat="48.5451" lon="-0.13295">
        <ele>296.719688</ele>
        <time>2021-09-06T12:07:58.000Z</time>
      </trkpt>
      <trkpt lat="48.54507" lon="-0.1327">
        <ele>297.151822</ele>
        <time>2021-09-06T12:08:02.000Z</time>
      </trkpt>
      <trkpt lat="48.54503" lon="-0.13243">
        <ele>297.629953</ele>
        <time>2021-09-06T12:08:07.000Z</time>
      </trkpt>
      <trkpt lat="48.545" lon="-0.13212">
        <ele>298.155406</ele>
        <time>2021-09-06T12:08:12.000Z</time>
      </trkpt>
      <trkpt lat="48.54494" lon="-0.13176">
        <ele>298.792386</ele>
        <time>2021-09-06T12:08:18.000Z</time>
      </trkpt>
      <trkpt lat="48.54492" lon="-0.13155">
        <ele>299.061244</ele>
        <time>2021-09-06T12:08:22.000Z</time>
      </trkpt>
      <trkpt lat="48.54489" lon="-0.13124">
        <ele>299.259519</ele>
        <time>2021-09-06T12:08:27.000Z</time>
      </trkpt>
      <trkpt lat="48.54486" lon="-0.13089">
        <ele>299.478</ele>
        <time>2021-09-06T12:08:32.000Z</time>
      </trkpt>
      <trkpt lat="48.54486" lon="-0.13082">
        <ele>299.523088</ele>
        <time>2021-09-06T12:08:33.000Z</time>
      </trkpt>
      <trkpt lat="48.54484" lon="-0.13057">
        <ele>299.680264</ele>
        <time>2021-09-06T12:08:36.000Z</time>
      </trkpt>
      <trkpt lat="48.54481" lon="-0.13027">
        <ele>299.873873</ele>
        <time>2021-09-06T12:08:40.000Z</time>
      </trkpt>
      <trkpt lat="48.54481" lon="-0.13012">
        <ele>299.967964</ele>
        <time>2021-09-06T12:08:42.000Z</time>
      </trkpt>
      <trkpt lat="48.54481" lon="-0.12994">
        <ele>300.086067</ele>
        <time>2021-09-06T12:08:45.000Z</time>
      </trkpt>
      <trkpt lat="48.54475" lon="-0.12953">
        <ele>300.345483</ele>
        <time>2021-09-06T12:08:51.000Z</time>
      </trkpt>
      <trkpt lat="48.54474" lon="-0.12922">
        <ele>300.543469</ele>
        <time>2021-09-06T12:08:56.000Z</time>
      </trkpt>
      <trkpt lat="48.54469" lon="-0.12891">
        <ele>300.733047</ele>
        <time>2021-09-06T12:09:01.000Z</time>
      </trkpt>
      <trkpt lat="48.54469" lon="-0.12853">
        <ele>300.864293</ele>
        <time>2021-09-06T12:09:07.000Z</time>
      </trkpt>
      <trkpt lat="48.54478" lon="-0.12821">
        <ele>300.979813</ele>
        <time>2021-09-06T12:09:12.000Z</time>
      </trkpt>
      <trkpt lat="48.54478" lon="-0.12815">
        <ele>301.001061</ele>
        <time>2021-09-06T12:09:13.000Z</time>
      </trkpt>
      <trkpt lat="48.54475" lon="-0.12811">
        <ele>301.020811</ele>
        <time>2021-09-06T12:09:14.000Z</time>
      </trkpt>
      <trkpt lat="48.54472" lon="-0.12808">
        <ele>301.040233</ele>
        <time>2021-09-06T12:09:15.000Z</time>
      </trkpt>
      <trkpt lat="48.5446" lon="-0.128">
        <ele>301.110376</ele>
        <time>2021-09-06T12:09:20.000Z</time>
      </trkpt>
      <trkpt lat="48.54448" lon="-0.12787">
        <ele>301.183265</ele>
        <time>2021-09-06T12:09:26.000Z</time>
      </trkpt>
      <trkpt lat="48.54429" lon="-0.12773">
        <ele>301.294385</ele>
        <time>2021-09-06T12:09:32.000Z</time>
      </trkpt>
      <trkpt lat="48.54411" lon="-0.12768">
        <ele>301.388805</ele>
        <time>2021-09-06T12:09:36.000Z</time>
      </trkpt>
      <trkpt lat="48.54398" lon="-0.12761">
        <ele>301.459127</ele>
        <time>2021-09-06T12:09:39.000Z</time>
      </trkpt>
      <trkpt lat="48.54377" lon="-0.12748">
        <ele>301.575712</ele>
        <time>2021-09-06T12:09:44.000Z</time>
      </trkpt>
      <trkpt lat="48.54369" lon="-0.12744">
        <ele>301.622181</ele>
        <time>2021-09-06T12:09:46.000Z</time>
      </trkpt>
      <trkpt lat="48.54337" lon="-0.12736">
        <ele>301.398929</ele>
        <time>2021-09-06T12:09:52.000Z</time>
      </trkpt>
      <trkpt lat="48.54294" lon="-0.12724">
        <ele>300.982946</ele>
        <time>2021-09-06T12:09:59.000Z</time>
      </trkpt>
      <trkpt lat="48.5428" lon="-0.1272">
        <ele>300.851467</ele>
        <time>2021-09-06T12:10:01.000Z</time>
      </trkpt>
      <trkpt lat="48.54269" lon="-0.12709">
        <ele>300.729374</ele>
        <time>2021-09-06T12:10:03.000Z</time>
      </trkpt>
      <trkpt lat="48.54267" lon="-0.12691">
        <ele>300.617159</ele>
        <time>2021-09-06T12:10:05.000Z</time>
      </trkpt>
      <trkpt lat="48.54285" lon="-0.12641">
        <ele>300.265521</ele>
        <time>2021-09-06T12:10:11.000Z</time>
      </trkpt>
      <trkpt lat="48.54305" lon="-0.12573">
        <ele>299.880747</ele>
        <time>2021-09-06T12:10:19.000Z</time>
      </trkpt>
      <trkpt lat="48.54319" lon="-0.12526">
        <ele>299.717834</ele>
        <time>2021-09-06T12:10:25.000Z</time>
      </trkpt>
      <trkpt lat="48.54336" lon="-0.12486">
        <ele>299.564139</ele>
        <time>2021-09-06T12:10:31.000Z</time>
      </trkpt>
      <trkpt lat="48.54357" lon="-0.12443">
        <ele>299.395211</ele>
        <time>2021-09-06T12:10:38.000Z</time>
      </trkpt>
      <trkpt lat="48.54362" lon="-0.1243">
        <ele>299.347944</ele>
        <time>2021-09-06T12:10:40.000Z</time>
      </trkpt>
      <trkpt lat="48.54368" lon="-0.1241">
        <ele>299.278725</ele>
        <time>2021-09-06T12:10:43.000Z</time>
      </trkpt>
      <trkpt lat="48.54369" lon="-0.12404">
        <ele>299.256358</ele>
        <time>2021-09-06T12:10:44.000Z</time>
      </trkpt>
      <trkpt lat="48.54371" lon="-0.12382">
        <ele>299.186294</ele>
        <time>2021-09-06T12:10:47.000Z</time>
      </trkpt>
      <trkpt lat="48.54374" lon="-0.12321">
        <ele>299.059436</ele>
        <time>2021-09-06T12:10:55.000Z</time>
      </trkpt>
      <trkpt lat="48.54375" lon="-0.12273">
        <ele>299.002804</ele>
        <time>2021-09-06T12:11:01.000Z</time>
      </trkpt>
      <trkpt lat="48.54377" lon="-0.12196">
        <ele>298.912188</ele>
        <time>2021-09-06T12:11:11.000Z</time>
      </trkpt>
      <trkpt lat="48.54379" lon="-0.12143">
        <ele>298.850383</ele>
        <time>2021-09-06T12:11:18.000Z</time>
      </trkpt>
      <trkpt lat="48.54381" lon="-0.12076">
        <ele>298.743723</ele>
        <time>2021-09-06T12:11:27.000Z</time>
      </trkpt>
      <trkpt lat="48.54382" lon="-0.12031">
        <ele>298.495358</ele>
        <time>2021-09-06T12:11:33.000Z</time>
      </trkpt>
      <trkpt lat="48.54381" lon="-0.12016">
        <ele>298.41076</ele>
        <time>2021-09-06T12:11:35.000Z</time>
      </trkpt>
      <trkpt lat="48.5438" lon="-0.11953">
        <ele>298.06842</ele>
        <time>2021-09-06T12:11:43.000Z</time>
      </trkpt>
      <trkpt lat="48.54378" lon="-0.11896">
        <ele>297.753132</ele>
        <time>2021-09-06T12:11:50.000Z</time>
      </trkpt>
      <trkpt lat="48.54376" lon="-0.1184">
        <ele>297.443148</ele>
        <time>2021-09-06T12:11:57.000Z</time>
      </trkpt>
      <trkpt lat="48.54377" lon="-0.11832">
        <ele>297.399688</ele>
        <time>2021-09-06T12:11:58.000Z</time>
      </trkpt>
      <trkpt lat="48.54377" lon="-0.11776">
        <ele>297.26523</ele>
        <time>2021-09-06T12:12:05.000Z</time>
      </trkpt>
      <trkpt lat="48.54378" lon="-0.1176">
        <ele>297.255038</ele>
        <time>2021-09-06T12:12:07.000Z</time>
      </trkpt>
      <trkpt lat="48.54378" lon="-0.11736">
        <ele>297.240213</ele>
        <time>2021-09-06T12:12:10.000Z</time>
      </trkpt>
      <trkpt lat="48.5438" lon="-0.11688">
        <ele>297.209398</ele>
        <time>2021-09-06T12:12:17.000Z</time>
      </trkpt>
      <trkpt lat="48.54381" lon="-0.11682">
        <ele>297.205542</ele>
        <time>2021-09-06T12:12:18.000Z</time>
      </trkpt>
      <trkpt lat="48.54382" lon="-0.11675">
        <ele>297.201393</ele>
        <time>2021-09-06T12:12:19.000Z</time>
      </trkpt>
      <trkpt lat="48.54388" lon="-0.11644">
        <ele>297.180768</ele>
        <time>2021-09-06T12:12:24.000Z</time>
      </trkpt>
      <trkpt lat="48.54397" lon="-0.11603">
        <ele>297.153158</ele>
        <time>2021-09-06T12:12:31.000Z</time>
      </trkpt>
      <trkpt lat="48.54407" lon="-0.11546">
        <ele>297.116446</ele>
        <time>2021-09-06T12:12:40.000Z</time>
      </trkpt>
      <trkpt lat="48.54414" lon="-0.115">
        <ele>297.12121</ele>
        <time>2021-09-06T12:12:48.000Z</time>
      </trkpt>
      <trkpt lat="48.54427" lon="-0.11464">
        <ele>297.125834</ele>
        <time>2021-09-06T12:12:55.000Z</time>
      </trkpt>
      <trkpt lat="48.54443" lon="-0.11428">
        <ele>297.130859</ele>
        <time>2021-09-06T12:13:02.000Z</time>
      </trkpt>
      <trkpt lat="48.54459" lon="-0.11387">
        <ele>297.136278</ele>
        <time>2021-09-06T12:13:09.000Z</time>
      </trkpt>
      <trkpt lat="48.54461" lon="-0.11382">
        <ele>297.137006</ele>
        <time>2021-09-06T12:13:10.000Z</time>
      </trkpt>
      <trkpt lat="48.54466" lon="-0.1137">
        <ele>297.138597</ele>
        <time>2021-09-06T12:13:12.000Z</time>
      </trkpt>
      <trkpt lat="48.5447" lon="-0.11357">
        <ele>297.140191</ele>
        <time>2021-09-06T12:13:14.000Z</time>
      </trkpt>
      <trkpt lat="48.54472" lon="-0.11351">
        <ele>297.141025</ele>
        <time>2021-09-06T12:13:15.000Z</time>
      </trkpt>
      <trkpt lat="48.54474" lon="-0.11345">
        <ele>297.141823</ele>
        <time>2021-09-06T12:13:16.000Z</time>
      </trkpt>
      <trkpt lat="48.54482" lon="-0.11316">
        <ele>297.145443</ele>
        <time>2021-09-06T12:13:20.000Z</time>
      </trkpt>
      <trkpt lat="48.54493" lon="-0.11256">
        <ele>296.686593</ele>
        <time>2021-09-06T12:13:27.000Z</time>
      </trkpt>
      <trkpt lat="48.54499" lon="-0.112">
        <ele>296.150376</ele>
        <time>2021-09-06T12:13:33.000Z</time>
      </trkpt>
      <trkpt lat="48.54502" lon="-0.11129">
        <ele>295.480189</ele>
        <time>2021-09-06T12:13:40.000Z</time>
      </trkpt>
      <trkpt lat="48.54508" lon="-0.11063">
        <ele>294.849601</ele>
        <time>2021-09-06T12:13:46.000Z</time>
      </trkpt>
      <trkpt lat="48.54518" lon="-0.10991">
        <ele>293.962303</ele>
        <time>2021-09-06T12:13:52.000Z</time>
      </trkpt>
      <trkpt lat="48.54526" lon="-0.1091">
        <ele>292.835843</ele>
        <time>2021-09-06T12:13:58.000Z</time>
      </trkpt>
      <trkpt lat="48.54529" lon="-0.10842">
        <ele>291.895787</ele>
        <time>2021-09-06T12:14:03.000Z</time>
      </trkpt>
      <trkpt lat="48.54529" lon="-0.10772">
        <ele>290.922243</ele>
        <time>2021-09-06T12:14:08.000Z</time>
      </trkpt>
      <trkpt lat="48.54527" lon="-0.10689">
        <ele>289.109492</ele>
        <time>2021-09-06T12:14:14.000Z</time>
      </trkpt>
      <trkpt lat="48.54528" lon="-0.10676">
        <ele>288.822999</ele>
        <time>2021-09-06T12:14:15.000Z</time>
      </trkpt>
      <trkpt lat="48.5453" lon="-0.10664">
        <ele>288.544059</ele>
        <time>2021-09-06T12:14:16.000Z</time>
      </trkpt>
      <trkpt lat="48.54537" lon="-0.10645">
        <ele>288.045394</ele>
        <time>2021-09-06T12:14:18.000Z</time>
      </trkpt>
      <trkpt lat="48.54539" lon="-0.10637">
        <ele>287.842398</ele>
        <time>2021-09-06T12:14:19.000Z</time>
      </trkpt>
      <trkpt lat="48.54539" lon="-0.10619">
        <ele>287.437745</ele>
        <time>2021-09-06T12:14:21.000Z</time>
      </trkpt>
      <trkpt lat="48.54532" lon="-0.10604">
        <ele>287.020727</ele>
        <time>2021-09-06T12:14:23.000Z</time>
      </trkpt>
      <trkpt lat="48.54524" lon="-0.1059">
        <ele>286.609267</ele>
        <time>2021-09-06T12:14:25.000Z</time>
      </trkpt>
      <trkpt lat="48.54504" lon="-0.10555">
        <ele>285.555623</ele>
        <time>2021-09-06T12:14:30.000Z</time>
      </trkpt>
      <trkpt lat="48.54499" lon="-0.10549">
        <ele>285.346943</ele>
        <time>2021-09-06T12:14:31.000Z</time>
      </trkpt>
      <trkpt lat="48.54473" lon="-0.10521">
        <ele>284.356687</ele>
        <time>2021-09-06T12:14:37.000Z</time>
      </trkpt>
      <trkpt lat="48.54444" lon="-0.10494">
        <ele>283.50581</ele>
        <time>2021-09-06T12:14:44.000Z</time>
      </trkpt>
      <trkpt lat="48.54405" lon="-0.10459">
        <ele>282.364866</ele>
        <time>2021-09-06T12:14:54.000Z</time>
      </trkpt>
      <trkpt lat="48.5438" lon="-0.10438">
        <ele>281.628141</ele>
        <time>2021-09-06T12:15:01.000Z</time>
      </trkpt>
      <trkpt lat="48.54352" lon="-0.10414">
        <ele>280.824681</ele>
        <time>2021-09-06T12:15:09.000Z</time>
      </trkpt>
      <trkpt lat="48.5433" lon="-0.10393">
        <ele>280.153284</ele>
        <time>2021-09-06T12:15:16.000Z</time>
      </trkpt>
      <trkpt lat="48.54304" lon="-0.10357">
        <ele>279.38048</ele>
        <time>2021-09-06T12:15:24.000Z</time>
      </trkpt>
      <trkpt lat="48.54293" lon="-0.1034">
        <ele>279.034655</ele>
        <time>2021-09-06T12:15:27.000Z</time>
      </trkpt>
      <trkpt lat="48.54286" lon="-0.10327">
        <ele>278.793413</ele>
        <time>2021-09-06T12:15:29.000Z</time>
      </trkpt>
      <trkpt lat="48.54278" lon="-0.10316">
        <ele>278.552557</ele>
        <time>2021-09-06T12:15:31.000Z</time>
      </trkpt>
      <trkpt lat="48.54266" lon="-0.10297">
        <ele>278.179363</ele>
        <time>2021-09-06T12:15:34.000Z</time>
      </trkpt>
      <trkpt lat="48.54238" lon="-0.10255">
        <ele>277.31397</ele>
        <time>2021-09-06T12:15:40.000Z</time>
      </trkpt>
      <trkpt lat="48.54201" lon="-0.10199">
        <ele>276.147315</ele>
        <time>2021-09-06T12:15:47.000Z</time>
      </trkpt>
      <trkpt lat="48.54168" lon="-0.10162">
        <ele>275.258958</ele>
        <time>2021-09-06T12:15:52.000Z</time>
      </trkpt>
      <trkpt lat="48.54125" lon="-0.10123">
        <ele>274.172692</ele>
        <time>2021-09-06T12:15:58.000Z</time>
      </trkpt>
      <trkpt lat="48.54089" lon="-0.10101">
        <ele>273.314514</ele>
        <time>2021-09-06T12:16:03.000Z</time>
      </trkpt>
      <trkpt lat="48.54059" lon="-0.10085">
        <ele>272.611872</ele>
        <time>2021-09-06T12:16:08.000Z</time>
      </trkpt>
      <trkpt lat="48.54042" lon="-0.10073">
        <ele>272.282421</ele>
        <time>2021-09-06T12:16:12.000Z</time>
      </trkpt>
      <trkpt lat="48.54027" lon="-0.10059">
        <ele>272.407228</ele>
        <time>2021-09-06T12:16:18.000Z</time>
      </trkpt>
      <trkpt lat="48.54008" lon="-0.10038">
        <ele>272.57238</ele>
        <time>2021-09-06T12:16:28.000Z</time>
      </trkpt>
      <trkpt lat="48.53994" lon="-0.10022">
        <ele>272.699998</ele>
        <time>2021-09-06T12:16:36.000Z</time>
      </trkpt>
      <trkpt lat="48.53979" lon="-0.10004">
        <ele>272.832158</ele>
        <time>2021-09-06T12:16:44.000Z</time>
      </trkpt>
      <trkpt lat="48.53963" lon="-0.09982">
        <ele>272.989746</ele>
        <time>2021-09-06T12:16:54.000Z</time>
      </trkpt>
      <trkpt lat="48.53952" lon="-0.09966">
        <ele>273.096449</ele>
        <time>2021-09-06T12:17:01.000Z</time>
      </trkpt>
      <trkpt lat="48.53937" lon="-0.09945">
        <ele>273.238392</ele>
        <time>2021-09-06T12:17:10.000Z</time>
      </trkpt>
      <trkpt lat="48.53924" lon="-0.09926">
        <ele>273.366834</ele>
        <time>2021-09-06T12:17:18.000Z</time>
      </trkpt>
      <trkpt lat="48.5391" lon="-0.09912">
        <ele>273.486297</ele>
        <time>2021-09-06T12:17:26.000Z</time>
      </trkpt>
      <trkpt lat="48.53894" lon="-0.09903">
        <ele>273.951439</ele>
        <time>2021-09-06T12:17:34.000Z</time>
      </trkpt>
      <trkpt lat="48.53878" lon="-0.09894">
        <ele>274.71369</ele>
        <time>2021-09-06T12:17:42.000Z</time>
      </trkpt>
      <trkpt lat="48.53862" lon="-0.09887">
        <ele>275.470113</ele>
        <time>2021-09-06T12:17:50.000Z</time>
      </trkpt>
      <trkpt lat="48.53844" lon="-0.09878">
        <ele>276.325043</ele>
        <time>2021-09-06T12:17:59.000Z</time>
      </trkpt>
      <trkpt lat="48.5383" lon="-0.09871">
        <ele>276.974749</ele>
        <time>2021-09-06T12:18:06.000Z</time>
      </trkpt>
      <trkpt lat="48.53813" lon="-0.09863">
        <ele>277.734719</ele>
        <time>2021-09-06T12:18:14.000Z</time>
      </trkpt>
      <trkpt lat="48.53799" lon="-0.09857">
        <ele>278.386719</ele>
        <time>2021-09-06T12:18:21.000Z</time>
      </trkpt>
      <trkpt lat="48.53783" lon="-0.09848">
        <ele>279.14106</ele>
        <time>2021-09-06T12:18:29.000Z</time>
      </trkpt>
      <trkpt lat="48.53768" lon="-0.09841">
        <ele>279.830969</ele>
        <time>2021-09-06T12:18:36.000Z</time>
      </trkpt>
      <trkpt lat="48.5375" lon="-0.09826">
        <ele>280.760386</ele>
        <time>2021-09-06T12:18:45.000Z</time>
      </trkpt>
      <trkpt lat="48.53734" lon="-0.09806">
        <ele>281.568885</ele>
        <time>2021-09-06T12:18:53.000Z</time>
      </trkpt>
      <trkpt lat="48.53717" lon="-0.09782">
        <ele>281.945984</ele>
        <time>2021-09-06T12:19:01.000Z</time>
      </trkpt>
      <trkpt lat="48.53705" lon="-0.09767">
        <ele>282.210173</ele>
        <time>2021-09-06T12:19:07.000Z</time>
      </trkpt>
      <trkpt lat="48.53681" lon="-0.09743">
        <ele>282.664073</ele>
        <time>2021-09-06T12:19:15.000Z</time>
      </trkpt>
      <trkpt lat="48.53663" lon="-0.0973">
        <ele>282.989154</ele>
        <time>2021-09-06T12:19:20.000Z</time>
      </trkpt>
      <trkpt lat="48.53636" lon="-0.09712">
        <ele>283.468675</ele>
        <time>2021-09-06T12:19:26.000Z</time>
      </trkpt>
      <trkpt lat="48.53605" lon="-0.09689">
        <ele>284.026943</ele>
        <time>2021-09-06T12:19:32.000Z</time>
      </trkpt>
      <trkpt lat="48.53565" lon="-0.0965">
        <ele>284.205907</ele>
        <time>2021-09-06T12:19:39.000Z</time>
      </trkpt>
      <trkpt lat="48.5353" lon="-0.09611">
        <ele>283.798921</ele>
        <time>2021-09-06T12:19:45.000Z</time>
      </trkpt>
      <trkpt lat="48.53498" lon="-0.0957">
        <ele>283.401092</ele>
        <time>2021-09-06T12:19:51.000Z</time>
      </trkpt>
      <trkpt lat="48.53493" lon="-0.09563">
        <ele>283.33774</ele>
        <time>2021-09-06T12:19:52.000Z</time>
      </trkpt>
      <trkpt lat="48.53461" lon="-0.09524">
        <ele>282.954133</ele>
        <time>2021-09-06T12:19:58.000Z</time>
      </trkpt>
      <trkpt lat="48.53455" lon="-0.09518">
        <ele>282.891452</ele>
        <time>2021-09-06T12:19:59.000Z</time>
      </trkpt>
      <trkpt lat="48.53449" lon="-0.09514">
        <ele>282.828673</ele>
        <time>2021-09-06T12:20:00.000Z</time>
      </trkpt>
      <trkpt lat="48.53424" lon="-0.09502">
        <ele>282.522639</ele>
        <time>2021-09-06T12:20:04.000Z</time>
      </trkpt>
      <trkpt lat="48.5339" lon="-0.09493">
        <ele>282.079741</ele>
        <time>2021-09-06T12:20:09.000Z</time>
      </trkpt>
      <trkpt lat="48.53356" lon="-0.09479">
        <ele>281.616899</ele>
        <time>2021-09-06T12:20:14.000Z</time>
      </trkpt>
      <trkpt lat="48.5333" lon="-0.09458">
        <ele>281.239767</ele>
        <time>2021-09-06T12:20:18.000Z</time>
      </trkpt>
      <trkpt lat="48.53317" lon="-0.09446">
        <ele>281.044634</ele>
        <time>2021-09-06T12:20:20.000Z</time>
      </trkpt>
      <trkpt lat="48.53268" lon="-0.09407">
        <ele>280.254988</ele>
        <time>2021-09-06T12:20:27.000Z</time>
      </trkpt>
      <trkpt lat="48.53261" lon="-0.09402">
        <ele>280.058013</ele>
        <time>2021-09-06T12:20:28.000Z</time>
      </trkpt>
      <trkpt lat="48.53218" lon="-0.09386">
        <ele>278.984532</ele>
        <time>2021-09-06T12:20:33.000Z</time>
      </trkpt>
      <trkpt lat="48.53159" lon="-0.09373">
        <ele>277.555671</ele>
        <time>2021-09-06T12:20:39.000Z</time>
      </trkpt>
      <trkpt lat="48.5312" lon="-0.09372">
        <ele>276.599654</ele>
        <time>2021-09-06T12:20:43.000Z</time>
      </trkpt>
      <trkpt lat="48.53102" lon="-0.09369">
        <ele>276.156194</ele>
        <time>2021-09-06T12:20:45.000Z</time>
      </trkpt>
      <trkpt lat="48.53085" lon="-0.09364">
        <ele>275.773753</ele>
        <time>2021-09-06T12:20:47.000Z</time>
      </trkpt>
      <trkpt lat="48.53038" lon="-0.0935">
        <ele>274.749004</ele>
        <time>2021-09-06T12:20:53.000Z</time>
      </trkpt>
      <trkpt lat="48.52988" lon="-0.09346">
        <ele>273.660408</ele>
        <time>2021-09-06T12:21:00.000Z</time>
      </trkpt>
      <trkpt lat="48.52942" lon="-0.09343">
        <ele>272.678289</ele>
        <time>2021-09-06T12:21:07.000Z</time>
      </trkpt>
      <trkpt lat="48.52912" lon="-0.09335">
        <ele>271.961507</ele>
        <time>2021-09-06T12:21:13.000Z</time>
      </trkpt>
      <trkpt lat="48.52895" lon="-0.09329">
        <ele>271.45507</ele>
        <time>2021-09-06T12:21:17.000Z</time>
      </trkpt>
      <trkpt lat="48.52886" lon="-0.09326">
        <ele>271.205098</ele>
        <time>2021-09-06T12:21:19.000Z</time>
      </trkpt>
      <trkpt lat="48.52854" lon="-0.09315">
        <ele>270.257675</ele>
        <time>2021-09-06T12:21:26.000Z</time>
      </trkpt>
      <trkpt lat="48.52824" lon="-0.09303">
        <ele>269.383224</ele>
        <time>2021-09-06T12:21:31.000Z</time>
      </trkpt>
      <trkpt lat="48.52787" lon="-0.09284">
        <ele>268.285131</ele>
        <time>2021-09-06T12:21:36.000Z</time>
      </trkpt>
      <trkpt lat="48.52772" lon="-0.09273">
        <ele>267.791988</ele>
        <time>2021-09-06T12:21:38.000Z</time>
      </trkpt>
      <trkpt lat="48.52758" lon="-0.09256">
        <ele>267.283182</ele>
        <time>2021-09-06T12:21:40.000Z</time>
      </trkpt>
      <trkpt lat="48.5273" lon="-0.09219">
        <ele>266.087103</ele>
        <time>2021-09-06T12:21:44.000Z</time>
      </trkpt>
      <trkpt lat="48.52722" lon="-0.09211">
        <ele>265.771972</ele>
        <time>2021-09-06T12:21:45.000Z</time>
      </trkpt>
      <trkpt lat="48.52713" lon="-0.09204">
        <ele>265.459901</ele>
        <time>2021-09-06T12:21:46.000Z</time>
      </trkpt>
      <trkpt lat="48.52689" lon="-0.09185">
        <ele>264.552382</ele>
        <time>2021-09-06T12:21:49.000Z</time>
      </trkpt>
      <trkpt lat="48.5265" lon="-0.09154">
        <ele>263.092237</ele>
        <time>2021-09-06T12:21:54.000Z</time>
      </trkpt>
      <trkpt lat="48.52628" lon="-0.09128">
        <ele>262.169289</ele>
        <time>2021-09-06T12:21:58.000Z</time>
      </trkpt>
      <trkpt lat="48.52611" lon="-0.09104">
        <ele>261.371752</ele>
        <time>2021-09-06T12:22:03.000Z</time>
      </trkpt>
      <trkpt lat="48.52597" lon="-0.09086">
        <ele>261.024612</ele>
        <time>2021-09-06T12:22:09.000Z</time>
      </trkpt>
      <trkpt lat="48.52583" lon="-0.09067">
        <ele>260.872105</ele>
        <time>2021-09-06T12:22:17.000Z</time>
      </trkpt>
      <trkpt lat="48.52568" lon="-0.09046">
        <ele>260.716029</ele>
        <time>2021-09-06T12:22:26.000Z</time>
      </trkpt>
      <trkpt lat="48.52549" lon="-0.09021">
        <ele>260.519659</ele>
        <time>2021-09-06T12:22:37.000Z</time>
      </trkpt>
      <trkpt lat="48.52536" lon="-0.09003">
        <ele>260.379796</ele>
        <time>2021-09-06T12:22:45.000Z</time>
      </trkpt>
      <trkpt lat="48.52523" lon="-0.08983">
        <ele>260.234817</ele>
        <time>2021-09-06T12:22:53.000Z</time>
      </trkpt>
      <trkpt lat="48.52513" lon="-0.08969">
        <ele>260.13095</ele>
        <time>2021-09-06T12:22:59.000Z</time>
      </trkpt>
      <trkpt lat="48.525" lon="-0.08947">
        <ele>259.977342</ele>
        <time>2021-09-06T12:23:08.000Z</time>
      </trkpt>
      <trkpt lat="48.52487" lon="-0.0893">
        <ele>259.843898</ele>
        <time>2021-09-06T12:23:16.000Z</time>
      </trkpt>
      <trkpt lat="48.52476" lon="-0.0891">
        <ele>259.707772</ele>
        <time>2021-09-06T12:23:24.000Z</time>
      </trkpt>
      <trkpt lat="48.52465" lon="-0.08892">
        <ele>259.601306</ele>
        <time>2021-09-06T12:23:32.000Z</time>
      </trkpt>
      <trkpt lat="48.52454" lon="-0.08876">
        <ele>259.503353</ele>
        <time>2021-09-06T12:23:40.000Z</time>
      </trkpt>
      <trkpt lat="48.52441" lon="-0.08856">
        <ele>259.388781</ele>
        <time>2021-09-06T12:23:48.000Z</time>
      </trkpt>
      <trkpt lat="48.52424" lon="-0.08832">
        <ele>259.241033</ele>
        <time>2021-09-06T12:23:56.000Z</time>
      </trkpt>
      <trkpt lat="48.52408" lon="-0.08815">
        <ele>259.118417</ele>
        <time>2021-09-06T12:24:02.000Z</time>
      </trkpt>
      <trkpt lat="48.52398" lon="-0.08807">
        <ele>259.045604</ele>
        <time>2021-09-06T12:24:06.000Z</time>
      </trkpt>
      <trkpt lat="48.52376" lon="-0.08791">
        <ele>258.889879</ele>
        <time>2021-09-06T12:24:14.000Z</time>
      </trkpt>
      <trkpt lat="48.52361" lon="-0.0878">
        <ele>258.781914</ele>
        <time>2021-09-06T12:24:19.000Z</time>
      </trkpt>
      <trkpt lat="48.52342" lon="-0.08767">
        <ele>258.652263</ele>
        <time>2021-09-06T12:24:24.000Z</time>
      </trkpt>
      <trkpt lat="48.52339" lon="-0.08764">
        <ele>258.625414</ele>
        <time>2021-09-06T12:24:25.000Z</time>
      </trkpt>
      <trkpt lat="48.52335" lon="-0.0876">
        <ele>258.596189</ele>
        <time>2021-09-06T12:24:26.000Z</time>
      </trkpt>
      <trkpt lat="48.52321" lon="-0.08751">
        <ele>258.465047</ele>
        <time>2021-09-06T12:24:29.000Z</time>
      </trkpt>
      <trkpt lat="48.52289" lon="-0.08725">
        <ele>258.078744</ele>
        <time>2021-09-06T12:24:35.000Z</time>
      </trkpt>
      <trkpt lat="48.52278" lon="-0.08714">
        <ele>257.940134</ele>
        <time>2021-09-06T12:24:37.000Z</time>
      </trkpt>
      <trkpt lat="48.52266" lon="-0.08705">
        <ele>257.798791</ele>
        <time>2021-09-06T12:24:39.000Z</time>
      </trkpt>
      <trkpt lat="48.52255" lon="-0.08695">
        <ele>257.658046</ele>
        <time>2021-09-06T12:24:41.000Z</time>
      </trkpt>
      <trkpt lat="48.52237" lon="-0.08679">
        <ele>257.440905</ele>
        <time>2021-09-06T12:24:44.000Z</time>
      </trkpt>
      <trkpt lat="48.52195" lon="-0.08641">
        <ele>256.916118</ele>
        <time>2021-09-06T12:24:51.000Z</time>
      </trkpt>
      <trkpt lat="48.5217" lon="-0.0862">
        <ele>256.597422</ele>
        <time>2021-09-06T12:24:55.000Z</time>
      </trkpt>
      <trkpt lat="48.52157" lon="-0.08612">
        <ele>256.331917</ele>
        <time>2021-09-06T12:24:57.000Z</time>
      </trkpt>
      <trkpt lat="48.5215" lon="-0.08609">
        <ele>256.196368</ele>
        <time>2021-09-06T12:24:58.000Z</time>
      </trkpt>
      <trkpt lat="48.52135" lon="-0.08606">
        <ele>255.925416</ele>
        <time>2021-09-06T12:25:00.000Z</time>
      </trkpt>
      <trkpt lat="48.52128" lon="-0.08606">
        <ele>255.786302</ele>
        <time>2021-09-06T12:25:01.000Z</time>
      </trkpt>
      <trkpt lat="48.52104" lon="-0.08604">
        <ele>255.350851</ele>
        <time>2021-09-06T12:25:04.000Z</time>
      </trkpt>
      <trkpt lat="48.52088" lon="-0.08597">
        <ele>255.044231</ele>
        <time>2021-09-06T12:25:06.000Z</time>
      </trkpt>
      <trkpt lat="48.52075" lon="-0.0858">
        <ele>254.722552</ele>
        <time>2021-09-06T12:25:08.000Z</time>
      </trkpt>
      <trkpt lat="48.5207" lon="-0.08569">
        <ele>254.551809</ele>
        <time>2021-09-06T12:25:09.000Z</time>
      </trkpt>
      <trkpt lat="48.52055" lon="-0.08533">
        <ele>254.028207</ele>
        <time>2021-09-06T12:25:12.000Z</time>
      </trkpt>
      <trkpt lat="48.52042" lon="-0.08512">
        <ele>253.674842</ele>
        <time>2021-09-06T12:25:14.000Z</time>
      </trkpt>
      <trkpt lat="48.52034" lon="-0.08502">
        <ele>253.499581</ele>
        <time>2021-09-06T12:25:15.000Z</time>
      </trkpt>
      <trkpt lat="48.52018" lon="-0.08486">
        <ele>253.120769</ele>
        <time>2021-09-06T12:25:17.000Z</time>
      </trkpt>
      <trkpt lat="48.51968" lon="-0.08438">
        <ele>251.894701</ele>
        <time>2021-09-06T12:25:23.000Z</time>
      </trkpt>
      <trkpt lat="48.51959" lon="-0.08429">
        <ele>251.679782</ele>
        <time>2021-09-06T12:25:24.000Z</time>
      </trkpt>
      <trkpt lat="48.51913" lon="-0.08382">
        <ele>250.523679</ele>
        <time>2021-09-06T12:25:29.000Z</time>
      </trkpt>
      <trkpt lat="48.51872" lon="-0.0835">
        <ele>249.574055</ele>
        <time>2021-09-06T12:25:33.000Z</time>
      </trkpt>
      <trkpt lat="48.51861" lon="-0.08347">
        <ele>249.356655</ele>
        <time>2021-09-06T12:25:34.000Z</time>
      </trkpt>
      <trkpt lat="48.51821" lon="-0.08342">
        <ele>248.544984</ele>
        <time>2021-09-06T12:25:38.000Z</time>
      </trkpt>
      <trkpt lat="48.51788" lon="-0.08331">
        <ele>247.876612</ele>
        <time>2021-09-06T12:25:42.000Z</time>
      </trkpt>
      <trkpt lat="48.51763" lon="-0.08318">
        <ele>247.338795</ele>
        <time>2021-09-06T12:25:46.000Z</time>
      </trkpt>
      <trkpt lat="48.51737" lon="-0.08305">
        <ele>246.805367</ele>
        <time>2021-09-06T12:25:51.000Z</time>
      </trkpt>
      <trkpt lat="48.51725" lon="-0.08298">
        <ele>246.54596</ele>
        <time>2021-09-06T12:25:54.000Z</time>
      </trkpt>
      <trkpt lat="48.51714" lon="-0.0829">
        <ele>246.303777</ele>
        <time>2021-09-06T12:25:57.000Z</time>
      </trkpt>
      <trkpt lat="48.51691" lon="-0.08271">
        <ele>245.807838</ele>
        <time>2021-09-06T12:26:05.000Z</time>
      </trkpt>
      <trkpt lat="48.51665" lon="-0.08246">
        <ele>245.295109</ele>
        <time>2021-09-06T12:26:15.000Z</time>
      </trkpt>
      <trkpt lat="48.51641" lon="-0.08223">
        <ele>244.808467</ele>
        <time>2021-09-06T12:26:24.000Z</time>
      </trkpt>
      <trkpt lat="48.51619" lon="-0.08211">
        <ele>244.416593</ele>
        <time>2021-09-06T12:26:31.000Z</time>
      </trkpt>
      <trkpt lat="48.51603" lon="-0.08196">
        <ele>244.094946</ele>
        <time>2021-09-06T12:26:37.000Z</time>
      </trkpt>
      <trkpt lat="48.51587" lon="-0.08174">
        <ele>243.729897</ele>
        <time>2021-09-06T12:26:42.000Z</time>
      </trkpt>
      <trkpt lat="48.51576" lon="-0.08159">
        <ele>243.483425</ele>
        <time>2021-09-06T12:26:45.000Z</time>
      </trkpt>
      <trkpt lat="48.5156" lon="-0.08139">
        <ele>243.127203</ele>
        <time>2021-09-06T12:26:49.000Z</time>
      </trkpt>
      <trkpt lat="48.51556" lon="-0.08134">
        <ele>243.036903</ele>
        <time>2021-09-06T12:26:50.000Z</time>
      </trkpt>
      <trkpt lat="48.51539" lon="-0.0811">
        <ele>242.582305</ele>
        <time>2021-09-06T12:26:54.000Z</time>
      </trkpt>
      <trkpt lat="48.51496" lon="-0.0806">
        <ele>241.464979</ele>
        <time>2021-09-06T12:27:03.000Z</time>
      </trkpt>
      <trkpt lat="48.51462" lon="-0.08027">
        <ele>240.634315</ele>
        <time>2021-09-06T12:27:09.000Z</time>
      </trkpt>
      <trkpt lat="48.5141" lon="-0.07982">
        <ele>239.403992</ele>
        <time>2021-09-06T12:27:17.000Z</time>
      </trkpt>
      <trkpt lat="48.51384" lon="-0.07957">
        <ele>238.7238</ele>
        <time>2021-09-06T12:27:21.000Z</time>
      </trkpt>
      <trkpt lat="48.51379" lon="-0.07949">
        <ele>238.551514</ele>
        <time>2021-09-06T12:27:22.000Z</time>
      </trkpt>
      <trkpt lat="48.51352" lon="-0.07909">
        <ele>237.690507</ele>
        <time>2021-09-06T12:27:27.000Z</time>
      </trkpt>
      <trkpt lat="48.51343" lon="-0.07892">
        <ele>237.354115</ele>
        <time>2021-09-06T12:27:29.000Z</time>
      </trkpt>
      <trkpt lat="48.5133" lon="-0.07865">
        <ele>236.865348</ele>
        <time>2021-09-06T12:27:32.000Z</time>
      </trkpt>
      <trkpt lat="48.5132" lon="-0.07837">
        <ele>236.378307</ele>
        <time>2021-09-06T12:27:35.000Z</time>
      </trkpt>
      <trkpt lat="48.51313" lon="-0.07818">
        <ele>236.054679</ele>
        <time>2021-09-06T12:27:37.000Z</time>
      </trkpt>
      <trkpt lat="48.51303" lon="-0.07803">
        <ele>235.737159</ele>
        <time>2021-09-06T12:27:39.000Z</time>
      </trkpt>
      <trkpt lat="48.51291" lon="-0.07795">
        <ele>235.442327</ele>
        <time>2021-09-06T12:27:41.000Z</time>
      </trkpt>
      <trkpt lat="48.51285" lon="-0.07794">
        <ele>235.305187</ele>
        <time>2021-09-06T12:27:42.000Z</time>
      </trkpt>
      <trkpt lat="48.51247" lon="-0.07795">
        <ele>234.894743</ele>
        <time>2021-09-06T12:27:49.000Z</time>
      </trkpt>
      <trkpt lat="48.51218" lon="-0.07795">
        <ele>234.635048</ele>
        <time>2021-09-06T12:27:56.000Z</time>
      </trkpt>
      <trkpt lat="48.51191" lon="-0.07797">
        <ele>234.392875</ele>
        <time>2021-09-06T12:28:04.000Z</time>
      </trkpt>
      <trkpt lat="48.51168" lon="-0.07805">
        <ele>234.175032</ele>
        <time>2021-09-06T12:28:13.000Z</time>
      </trkpt>
      <trkpt lat="48.5115" lon="-0.0781">
        <ele>234.010972</ele>
        <time>2021-09-06T12:28:21.000Z</time>
      </trkpt>
      <trkpt lat="48.51136" lon="-0.07806">
        <ele>233.887673</ele>
        <time>2021-09-06T12:28:27.000Z</time>
      </trkpt>
      <trkpt lat="48.51114" lon="-0.0779">
        <ele>233.671035</ele>
        <time>2021-09-06T12:28:37.000Z</time>
      </trkpt>
      <trkpt lat="48.51092" lon="-0.07773">
        <ele>233.643494</ele>
        <time>2021-09-06T12:28:46.000Z</time>
      </trkpt>
      <trkpt lat="48.51069" lon="-0.07753">
        <ele>233.773071</ele>
        <time>2021-09-06T12:28:55.000Z</time>
      </trkpt>
      <trkpt lat="48.51053" lon="-0.0774">
        <ele>233.857976</ele>
        <time>2021-09-06T12:29:01.000Z</time>
      </trkpt>
      <trkpt lat="48.51028" lon="-0.07724">
        <ele>233.988951</ele>
        <time>2021-09-06T12:29:09.000Z</time>
      </trkpt>
      <trkpt lat="48.51007" lon="-0.07714">
        <ele>234.099005</ele>
        <time>2021-09-06T12:29:16.000Z</time>
      </trkpt>
      <trkpt lat="48.50984" lon="-0.07702">
        <ele>234.215165</ele>
        <time>2021-09-06T12:29:24.000Z</time>
      </trkpt>
      <trkpt lat="48.50961" lon="-0.07691">
        <ele>234.329653</ele>
        <time>2021-09-06T12:29:32.000Z</time>
      </trkpt>
      <trkpt lat="48.5093" lon="-0.07677">
        <ele>234.494639</ele>
        <time>2021-09-06T12:29:43.000Z</time>
      </trkpt>
      <trkpt lat="48.50905" lon="-0.07672">
        <ele>234.63796</ele>
        <time>2021-09-06T12:29:51.000Z</time>
      </trkpt>
      <trkpt lat="48.50885" lon="-0.07673">
        <ele>234.74855</ele>
        <time>2021-09-06T12:29:56.000Z</time>
      </trkpt>
      <trkpt lat="48.50856" lon="-0.07675">
        <ele>234.908637</ele>
        <time>2021-09-06T12:30:01.000Z</time>
      </trkpt>
      <trkpt lat="48.50814" lon="-0.07672">
        <ele>235.147442</ele>
        <time>2021-09-06T12:30:07.000Z</time>
      </trkpt>
      <trkpt lat="48.50764" lon="-0.07656">
        <ele>235.433276</ele>
        <time>2021-09-06T12:30:14.000Z</time>
      </trkpt>
      <trkpt lat="48.50732" lon="-0.07643">
        <ele>235.606176</ele>
        <time>2021-09-06T12:30:19.000Z</time>
      </trkpt>
      <trkpt lat="48.507" lon="-0.07636">
        <ele>235.776299</ele>
        <time>2021-09-06T12:30:25.000Z</time>
      </trkpt>
      <trkpt lat="48.50677" lon="-0.07625">
        <ele>235.903859</ele>
        <time>2021-09-06T12:30:30.000Z</time>
      </trkpt>
      <trkpt lat="48.50673" lon="-0.07622">
        <ele>235.929086</ele>
        <time>2021-09-06T12:30:31.000Z</time>
      </trkpt>
      <trkpt lat="48.50665" lon="-0.07614">
        <ele>235.979608</ele>
        <time>2021-09-06T12:30:33.000Z</time>
      </trkpt>
      <trkpt lat="48.50659" lon="-0.07605">
        <ele>236.026322</ele>
        <time>2021-09-06T12:30:35.000Z</time>
      </trkpt>
      <trkpt lat="48.50646" lon="-0.07586">
        <ele>236.11837</ele>
        <time>2021-09-06T12:30:39.000Z</time>
      </trkpt>
      <trkpt lat="48.5063" lon="-0.07558">
        <ele>236.247714</ele>
        <time>2021-09-06T12:30:45.000Z</time>
      </trkpt>
      <trkpt lat="48.50619" lon="-0.07538">
        <ele>236.340143</ele>
        <time>2021-09-06T12:30:50.000Z</time>
      </trkpt>
      <trkpt lat="48.50609" lon="-0.07521">
        <ele>236.425138</ele>
        <time>2021-09-06T12:30:55.000Z</time>
      </trkpt>
      <trkpt lat="48.50597" lon="-0.07505">
        <ele>236.538983</ele>
        <time>2021-09-06T12:31:01.000Z</time>
      </trkpt>
      <trkpt lat="48.50584" lon="-0.07489">
        <ele>236.65914</ele>
        <time>2021-09-06T12:31:08.000Z</time>
      </trkpt>
      <trkpt lat="48.50565" lon="-0.07468">
        <ele>236.830321</ele>
        <time>2021-09-06T12:31:17.000Z</time>
      </trkpt>
      <trkpt lat="48.5055" lon="-0.07454">
        <ele>236.96255</ele>
        <time>2021-09-06T12:31:24.000Z</time>
      </trkpt>
      <trkpt lat="48.50532" lon="-0.07439">
        <ele>237.112325</ele>
        <time>2021-09-06T12:31:31.000Z</time>
      </trkpt>
      <trkpt lat="48.50511" lon="-0.07425">
        <ele>237.277913</ele>
        <time>2021-09-06T12:31:36.000Z</time>
      </trkpt>
      <trkpt lat="48.50479" lon="-0.07402">
        <ele>237.531217</ele>
        <time>2021-09-06T12:31:42.000Z</time>
      </trkpt>
      <trkpt lat="48.50467" lon="-0.07388">
        <ele>237.64254</ele>
        <time>2021-09-06T12:31:44.000Z</time>
      </trkpt>
      <trkpt lat="48.50455" lon="-0.07369">
        <ele>237.538539</ele>
        <time>2021-09-06T12:31:46.000Z</time>
      </trkpt>
      <trkpt lat="48.50428" lon="-0.07329">
        <ele>236.857558</ele>
        <time>2021-09-06T12:31:50.000Z</time>
      </trkpt>
      <trkpt lat="48.50384" lon="-0.07271">
        <ele>235.808336</ele>
        <time>2021-09-06T12:31:56.000Z</time>
      </trkpt>
      <trkpt lat="48.50376" lon="-0.07264">
        <ele>235.630806</ele>
        <time>2021-09-06T12:31:57.000Z</time>
      </trkpt>
      <trkpt lat="48.50348" lon="-0.07245">
        <ele>235.086227</ele>
        <time>2021-09-06T12:32:00.000Z</time>
      </trkpt>
      <trkpt lat="48.50292" lon="-0.07214">
        <ele>233.884386</ele>
        <time>2021-09-06T12:32:06.000Z</time>
      </trkpt>
      <trkpt lat="48.50283" lon="-0.07208">
        <ele>233.660527</ele>
        <time>2021-09-06T12:32:07.000Z</time>
      </trkpt>
      <trkpt lat="48.50268" lon="-0.07193">
        <ele>233.229317</ele>
        <time>2021-09-06T12:32:09.000Z</time>
      </trkpt>
      <trkpt lat="48.50257" lon="-0.07174">
        <ele>232.839106</ele>
        <time>2021-09-06T12:32:11.000Z</time>
      </trkpt>
      <trkpt lat="48.50254" lon="-0.07163">
        <ele>232.65259</ele>
        <time>2021-09-06T12:32:12.000Z</time>
      </trkpt>
      <trkpt lat="48.50243" lon="-0.07111">
        <ele>231.807956</ele>
        <time>2021-09-06T12:32:17.000Z</time>
      </trkpt>
      <trkpt lat="48.50233" lon="-0.07075">
        <ele>231.209261</ele>
        <time>2021-09-06T12:32:21.000Z</time>
      </trkpt>
      <trkpt lat="48.50226" lon="-0.0706">
        <ele>230.929796</ele>
        <time>2021-09-06T12:32:23.000Z</time>
      </trkpt>
      <trkpt lat="48.50211" lon="-0.07035">
        <ele>230.399222</ele>
        <time>2021-09-06T12:32:27.000Z</time>
      </trkpt>
      <trkpt lat="48.50182" lon="-0.06995">
        <ele>229.432822</ele>
        <time>2021-09-06T12:32:33.000Z</time>
      </trkpt>
      <trkpt lat="48.50143" lon="-0.06953">
        <ele>228.241317</ele>
        <time>2021-09-06T12:32:40.000Z</time>
      </trkpt>
      <trkpt lat="48.50098" lon="-0.06902">
        <ele>226.86573</ele>
        <time>2021-09-06T12:32:48.000Z</time>
      </trkpt>
      <trkpt lat="48.50065" lon="-0.06874">
        <ele>225.906724</ele>
        <time>2021-09-06T12:32:54.000Z</time>
      </trkpt>
      <trkpt lat="48.50048" lon="-0.06862">
        <ele>225.444454</ele>
        <time>2021-09-06T12:32:57.000Z</time>
      </trkpt>
      <trkpt lat="48.50034" lon="-0.06848">
        <ele>225.008775</ele>
        <time>2021-09-06T12:33:00.000Z</time>
      </trkpt>
      <trkpt lat="48.50004" lon="-0.06825">
        <ele>224.167916</ele>
        <time>2021-09-06T12:33:06.000Z</time>
      </trkpt>
      <trkpt lat="48.49999" lon="-0.06823">
        <ele>224.031107</ele>
        <time>2021-09-06T12:33:07.000Z</time>
      </trkpt>
      <trkpt lat="48.49994" lon="-0.06821">
        <ele>223.901862</ele>
        <time>2021-09-06T12:33:08.000Z</time>
      </trkpt>
      <trkpt lat="48.49971" lon="-0.06817">
        <ele>223.295577</ele>
        <time>2021-09-06T12:33:13.000Z</time>
      </trkpt>
      <trkpt lat="48.49957" lon="-0.06814">
        <ele>222.956857</ele>
        <time>2021-09-06T12:33:16.000Z</time>
      </trkpt>
      <trkpt lat="48.49942" lon="-0.06804">
        <ele>222.532304</ele>
        <time>2021-09-06T12:33:20.000Z</time>
      </trkpt>
      <trkpt lat="48.49929" lon="-0.0679">
        <ele>222.126409</ele>
        <time>2021-09-06T12:33:24.000Z</time>
      </trkpt>
      <trkpt lat="48.49924" lon="-0.06781">
        <ele>221.922764</ele>
        <time>2021-09-06T12:33:26.000Z</time>
      </trkpt>
      <trkpt lat="48.49917" lon="-0.06765">
        <ele>221.591454</ele>
        <time>2021-09-06T12:33:29.000Z</time>
      </trkpt>
      <trkpt lat="48.49911" lon="-0.06752">
        <ele>221.340127</ele>
        <time>2021-09-06T12:33:31.000Z</time>
      </trkpt>
      <trkpt lat="48.49894" lon="-0.0671">
        <ele>220.758189</ele>
        <time>2021-09-06T12:33:37.000Z</time>
      </trkpt>
      <trkpt lat="48.49887" lon="-0.06688">
        <ele>220.484378</ele>
        <time>2021-09-06T12:33:40.000Z</time>
      </trkpt>
      <trkpt lat="48.49882" lon="-0.06673">
        <ele>220.307312</ele>
        <time>2021-09-06T12:33:42.000Z</time>
      </trkpt>
      <trkpt lat="48.49869" lon="-0.06618">
        <ele>219.652591</ele>
        <time>2021-09-06T12:33:49.000Z</time>
      </trkpt>
      <trkpt lat="48.49865" lon="-0.06602">
        <ele>219.462651</ele>
        <time>2021-09-06T12:33:51.000Z</time>
      </trkpt>
      <trkpt lat="48.4986" lon="-0.06587">
        <ele>219.279699</ele>
        <time>2021-09-06T12:33:53.000Z</time>
      </trkpt>
      <trkpt lat="48.49857" lon="-0.0658">
        <ele>219.18546</ele>
        <time>2021-09-06T12:33:54.000Z</time>
      </trkpt>
      <trkpt lat="48.49848" lon="-0.06561">
        <ele>218.923249</ele>
        <time>2021-09-06T12:33:57.000Z</time>
      </trkpt>
      <trkpt lat="48.49838" lon="-0.06545">
        <ele>218.682945</ele>
        <time>2021-09-06T12:34:00.000Z</time>
      </trkpt>
      <trkpt lat="48.49834" lon="-0.06541">
        <ele>218.60623</ele>
        <time>2021-09-06T12:34:01.000Z</time>
      </trkpt>
      <trkpt lat="48.49818" lon="-0.06529">
        <ele>218.306193</ele>
        <time>2021-09-06T12:34:05.000Z</time>
      </trkpt>
      <trkpt lat="48.49796" lon="-0.06511">
        <ele>218.122242</ele>
        <time>2021-09-06T12:34:11.000Z</time>
      </trkpt>
      <trkpt lat="48.49777" lon="-0.06493">
        <ele>218.003084</ele>
        <time>2021-09-06T12:34:17.000Z</time>
      </trkpt>
      <trkpt lat="48.49758" lon="-0.06464">
        <ele>217.864883</ele>
        <time>2021-09-06T12:34:24.000Z</time>
      </trkpt>
      <trkpt lat="48.49741" lon="-0.06427">
        <ele>217.710469</ele>
        <time>2021-09-06T12:34:30.000Z</time>
      </trkpt>
      <trkpt lat="48.49727" lon="-0.06378">
        <ele>217.528528</ele>
        <time>2021-09-06T12:34:36.000Z</time>
      </trkpt>
      <trkpt lat="48.49712" lon="-0.06322">
        <ele>217.316768</ele>
        <time>2021-09-06T12:34:43.000Z</time>
      </trkpt>
      <trkpt lat="48.497" lon="-0.06301">
        <ele>217.141933</ele>
        <time>2021-09-06T12:34:46.000Z</time>
      </trkpt>
      <trkpt lat="48.49691" lon="-0.06289">
        <ele>217.001101</ele>
        <time>2021-09-06T12:34:48.000Z</time>
      </trkpt>
      <trkpt lat="48.49686" lon="-0.06283">
        <ele>216.930015</ele>
        <time>2021-09-06T12:34:49.000Z</time>
      </trkpt>
      <trkpt lat="48.49664" lon="-0.06267">
        <ele>216.656737</ele>
        <time>2021-09-06T12:34:53.000Z</time>
      </trkpt>
      <trkpt lat="48.49624" lon="-0.06242">
        <ele>216.164815</ele>
        <time>2021-09-06T12:35:00.000Z</time>
      </trkpt>
      <trkpt lat="48.49584" lon="-0.06215">
        <ele>215.666809</ele>
        <time>2021-09-06T12:35:07.000Z</time>
      </trkpt>
      <trkpt lat="48.49572" lon="-0.06207">
        <ele>215.524063</ele>
        <time>2021-09-06T12:35:09.000Z</time>
      </trkpt>
      <trkpt lat="48.49562" lon="-0.06198">
        <ele>215.383422</ele>
        <time>2021-09-06T12:35:11.000Z</time>
      </trkpt>
      <trkpt lat="48.49557" lon="-0.06192">
        <ele>215.311935</ele>
        <time>2021-09-06T12:35:12.000Z</time>
      </trkpt>
      <trkpt lat="48.49552" lon="-0.06185">
        <ele>215.240221</ele>
        <time>2021-09-06T12:35:13.000Z</time>
      </trkpt>
      <trkpt lat="48.49542" lon="-0.0616">
        <ele>215.007234</ele>
        <time>2021-09-06T12:35:16.000Z</time>
      </trkpt>
      <trkpt lat="48.49518" lon="-0.06103">
        <ele>214.467648</ele>
        <time>2021-09-06T12:35:23.000Z</time>
      </trkpt>
      <trkpt lat="48.49494" lon="-0.06047">
        <ele>213.936116</ele>
        <time>2021-09-06T12:35:30.000Z</time>
      </trkpt>
      <trkpt lat="48.49466" lon="-0.05999">
        <ele>213.436616</ele>
        <time>2021-09-06T12:35:37.000Z</time>
      </trkpt>
      <trkpt lat="48.49453" lon="-0.05972">
        <ele>213.164701</ele>
        <time>2021-09-06T12:35:41.000Z</time>
      </trkpt>
      <trkpt lat="48.49447" lon="-0.05956">
        <ele>213.07766</ele>
        <time>2021-09-06T12:35:43.000Z</time>
      </trkpt>
      <trkpt lat="48.49442" lon="-0.05931">
        <ele>213.013554</ele>
        <time>2021-09-06T12:35:46.000Z</time>
      </trkpt>
      <trkpt lat="48.49438" lon="-0.05904">
        <ele>212.948162</ele>
        <time>2021-09-06T12:35:49.000Z</time>
      </trkpt>
      <trkpt lat="48.49431" lon="-0.05826">
        <ele>212.758335</ele>
        <time>2021-09-06T12:35:58.000Z</time>
      </trkpt>
      <trkpt lat="48.4942" lon="-0.0576">
        <ele>212.596556</ele>
        <time>2021-09-06T12:36:06.000Z</time>
      </trkpt>
      <trkpt lat="48.49406" lon="-0.05699">
        <ele>212.438363</ele>
        <time>2021-09-06T12:36:14.000Z</time>
      </trkpt>
      <trkpt lat="48.49402" lon="-0.05684">
        <ele>212.391118</ele>
        <time>2021-09-06T12:36:16.000Z</time>
      </trkpt>
      <trkpt lat="48.49392" lon="-0.05657">
        <ele>212.29835</ele>
        <time>2021-09-06T12:36:20.000Z</time>
      </trkpt>
      <trkpt lat="48.49373" lon="-0.05615">
        <ele>212.148565</ele>
        <time>2021-09-06T12:36:26.000Z</time>
      </trkpt>
      <trkpt lat="48.4937" lon="-0.05608">
        <ele>212.122946</ele>
        <time>2021-09-06T12:36:27.000Z</time>
      </trkpt>
      <trkpt lat="48.49356" lon="-0.0558">
        <ele>212.019513</ele>
        <time>2021-09-06T12:36:31.000Z</time>
      </trkpt>
      <trkpt lat="48.4935" lon="-0.05565">
        <ele>211.965802</ele>
        <time>2021-09-06T12:36:33.000Z</time>
      </trkpt>
      <trkpt lat="48.49334" lon="-0.05528">
        <ele>211.834906</ele>
        <time>2021-09-06T12:36:38.000Z</time>
      </trkpt>
      <trkpt lat="48.49327" lon="-0.05516">
        <ele>211.785018</ele>
        <time>2021-09-06T12:36:40.000Z</time>
      </trkpt>
      <trkpt lat="48.49318" lon="-0.05507">
        <ele>211.737663</ele>
        <time>2021-09-06T12:36:42.000Z</time>
      </trkpt>
      <trkpt lat="48.49303" lon="-0.05503">
        <ele>211.669345</ele>
        <time>2021-09-06T12:36:45.000Z</time>
      </trkpt>
      <trkpt lat="48.49298" lon="-0.05503">
        <ele>211.648629</ele>
        <time>2021-09-06T12:36:46.000Z</time>
      </trkpt>
      <trkpt lat="48.49263" lon="-0.05511">
        <ele>212.160221</ele>
        <time>2021-09-06T12:36:54.000Z</time>
      </trkpt>
      <trkpt lat="48.4924" lon="-0.05515">
        <ele>212.506276</ele>
        <time>2021-09-06T12:36:59.000Z</time>
      </trkpt>
      <trkpt lat="48.49231" lon="-0.05513">
        <ele>212.639614</ele>
        <time>2021-09-06T12:37:01.000Z</time>
      </trkpt>
      <trkpt lat="48.4922" lon="-0.05504">
        <ele>212.829119</ele>
        <time>2021-09-06T12:37:04.000Z</time>
      </trkpt>
      <trkpt lat="48.49214" lon="-0.05496">
        <ele>212.950496</ele>
        <time>2021-09-06T12:37:06.000Z</time>
      </trkpt>
      <trkpt lat="48.49198" lon="-0.05469">
        <ele>213.313386</ele>
        <time>2021-09-06T12:37:13.000Z</time>
      </trkpt>
      <trkpt lat="48.49186" lon="-0.05445">
        <ele>213.614301</ele>
        <time>2021-09-06T12:37:21.000Z</time>
      </trkpt>
      <trkpt lat="48.49175" lon="-0.0542">
        <ele>213.914153</ele>
        <time>2021-09-06T12:37:30.000Z</time>
      </trkpt>
      <trkpt lat="48.49168" lon="-0.05405">
        <ele>214.095736</ele>
        <time>2021-09-06T12:37:36.000Z</time>
      </trkpt>
      <trkpt lat="48.49165" lon="-0.05398">
        <ele>214.17666</ele>
        <time>2021-09-06T12:37:39.000Z</time>
      </trkpt>
      <trkpt lat="48.49164" lon="-0.05394">
        <ele>214.223136</ele>
        <time>2021-09-06T12:37:41.000Z</time>
      </trkpt>
      <trkpt lat="48.49159" lon="-0.05378">
        <ele>214.440869</ele>
        <time>2021-09-06T12:37:47.000Z</time>
      </trkpt>
      <trkpt lat="48.49155" lon="-0.05367">
        <ele>214.697595</ele>
        <time>2021-09-06T12:37:52.000Z</time>
      </trkpt>
      <trkpt lat="48.49154" lon="-0.05362">
        <ele>214.809428</ele>
        <time>2021-09-06T12:37:54.000Z</time>
      </trkpt>
      <trkpt lat="48.49147" lon="-0.0535">
        <ele>215.125648</ele>
        <time>2021-09-06T12:37:59.000Z</time>
      </trkpt>
      <trkpt lat="48.49138" lon="-0.05336">
        <ele>215.50323</ele>
        <time>2021-09-06T12:38:05.000Z</time>
      </trkpt>
      <trkpt lat="48.49137" lon="-0.05328">
        <ele>215.658559</ele>
        <time>2021-09-06T12:38:09.000Z</time>
      </trkpt>
      <trkpt lat="48.49137" lon="-0.05325">
        <ele>215.71645</ele>
        <time>2021-09-06T12:38:10.000Z</time>
      </trkpt>
      <trkpt lat="48.4913" lon="-0.05309">
        <ele>216.091717</ele>
        <time>2021-09-06T12:38:17.000Z</time>
      </trkpt>
      <trkpt lat="48.49128" lon="-0.05303">
        <ele>216.243181</ele>
        <time>2021-09-06T12:38:21.000Z</time>
      </trkpt>
      <trkpt lat="48.49122" lon="-0.05284">
        <ele>216.651328</ele>
        <time>2021-09-06T12:38:27.000Z</time>
      </trkpt>
      <trkpt lat="48.49111" lon="-0.05263">
        <ele>217.186395</ele>
        <time>2021-09-06T12:38:36.000Z</time>
      </trkpt>
      <trkpt lat="48.491" lon="-0.05252">
        <ele>217.582891</ele>
        <time>2021-09-06T12:38:42.000Z</time>
      </trkpt>
      <trkpt lat="48.49082" lon="-0.05251">
        <ele>218.131603</ele>
        <time>2021-09-06T12:38:47.000Z</time>
      </trkpt>
      <trkpt lat="48.49054" lon="-0.05263">
        <ele>219.013307</ele>
        <time>2021-09-06T12:38:52.000Z</time>
      </trkpt>
      <trkpt lat="48.49018" lon="-0.05278">
        <ele>219.620781</ele>
        <time>2021-09-06T12:38:57.000Z</time>
      </trkpt>
      <trkpt lat="48.48979" lon="-0.05296">
        <ele>219.101382</ele>
        <time>2021-09-06T12:39:02.000Z</time>
      </trkpt>
      <trkpt lat="48.4895" lon="-0.05308">
        <ele>218.724394</ele>
        <time>2021-09-06T12:39:06.000Z</time>
      </trkpt>
      <trkpt lat="48.48931" lon="-0.05309">
        <ele>218.478389</ele>
        <time>2021-09-06T12:39:10.000Z</time>
      </trkpt>
      <trkpt lat="48.48921" lon="-0.05295">
        <ele>218.302864</ele>
        <time>2021-09-06T12:39:14.000Z</time>
      </trkpt>
      <trkpt lat="48.48904" lon="-0.05255">
        <ele>217.901164</ele>
        <time>2021-09-06T12:39:20.000Z</time>
      </trkpt>
      <trkpt lat="48.48902" lon="-0.05247">
        <ele>217.824671</ele>
        <time>2021-09-06T12:39:21.000Z</time>
      </trkpt>
      <trkpt lat="48.48894" lon="-0.0522">
        <ele>217.586162</ele>
        <time>2021-09-06T12:39:24.000Z</time>
      </trkpt>
      <trkpt lat="48.48881" lon="-0.05161">
        <ele>217.006159</ele>
        <time>2021-09-06T12:39:30.000Z</time>
      </trkpt>
      <trkpt lat="48.48874" lon="-0.0513">
        <ele>216.699115</ele>
        <time>2021-09-06T12:39:33.000Z</time>
      </trkpt>
      <trkpt lat="48.4887" lon="-0.05121">
        <ele>216.598116</ele>
        <time>2021-09-06T12:39:34.000Z</time>
      </trkpt>
      <trkpt lat="48.48864" lon="-0.05115">
        <ele>216.49597</ele>
        <time>2021-09-06T12:39:35.000Z</time>
      </trkpt>
      <trkpt lat="48.48857" lon="-0.05113">
        <ele>216.39504</ele>
        <time>2021-09-06T12:39:36.000Z</time>
      </trkpt>
      <trkpt lat="48.48829" lon="-0.05113">
        <ele>215.999758</ele>
        <time>2021-09-06T12:39:41.000Z</time>
      </trkpt>
      <trkpt lat="48.4881" lon="-0.05116">
        <ele>215.72251</ele>
        <time>2021-09-06T12:39:46.000Z</time>
      </trkpt>
      <trkpt lat="48.48788" lon="-0.05126">
        <ele>215.395102</ele>
        <time>2021-09-06T12:39:52.000Z</time>
      </trkpt>
      <trkpt lat="48.48769" lon="-0.05136">
        <ele>215.114735</ele>
        <time>2021-09-06T12:39:56.000Z</time>
      </trkpt>
      <trkpt lat="48.48759" lon="-0.0514">
        <ele>214.960386</ele>
        <time>2021-09-06T12:39:58.000Z</time>
      </trkpt>
      <trkpt lat="48.48721" lon="-0.05147">
        <ele>214.407123</ele>
        <time>2021-09-06T12:40:04.000Z</time>
      </trkpt>
      <trkpt lat="48.4869" lon="-0.05151">
        <ele>213.934537</ele>
        <time>2021-09-06T12:40:09.000Z</time>
      </trkpt>
      <trkpt lat="48.48684" lon="-0.05151">
        <ele>213.84541</ele>
        <time>2021-09-06T12:40:10.000Z</time>
      </trkpt>
      <trkpt lat="48.48678" lon="-0.05151">
        <ele>213.760668</ele>
        <time>2021-09-06T12:40:11.000Z</time>
      </trkpt>
      <trkpt lat="48.48649" lon="-0.05153">
        <ele>213.322282</ele>
        <time>2021-09-06T12:40:16.000Z</time>
      </trkpt>
      <trkpt lat="48.48643" lon="-0.05152">
        <ele>213.241073</ele>
        <time>2021-09-06T12:40:17.000Z</time>
      </trkpt>
      <trkpt lat="48.48621" lon="-0.05144">
        <ele>212.907884</ele>
        <time>2021-09-06T12:40:21.000Z</time>
      </trkpt>
      <trkpt lat="48.48616" lon="-0.05141">
        <ele>212.828976</ele>
        <time>2021-09-06T12:40:22.000Z</time>
      </trkpt>
      <trkpt lat="48.48578" lon="-0.05116">
        <ele>212.243912</ele>
        <time>2021-09-06T12:40:30.000Z</time>
      </trkpt>
      <trkpt lat="48.48569" lon="-0.05112">
        <ele>212.190783</ele>
        <time>2021-09-06T12:40:32.000Z</time>
      </trkpt>
      <trkpt lat="48.48557" lon="-0.05106">
        <ele>212.117647</ele>
        <time>2021-09-06T12:40:35.000Z</time>
      </trkpt>
      <trkpt lat="48.48548" lon="-0.05104">
        <ele>212.070174</ele>
        <time>2021-09-06T12:40:37.000Z</time>
      </trkpt>
      <trkpt lat="48.48541" lon="-0.051">
        <ele>212.02675</ele>
        <time>2021-09-06T12:40:39.000Z</time>
      </trkpt>
      <trkpt lat="48.48537" lon="-0.05098">
        <ele>212.001988</ele>
        <time>2021-09-06T12:40:40.000Z</time>
      </trkpt>
      <trkpt lat="48.48514" lon="-0.0509">
        <ele>211.869589</ele>
        <time>2021-09-06T12:40:45.000Z</time>
      </trkpt>
      <trkpt lat="48.48509" lon="-0.05087">
        <ele>211.840785</ele>
        <time>2021-09-06T12:40:46.000Z</time>
      </trkpt>
      <trkpt lat="48.48499" lon="-0.05084">
        <ele>211.783389</ele>
        <time>2021-09-06T12:40:48.000Z</time>
      </trkpt>
      <trkpt lat="48.48475" lon="-0.05068">
        <ele>211.638816</ele>
        <time>2021-09-06T12:40:53.000Z</time>
      </trkpt>
      <trkpt lat="48.48444" lon="-0.05042">
        <ele>211.440147</ele>
        <time>2021-09-06T12:41:00.000Z</time>
      </trkpt>
      <trkpt lat="48.48413" lon="-0.05016">
        <ele>211.219976</ele>
        <time>2021-09-06T12:41:07.000Z</time>
      </trkpt>
      <trkpt lat="48.48379" lon="-0.04991">
        <ele>210.777546</ele>
        <time>2021-09-06T12:41:13.000Z</time>
      </trkpt>
      <trkpt lat="48.48346" lon="-0.04964">
        <ele>210.329301</ele>
        <time>2021-09-06T12:41:18.000Z</time>
      </trkpt>
      <trkpt lat="48.48308" lon="-0.04935">
        <ele>209.832905</ele>
        <time>2021-09-06T12:41:23.000Z</time>
      </trkpt>
      <trkpt lat="48.48293" lon="-0.04925">
        <ele>209.631479</ele>
        <time>2021-09-06T12:41:25.000Z</time>
      </trkpt>
      <trkpt lat="48.4827" lon="-0.04915">
        <ele>209.343164</ele>
        <time>2021-09-06T12:41:28.000Z</time>
      </trkpt>
      <trkpt lat="48.48219" lon="-0.04896">
        <ele>208.712976</ele>
        <time>2021-09-06T12:41:35.000Z</time>
      </trkpt>
      <trkpt lat="48.4818" lon="-0.04879">
        <ele>208.20784</ele>
        <time>2021-09-06T12:41:41.000Z</time>
      </trkpt>
      <trkpt lat="48.48128" lon="-0.04857">
        <ele>207.532256</ele>
        <time>2021-09-06T12:41:49.000Z</time>
      </trkpt>
      <trkpt lat="48.48121" lon="-0.04855">
        <ele>207.44741</ele>
        <time>2021-09-06T12:41:50.000Z</time>
      </trkpt>
      <trkpt lat="48.48088" lon="-0.04852">
        <ele>207.033693</ele>
        <time>2021-09-06T12:41:55.000Z</time>
      </trkpt>
      <trkpt lat="48.48062" lon="-0.04853">
        <ele>206.943516</ele>
        <time>2021-09-06T12:42:00.000Z</time>
      </trkpt>
      <trkpt lat="48.4803" lon="-0.04854">
        <ele>207.045688</ele>
        <time>2021-09-06T12:42:07.000Z</time>
      </trkpt>
      <trkpt lat="48.48004" lon="-0.04854">
        <ele>207.132872</ele>
        <time>2021-09-06T12:42:14.000Z</time>
      </trkpt>
      <trkpt lat="48.47968" lon="-0.04852">
        <ele>207.248073</ele>
        <time>2021-09-06T12:42:23.000Z</time>
      </trkpt>
      <trkpt lat="48.47935" lon="-0.04847">
        <ele>207.357721</ele>
        <time>2021-09-06T12:42:32.000Z</time>
      </trkpt>
      <trkpt lat="48.47906" lon="-0.04836">
        <ele>207.453476</ele>
        <time>2021-09-06T12:42:40.000Z</time>
      </trkpt>
      <trkpt lat="48.47879" lon="-0.04825">
        <ele>208.222691</ele>
        <time>2021-09-06T12:42:48.000Z</time>
      </trkpt>
      <trkpt lat="48.47857" lon="-0.04816">
        <ele>209.118109</ele>
        <time>2021-09-06T12:42:55.000Z</time>
      </trkpt>
      <trkpt lat="48.47832" lon="-0.04806">
        <ele>210.087506</ele>
        <time>2021-09-06T12:43:03.000Z</time>
      </trkpt>
      <trkpt lat="48.47813" lon="-0.04797">
        <ele>210.837717</ele>
        <time>2021-09-06T12:43:09.000Z</time>
      </trkpt>
      <trkpt lat="48.47799" lon="-0.04789">
        <ele>211.407111</ele>
        <time>2021-09-06T12:43:14.000Z</time>
      </trkpt>
      <trkpt lat="48.47785" lon="-0.04778">
        <ele>212.028696</ele>
        <time>2021-09-06T12:43:19.000Z</time>
      </trkpt>
      <trkpt lat="48.47766" lon="-0.04762">
        <ele>212.871701</ele>
        <time>2021-09-06T12:43:26.000Z</time>
      </trkpt>
      <trkpt lat="48.47753" lon="-0.04749">
        <ele>213.453418</ele>
        <time>2021-09-06T12:43:31.000Z</time>
      </trkpt>
      <trkpt lat="48.47736" lon="-0.0473">
        <ele>214.249895</ele>
        <time>2021-09-06T12:43:38.000Z</time>
      </trkpt>
      <trkpt lat="48.47724" lon="-0.04711">
        <ele>214.914828</ele>
        <time>2021-09-06T12:43:44.000Z</time>
      </trkpt>
      <trkpt lat="48.4771" lon="-0.04688">
        <ele>215.685585</ele>
        <time>2021-09-06T12:43:52.000Z</time>
      </trkpt>
      <trkpt lat="48.47701" lon="-0.04671">
        <ele>216.238071</ele>
        <time>2021-09-06T12:43:57.000Z</time>
      </trkpt>
      <trkpt lat="48.47687" lon="-0.04648">
        <ele>216.999394</ele>
        <time>2021-09-06T12:44:04.000Z</time>
      </trkpt>
      <trkpt lat="48.47677" lon="-0.04629">
        <ele>217.617312</ele>
        <time>2021-09-06T12:44:10.000Z</time>
      </trkpt>
      <trkpt lat="48.47667" lon="-0.04613">
        <ele>218.152889</ele>
        <time>2021-09-06T12:44:15.000Z</time>
      </trkpt>
      <trkpt lat="48.47654" lon="-0.04593">
        <ele>218.839756</ele>
        <time>2021-09-06T12:44:21.000Z</time>
      </trkpt>
      <trkpt lat="48.4764" lon="-0.04568">
        <ele>219.673284</ele>
        <time>2021-09-06T12:44:28.000Z</time>
      </trkpt>
      <trkpt lat="48.47628" lon="-0.04546">
        <ele>220.383718</ele>
        <time>2021-09-06T12:44:34.000Z</time>
      </trkpt>
      <trkpt lat="48.47608" lon="-0.04513">
        <ele>221.366123</ele>
        <time>2021-09-06T12:44:43.000Z</time>
      </trkpt>
      <trkpt lat="48.47591" lon="-0.04484">
        <ele>222.050442</ele>
        <time>2021-09-06T12:44:51.000Z</time>
      </trkpt>
      <trkpt lat="48.47576" lon="-0.04459">
        <ele>222.633164</ele>
        <time>2021-09-06T12:44:58.000Z</time>
      </trkpt>
      <trkpt lat="48.47556" lon="-0.04425">
        <ele>223.417137</ele>
        <time>2021-09-06T12:45:07.000Z</time>
      </trkpt>
      <trkpt lat="48.47543" lon="-0.04405">
        <ele>223.914922</ele>
        <time>2021-09-06T12:45:13.000Z</time>
      </trkpt>
      <trkpt lat="48.47524" lon="-0.0437">
        <ele>224.703002</ele>
        <time>2021-09-06T12:45:22.000Z</time>
      </trkpt>
      <trkpt lat="48.47505" lon="-0.04339">
        <ele>225.434707</ele>
        <time>2021-09-06T12:45:30.000Z</time>
      </trkpt>
      <trkpt lat="48.47484" lon="-0.04301">
        <ele>226.002161</ele>
        <time>2021-09-06T12:45:39.000Z</time>
      </trkpt>
      <trkpt lat="48.4747" lon="-0.0428">
        <ele>226.184703</ele>
        <time>2021-09-06T12:45:44.000Z</time>
      </trkpt>
      <trkpt lat="48.47449" lon="-0.04243">
        <ele>226.496654</ele>
        <time>2021-09-06T12:45:52.000Z</time>
      </trkpt>
      <trkpt lat="48.47424" lon="-0.04201">
        <ele>226.848347</ele>
        <time>2021-09-06T12:46:00.000Z</time>
      </trkpt>
      <trkpt lat="48.47407" lon="-0.0417">
        <ele>227.101857</ele>
        <time>2021-09-06T12:46:06.000Z</time>
      </trkpt>
      <trkpt lat="48.47396" lon="-0.0415">
        <ele>227.267647</ele>
        <time>2021-09-06T12:46:10.000Z</time>
      </trkpt>
      <trkpt lat="48.47377" lon="-0.04119">
        <ele>227.53126</ele>
        <time>2021-09-06T12:46:16.000Z</time>
      </trkpt>
      <trkpt lat="48.47362" lon="-0.04091">
        <ele>227.248735</ele>
        <time>2021-09-06T12:46:21.000Z</time>
      </trkpt>
      <trkpt lat="48.47341" lon="-0.04056">
        <ele>226.848594</ele>
        <time>2021-09-06T12:46:27.000Z</time>
      </trkpt>
      <trkpt lat="48.47333" lon="-0.04043">
        <ele>226.702609</ele>
        <time>2021-09-06T12:46:29.000Z</time>
      </trkpt>
      <trkpt lat="48.47321" lon="-0.04024">
        <ele>226.479587</ele>
        <time>2021-09-06T12:46:32.000Z</time>
      </trkpt>
      <trkpt lat="48.47288" lon="-0.03968">
        <ele>225.85769</ele>
        <time>2021-09-06T12:46:40.000Z</time>
      </trkpt>
      <trkpt lat="48.47251" lon="-0.03907">
        <ele>225.162654</ele>
        <time>2021-09-06T12:46:49.000Z</time>
      </trkpt>
      <trkpt lat="48.47219" lon="-0.03851">
        <ele>224.493292</ele>
        <time>2021-09-06T12:46:57.000Z</time>
      </trkpt>
      <trkpt lat="48.47199" lon="-0.03815">
        <ele>224.072679</ele>
        <time>2021-09-06T12:47:02.000Z</time>
      </trkpt>
      <trkpt lat="48.4719" lon="-0.03802">
        <ele>223.900554</ele>
        <time>2021-09-06T12:47:04.000Z</time>
      </trkpt>
      <trkpt lat="48.47169" lon="-0.03767">
        <ele>223.485793</ele>
        <time>2021-09-06T12:47:09.000Z</time>
      </trkpt>
      <trkpt lat="48.47165" lon="-0.03761">
        <ele>223.407656</ele>
        <time>2021-09-06T12:47:10.000Z</time>
      </trkpt>
      <trkpt lat="48.47157" lon="-0.03747">
        <ele>223.249267</ele>
        <time>2021-09-06T12:47:12.000Z</time>
      </trkpt>
      <trkpt lat="48.47127" lon="-0.03697">
        <ele>222.57662</ele>
        <time>2021-09-06T12:47:19.000Z</time>
      </trkpt>
      <trkpt lat="48.47095" lon="-0.03645">
        <ele>221.754706</ele>
        <time>2021-09-06T12:47:26.000Z</time>
      </trkpt>
      <trkpt lat="48.47056" lon="-0.03579">
        <ele>220.729168</ele>
        <time>2021-09-06T12:47:34.000Z</time>
      </trkpt>
      <trkpt lat="48.47024" lon="-0.03528">
        <ele>219.90656</ele>
        <time>2021-09-06T12:47:40.000Z</time>
      </trkpt>
      <trkpt lat="48.46998" lon="-0.03482">
        <ele>219.170621</ele>
        <time>2021-09-06T12:47:45.000Z</time>
      </trkpt>
      <trkpt lat="48.46981" lon="-0.03447">
        <ele>218.637209</ele>
        <time>2021-09-06T12:47:49.000Z</time>
      </trkpt>
      <trkpt lat="48.46977" lon="-0.03439">
        <ele>218.515837</ele>
        <time>2021-09-06T12:47:50.000Z</time>
      </trkpt>
      <trkpt lat="48.46973" lon="-0.03432">
        <ele>218.397021</ele>
        <time>2021-09-06T12:47:51.000Z</time>
      </trkpt>
      <trkpt lat="48.46957" lon="-0.034">
        <ele>217.905853</ele>
        <time>2021-09-06T12:47:55.000Z</time>
      </trkpt>
      <trkpt lat="48.46937" lon="-0.03356">
        <ele>217.243873</ele>
        <time>2021-09-06T12:48:00.000Z</time>
      </trkpt>
      <trkpt lat="48.46909" lon="-0.03303">
        <ele>216.402748</ele>
        <time>2021-09-06T12:48:06.000Z</time>
      </trkpt>
      <trkpt lat="48.46903" lon="-0.03296">
        <ele>216.264836</ele>
        <time>2021-09-06T12:48:07.000Z</time>
      </trkpt>
      <trkpt lat="48.46896" lon="-0.03289">
        <ele>216.132713</ele>
        <time>2021-09-06T12:48:08.000Z</time>
      </trkpt>
      <trkpt lat="48.46883" lon="-0.0328">
        <ele>215.882248</ele>
        <time>2021-09-06T12:48:10.000Z</time>
      </trkpt>
      <trkpt lat="48.46877" lon="-0.03277">
        <ele>215.768083</ele>
        <time>2021-09-06T12:48:11.000Z</time>
      </trkpt>
      <trkpt lat="48.46847" lon="-0.03274">
        <ele>215.245133</ele>
        <time>2021-09-06T12:48:16.000Z</time>
      </trkpt>
      <trkpt lat="48.46811" lon="-0.03272">
        <ele>214.633102</ele>
        <time>2021-09-06T12:48:23.000Z</time>
      </trkpt>
      <trkpt lat="48.46769" lon="-0.03268">
        <ele>213.904575</ele>
        <time>2021-09-06T12:48:32.000Z</time>
      </trkpt>
      <trkpt lat="48.46737" lon="-0.03264">
        <ele>213.35131</ele>
        <time>2021-09-06T12:48:39.000Z</time>
      </trkpt>
      <trkpt lat="48.46697" lon="-0.03257">
        <ele>212.727047</ele>
        <time>2021-09-06T12:48:46.000Z</time>
      </trkpt>
      <trkpt lat="48.46638" lon="-0.03248">
        <ele>211.840578</ele>
        <time>2021-09-06T12:48:55.000Z</time>
      </trkpt>
      <trkpt lat="48.46584" lon="-0.03234">
        <ele>211.003215</ele>
        <time>2021-09-06T12:49:03.000Z</time>
      </trkpt>
      <trkpt lat="48.46561" lon="-0.03213">
        <ele>210.601743</ele>
        <time>2021-09-06T12:49:07.000Z</time>
      </trkpt>
      <trkpt lat="48.46556" lon="-0.03207">
        <ele>210.508259</ele>
        <time>2021-09-06T12:49:08.000Z</time>
      </trkpt>
      <trkpt lat="48.46528" lon="-0.03173">
        <ele>210.215349</ele>
        <time>2021-09-06T12:49:14.000Z</time>
      </trkpt>
      <trkpt lat="48.46487" lon="-0.03123">
        <ele>209.778397</ele>
        <time>2021-09-06T12:49:23.000Z</time>
      </trkpt>
      <trkpt lat="48.46445" lon="-0.03084">
        <ele>209.376792</ele>
        <time>2021-09-06T12:49:31.000Z</time>
      </trkpt>
      <trkpt lat="48.46407" lon="-0.0307">
        <ele>209.056772</ele>
        <time>2021-09-06T12:49:37.000Z</time>
      </trkpt>
      <trkpt lat="48.46351" lon="-0.03056">
        <ele>209.064118</ele>
        <time>2021-09-06T12:49:45.000Z</time>
      </trkpt>
      <trkpt lat="48.46312" lon="-0.03045">
        <ele>209.083864</ele>
        <time>2021-09-06T12:49:51.000Z</time>
      </trkpt>
      <trkpt lat="48.46282" lon="-0.03039">
        <ele>209.099307</ele>
        <time>2021-09-06T12:49:57.000Z</time>
      </trkpt>
      <trkpt lat="48.46278" lon="-0.03038">
        <ele>209.101621</ele>
        <time>2021-09-06T12:49:58.000Z</time>
      </trkpt>
      <trkpt lat="48.46257" lon="-0.03033">
        <ele>209.112</ele>
        <time>2021-09-06T12:50:03.000Z</time>
      </trkpt>
      <trkpt lat="48.46235" lon="-0.03025">
        <ele>209.123774</ele>
        <time>2021-09-06T12:50:09.000Z</time>
      </trkpt>
      <trkpt lat="48.46217" lon="-0.03011">
        <ele>209.067754</ele>
        <time>2021-09-06T12:50:14.000Z</time>
      </trkpt>
      <trkpt lat="48.46215" lon="-0.03006">
        <ele>209.049164</ele>
        <time>2021-09-06T12:50:15.000Z</time>
      </trkpt>
      <trkpt lat="48.46209" lon="-0.02998">
        <ele>209.010974</ele>
        <time>2021-09-06T12:50:17.000Z</time>
      </trkpt>
      <trkpt lat="48.46204" lon="-0.02987">
        <ele>208.970246</ele>
        <time>2021-09-06T12:50:19.000Z</time>
      </trkpt>
      <trkpt lat="48.4619" lon="-0.02957">
        <ele>208.855913</ele>
        <time>2021-09-06T12:50:24.000Z</time>
      </trkpt>
      <trkpt lat="48.46188" lon="-0.02951">
        <ele>208.831317</ele>
        <time>2021-09-06T12:50:25.000Z</time>
      </trkpt>
      <trkpt lat="48.46165" lon="-0.02903">
        <ele>208.648105</ele>
        <time>2021-09-06T12:50:32.000Z</time>
      </trkpt>
      <trkpt lat="48.46138" lon="-0.02845">
        <ele>208.424887</ele>
        <time>2021-09-06T12:50:40.000Z</time>
      </trkpt>
      <trkpt lat="48.4611" lon="-0.02782">
        <ele>208.146519</ele>
        <time>2021-09-06T12:50:47.000Z</time>
      </trkpt>
      <trkpt lat="48.4608" lon="-0.02714">
        <ele>207.775773</ele>
        <time>2021-09-06T12:50:55.000Z</time>
      </trkpt>
      <trkpt lat="48.46047" lon="-0.02642">
        <ele>207.382708</ele>
        <time>2021-09-06T12:51:04.000Z</time>
      </trkpt>
      <trkpt lat="48.46023" lon="-0.02595">
        <ele>207.112787</ele>
        <time>2021-09-06T12:51:10.000Z</time>
      </trkpt>
      <trkpt lat="48.45998" lon="-0.02559">
        <ele>206.858535</ele>
        <time>2021-09-06T12:51:15.000Z</time>
      </trkpt>
      <trkpt lat="48.45966" lon="-0.02518">
        <ele>206.540187</ele>
        <time>2021-09-06T12:51:21.000Z</time>
      </trkpt>
      <trkpt lat="48.45937" lon="-0.0248">
        <ele>206.248264</ele>
        <time>2021-09-06T12:51:27.000Z</time>
      </trkpt>
      <trkpt lat="48.45919" lon="-0.02457">
        <ele>206.068796</ele>
        <time>2021-09-06T12:51:32.000Z</time>
      </trkpt>
      <trkpt lat="48.45901" lon="-0.02431">
        <ele>205.881028</ele>
        <time>2021-09-06T12:51:39.000Z</time>
      </trkpt>
      <trkpt lat="48.45886" lon="-0.0241">
        <ele>205.725789</ele>
        <time>2021-09-06T12:51:46.000Z</time>
      </trkpt>
      <trkpt lat="48.4587" lon="-0.02383">
        <ele>205.484182</ele>
        <time>2021-09-06T12:51:53.000Z</time>
      </trkpt>
      <trkpt lat="48.45845" lon="-0.02344">
        <ele>205.085386</ele>
        <time>2021-09-06T12:52:01.000Z</time>
      </trkpt>
      <trkpt lat="48.45819" lon="-0.02298">
        <ele>204.639473</ele>
        <time>2021-09-06T12:52:08.000Z</time>
      </trkpt>
      <trkpt lat="48.45793" lon="-0.02251">
        <ele>204.193385</ele>
        <time>2021-09-06T12:52:14.000Z</time>
      </trkpt>
      <trkpt lat="48.45788" lon="-0.02243">
        <ele>204.116711</ele>
        <time>2021-09-06T12:52:15.000Z</time>
      </trkpt>
      <trkpt lat="48.45775" lon="-0.0222">
        <ele>203.894153</ele>
        <time>2021-09-06T12:52:18.000Z</time>
      </trkpt>
      <trkpt lat="48.45744" lon="-0.02162">
        <ele>203.078558</ele>
        <time>2021-09-06T12:52:25.000Z</time>
      </trkpt>
      <trkpt lat="48.45718" lon="-0.02109">
        <ele>202.242213</ele>
        <time>2021-09-06T12:52:31.000Z</time>
      </trkpt>
      <trkpt lat="48.45689" lon="-0.02035">
        <ele>201.14462</ele>
        <time>2021-09-06T12:52:39.000Z</time>
      </trkpt>
      <trkpt lat="48.45666" lon="-0.01977">
        <ele>200.276422</ele>
        <time>2021-09-06T12:52:46.000Z</time>
      </trkpt>
      <trkpt lat="48.4566" lon="-0.0196">
        <ele>200.001459</ele>
        <time>2021-09-06T12:52:48.000Z</time>
      </trkpt>
      <trkpt lat="48.45646" lon="-0.01926">
        <ele>199.42277</ele>
        <time>2021-09-06T12:52:52.000Z</time>
      </trkpt>
      <trkpt lat="48.45637" lon="-0.01911">
        <ele>199.124851</ele>
        <time>2021-09-06T12:52:54.000Z</time>
      </trkpt>
      <trkpt lat="48.45628" lon="-0.01898">
        <ele>198.858253</ele>
        <time>2021-09-06T12:52:56.000Z</time>
      </trkpt>
      <trkpt lat="48.45626" lon="-0.01891">
        <ele>198.748036</ele>
        <time>2021-09-06T12:52:57.000Z</time>
      </trkpt>
      <trkpt lat="48.45625" lon="-0.01873">
        <ele>198.480655</ele>
        <time>2021-09-06T12:53:00.000Z</time>
      </trkpt>
      <trkpt lat="48.45622" lon="-0.01858">
        <ele>198.256026</ele>
        <time>2021-09-06T12:53:02.000Z</time>
      </trkpt>
      <trkpt lat="48.45615" lon="-0.01825">
        <ele>197.760376</ele>
        <time>2021-09-06T12:53:06.000Z</time>
      </trkpt>
      <trkpt lat="48.45616" lon="-0.01808">
        <ele>197.517969</ele>
        <time>2021-09-06T12:53:08.000Z</time>
      </trkpt>
      <trkpt lat="48.45625" lon="-0.01753">
        <ele>196.690077</ele>
        <time>2021-09-06T12:53:15.000Z</time>
      </trkpt>
      <trkpt lat="48.45632" lon="-0.01698">
        <ele>195.899289</ele>
        <time>2021-09-06T12:53:22.000Z</time>
      </trkpt>
      <trkpt lat="48.45637" lon="-0.01634">
        <ele>195.031351</ele>
        <time>2021-09-06T12:53:29.000Z</time>
      </trkpt>
      <trkpt lat="48.45639" lon="-0.01565">
        <ele>194.095449</ele>
        <time>2021-09-06T12:53:36.000Z</time>
      </trkpt>
      <trkpt lat="48.45639" lon="-0.01555">
        <ele>193.960974</ele>
        <time>2021-09-06T12:53:37.000Z</time>
      </trkpt>
      <trkpt lat="48.45636" lon="-0.01479">
        <ele>192.928239</ele>
        <time>2021-09-06T12:53:45.000Z</time>
      </trkpt>
      <trkpt lat="48.4563" lon="-0.01407">
        <ele>191.9052</ele>
        <time>2021-09-06T12:53:53.000Z</time>
      </trkpt>
      <trkpt lat="48.45621" lon="-0.01352">
        <ele>191.089775</ele>
        <time>2021-09-06T12:53:59.000Z</time>
      </trkpt>
      <trkpt lat="48.45604" lon="-0.01264">
        <ele>189.791709</ele>
        <time>2021-09-06T12:54:08.000Z</time>
      </trkpt>
      <trkpt lat="48.45586" lon="-0.01185">
        <ele>188.620971</ele>
        <time>2021-09-06T12:54:16.000Z</time>
      </trkpt>
      <trkpt lat="48.4557" lon="-0.01115">
        <ele>187.75703</ele>
        <time>2021-09-06T12:54:23.000Z</time>
      </trkpt>
      <trkpt lat="48.4556" lon="-0.01072">
        <ele>187.219475</ele>
        <time>2021-09-06T12:54:28.000Z</time>
      </trkpt>
      <trkpt lat="48.45556" lon="-0.01068">
        <ele>187.137629</ele>
        <time>2021-09-06T12:54:29.000Z</time>
      </trkpt>
      <trkpt lat="48.45551" lon="-0.01063">
        <ele>187.035387</ele>
        <time>2021-09-06T12:54:31.000Z</time>
      </trkpt>
      <trkpt lat="48.4555" lon="-0.01059">
        <ele>186.980746</ele>
        <time>2021-09-06T12:54:32.000Z</time>
      </trkpt>
      <trkpt lat="48.45547" lon="-0.01047">
        <ele>186.835059</ele>
        <time>2021-09-06T12:54:34.000Z</time>
      </trkpt>
      <trkpt lat="48.45544" lon="-0.01033">
        <ele>186.66603</ele>
        <time>2021-09-06T12:54:36.000Z</time>
      </trkpt>
      <trkpt lat="48.45533" lon="-0.00977">
        <ele>185.972228</ele>
        <time>2021-09-06T12:54:43.000Z</time>
      </trkpt>
      <trkpt lat="48.45522" lon="-0.00926">
        <ele>185.333077</ele>
        <time>2021-09-06T12:54:49.000Z</time>
      </trkpt>
      <trkpt lat="48.45518" lon="-0.00908">
        <ele>185.082648</ele>
        <time>2021-09-06T12:54:51.000Z</time>
      </trkpt>
      <trkpt lat="48.45512" lon="-0.00879">
        <ele>184.702991</ele>
        <time>2021-09-06T12:54:54.000Z</time>
      </trkpt>
      <trkpt lat="48.45497" lon="-0.00793">
        <ele>183.58287</ele>
        <time>2021-09-06T12:55:03.000Z</time>
      </trkpt>
      <trkpt lat="48.45488" lon="-0.00734">
        <ele>182.813514</ele>
        <time>2021-09-06T12:55:09.000Z</time>
      </trkpt>
      <trkpt lat="48.45479" lon="-0.00659">
        <ele>181.839184</ele>
        <time>2021-09-06T12:55:17.000Z</time>
      </trkpt>
      <trkpt lat="48.45479" lon="-0.00651">
        <ele>181.730743</ele>
        <time>2021-09-06T12:55:18.000Z</time>
      </trkpt>
      <trkpt lat="48.45483" lon="-0.00637">
        <ele>181.530825</ele>
        <time>2021-09-06T12:55:20.000Z</time>
      </trkpt>
      <trkpt lat="48.45486" lon="-0.0062">
        <ele>181.312279</ele>
        <time>2021-09-06T12:55:22.000Z</time>
      </trkpt>
      <trkpt lat="48.45485" lon="-0.00611">
        <ele>181.189776</ele>
        <time>2021-09-06T12:55:23.000Z</time>
      </trkpt>
      <trkpt lat="48.45479" lon="-0.00546">
        <ele>180.331737</ele>
        <time>2021-09-06T12:55:30.000Z</time>
      </trkpt>
      <trkpt lat="48.45478" lon="-0.00471">
        <ele>179.349202</ele>
        <time>2021-09-06T12:55:38.000Z</time>
      </trkpt>
      <trkpt lat="48.45479" lon="-0.0039">
        <ele>178.17671</ele>
        <time>2021-09-06T12:55:46.000Z</time>
      </trkpt>
      <trkpt lat="48.45481" lon="-0.00316">
        <ele>176.838661</ele>
        <time>2021-09-06T12:55:53.000Z</time>
      </trkpt>
      <trkpt lat="48.45487" lon="-0.00242">
        <ele>175.494166</ele>
        <time>2021-09-06T12:56:00.000Z</time>
      </trkpt>
      <trkpt lat="48.45498" lon="-0.00157">
        <ele>173.937215</ele>
        <time>2021-09-06T12:56:08.000Z</time>
      </trkpt>
      <trkpt lat="48.45512" lon="-0.00081">
        <ele>172.660862</ele>
        <time>2021-09-06T12:56:15.000Z</time>
      </trkpt>
      <trkpt lat="48.45516" lon="-0.00059">
        <ele>172.292631</ele>
        <time>2021-09-06T12:56:17.000Z</time>
      </trkpt>
      <trkpt lat="48.45525" lon="-0.00024">
        <ele>171.707896</ele>
        <time>2021-09-06T12:56:20.000Z</time>
      </trkpt>
      <trkpt lat="48.45545" lon="0.0006">
        <ele>170.279831</ele>
        <time>2021-09-06T12:56:27.000Z</time>
      </trkpt>
      <trkpt lat="48.45565" lon="0.00145">
        <ele>169.081874</ele>
        <time>2021-09-06T12:56:34.000Z</time>
      </trkpt>
      <trkpt lat="48.45576" lon="0.002">
        <ele>168.546328</ele>
        <time>2021-09-06T12:56:39.000Z</time>
      </trkpt>
      <trkpt lat="48.45591" lon="0.0026">
        <ele>167.94896</ele>
        <time>2021-09-06T12:56:45.000Z</time>
      </trkpt>
      <trkpt lat="48.45606" lon="0.00319">
        <ele>167.373056</ele>
        <time>2021-09-06T12:56:51.000Z</time>
      </trkpt>
      <trkpt lat="48.45624" lon="0.00388">
        <ele>166.706131</ele>
        <time>2021-09-06T12:56:59.000Z</time>
      </trkpt>
      <trkpt lat="48.45635" lon="0.00435">
        <ele>166.284694</ele>
        <time>2021-09-06T12:57:05.000Z</time>
      </trkpt>
      <trkpt lat="48.45637" lon="0.00443">
        <ele>166.214582</ele>
        <time>2021-09-06T12:57:06.000Z</time>
      </trkpt>
      <trkpt lat="48.45652" lon="0.00501">
        <ele>165.691575</ele>
        <time>2021-09-06T12:57:13.000Z</time>
      </trkpt>
      <trkpt lat="48.45666" lon="0.00554">
        <ele>165.206595</ele>
        <time>2021-09-06T12:57:19.000Z</time>
      </trkpt>
      <trkpt lat="48.45669" lon="0.00563">
        <ele>165.122379</ele>
        <time>2021-09-06T12:57:20.000Z</time>
      </trkpt>
      <trkpt lat="48.45683" lon="0.00622">
        <ele>164.596637</ele>
        <time>2021-09-06T12:57:26.000Z</time>
      </trkpt>
      <trkpt lat="48.45701" lon="0.00686">
        <ele>163.796516</ele>
        <time>2021-09-06T12:57:32.000Z</time>
      </trkpt>
      <trkpt lat="48.45721" lon="0.00766">
        <ele>162.819802</ele>
        <time>2021-09-06T12:57:39.000Z</time>
      </trkpt>
      <trkpt lat="48.45723" lon="0.00778">
        <ele>162.678367</ele>
        <time>2021-09-06T12:57:40.000Z</time>
      </trkpt>
      <trkpt lat="48.45738" lon="0.00843">
        <ele>161.889421</ele>
        <time>2021-09-06T12:57:46.000Z</time>
      </trkpt>
      <trkpt lat="48.4575" lon="0.00895">
        <ele>161.291749</ele>
        <time>2021-09-06T12:57:52.000Z</time>
      </trkpt>
      <trkpt lat="48.45758" lon="0.00927">
        <ele>160.945941</ele>
        <time>2021-09-06T12:57:57.000Z</time>
      </trkpt>
      <trkpt lat="48.45766" lon="0.00961">
        <ele>160.586648</ele>
        <time>2021-09-06T12:58:03.000Z</time>
      </trkpt>
      <trkpt lat="48.45774" lon="0.00983">
        <ele>160.328064</ele>
        <time>2021-09-06T12:58:07.000Z</time>
      </trkpt>
      <trkpt lat="48.45783" lon="0.00999">
        <ele>160.11988</ele>
        <time>2021-09-06T12:58:10.000Z</time>
      </trkpt>
      <trkpt lat="48.45793" lon="0.01019">
        <ele>159.855452</ele>
        <time>2021-09-06T12:58:14.000Z</time>
      </trkpt>
      <trkpt lat="48.45798" lon="0.0103">
        <ele>159.726894</ele>
        <time>2021-09-06T12:58:16.000Z</time>
      </trkpt>
      <trkpt lat="48.45799" lon="0.01036">
        <ele>159.663156</ele>
        <time>2021-09-06T12:58:17.000Z</time>
      </trkpt>
      <trkpt lat="48.458" lon="0.01042">
        <ele>159.603811</ele>
        <time>2021-09-06T12:58:18.000Z</time>
      </trkpt>
      <trkpt lat="48.45799" lon="0.01057">
        <ele>159.450531</ele>
        <time>2021-09-06T12:58:20.000Z</time>
      </trkpt>
      <trkpt lat="48.45796" lon="0.01072">
        <ele>159.280422</ele>
        <time>2021-09-06T12:58:22.000Z</time>
      </trkpt>
      <trkpt lat="48.45792" lon="0.01079">
        <ele>159.196042</ele>
        <time>2021-09-06T12:58:23.000Z</time>
      </trkpt>
      <trkpt lat="48.45787" lon="0.01081">
        <ele>159.114785</ele>
        <time>2021-09-06T12:58:24.000Z</time>
      </trkpt>
      <trkpt lat="48.45782" lon="0.0108">
        <ele>159.038286</ele>
        <time>2021-09-06T12:58:25.000Z</time>
      </trkpt>
      <trkpt lat="48.45778" lon="0.01077">
        <ele>158.967609</ele>
        <time>2021-09-06T12:58:26.000Z</time>
      </trkpt>
      <trkpt lat="48.45772" lon="0.01079">
        <ele>158.874859</ele>
        <time>2021-09-06T12:58:28.000Z</time>
      </trkpt>
      <trkpt lat="48.45771" lon="0.01089">
        <ele>158.77702</ele>
        <time>2021-09-06T12:58:30.000Z</time>
      </trkpt>
      <trkpt lat="48.45772" lon="0.01095">
        <ele>158.735446</ele>
        <time>2021-09-06T12:58:31.000Z</time>
      </trkpt>
      <trkpt lat="48.45774" lon="0.01134">
        <ele>158.496421</ele>
        <time>2021-09-06T12:58:36.000Z</time>
      </trkpt>
      <trkpt lat="48.45774" lon="0.01188">
        <ele>158.169238</ele>
        <time>2021-09-06T12:58:42.000Z</time>
      </trkpt>
      <trkpt lat="48.45772" lon="0.01252">
        <ele>157.778465</ele>
        <time>2021-09-06T12:58:49.000Z</time>
      </trkpt>
      <trkpt lat="48.45772" lon="0.0126">
        <ele>157.7267</ele>
        <time>2021-09-06T12:58:50.000Z</time>
      </trkpt>
      <trkpt lat="48.4577" lon="0.01295">
        <ele>157.51373</ele>
        <time>2021-09-06T12:58:54.000Z</time>
      </trkpt>
      <trkpt lat="48.45763" lon="0.01354">
        <ele>157.15241</ele>
        <time>2021-09-06T12:59:01.000Z</time>
      </trkpt>
      <trkpt lat="48.45755" lon="0.01409">
        <ele>156.797916</ele>
        <time>2021-09-06T12:59:07.000Z</time>
      </trkpt>
      <trkpt lat="48.45747" lon="0.01472">
        <ele>156.389039</ele>
        <time>2021-09-06T12:59:14.000Z</time>
      </trkpt>
      <trkpt lat="48.45742" lon="0.01516">
        <ele>156.108907</ele>
        <time>2021-09-06T12:59:19.000Z</time>
      </trkpt>
      <trkpt lat="48.45735" lon="0.01567">
        <ele>155.777368</ele>
        <time>2021-09-06T12:59:25.000Z</time>
      </trkpt>
      <trkpt lat="48.45734" lon="0.01583">
        <ele>155.676114</ele>
        <time>2021-09-06T12:59:27.000Z</time>
      </trkpt>
      <trkpt lat="48.45728" lon="0.01613">
        <ele>155.480193</ele>
        <time>2021-09-06T12:59:30.000Z</time>
      </trkpt>
      <trkpt lat="48.45716" lon="0.01696">
        <ele>155.0077</ele>
        <time>2021-09-06T12:59:39.000Z</time>
      </trkpt>
      <trkpt lat="48.45714" lon="0.01705">
        <ele>154.957638</ele>
        <time>2021-09-06T12:59:40.000Z</time>
      </trkpt>
      <trkpt lat="48.45704" lon="0.01778">
        <ele>154.559232</ele>
        <time>2021-09-06T12:59:48.000Z</time>
      </trkpt>
      <trkpt lat="48.45699" lon="0.01813">
        <ele>154.364752</ele>
        <time>2021-09-06T12:59:52.000Z</time>
      </trkpt>
      <trkpt lat="48.45697" lon="0.0183">
        <ele>154.273489</ele>
        <time>2021-09-06T12:59:54.000Z</time>
      </trkpt>
      <trkpt lat="48.45691" lon="0.01879">
        <ele>154.004537</ele>
        <time>2021-09-06T13:00:00.000Z</time>
      </trkpt>
      <trkpt lat="48.45686" lon="0.01929">
        <ele>153.947934</ele>
        <time>2021-09-06T13:00:06.000Z</time>
      </trkpt>
      <trkpt lat="48.45675" lon="0.01996">
        <ele>153.96411</ele>
        <time>2021-09-06T13:00:13.000Z</time>
      </trkpt>
      <trkpt lat="48.45667" lon="0.02058">
        <ele>153.97906</ele>
        <time>2021-09-06T13:00:20.000Z</time>
      </trkpt>
      <trkpt lat="48.4566" lon="0.02114">
        <ele>153.992533</ele>
        <time>2021-09-06T13:00:27.000Z</time>
      </trkpt>
      <trkpt lat="48.45659" lon="0.02129">
        <ele>153.99599</ele>
        <time>2021-09-06T13:00:29.000Z</time>
      </trkpt>
      <trkpt lat="48.45655" lon="0.02148">
        <ele>154.00058</ele>
        <time>2021-09-06T13:00:32.000Z</time>
      </trkpt>
      <trkpt lat="48.45653" lon="0.02161">
        <ele>154.016538</ele>
        <time>2021-09-06T13:00:34.000Z</time>
      </trkpt>
      <trkpt lat="48.4565" lon="0.0219">
        <ele>154.101463</ele>
        <time>2021-09-06T13:00:38.000Z</time>
      </trkpt>
      <trkpt lat="48.45646" lon="0.0222">
        <ele>154.189185</ele>
        <time>2021-09-06T13:00:42.000Z</time>
      </trkpt>
      <trkpt lat="48.45644" lon="0.02234">
        <ele>154.230693</ele>
        <time>2021-09-06T13:00:44.000Z</time>
      </trkpt>
      <trkpt lat="48.4564" lon="0.02263">
        <ele>154.316501</ele>
        <time>2021-09-06T13:00:48.000Z</time>
      </trkpt>
      <trkpt lat="48.45638" lon="0.02277">
        <ele>154.359227</ele>
        <time>2021-09-06T13:00:50.000Z</time>
      </trkpt>
      <trkpt lat="48.45636" lon="0.02292">
        <ele>154.401284</ele>
        <time>2021-09-06T13:00:52.000Z</time>
      </trkpt>
      <trkpt lat="48.45633" lon="0.02313">
        <ele>154.46454</ele>
        <time>2021-09-06T13:00:55.000Z</time>
      </trkpt>
      <trkpt lat="48.45633" lon="0.0232">
        <ele>154.485359</ele>
        <time>2021-09-06T13:00:56.000Z</time>
      </trkpt>
      <trkpt lat="48.4563" lon="0.02336">
        <ele>154.531746</ele>
        <time>2021-09-06T13:00:58.000Z</time>
      </trkpt>
      <trkpt lat="48.45629" lon="0.02344">
        <ele>154.554995</ele>
        <time>2021-09-06T13:00:59.000Z</time>
      </trkpt>
      <trkpt lat="48.45628" lon="0.02351">
        <ele>154.577964</ele>
        <time>2021-09-06T13:01:00.000Z</time>
      </trkpt>
      <trkpt lat="48.45623" lon="0.02381">
        <ele>154.666543</ele>
        <time>2021-09-06T13:01:04.000Z</time>
      </trkpt>
      <trkpt lat="48.45617" lon="0.02428">
        <ele>154.829264</ele>
        <time>2021-09-06T13:01:10.000Z</time>
      </trkpt>
      <trkpt lat="48.45608" lon="0.02492">
        <ele>155.311178</ele>
        <time>2021-09-06T13:01:19.000Z</time>
      </trkpt>
      <trkpt lat="48.45603" lon="0.02527">
        <ele>155.571812</ele>
        <time>2021-09-06T13:01:24.000Z</time>
      </trkpt>
      <trkpt lat="48.45602" lon="0.02539">
        <ele>155.662793</ele>
        <time>2021-09-06T13:01:26.000Z</time>
      </trkpt>
      <trkpt lat="48.45602" lon="0.02545">
        <ele>155.706112</ele>
        <time>2021-09-06T13:01:27.000Z</time>
      </trkpt>
      <trkpt lat="48.45601" lon="0.02558">
        <ele>155.802936</ele>
        <time>2021-09-06T13:01:29.000Z</time>
      </trkpt>
      <trkpt lat="48.45599" lon="0.02572">
        <ele>155.908663</ele>
        <time>2021-09-06T13:01:31.000Z</time>
      </trkpt>
      <trkpt lat="48.45592" lon="0.0262">
        <ele>156.268389</ele>
        <time>2021-09-06T13:01:38.000Z</time>
      </trkpt>
      <trkpt lat="48.45591" lon="0.02633">
        <ele>156.361932</ele>
        <time>2021-09-06T13:01:40.000Z</time>
      </trkpt>
      <trkpt lat="48.45588" lon="0.0266">
        <ele>156.561767</ele>
        <time>2021-09-06T13:01:44.000Z</time>
      </trkpt>
      <trkpt lat="48.4558" lon="0.02725">
        <ele>156.765152</ele>
        <time>2021-09-06T13:01:53.000Z</time>
      </trkpt>
      <trkpt lat="48.45572" lon="0.02786">
        <ele>156.748138</ele>
        <time>2021-09-06T13:02:01.000Z</time>
      </trkpt>
      <trkpt lat="48.45564" lon="0.02834">
        <ele>156.734626</ele>
        <time>2021-09-06T13:02:07.000Z</time>
      </trkpt>
      <trkpt lat="48.45564" lon="0.02841">
        <ele>156.732761</ele>
        <time>2021-09-06T13:02:08.000Z</time>
      </trkpt>
      <trkpt lat="48.45562" lon="0.02862">
        <ele>156.726971</ele>
        <time>2021-09-06T13:02:11.000Z</time>
      </trkpt>
      <trkpt lat="48.45561" lon="0.02869">
        <ele>156.724763</ele>
        <time>2021-09-06T13:02:12.000Z</time>
      </trkpt>
      <trkpt lat="48.45558" lon="0.02886">
        <ele>156.720044</ele>
        <time>2021-09-06T13:02:14.000Z</time>
      </trkpt>
      <trkpt lat="48.4555" lon="0.02927">
        <ele>156.708548</ele>
        <time>2021-09-06T13:02:19.000Z</time>
      </trkpt>
      <trkpt lat="48.4554" lon="0.02993">
        <ele>156.585207</ele>
        <time>2021-09-06T13:02:28.000Z</time>
      </trkpt>
      <trkpt lat="48.45534" lon="0.03044">
        <ele>156.437245</ele>
        <time>2021-09-06T13:02:35.000Z</time>
      </trkpt>
      <trkpt lat="48.45533" lon="0.03052">
        <ele>156.416295</ele>
        <time>2021-09-06T13:02:36.000Z</time>
      </trkpt>
      <trkpt lat="48.4553" lon="0.03082">
        <ele>156.33019</ele>
        <time>2021-09-06T13:02:40.000Z</time>
      </trkpt>
      <trkpt lat="48.45528" lon="0.03089">
        <ele>156.308817</ele>
        <time>2021-09-06T13:02:41.000Z</time>
      </trkpt>
      <trkpt lat="48.45527" lon="0.03096">
        <ele>156.2873</ele>
        <time>2021-09-06T13:02:42.000Z</time>
      </trkpt>
      <trkpt lat="48.45521" lon="0.03135">
        <ele>156.175323</ele>
        <time>2021-09-06T13:02:47.000Z</time>
      </trkpt>
      <trkpt lat="48.45513" lon="0.03191">
        <ele>156.013033</ele>
        <time>2021-09-06T13:02:54.000Z</time>
      </trkpt>
      <trkpt lat="48.45502" lon="0.03264">
        <ele>155.72776</ele>
        <time>2021-09-06T13:03:03.000Z</time>
      </trkpt>
      <trkpt lat="48.45499" lon="0.0328">
        <ele>155.657548</ele>
        <time>2021-09-06T13:03:05.000Z</time>
      </trkpt>
      <trkpt lat="48.45494" lon="0.03302">
        <ele>155.553138</ele>
        <time>2021-09-06T13:03:08.000Z</time>
      </trkpt>
      <trkpt lat="48.45489" lon="0.03332">
        <ele>155.41863</ele>
        <time>2021-09-06T13:03:12.000Z</time>
      </trkpt>
      <trkpt lat="48.45485" lon="0.03347">
        <ele>155.350638</ele>
        <time>2021-09-06T13:03:14.000Z</time>
      </trkpt>
      <trkpt lat="48.45469" lon="0.0341">
        <ele>155.056161</ele>
        <time>2021-09-06T13:03:22.000Z</time>
      </trkpt>
      <trkpt lat="48.45467" lon="0.03417">
        <ele>155.021684</ele>
        <time>2021-09-06T13:03:23.000Z</time>
      </trkpt>
      <trkpt lat="48.45456" lon="0.03454">
        <ele>154.842527</ele>
        <time>2021-09-06T13:03:28.000Z</time>
      </trkpt>
      <trkpt lat="48.45438" lon="0.03513">
        <ele>154.911477</ele>
        <time>2021-09-06T13:03:36.000Z</time>
      </trkpt>
      <trkpt lat="48.45429" lon="0.03542">
        <ele>155.029546</ele>
        <time>2021-09-06T13:03:40.000Z</time>
      </trkpt>
      <trkpt lat="48.45423" lon="0.03562">
        <ele>155.112306</ele>
        <time>2021-09-06T13:03:43.000Z</time>
      </trkpt>
      <trkpt lat="48.45418" lon="0.03574">
        <ele>155.16269</ele>
        <time>2021-09-06T13:03:45.000Z</time>
      </trkpt>
      <trkpt lat="48.45411" lon="0.0359">
        <ele>155.236556</ele>
        <time>2021-09-06T13:03:48.000Z</time>
      </trkpt>
      <trkpt lat="48.45392" lon="0.03638">
        <ele>155.443862</ele>
        <time>2021-09-06T13:03:55.000Z</time>
      </trkpt>
      <trkpt lat="48.45374" lon="0.03679">
        <ele>155.624359</ele>
        <time>2021-09-06T13:04:01.000Z</time>
      </trkpt>
      <trkpt lat="48.45349" lon="0.03734">
        <ele>155.917182</ele>
        <time>2021-09-06T13:04:09.000Z</time>
      </trkpt>
      <trkpt lat="48.45327" lon="0.03783">
        <ele>156.22138</ele>
        <time>2021-09-06T13:04:16.000Z</time>
      </trkpt>
      <trkpt lat="48.45308" lon="0.03825">
        <ele>156.483852</ele>
        <time>2021-09-06T13:04:22.000Z</time>
      </trkpt>
      <trkpt lat="48.4528" lon="0.03889">
        <ele>156.877582</ele>
        <time>2021-09-06T13:04:31.000Z</time>
      </trkpt>
      <trkpt lat="48.45262" lon="0.03931">
        <ele>157.136625</ele>
        <time>2021-09-06T13:04:37.000Z</time>
      </trkpt>
      <trkpt lat="48.45233" lon="0.03996">
        <ele>157.380888</ele>
        <time>2021-09-06T13:04:46.000Z</time>
      </trkpt>
      <trkpt lat="48.45211" lon="0.04047">
        <ele>157.568449</ele>
        <time>2021-09-06T13:04:53.000Z</time>
      </trkpt>
      <trkpt lat="48.45189" lon="0.04098">
        <ele>157.756279</ele>
        <time>2021-09-06T13:05:00.000Z</time>
      </trkpt>
      <trkpt lat="48.45163" lon="0.04162">
        <ele>157.986299</ele>
        <time>2021-09-06T13:05:09.000Z</time>
      </trkpt>
      <trkpt lat="48.45145" lon="0.04212">
        <ele>158.108339</ele>
        <time>2021-09-06T13:05:16.000Z</time>
      </trkpt>
      <trkpt lat="48.45126" lon="0.04272">
        <ele>158.249864</ele>
        <time>2021-09-06T13:05:24.000Z</time>
      </trkpt>
      <trkpt lat="48.45117" lon="0.04294">
        <ele>158.305068</ele>
        <time>2021-09-06T13:05:28.000Z</time>
      </trkpt>
      <trkpt lat="48.45108" lon="0.0433">
        <ele>158.388353</ele>
        <time>2021-09-06T13:05:34.000Z</time>
      </trkpt>
      <trkpt lat="48.45106" lon="0.04336">
        <ele>158.401433</ele>
        <time>2021-09-06T13:05:35.000Z</time>
      </trkpt>
      <trkpt lat="48.45102" lon="0.04347">
        <ele>158.42763</ele>
        <time>2021-09-06T13:05:37.000Z</time>
      </trkpt>
      <trkpt lat="48.451" lon="0.04352">
        <ele>158.440925</ele>
        <time>2021-09-06T13:05:38.000Z</time>
      </trkpt>
      <trkpt lat="48.45099" lon="0.04358">
        <ele>158.454825</ele>
        <time>2021-09-06T13:05:39.000Z</time>
      </trkpt>
      <trkpt lat="48.45096" lon="0.04371">
        <ele>158.484434</ele>
        <time>2021-09-06T13:05:41.000Z</time>
      </trkpt>
      <trkpt lat="48.45093" lon="0.04385">
        <ele>158.514142</ele>
        <time>2021-09-06T13:05:43.000Z</time>
      </trkpt>
      <trkpt lat="48.45085" lon="0.04427">
        <ele>158.632218</ele>
        <time>2021-09-06T13:05:50.000Z</time>
      </trkpt>
      <trkpt lat="48.4508" lon="0.04452">
        <ele>158.720199</ele>
        <time>2021-09-06T13:05:54.000Z</time>
      </trkpt>
      <trkpt lat="48.45078" lon="0.04466">
        <ele>158.767026</ele>
        <time>2021-09-06T13:05:56.000Z</time>
      </trkpt>
      <trkpt lat="48.45072" lon="0.04493">
        <ele>158.864722</ele>
        <time>2021-09-06T13:06:00.000Z</time>
      </trkpt>
      <trkpt lat="48.45069" lon="0.04507">
        <ele>158.913168</ele>
        <time>2021-09-06T13:06:02.000Z</time>
      </trkpt>
      <trkpt lat="48.45062" lon="0.04563">
        <ele>159.103124</ele>
        <time>2021-09-06T13:06:10.000Z</time>
      </trkpt>
      <trkpt lat="48.45058" lon="0.04597">
        <ele>159.216968</ele>
        <time>2021-09-06T13:06:15.000Z</time>
      </trkpt>
      <trkpt lat="48.45057" lon="0.04604">
        <ele>159.240103</ele>
        <time>2021-09-06T13:06:16.000Z</time>
      </trkpt>
      <trkpt lat="48.45052" lon="0.04641">
        <ele>159.368147</ele>
        <time>2021-09-06T13:06:22.000Z</time>
      </trkpt>
      <trkpt lat="48.4505" lon="0.04665">
        <ele>159.446743</ele>
        <time>2021-09-06T13:06:26.000Z</time>
      </trkpt>
      <trkpt lat="48.45047" lon="0.04705">
        <ele>159.586097</ele>
        <time>2021-09-06T13:06:32.000Z</time>
      </trkpt>
      <trkpt lat="48.45043" lon="0.04761">
        <ele>159.77755</ele>
        <time>2021-09-06T13:06:40.000Z</time>
      </trkpt>
      <trkpt lat="48.45041" lon="0.04794">
        <ele>159.890839</ele>
        <time>2021-09-06T13:06:45.000Z</time>
      </trkpt>
      <trkpt lat="48.4504" lon="0.04801">
        <ele>159.913748</ele>
        <time>2021-09-06T13:06:46.000Z</time>
      </trkpt>
      <trkpt lat="48.45037" lon="0.04833">
        <ele>160.024963</ele>
        <time>2021-09-06T13:06:51.000Z</time>
      </trkpt>
      <trkpt lat="48.45036" lon="0.04847">
        <ele>160.072101</ele>
        <time>2021-09-06T13:06:53.000Z</time>
      </trkpt>
      <trkpt lat="48.45032" lon="0.04894">
        <ele>160.233687</ele>
        <time>2021-09-06T13:07:00.000Z</time>
      </trkpt>
      <trkpt lat="48.45031" lon="0.04932">
        <ele>160.365051</ele>
        <time>2021-09-06T13:07:06.000Z</time>
      </trkpt>
      <trkpt lat="48.45026" lon="0.04985">
        <ele>160.511194</ele>
        <time>2021-09-06T13:07:14.000Z</time>
      </trkpt>
      <trkpt lat="48.45021" lon="0.05044">
        <ele>160.665327</ele>
        <time>2021-09-06T13:07:23.000Z</time>
      </trkpt>
      <trkpt lat="48.45016" lon="0.05104">
        <ele>160.82335</ele>
        <time>2021-09-06T13:07:32.000Z</time>
      </trkpt>
      <trkpt lat="48.45012" lon="0.05135">
        <ele>160.904959</ele>
        <time>2021-09-06T13:07:37.000Z</time>
      </trkpt>
      <trkpt lat="48.45011" lon="0.05175">
        <ele>161.009639</ele>
        <time>2021-09-06T13:07:43.000Z</time>
      </trkpt>
      <trkpt lat="48.4501" lon="0.05182">
        <ele>161.028074</ele>
        <time>2021-09-06T13:07:44.000Z</time>
      </trkpt>
      <trkpt lat="48.45008" lon="0.05197">
        <ele>161.065847</ele>
        <time>2021-09-06T13:07:46.000Z</time>
      </trkpt>
      <trkpt lat="48.45007" lon="0.05212">
        <ele>161.091132</ele>
        <time>2021-09-06T13:07:48.000Z</time>
      </trkpt>
      <trkpt lat="48.45005" lon="0.05251">
        <ele>160.962862</ele>
        <time>2021-09-06T13:07:53.000Z</time>
      </trkpt>
      <trkpt lat="48.45004" lon="0.05259">
        <ele>160.937539</ele>
        <time>2021-09-06T13:07:54.000Z</time>
      </trkpt>
      <trkpt lat="48.45001" lon="0.05307">
        <ele>160.781152</ele>
        <time>2021-09-06T13:08:00.000Z</time>
      </trkpt>
      <trkpt lat="48.45001" lon="0.05315">
        <ele>160.755848</ele>
        <time>2021-09-06T13:08:01.000Z</time>
      </trkpt>
      <trkpt lat="48.45" lon="0.05338">
        <ele>160.681327</ele>
        <time>2021-09-06T13:08:04.000Z</time>
      </trkpt>
      <trkpt lat="48.44993" lon="0.05394">
        <ele>160.496172</ele>
        <time>2021-09-06T13:08:11.000Z</time>
      </trkpt>
      <trkpt lat="48.4499" lon="0.05437">
        <ele>160.353596</ele>
        <time>2021-09-06T13:08:16.000Z</time>
      </trkpt>
      <trkpt lat="48.4499" lon="0.05445">
        <ele>160.328897</ele>
        <time>2021-09-06T13:08:17.000Z</time>
      </trkpt>
      <trkpt lat="48.44988" lon="0.05491">
        <ele>160.13809</ele>
        <time>2021-09-06T13:08:23.000Z</time>
      </trkpt>
      <trkpt lat="48.44988" lon="0.05504">
        <ele>160.056017</ele>
        <time>2021-09-06T13:08:24.000Z</time>
      </trkpt>
      <trkpt lat="48.44986" lon="0.05541">
        <ele>159.81796</ele>
        <time>2021-09-06T13:08:28.000Z</time>
      </trkpt>
      <trkpt lat="48.44981" lon="0.05593">
        <ele>159.482674</ele>
        <time>2021-09-06T13:08:34.000Z</time>
      </trkpt>
      <trkpt lat="48.44977" lon="0.05655">
        <ele>159.087133</ele>
        <time>2021-09-06T13:08:41.000Z</time>
      </trkpt>
      <trkpt lat="48.44974" lon="0.05682">
        <ele>158.910141</ele>
        <time>2021-09-06T13:08:44.000Z</time>
      </trkpt>
      <trkpt lat="48.44972" lon="0.057">
        <ele>158.794256</ele>
        <time>2021-09-06T13:08:46.000Z</time>
      </trkpt>
      <trkpt lat="48.44971" lon="0.05708">
        <ele>158.742266</ele>
        <time>2021-09-06T13:08:47.000Z</time>
      </trkpt>
      <trkpt lat="48.4497" lon="0.05725">
        <ele>158.634109</ele>
        <time>2021-09-06T13:08:49.000Z</time>
      </trkpt>
      <trkpt lat="48.44969" lon="0.05733">
        <ele>158.577592</ele>
        <time>2021-09-06T13:08:50.000Z</time>
      </trkpt>
      <trkpt lat="48.44963" lon="0.05803">
        <ele>157.979366</ele>
        <time>2021-09-06T13:08:58.000Z</time>
      </trkpt>
      <trkpt lat="48.44962" lon="0.05811">
        <ele>157.911003</ele>
        <time>2021-09-06T13:08:59.000Z</time>
      </trkpt>
      <trkpt lat="48.44961" lon="0.05826">
        <ele>157.77131</ele>
        <time>2021-09-06T13:09:01.000Z</time>
      </trkpt>
      <trkpt lat="48.4496" lon="0.05843">
        <ele>157.620044</ele>
        <time>2021-09-06T13:09:03.000Z</time>
      </trkpt>
      <trkpt lat="48.44959" lon="0.05859">
        <ele>157.471406</ele>
        <time>2021-09-06T13:09:05.000Z</time>
      </trkpt>
      <trkpt lat="48.44958" lon="0.05905">
        <ele>157.051021</ele>
        <time>2021-09-06T13:09:11.000Z</time>
      </trkpt>
      <trkpt lat="48.44953" lon="0.05962">
        <ele>156.530444</ele>
        <time>2021-09-06T13:09:18.000Z</time>
      </trkpt>
      <trkpt lat="48.44952" lon="0.05971">
        <ele>156.454769</ele>
        <time>2021-09-06T13:09:19.000Z</time>
      </trkpt>
      <trkpt lat="48.4495" lon="0.06005">
        <ele>156.143571</ele>
        <time>2021-09-06T13:09:23.000Z</time>
      </trkpt>
      <trkpt lat="48.44945" lon="0.0606">
        <ele>155.572076</ele>
        <time>2021-09-06T13:09:29.000Z</time>
      </trkpt>
      <trkpt lat="48.44938" lon="0.06137">
        <ele>154.741432</ele>
        <time>2021-09-06T13:09:38.000Z</time>
      </trkpt>
      <trkpt lat="48.44938" lon="0.06153">
        <ele>154.573236</ele>
        <time>2021-09-06T13:09:40.000Z</time>
      </trkpt>
      <trkpt lat="48.44937" lon="0.06183">
        <ele>154.249386</ele>
        <time>2021-09-06T13:09:44.000Z</time>
      </trkpt>
      <trkpt lat="48.44934" lon="0.06209">
        <ele>153.970073</ele>
        <time>2021-09-06T13:09:48.000Z</time>
      </trkpt>
      <trkpt lat="48.44933" lon="0.06222">
        <ele>153.825144</ele>
        <time>2021-09-06T13:09:50.000Z</time>
      </trkpt>
      <trkpt lat="48.4493" lon="0.0627">
        <ele>153.317894</ele>
        <time>2021-09-06T13:09:56.000Z</time>
      </trkpt>
      <trkpt lat="48.44929" lon="0.06278">
        <ele>153.225066</ele>
        <time>2021-09-06T13:09:57.000Z</time>
      </trkpt>
      <trkpt lat="48.44918" lon="0.06356">
        <ele>152.278035</ele>
        <time>2021-09-06T13:10:06.000Z</time>
      </trkpt>
      <trkpt lat="48.44909" lon="0.06414">
        <ele>151.557222</ele>
        <time>2021-09-06T13:10:13.000Z</time>
      </trkpt>
      <trkpt lat="48.44908" lon="0.06422">
        <ele>151.459258</ele>
        <time>2021-09-06T13:10:14.000Z</time>
      </trkpt>
      <trkpt lat="48.44906" lon="0.06438">
        <ele>151.26481</ele>
        <time>2021-09-06T13:10:16.000Z</time>
      </trkpt>
      <trkpt lat="48.44905" lon="0.06446">
        <ele>151.169194</ele>
        <time>2021-09-06T13:10:17.000Z</time>
      </trkpt>
      <trkpt lat="48.449" lon="0.06487">
        <ele>150.663047</ele>
        <time>2021-09-06T13:10:22.000Z</time>
      </trkpt>
      <trkpt lat="48.44888" lon="0.06557">
        <ele>149.812609</ele>
        <time>2021-09-06T13:10:30.000Z</time>
      </trkpt>
      <trkpt lat="48.44877" lon="0.0662">
        <ele>149.126685</ele>
        <time>2021-09-06T13:10:37.000Z</time>
      </trkpt>
      <trkpt lat="48.44867" lon="0.06682">
        <ele>148.446735</ele>
        <time>2021-09-06T13:10:44.000Z</time>
      </trkpt>
      <trkpt lat="48.4486" lon="0.06729">
        <ele>147.941522</ele>
        <time>2021-09-06T13:10:50.000Z</time>
      </trkpt>
      <trkpt lat="48.44852" lon="0.06774">
        <ele>147.451574</ele>
        <time>2021-09-06T13:10:56.000Z</time>
      </trkpt>
      <trkpt lat="48.4485" lon="0.0679">
        <ele>147.284184</ele>
        <time>2021-09-06T13:10:58.000Z</time>
      </trkpt>
      <trkpt lat="48.44848" lon="0.06805">
        <ele>147.123009</ele>
        <time>2021-09-06T13:11:00.000Z</time>
      </trkpt>
      <trkpt lat="48.44844" lon="0.06839">
        <ele>146.730904</ele>
        <time>2021-09-06T13:11:05.000Z</time>
      </trkpt>
      <trkpt lat="48.44842" lon="0.06844">
        <ele>146.659275</ele>
        <time>2021-09-06T13:11:06.000Z</time>
      </trkpt>
      <trkpt lat="48.44837" lon="0.06874">
        <ele>146.301062</ele>
        <time>2021-09-06T13:11:11.000Z</time>
      </trkpt>
      <trkpt lat="48.44828" lon="0.06929">
        <ele>145.648363</ele>
        <time>2021-09-06T13:11:18.000Z</time>
      </trkpt>
      <trkpt lat="48.44821" lon="0.06967">
        <ele>145.184064</ele>
        <time>2021-09-06T13:11:23.000Z</time>
      </trkpt>
      <trkpt lat="48.4482" lon="0.06974">
        <ele>145.100303</ele>
        <time>2021-09-06T13:11:24.000Z</time>
      </trkpt>
      <trkpt lat="48.44815" lon="0.0701">
        <ele>144.675152</ele>
        <time>2021-09-06T13:11:29.000Z</time>
      </trkpt>
      <trkpt lat="48.44813" lon="0.07017">
        <ele>144.586267</ele>
        <time>2021-09-06T13:11:30.000Z</time>
      </trkpt>
      <trkpt lat="48.44807" lon="0.07066">
        <ele>144.013847</ele>
        <time>2021-09-06T13:11:36.000Z</time>
      </trkpt>
      <trkpt lat="48.44801" lon="0.07109">
        <ele>143.810691</ele>
        <time>2021-09-06T13:11:41.000Z</time>
      </trkpt>
      <trkpt lat="48.44787" lon="0.07181">
        <ele>143.680818</ele>
        <time>2021-09-06T13:11:49.000Z</time>
      </trkpt>
      <trkpt lat="48.44776" lon="0.07246">
        <ele>143.565545</ele>
        <time>2021-09-06T13:11:57.000Z</time>
      </trkpt>
      <trkpt lat="48.44775" lon="0.07253">
        <ele>143.553426</ele>
        <time>2021-09-06T13:11:58.000Z</time>
      </trkpt>
      <trkpt lat="48.44772" lon="0.07273">
        <ele>143.518859</ele>
        <time>2021-09-06T13:12:01.000Z</time>
      </trkpt>
      <trkpt lat="48.44771" lon="0.07279">
        <ele>143.508197</ele>
        <time>2021-09-06T13:12:02.000Z</time>
      </trkpt>
      <trkpt lat="48.44767" lon="0.07306">
        <ele>143.459898</ele>
        <time>2021-09-06T13:12:08.000Z</time>
      </trkpt>
      <trkpt lat="48.44763" lon="0.07335">
        <ele>143.40919</ele>
        <time>2021-09-06T13:12:15.000Z</time>
      </trkpt>
      <trkpt lat="48.4476" lon="0.07352">
        <ele>143.480816</ele>
        <time>2021-09-06T13:12:21.000Z</time>
      </trkpt>
      <trkpt lat="48.44757" lon="0.07374">
        <ele>143.641497</ele>
        <time>2021-09-06T13:12:26.000Z</time>
      </trkpt>
      <trkpt lat="48.44751" lon="0.0741">
        <ele>143.906725</ele>
        <time>2021-09-06T13:12:33.000Z</time>
      </trkpt>
      <trkpt lat="48.44744" lon="0.07452">
        <ele>144.223961</ele>
        <time>2021-09-06T13:12:40.000Z</time>
      </trkpt>
      <trkpt lat="48.44738" lon="0.07491">
        <ele>144.514708</ele>
        <time>2021-09-06T13:12:46.000Z</time>
      </trkpt>
      <trkpt lat="48.44736" lon="0.07504">
        <ele>144.612036</ele>
        <time>2021-09-06T13:12:48.000Z</time>
      </trkpt>
      <trkpt lat="48.44727" lon="0.07557">
        <ele>145.00979</ele>
        <time>2021-09-06T13:12:56.000Z</time>
      </trkpt>
      <trkpt lat="48.44718" lon="0.0761">
        <ele>145.423029</ele>
        <time>2021-09-06T13:13:04.000Z</time>
      </trkpt>
      <trkpt lat="48.44709" lon="0.07671">
        <ele>146.021676</ele>
        <time>2021-09-06T13:13:13.000Z</time>
      </trkpt>
      <trkpt lat="48.44702" lon="0.07717">
        <ele>146.483976</ele>
        <time>2021-09-06T13:13:20.000Z</time>
      </trkpt>
      <trkpt lat="48.44696" lon="0.07749">
        <ele>146.806588</ele>
        <time>2021-09-06T13:13:25.000Z</time>
      </trkpt>
      <trkpt lat="48.44694" lon="0.07755">
        <ele>146.868584</ele>
        <time>2021-09-06T13:13:26.000Z</time>
      </trkpt>
      <trkpt lat="48.4469" lon="0.07788">
        <ele>147.191148</ele>
        <time>2021-09-06T13:13:32.000Z</time>
      </trkpt>
      <trkpt lat="48.44684" lon="0.07809">
        <ele>147.410722</ele>
        <time>2021-09-06T13:13:37.000Z</time>
      </trkpt>
      <trkpt lat="48.44673" lon="0.07825">
        <ele>147.639486</ele>
        <time>2021-09-06T13:13:41.000Z</time>
      </trkpt>
      <trkpt lat="48.44645" lon="0.07862">
        <ele>148.025583</ele>
        <time>2021-09-06T13:13:48.000Z</time>
      </trkpt>
      <trkpt lat="48.44611" lon="0.07903">
        <ele>148.159569</ele>
        <time>2021-09-06T13:13:55.000Z</time>
      </trkpt>
      <trkpt lat="48.44564" lon="0.07952">
        <ele>148.332104</ele>
        <time>2021-09-06T13:14:03.000Z</time>
      </trkpt>
      <trkpt lat="48.44559" lon="0.07958">
        <ele>148.35381</ele>
        <time>2021-09-06T13:14:04.000Z</time>
      </trkpt>
      <trkpt lat="48.44511" lon="0.08003">
        <ele>148.524357</ele>
        <time>2021-09-06T13:14:12.000Z</time>
      </trkpt>
      <trkpt lat="48.44505" lon="0.08008">
        <ele>148.531634</ele>
        <time>2021-09-06T13:14:13.000Z</time>
      </trkpt>
      <trkpt lat="48.44458" lon="0.08037">
        <ele>148.479135</ele>
        <time>2021-09-06T13:14:21.000Z</time>
      </trkpt>
      <trkpt lat="48.44423" lon="0.08055">
        <ele>148.441318</ele>
        <time>2021-09-06T13:14:27.000Z</time>
      </trkpt>
      <trkpt lat="48.44376" lon="0.08078">
        <ele>148.391355</ele>
        <time>2021-09-06T13:14:35.000Z</time>
      </trkpt>
      <trkpt lat="48.4433" lon="0.08096">
        <ele>148.314961</ele>
        <time>2021-09-06T13:14:43.000Z</time>
      </trkpt>
      <trkpt lat="48.44282" lon="0.08112">
        <ele>148.107646</ele>
        <time>2021-09-06T13:14:51.000Z</time>
      </trkpt>
      <trkpt lat="48.44243" lon="0.08126">
        <ele>147.939879</ele>
        <time>2021-09-06T13:14:58.000Z</time>
      </trkpt>
      <trkpt lat="48.44203" lon="0.08141">
        <ele>147.765287</ele>
        <time>2021-09-06T13:15:05.000Z</time>
      </trkpt>
      <trkpt lat="48.44169" lon="0.08153">
        <ele>147.615182</ele>
        <time>2021-09-06T13:15:11.000Z</time>
      </trkpt>
      <trkpt lat="48.44124" lon="0.08168">
        <ele>147.435396</ele>
        <time>2021-09-06T13:15:19.000Z</time>
      </trkpt>
      <trkpt lat="48.44085" lon="0.08184">
        <ele>147.276658</ele>
        <time>2021-09-06T13:15:26.000Z</time>
      </trkpt>
      <trkpt lat="48.44044" lon="0.08206">
        <ele>147.107636</ele>
        <time>2021-09-06T13:15:33.000Z</time>
      </trkpt>
      <trkpt lat="48.43995" lon="0.08241">
        <ele>146.895884</ele>
        <time>2021-09-06T13:15:42.000Z</time>
      </trkpt>
      <trkpt lat="48.43963" lon="0.08267">
        <ele>146.711648</ele>
        <time>2021-09-06T13:15:48.000Z</time>
      </trkpt>
      <trkpt lat="48.43927" lon="0.08297">
        <ele>146.500568</ele>
        <time>2021-09-06T13:15:55.000Z</time>
      </trkpt>
      <trkpt lat="48.43908" lon="0.08313">
        <ele>146.391187</ele>
        <time>2021-09-06T13:15:59.000Z</time>
      </trkpt>
      <trkpt lat="48.43904" lon="0.08315">
        <ele>146.370484</ele>
        <time>2021-09-06T13:16:00.000Z</time>
      </trkpt>
      <trkpt lat="48.43887" lon="0.08322">
        <ele>146.279844</ele>
        <time>2021-09-06T13:16:05.000Z</time>
      </trkpt>
      <trkpt lat="48.43885" lon="0.08326">
        <ele>146.26084</ele>
        <time>2021-09-06T13:16:06.000Z</time>
      </trkpt>
      <trkpt lat="48.43882" lon="0.0834">
        <ele>146.214196</ele>
        <time>2021-09-06T13:16:08.000Z</time>
      </trkpt>
      <trkpt lat="48.43882" lon="0.08354">
        <ele>146.164626</ele>
        <time>2021-09-06T13:16:10.000Z</time>
      </trkpt>
      <trkpt lat="48.43879" lon="0.08369">
        <ele>146.112433</ele>
        <time>2021-09-06T13:16:12.000Z</time>
      </trkpt>
      <trkpt lat="48.43863" lon="0.08426">
        <ele>145.934844</ele>
        <time>2021-09-06T13:16:20.000Z</time>
      </trkpt>
      <trkpt lat="48.43848" lon="0.08483">
        <ele>145.82868</ele>
        <time>2021-09-06T13:16:28.000Z</time>
      </trkpt>
      <trkpt lat="48.4383" lon="0.08549">
        <ele>145.705407</ele>
        <time>2021-09-06T13:16:37.000Z</time>
      </trkpt>
      <trkpt lat="48.4382" lon="0.08584">
        <ele>145.639505</ele>
        <time>2021-09-06T13:16:42.000Z</time>
      </trkpt>
      <trkpt lat="48.43816" lon="0.08597">
        <ele>145.615022</ele>
        <time>2021-09-06T13:16:44.000Z</time>
      </trkpt>
      <trkpt lat="48.43809" lon="0.08618">
        <ele>145.574733</ele>
        <time>2021-09-06T13:16:49.000Z</time>
      </trkpt>
      <trkpt lat="48.43809" lon="0.08619">
        <ele>145.572592</ele>
        <time>2021-09-06T13:16:52.000Z</time>
      </trkpt>
      <trkpt lat="48.43808" lon="0.08623">
        <ele>145.565608</ele>
        <time>2021-09-06T13:17:00.000Z</time>
      </trkpt>
      <trkpt lat="48.43802" lon="0.08642">
        <ele>145.529769</ele>
        <time>2021-09-06T13:17:06.000Z</time>
      </trkpt>
      <trkpt lat="48.43791" lon="0.08668">
        <ele>145.430264</ele>
        <time>2021-09-06T13:17:13.000Z</time>
      </trkpt>
      <trkpt lat="48.43777" lon="0.08694">
        <ele>145.280798</ele>
        <time>2021-09-06T13:17:19.000Z</time>
      </trkpt>
      <trkpt lat="48.43758" lon="0.0873">
        <ele>145.069637</ele>
        <time>2021-09-06T13:17:27.000Z</time>
      </trkpt>
      <trkpt lat="48.4374" lon="0.08767">
        <ele>144.860091</ele>
        <time>2021-09-06T13:17:35.000Z</time>
      </trkpt>
      <trkpt lat="48.43733" lon="0.08779">
        <ele>144.784962</ele>
        <time>2021-09-06T13:17:39.000Z</time>
      </trkpt>
      <trkpt lat="48.43731" lon="0.0878">
        <ele>144.771658</ele>
        <time>2021-09-06T13:17:40.000Z</time>
      </trkpt>
      <trkpt lat="48.43729" lon="0.08779">
        <ele>144.75426</ele>
        <time>2021-09-06T13:17:42.000Z</time>
      </trkpt>
      <trkpt lat="48.43724" lon="0.08773">
        <ele>144.710222</ele>
        <time>2021-09-06T13:17:45.000Z</time>
      </trkpt>
      <trkpt lat="48.43717" lon="0.08762">
        <ele>144.642661</ele>
        <time>2021-09-06T13:17:49.000Z</time>
      </trkpt>
      <trkpt lat="48.43711" lon="0.08746">
        <ele>144.557007</ele>
        <time>2021-09-06T13:17:55.000Z</time>
      </trkpt>
      <trkpt lat="48.43707" lon="0.08737">
        <ele>144.509455</ele>
        <time>2021-09-06T13:17:59.000Z</time>
      </trkpt>
      <trkpt lat="48.43706" lon="0.08737">
        <ele>144.499735</ele>
        <time>2021-09-06T13:18:01.000Z</time>
      </trkpt>
      <trkpt lat="48.43708" lon="0.08745">
        <ele>144.461289</ele>
        <time>2021-09-06T13:43:45.000Z</time>
      </trkpt>
      <trkpt lat="48.4371" lon="0.08753">
        <ele>144.423167</ele>
        <time>2021-09-06T13:43:47.000Z</time>
      </trkpt>
      <trkpt lat="48.43721" lon="0.0877">
        <ele>144.315487</ele>
        <time>2021-09-06T13:43:52.000Z</time>
      </trkpt>
      <trkpt lat="48.43727" lon="0.08784">
        <ele>144.256857</ele>
        <time>2021-09-06T13:43:56.000Z</time>
      </trkpt>
      <trkpt lat="48.43726" lon="0.08791">
        <ele>144.262487</ele>
        <time>2021-09-06T13:43:59.000Z</time>
      </trkpt>
      <trkpt lat="48.43724" lon="0.08794">
        <ele>144.265488</ele>
        <time>2021-09-06T13:44:00.000Z</time>
      </trkpt>
      <trkpt lat="48.43712" lon="0.08819">
        <ele>144.288877</ele>
        <time>2021-09-06T13:44:05.000Z</time>
      </trkpt>
      <trkpt lat="48.43688" lon="0.08863">
        <ele>144.332096</ele>
        <time>2021-09-06T13:44:13.000Z</time>
      </trkpt>
      <trkpt lat="48.43661" lon="0.08917">
        <ele>144.383939</ele>
        <time>2021-09-06T13:44:22.000Z</time>
      </trkpt>
      <trkpt lat="48.43635" lon="0.08966">
        <ele>144.430862</ele>
        <time>2021-09-06T13:44:30.000Z</time>
      </trkpt>
      <trkpt lat="48.43605" lon="0.09021">
        <ele>144.653723</ele>
        <time>2021-09-06T13:44:39.000Z</time>
      </trkpt>
      <trkpt lat="48.43578" lon="0.09072">
        <ele>145.030233</ele>
        <time>2021-09-06T13:44:47.000Z</time>
      </trkpt>
      <trkpt lat="48.43552" lon="0.09122">
        <ele>145.406829</ele>
        <time>2021-09-06T13:44:55.000Z</time>
      </trkpt>
      <trkpt lat="48.43538" lon="0.09143">
        <ele>145.571589</ele>
        <time>2021-09-06T13:45:00.000Z</time>
      </trkpt>
      <trkpt lat="48.43537" lon="0.09143">
        <ele>145.582034</ele>
        <time>2021-09-06T13:45:03.000Z</time>
      </trkpt>
      <trkpt lat="48.43536" lon="0.09145">
        <ele>145.597111</ele>
        <time>2021-09-06T13:45:13.000Z</time>
      </trkpt>
      <trkpt lat="48.43525" lon="0.09164">
        <ele>145.739696</ele>
        <time>2021-09-06T13:45:18.000Z</time>
      </trkpt>
      <trkpt lat="48.43517" lon="0.0918">
        <ele>145.858264</ele>
        <time>2021-09-06T13:45:21.000Z</time>
      </trkpt>
      <trkpt lat="48.43511" lon="0.09192">
        <ele>145.947623</ele>
        <time>2021-09-06T13:45:23.000Z</time>
      </trkpt>
      <trkpt lat="48.435" lon="0.09217">
        <ele>146.097431</ele>
        <time>2021-09-06T13:45:27.000Z</time>
      </trkpt>
      <trkpt lat="48.43497" lon="0.09223">
        <ele>146.131289</ele>
        <time>2021-09-06T13:45:28.000Z</time>
      </trkpt>
      <trkpt lat="48.43493" lon="0.09228">
        <ele>146.165476</ele>
        <time>2021-09-06T13:45:29.000Z</time>
      </trkpt>
      <trkpt lat="48.43479" lon="0.09256">
        <ele>146.316766</ele>
        <time>2021-09-06T13:45:33.000Z</time>
      </trkpt>
      <trkpt lat="48.43457" lon="0.093">
        <ele>146.559906</ele>
        <time>2021-09-06T13:45:39.000Z</time>
      </trkpt>
      <trkpt lat="48.43439" lon="0.09333">
        <ele>146.743965</ele>
        <time>2021-09-06T13:45:44.000Z</time>
      </trkpt>
      <trkpt lat="48.43434" lon="0.09341">
        <ele>146.793905</ele>
        <time>2021-09-06T13:45:46.000Z</time>
      </trkpt>
      <trkpt lat="48.43427" lon="0.09345">
        <ele>146.844196</ele>
        <time>2021-09-06T13:45:50.000Z</time>
      </trkpt>
      <trkpt lat="48.43413" lon="0.09353">
        <ele>146.942939</ele>
        <time>2021-09-06T13:45:54.000Z</time>
      </trkpt>
      <trkpt lat="48.43406" lon="0.09362">
        <ele>147.001936</ele>
        <time>2021-09-06T13:45:56.000Z</time>
      </trkpt>
      <trkpt lat="48.43403" lon="0.09374">
        <ele>147.05868</ele>
        <time>2021-09-06T13:45:58.000Z</time>
      </trkpt>
      <trkpt lat="48.43405" lon="0.09387">
        <ele>147.117633</ele>
        <time>2021-09-06T13:46:00.000Z</time>
      </trkpt>
      <trkpt lat="48.43408" lon="0.09392">
        <ele>147.148955</ele>
        <time>2021-09-06T13:46:01.000Z</time>
      </trkpt>
      <trkpt lat="48.43413" lon="0.09395">
        <ele>147.182545</ele>
        <time>2021-09-06T13:46:02.000Z</time>
      </trkpt>
      <trkpt lat="48.43423" lon="0.09396">
        <ele>147.23052</ele>
        <time>2021-09-06T13:46:04.000Z</time>
      </trkpt>
      <trkpt lat="48.43432" lon="0.09391">
        <ele>147.252956</ele>
        <time>2021-09-06T13:46:06.000Z</time>
      </trkpt>
      <trkpt lat="48.43441" lon="0.09387">
        <ele>147.273994</ele>
        <time>2021-09-06T13:46:08.000Z</time>
      </trkpt>
      <trkpt lat="48.4345" lon="0.09383">
        <ele>147.295228</ele>
        <time>2021-09-06T13:46:11.000Z</time>
      </trkpt>
      <trkpt lat="48.43452" lon="0.09387">
        <ele>147.304562</ele>
        <time>2021-09-06T13:46:13.000Z</time>
      </trkpt>
      <trkpt lat="48.43452" lon="0.09391">
        <ele>147.309844</ele>
        <time>2021-09-06T13:46:14.000Z</time>
      </trkpt>
      <trkpt lat="48.43442" lon="0.09414">
        <ele>147.352165</ele>
        <time>2021-09-06T13:46:19.000Z</time>
      </trkpt>
      <trkpt lat="48.43433" lon="0.09427">
        <ele>147.379875</ele>
        <time>2021-09-06T13:46:23.000Z</time>
      </trkpt>
      <trkpt lat="48.43432" lon="0.0943">
        <ele>147.385762</ele>
        <time>2021-09-06T13:46:26.000Z</time>
      </trkpt>
      <trkpt lat="48.43428" lon="0.09434">
        <ele>147.396448</ele>
        <time>2021-09-06T13:46:31.000Z</time>
      </trkpt>
      <trkpt lat="48.43426" lon="0.09435">
        <ele>147.400843</ele>
        <time>2021-09-06T13:46:32.000Z</time>
      </trkpt>
      <trkpt lat="48.43422" lon="0.09441">
        <ele>147.414218</ele>
        <time>2021-09-06T13:46:36.000Z</time>
      </trkpt>
      <trkpt lat="48.43422" lon="0.09442">
        <ele>147.416666</ele>
        <time>2021-09-06T13:46:38.000Z</time>
      </trkpt>
      <trkpt lat="48.43424" lon="0.09452">
        <ele>147.432755</ele>
        <time>2021-09-06T13:46:43.000Z</time>
      </trkpt>
      <trkpt lat="48.43432" lon="0.09464">
        <ele>147.459101</ele>
        <time>2021-09-06T13:46:47.000Z</time>
      </trkpt>
      <trkpt lat="48.43446" lon="0.0949">
        <ele>147.509554</ele>
        <time>2021-09-06T13:46:52.000Z</time>
      </trkpt>
      <trkpt lat="48.43472" lon="0.09539">
        <ele>147.606314</ele>
        <time>2021-09-06T13:47:00.000Z</time>
      </trkpt>
      <trkpt lat="48.43499" lon="0.09592">
        <ele>147.798157</ele>
        <time>2021-09-06T13:47:08.000Z</time>
      </trkpt>
      <trkpt lat="48.43522" lon="0.09639">
        <ele>148.000997</ele>
        <time>2021-09-06T13:47:15.000Z</time>
      </trkpt>
      <trkpt lat="48.43548" lon="0.09695">
        <ele>148.2336</ele>
        <time>2021-09-06T13:47:23.000Z</time>
      </trkpt>
      <trkpt lat="48.43563" lon="0.09726">
        <ele>148.365056</ele>
        <time>2021-09-06T13:47:28.000Z</time>
      </trkpt>
      <trkpt lat="48.43566" lon="0.09731">
        <ele>148.388374</ele>
        <time>2021-09-06T13:47:29.000Z</time>
      </trkpt>
      <trkpt lat="48.43585" lon="0.09767">
        <ele>148.5495</ele>
        <time>2021-09-06T13:47:37.000Z</time>
      </trkpt>
      <trkpt lat="48.43603" lon="0.09801">
        <ele>148.429128</ele>
        <time>2021-09-06T13:47:45.000Z</time>
      </trkpt>
      <trkpt lat="48.43618" lon="0.09831">
        <ele>148.295581</ele>
        <time>2021-09-06T13:47:52.000Z</time>
      </trkpt>
      <trkpt lat="48.43632" lon="0.0986">
        <ele>148.170194</ele>
        <time>2021-09-06T13:47:58.000Z</time>
      </trkpt>
      <trkpt lat="48.43645" lon="0.09882">
        <ele>148.062114</ele>
        <time>2021-09-06T13:48:03.000Z</time>
      </trkpt>
      <trkpt lat="48.43651" lon="0.09877">
        <ele>148.026971</ele>
        <time>2021-09-06T13:48:06.000Z</time>
      </trkpt>
      <trkpt lat="48.4366" lon="0.09866">
        <ele>147.966721</ele>
        <time>2021-09-06T13:48:10.000Z</time>
      </trkpt>
      <trkpt lat="48.43682" lon="0.09857">
        <ele>147.844264</ele>
        <time>2021-09-06T13:48:14.000Z</time>
      </trkpt>
      <trkpt lat="48.43694" lon="0.09856">
        <ele>147.77747</ele>
        <time>2021-09-06T13:48:16.000Z</time>
      </trkpt>
      <trkpt lat="48.43712" lon="0.09854">
        <ele>147.681172</ele>
        <time>2021-09-06T13:48:19.000Z</time>
      </trkpt>
      <trkpt lat="48.4375" lon="0.09847">
        <ele>147.393987</ele>
        <time>2021-09-06T13:48:25.000Z</time>
      </trkpt>
      <trkpt lat="48.43756" lon="0.09846">
        <ele>147.336088</ele>
        <time>2021-09-06T13:48:26.000Z</time>
      </trkpt>
      <trkpt lat="48.43775" lon="0.09844">
        <ele>147.165505</ele>
        <time>2021-09-06T13:48:29.000Z</time>
      </trkpt>
      <trkpt lat="48.43781" lon="0.09844">
        <ele>147.110546</ele>
        <time>2021-09-06T13:48:30.000Z</time>
      </trkpt>
      <trkpt lat="48.43824" lon="0.09842">
        <ele>146.722117</ele>
        <time>2021-09-06T13:48:37.000Z</time>
      </trkpt>
      <trkpt lat="48.43867" lon="0.09839">
        <ele>146.340618</ele>
        <time>2021-09-06T13:48:44.000Z</time>
      </trkpt>
      <trkpt lat="48.43899" lon="0.09843">
        <ele>146.050335</ele>
        <time>2021-09-06T13:48:49.000Z</time>
      </trkpt>
      <trkpt lat="48.43934" lon="0.09856">
        <ele>145.932316</ele>
        <time>2021-09-06T13:48:55.000Z</time>
      </trkpt>
      <trkpt lat="48.43976" lon="0.09877">
        <ele>145.853551</ele>
        <time>2021-09-06T13:49:02.000Z</time>
      </trkpt>
      <trkpt lat="48.43982" lon="0.0988">
        <ele>145.841833</ele>
        <time>2021-09-06T13:49:03.000Z</time>
      </trkpt>
      <trkpt lat="48.43991" lon="0.09889">
        <ele>145.821844</ele>
        <time>2021-09-06T13:49:05.000Z</time>
      </trkpt>
      <trkpt lat="48.44018" lon="0.09925">
        <ele>145.756637</ele>
        <time>2021-09-06T13:49:11.000Z</time>
      </trkpt>
      <trkpt lat="48.44028" lon="0.09935">
        <ele>145.735477</ele>
        <time>2021-09-06T13:49:13.000Z</time>
      </trkpt>
      <trkpt lat="48.44037" lon="0.09942">
        <ele>145.715578</ele>
        <time>2021-09-06T13:49:15.000Z</time>
      </trkpt>
      <trkpt lat="48.44042" lon="0.09946">
        <ele>145.706026</ele>
        <time>2021-09-06T13:49:16.000Z</time>
      </trkpt>
      <trkpt lat="48.44048" lon="0.09948">
        <ele>145.69593</ele>
        <time>2021-09-06T13:49:17.000Z</time>
      </trkpt>
      <trkpt lat="48.44057" lon="0.09947">
        <ele>145.679787</ele>
        <time>2021-09-06T13:49:19.000Z</time>
      </trkpt>
      <trkpt lat="48.44065" lon="0.09937">
        <ele>145.660475</ele>
        <time>2021-09-06T13:49:21.000Z</time>
      </trkpt>
      <trkpt lat="48.44068" lon="0.09929">
        <ele>145.645594</ele>
        <time>2021-09-06T13:49:22.000Z</time>
      </trkpt>
      <trkpt lat="48.44069" lon="0.0992">
        <ele>145.630917</ele>
        <time>2021-09-06T13:49:23.000Z</time>
      </trkpt>
      <trkpt lat="48.44073" lon="0.09904">
        <ele>145.60209</ele>
        <time>2021-09-06T13:49:25.000Z</time>
      </trkpt>
      <trkpt lat="48.44078" lon="0.09898">
        <ele>145.58722</ele>
        <time>2021-09-06T13:49:26.000Z</time>
      </trkpt>
      <trkpt lat="48.44084" lon="0.09896">
        <ele>145.57278</ele>
        <time>2021-09-06T13:49:27.000Z</time>
      </trkpt>
      <trkpt lat="48.4409" lon="0.09897">
        <ele>145.558216</ele>
        <time>2021-09-06T13:49:28.000Z</time>
      </trkpt>
      <trkpt lat="48.44095" lon="0.09901">
        <ele>145.542958</ele>
        <time>2021-09-06T13:49:29.000Z</time>
      </trkpt>
      <trkpt lat="48.44112" lon="0.09909">
        <ele>145.498262</ele>
        <time>2021-09-06T13:49:32.000Z</time>
      </trkpt>
      <trkpt lat="48.44153" lon="0.0993">
        <ele>145.392015</ele>
        <time>2021-09-06T13:49:39.000Z</time>
      </trkpt>
      <trkpt lat="48.44188" lon="0.09946">
        <ele>145.300998</ele>
        <time>2021-09-06T13:49:46.000Z</time>
      </trkpt>
      <trkpt lat="48.44214" lon="0.09959">
        <ele>145.233652</ele>
        <time>2021-09-06T13:49:52.000Z</time>
      </trkpt>
      <trkpt lat="48.44249" lon="0.09978">
        <ele>145.135696</ele>
        <time>2021-09-06T13:49:59.000Z</time>
      </trkpt>
      <trkpt lat="48.44254" lon="0.09981">
        <ele>145.121404</ele>
        <time>2021-09-06T13:50:00.000Z</time>
      </trkpt>
      <trkpt lat="48.44274" lon="0.09994">
        <ele>145.063461</ele>
        <time>2021-09-06T13:50:04.000Z</time>
      </trkpt>
      <trkpt lat="48.44279" lon="0.09997">
        <ele>145.049152</ele>
        <time>2021-09-06T13:50:05.000Z</time>
      </trkpt>
      <trkpt lat="48.443" lon="0.10009">
        <ele>144.98753</ele>
        <time>2021-09-06T13:50:09.000Z</time>
      </trkpt>
      <trkpt lat="48.44325" lon="0.10028">
        <ele>144.912031</ele>
        <time>2021-09-06T13:50:14.000Z</time>
      </trkpt>
      <trkpt lat="48.44351" lon="0.10046">
        <ele>144.836081</ele>
        <time>2021-09-06T13:50:19.000Z</time>
      </trkpt>
      <trkpt lat="48.44362" lon="0.10052">
        <ele>144.803737</ele>
        <time>2021-09-06T13:50:21.000Z</time>
      </trkpt>
      <trkpt lat="48.44367" lon="0.10057">
        <ele>144.789006</ele>
        <time>2021-09-06T13:50:22.000Z</time>
      </trkpt>
      <trkpt lat="48.44395" lon="0.10072">
        <ele>144.699037</ele>
        <time>2021-09-06T13:50:26.000Z</time>
      </trkpt>
      <trkpt lat="48.44446" lon="0.10103">
        <ele>144.477261</ele>
        <time>2021-09-06T13:50:34.000Z</time>
      </trkpt>
      <trkpt lat="48.44452" lon="0.10107">
        <ele>144.451067</ele>
        <time>2021-09-06T13:50:35.000Z</time>
      </trkpt>
      <trkpt lat="48.44505" lon="0.10143">
        <ele>144.215189</ele>
        <time>2021-09-06T13:50:44.000Z</time>
      </trkpt>
      <trkpt lat="48.44556" lon="0.10179">
        <ele>143.996234</ele>
        <time>2021-09-06T13:50:53.000Z</time>
      </trkpt>
      <trkpt lat="48.44593" lon="0.10209">
        <ele>143.883735</ele>
        <time>2021-09-06T13:51:00.000Z</time>
      </trkpt>
      <trkpt lat="48.44634" lon="0.10242">
        <ele>143.759442</ele>
        <time>2021-09-06T13:51:08.000Z</time>
      </trkpt>
      <trkpt lat="48.4468" lon="0.10279">
        <ele>143.621908</ele>
        <time>2021-09-06T13:51:17.000Z</time>
      </trkpt>
      <trkpt lat="48.44723" lon="0.10317">
        <ele>143.534985</ele>
        <time>2021-09-06T13:51:26.000Z</time>
      </trkpt>
      <trkpt lat="48.44741" lon="0.10333">
        <ele>143.54368</ele>
        <time>2021-09-06T13:51:30.000Z</time>
      </trkpt>
      <trkpt lat="48.44746" lon="0.10338">
        <ele>143.545935</ele>
        <time>2021-09-06T13:51:31.000Z</time>
      </trkpt>
      <trkpt lat="48.4477" lon="0.1036">
        <ele>143.55763</ele>
        <time>2021-09-06T13:51:36.000Z</time>
      </trkpt>
      <trkpt lat="48.44784" lon="0.10374">
        <ele>143.564586</ele>
        <time>2021-09-06T13:51:39.000Z</time>
      </trkpt>
      <trkpt lat="48.44819" lon="0.10407">
        <ele>143.581182</ele>
        <time>2021-09-06T13:51:46.000Z</time>
      </trkpt>
      <trkpt lat="48.44832" lon="0.10422">
        <ele>143.588141</ele>
        <time>2021-09-06T13:51:49.000Z</time>
      </trkpt>
      <trkpt lat="48.44847" lon="0.10436">
        <ele>143.595122</ele>
        <time>2021-09-06T13:51:52.000Z</time>
      </trkpt>
      <trkpt lat="48.44883" lon="0.10475">
        <ele>143.744837</ele>
        <time>2021-09-06T13:52:00.000Z</time>
      </trkpt>
      <trkpt lat="48.4492" lon="0.10512">
        <ele>143.977001</ele>
        <time>2021-09-06T13:52:08.000Z</time>
      </trkpt>
      <trkpt lat="48.44955" lon="0.10552">
        <ele>144.206489</ele>
        <time>2021-09-06T13:52:16.000Z</time>
      </trkpt>
      <trkpt lat="48.44986" lon="0.10586">
        <ele>144.407628</ele>
        <time>2021-09-06T13:52:23.000Z</time>
      </trkpt>
      <trkpt lat="48.45021" lon="0.10628">
        <ele>144.586651</ele>
        <time>2021-09-06T13:52:31.000Z</time>
      </trkpt>
      <trkpt lat="48.45065" lon="0.1068">
        <ele>144.708388</ele>
        <time>2021-09-06T13:52:41.000Z</time>
      </trkpt>
      <trkpt lat="48.45099" lon="0.10725">
        <ele>144.807414</ele>
        <time>2021-09-06T13:52:49.000Z</time>
      </trkpt>
      <trkpt lat="48.4513" lon="0.10765">
        <ele>144.895075</ele>
        <time>2021-09-06T13:52:56.000Z</time>
      </trkpt>
      <trkpt lat="48.45167" lon="0.10812">
        <ele>144.905745</ele>
        <time>2021-09-06T13:53:04.000Z</time>
      </trkpt>
      <trkpt lat="48.45189" lon="0.10842">
        <ele>144.872135</ele>
        <time>2021-09-06T13:53:09.000Z</time>
      </trkpt>
      <trkpt lat="48.4522" lon="0.10882">
        <ele>144.827427</ele>
        <time>2021-09-06T13:53:16.000Z</time>
      </trkpt>
      <trkpt lat="48.45226" lon="0.10891">
        <ele>144.817274</ele>
        <time>2021-09-06T13:53:19.000Z</time>
      </trkpt>
      <trkpt lat="48.45227" lon="0.10892">
        <ele>144.816379</ele>
        <time>2021-09-06T13:53:21.000Z</time>
      </trkpt>
      <trkpt lat="48.45228" lon="0.10895">
        <ele>144.813101</ele>
        <time>2021-09-06T13:53:24.000Z</time>
      </trkpt>
      <trkpt lat="48.45231" lon="0.10898">
        <ele>144.810107</ele>
        <time>2021-09-06T13:53:25.000Z</time>
      </trkpt>
      <trkpt lat="48.45244" lon="0.10912">
        <ele>144.7918</ele>
        <time>2021-09-06T13:53:29.000Z</time>
      </trkpt>
      <trkpt lat="48.45275" lon="0.10948">
        <ele>144.748177</ele>
        <time>2021-09-06T13:53:36.000Z</time>
      </trkpt>
      <trkpt lat="48.45284" lon="0.10959">
        <ele>144.735414</ele>
        <time>2021-09-06T13:53:38.000Z</time>
      </trkpt>
      <trkpt lat="48.45297" lon="0.10978">
        <ele>144.712893</ele>
        <time>2021-09-06T13:53:41.000Z</time>
      </trkpt>
      <trkpt lat="48.45333" lon="0.11025">
        <ele>144.654677</ele>
        <time>2021-09-06T13:53:49.000Z</time>
      </trkpt>
      <trkpt lat="48.45349" lon="0.11035">
        <ele>144.634036</ele>
        <time>2021-09-06T13:53:52.000Z</time>
      </trkpt>
      <trkpt lat="48.45363" lon="0.11044">
        <ele>144.615718</ele>
        <time>2021-09-06T13:53:55.000Z</time>
      </trkpt>
      <trkpt lat="48.45371" lon="0.11053">
        <ele>144.604103</ele>
        <time>2021-09-06T13:53:57.000Z</time>
      </trkpt>
      <trkpt lat="48.45399" lon="0.11091">
        <ele>144.558096</ele>
        <time>2021-09-06T13:54:05.000Z</time>
      </trkpt>
      <trkpt lat="48.45431" lon="0.11132">
        <ele>144.482872</ele>
        <time>2021-09-06T13:54:13.000Z</time>
      </trkpt>
      <trkpt lat="48.4547" lon="0.11182">
        <ele>144.293849</ele>
        <time>2021-09-06T13:54:22.000Z</time>
      </trkpt>
      <trkpt lat="48.45506" lon="0.11231">
        <ele>144.114197</ele>
        <time>2021-09-06T13:54:30.000Z</time>
      </trkpt>
      <trkpt lat="48.45542" lon="0.11285">
        <ele>143.925613</ele>
        <time>2021-09-06T13:54:38.000Z</time>
      </trkpt>
      <trkpt lat="48.45567" lon="0.11327">
        <ele>143.783964</ele>
        <time>2021-09-06T13:54:44.000Z</time>
      </trkpt>
      <trkpt lat="48.45579" lon="0.11348">
        <ele>143.713026</ele>
        <time>2021-09-06T13:54:47.000Z</time>
      </trkpt>
      <trkpt lat="48.45591" lon="0.11368">
        <ele>143.643529</ele>
        <time>2021-09-06T13:54:50.000Z</time>
      </trkpt>
      <trkpt lat="48.45623" lon="0.11424">
        <ele>143.450276</ele>
        <time>2021-09-06T13:54:59.000Z</time>
      </trkpt>
      <trkpt lat="48.45658" lon="0.11482">
        <ele>143.24705</ele>
        <time>2021-09-06T13:55:09.000Z</time>
      </trkpt>
      <trkpt lat="48.4569" lon="0.11531">
        <ele>143.165656</ele>
        <time>2021-09-06T13:55:18.000Z</time>
      </trkpt>
      <trkpt lat="48.45728" lon="0.11592">
        <ele>143.209892</ele>
        <time>2021-09-06T13:55:29.000Z</time>
      </trkpt>
      <trkpt lat="48.45765" lon="0.11653">
        <ele>143.253304</ele>
        <time>2021-09-06T13:55:40.000Z</time>
      </trkpt>
      <trkpt lat="48.45795" lon="0.11701">
        <ele>143.287708</ele>
        <time>2021-09-06T13:55:49.000Z</time>
      </trkpt>
      <trkpt lat="48.45802" lon="0.11704">
        <ele>143.298262</ele>
        <time>2021-09-06T13:55:51.000Z</time>
      </trkpt>
      <trkpt lat="48.45806" lon="0.11703">
        <ele>143.30873</ele>
        <time>2021-09-06T13:55:52.000Z</time>
      </trkpt>
      <trkpt lat="48.4581" lon="0.11703">
        <ele>143.320019</ele>
        <time>2021-09-06T13:55:53.000Z</time>
      </trkpt>
      <trkpt lat="48.45812" lon="0.11707">
        <ele>143.330566</ele>
        <time>2021-09-06T13:55:54.000Z</time>
      </trkpt>
      <trkpt lat="48.45815" lon="0.11723">
        <ele>143.362454</ele>
        <time>2021-09-06T13:55:57.000Z</time>
      </trkpt>
      <trkpt lat="48.45818" lon="0.11725">
        <ele>143.371494</ele>
        <time>2021-09-06T13:55:58.000Z</time>
      </trkpt>
      <trkpt lat="48.45836" lon="0.11714">
        <ele>143.428733</ele>
        <time>2021-09-06T13:56:03.000Z</time>
      </trkpt>
      <trkpt lat="48.4584" lon="0.11712">
        <ele>143.441256</ele>
        <time>2021-09-06T13:56:04.000Z</time>
      </trkpt>
      <trkpt lat="48.45854" lon="0.11711">
        <ele>143.4803</ele>
        <time>2021-09-06T13:56:07.000Z</time>
      </trkpt>
      <trkpt lat="48.45858" lon="0.11711">
        <ele>143.493599</ele>
        <time>2021-09-06T13:56:08.000Z</time>
      </trkpt>
      <trkpt lat="48.45867" lon="0.11711">
        <ele>143.519652</ele>
        <time>2021-09-06T13:56:10.000Z</time>
      </trkpt>
      <trkpt lat="48.45876" lon="0.11714">
        <ele>143.54517</ele>
        <time>2021-09-06T13:56:12.000Z</time>
      </trkpt>
      <trkpt lat="48.45906" lon="0.11725">
        <ele>143.635917</ele>
        <time>2021-09-06T13:56:19.000Z</time>
      </trkpt>
      <trkpt lat="48.45929" lon="0.11736">
        <ele>143.703685</ele>
        <time>2021-09-06T13:56:24.000Z</time>
      </trkpt>
      <trkpt lat="48.45938" lon="0.11741">
        <ele>143.732314</ele>
        <time>2021-09-06T13:56:26.000Z</time>
      </trkpt>
      <trkpt lat="48.45952" lon="0.11747">
        <ele>143.774514</ele>
        <time>2021-09-06T13:56:29.000Z</time>
      </trkpt>
      <trkpt lat="48.45961" lon="0.1175">
        <ele>143.802459</ele>
        <time>2021-09-06T13:56:31.000Z</time>
      </trkpt>
      <trkpt lat="48.45965" lon="0.11753">
        <ele>143.829272</ele>
        <time>2021-09-06T13:56:32.000Z</time>
      </trkpt>
      <trkpt lat="48.45974" lon="0.11757">
        <ele>143.988795</ele>
        <time>2021-09-06T13:56:34.000Z</time>
      </trkpt>
      <trkpt lat="48.45979" lon="0.11759">
        <ele>144.072101</ele>
        <time>2021-09-06T13:56:35.000Z</time>
      </trkpt>
      <trkpt lat="48.45992" lon="0.11763">
        <ele>144.292743</ele>
        <time>2021-09-06T13:56:38.000Z</time>
      </trkpt>
      <trkpt lat="48.45997" lon="0.11765">
        <ele>144.370896</ele>
        <time>2021-09-06T13:56:39.000Z</time>
      </trkpt>
      <trkpt lat="48.46001" lon="0.11768">
        <ele>144.455325</ele>
        <time>2021-09-06T13:56:40.000Z</time>
      </trkpt>
      <trkpt lat="48.46017" lon="0.11776">
        <ele>144.737684</ele>
        <time>2021-09-06T13:56:44.000Z</time>
      </trkpt>
      <trkpt lat="48.46045" lon="0.11792">
        <ele>145.238364</ele>
        <time>2021-09-06T13:56:52.000Z</time>
      </trkpt>
      <trkpt lat="48.4607" lon="0.11805">
        <ele>145.68015</ele>
        <time>2021-09-06T13:57:01.000Z</time>
      </trkpt>
      <trkpt lat="48.46086" lon="0.11813">
        <ele>145.964918</ele>
        <time>2021-09-06T13:57:07.000Z</time>
      </trkpt>
      <trkpt lat="48.46101" lon="0.11821">
        <ele>146.24103</ele>
        <time>2021-09-06T13:57:13.000Z</time>
      </trkpt>
      <trkpt lat="48.46126" lon="0.11834">
        <ele>146.670693</ele>
        <time>2021-09-06T13:57:21.000Z</time>
      </trkpt>
      <trkpt lat="48.46153" lon="0.11847">
        <ele>147.091191</ele>
        <time>2021-09-06T13:57:28.000Z</time>
      </trkpt>
      <trkpt lat="48.46192" lon="0.11862">
        <ele>147.619344</ele>
        <time>2021-09-06T13:57:36.000Z</time>
      </trkpt>
      <trkpt lat="48.46228" lon="0.11876">
        <ele>148.11876</ele>
        <time>2021-09-06T13:57:43.000Z</time>
      </trkpt>
      <trkpt lat="48.46269" lon="0.1189">
        <ele>148.690573</ele>
        <time>2021-09-06T13:57:51.000Z</time>
      </trkpt>
      <trkpt lat="48.46285" lon="0.11893">
        <ele>148.906417</ele>
        <time>2021-09-06T13:57:54.000Z</time>
      </trkpt>
      <trkpt lat="48.46306" lon="0.11896">
        <ele>149.177759</ele>
        <time>2021-09-06T13:57:58.000Z</time>
      </trkpt>
      <trkpt lat="48.46339" lon="0.11903">
        <ele>149.453355</ele>
        <time>2021-09-06T13:58:05.000Z</time>
      </trkpt>
      <trkpt lat="48.46343" lon="0.11906">
        <ele>149.487237</ele>
        <time>2021-09-06T13:58:06.000Z</time>
      </trkpt>
      <trkpt lat="48.4636" lon="0.11919">
        <ele>149.629926</ele>
        <time>2021-09-06T13:58:10.000Z</time>
      </trkpt>
      <trkpt lat="48.46388" lon="0.11951">
        <ele>149.894493</ele>
        <time>2021-09-06T13:58:17.000Z</time>
      </trkpt>
      <trkpt lat="48.46396" lon="0.11962">
        <ele>149.971881</ele>
        <time>2021-09-06T13:58:19.000Z</time>
      </trkpt>
      <trkpt lat="48.46412" lon="0.11982">
        <ele>150.127544</ele>
        <time>2021-09-06T13:58:23.000Z</time>
      </trkpt>
      <trkpt lat="48.46428" lon="0.12003">
        <ele>150.287937</ele>
        <time>2021-09-06T13:58:27.000Z</time>
      </trkpt>
      <trkpt lat="48.46433" lon="0.12008">
        <ele>150.330022</ele>
        <time>2021-09-06T13:58:28.000Z</time>
      </trkpt>
      <trkpt lat="48.46453" lon="0.12027">
        <ele>150.510991</ele>
        <time>2021-09-06T13:58:32.000Z</time>
      </trkpt>
      <trkpt lat="48.46463" lon="0.12039">
        <ele>150.586062</ele>
        <time>2021-09-06T13:58:34.000Z</time>
      </trkpt>
      <trkpt lat="48.46496" lon="0.12073">
        <ele>150.652691</ele>
        <time>2021-09-06T13:58:40.000Z</time>
      </trkpt>
      <trkpt lat="48.46537" lon="0.12103">
        <ele>150.730068</ele>
        <time>2021-09-06T13:58:47.000Z</time>
      </trkpt>
      <trkpt lat="48.46561" lon="0.1212">
        <ele>150.774961</ele>
        <time>2021-09-06T13:58:51.000Z</time>
      </trkpt>
      <trkpt lat="48.46568" lon="0.12122">
        <ele>150.785964</ele>
        <time>2021-09-06T13:58:52.000Z</time>
      </trkpt>
      <trkpt lat="48.46574" lon="0.12121">
        <ele>150.797143</ele>
        <time>2021-09-06T13:58:53.000Z</time>
      </trkpt>
      <trkpt lat="48.46586" lon="0.12113">
        <ele>150.818743</ele>
        <time>2021-09-06T13:58:55.000Z</time>
      </trkpt>
      <trkpt lat="48.46608" lon="0.12097">
        <ele>150.860493</ele>
        <time>2021-09-06T13:58:59.000Z</time>
      </trkpt>
      <trkpt lat="48.4662" lon="0.12091">
        <ele>150.881216</ele>
        <time>2021-09-06T13:59:01.000Z</time>
      </trkpt>
      <trkpt lat="48.46626" lon="0.12089">
        <ele>150.846318</ele>
        <time>2021-09-06T13:59:02.000Z</time>
      </trkpt>
      <trkpt lat="48.46649" lon="0.12084">
        <ele>150.646847</ele>
        <time>2021-09-06T13:59:06.000Z</time>
      </trkpt>
      <trkpt lat="48.46679" lon="0.12077">
        <ele>150.399722</ele>
        <time>2021-09-06T13:59:11.000Z</time>
      </trkpt>
      <trkpt lat="48.46685" lon="0.12077">
        <ele>150.352588</ele>
        <time>2021-09-06T13:59:12.000Z</time>
      </trkpt>
      <trkpt lat="48.46701" lon="0.12082">
        <ele>150.211619</ele>
        <time>2021-09-06T13:59:15.000Z</time>
      </trkpt>
      <trkpt lat="48.46707" lon="0.12086">
        <ele>150.161146</ele>
        <time>2021-09-06T13:59:16.000Z</time>
      </trkpt>
      <trkpt lat="48.46712" lon="0.1209">
        <ele>150.111394</ele>
        <time>2021-09-06T13:59:17.000Z</time>
      </trkpt>
      <trkpt lat="48.46722" lon="0.12101">
        <ele>150.010722</ele>
        <time>2021-09-06T13:59:19.000Z</time>
      </trkpt>
      <trkpt lat="48.46726" lon="0.12109">
        <ele>149.95583</ele>
        <time>2021-09-06T13:59:20.000Z</time>
      </trkpt>
      <trkpt lat="48.4675" lon="0.12157">
        <ele>149.62861</ele>
        <time>2021-09-06T13:59:25.000Z</time>
      </trkpt>
      <trkpt lat="48.46777" lon="0.12196">
        <ele>149.239016</ele>
        <time>2021-09-06T13:59:29.000Z</time>
      </trkpt>
      <trkpt lat="48.46813" lon="0.12224">
        <ele>148.543264</ele>
        <time>2021-09-06T13:59:33.000Z</time>
      </trkpt>
      <trkpt lat="48.46865" lon="0.12257">
        <ele>147.57023</ele>
        <time>2021-09-06T13:59:39.000Z</time>
      </trkpt>
      <trkpt lat="48.46918" lon="0.1229">
        <ele>146.575927</ele>
        <time>2021-09-06T13:59:46.000Z</time>
      </trkpt>
      <trkpt lat="48.46951" lon="0.12305">
        <ele>146.072935</ele>
        <time>2021-09-06T13:59:51.000Z</time>
      </trkpt>
      <trkpt lat="48.46957" lon="0.12306">
        <ele>145.993152</ele>
        <time>2021-09-06T13:59:52.000Z</time>
      </trkpt>
      <trkpt lat="48.46989" lon="0.12299">
        <ele>145.597231</ele>
        <time>2021-09-06T13:59:57.000Z</time>
      </trkpt>
      <trkpt lat="48.47017" lon="0.12278">
        <ele>145.206075</ele>
        <time>2021-09-06T14:00:02.000Z</time>
      </trkpt>
      <trkpt lat="48.47043" lon="0.12254">
        <ele>144.824861</ele>
        <time>2021-09-06T14:00:07.000Z</time>
      </trkpt>
      <trkpt lat="48.47054" lon="0.12248">
        <ele>144.676018</ele>
        <time>2021-09-06T14:00:09.000Z</time>
      </trkpt>
      <trkpt lat="48.4706" lon="0.12245">
        <ele>144.601143</ele>
        <time>2021-09-06T14:00:10.000Z</time>
      </trkpt>
      <trkpt lat="48.47078" lon="0.12241">
        <ele>144.377219</ele>
        <time>2021-09-06T14:00:13.000Z</time>
      </trkpt>
      <trkpt lat="48.47084" lon="0.12242">
        <ele>144.303749</ele>
        <time>2021-09-06T14:00:14.000Z</time>
      </trkpt>
      <trkpt lat="48.4709" lon="0.12242">
        <ele>144.230131</ele>
        <time>2021-09-06T14:00:15.000Z</time>
      </trkpt>
      <trkpt lat="48.47113" lon="0.1225">
        <ele>144.031793</ele>
        <time>2021-09-06T14:00:19.000Z</time>
      </trkpt>
      <trkpt lat="48.47124" lon="0.12255">
        <ele>143.997834</ele>
        <time>2021-09-06T14:00:21.000Z</time>
      </trkpt>
      <trkpt lat="48.47132" lon="0.12267">
        <ele>143.965638</ele>
        <time>2021-09-06T14:00:23.000Z</time>
      </trkpt>
      <trkpt lat="48.47132" lon="0.12283">
        <ele>143.934424</ele>
        <time>2021-09-06T14:00:25.000Z</time>
      </trkpt>
      <trkpt lat="48.4713" lon="0.12291">
        <ele>143.918395</ele>
        <time>2021-09-06T14:00:26.000Z</time>
      </trkpt>
      <trkpt lat="48.47123" lon="0.12338">
        <ele>143.826012</ele>
        <time>2021-09-06T14:00:32.000Z</time>
      </trkpt>
      <trkpt lat="48.47121" lon="0.12345">
        <ele>143.811473</ele>
        <time>2021-09-06T14:00:33.000Z</time>
      </trkpt>
      <trkpt lat="48.47108" lon="0.12381">
        <ele>143.733449</ele>
        <time>2021-09-06T14:00:39.000Z</time>
      </trkpt>
      <trkpt lat="48.47106" lon="0.12386">
        <ele>143.721796</ele>
        <time>2021-09-06T14:00:40.000Z</time>
      </trkpt>
      <trkpt lat="48.47087" lon="0.12419">
        <ele>143.638291</ele>
        <time>2021-09-06T14:00:48.000Z</time>
      </trkpt>
      <trkpt lat="48.47074" lon="0.12456">
        <ele>143.55823</ele>
        <time>2021-09-06T14:00:56.000Z</time>
      </trkpt>
      <trkpt lat="48.47064" lon="0.12497">
        <ele>143.484023</ele>
        <time>2021-09-06T14:01:04.000Z</time>
      </trkpt>
      <trkpt lat="48.47057" lon="0.12535">
        <ele>143.420211</ele>
        <time>2021-09-06T14:01:11.000Z</time>
      </trkpt>
      <trkpt lat="48.47049" lon="0.1258">
        <ele>143.342928</ele>
        <time>2021-09-06T14:01:18.000Z</time>
      </trkpt>
      <trkpt lat="48.47044" lon="0.12603">
        <ele>143.303463</ele>
        <time>2021-09-06T14:01:21.000Z</time>
      </trkpt>
      <trkpt lat="48.47037" lon="0.12627">
        <ele>143.260459</ele>
        <time>2021-09-06T14:01:24.000Z</time>
      </trkpt>
      <trkpt lat="48.47017" lon="0.12669">
        <ele>143.175671</ele>
        <time>2021-09-06T14:01:29.000Z</time>
      </trkpt>
      <trkpt lat="48.46982" lon="0.12731">
        <ele>142.829627</ele>
        <time>2021-09-06T14:01:36.000Z</time>
      </trkpt>
      <trkpt lat="48.46977" lon="0.1274">
        <ele>142.737122</ele>
        <time>2021-09-06T14:01:37.000Z</time>
      </trkpt>
      <trkpt lat="48.46941" lon="0.12811">
        <ele>142.027246</ele>
        <time>2021-09-06T14:01:45.000Z</time>
      </trkpt>
      <trkpt lat="48.46922" lon="0.12855">
        <ele>141.610721</ele>
        <time>2021-09-06T14:01:50.000Z</time>
      </trkpt>
      <trkpt lat="48.46892" lon="0.12931">
        <ele>140.896132</ele>
        <time>2021-09-06T14:01:59.000Z</time>
      </trkpt>
      <trkpt lat="48.46885" lon="0.12947">
        <ele>140.716423</ele>
        <time>2021-09-06T14:02:01.000Z</time>
      </trkpt>
      <trkpt lat="48.46855" lon="0.13019">
        <ele>139.916097</ele>
        <time>2021-09-06T14:02:10.000Z</time>
      </trkpt>
      <trkpt lat="48.46836" lon="0.13071">
        <ele>139.357629</ele>
        <time>2021-09-06T14:02:17.000Z</time>
      </trkpt>
      <trkpt lat="48.46829" lon="0.13093">
        <ele>139.121467</ele>
        <time>2021-09-06T14:02:21.000Z</time>
      </trkpt>
      <trkpt lat="48.46816" lon="0.13135">
        <ele>138.681977</ele>
        <time>2021-09-06T14:02:27.000Z</time>
      </trkpt>
      <trkpt lat="48.46794" lon="0.13195">
        <ele>138.125688</ele>
        <time>2021-09-06T14:02:35.000Z</time>
      </trkpt>
      <trkpt lat="48.46771" lon="0.13251">
        <ele>137.675248</ele>
        <time>2021-09-06T14:02:43.000Z</time>
      </trkpt>
      <trkpt lat="48.46752" lon="0.13292">
        <ele>137.32745</ele>
        <time>2021-09-06T14:02:50.000Z</time>
      </trkpt>
      <trkpt lat="48.46733" lon="0.13328">
        <ele>137.005458</ele>
        <time>2021-09-06T14:02:56.000Z</time>
      </trkpt>
      <trkpt lat="48.46723" lon="0.13348">
        <ele>136.833908</ele>
        <time>2021-09-06T14:02:59.000Z</time>
      </trkpt>
      <trkpt lat="48.46716" lon="0.1337">
        <ele>136.663723</ele>
        <time>2021-09-06T14:03:02.000Z</time>
      </trkpt>
      <trkpt lat="48.467" lon="0.1344">
        <ele>136.498417</ele>
        <time>2021-09-06T14:03:11.000Z</time>
      </trkpt>
      <trkpt lat="48.46692" lon="0.13484">
        <ele>136.500531</ele>
        <time>2021-09-06T14:03:18.000Z</time>
      </trkpt>
      <trkpt lat="48.46692" lon="0.13494">
        <ele>136.500973</ele>
        <time>2021-09-06T14:03:20.000Z</time>
      </trkpt>
      <trkpt lat="48.46694" lon="0.13499">
        <ele>136.501216</ele>
        <time>2021-09-06T14:03:21.000Z</time>
      </trkpt>
      <trkpt lat="48.46696" lon="0.13504">
        <ele>136.501485</ele>
        <time>2021-09-06T14:03:22.000Z</time>
      </trkpt>
      <trkpt lat="48.46705" lon="0.1352">
        <ele>136.502433</ele>
        <time>2021-09-06T14:03:25.000Z</time>
      </trkpt>
      <trkpt lat="48.4673" lon="0.1357">
        <ele>136.505294</ele>
        <time>2021-09-06T14:03:33.000Z</time>
      </trkpt>
      <trkpt lat="48.46739" lon="0.1359">
        <ele>136.506407</ele>
        <time>2021-09-06T14:03:36.000Z</time>
      </trkpt>
      <trkpt lat="48.4675" lon="0.1361">
        <ele>136.507535</ele>
        <time>2021-09-06T14:03:39.000Z</time>
      </trkpt>
      <trkpt lat="48.46774" lon="0.13663">
        <ele>136.605851</ele>
        <time>2021-09-06T14:03:47.000Z</time>
      </trkpt>
      <trkpt lat="48.46801" lon="0.1372">
        <ele>136.765209</ele>
        <time>2021-09-06T14:03:56.000Z</time>
      </trkpt>
      <trkpt lat="48.46819" lon="0.13761">
        <ele>136.873627</ele>
        <time>2021-09-06T14:04:02.000Z</time>
      </trkpt>
      <trkpt lat="48.46822" lon="0.13767">
        <ele>136.891596</ele>
        <time>2021-09-06T14:04:03.000Z</time>
      </trkpt>
      <trkpt lat="48.46824" lon="0.13774">
        <ele>136.908839</ele>
        <time>2021-09-06T14:04:04.000Z</time>
      </trkpt>
      <trkpt lat="48.46829" lon="0.13788">
        <ele>136.94352</ele>
        <time>2021-09-06T14:04:06.000Z</time>
      </trkpt>
      <trkpt lat="48.46832" lon="0.13794">
        <ele>136.959969</ele>
        <time>2021-09-06T14:04:07.000Z</time>
      </trkpt>
      <trkpt lat="48.46843" lon="0.1382">
        <ele>137.029507</ele>
        <time>2021-09-06T14:04:11.000Z</time>
      </trkpt>
      <trkpt lat="48.46849" lon="0.13833">
        <ele>137.064649</ele>
        <time>2021-09-06T14:04:13.000Z</time>
      </trkpt>
      <trkpt lat="48.46857" lon="0.13852">
        <ele>137.115307</ele>
        <time>2021-09-06T14:04:16.000Z</time>
      </trkpt>
      <trkpt lat="48.46863" lon="0.13864">
        <ele>137.181496</ele>
        <time>2021-09-06T14:04:18.000Z</time>
      </trkpt>
      <trkpt lat="48.46878" lon="0.13902">
        <ele>137.377473</ele>
        <time>2021-09-06T14:04:24.000Z</time>
      </trkpt>
      <trkpt lat="48.46881" lon="0.13908">
        <ele>137.409127</ele>
        <time>2021-09-06T14:04:25.000Z</time>
      </trkpt>
      <trkpt lat="48.46892" lon="0.13938">
        <ele>137.563634</ele>
        <time>2021-09-06T14:04:30.000Z</time>
      </trkpt>
      <trkpt lat="48.46893" lon="0.13943">
        <ele>137.591283</ele>
        <time>2021-09-06T14:04:31.000Z</time>
      </trkpt>
      <trkpt lat="48.4691" lon="0.13981">
        <ele>137.793819</ele>
        <time>2021-09-06T14:04:37.000Z</time>
      </trkpt>
      <trkpt lat="48.46913" lon="0.13987">
        <ele>137.826615</ele>
        <time>2021-09-06T14:04:38.000Z</time>
      </trkpt>
      <trkpt lat="48.46918" lon="0.13999">
        <ele>137.889982</ele>
        <time>2021-09-06T14:04:40.000Z</time>
      </trkpt>
      <trkpt lat="48.46925" lon="0.14018">
        <ele>137.987533</ele>
        <time>2021-09-06T14:04:43.000Z</time>
      </trkpt>
      <trkpt lat="48.46943" lon="0.14063">
        <ele>138.221208</ele>
        <time>2021-09-06T14:04:50.000Z</time>
      </trkpt>
      <trkpt lat="48.46953" lon="0.14088">
        <ele>138.37338</ele>
        <time>2021-09-06T14:04:54.000Z</time>
      </trkpt>
      <trkpt lat="48.46957" lon="0.141">
        <ele>138.502792</ele>
        <time>2021-09-06T14:04:56.000Z</time>
      </trkpt>
      <trkpt lat="48.46971" lon="0.14135">
        <ele>138.871135</ele>
        <time>2021-09-06T14:05:02.000Z</time>
      </trkpt>
      <trkpt lat="48.46976" lon="0.14151">
        <ele>139.029692</ele>
        <time>2021-09-06T14:05:05.000Z</time>
      </trkpt>
      <trkpt lat="48.46987" lon="0.1418">
        <ele>139.332042</ele>
        <time>2021-09-06T14:05:10.000Z</time>
      </trkpt>
      <trkpt lat="48.46991" lon="0.14192">
        <ele>139.452204</ele>
        <time>2021-09-06T14:05:12.000Z</time>
      </trkpt>
      <trkpt lat="48.46995" lon="0.14204">
        <ele>139.574102</ele>
        <time>2021-09-06T14:05:14.000Z</time>
      </trkpt>
      <trkpt lat="48.46997" lon="0.1421">
        <ele>139.6323</ele>
        <time>2021-09-06T14:05:15.000Z</time>
      </trkpt>
      <trkpt lat="48.47008" lon="0.1424">
        <ele>139.948068</ele>
        <time>2021-09-06T14:05:20.000Z</time>
      </trkpt>
      <trkpt lat="48.47016" lon="0.14266">
        <ele>140.204031</ele>
        <time>2021-09-06T14:05:24.000Z</time>
      </trkpt>
      <trkpt lat="48.47019" lon="0.14272">
        <ele>140.267744</ele>
        <time>2021-09-06T14:05:25.000Z</time>
      </trkpt>
      <trkpt lat="48.47033" lon="0.14313">
        <ele>140.69069</ele>
        <time>2021-09-06T14:05:32.000Z</time>
      </trkpt>
      <trkpt lat="48.47042" lon="0.1434">
        <ele>140.900778</ele>
        <time>2021-09-06T14:05:37.000Z</time>
      </trkpt>
      <trkpt lat="48.47052" lon="0.1437">
        <ele>141.102442</ele>
        <time>2021-09-06T14:05:42.000Z</time>
      </trkpt>
      <trkpt lat="48.47065" lon="0.14409">
        <ele>141.364169</ele>
        <time>2021-09-06T14:05:48.000Z</time>
      </trkpt>
      <trkpt lat="48.4707" lon="0.14427">
        <ele>141.480214</ele>
        <time>2021-09-06T14:05:51.000Z</time>
      </trkpt>
      <trkpt lat="48.47072" lon="0.14434">
        <ele>141.522495</ele>
        <time>2021-09-06T14:05:52.000Z</time>
      </trkpt>
      <trkpt lat="48.47084" lon="0.14468">
        <ele>141.751806</ele>
        <time>2021-09-06T14:05:58.000Z</time>
      </trkpt>
      <trkpt lat="48.47099" lon="0.14509">
        <ele>142.031028</ele>
        <time>2021-09-06T14:06:05.000Z</time>
      </trkpt>
      <trkpt lat="48.47103" lon="0.14522">
        <ele>142.114517</ele>
        <time>2021-09-06T14:06:07.000Z</time>
      </trkpt>
      <trkpt lat="48.47108" lon="0.14536">
        <ele>142.208758</ele>
        <time>2021-09-06T14:06:09.000Z</time>
      </trkpt>
      <trkpt lat="48.47123" lon="0.14581">
        <ele>142.433054</ele>
        <time>2021-09-06T14:06:15.000Z</time>
      </trkpt>
      <trkpt lat="48.47128" lon="0.14596">
        <ele>142.465766</ele>
        <time>2021-09-06T14:06:17.000Z</time>
      </trkpt>
      <trkpt lat="48.47135" lon="0.14611">
        <ele>142.50088</ele>
        <time>2021-09-06T14:06:19.000Z</time>
      </trkpt>
      <trkpt lat="48.47138" lon="0.1462">
        <ele>142.519013</ele>
        <time>2021-09-06T14:06:20.000Z</time>
      </trkpt>
      <trkpt lat="48.47162" lon="0.14688">
        <ele>142.666134</ele>
        <time>2021-09-06T14:06:28.000Z</time>
      </trkpt>
      <trkpt lat="48.47186" lon="0.14753">
        <ele>142.808693</ele>
        <time>2021-09-06T14:06:36.000Z</time>
      </trkpt>
      <trkpt lat="48.47207" lon="0.14817">
        <ele>142.873461</ele>
        <time>2021-09-06T14:06:44.000Z</time>
      </trkpt>
      <trkpt lat="48.47223" lon="0.14863">
        <ele>142.726153</ele>
        <time>2021-09-06T14:06:50.000Z</time>
      </trkpt>
      <trkpt lat="48.47228" lon="0.14877">
        <ele>142.684036</ele>
        <time>2021-09-06T14:06:52.000Z</time>
      </trkpt>
      <trkpt lat="48.4723" lon="0.14884">
        <ele>142.662567</ele>
        <time>2021-09-06T14:06:53.000Z</time>
      </trkpt>
      <trkpt lat="48.47245" lon="0.14926">
        <ele>142.528943</ele>
        <time>2021-09-06T14:06:58.000Z</time>
      </trkpt>
      <trkpt lat="48.47253" lon="0.14951">
        <ele>142.44867</ele>
        <time>2021-09-06T14:07:01.000Z</time>
      </trkpt>
      <trkpt lat="48.47258" lon="0.14966">
        <ele>142.402195</ele>
        <time>2021-09-06T14:07:03.000Z</time>
      </trkpt>
      <trkpt lat="48.47269" lon="0.14997">
        <ele>142.304204</ele>
        <time>2021-09-06T14:07:07.000Z</time>
      </trkpt>
      <trkpt lat="48.47288" lon="0.15055">
        <ele>142.148454</ele>
        <time>2021-09-06T14:07:14.000Z</time>
      </trkpt>
      <trkpt lat="48.4729" lon="0.15063">
        <ele>142.145442</ele>
        <time>2021-09-06T14:07:15.000Z</time>
      </trkpt>
      <trkpt lat="48.47292" lon="0.15071">
        <ele>142.142206</ele>
        <time>2021-09-06T14:07:16.000Z</time>
      </trkpt>
      <trkpt lat="48.47297" lon="0.15086">
        <ele>142.136308</ele>
        <time>2021-09-06T14:07:18.000Z</time>
      </trkpt>
      <trkpt lat="48.473" lon="0.15093">
        <ele>142.133211</ele>
        <time>2021-09-06T14:07:19.000Z</time>
      </trkpt>
      <trkpt lat="48.47306" lon="0.15105">
        <ele>142.127458</ele>
        <time>2021-09-06T14:07:21.000Z</time>
      </trkpt>
      <trkpt lat="48.4732" lon="0.15141">
        <ele>142.112255</ele>
        <time>2021-09-06T14:07:27.000Z</time>
      </trkpt>
      <trkpt lat="48.47336" lon="0.15187">
        <ele>142.093546</ele>
        <time>2021-09-06T14:07:33.000Z</time>
      </trkpt>
      <trkpt lat="48.4735" lon="0.15227">
        <ele>142.077056</ele>
        <time>2021-09-06T14:07:38.000Z</time>
      </trkpt>
      <trkpt lat="48.47352" lon="0.15235">
        <ele>142.073989</ele>
        <time>2021-09-06T14:07:39.000Z</time>
      </trkpt>
      <trkpt lat="48.47354" lon="0.15242">
        <ele>142.070963</ele>
        <time>2021-09-06T14:07:40.000Z</time>
      </trkpt>
      <trkpt lat="48.47363" lon="0.15266">
        <ele>142.061296</ele>
        <time>2021-09-06T14:07:43.000Z</time>
      </trkpt>
      <trkpt lat="48.47366" lon="0.15272">
        <ele>142.05847</ele>
        <time>2021-09-06T14:07:44.000Z</time>
      </trkpt>
      <trkpt lat="48.47371" lon="0.15287">
        <ele>142.035636</ele>
        <time>2021-09-06T14:07:46.000Z</time>
      </trkpt>
      <trkpt lat="48.47376" lon="0.15304">
        <ele>141.967245</ele>
        <time>2021-09-06T14:07:48.000Z</time>
      </trkpt>
      <trkpt lat="48.47386" lon="0.15328">
        <ele>141.860068</ele>
        <time>2021-09-06T14:07:51.000Z</time>
      </trkpt>
      <trkpt lat="48.47395" lon="0.15352">
        <ele>141.754408</ele>
        <time>2021-09-06T14:07:54.000Z</time>
      </trkpt>
      <trkpt lat="48.47401" lon="0.15368">
        <ele>141.687966</ele>
        <time>2021-09-06T14:07:56.000Z</time>
      </trkpt>
      <trkpt lat="48.47408" lon="0.15391">
        <ele>141.591658</ele>
        <time>2021-09-06T14:08:00.000Z</time>
      </trkpt>
      <trkpt lat="48.47411" lon="0.15396">
        <ele>141.56842</ele>
        <time>2021-09-06T14:08:01.000Z</time>
      </trkpt>
      <trkpt lat="48.47417" lon="0.15416">
        <ele>141.484348</ele>
        <time>2021-09-06T14:08:04.000Z</time>
      </trkpt>
      <trkpt lat="48.47427" lon="0.1545">
        <ele>141.343528</ele>
        <time>2021-09-06T14:08:09.000Z</time>
      </trkpt>
      <trkpt lat="48.47432" lon="0.15463">
        <ele>141.286867</ele>
        <time>2021-09-06T14:08:11.000Z</time>
      </trkpt>
      <trkpt lat="48.47437" lon="0.15478">
        <ele>141.224032</ele>
        <time>2021-09-06T14:08:13.000Z</time>
      </trkpt>
      <trkpt lat="48.47442" lon="0.15494">
        <ele>141.158468</ele>
        <time>2021-09-06T14:08:15.000Z</time>
      </trkpt>
      <trkpt lat="48.47448" lon="0.15509">
        <ele>141.093053</ele>
        <time>2021-09-06T14:08:17.000Z</time>
      </trkpt>
      <trkpt lat="48.47461" lon="0.15547">
        <ele>140.935561</ele>
        <time>2021-09-06T14:08:22.000Z</time>
      </trkpt>
      <trkpt lat="48.47469" lon="0.15569">
        <ele>140.842868</ele>
        <time>2021-09-06T14:08:25.000Z</time>
      </trkpt>
      <trkpt lat="48.47472" lon="0.15576">
        <ele>140.815802</ele>
        <time>2021-09-06T14:08:26.000Z</time>
      </trkpt>
      <trkpt lat="48.47475" lon="0.15583">
        <ele>140.783968</ele>
        <time>2021-09-06T14:08:27.000Z</time>
      </trkpt>
      <trkpt lat="48.47481" lon="0.15598">
        <ele>140.722941</ele>
        <time>2021-09-06T14:08:29.000Z</time>
      </trkpt>
      <trkpt lat="48.47485" lon="0.15613">
        <ele>140.66507</ele>
        <time>2021-09-06T14:08:31.000Z</time>
      </trkpt>
      <trkpt lat="48.47489" lon="0.15627">
        <ele>140.606977</ele>
        <time>2021-09-06T14:08:33.000Z</time>
      </trkpt>
      <trkpt lat="48.475" lon="0.15654">
        <ele>140.496256</ele>
        <time>2021-09-06T14:08:37.000Z</time>
      </trkpt>
      <trkpt lat="48.47502" lon="0.15661">
        <ele>140.468827</ele>
        <time>2021-09-06T14:08:38.000Z</time>
      </trkpt>
      <trkpt lat="48.47511" lon="0.15687">
        <ele>140.36425</ele>
        <time>2021-09-06T14:08:42.000Z</time>
      </trkpt>
      <trkpt lat="48.4752" lon="0.15713">
        <ele>140.256366</ele>
        <time>2021-09-06T14:08:46.000Z</time>
      </trkpt>
      <trkpt lat="48.47524" lon="0.15727">
        <ele>140.203107</ele>
        <time>2021-09-06T14:08:48.000Z</time>
      </trkpt>
      <trkpt lat="48.47528" lon="0.15741">
        <ele>140.145697</ele>
        <time>2021-09-06T14:08:50.000Z</time>
      </trkpt>
      <trkpt lat="48.47533" lon="0.15754">
        <ele>140.092868</ele>
        <time>2021-09-06T14:08:52.000Z</time>
      </trkpt>
      <trkpt lat="48.47541" lon="0.15776">
        <ele>140.056499</ele>
        <time>2021-09-06T14:08:55.000Z</time>
      </trkpt>
      <trkpt lat="48.47544" lon="0.15784">
        <ele>140.057626</ele>
        <time>2021-09-06T14:08:56.000Z</time>
      </trkpt>
      <trkpt lat="48.47554" lon="0.15813">
        <ele>140.061469</ele>
        <time>2021-09-06T14:09:00.000Z</time>
      </trkpt>
      <trkpt lat="48.47564" lon="0.15841">
        <ele>140.065339</ele>
        <time>2021-09-06T14:09:04.000Z</time>
      </trkpt>
      <trkpt lat="48.47579" lon="0.15886">
        <ele>140.071399</ele>
        <time>2021-09-06T14:09:10.000Z</time>
      </trkpt>
      <trkpt lat="48.47584" lon="0.15901">
        <ele>140.073423</ele>
        <time>2021-09-06T14:09:12.000Z</time>
      </trkpt>
      <trkpt lat="48.47589" lon="0.15913">
        <ele>140.0752</ele>
        <time>2021-09-06T14:09:14.000Z</time>
      </trkpt>
      <trkpt lat="48.47591" lon="0.1592">
        <ele>140.076143</ele>
        <time>2021-09-06T14:09:15.000Z</time>
      </trkpt>
      <trkpt lat="48.47605" lon="0.15962">
        <ele>140.081745</ele>
        <time>2021-09-06T14:09:20.000Z</time>
      </trkpt>
      <trkpt lat="48.47611" lon="0.15978">
        <ele>140.083889</ele>
        <time>2021-09-06T14:09:22.000Z</time>
      </trkpt>
      <trkpt lat="48.47624" lon="0.16016">
        <ele>140.167426</ele>
        <time>2021-09-06T14:09:27.000Z</time>
      </trkpt>
      <trkpt lat="48.47637" lon="0.16051">
        <ele>140.396446</ele>
        <time>2021-09-06T14:09:32.000Z</time>
      </trkpt>
      <trkpt lat="48.47639" lon="0.16058">
        <ele>140.441629</ele>
        <time>2021-09-06T14:09:33.000Z</time>
      </trkpt>
      <trkpt lat="48.47645" lon="0.16076">
        <ele>140.559333</ele>
        <time>2021-09-06T14:09:36.000Z</time>
      </trkpt>
      <trkpt lat="48.47648" lon="0.16083">
        <ele>140.60199</ele>
        <time>2021-09-06T14:09:37.000Z</time>
      </trkpt>
      <trkpt lat="48.47659" lon="0.16117">
        <ele>140.821721</ele>
        <time>2021-09-06T14:09:42.000Z</time>
      </trkpt>
      <trkpt lat="48.47673" lon="0.16156">
        <ele>141.073664</ele>
        <time>2021-09-06T14:09:48.000Z</time>
      </trkpt>
      <trkpt lat="48.47683" lon="0.16188">
        <ele>141.279423</ele>
        <time>2021-09-06T14:09:53.000Z</time>
      </trkpt>
      <trkpt lat="48.47686" lon="0.16194">
        <ele>141.320756</ele>
        <time>2021-09-06T14:09:54.000Z</time>
      </trkpt>
      <trkpt lat="48.47701" lon="0.1624">
        <ele>141.613259</ele>
        <time>2021-09-06T14:10:01.000Z</time>
      </trkpt>
      <trkpt lat="48.47715" lon="0.16284">
        <ele>142.168424</ele>
        <time>2021-09-06T14:10:08.000Z</time>
      </trkpt>
      <trkpt lat="48.47717" lon="0.1629">
        <ele>142.25066</ele>
        <time>2021-09-06T14:10:09.000Z</time>
      </trkpt>
      <trkpt lat="48.47722" lon="0.16306">
        <ele>142.469252</ele>
        <time>2021-09-06T14:10:12.000Z</time>
      </trkpt>
      <trkpt lat="48.47732" lon="0.16335">
        <ele>142.856278</ele>
        <time>2021-09-06T14:10:17.000Z</time>
      </trkpt>
      <trkpt lat="48.47743" lon="0.1637">
        <ele>143.318658</ele>
        <time>2021-09-06T14:10:23.000Z</time>
      </trkpt>
      <trkpt lat="48.47752" lon="0.16401">
        <ele>143.726654</ele>
        <time>2021-09-06T14:10:28.000Z</time>
      </trkpt>
      <trkpt lat="48.47762" lon="0.16432">
        <ele>144.148723</ele>
        <time>2021-09-06T14:10:33.000Z</time>
      </trkpt>
      <trkpt lat="48.47764" lon="0.16439">
        <ele>144.242195</ele>
        <time>2021-09-06T14:10:34.000Z</time>
      </trkpt>
      <trkpt lat="48.47772" lon="0.16468">
        <ele>144.60818</ele>
        <time>2021-09-06T14:10:38.000Z</time>
      </trkpt>
      <trkpt lat="48.47785" lon="0.16517">
        <ele>145.082832</ele>
        <time>2021-09-06T14:10:45.000Z</time>
      </trkpt>
      <trkpt lat="48.47797" lon="0.16561">
        <ele>145.385155</ele>
        <time>2021-09-06T14:10:51.000Z</time>
      </trkpt>
      <trkpt lat="48.478" lon="0.16575">
        <ele>145.479347</ele>
        <time>2021-09-06T14:10:53.000Z</time>
      </trkpt>
      <trkpt lat="48.47803" lon="0.16589">
        <ele>145.573217</ele>
        <time>2021-09-06T14:10:55.000Z</time>
      </trkpt>
      <trkpt lat="48.47809" lon="0.16613">
        <ele>145.735259</ele>
        <time>2021-09-06T14:10:58.000Z</time>
      </trkpt>
      <trkpt lat="48.47817" lon="0.16652">
        <ele>145.992281</ele>
        <time>2021-09-06T14:11:03.000Z</time>
      </trkpt>
      <trkpt lat="48.4782" lon="0.16667">
        <ele>146.092124</ele>
        <time>2021-09-06T14:11:05.000Z</time>
      </trkpt>
      <trkpt lat="48.47823" lon="0.1668">
        <ele>146.177376</ele>
        <time>2021-09-06T14:11:07.000Z</time>
      </trkpt>
      <trkpt lat="48.47824" lon="0.16687">
        <ele>146.222442</ele>
        <time>2021-09-06T14:11:08.000Z</time>
      </trkpt>
      <trkpt lat="48.47827" lon="0.167">
        <ele>146.30972</ele>
        <time>2021-09-06T14:11:10.000Z</time>
      </trkpt>
      <trkpt lat="48.47831" lon="0.1672">
        <ele>146.443784</ele>
        <time>2021-09-06T14:11:13.000Z</time>
      </trkpt>
      <trkpt lat="48.47837" lon="0.16753">
        <ele>146.603497</ele>
        <time>2021-09-06T14:11:18.000Z</time>
      </trkpt>
      <trkpt lat="48.47841" lon="0.16778">
        <ele>146.529856</ele>
        <time>2021-09-06T14:11:22.000Z</time>
      </trkpt>
      <trkpt lat="48.47843" lon="0.1681">
        <ele>146.443318</ele>
        <time>2021-09-06T14:11:27.000Z</time>
      </trkpt>
      <trkpt lat="48.47847" lon="0.16849">
        <ele>146.332638</ele>
        <time>2021-09-06T14:11:33.000Z</time>
      </trkpt>
      <trkpt lat="48.47849" lon="0.16873">
        <ele>146.268384</ele>
        <time>2021-09-06T14:11:36.000Z</time>
      </trkpt>
      <trkpt lat="48.4785" lon="0.1688">
        <ele>146.247768</ele>
        <time>2021-09-06T14:11:37.000Z</time>
      </trkpt>
      <trkpt lat="48.47851" lon="0.16897">
        <ele>146.199741</ele>
        <time>2021-09-06T14:11:39.000Z</time>
      </trkpt>
      <trkpt lat="48.47857" lon="0.16935">
        <ele>146.091925</ele>
        <time>2021-09-06T14:11:43.000Z</time>
      </trkpt>
      <trkpt lat="48.47859" lon="0.16954">
        <ele>146.039227</ele>
        <time>2021-09-06T14:11:45.000Z</time>
      </trkpt>
      <trkpt lat="48.47862" lon="0.16967">
        <ele>146.001511</ele>
        <time>2021-09-06T14:11:47.000Z</time>
      </trkpt>
      <trkpt lat="48.47865" lon="0.17007">
        <ele>145.891032</ele>
        <time>2021-09-06T14:11:52.000Z</time>
      </trkpt>
      <trkpt lat="48.47865" lon="0.17016">
        <ele>145.867093</ele>
        <time>2021-09-06T14:11:53.000Z</time>
      </trkpt>
      <trkpt lat="48.47866" lon="0.17026">
        <ele>145.849834</ele>
        <time>2021-09-06T14:11:54.000Z</time>
      </trkpt>
      <trkpt lat="48.4787" lon="0.17073">
        <ele>145.765616</ele>
        <time>2021-09-06T14:11:59.000Z</time>
      </trkpt>
      <trkpt lat="48.47876" lon="0.17138">
        <ele>145.646518</ele>
        <time>2021-09-06T14:12:06.000Z</time>
      </trkpt>
      <trkpt lat="48.47894" lon="0.17197">
        <ele>145.531136</ele>
        <time>2021-09-06T14:12:10.000Z</time>
      </trkpt>
      <trkpt lat="48.47898" lon="0.17209">
        <ele>145.507301</ele>
        <time>2021-09-06T14:12:11.000Z</time>
      </trkpt>
      <trkpt lat="48.479" lon="0.17225">
        <ele>145.476623</ele>
        <time>2021-09-06T14:12:13.000Z</time>
      </trkpt>
      <trkpt lat="48.479" lon="0.17233">
        <ele>145.462274</ele>
        <time>2021-09-06T14:12:14.000Z</time>
      </trkpt>
      <trkpt lat="48.47901" lon="0.17241">
        <ele>145.448211</ele>
        <time>2021-09-06T14:12:15.000Z</time>
      </trkpt>
      <trkpt lat="48.47903" lon="0.17257">
        <ele>145.418992</ele>
        <time>2021-09-06T14:12:17.000Z</time>
      </trkpt>
      <trkpt lat="48.47905" lon="0.17273">
        <ele>145.390874</ele>
        <time>2021-09-06T14:12:19.000Z</time>
      </trkpt>
      <trkpt lat="48.47906" lon="0.17289">
        <ele>145.263288</ele>
        <time>2021-09-06T14:12:21.000Z</time>
      </trkpt>
      <trkpt lat="48.47907" lon="0.17297">
        <ele>145.179979</ele>
        <time>2021-09-06T14:12:22.000Z</time>
      </trkpt>
      <trkpt lat="48.47911" lon="0.17326">
        <ele>144.889985</ele>
        <time>2021-09-06T14:12:25.000Z</time>
      </trkpt>
      <trkpt lat="48.47915" lon="0.17347">
        <ele>144.679295</ele>
        <time>2021-09-06T14:12:27.000Z</time>
      </trkpt>
      <trkpt lat="48.47916" lon="0.17357">
        <ele>144.586752</ele>
        <time>2021-09-06T14:12:28.000Z</time>
      </trkpt>
      <trkpt lat="48.47918" lon="0.17376">
        <ele>144.39416</ele>
        <time>2021-09-06T14:12:30.000Z</time>
      </trkpt>
      <trkpt lat="48.47921" lon="0.17408">
        <ele>144.077482</ele>
        <time>2021-09-06T14:12:33.000Z</time>
      </trkpt>
      <trkpt lat="48.47928" lon="0.17462">
        <ele>143.543429</ele>
        <time>2021-09-06T14:12:38.000Z</time>
      </trkpt>
      <trkpt lat="48.47931" lon="0.17491">
        <ele>143.264594</ele>
        <time>2021-09-06T14:12:41.000Z</time>
      </trkpt>
      <trkpt lat="48.47932" lon="0.175">
        <ele>143.177697</ele>
        <time>2021-09-06T14:12:42.000Z</time>
      </trkpt>
      <trkpt lat="48.47941" lon="0.17557">
        <ele>142.629297</ele>
        <time>2021-09-06T14:12:47.000Z</time>
      </trkpt>
      <trkpt lat="48.47946" lon="0.17613">
        <ele>142.178365</ele>
        <time>2021-09-06T14:12:52.000Z</time>
      </trkpt>
      <trkpt lat="48.47955" lon="0.17679">
        <ele>141.629064</ele>
        <time>2021-09-06T14:12:58.000Z</time>
      </trkpt>
      <trkpt lat="48.47962" lon="0.17741">
        <ele>141.12062</ele>
        <time>2021-09-06T14:13:04.000Z</time>
      </trkpt>
      <trkpt lat="48.4797" lon="0.17811">
        <ele>140.552848</ele>
        <time>2021-09-06T14:13:11.000Z</time>
      </trkpt>
      <trkpt lat="48.47977" lon="0.17868">
        <ele>140.130244</ele>
        <time>2021-09-06T14:13:17.000Z</time>
      </trkpt>
      <trkpt lat="48.47978" lon="0.17877">
        <ele>140.062035</ele>
        <time>2021-09-06T14:13:18.000Z</time>
      </trkpt>
      <trkpt lat="48.47984" lon="0.17912">
        <ele>139.796076</ele>
        <time>2021-09-06T14:13:22.000Z</time>
      </trkpt>
      <trkpt lat="48.47987" lon="0.17945">
        <ele>139.551922</ele>
        <time>2021-09-06T14:13:26.000Z</time>
      </trkpt>
      <trkpt lat="48.47987" lon="0.17953">
        <ele>139.494599</ele>
        <time>2021-09-06T14:13:27.000Z</time>
      </trkpt>
      <trkpt lat="48.47986" lon="0.17961">
        <ele>139.435083</ele>
        <time>2021-09-06T14:13:28.000Z</time>
      </trkpt>
      <trkpt lat="48.47988" lon="0.17984">
        <ele>139.266839</ele>
        <time>2021-09-06T14:13:31.000Z</time>
      </trkpt>
      <trkpt lat="48.4799" lon="0.18008">
        <ele>139.085492</ele>
        <time>2021-09-06T14:13:34.000Z</time>
      </trkpt>
      <trkpt lat="48.4799" lon="0.18017">
        <ele>139.025398</ele>
        <time>2021-09-06T14:13:35.000Z</time>
      </trkpt>
      <trkpt lat="48.47992" lon="0.18034">
        <ele>138.89435</ele>
        <time>2021-09-06T14:13:37.000Z</time>
      </trkpt>
      <trkpt lat="48.47996" lon="0.1806">
        <ele>138.699237</ele>
        <time>2021-09-06T14:13:40.000Z</time>
      </trkpt>
      <trkpt lat="48.48003" lon="0.1811">
        <ele>138.491828</ele>
        <time>2021-09-06T14:13:46.000Z</time>
      </trkpt>
      <trkpt lat="48.48005" lon="0.18119">
        <ele>138.468967</ele>
        <time>2021-09-06T14:13:47.000Z</time>
      </trkpt>
      <trkpt lat="48.48008" lon="0.18155">
        <ele>138.382381</ele>
        <time>2021-09-06T14:13:51.000Z</time>
      </trkpt>
      <trkpt lat="48.48014" lon="0.18209">
        <ele>138.248527</ele>
        <time>2021-09-06T14:13:58.000Z</time>
      </trkpt>
      <trkpt lat="48.48015" lon="0.18216">
        <ele>138.229678</ele>
        <time>2021-09-06T14:13:59.000Z</time>
      </trkpt>
      <trkpt lat="48.48019" lon="0.1825">
        <ele>138.146501</ele>
        <time>2021-09-06T14:14:03.000Z</time>
      </trkpt>
      <trkpt lat="48.48028" lon="0.18307">
        <ele>138.004587</ele>
        <time>2021-09-06T14:14:10.000Z</time>
      </trkpt>
      <trkpt lat="48.48039" lon="0.18362">
        <ele>137.927494</ele>
        <time>2021-09-06T14:14:17.000Z</time>
      </trkpt>
      <trkpt lat="48.48044" lon="0.18392">
        <ele>137.946173</ele>
        <time>2021-09-06T14:14:21.000Z</time>
      </trkpt>
      <trkpt lat="48.48047" lon="0.18408">
        <ele>137.955443</ele>
        <time>2021-09-06T14:14:23.000Z</time>
      </trkpt>
      <trkpt lat="48.48054" lon="0.18448">
        <ele>137.980032</ele>
        <time>2021-09-06T14:14:28.000Z</time>
      </trkpt>
      <trkpt lat="48.48057" lon="0.18456">
        <ele>137.985051</ele>
        <time>2021-09-06T14:14:29.000Z</time>
      </trkpt>
      <trkpt lat="48.48059" lon="0.18464">
        <ele>137.99052</ele>
        <time>2021-09-06T14:14:30.000Z</time>
      </trkpt>
      <trkpt lat="48.48064" lon="0.18489">
        <ele>138.005843</ele>
        <time>2021-09-06T14:14:33.000Z</time>
      </trkpt>
      <trkpt lat="48.48065" lon="0.18496">
        <ele>138.010211</ele>
        <time>2021-09-06T14:14:34.000Z</time>
      </trkpt>
      <trkpt lat="48.4807" lon="0.18525">
        <ele>138.027494</ele>
        <time>2021-09-06T14:14:38.000Z</time>
      </trkpt>
      <trkpt lat="48.48073" lon="0.18541">
        <ele>138.037514</ele>
        <time>2021-09-06T14:14:40.000Z</time>
      </trkpt>
      <trkpt lat="48.48075" lon="0.18549">
        <ele>138.042445</ele>
        <time>2021-09-06T14:14:41.000Z</time>
      </trkpt>
      <trkpt lat="48.4808" lon="0.18564">
        <ele>138.052637</ele>
        <time>2021-09-06T14:14:43.000Z</time>
      </trkpt>
      <trkpt lat="48.48083" lon="0.18571">
        <ele>138.05743</ele>
        <time>2021-09-06T14:14:44.000Z</time>
      </trkpt>
      <trkpt lat="48.48084" lon="0.18579">
        <ele>138.062132</ele>
        <time>2021-09-06T14:14:45.000Z</time>
      </trkpt>
      <trkpt lat="48.4809" lon="0.1861">
        <ele>138.094442</ele>
        <time>2021-09-06T14:14:49.000Z</time>
      </trkpt>
      <trkpt lat="48.48099" lon="0.18645">
        <ele>138.170864</ele>
        <time>2021-09-06T14:14:54.000Z</time>
      </trkpt>
      <trkpt lat="48.48102" lon="0.18652">
        <ele>138.188176</ele>
        <time>2021-09-06T14:14:55.000Z</time>
      </trkpt>
      <trkpt lat="48.48109" lon="0.18677">
        <ele>138.243259</ele>
        <time>2021-09-06T14:14:58.000Z</time>
      </trkpt>
      <trkpt lat="48.48113" lon="0.18695">
        <ele>138.282993</ele>
        <time>2021-09-06T14:15:00.000Z</time>
      </trkpt>
      <trkpt lat="48.48121" lon="0.18722">
        <ele>138.341832</ele>
        <time>2021-09-06T14:15:03.000Z</time>
      </trkpt>
      <trkpt lat="48.4813" lon="0.18754">
        <ele>138.413227</ele>
        <time>2021-09-06T14:15:07.000Z</time>
      </trkpt>
      <trkpt lat="48.48143" lon="0.18799">
        <ele>138.512724</ele>
        <time>2021-09-06T14:15:13.000Z</time>
      </trkpt>
      <trkpt lat="48.48154" lon="0.1884">
        <ele>138.603405</ele>
        <time>2021-09-06T14:15:18.000Z</time>
      </trkpt>
      <trkpt lat="48.48162" lon="0.18876">
        <ele>138.77179</ele>
        <time>2021-09-06T14:15:23.000Z</time>
      </trkpt>
      <trkpt lat="48.48164" lon="0.18883">
        <ele>138.8095</ele>
        <time>2021-09-06T14:15:24.000Z</time>
      </trkpt>
      <trkpt lat="48.48177" lon="0.18924">
        <ele>139.059774</ele>
        <time>2021-09-06T14:15:30.000Z</time>
      </trkpt>
      <trkpt lat="48.48186" lon="0.18955">
        <ele>139.245624</ele>
        <time>2021-09-06T14:15:35.000Z</time>
      </trkpt>
      <trkpt lat="48.48198" lon="0.18996">
        <ele>139.485702</ele>
        <time>2021-09-06T14:15:41.000Z</time>
      </trkpt>
      <trkpt lat="48.4822" lon="0.19063">
        <ele>139.893681</ele>
        <time>2021-09-06T14:15:49.000Z</time>
      </trkpt>
      <trkpt lat="48.48237" lon="0.1912">
        <ele>140.178802</ele>
        <time>2021-09-06T14:15:56.000Z</time>
      </trkpt>
      <trkpt lat="48.48249" lon="0.19165">
        <ele>140.338252</ele>
        <time>2021-09-06T14:16:02.000Z</time>
      </trkpt>
      <trkpt lat="48.48251" lon="0.19173">
        <ele>140.363925</ele>
        <time>2021-09-06T14:16:03.000Z</time>
      </trkpt>
      <trkpt lat="48.48254" lon="0.19188">
        <ele>140.416611</ele>
        <time>2021-09-06T14:16:05.000Z</time>
      </trkpt>
      <trkpt lat="48.48255" lon="0.19196">
        <ele>140.441692</ele>
        <time>2021-09-06T14:16:06.000Z</time>
      </trkpt>
      <trkpt lat="48.48259" lon="0.19217">
        <ele>140.513397</ele>
        <time>2021-09-06T14:16:09.000Z</time>
      </trkpt>
      <trkpt lat="48.48264" lon="0.19232">
        <ele>140.566074</ele>
        <time>2021-09-06T14:16:11.000Z</time>
      </trkpt>
      <trkpt lat="48.48268" lon="0.19247">
        <ele>140.618564</ele>
        <time>2021-09-06T14:16:13.000Z</time>
      </trkpt>
      <trkpt lat="48.48272" lon="0.19261">
        <ele>140.670052</ele>
        <time>2021-09-06T14:16:15.000Z</time>
      </trkpt>
      <trkpt lat="48.48282" lon="0.193">
        <ele>140.803464</ele>
        <time>2021-09-06T14:16:20.000Z</time>
      </trkpt>
      <trkpt lat="48.48298" lon="0.19349">
        <ele>140.981278</ele>
        <time>2021-09-06T14:16:26.000Z</time>
      </trkpt>
      <trkpt lat="48.48312" lon="0.19396">
        <ele>141.012007</ele>
        <time>2021-09-06T14:16:32.000Z</time>
      </trkpt>
      <trkpt lat="48.48314" lon="0.19404">
        <ele>141.016522</ele>
        <time>2021-09-06T14:16:33.000Z</time>
      </trkpt>
      <trkpt lat="48.48327" lon="0.19448">
        <ele>141.044509</ele>
        <time>2021-09-06T14:16:39.000Z</time>
      </trkpt>
      <trkpt lat="48.48329" lon="0.19455">
        <ele>141.048797</ele>
        <time>2021-09-06T14:16:40.000Z</time>
      </trkpt>
      <trkpt lat="48.4833" lon="0.19463">
        <ele>141.053326</ele>
        <time>2021-09-06T14:16:41.000Z</time>
      </trkpt>
      <trkpt lat="48.48337" lon="0.19485">
        <ele>141.067678</ele>
        <time>2021-09-06T14:16:44.000Z</time>
      </trkpt>
      <trkpt lat="48.4835" lon="0.19528">
        <ele>141.094512</ele>
        <time>2021-09-06T14:16:49.000Z</time>
      </trkpt>
      <trkpt lat="48.48363" lon="0.19571">
        <ele>141.122295</ele>
        <time>2021-09-06T14:16:54.000Z</time>
      </trkpt>
      <trkpt lat="48.48368" lon="0.19587">
        <ele>141.132875</ele>
        <time>2021-09-06T14:16:56.000Z</time>
      </trkpt>
      <trkpt lat="48.48373" lon="0.19603">
        <ele>141.132918</ele>
        <time>2021-09-06T14:16:58.000Z</time>
      </trkpt>
      <trkpt lat="48.48382" lon="0.19636">
        <ele>141.095429</ele>
        <time>2021-09-06T14:17:03.000Z</time>
      </trkpt>
      <trkpt lat="48.48388" lon="0.19666">
        <ele>141.062778</ele>
        <time>2021-09-06T14:17:07.000Z</time>
      </trkpt>
      <trkpt lat="48.484" lon="0.19702">
        <ele>141.021903</ele>
        <time>2021-09-06T14:17:11.000Z</time>
      </trkpt>
      <trkpt lat="48.48403" lon="0.19711">
        <ele>141.010717</ele>
        <time>2021-09-06T14:17:12.000Z</time>
      </trkpt>
      <trkpt lat="48.48408" lon="0.19727">
        <ele>140.992791</ele>
        <time>2021-09-06T14:17:14.000Z</time>
      </trkpt>
      <trkpt lat="48.48413" lon="0.19741">
        <ele>140.976557</ele>
        <time>2021-09-06T14:17:16.000Z</time>
      </trkpt>
      <trkpt lat="48.48418" lon="0.19757">
        <ele>140.958074</ele>
        <time>2021-09-06T14:17:18.000Z</time>
      </trkpt>
      <trkpt lat="48.48424" lon="0.19784">
        <ele>140.928859</ele>
        <time>2021-09-06T14:17:21.000Z</time>
      </trkpt>
      <trkpt lat="48.48426" lon="0.19792">
        <ele>140.920014</ele>
        <time>2021-09-06T14:17:22.000Z</time>
      </trkpt>
      <trkpt lat="48.48433" lon="0.19818">
        <ele>140.890461</ele>
        <time>2021-09-06T14:17:25.000Z</time>
      </trkpt>
      <trkpt lat="48.48448" lon="0.19868">
        <ele>140.863508</ele>
        <time>2021-09-06T14:17:31.000Z</time>
      </trkpt>
      <trkpt lat="48.4845" lon="0.19875">
        <ele>140.865105</ele>
        <time>2021-09-06T14:17:32.000Z</time>
      </trkpt>
      <trkpt lat="48.48458" lon="0.19901">
        <ele>140.871332</ele>
        <time>2021-09-06T14:17:36.000Z</time>
      </trkpt>
      <trkpt lat="48.48469" lon="0.19937">
        <ele>140.880094</ele>
        <time>2021-09-06T14:17:41.000Z</time>
      </trkpt>
      <trkpt lat="48.48474" lon="0.19956">
        <ele>140.884773</ele>
        <time>2021-09-06T14:17:44.000Z</time>
      </trkpt>
      <trkpt lat="48.48476" lon="0.19964">
        <ele>140.886495</ele>
        <time>2021-09-06T14:17:45.000Z</time>
      </trkpt>
      <trkpt lat="48.4848" lon="0.19985">
        <ele>140.891229</ele>
        <time>2021-09-06T14:17:48.000Z</time>
      </trkpt>
      <trkpt lat="48.4848" lon="0.19991">
        <ele>140.892549</ele>
        <time>2021-09-06T14:17:49.000Z</time>
      </trkpt>
      <trkpt lat="48.48487" lon="0.20018">
        <ele>140.898955</ele>
        <time>2021-09-06T14:17:53.000Z</time>
      </trkpt>
      <trkpt lat="48.48505" lon="0.20076">
        <ele>140.913121</ele>
        <time>2021-09-06T14:18:01.000Z</time>
      </trkpt>
      <trkpt lat="48.48515" lon="0.20106">
        <ele>140.990321</ele>
        <time>2021-09-06T14:18:05.000Z</time>
      </trkpt>
      <trkpt lat="48.48518" lon="0.20113">
        <ele>141.0409</ele>
        <time>2021-09-06T14:18:06.000Z</time>
      </trkpt>
      <trkpt lat="48.4853" lon="0.20157">
        <ele>141.33746</ele>
        <time>2021-09-06T14:18:12.000Z</time>
      </trkpt>
      <trkpt lat="48.48532" lon="0.20163">
        <ele>141.382398</ele>
        <time>2021-09-06T14:18:13.000Z</time>
      </trkpt>
      <trkpt lat="48.48542" lon="0.20203">
        <ele>141.650042</ele>
        <time>2021-09-06T14:18:19.000Z</time>
      </trkpt>
      <trkpt lat="48.48551" lon="0.20235">
        <ele>141.864546</ele>
        <time>2021-09-06T14:18:24.000Z</time>
      </trkpt>
      <trkpt lat="48.4856" lon="0.20267">
        <ele>142.079139</ele>
        <time>2021-09-06T14:18:29.000Z</time>
      </trkpt>
      <trkpt lat="48.48571" lon="0.20304">
        <ele>142.332989</ele>
        <time>2021-09-06T14:18:35.000Z</time>
      </trkpt>
      <trkpt lat="48.48577" lon="0.20323">
        <ele>142.465134</ele>
        <time>2021-09-06T14:18:38.000Z</time>
      </trkpt>
      <trkpt lat="48.4858" lon="0.20336">
        <ele>142.552762</ele>
        <time>2021-09-06T14:18:40.000Z</time>
      </trkpt>
      <trkpt lat="48.4859" lon="0.20369">
        <ele>142.806835</ele>
        <time>2021-09-06T14:18:45.000Z</time>
      </trkpt>
      <trkpt lat="48.48601" lon="0.20409">
        <ele>143.129292</ele>
        <time>2021-09-06T14:18:51.000Z</time>
      </trkpt>
      <trkpt lat="48.48613" lon="0.20442">
        <ele>143.39965</ele>
        <time>2021-09-06T14:18:56.000Z</time>
      </trkpt>
      <trkpt lat="48.48617" lon="0.20455">
        <ele>143.504431</ele>
        <time>2021-09-06T14:18:58.000Z</time>
      </trkpt>
      <trkpt lat="48.4862" lon="0.20461">
        <ele>143.558752</ele>
        <time>2021-09-06T14:18:59.000Z</time>
      </trkpt>
      <trkpt lat="48.48622" lon="0.20468">
        <ele>143.613037</ele>
        <time>2021-09-06T14:19:00.000Z</time>
      </trkpt>
      <trkpt lat="48.48629" lon="0.20494">
        <ele>143.823121</ele>
        <time>2021-09-06T14:19:04.000Z</time>
      </trkpt>
      <trkpt lat="48.48632" lon="0.20509">
        <ele>143.938148</ele>
        <time>2021-09-06T14:19:06.000Z</time>
      </trkpt>
      <trkpt lat="48.48636" lon="0.20531">
        <ele>144.103543</ele>
        <time>2021-09-06T14:19:09.000Z</time>
      </trkpt>
      <trkpt lat="48.48642" lon="0.20552">
        <ele>144.269528</ele>
        <time>2021-09-06T14:19:12.000Z</time>
      </trkpt>
      <trkpt lat="48.48648" lon="0.20573">
        <ele>144.436947</ele>
        <time>2021-09-06T14:19:15.000Z</time>
      </trkpt>
      <trkpt lat="48.48659" lon="0.20615">
        <ele>144.619113</ele>
        <time>2021-09-06T14:19:21.000Z</time>
      </trkpt>
      <trkpt lat="48.4866" lon="0.20622">
        <ele>144.625631</ele>
        <time>2021-09-06T14:19:22.000Z</time>
      </trkpt>
      <trkpt lat="48.48663" lon="0.20629">
        <ele>144.632385</ele>
        <time>2021-09-06T14:19:23.000Z</time>
      </trkpt>
      <trkpt lat="48.48671" lon="0.20655">
        <ele>144.657205</ele>
        <time>2021-09-06T14:19:27.000Z</time>
      </trkpt>
      <trkpt lat="48.48672" lon="0.20661">
        <ele>144.663355</ele>
        <time>2021-09-06T14:19:28.000Z</time>
      </trkpt>
      <trkpt lat="48.48674" lon="0.20668">
        <ele>144.66958</ele>
        <time>2021-09-06T14:19:29.000Z</time>
      </trkpt>
      <trkpt lat="48.48682" lon="0.20693">
        <ele>144.69384</ele>
        <time>2021-09-06T14:19:33.000Z</time>
      </trkpt>
      <trkpt lat="48.48688" lon="0.20713">
        <ele>144.712247</ele>
        <time>2021-09-06T14:19:36.000Z</time>
      </trkpt>
      <trkpt lat="48.48691" lon="0.20725">
        <ele>144.724084</ele>
        <time>2021-09-06T14:19:38.000Z</time>
      </trkpt>
      <trkpt lat="48.48704" lon="0.20771">
        <ele>144.767781</ele>
        <time>2021-09-06T14:19:45.000Z</time>
      </trkpt>
      <trkpt lat="48.48717" lon="0.20818">
        <ele>144.811867</ele>
        <time>2021-09-06T14:19:52.000Z</time>
      </trkpt>
      <trkpt lat="48.48723" lon="0.20838">
        <ele>144.830458</ele>
        <time>2021-09-06T14:19:55.000Z</time>
      </trkpt>
      <trkpt lat="48.48726" lon="0.2085">
        <ele>144.821586</ele>
        <time>2021-09-06T14:19:57.000Z</time>
      </trkpt>
      <trkpt lat="48.48728" lon="0.20857">
        <ele>144.809671</ele>
        <time>2021-09-06T14:19:58.000Z</time>
      </trkpt>
      <trkpt lat="48.48735" lon="0.20883">
        <ele>144.763985</ele>
        <time>2021-09-06T14:20:02.000Z</time>
      </trkpt>
      <trkpt lat="48.48738" lon="0.20896">
        <ele>144.742243</ele>
        <time>2021-09-06T14:20:04.000Z</time>
      </trkpt>
      <trkpt lat="48.4874" lon="0.20902">
        <ele>144.730695</ele>
        <time>2021-09-06T14:20:05.000Z</time>
      </trkpt>
      <trkpt lat="48.48745" lon="0.20921">
        <ele>144.697655</ele>
        <time>2021-09-06T14:20:08.000Z</time>
      </trkpt>
      <trkpt lat="48.48746" lon="0.20927">
        <ele>144.686595</ele>
        <time>2021-09-06T14:20:09.000Z</time>
      </trkpt>
      <trkpt lat="48.48751" lon="0.20939">
        <ele>144.663826</ele>
        <time>2021-09-06T14:20:11.000Z</time>
      </trkpt>
      <trkpt lat="48.48759" lon="0.20965">
        <ele>144.617636</ele>
        <time>2021-09-06T14:20:15.000Z</time>
      </trkpt>
      <trkpt lat="48.48768" lon="0.20997">
        <ele>144.560045</ele>
        <time>2021-09-06T14:20:20.000Z</time>
      </trkpt>
      <trkpt lat="48.48772" lon="0.21016">
        <ele>144.526098</ele>
        <time>2021-09-06T14:20:23.000Z</time>
      </trkpt>
      <trkpt lat="48.48774" lon="0.21023">
        <ele>144.514499</ele>
        <time>2021-09-06T14:20:24.000Z</time>
      </trkpt>
      <trkpt lat="48.48779" lon="0.21035">
        <ele>144.492686</ele>
        <time>2021-09-06T14:20:26.000Z</time>
      </trkpt>
      <trkpt lat="48.48781" lon="0.21041">
        <ele>144.481488</ele>
        <time>2021-09-06T14:20:27.000Z</time>
      </trkpt>
      <trkpt lat="48.48782" lon="0.21047">
        <ele>144.470841</ele>
        <time>2021-09-06T14:20:28.000Z</time>
      </trkpt>
      <trkpt lat="48.48788" lon="0.21071">
        <ele>144.428262</ele>
        <time>2021-09-06T14:20:32.000Z</time>
      </trkpt>
      <trkpt lat="48.48794" lon="0.21103">
        <ele>144.454372</ele>
        <time>2021-09-06T14:20:37.000Z</time>
      </trkpt>
      <trkpt lat="48.48797" lon="0.21115">
        <ele>144.541555</ele>
        <time>2021-09-06T14:20:39.000Z</time>
      </trkpt>
      <trkpt lat="48.48799" lon="0.21121">
        <ele>144.587963</ele>
        <time>2021-09-06T14:20:40.000Z</time>
      </trkpt>
      <trkpt lat="48.48801" lon="0.21128">
        <ele>144.63264</ele>
        <time>2021-09-06T14:20:41.000Z</time>
      </trkpt>
      <trkpt lat="48.48805" lon="0.2114">
        <ele>144.721307</ele>
        <time>2021-09-06T14:20:43.000Z</time>
      </trkpt>
      <trkpt lat="48.4881" lon="0.21157">
        <ele>144.84777</ele>
        <time>2021-09-06T14:20:46.000Z</time>
      </trkpt>
      <trkpt lat="48.48813" lon="0.21169">
        <ele>144.930437</ele>
        <time>2021-09-06T14:20:48.000Z</time>
      </trkpt>
      <trkpt lat="48.48819" lon="0.21195">
        <ele>145.112953</ele>
        <time>2021-09-06T14:20:53.000Z</time>
      </trkpt>
      <trkpt lat="48.48825" lon="0.21223">
        <ele>145.312539</ele>
        <time>2021-09-06T14:20:58.000Z</time>
      </trkpt>
      <trkpt lat="48.48835" lon="0.21257">
        <ele>145.554885</ele>
        <time>2021-09-06T14:21:03.000Z</time>
      </trkpt>
      <trkpt lat="48.48836" lon="0.21264">
        <ele>145.601236</ele>
        <time>2021-09-06T14:21:04.000Z</time>
      </trkpt>
      <trkpt lat="48.48838" lon="0.21277">
        <ele>145.690902</ele>
        <time>2021-09-06T14:21:06.000Z</time>
      </trkpt>
      <trkpt lat="48.4884" lon="0.21284">
        <ele>145.739981</ele>
        <time>2021-09-06T14:21:07.000Z</time>
      </trkpt>
      <trkpt lat="48.48847" lon="0.21304">
        <ele>145.896684</ele>
        <time>2021-09-06T14:21:10.000Z</time>
      </trkpt>
      <trkpt lat="48.48858" lon="0.21341">
        <ele>146.161413</ele>
        <time>2021-09-06T14:21:15.000Z</time>
      </trkpt>
      <trkpt lat="48.48864" lon="0.21362">
        <ele>146.371635</ele>
        <time>2021-09-06T14:21:18.000Z</time>
      </trkpt>
      <trkpt lat="48.48869" lon="0.21376">
        <ele>146.533053</ele>
        <time>2021-09-06T14:21:20.000Z</time>
      </trkpt>
      <trkpt lat="48.48874" lon="0.21396">
        <ele>146.750767</ele>
        <time>2021-09-06T14:21:23.000Z</time>
      </trkpt>
      <trkpt lat="48.48876" lon="0.21403">
        <ele>146.823446</ele>
        <time>2021-09-06T14:21:24.000Z</time>
      </trkpt>
      <trkpt lat="48.48884" lon="0.21428">
        <ele>147.104856</ele>
        <time>2021-09-06T14:21:28.000Z</time>
      </trkpt>
      <trkpt lat="48.48902" lon="0.21475">
        <ele>147.641348</ele>
        <time>2021-09-06T14:21:34.000Z</time>
      </trkpt>
      <trkpt lat="48.48916" lon="0.21525">
        <ele>148.186333</ele>
        <time>2021-09-06T14:21:40.000Z</time>
      </trkpt>
      <trkpt lat="48.48918" lon="0.21534">
        <ele>148.282401</ele>
        <time>2021-09-06T14:21:41.000Z</time>
      </trkpt>
      <trkpt lat="48.48926" lon="0.2156">
        <ele>148.565359</ele>
        <time>2021-09-06T14:21:44.000Z</time>
      </trkpt>
      <trkpt lat="48.48928" lon="0.21567">
        <ele>148.652265</ele>
        <time>2021-09-06T14:21:45.000Z</time>
      </trkpt>
      <trkpt lat="48.48939" lon="0.2161">
        <ele>148.988019</ele>
        <time>2021-09-06T14:21:50.000Z</time>
      </trkpt>
      <trkpt lat="48.48951" lon="0.21647">
        <ele>149.160288</ele>
        <time>2021-09-06T14:21:54.000Z</time>
      </trkpt>
      <trkpt lat="48.48954" lon="0.21655">
        <ele>149.200257</ele>
        <time>2021-09-06T14:21:55.000Z</time>
      </trkpt>
      <trkpt lat="48.48967" lon="0.21694">
        <ele>149.379364</ele>
        <time>2021-09-06T14:22:00.000Z</time>
      </trkpt>
      <trkpt lat="48.48972" lon="0.21706">
        <ele>149.440355</ele>
        <time>2021-09-06T14:22:02.000Z</time>
      </trkpt>
      <trkpt lat="48.48976" lon="0.21719">
        <ele>149.498313</ele>
        <time>2021-09-06T14:22:04.000Z</time>
      </trkpt>
      <trkpt lat="48.4898" lon="0.21739">
        <ele>149.587826</ele>
        <time>2021-09-06T14:22:07.000Z</time>
      </trkpt>
      <trkpt lat="48.48982" lon="0.21748">
        <ele>149.625431</ele>
        <time>2021-09-06T14:22:08.000Z</time>
      </trkpt>
      <trkpt lat="48.48988" lon="0.21771">
        <ele>149.733498</ele>
        <time>2021-09-06T14:22:11.000Z</time>
      </trkpt>
      <trkpt lat="48.48993" lon="0.21789">
        <ele>149.811428</ele>
        <time>2021-09-06T14:22:13.000Z</time>
      </trkpt>
      <trkpt lat="48.48996" lon="0.21797">
        <ele>149.851288</ele>
        <time>2021-09-06T14:22:14.000Z</time>
      </trkpt>
      <trkpt lat="48.49001" lon="0.21814">
        <ele>149.926903</ele>
        <time>2021-09-06T14:22:16.000Z</time>
      </trkpt>
      <trkpt lat="48.49003" lon="0.21823">
        <ele>149.967871</ele>
        <time>2021-09-06T14:22:17.000Z</time>
      </trkpt>
      <trkpt lat="48.49018" lon="0.21881">
        <ele>150.115131</ele>
        <time>2021-09-06T14:22:23.000Z</time>
      </trkpt>
      <trkpt lat="48.49021" lon="0.21892">
        <ele>150.134785</ele>
        <time>2021-09-06T14:22:24.000Z</time>
      </trkpt>
      <trkpt lat="48.49025" lon="0.21909">
        <ele>150.165538</ele>
        <time>2021-09-06T14:22:26.000Z</time>
      </trkpt>
      <trkpt lat="48.49027" lon="0.21919">
        <ele>150.183101</ele>
        <time>2021-09-06T14:22:27.000Z</time>
      </trkpt>
      <trkpt lat="48.49042" lon="0.21974">
        <ele>150.281865</ele>
        <time>2021-09-06T14:22:32.000Z</time>
      </trkpt>
      <trkpt lat="48.4906" lon="0.2203">
        <ele>150.385005</ele>
        <time>2021-09-06T14:22:37.000Z</time>
      </trkpt>
      <trkpt lat="48.49076" lon="0.22085">
        <ele>150.486231</ele>
        <time>2021-09-06T14:22:42.000Z</time>
      </trkpt>
      <trkpt lat="48.49084" lon="0.22115">
        <ele>150.441227</ele>
        <time>2021-09-06T14:22:45.000Z</time>
      </trkpt>
      <trkpt lat="48.49087" lon="0.22125">
        <ele>150.422248</ele>
        <time>2021-09-06T14:22:46.000Z</time>
      </trkpt>
      <trkpt lat="48.49096" lon="0.22163">
        <ele>150.350866</ele>
        <time>2021-09-06T14:22:50.000Z</time>
      </trkpt>
      <trkpt lat="48.49098" lon="0.22172">
        <ele>150.333896</ele>
        <time>2021-09-06T14:22:51.000Z</time>
      </trkpt>
      <trkpt lat="48.49111" lon="0.2221">
        <ele>150.256882</ele>
        <time>2021-09-06T14:22:55.000Z</time>
      </trkpt>
      <trkpt lat="48.49115" lon="0.22218">
        <ele>150.240284</ele>
        <time>2021-09-06T14:22:56.000Z</time>
      </trkpt>
      <trkpt lat="48.4912" lon="0.22234">
        <ele>150.207293</ele>
        <time>2021-09-06T14:22:58.000Z</time>
      </trkpt>
      <trkpt lat="48.49123" lon="0.22243">
        <ele>150.191209</ele>
        <time>2021-09-06T14:22:59.000Z</time>
      </trkpt>
      <trkpt lat="48.49137" lon="0.22296">
        <ele>150.08906</ele>
        <time>2021-09-06T14:23:05.000Z</time>
      </trkpt>
      <trkpt lat="48.49149" lon="0.22345">
        <ele>149.95241</ele>
        <time>2021-09-06T14:23:10.000Z</time>
      </trkpt>
      <trkpt lat="48.49164" lon="0.22397">
        <ele>149.561868</ele>
        <time>2021-09-06T14:23:15.000Z</time>
      </trkpt>
      <trkpt lat="48.49166" lon="0.22407">
        <ele>149.488265</ele>
        <time>2021-09-06T14:23:16.000Z</time>
      </trkpt>
      <trkpt lat="48.49174" lon="0.22439">
        <ele>149.256598</ele>
        <time>2021-09-06T14:23:19.000Z</time>
      </trkpt>
      <trkpt lat="48.49181" lon="0.2246">
        <ele>149.091577</ele>
        <time>2021-09-06T14:23:21.000Z</time>
      </trkpt>
      <trkpt lat="48.49198" lon="0.22513">
        <ele>148.685563</ele>
        <time>2021-09-06T14:23:26.000Z</time>
      </trkpt>
      <trkpt lat="48.49214" lon="0.22566">
        <ele>148.279857</ele>
        <time>2021-09-06T14:23:31.000Z</time>
      </trkpt>
      <trkpt lat="48.49217" lon="0.22577">
        <ele>148.197749</ele>
        <time>2021-09-06T14:23:32.000Z</time>
      </trkpt>
      <trkpt lat="48.49235" lon="0.22637">
        <ele>147.619892</ele>
        <time>2021-09-06T14:23:38.000Z</time>
      </trkpt>
      <trkpt lat="48.49247" lon="0.22676">
        <ele>147.219956</ele>
        <time>2021-09-06T14:23:42.000Z</time>
      </trkpt>
      <trkpt lat="48.49259" lon="0.22714">
        <ele>146.83422</ele>
        <time>2021-09-06T14:23:46.000Z</time>
      </trkpt>
      <trkpt lat="48.49262" lon="0.22723">
        <ele>146.742839</ele>
        <time>2021-09-06T14:23:47.000Z</time>
      </trkpt>
      <trkpt lat="48.49278" lon="0.22777">
        <ele>146.19599</ele>
        <time>2021-09-06T14:23:53.000Z</time>
      </trkpt>
      <trkpt lat="48.49287" lon="0.22812">
        <ele>145.854463</ele>
        <time>2021-09-06T14:23:57.000Z</time>
      </trkpt>
      <trkpt lat="48.49296" lon="0.22846">
        <ele>145.514592</ele>
        <time>2021-09-06T14:24:01.000Z</time>
      </trkpt>
      <trkpt lat="48.49299" lon="0.22855">
        <ele>145.413695</ele>
        <time>2021-09-06T14:24:02.000Z</time>
      </trkpt>
      <trkpt lat="48.49315" lon="0.22902">
        <ele>144.893607</ele>
        <time>2021-09-06T14:24:07.000Z</time>
      </trkpt>
      <trkpt lat="48.4933" lon="0.22954">
        <ele>144.331883</ele>
        <time>2021-09-06T14:24:13.000Z</time>
      </trkpt>
      <trkpt lat="48.49341" lon="0.2299">
        <ele>143.942165</ele>
        <time>2021-09-06T14:24:17.000Z</time>
      </trkpt>
      <trkpt lat="48.49343" lon="0.23">
        <ele>143.845088</ele>
        <time>2021-09-06T14:24:18.000Z</time>
      </trkpt>
      <trkpt lat="48.49348" lon="0.23018">
        <ele>143.65231</ele>
        <time>2021-09-06T14:24:20.000Z</time>
      </trkpt>
      <trkpt lat="48.49353" lon="0.23034">
        <ele>143.472694</ele>
        <time>2021-09-06T14:24:22.000Z</time>
      </trkpt>
      <trkpt lat="48.49366" lon="0.23086">
        <ele>142.919429</ele>
        <time>2021-09-06T14:24:28.000Z</time>
      </trkpt>
      <trkpt lat="48.49368" lon="0.23095">
        <ele>142.808285</ele>
        <time>2021-09-06T14:24:29.000Z</time>
      </trkpt>
      <trkpt lat="48.49377" lon="0.23123">
        <ele>142.437705</ele>
        <time>2021-09-06T14:24:32.000Z</time>
      </trkpt>
      <trkpt lat="48.49384" lon="0.2315">
        <ele>142.077382</ele>
        <time>2021-09-06T14:24:35.000Z</time>
      </trkpt>
      <trkpt lat="48.49392" lon="0.23177">
        <ele>141.722992</ele>
        <time>2021-09-06T14:24:38.000Z</time>
      </trkpt>
      <trkpt lat="48.49404" lon="0.23214">
        <ele>141.227557</ele>
        <time>2021-09-06T14:24:42.000Z</time>
      </trkpt>
      <trkpt lat="48.49409" lon="0.23232">
        <ele>140.985986</ele>
        <time>2021-09-06T14:24:44.000Z</time>
      </trkpt>
      <trkpt lat="48.49421" lon="0.23278">
        <ele>140.393812</ele>
        <time>2021-09-06T14:24:49.000Z</time>
      </trkpt>
      <trkpt lat="48.49424" lon="0.23287">
        <ele>140.268323</ele>
        <time>2021-09-06T14:24:50.000Z</time>
      </trkpt>
      <trkpt lat="48.49437" lon="0.23332">
        <ele>139.682408</ele>
        <time>2021-09-06T14:24:55.000Z</time>
      </trkpt>
      <trkpt lat="48.49438" lon="0.2334">
        <ele>139.594735</ele>
        <time>2021-09-06T14:24:56.000Z</time>
      </trkpt>
      <trkpt lat="48.49441" lon="0.23356">
        <ele>139.420681</ele>
        <time>2021-09-06T14:24:58.000Z</time>
      </trkpt>
      <trkpt lat="48.49447" lon="0.2338">
        <ele>139.148424</ele>
        <time>2021-09-06T14:25:01.000Z</time>
      </trkpt>
      <trkpt lat="48.49449" lon="0.23388">
        <ele>139.054175</ele>
        <time>2021-09-06T14:25:02.000Z</time>
      </trkpt>
      <trkpt lat="48.49461" lon="0.23432">
        <ele>138.539101</ele>
        <time>2021-09-06T14:25:07.000Z</time>
      </trkpt>
      <trkpt lat="48.49463" lon="0.2344">
        <ele>138.445244</ele>
        <time>2021-09-06T14:25:08.000Z</time>
      </trkpt>
      <trkpt lat="48.49472" lon="0.23467">
        <ele>138.127222</ele>
        <time>2021-09-06T14:25:11.000Z</time>
      </trkpt>
      <trkpt lat="48.49487" lon="0.2352">
        <ele>137.504486</ele>
        <time>2021-09-06T14:25:17.000Z</time>
      </trkpt>
      <trkpt lat="48.49492" lon="0.23536">
        <ele>137.318387</ele>
        <time>2021-09-06T14:25:19.000Z</time>
      </trkpt>
      <trkpt lat="48.49497" lon="0.23552">
        <ele>137.130392</ele>
        <time>2021-09-06T14:25:21.000Z</time>
      </trkpt>
      <trkpt lat="48.49509" lon="0.23594">
        <ele>136.798679</ele>
        <time>2021-09-06T14:25:26.000Z</time>
      </trkpt>
      <trkpt lat="48.49511" lon="0.23602">
        <ele>136.803789</ele>
        <time>2021-09-06T14:25:27.000Z</time>
      </trkpt>
      <trkpt lat="48.49513" lon="0.2361">
        <ele>136.808931</ele>
        <time>2021-09-06T14:25:28.000Z</time>
      </trkpt>
      <trkpt lat="48.49518" lon="0.23623">
        <ele>136.817965</ele>
        <time>2021-09-06T14:25:30.000Z</time>
      </trkpt>
      <trkpt lat="48.49521" lon="0.23631">
        <ele>136.823144</ele>
        <time>2021-09-06T14:25:31.000Z</time>
      </trkpt>
      <trkpt lat="48.49524" lon="0.2364">
        <ele>136.828467</ele>
        <time>2021-09-06T14:25:32.000Z</time>
      </trkpt>
      <trkpt lat="48.49532" lon="0.23667">
        <ele>136.84568</ele>
        <time>2021-09-06T14:25:35.000Z</time>
      </trkpt>
      <trkpt lat="48.49535" lon="0.23675">
        <ele>136.851547</ele>
        <time>2021-09-06T14:25:36.000Z</time>
      </trkpt>
      <trkpt lat="48.49542" lon="0.23693">
        <ele>136.863201</ele>
        <time>2021-09-06T14:25:38.000Z</time>
      </trkpt>
      <trkpt lat="48.49549" lon="0.23719">
        <ele>136.880006</ele>
        <time>2021-09-06T14:25:41.000Z</time>
      </trkpt>
      <trkpt lat="48.49554" lon="0.23736">
        <ele>136.89089</ele>
        <time>2021-09-06T14:25:43.000Z</time>
      </trkpt>
      <trkpt lat="48.49567" lon="0.23785">
        <ele>136.921605</ele>
        <time>2021-09-06T14:25:49.000Z</time>
      </trkpt>
      <trkpt lat="48.49569" lon="0.23793">
        <ele>136.926185</ele>
        <time>2021-09-06T14:25:50.000Z</time>
      </trkpt>
      <trkpt lat="48.49571" lon="0.238">
        <ele>136.930546</ele>
        <time>2021-09-06T14:25:51.000Z</time>
      </trkpt>
      <trkpt lat="48.49576" lon="0.23813">
        <ele>136.93958</ele>
        <time>2021-09-06T14:25:53.000Z</time>
      </trkpt>
      <trkpt lat="48.49584" lon="0.23844">
        <ele>137.05705</ele>
        <time>2021-09-06T14:25:57.000Z</time>
      </trkpt>
      <trkpt lat="48.49586" lon="0.23852">
        <ele>137.113194</ele>
        <time>2021-09-06T14:25:58.000Z</time>
      </trkpt>
      <trkpt lat="48.49588" lon="0.2386">
        <ele>137.166653</ele>
        <time>2021-09-06T14:25:59.000Z</time>
      </trkpt>
      <trkpt lat="48.49593" lon="0.23876">
        <ele>137.279921</ele>
        <time>2021-09-06T14:26:01.000Z</time>
      </trkpt>
      <trkpt lat="48.49595" lon="0.23885">
        <ele>137.338585</ele>
        <time>2021-09-06T14:26:02.000Z</time>
      </trkpt>
      <trkpt lat="48.49597" lon="0.23893">
        <ele>137.397267</ele>
        <time>2021-09-06T14:26:03.000Z</time>
      </trkpt>
      <trkpt lat="48.49605" lon="0.23921">
        <ele>137.584851</ele>
        <time>2021-09-06T14:26:06.000Z</time>
      </trkpt>
      <trkpt lat="48.4961" lon="0.23937">
        <ele>137.697137</ele>
        <time>2021-09-06T14:26:08.000Z</time>
      </trkpt>
      <trkpt lat="48.49613" lon="0.23953">
        <ele>137.806454</ele>
        <time>2021-09-06T14:26:10.000Z</time>
      </trkpt>
      <trkpt lat="48.49616" lon="0.23962">
        <ele>137.863607</ele>
        <time>2021-09-06T14:26:11.000Z</time>
      </trkpt>
      <trkpt lat="48.49622" lon="0.23987">
        <ele>138.034714</ele>
        <time>2021-09-06T14:26:14.000Z</time>
      </trkpt>
      <trkpt lat="48.49627" lon="0.24004">
        <ele>138.151135</ele>
        <time>2021-09-06T14:26:16.000Z</time>
      </trkpt>
      <trkpt lat="48.49632" lon="0.24022">
        <ele>138.275768</ele>
        <time>2021-09-06T14:26:18.000Z</time>
      </trkpt>
      <trkpt lat="48.49642" lon="0.24058">
        <ele>138.520497</ele>
        <time>2021-09-06T14:26:22.000Z</time>
      </trkpt>
      <trkpt lat="48.49644" lon="0.24067">
        <ele>138.583059</ele>
        <time>2021-09-06T14:26:23.000Z</time>
      </trkpt>
      <trkpt lat="48.49655" lon="0.2411">
        <ele>138.923549</ele>
        <time>2021-09-06T14:26:28.000Z</time>
      </trkpt>
      <trkpt lat="48.49657" lon="0.24125">
        <ele>139.041538</ele>
        <time>2021-09-06T14:26:30.000Z</time>
      </trkpt>
      <trkpt lat="48.4967" lon="0.24169">
        <ele>139.412303</ele>
        <time>2021-09-06T14:26:35.000Z</time>
      </trkpt>
      <trkpt lat="48.49681" lon="0.24213">
        <ele>139.776583</ele>
        <time>2021-09-06T14:26:40.000Z</time>
      </trkpt>
      <trkpt lat="48.49682" lon="0.2422">
        <ele>139.836454</ele>
        <time>2021-09-06T14:26:41.000Z</time>
      </trkpt>
      <trkpt lat="48.49684" lon="0.24228">
        <ele>139.90062</ele>
        <time>2021-09-06T14:26:42.000Z</time>
      </trkpt>
      <trkpt lat="48.49688" lon="0.24252">
        <ele>140.096284</ele>
        <time>2021-09-06T14:26:45.000Z</time>
      </trkpt>
      <trkpt lat="48.4969" lon="0.24261">
        <ele>140.164009</ele>
        <time>2021-09-06T14:26:46.000Z</time>
      </trkpt>
      <trkpt lat="48.49692" lon="0.24269">
        <ele>140.23146</ele>
        <time>2021-09-06T14:26:47.000Z</time>
      </trkpt>
      <trkpt lat="48.49696" lon="0.24283">
        <ele>140.353945</ele>
        <time>2021-09-06T14:26:49.000Z</time>
      </trkpt>
      <trkpt lat="48.49698" lon="0.2429">
        <ele>140.407861</ele>
        <time>2021-09-06T14:26:50.000Z</time>
      </trkpt>
      <trkpt lat="48.49702" lon="0.24313">
        <ele>140.596174</ele>
        <time>2021-09-06T14:26:54.000Z</time>
      </trkpt>
      <trkpt lat="48.4971" lon="0.24346">
        <ele>140.679931</ele>
        <time>2021-09-06T14:26:59.000Z</time>
      </trkpt>
      <trkpt lat="48.49722" lon="0.24407">
        <ele>140.19105</ele>
        <time>2021-09-06T14:27:07.000Z</time>
      </trkpt>
      <trkpt lat="48.49736" lon="0.24481">
        <ele>139.613409</ele>
        <time>2021-09-06T14:27:16.000Z</time>
      </trkpt>
      <trkpt lat="48.49746" lon="0.24539">
        <ele>139.156321</ele>
        <time>2021-09-06T14:27:23.000Z</time>
      </trkpt>
      <trkpt lat="48.49755" lon="0.24589">
        <ele>138.762334</ele>
        <time>2021-09-06T14:27:29.000Z</time>
      </trkpt>
      <trkpt lat="48.49756" lon="0.24597">
        <ele>138.698332</ele>
        <time>2021-09-06T14:27:30.000Z</time>
      </trkpt>
      <trkpt lat="48.49763" lon="0.24631">
        <ele>138.40734</ele>
        <time>2021-09-06T14:27:34.000Z</time>
      </trkpt>
      <trkpt lat="48.49765" lon="0.24639">
        <ele>138.33419</ele>
        <time>2021-09-06T14:27:35.000Z</time>
      </trkpt>
      <trkpt lat="48.49767" lon="0.24656">
        <ele>138.195097</ele>
        <time>2021-09-06T14:27:37.000Z</time>
      </trkpt>
      <trkpt lat="48.4977" lon="0.24672">
        <ele>138.056608</ele>
        <time>2021-09-06T14:27:39.000Z</time>
      </trkpt>
      <trkpt lat="48.49775" lon="0.24704">
        <ele>137.779839</ele>
        <time>2021-09-06T14:27:43.000Z</time>
      </trkpt>
      <trkpt lat="48.49778" lon="0.24713">
        <ele>137.701801</ele>
        <time>2021-09-06T14:27:44.000Z</time>
      </trkpt>
      <trkpt lat="48.49784" lon="0.2475">
        <ele>137.390401</ele>
        <time>2021-09-06T14:27:48.000Z</time>
      </trkpt>
      <trkpt lat="48.49784" lon="0.24757">
        <ele>137.333351</ele>
        <time>2021-09-06T14:27:49.000Z</time>
      </trkpt>
      <trkpt lat="48.49789" lon="0.2479">
        <ele>137.0497</ele>
        <time>2021-09-06T14:27:53.000Z</time>
      </trkpt>
      <trkpt lat="48.49793" lon="0.24807">
        <ele>136.902582</ele>
        <time>2021-09-06T14:27:55.000Z</time>
      </trkpt>
      <trkpt lat="48.49795" lon="0.24824">
        <ele>136.756856</ele>
        <time>2021-09-06T14:27:57.000Z</time>
      </trkpt>
      <trkpt lat="48.49799" lon="0.2485">
        <ele>136.540682</ele>
        <time>2021-09-06T14:28:00.000Z</time>
      </trkpt>
      <trkpt lat="48.498" lon="0.24858">
        <ele>136.471811</ele>
        <time>2021-09-06T14:28:01.000Z</time>
      </trkpt>
      <trkpt lat="48.49807" lon="0.24899">
        <ele>136.191474</ele>
        <time>2021-09-06T14:28:05.000Z</time>
      </trkpt>
      <trkpt lat="48.49813" lon="0.24928">
        <ele>135.986772</ele>
        <time>2021-09-06T14:28:08.000Z</time>
      </trkpt>
      <trkpt lat="48.49816" lon="0.24948">
        <ele>135.853585</ele>
        <time>2021-09-06T14:28:10.000Z</time>
      </trkpt>
      <trkpt lat="48.49824" lon="0.24996">
        <ele>135.521982</ele>
        <time>2021-09-06T14:28:15.000Z</time>
      </trkpt>
      <trkpt lat="48.49828" lon="0.25024">
        <ele>135.334929</ele>
        <time>2021-09-06T14:28:18.000Z</time>
      </trkpt>
      <trkpt lat="48.4983" lon="0.25041">
        <ele>135.218602</ele>
        <time>2021-09-06T14:28:20.000Z</time>
      </trkpt>
      <trkpt lat="48.49833" lon="0.2506">
        <ele>135.090603</ele>
        <time>2021-09-06T14:28:22.000Z</time>
      </trkpt>
      <trkpt lat="48.49838" lon="0.25098">
        <ele>134.8333</ele>
        <time>2021-09-06T14:28:26.000Z</time>
      </trkpt>
      <trkpt lat="48.49842" lon="0.25124">
        <ele>134.659447</ele>
        <time>2021-09-06T14:28:29.000Z</time>
      </trkpt>
      <trkpt lat="48.49843" lon="0.2514">
        <ele>134.58478</ele>
        <time>2021-09-06T14:28:31.000Z</time>
      </trkpt>
      <trkpt lat="48.49844" lon="0.25147">
        <ele>134.54848</ele>
        <time>2021-09-06T14:28:32.000Z</time>
      </trkpt>
      <trkpt lat="48.49845" lon="0.25163">
        <ele>134.476208</ele>
        <time>2021-09-06T14:28:34.000Z</time>
      </trkpt>
      <trkpt lat="48.49844" lon="0.25171">
        <ele>134.438349</ele>
        <time>2021-09-06T14:28:35.000Z</time>
      </trkpt>
      <trkpt lat="48.49845" lon="0.25179">
        <ele>134.399423</ele>
        <time>2021-09-06T14:28:36.000Z</time>
      </trkpt>
      <trkpt lat="48.4985" lon="0.25211">
        <ele>134.248004</ele>
        <time>2021-09-06T14:28:40.000Z</time>
      </trkpt>
      <trkpt lat="48.49853" lon="0.25232">
        <ele>134.143692</ele>
        <time>2021-09-06T14:28:43.000Z</time>
      </trkpt>
      <trkpt lat="48.49857" lon="0.25254">
        <ele>134.038927</ele>
        <time>2021-09-06T14:28:46.000Z</time>
      </trkpt>
      <trkpt lat="48.4986" lon="0.25276">
        <ele>133.934754</ele>
        <time>2021-09-06T14:28:49.000Z</time>
      </trkpt>
      <trkpt lat="48.49861" lon="0.25283">
        <ele>133.899503</ele>
        <time>2021-09-06T14:28:50.000Z</time>
      </trkpt>
      <trkpt lat="48.49863" lon="0.25298">
        <ele>133.827292</ele>
        <time>2021-09-06T14:28:52.000Z</time>
      </trkpt>
      <trkpt lat="48.49866" lon="0.25312">
        <ele>133.760203</ele>
        <time>2021-09-06T14:28:54.000Z</time>
      </trkpt>
      <trkpt lat="48.49866" lon="0.25319">
        <ele>133.729551</ele>
        <time>2021-09-06T14:28:55.000Z</time>
      </trkpt>
      <trkpt lat="48.49871" lon="0.2536">
        <ele>133.536252</ele>
        <time>2021-09-06T14:29:01.000Z</time>
      </trkpt>
      <trkpt lat="48.49874" lon="0.25403">
        <ele>133.410016</ele>
        <time>2021-09-06T14:29:06.000Z</time>
      </trkpt>
      <trkpt lat="48.49876" lon="0.2542">
        <ele>133.425696</ele>
        <time>2021-09-06T14:29:08.000Z</time>
      </trkpt>
      <trkpt lat="48.49879" lon="0.25448">
        <ele>133.451105</ele>
        <time>2021-09-06T14:29:11.000Z</time>
      </trkpt>
      <trkpt lat="48.49882" lon="0.25476">
        <ele>133.476367</ele>
        <time>2021-09-06T14:29:14.000Z</time>
      </trkpt>
      <trkpt lat="48.49889" lon="0.25553">
        <ele>133.545154</ele>
        <time>2021-09-06T14:29:22.000Z</time>
      </trkpt>
      <trkpt lat="48.49896" lon="0.25617">
        <ele>133.603481</ele>
        <time>2021-09-06T14:29:29.000Z</time>
      </trkpt>
      <trkpt lat="48.49897" lon="0.25626">
        <ele>133.611446</ele>
        <time>2021-09-06T14:29:30.000Z</time>
      </trkpt>
      <trkpt lat="48.49899" lon="0.25652">
        <ele>133.634506</ele>
        <time>2021-09-06T14:29:33.000Z</time>
      </trkpt>
      <trkpt lat="48.49903" lon="0.25678">
        <ele>133.621377</ele>
        <time>2021-09-06T14:29:36.000Z</time>
      </trkpt>
      <trkpt lat="48.49908" lon="0.25722">
        <ele>133.583078</ele>
        <time>2021-09-06T14:29:41.000Z</time>
      </trkpt>
      <trkpt lat="48.49915" lon="0.25782">
        <ele>133.530288</ele>
        <time>2021-09-06T14:29:48.000Z</time>
      </trkpt>
      <trkpt lat="48.49918" lon="0.25807">
        <ele>133.508115</ele>
        <time>2021-09-06T14:29:51.000Z</time>
      </trkpt>
      <trkpt lat="48.4992" lon="0.25832">
        <ele>133.486834</ele>
        <time>2021-09-06T14:29:54.000Z</time>
      </trkpt>
      <trkpt lat="48.49923" lon="0.25856">
        <ele>133.465207</ele>
        <time>2021-09-06T14:29:57.000Z</time>
      </trkpt>
      <trkpt lat="48.49926" lon="0.25882">
        <ele>133.442994</ele>
        <time>2021-09-06T14:30:00.000Z</time>
      </trkpt>
      <trkpt lat="48.49932" lon="0.25931">
        <ele>133.422188</ele>
        <time>2021-09-06T14:30:06.000Z</time>
      </trkpt>
      <trkpt lat="48.49935" lon="0.25973">
        <ele>133.544602</ele>
        <time>2021-09-06T14:30:11.000Z</time>
      </trkpt>
      <trkpt lat="48.49936" lon="0.25982">
        <ele>133.56902</ele>
        <time>2021-09-06T14:30:12.000Z</time>
      </trkpt>
      <trkpt lat="48.49941" lon="0.26032">
        <ele>133.713941</ele>
        <time>2021-09-06T14:30:18.000Z</time>
      </trkpt>
      <trkpt lat="48.49944" lon="0.26066">
        <ele>133.810908</ele>
        <time>2021-09-06T14:30:22.000Z</time>
      </trkpt>
      <trkpt lat="48.49946" lon="0.26089">
        <ele>133.87865</ele>
        <time>2021-09-06T14:30:25.000Z</time>
      </trkpt>
      <trkpt lat="48.49948" lon="0.26104">
        <ele>133.922842</ele>
        <time>2021-09-06T14:30:27.000Z</time>
      </trkpt>
      <trkpt lat="48.49951" lon="0.26119">
        <ele>133.967227</ele>
        <time>2021-09-06T14:30:29.000Z</time>
      </trkpt>
      <trkpt lat="48.49952" lon="0.26136">
        <ele>134.014099</ele>
        <time>2021-09-06T14:30:31.000Z</time>
      </trkpt>
      <trkpt lat="48.49957" lon="0.2617">
        <ele>134.113729</ele>
        <time>2021-09-06T14:30:35.000Z</time>
      </trkpt>
      <trkpt lat="48.49959" lon="0.26186">
        <ele>134.161919</ele>
        <time>2021-09-06T14:30:37.000Z</time>
      </trkpt>
      <trkpt lat="48.49967" lon="0.26247">
        <ele>134.471405</ele>
        <time>2021-09-06T14:30:44.000Z</time>
      </trkpt>
      <trkpt lat="48.49968" lon="0.26264">
        <ele>134.562939</ele>
        <time>2021-09-06T14:30:46.000Z</time>
      </trkpt>
      <trkpt lat="48.49972" lon="0.26296">
        <ele>134.73641</ele>
        <time>2021-09-06T14:30:50.000Z</time>
      </trkpt>
      <trkpt lat="48.49974" lon="0.26322">
        <ele>134.87366</ele>
        <time>2021-09-06T14:30:53.000Z</time>
      </trkpt>
      <trkpt lat="48.49976" lon="0.26339">
        <ele>134.964239</ele>
        <time>2021-09-06T14:30:55.000Z</time>
      </trkpt>
      <trkpt lat="48.49981" lon="0.26389">
        <ele>135.22958</ele>
        <time>2021-09-06T14:31:01.000Z</time>
      </trkpt>
      <trkpt lat="48.49982" lon="0.26395">
        <ele>135.263761</ele>
        <time>2021-09-06T14:31:02.000Z</time>
      </trkpt>
      <trkpt lat="48.49986" lon="0.26418">
        <ele>135.386896</ele>
        <time>2021-09-06T14:31:06.000Z</time>
      </trkpt>
      <trkpt lat="48.49986" lon="0.26424">
        <ele>135.421719</ele>
        <time>2021-09-06T14:31:07.000Z</time>
      </trkpt>
      <trkpt lat="48.49987" lon="0.26439">
        <ele>135.497717</ele>
        <time>2021-09-06T14:31:09.000Z</time>
      </trkpt>
      <trkpt lat="48.49991" lon="0.26461">
        <ele>135.615934</ele>
        <time>2021-09-06T14:31:12.000Z</time>
      </trkpt>
      <trkpt lat="48.49997" lon="0.2651">
        <ele>135.748688</ele>
        <time>2021-09-06T14:31:18.000Z</time>
      </trkpt>
      <trkpt lat="48.49999" lon="0.26518">
        <ele>135.77065</ele>
        <time>2021-09-06T14:31:19.000Z</time>
      </trkpt>
      <trkpt lat="48.50004" lon="0.26556">
        <ele>135.87525</ele>
        <time>2021-09-06T14:31:24.000Z</time>
      </trkpt>
      <trkpt lat="48.50005" lon="0.26563">
        <ele>135.89408</ele>
        <time>2021-09-06T14:31:25.000Z</time>
      </trkpt>
      <trkpt lat="48.5001" lon="0.2661">
        <ele>136.020479</ele>
        <time>2021-09-06T14:31:31.000Z</time>
      </trkpt>
      <trkpt lat="48.50015" lon="0.26648">
        <ele>136.125263</ele>
        <time>2021-09-06T14:31:36.000Z</time>
      </trkpt>
      <trkpt lat="48.50017" lon="0.26664">
        <ele>136.168404</ele>
        <time>2021-09-06T14:31:38.000Z</time>
      </trkpt>
      <trkpt lat="48.5002" lon="0.26688">
        <ele>136.234479</ele>
        <time>2021-09-06T14:31:41.000Z</time>
      </trkpt>
      <trkpt lat="48.50021" lon="0.26696">
        <ele>136.255488</ele>
        <time>2021-09-06T14:31:42.000Z</time>
      </trkpt>
      <trkpt lat="48.50028" lon="0.2673">
        <ele>136.359434</ele>
        <time>2021-09-06T14:31:46.000Z</time>
      </trkpt>
      <trkpt lat="48.50035" lon="0.26773">
        <ele>136.548263</ele>
        <time>2021-09-06T14:31:51.000Z</time>
      </trkpt>
      <trkpt lat="48.50036" lon="0.26781">
        <ele>136.582242</ele>
        <time>2021-09-06T14:31:52.000Z</time>
      </trkpt>
      <trkpt lat="48.50037" lon="0.26789">
        <ele>136.617117</ele>
        <time>2021-09-06T14:31:53.000Z</time>
      </trkpt>
      <trkpt lat="48.50042" lon="0.26814">
        <ele>136.7286</ele>
        <time>2021-09-06T14:31:56.000Z</time>
      </trkpt>
      <trkpt lat="48.50043" lon="0.26823">
        <ele>136.764886</ele>
        <time>2021-09-06T14:31:57.000Z</time>
      </trkpt>
      <trkpt lat="48.50044" lon="0.26831">
        <ele>136.799346</ele>
        <time>2021-09-06T14:31:58.000Z</time>
      </trkpt>
      <trkpt lat="48.50049" lon="0.26863">
        <ele>136.940826</ele>
        <time>2021-09-06T14:32:02.000Z</time>
      </trkpt>
      <trkpt lat="48.50053" lon="0.26893">
        <ele>137.07129</ele>
        <time>2021-09-06T14:32:06.000Z</time>
      </trkpt>
      <trkpt lat="48.50054" lon="0.26899">
        <ele>137.098834</ele>
        <time>2021-09-06T14:32:07.000Z</time>
      </trkpt>
      <trkpt lat="48.50057" lon="0.26928">
        <ele>137.221538</ele>
        <time>2021-09-06T14:32:11.000Z</time>
      </trkpt>
      <trkpt lat="48.5006" lon="0.26943">
        <ele>137.287157</ele>
        <time>2021-09-06T14:32:13.000Z</time>
      </trkpt>
      <trkpt lat="48.50067" lon="0.26973">
        <ele>137.422568</ele>
        <time>2021-09-06T14:32:17.000Z</time>
      </trkpt>
      <trkpt lat="48.5007" lon="0.26987">
        <ele>137.487923</ele>
        <time>2021-09-06T14:32:19.000Z</time>
      </trkpt>
      <trkpt lat="48.50076" lon="0.27009">
        <ele>137.66931</ele>
        <time>2021-09-06T14:32:22.000Z</time>
      </trkpt>
      <trkpt lat="48.5008" lon="0.27032">
        <ele>137.850713</ele>
        <time>2021-09-06T14:32:25.000Z</time>
      </trkpt>
      <trkpt lat="48.50083" lon="0.27047">
        <ele>137.973352</ele>
        <time>2021-09-06T14:32:27.000Z</time>
      </trkpt>
      <trkpt lat="48.50084" lon="0.27055">
        <ele>138.032994</ele>
        <time>2021-09-06T14:32:28.000Z</time>
      </trkpt>
      <trkpt lat="48.50087" lon="0.27069">
        <ele>138.149191</ele>
        <time>2021-09-06T14:32:30.000Z</time>
      </trkpt>
      <trkpt lat="48.50091" lon="0.2709">
        <ele>138.322396</ele>
        <time>2021-09-06T14:32:33.000Z</time>
      </trkpt>
      <trkpt lat="48.50093" lon="0.27104">
        <ele>138.426463</ele>
        <time>2021-09-06T14:32:35.000Z</time>
      </trkpt>
      <trkpt lat="48.50096" lon="0.27118">
        <ele>138.542925</ele>
        <time>2021-09-06T14:32:37.000Z</time>
      </trkpt>
      <trkpt lat="48.50105" lon="0.27162">
        <ele>138.904811</ele>
        <time>2021-09-06T14:32:43.000Z</time>
      </trkpt>
      <trkpt lat="48.50118" lon="0.27218">
        <ele>139.364449</ele>
        <time>2021-09-06T14:32:50.000Z</time>
      </trkpt>
      <trkpt lat="48.50122" lon="0.27234">
        <ele>139.49638</ele>
        <time>2021-09-06T14:32:52.000Z</time>
      </trkpt>
      <trkpt lat="48.50126" lon="0.2725">
        <ele>139.622608</ele>
        <time>2021-09-06T14:32:54.000Z</time>
      </trkpt>
      <trkpt lat="48.50137" lon="0.27305">
        <ele>139.948731</ele>
        <time>2021-09-06T14:33:01.000Z</time>
      </trkpt>
      <trkpt lat="48.50144" lon="0.27337">
        <ele>140.139667</ele>
        <time>2021-09-06T14:33:06.000Z</time>
      </trkpt>
      <trkpt lat="48.50152" lon="0.27369">
        <ele>140.332062</ele>
        <time>2021-09-06T14:33:12.000Z</time>
      </trkpt>
      <trkpt lat="48.50163" lon="0.27416">
        <ele>140.614826</ele>
        <time>2021-09-06T14:33:19.000Z</time>
      </trkpt>
      <trkpt lat="48.50173" lon="0.27462">
        <ele>140.889513</ele>
        <time>2021-09-06T14:33:26.000Z</time>
      </trkpt>
      <trkpt lat="48.50181" lon="0.275">
        <ele>141.114144</ele>
        <time>2021-09-06T14:33:32.000Z</time>
      </trkpt>
      <trkpt lat="48.50188" lon="0.27537">
        <ele>141.247461</ele>
        <time>2021-09-06T14:33:39.000Z</time>
      </trkpt>
      <trkpt lat="48.50195" lon="0.27573">
        <ele>141.363308</ele>
        <time>2021-09-06T14:33:45.000Z</time>
      </trkpt>
      <trkpt lat="48.50197" lon="0.27585">
        <ele>141.402295</ele>
        <time>2021-09-06T14:33:47.000Z</time>
      </trkpt>
      <trkpt lat="48.50201" lon="0.27598">
        <ele>141.447495</ele>
        <time>2021-09-06T14:33:49.000Z</time>
      </trkpt>
      <trkpt lat="48.50202" lon="0.27606">
        <ele>141.471644</ele>
        <time>2021-09-06T14:33:50.000Z</time>
      </trkpt>
      <trkpt lat="48.50207" lon="0.27627">
        <ele>141.543041</ele>
        <time>2021-09-06T14:33:53.000Z</time>
      </trkpt>
      <trkpt lat="48.50209" lon="0.27642">
        <ele>141.588857</ele>
        <time>2021-09-06T14:33:55.000Z</time>
      </trkpt>
      <trkpt lat="48.50221" lon="0.27687">
        <ele>141.741349</ele>
        <time>2021-09-06T14:34:01.000Z</time>
      </trkpt>
      <trkpt lat="48.50233" lon="0.27748">
        <ele>141.937657</ele>
        <time>2021-09-06T14:34:09.000Z</time>
      </trkpt>
      <trkpt lat="48.50238" lon="0.27775">
        <ele>142.009723</ele>
        <time>2021-09-06T14:34:13.000Z</time>
      </trkpt>
      <trkpt lat="48.5024" lon="0.27783">
        <ele>142.022619</ele>
        <time>2021-09-06T14:34:14.000Z</time>
      </trkpt>
      <trkpt lat="48.50244" lon="0.27804">
        <ele>142.061628</ele>
        <time>2021-09-06T14:34:17.000Z</time>
      </trkpt>
      <trkpt lat="48.50252" lon="0.27834">
        <ele>142.115662</ele>
        <time>2021-09-06T14:34:21.000Z</time>
      </trkpt>
      <trkpt lat="48.50253" lon="0.27842">
        <ele>142.129405</ele>
        <time>2021-09-06T14:34:22.000Z</time>
      </trkpt>
      <trkpt lat="48.50264" lon="0.27894">
        <ele>142.223475</ele>
        <time>2021-09-06T14:34:29.000Z</time>
      </trkpt>
      <trkpt lat="48.50273" lon="0.27931">
        <ele>142.289649</ele>
        <time>2021-09-06T14:34:34.000Z</time>
      </trkpt>
      <trkpt lat="48.50281" lon="0.27968">
        <ele>142.356474</ele>
        <time>2021-09-06T14:34:39.000Z</time>
      </trkpt>
      <trkpt lat="48.50282" lon="0.27974">
        <ele>142.367653</ele>
        <time>2021-09-06T14:34:40.000Z</time>
      </trkpt>
      <trkpt lat="48.50284" lon="0.27988">
        <ele>142.392824</ele>
        <time>2021-09-06T14:34:42.000Z</time>
      </trkpt>
      <trkpt lat="48.50288" lon="0.28003">
        <ele>142.418857</ele>
        <time>2021-09-06T14:34:44.000Z</time>
      </trkpt>
      <trkpt lat="48.50298" lon="0.28049">
        <ele>142.491258</ele>
        <time>2021-09-06T14:34:50.000Z</time>
      </trkpt>
      <trkpt lat="48.50299" lon="0.28057">
        <ele>142.502387</ele>
        <time>2021-09-06T14:34:51.000Z</time>
      </trkpt>
      <trkpt lat="48.50305" lon="0.28087">
        <ele>142.543748</ele>
        <time>2021-09-06T14:34:55.000Z</time>
      </trkpt>
      <trkpt lat="48.50313" lon="0.28118">
        <ele>142.587905</ele>
        <time>2021-09-06T14:34:59.000Z</time>
      </trkpt>
      <trkpt lat="48.50316" lon="0.28133">
        <ele>142.608871</ele>
        <time>2021-09-06T14:35:01.000Z</time>
      </trkpt>
      <trkpt lat="48.50324" lon="0.28169">
        <ele>142.660587</ele>
        <time>2021-09-06T14:35:06.000Z</time>
      </trkpt>
      <trkpt lat="48.50328" lon="0.28192">
        <ele>142.69221</ele>
        <time>2021-09-06T14:35:09.000Z</time>
      </trkpt>
      <trkpt lat="48.50332" lon="0.28207">
        <ele>142.713371</ele>
        <time>2021-09-06T14:35:11.000Z</time>
      </trkpt>
      <trkpt lat="48.50342" lon="0.28255">
        <ele>142.780657</ele>
        <time>2021-09-06T14:35:17.000Z</time>
      </trkpt>
      <trkpt lat="48.5035" lon="0.28292">
        <ele>142.838201</ele>
        <time>2021-09-06T14:35:22.000Z</time>
      </trkpt>
      <trkpt lat="48.50352" lon="0.283">
        <ele>142.851912</ele>
        <time>2021-09-06T14:35:23.000Z</time>
      </trkpt>
      <trkpt lat="48.50359" lon="0.28331">
        <ele>142.908283</ele>
        <time>2021-09-06T14:35:27.000Z</time>
      </trkpt>
      <trkpt lat="48.5037" lon="0.28378">
        <ele>142.992222</ele>
        <time>2021-09-06T14:35:33.000Z</time>
      </trkpt>
      <trkpt lat="48.50371" lon="0.28386">
        <ele>143.00707</ele>
        <time>2021-09-06T14:35:34.000Z</time>
      </trkpt>
      <trkpt lat="48.50378" lon="0.28417">
        <ele>143.061506</ele>
        <time>2021-09-06T14:35:38.000Z</time>
      </trkpt>
      <trkpt lat="48.50391" lon="0.28477">
        <ele>143.169636</ele>
        <time>2021-09-06T14:35:46.000Z</time>
      </trkpt>
      <trkpt lat="48.50398" lon="0.285">
        <ele>143.212126</ele>
        <time>2021-09-06T14:35:50.000Z</time>
      </trkpt>
      <trkpt lat="48.50399" lon="0.28506">
        <ele>143.222866</ele>
        <time>2021-09-06T14:35:51.000Z</time>
      </trkpt>
      <trkpt lat="48.50401" lon="0.2852">
        <ele>143.247426</ele>
        <time>2021-09-06T14:35:53.000Z</time>
      </trkpt>
      <trkpt lat="48.50404" lon="0.28535">
        <ele>143.273471</ele>
        <time>2021-09-06T14:35:55.000Z</time>
      </trkpt>
      <trkpt lat="48.50418" lon="0.28597">
        <ele>143.243409</ele>
        <time>2021-09-06T14:36:03.000Z</time>
      </trkpt>
      <trkpt lat="48.5042" lon="0.28605">
        <ele>143.239094</ele>
        <time>2021-09-06T14:36:04.000Z</time>
      </trkpt>
      <trkpt lat="48.50429" lon="0.28645">
        <ele>143.217517</ele>
        <time>2021-09-06T14:36:09.000Z</time>
      </trkpt>
      <trkpt lat="48.50443" lon="0.28712">
        <ele>143.182418</ele>
        <time>2021-09-06T14:36:17.000Z</time>
      </trkpt>
      <trkpt lat="48.50448" lon="0.28736">
        <ele>143.16928</ele>
        <time>2021-09-06T14:36:20.000Z</time>
      </trkpt>
      <trkpt lat="48.50454" lon="0.2876">
        <ele>143.156382</ele>
        <time>2021-09-06T14:36:23.000Z</time>
      </trkpt>
      <trkpt lat="48.50462" lon="0.28801">
        <ele>143.110921</ele>
        <time>2021-09-06T14:36:28.000Z</time>
      </trkpt>
      <trkpt lat="48.50471" lon="0.28841">
        <ele>142.951167</ele>
        <time>2021-09-06T14:36:33.000Z</time>
      </trkpt>
      <trkpt lat="48.50473" lon="0.28849">
        <ele>142.919748</ele>
        <time>2021-09-06T14:36:34.000Z</time>
      </trkpt>
      <trkpt lat="48.50477" lon="0.28874">
        <ele>142.822766</ele>
        <time>2021-09-06T14:36:37.000Z</time>
      </trkpt>
      <trkpt lat="48.50482" lon="0.28901">
        <ele>142.720746</ele>
        <time>2021-09-06T14:36:40.000Z</time>
      </trkpt>
      <trkpt lat="48.5049" lon="0.28934">
        <ele>142.586707</ele>
        <time>2021-09-06T14:36:44.000Z</time>
      </trkpt>
      <trkpt lat="48.50492" lon="0.28942">
        <ele>142.556692</ele>
        <time>2021-09-06T14:36:45.000Z</time>
      </trkpt>
      <trkpt lat="48.50501" lon="0.28993">
        <ele>142.359495</ele>
        <time>2021-09-06T14:36:51.000Z</time>
      </trkpt>
      <trkpt lat="48.50505" lon="0.29009">
        <ele>142.294516</ele>
        <time>2021-09-06T14:36:53.000Z</time>
      </trkpt>
      <trkpt lat="48.50509" lon="0.29035">
        <ele>142.193938</ele>
        <time>2021-09-06T14:36:56.000Z</time>
      </trkpt>
      <trkpt lat="48.50522" lon="0.29088">
        <ele>141.868543</ele>
        <time>2021-09-06T14:37:02.000Z</time>
      </trkpt>
      <trkpt lat="48.50536" lon="0.29152">
        <ele>141.406634</ele>
        <time>2021-09-06T14:37:09.000Z</time>
      </trkpt>
      <trkpt lat="48.50542" lon="0.29178">
        <ele>141.219923</ele>
        <time>2021-09-06T14:37:12.000Z</time>
      </trkpt>
      <trkpt lat="48.50548" lon="0.29204">
        <ele>141.03406</ele>
        <time>2021-09-06T14:37:15.000Z</time>
      </trkpt>
      <trkpt lat="48.50561" lon="0.29263">
        <ele>140.609755</ele>
        <time>2021-09-06T14:37:22.000Z</time>
      </trkpt>
      <trkpt lat="48.50573" lon="0.29313">
        <ele>140.249173</ele>
        <time>2021-09-06T14:37:28.000Z</time>
      </trkpt>
      <trkpt lat="48.50588" lon="0.2938">
        <ele>139.851333</ele>
        <time>2021-09-06T14:37:36.000Z</time>
      </trkpt>
      <trkpt lat="48.50598" lon="0.29428">
        <ele>139.571364</ele>
        <time>2021-09-06T14:37:42.000Z</time>
      </trkpt>
      <trkpt lat="48.50607" lon="0.29477">
        <ele>139.288321</ele>
        <time>2021-09-06T14:37:48.000Z</time>
      </trkpt>
      <trkpt lat="48.50615" lon="0.29519">
        <ele>139.041499</ele>
        <time>2021-09-06T14:37:53.000Z</time>
      </trkpt>
      <trkpt lat="48.50632" lon="0.29594">
        <ele>138.718329</ele>
        <time>2021-09-06T14:38:02.000Z</time>
      </trkpt>
      <trkpt lat="48.50645" lon="0.29651">
        <ele>138.654253</ele>
        <time>2021-09-06T14:38:09.000Z</time>
      </trkpt>
      <trkpt lat="48.50646" lon="0.2966">
        <ele>138.644906</ele>
        <time>2021-09-06T14:38:10.000Z</time>
      </trkpt>
      <trkpt lat="48.50654" lon="0.29695">
        <ele>138.606208</ele>
        <time>2021-09-06T14:38:14.000Z</time>
      </trkpt>
      <trkpt lat="48.50665" lon="0.29746">
        <ele>138.549267</ele>
        <time>2021-09-06T14:38:20.000Z</time>
      </trkpt>
      <trkpt lat="48.50679" lon="0.29817">
        <ele>138.470399</ele>
        <time>2021-09-06T14:38:28.000Z</time>
      </trkpt>
      <trkpt lat="48.50693" lon="0.29873">
        <ele>138.565291</ele>
        <time>2021-09-06T14:38:35.000Z</time>
      </trkpt>
      <trkpt lat="48.50696" lon="0.2989">
        <ele>138.601823</ele>
        <time>2021-09-06T14:38:37.000Z</time>
      </trkpt>
      <trkpt lat="48.50701" lon="0.29914">
        <ele>138.657229</ele>
        <time>2021-09-06T14:38:40.000Z</time>
      </trkpt>
      <trkpt lat="48.50705" lon="0.29942">
        <ele>138.719276</ele>
        <time>2021-09-06T14:38:44.000Z</time>
      </trkpt>
      <trkpt lat="48.50712" lon="0.29976">
        <ele>138.794252</ele>
        <time>2021-09-06T14:38:48.000Z</time>
      </trkpt>
      <trkpt lat="48.50714" lon="0.29984">
        <ele>138.813538</ele>
        <time>2021-09-06T14:38:49.000Z</time>
      </trkpt>
      <trkpt lat="48.50727" lon="0.30044">
        <ele>138.949913</ele>
        <time>2021-09-06T14:38:56.000Z</time>
      </trkpt>
      <trkpt lat="48.50736" lon="0.30084">
        <ele>139.039264</ele>
        <time>2021-09-06T14:39:01.000Z</time>
      </trkpt>
      <trkpt lat="48.50746" lon="0.30131">
        <ele>139.240508</ele>
        <time>2021-09-06T14:39:07.000Z</time>
      </trkpt>
      <trkpt lat="48.50758" lon="0.30187">
        <ele>139.486138</ele>
        <time>2021-09-06T14:39:14.000Z</time>
      </trkpt>
      <trkpt lat="48.5076" lon="0.30195">
        <ele>139.520625</ele>
        <time>2021-09-06T14:39:15.000Z</time>
      </trkpt>
      <trkpt lat="48.50779" lon="0.30276">
        <ele>139.876212</ele>
        <time>2021-09-06T14:39:25.000Z</time>
      </trkpt>
      <trkpt lat="48.50791" lon="0.30333">
        <ele>140.127947</ele>
        <time>2021-09-06T14:39:32.000Z</time>
      </trkpt>
      <trkpt lat="48.50804" lon="0.30391">
        <ele>140.399323</ele>
        <time>2021-09-06T14:39:39.000Z</time>
      </trkpt>
      <trkpt lat="48.50816" lon="0.30449">
        <ele>140.668563</ele>
        <time>2021-09-06T14:39:46.000Z</time>
      </trkpt>
      <trkpt lat="48.50829" lon="0.30514">
        <ele>140.97487</ele>
        <time>2021-09-06T14:39:54.000Z</time>
      </trkpt>
      <trkpt lat="48.50836" lon="0.30545">
        <ele>141.12251</ele>
        <time>2021-09-06T14:39:58.000Z</time>
      </trkpt>
      <trkpt lat="48.50848" lon="0.30602">
        <ele>141.387934</ele>
        <time>2021-09-06T14:40:05.000Z</time>
      </trkpt>
      <trkpt lat="48.50861" lon="0.30657">
        <ele>141.6967</ele>
        <time>2021-09-06T14:40:12.000Z</time>
      </trkpt>
      <trkpt lat="48.50871" lon="0.30705">
        <ele>141.959051</ele>
        <time>2021-09-06T14:40:18.000Z</time>
      </trkpt>
      <trkpt lat="48.50883" lon="0.3076">
        <ele>142.263095</ele>
        <time>2021-09-06T14:40:25.000Z</time>
      </trkpt>
      <trkpt lat="48.50897" lon="0.30824">
        <ele>142.612555</ele>
        <time>2021-09-06T14:40:33.000Z</time>
      </trkpt>
      <trkpt lat="48.50912" lon="0.30895">
        <ele>143.001512</ele>
        <time>2021-09-06T14:40:42.000Z</time>
      </trkpt>
      <trkpt lat="48.50925" lon="0.3095">
        <ele>143.301613</ele>
        <time>2021-09-06T14:40:49.000Z</time>
      </trkpt>
      <trkpt lat="48.50939" lon="0.31015">
        <ele>143.65153</ele>
        <time>2021-09-06T14:40:57.000Z</time>
      </trkpt>
      <trkpt lat="48.50949" lon="0.31065">
        <ele>143.91799</ele>
        <time>2021-09-06T14:41:03.000Z</time>
      </trkpt>
      <trkpt lat="48.50954" lon="0.31096">
        <ele>144.086475</ele>
        <time>2021-09-06T14:41:07.000Z</time>
      </trkpt>
      <trkpt lat="48.50956" lon="0.31104">
        <ele>144.126779</ele>
        <time>2021-09-06T14:41:08.000Z</time>
      </trkpt>
      <trkpt lat="48.50967" lon="0.31152">
        <ele>144.416446</ele>
        <time>2021-09-06T14:41:14.000Z</time>
      </trkpt>
      <trkpt lat="48.50975" lon="0.31191">
        <ele>144.661294</ele>
        <time>2021-09-06T14:41:19.000Z</time>
      </trkpt>
      <trkpt lat="48.50977" lon="0.31198">
        <ele>144.707444</ele>
        <time>2021-09-06T14:41:20.000Z</time>
      </trkpt>
      <trkpt lat="48.50982" lon="0.31221">
        <ele>144.850117</ele>
        <time>2021-09-06T14:41:23.000Z</time>
      </trkpt>
      <trkpt lat="48.50988" lon="0.31255">
        <ele>145.058977</ele>
        <time>2021-09-06T14:41:28.000Z</time>
      </trkpt>
      <trkpt lat="48.50994" lon="0.31289">
        <ele>145.264535</ele>
        <time>2021-09-06T14:41:33.000Z</time>
      </trkpt>
      <trkpt lat="48.50998" lon="0.31316">
        <ele>145.430118</ele>
        <time>2021-09-06T14:41:37.000Z</time>
      </trkpt>
      <trkpt lat="48.51" lon="0.31324">
        <ele>145.480208</ele>
        <time>2021-09-06T14:41:38.000Z</time>
      </trkpt>
      <trkpt lat="48.51002" lon="0.31332">
        <ele>145.531976</ele>
        <time>2021-09-06T14:41:39.000Z</time>
      </trkpt>
      <trkpt lat="48.5101" lon="0.31362">
        <ele>145.72097</ele>
        <time>2021-09-06T14:41:43.000Z</time>
      </trkpt>
      <trkpt lat="48.51019" lon="0.31401">
        <ele>145.81875</ele>
        <time>2021-09-06T14:41:48.000Z</time>
      </trkpt>
      <trkpt lat="48.51026" lon="0.31431">
        <ele>145.825288</ele>
        <time>2021-09-06T14:41:52.000Z</time>
      </trkpt>
      <trkpt lat="48.51029" lon="0.31446">
        <ele>145.828409</ele>
        <time>2021-09-06T14:41:54.000Z</time>
      </trkpt>
      <trkpt lat="48.51031" lon="0.31453">
        <ele>145.829984</ele>
        <time>2021-09-06T14:41:55.000Z</time>
      </trkpt>
      <trkpt lat="48.51032" lon="0.3146">
        <ele>145.831565</ele>
        <time>2021-09-06T14:41:56.000Z</time>
      </trkpt>
      <trkpt lat="48.51039" lon="0.31487">
        <ele>145.837329</ele>
        <time>2021-09-06T14:42:00.000Z</time>
      </trkpt>
      <trkpt lat="48.51042" lon="0.315">
        <ele>145.840229</ele>
        <time>2021-09-06T14:42:02.000Z</time>
      </trkpt>
      <trkpt lat="48.51047" lon="0.31528">
        <ele>145.84615</ele>
        <time>2021-09-06T14:42:06.000Z</time>
      </trkpt>
      <trkpt lat="48.51056" lon="0.31574">
        <ele>145.856022</ele>
        <time>2021-09-06T14:42:13.000Z</time>
      </trkpt>
      <trkpt lat="48.51066" lon="0.31621">
        <ele>145.866105</ele>
        <time>2021-09-06T14:42:20.000Z</time>
      </trkpt>
      <trkpt lat="48.51075" lon="0.31659">
        <ele>145.686282</ele>
        <time>2021-09-06T14:42:25.000Z</time>
      </trkpt>
      <trkpt lat="48.51077" lon="0.31667">
        <ele>145.630446</ele>
        <time>2021-09-06T14:42:26.000Z</time>
      </trkpt>
      <trkpt lat="48.51085" lon="0.31704">
        <ele>145.354184</ele>
        <time>2021-09-06T14:42:31.000Z</time>
      </trkpt>
      <trkpt lat="48.51089" lon="0.31719">
        <ele>145.246508</ele>
        <time>2021-09-06T14:42:33.000Z</time>
      </trkpt>
      <trkpt lat="48.51094" lon="0.31741">
        <ele>145.083118</ele>
        <time>2021-09-06T14:42:36.000Z</time>
      </trkpt>
      <trkpt lat="48.51096" lon="0.31756">
        <ele>144.976237</ele>
        <time>2021-09-06T14:42:38.000Z</time>
      </trkpt>
      <trkpt lat="48.51099" lon="0.3177">
        <ele>144.869877</ele>
        <time>2021-09-06T14:42:40.000Z</time>
      </trkpt>
      <trkpt lat="48.51103" lon="0.31793">
        <ele>144.710436</ele>
        <time>2021-09-06T14:42:43.000Z</time>
      </trkpt>
      <trkpt lat="48.51111" lon="0.31837">
        <ele>144.386389</ele>
        <time>2021-09-06T14:42:49.000Z</time>
      </trkpt>
      <trkpt lat="48.51123" lon="0.31883">
        <ele>144.048496</ele>
        <time>2021-09-06T14:42:55.000Z</time>
      </trkpt>
      <trkpt lat="48.51127" lon="0.3191">
        <ele>143.970522</ele>
        <time>2021-09-06T14:42:59.000Z</time>
      </trkpt>
      <trkpt lat="48.51133" lon="0.3194">
        <ele>143.951964</ele>
        <time>2021-09-06T14:43:04.000Z</time>
      </trkpt>
      <trkpt lat="48.51137" lon="0.31954">
        <ele>143.943056</ele>
        <time>2021-09-06T14:43:06.000Z</time>
      </trkpt>
      <trkpt lat="48.51142" lon="0.31974">
        <ele>143.930018</ele>
        <time>2021-09-06T14:43:09.000Z</time>
      </trkpt>
      <trkpt lat="48.51146" lon="0.31988">
        <ele>143.921307</ele>
        <time>2021-09-06T14:43:11.000Z</time>
      </trkpt>
      <trkpt lat="48.51149" lon="0.32002">
        <ele>143.912572</ele>
        <time>2021-09-06T14:43:13.000Z</time>
      </trkpt>
      <trkpt lat="48.5115" lon="0.3201">
        <ele>143.908162</ele>
        <time>2021-09-06T14:43:14.000Z</time>
      </trkpt>
      <trkpt lat="48.51157" lon="0.32043">
        <ele>143.887817</ele>
        <time>2021-09-06T14:43:19.000Z</time>
      </trkpt>
      <trkpt lat="48.51163" lon="0.32071">
        <ele>143.87037</ele>
        <time>2021-09-06T14:43:23.000Z</time>
      </trkpt>
      <trkpt lat="48.51166" lon="0.32086">
        <ele>143.861157</ele>
        <time>2021-09-06T14:43:25.000Z</time>
      </trkpt>
      <trkpt lat="48.5117" lon="0.321">
        <ele>143.852158</ele>
        <time>2021-09-06T14:43:27.000Z</time>
      </trkpt>
      <trkpt lat="48.51174" lon="0.32114">
        <ele>143.84347</ele>
        <time>2021-09-06T14:43:29.000Z</time>
      </trkpt>
      <trkpt lat="48.51176" lon="0.32129">
        <ele>143.834571</ele>
        <time>2021-09-06T14:43:31.000Z</time>
      </trkpt>
      <trkpt lat="48.51184" lon="0.32172">
        <ele>144.021464</ele>
        <time>2021-09-06T14:43:37.000Z</time>
      </trkpt>
      <trkpt lat="48.5119" lon="0.32198">
        <ele>144.260474</ele>
        <time>2021-09-06T14:43:41.000Z</time>
      </trkpt>
      <trkpt lat="48.51198" lon="0.32235">
        <ele>144.593301</ele>
        <time>2021-09-06T14:43:46.000Z</time>
      </trkpt>
      <trkpt lat="48.51202" lon="0.32248">
        <ele>144.721082</ele>
        <time>2021-09-06T14:43:48.000Z</time>
      </trkpt>
      <trkpt lat="48.51206" lon="0.32262">
        <ele>144.852824</ele>
        <time>2021-09-06T14:43:50.000Z</time>
      </trkpt>
      <trkpt lat="48.51207" lon="0.32269">
        <ele>144.916988</ele>
        <time>2021-09-06T14:43:51.000Z</time>
      </trkpt>
      <trkpt lat="48.51211" lon="0.32288">
        <ele>145.08977</ele>
        <time>2021-09-06T14:43:54.000Z</time>
      </trkpt>
      <trkpt lat="48.51212" lon="0.32295">
        <ele>145.151453</ele>
        <time>2021-09-06T14:43:55.000Z</time>
      </trkpt>
      <trkpt lat="48.51219" lon="0.32327">
        <ele>145.445583</ele>
        <time>2021-09-06T14:44:00.000Z</time>
      </trkpt>
      <trkpt lat="48.51222" lon="0.32345">
        <ele>145.607081</ele>
        <time>2021-09-06T14:44:03.000Z</time>
      </trkpt>
      <trkpt lat="48.51224" lon="0.32357">
        <ele>145.720925</ele>
        <time>2021-09-06T14:44:05.000Z</time>
      </trkpt>
      <trkpt lat="48.51227" lon="0.32372">
        <ele>145.853651</ele>
        <time>2021-09-06T14:44:07.000Z</time>
      </trkpt>
      <trkpt lat="48.51229" lon="0.32383">
        <ele>145.952477</ele>
        <time>2021-09-06T14:44:09.000Z</time>
      </trkpt>
      <trkpt lat="48.51231" lon="0.32399">
        <ele>146.094944</ele>
        <time>2021-09-06T14:44:11.000Z</time>
      </trkpt>
      <trkpt lat="48.51243" lon="0.32446">
        <ele>146.386045</ele>
        <time>2021-09-06T14:44:16.000Z</time>
      </trkpt>
      <trkpt lat="48.51253" lon="0.32491">
        <ele>146.631669</ele>
        <time>2021-09-06T14:44:21.000Z</time>
      </trkpt>
      <trkpt lat="48.51261" lon="0.32532">
        <ele>146.8492</ele>
        <time>2021-09-06T14:44:26.000Z</time>
      </trkpt>
      <trkpt lat="48.51262" lon="0.32541">
        <ele>146.896151</ele>
        <time>2021-09-06T14:44:27.000Z</time>
      </trkpt>
      <trkpt lat="48.51271" lon="0.32578">
        <ele>147.097488</ele>
        <time>2021-09-06T14:44:31.000Z</time>
      </trkpt>
      <trkpt lat="48.51278" lon="0.32613">
        <ele>147.284547</ele>
        <time>2021-09-06T14:44:35.000Z</time>
      </trkpt>
      <trkpt lat="48.51281" lon="0.32622">
        <ele>147.33289</ele>
        <time>2021-09-06T14:44:36.000Z</time>
      </trkpt>
      <trkpt lat="48.51295" lon="0.32684">
        <ele>147.42961</ele>
        <time>2021-09-06T14:44:43.000Z</time>
      </trkpt>
      <trkpt lat="48.51301" lon="0.3271">
        <ele>147.222415</ele>
        <time>2021-09-06T14:44:46.000Z</time>
      </trkpt>
      <trkpt lat="48.51304" lon="0.32727">
        <ele>147.097349</ele>
        <time>2021-09-06T14:44:48.000Z</time>
      </trkpt>
      <trkpt lat="48.51316" lon="0.32785">
        <ele>146.639695</ele>
        <time>2021-09-06T14:44:55.000Z</time>
      </trkpt>
      <trkpt lat="48.51326" lon="0.32833">
        <ele>146.268473</ele>
        <time>2021-09-06T14:45:01.000Z</time>
      </trkpt>
      <trkpt lat="48.51327" lon="0.3284">
        <ele>146.214848</ele>
        <time>2021-09-06T14:45:02.000Z</time>
      </trkpt>
      <trkpt lat="48.51332" lon="0.32865">
        <ele>146.021238</ele>
        <time>2021-09-06T14:45:06.000Z</time>
      </trkpt>
      <trkpt lat="48.5134" lon="0.329">
        <ele>145.745257</ele>
        <time>2021-09-06T14:45:11.000Z</time>
      </trkpt>
      <trkpt lat="48.51343" lon="0.32914">
        <ele>145.637185</ele>
        <time>2021-09-06T14:45:13.000Z</time>
      </trkpt>
      <trkpt lat="48.51348" lon="0.32935">
        <ele>145.523585</ele>
        <time>2021-09-06T14:45:16.000Z</time>
      </trkpt>
      <trkpt lat="48.51349" lon="0.32942">
        <ele>145.501832</ele>
        <time>2021-09-06T14:45:17.000Z</time>
      </trkpt>
      <trkpt lat="48.51363" lon="0.33014">
        <ele>145.279965</ele>
        <time>2021-09-06T14:45:27.000Z</time>
      </trkpt>
      <trkpt lat="48.51377" lon="0.33072">
        <ele>145.096063</ele>
        <time>2021-09-06T14:45:35.000Z</time>
      </trkpt>
      <trkpt lat="48.51386" lon="0.33112">
        <ele>144.970782</ele>
        <time>2021-09-06T14:45:41.000Z</time>
      </trkpt>
      <trkpt lat="48.51392" lon="0.33144">
        <ele>144.87392</ele>
        <time>2021-09-06T14:45:47.000Z</time>
      </trkpt>
      <trkpt lat="48.51396" lon="0.33165">
        <ele>144.807334</ele>
        <time>2021-09-06T14:45:52.000Z</time>
      </trkpt>
      <trkpt lat="48.514" lon="0.33191">
        <ele>144.808179</ele>
        <time>2021-09-06T14:45:57.000Z</time>
      </trkpt>
      <trkpt lat="48.51406" lon="0.33223">
        <ele>145.078853</ele>
        <time>2021-09-06T14:46:04.000Z</time>
      </trkpt>
      <trkpt lat="48.51412" lon="0.33252">
        <ele>145.33307</ele>
        <time>2021-09-06T14:46:10.000Z</time>
      </trkpt>
      <trkpt lat="48.5142" lon="0.33298">
        <ele>145.71449</ele>
        <time>2021-09-06T14:46:17.000Z</time>
      </trkpt>
      <trkpt lat="48.51425" lon="0.33329">
        <ele>145.978347</ele>
        <time>2021-09-06T14:46:22.000Z</time>
      </trkpt>
      <trkpt lat="48.51427" lon="0.33344">
        <ele>146.099695</ele>
        <time>2021-09-06T14:46:24.000Z</time>
      </trkpt>
      <trkpt lat="48.51431" lon="0.33366">
        <ele>146.288983</ele>
        <time>2021-09-06T14:46:27.000Z</time>
      </trkpt>
      <trkpt lat="48.51432" lon="0.33373">
        <ele>146.347043</ele>
        <time>2021-09-06T14:46:28.000Z</time>
      </trkpt>
      <trkpt lat="48.51439" lon="0.33412">
        <ele>146.669312</ele>
        <time>2021-09-06T14:46:33.000Z</time>
      </trkpt>
      <trkpt lat="48.51445" lon="0.33449">
        <ele>146.979483</ele>
        <time>2021-09-06T14:46:38.000Z</time>
      </trkpt>
      <trkpt lat="48.51447" lon="0.33456">
        <ele>147.035941</ele>
        <time>2021-09-06T14:46:39.000Z</time>
      </trkpt>
      <trkpt lat="48.51452" lon="0.33479">
        <ele>147.212272</ele>
        <time>2021-09-06T14:46:42.000Z</time>
      </trkpt>
      <trkpt lat="48.51458" lon="0.33524">
        <ele>147.536562</ele>
        <time>2021-09-06T14:46:48.000Z</time>
      </trkpt>
      <trkpt lat="48.51458" lon="0.3353">
        <ele>147.584802</ele>
        <time>2021-09-06T14:46:49.000Z</time>
      </trkpt>
      <trkpt lat="48.5146" lon="0.33551">
        <ele>147.73839</ele>
        <time>2021-09-06T14:46:53.000Z</time>
      </trkpt>
      <trkpt lat="48.51465" lon="0.33576">
        <ele>147.922893</ele>
        <time>2021-09-06T14:46:57.000Z</time>
      </trkpt>
      <trkpt lat="48.51467" lon="0.33582">
        <ele>147.972853</ele>
        <time>2021-09-06T14:46:58.000Z</time>
      </trkpt>
      <trkpt lat="48.51473" lon="0.33634">
        <ele>148.347201</ele>
        <time>2021-09-06T14:47:05.000Z</time>
      </trkpt>
      <trkpt lat="48.51479" lon="0.33689">
        <ele>148.747919</ele>
        <time>2021-09-06T14:47:12.000Z</time>
      </trkpt>
      <trkpt lat="48.51481" lon="0.33711">
        <ele>148.907916</ele>
        <time>2021-09-06T14:47:15.000Z</time>
      </trkpt>
      <trkpt lat="48.51483" lon="0.33726">
        <ele>148.903747</ele>
        <time>2021-09-06T14:47:17.000Z</time>
      </trkpt>
      <trkpt lat="48.51484" lon="0.33733">
        <ele>148.897952</ele>
        <time>2021-09-06T14:47:18.000Z</time>
      </trkpt>
      <trkpt lat="48.5149" lon="0.33778">
        <ele>148.863526</ele>
        <time>2021-09-06T14:47:24.000Z</time>
      </trkpt>
      <trkpt lat="48.51491" lon="0.33791">
        <ele>148.85307</ele>
        <time>2021-09-06T14:47:26.000Z</time>
      </trkpt>
      <trkpt lat="48.51492" lon="0.33799">
        <ele>148.84723</ele>
        <time>2021-09-06T14:47:27.000Z</time>
      </trkpt>
      <trkpt lat="48.51493" lon="0.33807">
        <ele>148.84132</ele>
        <time>2021-09-06T14:47:28.000Z</time>
      </trkpt>
      <trkpt lat="48.51497" lon="0.33839">
        <ele>148.816548</ele>
        <time>2021-09-06T14:47:32.000Z</time>
      </trkpt>
      <trkpt lat="48.51506" lon="0.33909">
        <ele>148.762118</ele>
        <time>2021-09-06T14:47:40.000Z</time>
      </trkpt>
      <trkpt lat="48.51515" lon="0.33978">
        <ele>148.706902</ele>
        <time>2021-09-06T14:47:48.000Z</time>
      </trkpt>
      <trkpt lat="48.51524" lon="0.34042">
        <ele>148.453642</ele>
        <time>2021-09-06T14:47:55.000Z</time>
      </trkpt>
      <trkpt lat="48.51531" lon="0.34089">
        <ele>148.265279</ele>
        <time>2021-09-06T14:48:00.000Z</time>
      </trkpt>
      <trkpt lat="48.51538" lon="0.34158">
        <ele>147.995833</ele>
        <time>2021-09-06T14:48:07.000Z</time>
      </trkpt>
      <trkpt lat="48.51546" lon="0.34218">
        <ele>147.756574</ele>
        <time>2021-09-06T14:48:13.000Z</time>
      </trkpt>
      <trkpt lat="48.51554" lon="0.34278">
        <ele>147.385745</ele>
        <time>2021-09-06T14:48:19.000Z</time>
      </trkpt>
      <trkpt lat="48.5156" lon="0.34338">
        <ele>146.905001</ele>
        <time>2021-09-06T14:48:25.000Z</time>
      </trkpt>
      <trkpt lat="48.51567" lon="0.34397">
        <ele>146.429979</ele>
        <time>2021-09-06T14:48:31.000Z</time>
      </trkpt>
      <trkpt lat="48.51571" lon="0.34443">
        <ele>146.063588</ele>
        <time>2021-09-06T14:48:36.000Z</time>
      </trkpt>
      <trkpt lat="48.51575" lon="0.34479">
        <ele>145.780798</ele>
        <time>2021-09-06T14:48:40.000Z</time>
      </trkpt>
      <trkpt lat="48.51577" lon="0.34487">
        <ele>145.708931</ele>
        <time>2021-09-06T14:48:41.000Z</time>
      </trkpt>
      <trkpt lat="48.51586" lon="0.34549">
        <ele>145.547273</ele>
        <time>2021-09-06T14:48:48.000Z</time>
      </trkpt>
      <trkpt lat="48.51594" lon="0.3461">
        <ele>145.603537</ele>
        <time>2021-09-06T14:48:55.000Z</time>
      </trkpt>
      <trkpt lat="48.51595" lon="0.34618">
        <ele>145.611384</ele>
        <time>2021-09-06T14:48:56.000Z</time>
      </trkpt>
      <trkpt lat="48.51607" lon="0.34701">
        <ele>145.689336</ele>
        <time>2021-09-06T14:49:06.000Z</time>
      </trkpt>
      <trkpt lat="48.51609" lon="0.34718">
        <ele>145.704789</ele>
        <time>2021-09-06T14:49:08.000Z</time>
      </trkpt>
      <trkpt lat="48.5161" lon="0.34726">
        <ele>145.712483</ele>
        <time>2021-09-06T14:49:09.000Z</time>
      </trkpt>
      <trkpt lat="48.51614" lon="0.34759">
        <ele>145.742379</ele>
        <time>2021-09-06T14:49:13.000Z</time>
      </trkpt>
      <trkpt lat="48.51616" lon="0.34809">
        <ele>145.951308</ele>
        <time>2021-09-06T14:49:19.000Z</time>
      </trkpt>
      <trkpt lat="48.51619" lon="0.34872">
        <ele>146.344426</ele>
        <time>2021-09-06T14:49:27.000Z</time>
      </trkpt>
      <trkpt lat="48.51619" lon="0.34887">
        <ele>146.43851</ele>
        <time>2021-09-06T14:49:29.000Z</time>
      </trkpt>
      <trkpt lat="48.5162" lon="0.34943">
        <ele>146.784487</ele>
        <time>2021-09-06T14:49:37.000Z</time>
      </trkpt>
      <trkpt lat="48.51617" lon="0.34976">
        <ele>146.991154</ele>
        <time>2021-09-06T14:49:43.000Z</time>
      </trkpt>
      <trkpt lat="48.51613" lon="0.34986">
        <ele>147.061949</ele>
        <time>2021-09-06T14:49:47.000Z</time>
      </trkpt>
      <trkpt lat="48.51614" lon="0.34988">
        <ele>147.077536</ele>
        <time>2021-09-06T14:49:48.000Z</time>
      </trkpt>
      <trkpt lat="48.51615" lon="0.3499">
        <ele>147.094656</ele>
        <time>2021-09-06T14:49:49.000Z</time>
      </trkpt>
      <trkpt lat="48.51618" lon="0.35002">
        <ele>147.175354</ele>
        <time>2021-09-06T14:49:52.000Z</time>
      </trkpt>
      <trkpt lat="48.51616" lon="0.35033">
        <ele>147.368992</ele>
        <time>2021-09-06T14:49:57.000Z</time>
      </trkpt>
      <trkpt lat="48.51615" lon="0.35073">
        <ele>147.457892</ele>
        <time>2021-09-06T14:50:03.000Z</time>
      </trkpt>
      <trkpt lat="48.51612" lon="0.35086">
        <ele>147.46368</ele>
        <time>2021-09-06T14:50:05.000Z</time>
      </trkpt>
      <trkpt lat="48.51613" lon="0.35098">
        <ele>147.468723</ele>
        <time>2021-09-06T14:50:07.000Z</time>
      </trkpt>
      <trkpt lat="48.51612" lon="0.35104">
        <ele>147.471068</ele>
        <time>2021-09-06T14:50:08.000Z</time>
      </trkpt>
      <trkpt lat="48.5161" lon="0.35116">
        <ele>147.476299</ele>
        <time>2021-09-06T14:50:10.000Z</time>
      </trkpt>
      <trkpt lat="48.5161" lon="0.35135">
        <ele>147.484304</ele>
        <time>2021-09-06T14:50:13.000Z</time>
      </trkpt>
      <trkpt lat="48.5161" lon="0.3515">
        <ele>147.490224</ele>
        <time>2021-09-06T14:50:15.000Z</time>
      </trkpt>
      <trkpt lat="48.51608" lon="0.35172">
        <ele>147.499776</ele>
        <time>2021-09-06T14:50:18.000Z</time>
      </trkpt>
      <trkpt lat="48.51605" lon="0.3519">
        <ele>147.507551</ele>
        <time>2021-09-06T14:50:20.000Z</time>
      </trkpt>
      <trkpt lat="48.51601" lon="0.35217">
        <ele>147.51887</ele>
        <time>2021-09-06T14:50:23.000Z</time>
      </trkpt>
      <trkpt lat="48.51596" lon="0.35241">
        <ele>147.529351</ele>
        <time>2021-09-06T14:50:26.000Z</time>
      </trkpt>
      <trkpt lat="48.51586" lon="0.35287">
        <ele>147.549744</ele>
        <time>2021-09-06T14:50:32.000Z</time>
      </trkpt>
      <trkpt lat="48.51581" lon="0.35308">
        <ele>147.559017</ele>
        <time>2021-09-06T14:50:35.000Z</time>
      </trkpt>
      <trkpt lat="48.51579" lon="0.35324">
        <ele>147.57612</ele>
        <time>2021-09-06T14:50:37.000Z</time>
      </trkpt>
      <trkpt lat="48.51574" lon="0.35356">
        <ele>147.612657</ele>
        <time>2021-09-06T14:50:41.000Z</time>
      </trkpt>
      <trkpt lat="48.51572" lon="0.35373">
        <ele>147.631135</ele>
        <time>2021-09-06T14:50:43.000Z</time>
      </trkpt>
      <trkpt lat="48.51567" lon="0.35397">
        <ele>147.659292</ele>
        <time>2021-09-06T14:50:46.000Z</time>
      </trkpt>
      <trkpt lat="48.51564" lon="0.35421">
        <ele>147.687231</ele>
        <time>2021-09-06T14:50:49.000Z</time>
      </trkpt>
      <trkpt lat="48.51553" lon="0.35484">
        <ele>147.759899</ele>
        <time>2021-09-06T14:50:57.000Z</time>
      </trkpt>
      <trkpt lat="48.51544" lon="0.35539">
        <ele>147.822997</ele>
        <time>2021-09-06T14:51:04.000Z</time>
      </trkpt>
      <trkpt lat="48.51536" lon="0.35601">
        <ele>147.988286</ele>
        <time>2021-09-06T14:51:12.000Z</time>
      </trkpt>
      <trkpt lat="48.51527" lon="0.3566">
        <ele>148.270429</ele>
        <time>2021-09-06T14:51:20.000Z</time>
      </trkpt>
      <trkpt lat="48.51517" lon="0.3573">
        <ele>148.599031</ele>
        <time>2021-09-06T14:51:29.000Z</time>
      </trkpt>
      <trkpt lat="48.5151" lon="0.35792">
        <ele>148.890069</ele>
        <time>2021-09-06T14:51:37.000Z</time>
      </trkpt>
      <trkpt lat="48.51508" lon="0.35799">
        <ele>148.92374</ele>
        <time>2021-09-06T14:51:38.000Z</time>
      </trkpt>
      <trkpt lat="48.51506" lon="0.35834">
        <ele>149.088371</ele>
        <time>2021-09-06T14:51:44.000Z</time>
      </trkpt>
      <trkpt lat="48.51503" lon="0.35869">
        <ele>149.081197</ele>
        <time>2021-09-06T14:51:49.000Z</time>
      </trkpt>
      <trkpt lat="48.51501" lon="0.35899">
        <ele>149.044439</ele>
        <time>2021-09-06T14:51:53.000Z</time>
      </trkpt>
      <trkpt lat="48.515" lon="0.35913">
        <ele>149.026865</ele>
        <time>2021-09-06T14:51:55.000Z</time>
      </trkpt>
      <trkpt lat="48.51499" lon="0.35959">
        <ele>148.970452</ele>
        <time>2021-09-06T14:52:01.000Z</time>
      </trkpt>
      <trkpt lat="48.51498" lon="0.35975">
        <ele>148.951392</ele>
        <time>2021-09-06T14:52:03.000Z</time>
      </trkpt>
      <trkpt lat="48.51498" lon="0.3599">
        <ele>148.93289</ele>
        <time>2021-09-06T14:52:05.000Z</time>
      </trkpt>
      <trkpt lat="48.51498" lon="0.36028">
        <ele>148.886389</ele>
        <time>2021-09-06T14:52:10.000Z</time>
      </trkpt>
      <trkpt lat="48.51499" lon="0.36043">
        <ele>148.868801</ele>
        <time>2021-09-06T14:52:12.000Z</time>
      </trkpt>
      <trkpt lat="48.51499" lon="0.36074">
        <ele>148.830206</ele>
        <time>2021-09-06T14:52:17.000Z</time>
      </trkpt>
      <trkpt lat="48.51498" lon="0.36088">
        <ele>148.813868</ele>
        <time>2021-09-06T14:52:19.000Z</time>
      </trkpt>
      <trkpt lat="48.51498" lon="0.36102">
        <ele>148.795942</ele>
        <time>2021-09-06T14:52:21.000Z</time>
      </trkpt>
      <trkpt lat="48.51497" lon="0.3611">
        <ele>148.78704</ele>
        <time>2021-09-06T14:52:22.000Z</time>
      </trkpt>
      <trkpt lat="48.51498" lon="0.36131">
        <ele>148.922556</ele>
        <time>2021-09-06T14:52:25.000Z</time>
      </trkpt>
      <trkpt lat="48.515" lon="0.36173">
        <ele>149.205438</ele>
        <time>2021-09-06T14:52:30.000Z</time>
      </trkpt>
      <trkpt lat="48.51501" lon="0.3622">
        <ele>149.524052</ele>
        <time>2021-09-06T14:52:36.000Z</time>
      </trkpt>
      <trkpt lat="48.51501" lon="0.36227">
        <ele>149.577108</ele>
        <time>2021-09-06T14:52:37.000Z</time>
      </trkpt>
      <trkpt lat="48.51505" lon="0.36267">
        <ele>149.8483</ele>
        <time>2021-09-06T14:52:42.000Z</time>
      </trkpt>
      <trkpt lat="48.51506" lon="0.36281">
        <ele>149.947871</ele>
        <time>2021-09-06T14:52:44.000Z</time>
      </trkpt>
      <trkpt lat="48.51508" lon="0.36296">
        <ele>150.047529</ele>
        <time>2021-09-06T14:52:46.000Z</time>
      </trkpt>
      <trkpt lat="48.51509" lon="0.36303">
        <ele>150.100173</ele>
        <time>2021-09-06T14:52:47.000Z</time>
      </trkpt>
      <trkpt lat="48.51512" lon="0.36326">
        <ele>150.258892</ele>
        <time>2021-09-06T14:52:50.000Z</time>
      </trkpt>
      <trkpt lat="48.51515" lon="0.36341">
        <ele>150.363344</ele>
        <time>2021-09-06T14:52:52.000Z</time>
      </trkpt>
      <trkpt lat="48.5152" lon="0.36377">
        <ele>150.609798</ele>
        <time>2021-09-06T14:52:57.000Z</time>
      </trkpt>
      <trkpt lat="48.51523" lon="0.3639">
        <ele>150.788898</ele>
        <time>2021-09-06T14:52:59.000Z</time>
      </trkpt>
      <trkpt lat="48.5153" lon="0.3644">
        <ele>151.494604</ele>
        <time>2021-09-06T14:53:06.000Z</time>
      </trkpt>
      <trkpt lat="48.51531" lon="0.3645">
        <ele>151.648048</ele>
        <time>2021-09-06T14:53:09.000Z</time>
      </trkpt>
      <trkpt lat="48.51531" lon="0.36446">
        <ele>151.711094</ele>
        <time>2021-09-06T14:53:13.000Z</time>
      </trkpt>
      <trkpt lat="48.51531" lon="0.36444">
        <ele>151.735</ele>
        <time>2021-09-06T14:53:16.000Z</time>
      </trkpt>
      <trkpt lat="48.51531" lon="0.36451">
        <ele>151.826473</ele>
        <time>2021-09-06T14:53:28.000Z</time>
      </trkpt>
      <trkpt lat="48.51531" lon="0.36454">
        <ele>151.869859</ele>
        <time>2021-09-06T14:53:29.000Z</time>
      </trkpt>
      <trkpt lat="48.51535" lon="0.36475">
        <ele>152.181733</ele>
        <time>2021-09-06T14:53:34.000Z</time>
      </trkpt>
      <trkpt lat="48.51537" lon="0.36487">
        <ele>152.347716</ele>
        <time>2021-09-06T14:53:36.000Z</time>
      </trkpt>
      <trkpt lat="48.51539" lon="0.365">
        <ele>152.53446</ele>
        <time>2021-09-06T14:53:38.000Z</time>
      </trkpt>
      <trkpt lat="48.5154" lon="0.36506">
        <ele>152.62502</ele>
        <time>2021-09-06T14:53:39.000Z</time>
      </trkpt>
      <trkpt lat="48.51545" lon="0.36525">
        <ele>152.907699</ele>
        <time>2021-09-06T14:53:42.000Z</time>
      </trkpt>
      <trkpt lat="48.51551" lon="0.36552">
        <ele>153.309121</ele>
        <time>2021-09-06T14:53:47.000Z</time>
      </trkpt>
      <trkpt lat="48.5156" lon="0.36588">
        <ele>153.842175</ele>
        <time>2021-09-06T14:53:53.000Z</time>
      </trkpt>
      <trkpt lat="48.51568" lon="0.3662">
        <ele>154.31824</ele>
        <time>2021-09-06T14:53:58.000Z</time>
      </trkpt>
      <trkpt lat="48.51579" lon="0.36663">
        <ele>154.77999</ele>
        <time>2021-09-06T14:54:04.000Z</time>
      </trkpt>
      <trkpt lat="48.51591" lon="0.36707">
        <ele>155.208429</ele>
        <time>2021-09-06T14:54:10.000Z</time>
      </trkpt>
      <trkpt lat="48.51602" lon="0.36748">
        <ele>155.619113</ele>
        <time>2021-09-06T14:54:16.000Z</time>
      </trkpt>
      <trkpt lat="48.51606" lon="0.36762">
        <ele>155.753666</ele>
        <time>2021-09-06T14:54:18.000Z</time>
      </trkpt>
      <trkpt lat="48.51612" lon="0.36781">
        <ele>155.951613</ele>
        <time>2021-09-06T14:54:21.000Z</time>
      </trkpt>
      <trkpt lat="48.5162" lon="0.36811">
        <ele>156.243287</ele>
        <time>2021-09-06T14:54:26.000Z</time>
      </trkpt>
      <trkpt lat="48.51625" lon="0.36833">
        <ele>156.449112</ele>
        <time>2021-09-06T14:54:30.000Z</time>
      </trkpt>
      <trkpt lat="48.51634" lon="0.36868">
        <ele>156.802039</ele>
        <time>2021-09-06T14:54:36.000Z</time>
      </trkpt>
      <trkpt lat="48.51638" lon="0.36881">
        <ele>156.926352</ele>
        <time>2021-09-06T14:54:38.000Z</time>
      </trkpt>
      <trkpt lat="48.51644" lon="0.36906">
        <ele>157.147145</ele>
        <time>2021-09-06T14:54:42.000Z</time>
      </trkpt>
      <trkpt lat="48.51655" lon="0.3695">
        <ele>157.539126</ele>
        <time>2021-09-06T14:54:49.000Z</time>
      </trkpt>
      <trkpt lat="48.51657" lon="0.36956">
        <ele>157.593362</ele>
        <time>2021-09-06T14:54:50.000Z</time>
      </trkpt>
      <trkpt lat="48.51664" lon="0.36982">
        <ele>157.82231</ele>
        <time>2021-09-06T14:54:54.000Z</time>
      </trkpt>
      <trkpt lat="48.51671" lon="0.37007">
        <ele>158.041903</ele>
        <time>2021-09-06T14:54:58.000Z</time>
      </trkpt>
      <trkpt lat="48.51678" lon="0.37037">
        <ele>158.309298</ele>
        <time>2021-09-06T14:55:03.000Z</time>
      </trkpt>
      <trkpt lat="48.51685" lon="0.37068">
        <ele>158.583576</ele>
        <time>2021-09-06T14:55:08.000Z</time>
      </trkpt>
      <trkpt lat="48.51696" lon="0.3711">
        <ele>158.953706</ele>
        <time>2021-09-06T14:55:14.000Z</time>
      </trkpt>
      <trkpt lat="48.51709" lon="0.37152">
        <ele>159.281767</ele>
        <time>2021-09-06T14:55:20.000Z</time>
      </trkpt>
      <trkpt lat="48.51721" lon="0.372">
        <ele>159.583865</ele>
        <time>2021-09-06T14:55:27.000Z</time>
      </trkpt>
      <trkpt lat="48.51723" lon="0.37207">
        <ele>159.627177</ele>
        <time>2021-09-06T14:55:28.000Z</time>
      </trkpt>
      <trkpt lat="48.51732" lon="0.37241">
        <ele>159.836151</ele>
        <time>2021-09-06T14:55:33.000Z</time>
      </trkpt>
      <trkpt lat="48.51733" lon="0.37248">
        <ele>159.882741</ele>
        <time>2021-09-06T14:55:34.000Z</time>
      </trkpt>
      <trkpt lat="48.51749" lon="0.37303">
        <ele>160.235185</ele>
        <time>2021-09-06T14:55:42.000Z</time>
      </trkpt>
      <trkpt lat="48.51759" lon="0.37343">
        <ele>160.481717</ele>
        <time>2021-09-06T14:55:48.000Z</time>
      </trkpt>
      <trkpt lat="48.51772" lon="0.37392">
        <ele>160.76132</ele>
        <time>2021-09-06T14:55:55.000Z</time>
      </trkpt>
      <trkpt lat="48.51783" lon="0.37436">
        <ele>160.897878</ele>
        <time>2021-09-06T14:56:01.000Z</time>
      </trkpt>
      <trkpt lat="48.51786" lon="0.3745">
        <ele>160.940145</ele>
        <time>2021-09-06T14:56:03.000Z</time>
      </trkpt>
      <trkpt lat="48.51792" lon="0.3747">
        <ele>161.003792</ele>
        <time>2021-09-06T14:56:06.000Z</time>
      </trkpt>
      <trkpt lat="48.51804" lon="0.37515">
        <ele>161.142935</ele>
        <time>2021-09-06T14:56:12.000Z</time>
      </trkpt>
      <trkpt lat="48.51813" lon="0.37556">
        <ele>161.270008</ele>
        <time>2021-09-06T14:56:18.000Z</time>
      </trkpt>
      <trkpt lat="48.51825" lon="0.37597">
        <ele>161.400103</ele>
        <time>2021-09-06T14:56:24.000Z</time>
      </trkpt>
      <trkpt lat="48.5184" lon="0.37652">
        <ele>161.574731</ele>
        <time>2021-09-06T14:56:31.000Z</time>
      </trkpt>
      <trkpt lat="48.51846" lon="0.37675">
        <ele>161.649283</ele>
        <time>2021-09-06T14:56:34.000Z</time>
      </trkpt>
      <trkpt lat="48.5185" lon="0.37689">
        <ele>161.698612</ele>
        <time>2021-09-06T14:56:36.000Z</time>
      </trkpt>
      <trkpt lat="48.51856" lon="0.37711">
        <ele>161.77055</ele>
        <time>2021-09-06T14:56:39.000Z</time>
      </trkpt>
      <trkpt lat="48.51859" lon="0.37727">
        <ele>161.819749</ele>
        <time>2021-09-06T14:56:41.000Z</time>
      </trkpt>
      <trkpt lat="48.51861" lon="0.37734">
        <ele>161.844468</ele>
        <time>2021-09-06T14:56:42.000Z</time>
      </trkpt>
      <trkpt lat="48.51864" lon="0.37749">
        <ele>161.893521</ele>
        <time>2021-09-06T14:56:44.000Z</time>
      </trkpt>
      <trkpt lat="48.51867" lon="0.37757">
        <ele>161.918415</ele>
        <time>2021-09-06T14:56:45.000Z</time>
      </trkpt>
      <trkpt lat="48.51876" lon="0.37789">
        <ele>162.0262</ele>
        <time>2021-09-06T14:56:49.000Z</time>
      </trkpt>
      <trkpt lat="48.51881" lon="0.37805">
        <ele>162.079066</ele>
        <time>2021-09-06T14:56:51.000Z</time>
      </trkpt>
      <trkpt lat="48.51894" lon="0.37851">
        <ele>162.233123</ele>
        <time>2021-09-06T14:56:57.000Z</time>
      </trkpt>
      <trkpt lat="48.51907" lon="0.37898">
        <ele>162.273895</ele>
        <time>2021-09-06T14:57:03.000Z</time>
      </trkpt>
      <trkpt lat="48.5192" lon="0.37946">
        <ele>161.942886</ele>
        <time>2021-09-06T14:57:09.000Z</time>
      </trkpt>
      <trkpt lat="48.51926" lon="0.37968">
        <ele>161.794828</ele>
        <time>2021-09-06T14:57:12.000Z</time>
      </trkpt>
      <trkpt lat="48.51929" lon="0.37981">
        <ele>161.702418</ele>
        <time>2021-09-06T14:57:14.000Z</time>
      </trkpt>
      <trkpt lat="48.51938" lon="0.38017">
        <ele>161.4613</ele>
        <time>2021-09-06T14:57:19.000Z</time>
      </trkpt>
      <trkpt lat="48.51939" lon="0.38023">
        <ele>161.417368</ele>
        <time>2021-09-06T14:57:20.000Z</time>
      </trkpt>
      <trkpt lat="48.51943" lon="0.38036">
        <ele>161.331177</ele>
        <time>2021-09-06T14:57:22.000Z</time>
      </trkpt>
      <trkpt lat="48.51951" lon="0.38067">
        <ele>161.113797</ele>
        <time>2021-09-06T14:57:28.000Z</time>
      </trkpt>
      <trkpt lat="48.5196" lon="0.38098">
        <ele>160.902089</ele>
        <time>2021-09-06T14:57:34.000Z</time>
      </trkpt>
      <trkpt lat="48.51968" lon="0.38128">
        <ele>160.694682</ele>
        <time>2021-09-06T14:57:41.000Z</time>
      </trkpt>
      <trkpt lat="48.51974" lon="0.3816">
        <ele>160.381245</ele>
        <time>2021-09-06T14:57:47.000Z</time>
      </trkpt>
      <trkpt lat="48.51975" lon="0.38167">
        <ele>160.300878</ele>
        <time>2021-09-06T14:57:48.000Z</time>
      </trkpt>
      <trkpt lat="48.51983" lon="0.38196">
        <ele>159.943816</ele>
        <time>2021-09-06T14:57:52.000Z</time>
      </trkpt>
      <trkpt lat="48.51996" lon="0.38243">
        <ele>159.381213</ele>
        <time>2021-09-06T14:57:59.000Z</time>
      </trkpt>
      <trkpt lat="48.52009" lon="0.38288">
        <ele>158.838521</ele>
        <time>2021-09-06T14:58:06.000Z</time>
      </trkpt>
      <trkpt lat="48.52011" lon="0.38296">
        <ele>158.746479</ele>
        <time>2021-09-06T14:58:07.000Z</time>
      </trkpt>
      <trkpt lat="48.52018" lon="0.38318">
        <ele>158.472372</ele>
        <time>2021-09-06T14:58:10.000Z</time>
      </trkpt>
      <trkpt lat="48.5202" lon="0.38325">
        <ele>158.384093</ele>
        <time>2021-09-06T14:58:11.000Z</time>
      </trkpt>
      <trkpt lat="48.52032" lon="0.38376">
        <ele>157.783567</ele>
        <time>2021-09-06T14:58:18.000Z</time>
      </trkpt>
      <trkpt lat="48.52047" lon="0.38433">
        <ele>157.29444</ele>
        <time>2021-09-06T14:58:25.000Z</time>
      </trkpt>
      <trkpt lat="48.52063" lon="0.38493">
        <ele>156.85884</ele>
        <time>2021-09-06T14:58:32.000Z</time>
      </trkpt>
      <trkpt lat="48.52079" lon="0.38551">
        <ele>156.439748</ele>
        <time>2021-09-06T14:58:39.000Z</time>
      </trkpt>
      <trkpt lat="48.52087" lon="0.38579">
        <ele>156.230963</ele>
        <time>2021-09-06T14:58:43.000Z</time>
      </trkpt>
      <trkpt lat="48.52088" lon="0.38585">
        <ele>156.189685</ele>
        <time>2021-09-06T14:58:44.000Z</time>
      </trkpt>
      <trkpt lat="48.52091" lon="0.38597">
        <ele>156.107314</ele>
        <time>2021-09-06T14:58:46.000Z</time>
      </trkpt>
      <trkpt lat="48.52095" lon="0.38609">
        <ele>156.013648</ele>
        <time>2021-09-06T14:58:48.000Z</time>
      </trkpt>
      <trkpt lat="48.52097" lon="0.38616">
        <ele>155.95957</ele>
        <time>2021-09-06T14:58:49.000Z</time>
      </trkpt>
      <trkpt lat="48.52112" lon="0.38674">
        <ele>155.782675</ele>
        <time>2021-09-06T14:58:56.000Z</time>
      </trkpt>
      <trkpt lat="48.52125" lon="0.38724">
        <ele>155.808345</ele>
        <time>2021-09-06T14:59:02.000Z</time>
      </trkpt>
      <trkpt lat="48.52138" lon="0.38776">
        <ele>155.83534</ele>
        <time>2021-09-06T14:59:08.000Z</time>
      </trkpt>
      <trkpt lat="48.52152" lon="0.38837">
        <ele>155.866415</ele>
        <time>2021-09-06T14:59:15.000Z</time>
      </trkpt>
      <trkpt lat="48.52166" lon="0.3889">
        <ele>155.894114</ele>
        <time>2021-09-06T14:59:21.000Z</time>
      </trkpt>
      <trkpt lat="48.5217" lon="0.38907">
        <ele>155.899211</ele>
        <time>2021-09-06T14:59:23.000Z</time>
      </trkpt>
      <trkpt lat="48.52176" lon="0.3893">
        <ele>155.902367</ele>
        <time>2021-09-06T14:59:26.000Z</time>
      </trkpt>
      <trkpt lat="48.52189" lon="0.38988">
        <ele>155.910235</ele>
        <time>2021-09-06T14:59:33.000Z</time>
      </trkpt>
      <trkpt lat="48.52203" lon="0.3905">
        <ele>155.918633</ele>
        <time>2021-09-06T14:59:40.000Z</time>
      </trkpt>
      <trkpt lat="48.52212" lon="0.39094">
        <ele>155.924532</ele>
        <time>2021-09-06T14:59:45.000Z</time>
      </trkpt>
      <trkpt lat="48.52216" lon="0.3911">
        <ele>155.926776</ele>
        <time>2021-09-06T14:59:47.000Z</time>
      </trkpt>
      <trkpt lat="48.52227" lon="0.39167">
        <ele>155.903418</ele>
        <time>2021-09-06T14:59:54.000Z</time>
      </trkpt>
      <trkpt lat="48.52231" lon="0.39184">
        <ele>155.864646</ele>
        <time>2021-09-06T14:59:56.000Z</time>
      </trkpt>
      <trkpt lat="48.52235" lon="0.3921">
        <ele>155.80656</ele>
        <time>2021-09-06T14:59:59.000Z</time>
      </trkpt>
      <trkpt lat="48.52248" lon="0.3928">
        <ele>155.650159</ele>
        <time>2021-09-06T15:00:07.000Z</time>
      </trkpt>
      <trkpt lat="48.52259" lon="0.3934">
        <ele>155.513752</ele>
        <time>2021-09-06T15:00:14.000Z</time>
      </trkpt>
      <trkpt lat="48.52269" lon="0.39392">
        <ele>155.396954</ele>
        <time>2021-09-06T15:00:20.000Z</time>
      </trkpt>
      <trkpt lat="48.52279" lon="0.39451">
        <ele>155.252462</ele>
        <time>2021-09-06T15:00:27.000Z</time>
      </trkpt>
      <trkpt lat="48.52288" lon="0.39512">
        <ele>155.094356</ele>
        <time>2021-09-06T15:00:34.000Z</time>
      </trkpt>
      <trkpt lat="48.52292" lon="0.39539">
        <ele>155.026815</ele>
        <time>2021-09-06T15:00:37.000Z</time>
      </trkpt>
      <trkpt lat="48.52294" lon="0.39554">
        <ele>154.987155</ele>
        <time>2021-09-06T15:00:39.000Z</time>
      </trkpt>
      <trkpt lat="48.52295" lon="0.39563">
        <ele>154.964207</ele>
        <time>2021-09-06T15:00:40.000Z</time>
      </trkpt>
      <trkpt lat="48.52298" lon="0.39581">
        <ele>154.919215</ele>
        <time>2021-09-06T15:00:42.000Z</time>
      </trkpt>
      <trkpt lat="48.523" lon="0.39606">
        <ele>154.85592</ele>
        <time>2021-09-06T15:00:45.000Z</time>
      </trkpt>
      <trkpt lat="48.52305" lon="0.39639">
        <ele>154.769611</ele>
        <time>2021-09-06T15:00:49.000Z</time>
      </trkpt>
      <trkpt lat="48.52306" lon="0.39648">
        <ele>154.748666</ele>
        <time>2021-09-06T15:00:50.000Z</time>
      </trkpt>
      <trkpt lat="48.52309" lon="0.39674">
        <ele>154.682256</ele>
        <time>2021-09-06T15:00:53.000Z</time>
      </trkpt>
      <trkpt lat="48.52317" lon="0.39731">
        <ele>154.422083</ele>
        <time>2021-09-06T15:01:00.000Z</time>
      </trkpt>
      <trkpt lat="48.52322" lon="0.3977">
        <ele>154.235048</ele>
        <time>2021-09-06T15:01:05.000Z</time>
      </trkpt>
      <trkpt lat="48.52329" lon="0.3983">
        <ele>153.946403</ele>
        <time>2021-09-06T15:01:12.000Z</time>
      </trkpt>
      <trkpt lat="48.52337" lon="0.39897">
        <ele>153.624876</ele>
        <time>2021-09-06T15:01:20.000Z</time>
      </trkpt>
      <trkpt lat="48.52342" lon="0.3995">
        <ele>153.372009</ele>
        <time>2021-09-06T15:01:27.000Z</time>
      </trkpt>
      <trkpt lat="48.52343" lon="0.39958">
        <ele>153.338178</ele>
        <time>2021-09-06T15:01:28.000Z</time>
      </trkpt>
      <trkpt lat="48.52346" lon="0.39988">
        <ele>153.206181</ele>
        <time>2021-09-06T15:01:32.000Z</time>
      </trkpt>
      <trkpt lat="48.52352" lon="0.40044">
        <ele>152.961698</ele>
        <time>2021-09-06T15:01:39.000Z</time>
      </trkpt>
      <trkpt lat="48.52354" lon="0.40095">
        <ele>152.741343</ele>
        <time>2021-09-06T15:01:45.000Z</time>
      </trkpt>
      <trkpt lat="48.52357" lon="0.40145">
        <ele>152.525128</ele>
        <time>2021-09-06T15:01:51.000Z</time>
      </trkpt>
      <trkpt lat="48.5236" lon="0.40186">
        <ele>152.345766</ele>
        <time>2021-09-06T15:01:56.000Z</time>
      </trkpt>
      <trkpt lat="48.52363" lon="0.40229">
        <ele>152.199558</ele>
        <time>2021-09-06T15:02:01.000Z</time>
      </trkpt>
      <trkpt lat="48.52367" lon="0.40278">
        <ele>152.166276</ele>
        <time>2021-09-06T15:02:07.000Z</time>
      </trkpt>
      <trkpt lat="48.52367" lon="0.40286">
        <ele>152.160781</ele>
        <time>2021-09-06T15:02:08.000Z</time>
      </trkpt>
      <trkpt lat="48.52369" lon="0.40327">
        <ele>152.13332</ele>
        <time>2021-09-06T15:02:13.000Z</time>
      </trkpt>
      <trkpt lat="48.5237" lon="0.40343">
        <ele>152.12273</ele>
        <time>2021-09-06T15:02:15.000Z</time>
      </trkpt>
      <trkpt lat="48.52372" lon="0.4037">
        <ele>152.104849</ele>
        <time>2021-09-06T15:02:18.000Z</time>
      </trkpt>
      <trkpt lat="48.52373" lon="0.40415">
        <ele>152.07425</ele>
        <time>2021-09-06T15:02:23.000Z</time>
      </trkpt>
      <trkpt lat="48.52375" lon="0.40451">
        <ele>152.050266</ele>
        <time>2021-09-06T15:02:27.000Z</time>
      </trkpt>
      <trkpt lat="48.52375" lon="0.4046">
        <ele>152.044155</ele>
        <time>2021-09-06T15:02:28.000Z</time>
      </trkpt>
      <trkpt lat="48.52376" lon="0.40486">
        <ele>152.027031</ele>
        <time>2021-09-06T15:02:31.000Z</time>
      </trkpt>
      <trkpt lat="48.52377" lon="0.40511">
        <ele>152.017836</ele>
        <time>2021-09-06T15:02:34.000Z</time>
      </trkpt>
      <trkpt lat="48.52378" lon="0.40562">
        <ele>152.001807</ele>
        <time>2021-09-06T15:02:40.000Z</time>
      </trkpt>
      <trkpt lat="48.5238" lon="0.40615">
        <ele>151.98542</ele>
        <time>2021-09-06T15:02:46.000Z</time>
      </trkpt>
      <trkpt lat="48.5238" lon="0.40623">
        <ele>151.983085</ele>
        <time>2021-09-06T15:02:47.000Z</time>
      </trkpt>
      <trkpt lat="48.5238" lon="0.40638">
        <ele>151.978293</ele>
        <time>2021-09-06T15:02:49.000Z</time>
      </trkpt>
      <trkpt lat="48.5238" lon="0.40654">
        <ele>151.973155</ele>
        <time>2021-09-06T15:02:51.000Z</time>
      </trkpt>
      <trkpt lat="48.52382" lon="0.40679">
        <ele>151.965472</ele>
        <time>2021-09-06T15:02:54.000Z</time>
      </trkpt>
      <trkpt lat="48.52383" lon="0.40696">
        <ele>151.960231</ele>
        <time>2021-09-06T15:02:56.000Z</time>
      </trkpt>
      <trkpt lat="48.52383" lon="0.40713">
        <ele>151.954841</ele>
        <time>2021-09-06T15:02:58.000Z</time>
      </trkpt>
      <trkpt lat="48.52385" lon="0.40764">
        <ele>151.953407</ele>
        <time>2021-09-06T15:03:04.000Z</time>
      </trkpt>
      <trkpt lat="48.52387" lon="0.40804">
        <ele>152.080863</ele>
        <time>2021-09-06T15:03:09.000Z</time>
      </trkpt>
      <trkpt lat="48.52389" lon="0.40845">
        <ele>152.212455</ele>
        <time>2021-09-06T15:03:15.000Z</time>
      </trkpt>
      <trkpt lat="48.52388" lon="0.40887">
        <ele>152.349878</ele>
        <time>2021-09-06T15:03:21.000Z</time>
      </trkpt>
      <trkpt lat="48.52389" lon="0.40923">
        <ele>152.463138</ele>
        <time>2021-09-06T15:03:26.000Z</time>
      </trkpt>
      <trkpt lat="48.5239" lon="0.40996">
        <ele>152.700007</ele>
        <time>2021-09-06T15:03:35.000Z</time>
      </trkpt>
      <trkpt lat="48.5239" lon="0.4105">
        <ele>152.870702</ele>
        <time>2021-09-06T15:03:42.000Z</time>
      </trkpt>
      <trkpt lat="48.52389" lon="0.41089">
        <ele>152.986839</ele>
        <time>2021-09-06T15:03:47.000Z</time>
      </trkpt>
      <trkpt lat="48.52389" lon="0.41096">
        <ele>153.010227</ele>
        <time>2021-09-06T15:03:48.000Z</time>
      </trkpt>
      <trkpt lat="48.52388" lon="0.41158">
        <ele>153.196454</ele>
        <time>2021-09-06T15:03:56.000Z</time>
      </trkpt>
      <trkpt lat="48.52387" lon="0.41203">
        <ele>153.335918</ele>
        <time>2021-09-06T15:04:03.000Z</time>
      </trkpt>
      <trkpt lat="48.52387" lon="0.41234">
        <ele>153.427385</ele>
        <time>2021-09-06T15:04:08.000Z</time>
      </trkpt>
      <trkpt lat="48.52385" lon="0.41286">
        <ele>153.587971</ele>
        <time>2021-09-06T15:04:16.000Z</time>
      </trkpt>
      <trkpt lat="48.52383" lon="0.41307">
        <ele>153.599958</ele>
        <time>2021-09-06T15:04:19.000Z</time>
      </trkpt>
      <trkpt lat="48.52382" lon="0.41325">
        <ele>153.410606</ele>
        <time>2021-09-06T15:04:22.000Z</time>
      </trkpt>
      <trkpt lat="48.5238" lon="0.41351">
        <ele>153.139682</ele>
        <time>2021-09-06T15:04:27.000Z</time>
      </trkpt>
      <trkpt lat="48.52379" lon="0.41379">
        <ele>152.847266</ele>
        <time>2021-09-06T15:04:32.000Z</time>
      </trkpt>
      <trkpt lat="48.52375" lon="0.41407">
        <ele>152.54992</ele>
        <time>2021-09-06T15:04:37.000Z</time>
      </trkpt>
      <trkpt lat="48.52375" lon="0.41437">
        <ele>152.237317</ele>
        <time>2021-09-06T15:04:42.000Z</time>
      </trkpt>
      <trkpt lat="48.5237" lon="0.41474">
        <ele>151.843523</ele>
        <time>2021-09-06T15:04:48.000Z</time>
      </trkpt>
      <trkpt lat="48.52368" lon="0.41498">
        <ele>151.586562</ele>
        <time>2021-09-06T15:04:52.000Z</time>
      </trkpt>
      <trkpt lat="48.52362" lon="0.41532">
        <ele>151.223497</ele>
        <time>2021-09-06T15:04:57.000Z</time>
      </trkpt>
      <trkpt lat="48.52359" lon="0.41577">
        <ele>150.805614</ele>
        <time>2021-09-06T15:05:03.000Z</time>
      </trkpt>
      <trkpt lat="48.52359" lon="0.41584">
        <ele>150.79635</ele>
        <time>2021-09-06T15:05:04.000Z</time>
      </trkpt>
      <trkpt lat="48.52358" lon="0.41599">
        <ele>150.77742</ele>
        <time>2021-09-06T15:05:06.000Z</time>
      </trkpt>
      <trkpt lat="48.52354" lon="0.41627">
        <ele>150.741743</ele>
        <time>2021-09-06T15:05:10.000Z</time>
      </trkpt>
      <trkpt lat="48.52352" lon="0.41649">
        <ele>150.714263</ele>
        <time>2021-09-06T15:05:13.000Z</time>
      </trkpt>
      <trkpt lat="48.5235" lon="0.41671">
        <ele>150.686813</ele>
        <time>2021-09-06T15:05:16.000Z</time>
      </trkpt>
      <trkpt lat="48.52349" lon="0.41679">
        <ele>150.677611</ele>
        <time>2021-09-06T15:05:17.000Z</time>
      </trkpt>
      <trkpt lat="48.52346" lon="0.41708">
        <ele>150.641206</ele>
        <time>2021-09-06T15:05:21.000Z</time>
      </trkpt>
      <trkpt lat="48.52343" lon="0.41743">
        <ele>150.597147</ele>
        <time>2021-09-06T15:05:25.000Z</time>
      </trkpt>
      <trkpt lat="48.52342" lon="0.41752">
        <ele>150.585805</ele>
        <time>2021-09-06T15:05:26.000Z</time>
      </trkpt>
      <trkpt lat="48.52337" lon="0.418">
        <ele>150.525344</ele>
        <time>2021-09-06T15:05:32.000Z</time>
      </trkpt>
      <trkpt lat="48.52335" lon="0.41824">
        <ele>150.495808</ele>
        <time>2021-09-06T15:05:34.000Z</time>
      </trkpt>
      <trkpt lat="48.52332" lon="0.41848">
        <ele>150.4535</ele>
        <time>2021-09-06T15:05:37.000Z</time>
      </trkpt>
      <trkpt lat="48.52328" lon="0.41899">
        <ele>150.316861</ele>
        <time>2021-09-06T15:05:43.000Z</time>
      </trkpt>
      <trkpt lat="48.52325" lon="0.41926">
        <ele>150.243863</ele>
        <time>2021-09-06T15:05:46.000Z</time>
      </trkpt>
      <trkpt lat="48.52323" lon="0.41941">
        <ele>150.202954</ele>
        <time>2021-09-06T15:05:48.000Z</time>
      </trkpt>
      <trkpt lat="48.52318" lon="0.41989">
        <ele>150.071333</ele>
        <time>2021-09-06T15:05:54.000Z</time>
      </trkpt>
      <trkpt lat="48.52317" lon="0.41998">
        <ele>150.049325</ele>
        <time>2021-09-06T15:05:55.000Z</time>
      </trkpt>
      <trkpt lat="48.52312" lon="0.42037">
        <ele>149.942671</ele>
        <time>2021-09-06T15:06:00.000Z</time>
      </trkpt>
      <trkpt lat="48.52307" lon="0.4208">
        <ele>149.826637</ele>
        <time>2021-09-06T15:06:06.000Z</time>
      </trkpt>
      <trkpt lat="48.52304" lon="0.42107">
        <ele>149.75218</ele>
        <time>2021-09-06T15:06:10.000Z</time>
      </trkpt>
      <trkpt lat="48.523" lon="0.42133">
        <ele>149.945279</ele>
        <time>2021-09-06T15:06:14.000Z</time>
      </trkpt>
      <trkpt lat="48.523" lon="0.42139">
        <ele>149.991283</ele>
        <time>2021-09-06T15:06:15.000Z</time>
      </trkpt>
      <trkpt lat="48.52295" lon="0.4218">
        <ele>150.313484</ele>
        <time>2021-09-06T15:06:21.000Z</time>
      </trkpt>
      <trkpt lat="48.5229" lon="0.42222">
        <ele>150.640812</ele>
        <time>2021-09-06T15:06:27.000Z</time>
      </trkpt>
      <trkpt lat="48.52285" lon="0.42266">
        <ele>150.990996</ele>
        <time>2021-09-06T15:06:33.000Z</time>
      </trkpt>
      <trkpt lat="48.52277" lon="0.42333">
        <ele>151.514722</ele>
        <time>2021-09-06T15:06:42.000Z</time>
      </trkpt>
      <trkpt lat="48.52269" lon="0.42397">
        <ele>152.061839</ele>
        <time>2021-09-06T15:06:51.000Z</time>
      </trkpt>
      <trkpt lat="48.52268" lon="0.42404">
        <ele>152.121466</ele>
        <time>2021-09-06T15:06:52.000Z</time>
      </trkpt>
      <trkpt lat="48.52268" lon="0.4241">
        <ele>152.185449</ele>
        <time>2021-09-06T15:06:53.000Z</time>
      </trkpt>
      <trkpt lat="48.52266" lon="0.42423">
        <ele>152.312078</ele>
        <time>2021-09-06T15:06:55.000Z</time>
      </trkpt>
      <trkpt lat="48.52265" lon="0.42436">
        <ele>152.434984</ele>
        <time>2021-09-06T15:06:57.000Z</time>
      </trkpt>
      <trkpt lat="48.52264" lon="0.42454">
        <ele>152.607541</ele>
        <time>2021-09-06T15:07:00.000Z</time>
      </trkpt>
      <trkpt lat="48.5226" lon="0.42484">
        <ele>152.907563</ele>
        <time>2021-09-06T15:07:05.000Z</time>
      </trkpt>
      <trkpt lat="48.52256" lon="0.42517">
        <ele>153.23163</ele>
        <time>2021-09-06T15:07:10.000Z</time>
      </trkpt>
      <trkpt lat="48.52251" lon="0.4255">
        <ele>153.552449</ele>
        <time>2021-09-06T15:07:15.000Z</time>
      </trkpt>
      <trkpt lat="48.52249" lon="0.42585">
        <ele>153.89696</ele>
        <time>2021-09-06T15:07:20.000Z</time>
      </trkpt>
      <trkpt lat="48.52245" lon="0.42623">
        <ele>154.260224</ele>
        <time>2021-09-06T15:07:25.000Z</time>
      </trkpt>
      <trkpt lat="48.52239" lon="0.42667">
        <ele>154.567781</ele>
        <time>2021-09-06T15:07:31.000Z</time>
      </trkpt>
      <trkpt lat="48.52236" lon="0.42699">
        <ele>154.707387</ele>
        <time>2021-09-06T15:07:35.000Z</time>
      </trkpt>
      <trkpt lat="48.52234" lon="0.42724">
        <ele>154.816071</ele>
        <time>2021-09-06T15:07:38.000Z</time>
      </trkpt>
      <trkpt lat="48.52233" lon="0.42739">
        <ele>154.880137</ele>
        <time>2021-09-06T15:07:40.000Z</time>
      </trkpt>
      <trkpt lat="48.52232" lon="0.42761">
        <ele>154.975055</ele>
        <time>2021-09-06T15:07:43.000Z</time>
      </trkpt>
      <trkpt lat="48.52232" lon="0.42776">
        <ele>155.040854</ele>
        <time>2021-09-06T15:07:45.000Z</time>
      </trkpt>
      <trkpt lat="48.52231" lon="0.42789">
        <ele>155.100366</ele>
        <time>2021-09-06T15:07:47.000Z</time>
      </trkpt>
      <trkpt lat="48.5223" lon="0.42805">
        <ele>155.167463</ele>
        <time>2021-09-06T15:07:49.000Z</time>
      </trkpt>
      <trkpt lat="48.52229" lon="0.42813">
        <ele>155.201445</ele>
        <time>2021-09-06T15:07:50.000Z</time>
      </trkpt>
      <trkpt lat="48.52227" lon="0.42835">
        <ele>155.300053</ele>
        <time>2021-09-06T15:07:53.000Z</time>
      </trkpt>
      <trkpt lat="48.52225" lon="0.42861">
        <ele>155.411945</ele>
        <time>2021-09-06T15:07:57.000Z</time>
      </trkpt>
      <trkpt lat="48.52223" lon="0.42912">
        <ele>155.633425</ele>
        <time>2021-09-06T15:08:03.000Z</time>
      </trkpt>
      <trkpt lat="48.52221" lon="0.4294">
        <ele>155.859141</ele>
        <time>2021-09-06T15:08:06.000Z</time>
      </trkpt>
      <trkpt lat="48.52217" lon="0.42957">
        <ele>156.008563</ele>
        <time>2021-09-06T15:08:08.000Z</time>
      </trkpt>
      <trkpt lat="48.52213" lon="0.42972">
        <ele>156.145222</ele>
        <time>2021-09-06T15:08:10.000Z</time>
      </trkpt>
      <trkpt lat="48.52211" lon="0.42988">
        <ele>156.27583</ele>
        <time>2021-09-06T15:08:12.000Z</time>
      </trkpt>
      <trkpt lat="48.52211" lon="0.42995">
        <ele>156.334433</ele>
        <time>2021-09-06T15:08:13.000Z</time>
      </trkpt>
      <trkpt lat="48.52211" lon="0.43009">
        <ele>156.443515</ele>
        <time>2021-09-06T15:08:15.000Z</time>
      </trkpt>
      <trkpt lat="48.52211" lon="0.43022">
        <ele>156.547057</ele>
        <time>2021-09-06T15:08:17.000Z</time>
      </trkpt>
      <trkpt lat="48.52212" lon="0.43034">
        <ele>156.647904</ele>
        <time>2021-09-06T15:08:19.000Z</time>
      </trkpt>
      <trkpt lat="48.5221" lon="0.4307">
        <ele>156.938076</ele>
        <time>2021-09-06T15:08:25.000Z</time>
      </trkpt>
      <trkpt lat="48.52207" lon="0.43083">
        <ele>157.053536</ele>
        <time>2021-09-06T15:08:29.000Z</time>
      </trkpt>
      <trkpt lat="48.52216" lon="0.43101">
        <ele>157.238433</ele>
        <time>2021-09-06T15:08:34.000Z</time>
      </trkpt>
      <trkpt lat="48.52224" lon="0.43125">
        <ele>157.452375</ele>
        <time>2021-09-06T15:08:39.000Z</time>
      </trkpt>
      <trkpt lat="48.52227" lon="0.43166">
        <ele>157.790799</ele>
        <time>2021-09-06T15:08:45.000Z</time>
      </trkpt>
      <trkpt lat="48.52232" lon="0.43227">
        <ele>158.205159</ele>
        <time>2021-09-06T15:08:53.000Z</time>
      </trkpt>
      <trkpt lat="48.52236" lon="0.43278">
        <ele>158.539983</ele>
        <time>2021-09-06T15:08:59.000Z</time>
      </trkpt>
      <trkpt lat="48.52237" lon="0.43286">
        <ele>158.59627</ele>
        <time>2021-09-06T15:09:00.000Z</time>
      </trkpt>
      <trkpt lat="48.5224" lon="0.43319">
        <ele>158.817972</ele>
        <time>2021-09-06T15:09:04.000Z</time>
      </trkpt>
      <trkpt lat="48.52243" lon="0.43345">
        <ele>158.987572</ele>
        <time>2021-09-06T15:09:07.000Z</time>
      </trkpt>
      <trkpt lat="48.52245" lon="0.43364">
        <ele>159.112421</ele>
        <time>2021-09-06T15:09:09.000Z</time>
      </trkpt>
      <trkpt lat="48.52248" lon="0.43389">
        <ele>159.283028</ele>
        <time>2021-09-06T15:09:12.000Z</time>
      </trkpt>
      <trkpt lat="48.52251" lon="0.43406">
        <ele>159.394718</ele>
        <time>2021-09-06T15:09:14.000Z</time>
      </trkpt>
      <trkpt lat="48.52256" lon="0.43457">
        <ele>159.783508</ele>
        <time>2021-09-06T15:09:20.000Z</time>
      </trkpt>
      <trkpt lat="48.52258" lon="0.43476">
        <ele>159.962904</ele>
        <time>2021-09-06T15:09:22.000Z</time>
      </trkpt>
      <trkpt lat="48.52261" lon="0.43495">
        <ele>160.150279</ele>
        <time>2021-09-06T15:09:24.000Z</time>
      </trkpt>
      <trkpt lat="48.52262" lon="0.43504">
        <ele>160.245281</ele>
        <time>2021-09-06T15:09:25.000Z</time>
      </trkpt>
      <trkpt lat="48.52264" lon="0.43523">
        <ele>160.422552</ele>
        <time>2021-09-06T15:09:27.000Z</time>
      </trkpt>
      <trkpt lat="48.52267" lon="0.4354">
        <ele>160.592429</ele>
        <time>2021-09-06T15:09:29.000Z</time>
      </trkpt>
      <trkpt lat="48.52267" lon="0.43549">
        <ele>160.678641</ele>
        <time>2021-09-06T15:09:30.000Z</time>
      </trkpt>
      <trkpt lat="48.52267" lon="0.43575">
        <ele>160.930046</ele>
        <time>2021-09-06T15:09:33.000Z</time>
      </trkpt>
      <trkpt lat="48.52267" lon="0.43583">
        <ele>161.007799</ele>
        <time>2021-09-06T15:09:34.000Z</time>
      </trkpt>
      <trkpt lat="48.52268" lon="0.43592">
        <ele>161.08993</ele>
        <time>2021-09-06T15:09:35.000Z</time>
      </trkpt>
      <trkpt lat="48.52271" lon="0.43609">
        <ele>161.25423</ele>
        <time>2021-09-06T15:09:37.000Z</time>
      </trkpt>
      <trkpt lat="48.52272" lon="0.43617">
        <ele>161.33854</ele>
        <time>2021-09-06T15:09:38.000Z</time>
      </trkpt>
      <trkpt lat="48.52274" lon="0.43636">
        <ele>161.522647</ele>
        <time>2021-09-06T15:09:41.000Z</time>
      </trkpt>
      <trkpt lat="48.52281" lon="0.43689">
        <ele>162.0363</ele>
        <time>2021-09-06T15:09:47.000Z</time>
      </trkpt>
      <trkpt lat="48.52288" lon="0.4374">
        <ele>162.337713</ele>
        <time>2021-09-06T15:09:53.000Z</time>
      </trkpt>
      <trkpt lat="48.52294" lon="0.43778">
        <ele>162.470756</ele>
        <time>2021-09-06T15:09:58.000Z</time>
      </trkpt>
      <trkpt lat="48.52295" lon="0.43792">
        <ele>162.51797</ele>
        <time>2021-09-06T15:10:00.000Z</time>
      </trkpt>
      <trkpt lat="48.52296" lon="0.43805">
        <ele>162.562822</ele>
        <time>2021-09-06T15:10:02.000Z</time>
      </trkpt>
      <trkpt lat="48.52298" lon="0.43836">
        <ele>162.668984</ele>
        <time>2021-09-06T15:10:07.000Z</time>
      </trkpt>
      <trkpt lat="48.52301" lon="0.43858">
        <ele>162.747386</ele>
        <time>2021-09-06T15:10:11.000Z</time>
      </trkpt>
      <trkpt lat="48.52302" lon="0.43866">
        <ele>162.772261</ele>
        <time>2021-09-06T15:10:12.000Z</time>
      </trkpt>
      <trkpt lat="48.52306" lon="0.439">
        <ele>162.892757</ele>
        <time>2021-09-06T15:10:17.000Z</time>
      </trkpt>
      <trkpt lat="48.52312" lon="0.43946">
        <ele>163.050659</ele>
        <time>2021-09-06T15:10:24.000Z</time>
      </trkpt>
      <trkpt lat="48.52314" lon="0.43965">
        <ele>163.117519</ele>
        <time>2021-09-06T15:10:27.000Z</time>
      </trkpt>
      <trkpt lat="48.52315" lon="0.43979">
        <ele>163.187647</ele>
        <time>2021-09-06T15:10:29.000Z</time>
      </trkpt>
      <trkpt lat="48.5232" lon="0.44025">
        <ele>163.664753</ele>
        <time>2021-09-06T15:10:36.000Z</time>
      </trkpt>
      <trkpt lat="48.52325" lon="0.44072">
        <ele>164.146211</ele>
        <time>2021-09-06T15:10:44.000Z</time>
      </trkpt>
      <trkpt lat="48.52329" lon="0.44107">
        <ele>164.509237</ele>
        <time>2021-09-06T15:10:50.000Z</time>
      </trkpt>
      <trkpt lat="48.52333" lon="0.44151">
        <ele>164.964263</ele>
        <time>2021-09-06T15:10:58.000Z</time>
      </trkpt>
      <trkpt lat="48.52337" lon="0.44187">
        <ele>165.333801</ele>
        <time>2021-09-06T15:11:04.000Z</time>
      </trkpt>
      <trkpt lat="48.52342" lon="0.44227">
        <ele>165.752134</ele>
        <time>2021-09-06T15:11:11.000Z</time>
      </trkpt>
      <trkpt lat="48.52348" lon="0.44275">
        <ele>166.426502</ele>
        <time>2021-09-06T15:11:19.000Z</time>
      </trkpt>
      <trkpt lat="48.52353" lon="0.44311">
        <ele>167.000309</ele>
        <time>2021-09-06T15:11:25.000Z</time>
      </trkpt>
      <trkpt lat="48.52358" lon="0.44354">
        <ele>167.682079</ele>
        <time>2021-09-06T15:11:32.000Z</time>
      </trkpt>
      <trkpt lat="48.52363" lon="0.44391">
        <ele>168.272558</ele>
        <time>2021-09-06T15:11:38.000Z</time>
      </trkpt>
      <trkpt lat="48.52365" lon="0.44416">
        <ele>168.681377</ele>
        <time>2021-09-06T15:11:42.000Z</time>
      </trkpt>
      <trkpt lat="48.52368" lon="0.44435">
        <ele>168.978375</ele>
        <time>2021-09-06T15:11:45.000Z</time>
      </trkpt>
      <trkpt lat="48.52372" lon="0.44477">
        <ele>169.651223</ele>
        <time>2021-09-06T15:11:52.000Z</time>
      </trkpt>
      <trkpt lat="48.52377" lon="0.44508">
        <ele>170.141188</ele>
        <time>2021-09-06T15:11:57.000Z</time>
      </trkpt>
      <trkpt lat="48.5238" lon="0.44544">
        <ele>170.404502</ele>
        <time>2021-09-06T15:12:03.000Z</time>
      </trkpt>
      <trkpt lat="48.52383" lon="0.44576">
        <ele>170.616073</ele>
        <time>2021-09-06T15:12:09.000Z</time>
      </trkpt>
      <trkpt lat="48.52387" lon="0.44612">
        <ele>170.858999</ele>
        <time>2021-09-06T15:12:15.000Z</time>
      </trkpt>
      <trkpt lat="48.5239" lon="0.44645">
        <ele>171.077065</ele>
        <time>2021-09-06T15:12:20.000Z</time>
      </trkpt>
      <trkpt lat="48.52391" lon="0.44653">
        <ele>171.127996</ele>
        <time>2021-09-06T15:12:21.000Z</time>
      </trkpt>
      <trkpt lat="48.52394" lon="0.44681">
        <ele>171.313626</ele>
        <time>2021-09-06T15:12:25.000Z</time>
      </trkpt>
      <trkpt lat="48.52397" lon="0.44714">
        <ele>171.53834</ele>
        <time>2021-09-06T15:12:30.000Z</time>
      </trkpt>
      <trkpt lat="48.52401" lon="0.44749">
        <ele>171.766453</ele>
        <time>2021-09-06T15:12:35.000Z</time>
      </trkpt>
      <trkpt lat="48.52404" lon="0.44782">
        <ele>171.974801</ele>
        <time>2021-09-06T15:12:40.000Z</time>
      </trkpt>
      <trkpt lat="48.52407" lon="0.44807">
        <ele>172.046395</ele>
        <time>2021-09-06T15:12:44.000Z</time>
      </trkpt>
      <trkpt lat="48.52409" lon="0.44827">
        <ele>172.100357</ele>
        <time>2021-09-06T15:12:47.000Z</time>
      </trkpt>
      <trkpt lat="48.52412" lon="0.44846">
        <ele>172.15379</ele>
        <time>2021-09-06T15:12:50.000Z</time>
      </trkpt>
      <trkpt lat="48.52416" lon="0.44873">
        <ele>172.230932</ele>
        <time>2021-09-06T15:12:54.000Z</time>
      </trkpt>
      <trkpt lat="48.52417" lon="0.44881">
        <ele>172.252203</ele>
        <time>2021-09-06T15:12:55.000Z</time>
      </trkpt>
      <trkpt lat="48.52422" lon="0.44932">
        <ele>172.394861</ele>
        <time>2021-09-06T15:13:02.000Z</time>
      </trkpt>
      <trkpt lat="48.52424" lon="0.44949">
        <ele>172.440253</ele>
        <time>2021-09-06T15:13:05.000Z</time>
      </trkpt>
      <trkpt lat="48.52424" lon="0.44955">
        <ele>172.458402</ele>
        <time>2021-09-06T15:13:06.000Z</time>
      </trkpt>
      <trkpt lat="48.52427" lon="0.4498">
        <ele>172.527666</ele>
        <time>2021-09-06T15:13:10.000Z</time>
      </trkpt>
      <trkpt lat="48.52429" lon="0.45004">
        <ele>172.595108</ele>
        <time>2021-09-06T15:13:14.000Z</time>
      </trkpt>
      <trkpt lat="48.52434" lon="0.45036">
        <ele>172.684562</ele>
        <time>2021-09-06T15:13:19.000Z</time>
      </trkpt>
      <trkpt lat="48.52437" lon="0.45062">
        <ele>172.806774</ele>
        <time>2021-09-06T15:13:23.000Z</time>
      </trkpt>
      <trkpt lat="48.5244" lon="0.45089">
        <ele>172.970417</ele>
        <time>2021-09-06T15:13:27.000Z</time>
      </trkpt>
      <trkpt lat="48.52442" lon="0.45125">
        <ele>173.182633</ele>
        <time>2021-09-06T15:13:32.000Z</time>
      </trkpt>
      <trkpt lat="48.52443" lon="0.45152">
        <ele>173.342303</ele>
        <time>2021-09-06T15:13:36.000Z</time>
      </trkpt>
      <trkpt lat="48.52443" lon="0.45184">
        <ele>173.531876</ele>
        <time>2021-09-06T15:13:41.000Z</time>
      </trkpt>
      <trkpt lat="48.52445" lon="0.45214">
        <ele>173.708044</ele>
        <time>2021-09-06T15:13:46.000Z</time>
      </trkpt>
      <trkpt lat="48.52444" lon="0.45257">
        <ele>173.964859</ele>
        <time>2021-09-06T15:13:53.000Z</time>
      </trkpt>
      <trkpt lat="48.52445" lon="0.45289">
        <ele>174.149685</ele>
        <time>2021-09-06T15:13:58.000Z</time>
      </trkpt>
      <trkpt lat="48.52444" lon="0.4533">
        <ele>174.514082</ele>
        <time>2021-09-06T15:14:05.000Z</time>
      </trkpt>
      <trkpt lat="48.52442" lon="0.45357">
        <ele>174.910321</ele>
        <time>2021-09-06T15:14:10.000Z</time>
      </trkpt>
      <trkpt lat="48.52443" lon="0.45385">
        <ele>175.327916</ele>
        <time>2021-09-06T15:14:15.000Z</time>
      </trkpt>
      <trkpt lat="48.52442" lon="0.45406">
        <ele>175.640812</ele>
        <time>2021-09-06T15:14:19.000Z</time>
      </trkpt>
      <trkpt lat="48.52443" lon="0.45424">
        <ele>175.908305</ele>
        <time>2021-09-06T15:14:23.000Z</time>
      </trkpt>
      <trkpt lat="48.5244" lon="0.45462">
        <ele>176.473565</ele>
        <time>2021-09-06T15:14:29.000Z</time>
      </trkpt>
      <trkpt lat="48.52438" lon="0.45486">
        <ele>176.836562</ele>
        <time>2021-09-06T15:14:33.000Z</time>
      </trkpt>
      <trkpt lat="48.52437" lon="0.45511">
        <ele>177.20031</ele>
        <time>2021-09-06T15:14:37.000Z</time>
      </trkpt>
      <trkpt lat="48.52431" lon="0.45535">
        <ele>177.581963</ele>
        <time>2021-09-06T15:14:41.000Z</time>
      </trkpt>
      <trkpt lat="48.5243" lon="0.45541">
        <ele>177.670692</ele>
        <time>2021-09-06T15:14:42.000Z</time>
      </trkpt>
      <trkpt lat="48.52429" lon="0.4556">
        <ele>177.957572</ele>
        <time>2021-09-06T15:14:45.000Z</time>
      </trkpt>
      <trkpt lat="48.52423" lon="0.456">
        <ele>178.694204</ele>
        <time>2021-09-06T15:14:51.000Z</time>
      </trkpt>
      <trkpt lat="48.52419" lon="0.45617">
        <ele>179.119301</ele>
        <time>2021-09-06T15:14:54.000Z</time>
      </trkpt>
      <trkpt lat="48.52417" lon="0.45623">
        <ele>179.259385</ele>
        <time>2021-09-06T15:14:55.000Z</time>
      </trkpt>
      <trkpt lat="48.52415" lon="0.45644">
        <ele>179.770329</ele>
        <time>2021-09-06T15:14:59.000Z</time>
      </trkpt>
      <trkpt lat="48.52413" lon="0.45668">
        <ele>180.316205</ele>
        <time>2021-09-06T15:15:03.000Z</time>
      </trkpt>
      <trkpt lat="48.52412" lon="0.45673">
        <ele>180.442166</ele>
        <time>2021-09-06T15:15:04.000Z</time>
      </trkpt>
      <trkpt lat="48.52411" lon="0.45683">
        <ele>180.680174</ele>
        <time>2021-09-06T15:15:06.000Z</time>
      </trkpt>
      <trkpt lat="48.52406" lon="0.45706">
        <ele>181.231237</ele>
        <time>2021-09-06T15:15:10.000Z</time>
      </trkpt>
      <trkpt lat="48.52401" lon="0.45733">
        <ele>181.88601</ele>
        <time>2021-09-06T15:15:15.000Z</time>
      </trkpt>
      <trkpt lat="48.52396" lon="0.45757">
        <ele>182.475644</ele>
        <time>2021-09-06T15:15:19.000Z</time>
      </trkpt>
      <trkpt lat="48.52387" lon="0.45791">
        <ele>183.310744</ele>
        <time>2021-09-06T15:15:24.000Z</time>
      </trkpt>
      <trkpt lat="48.52382" lon="0.45812">
        <ele>183.834297</ele>
        <time>2021-09-06T15:15:28.000Z</time>
      </trkpt>
      <trkpt lat="48.52377" lon="0.45834">
        <ele>184.386937</ele>
        <time>2021-09-06T15:15:32.000Z</time>
      </trkpt>
      <trkpt lat="48.52365" lon="0.4587">
        <ele>185.106731</ele>
        <time>2021-09-06T15:15:38.000Z</time>
      </trkpt>
      <trkpt lat="48.52356" lon="0.45901">
        <ele>185.658545</ele>
        <time>2021-09-06T15:15:43.000Z</time>
      </trkpt>
      <trkpt lat="48.52343" lon="0.45932">
        <ele>186.253506</ele>
        <time>2021-09-06T15:15:48.000Z</time>
      </trkpt>
      <trkpt lat="48.52338" lon="0.45958">
        <ele>186.687457</ele>
        <time>2021-09-06T15:15:53.000Z</time>
      </trkpt>
      <trkpt lat="48.52328" lon="0.45989">
        <ele>187.24914</ele>
        <time>2021-09-06T15:15:59.000Z</time>
      </trkpt>
      <trkpt lat="48.52317" lon="0.46024">
        <ele>187.876632</ele>
        <time>2021-09-06T15:16:05.000Z</time>
      </trkpt>
      <trkpt lat="48.52311" lon="0.46046">
        <ele>188.263521</ele>
        <time>2021-09-06T15:16:10.000Z</time>
      </trkpt>
      <trkpt lat="48.52301" lon="0.46075">
        <ele>188.80453</ele>
        <time>2021-09-06T15:16:17.000Z</time>
      </trkpt>
      <trkpt lat="48.52291" lon="0.46099">
        <ele>189.135607</ele>
        <time>2021-09-06T15:16:22.000Z</time>
      </trkpt>
      <trkpt lat="48.52287" lon="0.46111">
        <ele>189.228469</ele>
        <time>2021-09-06T15:16:25.000Z</time>
      </trkpt>
      <trkpt lat="48.52284" lon="0.4612">
        <ele>189.294899</ele>
        <time>2021-09-06T15:16:27.000Z</time>
      </trkpt>
      <trkpt lat="48.52274" lon="0.4614">
        <ele>189.456432</ele>
        <time>2021-09-06T15:16:32.000Z</time>
      </trkpt>
      <trkpt lat="48.52269" lon="0.46151">
        <ele>189.5488</ele>
        <time>2021-09-06T15:16:35.000Z</time>
      </trkpt>
      <trkpt lat="48.52267" lon="0.46155">
        <ele>189.580385</ele>
        <time>2021-09-06T15:16:36.000Z</time>
      </trkpt>
      <trkpt lat="48.52254" lon="0.46186">
        <ele>189.826499</ele>
        <time>2021-09-06T15:16:42.000Z</time>
      </trkpt>
      <trkpt lat="48.52247" lon="0.46204">
        <ele>189.96827</ele>
        <time>2021-09-06T15:16:47.000Z</time>
      </trkpt>
      <trkpt lat="48.52244" lon="0.46208">
        <ele>190.002872</ele>
        <time>2021-09-06T15:16:48.000Z</time>
      </trkpt>
      <trkpt lat="48.52239" lon="0.46217">
        <ele>190.081104</ele>
        <time>2021-09-06T15:16:50.000Z</time>
      </trkpt>
      <trkpt lat="48.52227" lon="0.46241">
        <ele>190.283643</ele>
        <time>2021-09-06T15:16:55.000Z</time>
      </trkpt>
      <trkpt lat="48.52222" lon="0.46247">
        <ele>190.343246</ele>
        <time>2021-09-06T15:16:56.000Z</time>
      </trkpt>
      <trkpt lat="48.52195" lon="0.46282">
        <ele>190.698519</ele>
        <time>2021-09-06T15:17:01.000Z</time>
      </trkpt>
      <trkpt lat="48.5218" lon="0.46311">
        <ele>190.817977</ele>
        <time>2021-09-06T15:17:08.000Z</time>
      </trkpt>
      <trkpt lat="48.5217" lon="0.4633">
        <ele>190.753547</ele>
        <time>2021-09-06T15:17:13.000Z</time>
      </trkpt>
      <trkpt lat="48.5216" lon="0.46353">
        <ele>190.678099</ele>
        <time>2021-09-06T15:17:19.000Z</time>
      </trkpt>
      <trkpt lat="48.52146" lon="0.46377">
        <ele>190.58996</ele>
        <time>2021-09-06T15:17:25.000Z</time>
      </trkpt>
      <trkpt lat="48.52134" lon="0.464">
        <ele>190.507315</ele>
        <time>2021-09-06T15:17:31.000Z</time>
      </trkpt>
      <trkpt lat="48.5212" lon="0.46427">
        <ele>190.412484</ele>
        <time>2021-09-06T15:17:37.000Z</time>
      </trkpt>
      <trkpt lat="48.52108" lon="0.4645">
        <ele>190.332279</ele>
        <time>2021-09-06T15:17:42.000Z</time>
      </trkpt>
      <trkpt lat="48.521" lon="0.46468">
        <ele>190.271573</ele>
        <time>2021-09-06T15:17:46.000Z</time>
      </trkpt>
      <trkpt lat="48.52084" lon="0.46495">
        <ele>190.172469</ele>
        <time>2021-09-06T15:17:51.000Z</time>
      </trkpt>
      <trkpt lat="48.52069" lon="0.46521">
        <ele>190.185278</ele>
        <time>2021-09-06T15:17:56.000Z</time>
      </trkpt>
      <trkpt lat="48.5206" lon="0.4654">
        <ele>190.366051</ele>
        <time>2021-09-06T15:18:01.000Z</time>
      </trkpt>
      <trkpt lat="48.52049" lon="0.4656">
        <ele>190.557011</ele>
        <time>2021-09-06T15:18:06.000Z</time>
      </trkpt>
      <trkpt lat="48.52035" lon="0.46583">
        <ele>190.792714</ele>
        <time>2021-09-06T15:18:12.000Z</time>
      </trkpt>
      <trkpt lat="48.52023" lon="0.46604">
        <ele>190.995889</ele>
        <time>2021-09-06T15:18:17.000Z</time>
      </trkpt>
      <trkpt lat="48.52014" lon="0.46622">
        <ele>191.165586</ele>
        <time>2021-09-06T15:18:21.000Z</time>
      </trkpt>
      <trkpt lat="48.52003" lon="0.46641">
        <ele>191.349237</ele>
        <time>2021-09-06T15:18:26.000Z</time>
      </trkpt>
      <trkpt lat="48.51993" lon="0.46661">
        <ele>191.538271</ele>
        <time>2021-09-06T15:18:30.000Z</time>
      </trkpt>
      <trkpt lat="48.51977" lon="0.46691">
        <ele>191.825807</ele>
        <time>2021-09-06T15:18:36.000Z</time>
      </trkpt>
      <trkpt lat="48.51965" lon="0.46719">
        <ele>192.075264</ele>
        <time>2021-09-06T15:18:41.000Z</time>
      </trkpt>
      <trkpt lat="48.51958" lon="0.4674">
        <ele>192.346369</ele>
        <time>2021-09-06T15:18:44.000Z</time>
      </trkpt>
      <trkpt lat="48.51953" lon="0.46752">
        <ele>192.54471</ele>
        <time>2021-09-06T15:18:46.000Z</time>
      </trkpt>
      <trkpt lat="48.51942" lon="0.46787">
        <ele>193.076017</ele>
        <time>2021-09-06T15:18:52.000Z</time>
      </trkpt>
      <trkpt lat="48.51931" lon="0.46825">
        <ele>193.632371</ele>
        <time>2021-09-06T15:18:59.000Z</time>
      </trkpt>
      <trkpt lat="48.51923" lon="0.46859">
        <ele>194.128821</ele>
        <time>2021-09-06T15:19:05.000Z</time>
      </trkpt>
      <trkpt lat="48.51916" lon="0.46893">
        <ele>194.608715</ele>
        <time>2021-09-06T15:19:11.000Z</time>
      </trkpt>
      <trkpt lat="48.51911" lon="0.46933">
        <ele>195.165899</ele>
        <time>2021-09-06T15:19:18.000Z</time>
      </trkpt>
      <trkpt lat="48.51907" lon="0.46972">
        <ele>195.709438</ele>
        <time>2021-09-06T15:19:25.000Z</time>
      </trkpt>
      <trkpt lat="48.51903" lon="0.47016">
        <ele>196.482449</ele>
        <time>2021-09-06T15:19:33.000Z</time>
      </trkpt>
      <trkpt lat="48.51901" lon="0.47052">
        <ele>197.153545</ele>
        <time>2021-09-06T15:19:40.000Z</time>
      </trkpt>
      <trkpt lat="48.51899" lon="0.47083">
        <ele>197.73621</ele>
        <time>2021-09-06T15:19:46.000Z</time>
      </trkpt>
      <trkpt lat="48.51896" lon="0.4712">
        <ele>198.423405</ele>
        <time>2021-09-06T15:19:53.000Z</time>
      </trkpt>
      <trkpt lat="48.51894" lon="0.47176">
        <ele>199.461061</ele>
        <time>2021-09-06T15:20:03.000Z</time>
      </trkpt>
      <trkpt lat="48.51892" lon="0.47212">
        <ele>200.135861</ele>
        <time>2021-09-06T15:20:10.000Z</time>
      </trkpt>
      <trkpt lat="48.51891" lon="0.47266">
        <ele>201.181697</ele>
        <time>2021-09-06T15:20:20.000Z</time>
      </trkpt>
      <trkpt lat="48.5189" lon="0.47306">
        <ele>202.050913</ele>
        <time>2021-09-06T15:20:27.000Z</time>
      </trkpt>
      <trkpt lat="48.51892" lon="0.47346">
        <ele>202.917806</ele>
        <time>2021-09-06T15:20:34.000Z</time>
      </trkpt>
      <trkpt lat="48.51894" lon="0.47363">
        <ele>203.298004</ele>
        <time>2021-09-06T15:20:38.000Z</time>
      </trkpt>
      <trkpt lat="48.51896" lon="0.47391">
        <ele>203.905251</ele>
        <time>2021-09-06T15:20:43.000Z</time>
      </trkpt>
      <trkpt lat="48.51899" lon="0.47429">
        <ele>204.734592</ele>
        <time>2021-09-06T15:20:49.000Z</time>
      </trkpt>
      <trkpt lat="48.51901" lon="0.47455">
        <ele>205.297773</ele>
        <time>2021-09-06T15:20:53.000Z</time>
      </trkpt>
      <trkpt lat="48.51903" lon="0.47487">
        <ele>205.979677</ele>
        <time>2021-09-06T15:20:58.000Z</time>
      </trkpt>
      <trkpt lat="48.51906" lon="0.47509">
        <ele>206.467592</ele>
        <time>2021-09-06T15:21:02.000Z</time>
      </trkpt>
      <trkpt lat="48.51909" lon="0.47537">
        <ele>207.362372</ele>
        <time>2021-09-06T15:21:07.000Z</time>
      </trkpt>
      <trkpt lat="48.51914" lon="0.47568">
        <ele>208.62633</ele>
        <time>2021-09-06T15:21:12.000Z</time>
      </trkpt>
      <trkpt lat="48.51916" lon="0.47592">
        <ele>209.565244</ele>
        <time>2021-09-06T15:21:16.000Z</time>
      </trkpt>
      <trkpt lat="48.51919" lon="0.47617">
        <ele>210.540179</ele>
        <time>2021-09-06T15:21:20.000Z</time>
      </trkpt>
      <trkpt lat="48.51924" lon="0.4764">
        <ele>211.518826</ele>
        <time>2021-09-06T15:21:24.000Z</time>
      </trkpt>
      <trkpt lat="48.5193" lon="0.47671">
        <ele>212.760042</ele>
        <time>2021-09-06T15:21:29.000Z</time>
      </trkpt>
      <trkpt lat="48.51937" lon="0.47703">
        <ele>214.064222</ele>
        <time>2021-09-06T15:21:35.000Z</time>
      </trkpt>
      <trkpt lat="48.51942" lon="0.47728">
        <ele>215.121618</ele>
        <time>2021-09-06T15:21:40.000Z</time>
      </trkpt>
      <trkpt lat="48.51944" lon="0.47754">
        <ele>216.137313</ele>
        <time>2021-09-06T15:21:45.000Z</time>
      </trkpt>
      <trkpt lat="48.51948" lon="0.47786">
        <ele>217.428954</ele>
        <time>2021-09-06T15:21:51.000Z</time>
      </trkpt>
      <trkpt lat="48.51953" lon="0.47818">
        <ele>219.027214</ele>
        <time>2021-09-06T15:21:57.000Z</time>
      </trkpt>
      <trkpt lat="48.51958" lon="0.47848">
        <ele>220.601804</ele>
        <time>2021-09-06T15:22:03.000Z</time>
      </trkpt>
      <trkpt lat="48.51962" lon="0.47867">
        <ele>221.575381</ele>
        <time>2021-09-06T15:22:07.000Z</time>
      </trkpt>
      <trkpt lat="48.51968" lon="0.47893">
        <ele>222.945957</ele>
        <time>2021-09-06T15:22:13.000Z</time>
      </trkpt>
      <trkpt lat="48.51974" lon="0.47918">
        <ele>224.271377</ele>
        <time>2021-09-06T15:22:18.000Z</time>
      </trkpt>
      <trkpt lat="48.51979" lon="0.47937">
        <ele>225.298666</ele>
        <time>2021-09-06T15:22:22.000Z</time>
      </trkpt>
      <trkpt lat="48.51984" lon="0.47964">
        <ele>226.66151</ele>
        <time>2021-09-06T15:22:28.000Z</time>
      </trkpt>
      <trkpt lat="48.5199" lon="0.4799">
        <ele>228.033716</ele>
        <time>2021-09-06T15:22:33.000Z</time>
      </trkpt>
      <trkpt lat="48.51996" lon="0.48017">
        <ele>229.462893</ele>
        <time>2021-09-06T15:22:38.000Z</time>
      </trkpt>
      <trkpt lat="48.52" lon="0.48038">
        <ele>230.541095</ele>
        <time>2021-09-06T15:22:42.000Z</time>
      </trkpt>
      <trkpt lat="48.52006" lon="0.48066">
        <ele>231.567557</ele>
        <time>2021-09-06T15:22:47.000Z</time>
      </trkpt>
      <trkpt lat="48.52009" lon="0.48093">
        <ele>232.42158</ele>
        <time>2021-09-06T15:22:52.000Z</time>
      </trkpt>
      <trkpt lat="48.52012" lon="0.48123">
        <ele>233.333679</ele>
        <time>2021-09-06T15:22:57.000Z</time>
      </trkpt>
      <trkpt lat="48.52017" lon="0.48161">
        <ele>234.487329</ele>
        <time>2021-09-06T15:23:03.000Z</time>
      </trkpt>
      <trkpt lat="48.52025" lon="0.48193">
        <ele>235.521873</ele>
        <time>2021-09-06T15:23:08.000Z</time>
      </trkpt>
      <trkpt lat="48.52041" lon="0.48232">
        <ele>236.918894</ele>
        <time>2021-09-06T15:23:15.000Z</time>
      </trkpt>
      <trkpt lat="48.52075" lon="0.48282">
        <ele>239.088678</ele>
        <time>2021-09-06T15:23:25.000Z</time>
      </trkpt>
      <trkpt lat="48.52097" lon="0.48318">
        <ele>238.486792</ele>
        <time>2021-09-06T15:23:32.000Z</time>
      </trkpt>
      <trkpt lat="48.521" lon="0.48324">
        <ele>238.400341</ele>
        <time>2021-09-06T15:23:33.000Z</time>
      </trkpt>
      <trkpt lat="48.52108" lon="0.48349">
        <ele>238.049352</ele>
        <time>2021-09-06T15:23:37.000Z</time>
      </trkpt>
      <trkpt lat="48.52112" lon="0.48367">
        <ele>237.813955</ele>
        <time>2021-09-06T15:23:40.000Z</time>
      </trkpt>
      <trkpt lat="48.52113" lon="0.48404">
        <ele>237.347107</ele>
        <time>2021-09-06T15:23:47.000Z</time>
      </trkpt>
      <trkpt lat="48.52112" lon="0.48406">
        <ele>237.309716</ele>
        <time>2021-09-06T15:23:50.000Z</time>
      </trkpt>
      <trkpt lat="48.52111" lon="0.48409">
        <ele>237.268084</ele>
        <time>2021-09-06T15:24:42.000Z</time>
      </trkpt>
      <trkpt lat="48.5211" lon="0.48415">
        <ele>237.195955</ele>
        <time>2021-09-06T15:24:44.000Z</time>
      </trkpt>
      <trkpt lat="48.521" lon="0.48425">
        <ele>236.964318</ele>
        <time>2021-09-06T15:24:49.000Z</time>
      </trkpt>
      <trkpt lat="48.52084" lon="0.48431">
        <ele>236.655138</ele>
        <time>2021-09-06T15:24:55.000Z</time>
      </trkpt>
      <trkpt lat="48.52067" lon="0.48446">
        <ele>236.287201</ele>
        <time>2021-09-06T15:25:02.000Z</time>
      </trkpt>
      <trkpt lat="48.52054" lon="0.48453">
        <ele>236.013775</ele>
        <time>2021-09-06T15:25:08.000Z</time>
      </trkpt>
      <trkpt lat="48.52033" lon="0.48464">
        <ele>235.515343</ele>
        <time>2021-09-06T15:25:15.000Z</time>
      </trkpt>
      <trkpt lat="48.5201" lon="0.48471">
        <ele>234.711449</ele>
        <time>2021-09-06T15:25:23.000Z</time>
      </trkpt>
      <trkpt lat="48.51995" lon="0.48479">
        <ele>234.133419</ele>
        <time>2021-09-06T15:25:30.000Z</time>
      </trkpt>
      <trkpt lat="48.51984" lon="0.48492">
        <ele>233.647005</ele>
        <time>2021-09-06T15:25:36.000Z</time>
      </trkpt>
      <trkpt lat="48.51978" lon="0.48506">
        <ele>233.253296</ele>
        <time>2021-09-06T15:25:41.000Z</time>
      </trkpt>
      <trkpt lat="48.51976" lon="0.48511">
        <ele>233.113068</ele>
        <time>2021-09-06T15:25:43.000Z</time>
      </trkpt>
      <trkpt lat="48.51974" lon="0.48522">
        <ele>232.868733</ele>
        <time>2021-09-06T15:25:46.000Z</time>
      </trkpt>
      <trkpt lat="48.51968" lon="0.48543">
        <ele>232.310963</ele>
        <time>2021-09-06T15:25:52.000Z</time>
      </trkpt>
      <trkpt lat="48.51961" lon="0.48568">
        <ele>231.700385</ele>
        <time>2021-09-06T15:25:58.000Z</time>
      </trkpt>
      <trkpt lat="48.51956" lon="0.48587">
        <ele>231.201026</ele>
        <time>2021-09-06T15:26:02.000Z</time>
      </trkpt>
      <trkpt lat="48.5194" lon="0.48621">
        <ele>230.223107</ele>
        <time>2021-09-06T15:26:07.000Z</time>
      </trkpt>
      <trkpt lat="48.51937" lon="0.48629">
        <ele>230.031535</ele>
        <time>2021-09-06T15:26:08.000Z</time>
      </trkpt>
      <trkpt lat="48.51926" lon="0.48658">
        <ele>229.295675</ele>
        <time>2021-09-06T15:26:12.000Z</time>
      </trkpt>
      <trkpt lat="48.5192" lon="0.48673">
        <ele>229.166089</ele>
        <time>2021-09-06T15:26:14.000Z</time>
      </trkpt>
      <trkpt lat="48.51913" lon="0.48688">
        <ele>229.029127</ele>
        <time>2021-09-06T15:26:16.000Z</time>
      </trkpt>
      <trkpt lat="48.51896" lon="0.48726">
        <ele>228.682671</ele>
        <time>2021-09-06T15:26:21.000Z</time>
      </trkpt>
      <trkpt lat="48.5189" lon="0.48753">
        <ele>228.465026</ele>
        <time>2021-09-06T15:26:25.000Z</time>
      </trkpt>
      <trkpt lat="48.51885" lon="0.48765">
        <ele>228.359987</ele>
        <time>2021-09-06T15:26:28.000Z</time>
      </trkpt>
      <trkpt lat="48.51879" lon="0.48783">
        <ele>228.205073</ele>
        <time>2021-09-06T15:26:32.000Z</time>
      </trkpt>
      <trkpt lat="48.51873" lon="0.48807">
        <ele>228.00988</ele>
        <time>2021-09-06T15:26:36.000Z</time>
      </trkpt>
      <trkpt lat="48.51869" lon="0.48822">
        <ele>227.886351</ele>
        <time>2021-09-06T15:26:38.000Z</time>
      </trkpt>
      <trkpt lat="48.51864" lon="0.48838">
        <ele>227.756168</ele>
        <time>2021-09-06T15:26:40.000Z</time>
      </trkpt>
      <trkpt lat="48.51863" lon="0.48846">
        <ele>227.693233</ele>
        <time>2021-09-06T15:26:41.000Z</time>
      </trkpt>
      <trkpt lat="48.5186" lon="0.48862">
        <ele>227.569275</ele>
        <time>2021-09-06T15:26:43.000Z</time>
      </trkpt>
      <trkpt lat="48.51858" lon="0.4887">
        <ele>227.503422</ele>
        <time>2021-09-06T15:26:44.000Z</time>
      </trkpt>
      <trkpt lat="48.51849" lon="0.4891">
        <ele>227.499629</ele>
        <time>2021-09-06T15:26:49.000Z</time>
      </trkpt>
      <trkpt lat="48.51845" lon="0.48942">
        <ele>228.128735</ele>
        <time>2021-09-06T15:26:53.000Z</time>
      </trkpt>
      <trkpt lat="48.51845" lon="0.48949">
        <ele>228.276545</ele>
        <time>2021-09-06T15:26:54.000Z</time>
      </trkpt>
      <trkpt lat="48.51844" lon="0.48964">
        <ele>228.574844</ele>
        <time>2021-09-06T15:26:56.000Z</time>
      </trkpt>
      <trkpt lat="48.51841" lon="0.48988">
        <ele>229.052789</ele>
        <time>2021-09-06T15:26:59.000Z</time>
      </trkpt>
      <trkpt lat="48.51838" lon="0.49019">
        <ele>229.677525</ele>
        <time>2021-09-06T15:27:03.000Z</time>
      </trkpt>
      <trkpt lat="48.51837" lon="0.49027">
        <ele>229.82762</ele>
        <time>2021-09-06T15:27:04.000Z</time>
      </trkpt>
      <trkpt lat="48.51837" lon="0.49053">
        <ele>230.342004</ele>
        <time>2021-09-06T15:27:08.000Z</time>
      </trkpt>
      <trkpt lat="48.51838" lon="0.49084">
        <ele>230.960685</ele>
        <time>2021-09-06T15:27:13.000Z</time>
      </trkpt>
      <trkpt lat="48.51839" lon="0.491">
        <ele>231.260948</ele>
        <time>2021-09-06T15:27:15.000Z</time>
      </trkpt>
      <trkpt lat="48.51841" lon="0.49123">
        <ele>231.720273</ele>
        <time>2021-09-06T15:27:18.000Z</time>
      </trkpt>
      <trkpt lat="48.51843" lon="0.49138">
        <ele>232.023465</ele>
        <time>2021-09-06T15:27:20.000Z</time>
      </trkpt>
      <trkpt lat="48.51844" lon="0.49163">
        <ele>232.516851</ele>
        <time>2021-09-06T15:27:23.000Z</time>
      </trkpt>
      <trkpt lat="48.51847" lon="0.49197">
        <ele>233.701321</ele>
        <time>2021-09-06T15:27:27.000Z</time>
      </trkpt>
      <trkpt lat="48.51849" lon="0.49204">
        <ele>233.998794</ele>
        <time>2021-09-06T15:27:28.000Z</time>
      </trkpt>
      <trkpt lat="48.5185" lon="0.49212">
        <ele>234.293489</ele>
        <time>2021-09-06T15:27:29.000Z</time>
      </trkpt>
      <trkpt lat="48.51857" lon="0.49242">
        <ele>235.480114</ele>
        <time>2021-09-06T15:27:33.000Z</time>
      </trkpt>
      <trkpt lat="48.51861" lon="0.49271">
        <ele>236.577786</ele>
        <time>2021-09-06T15:27:37.000Z</time>
      </trkpt>
      <trkpt lat="48.51865" lon="0.49293">
        <ele>237.421614</ele>
        <time>2021-09-06T15:27:40.000Z</time>
      </trkpt>
      <trkpt lat="48.51868" lon="0.49307">
        <ele>237.966437</ele>
        <time>2021-09-06T15:27:42.000Z</time>
      </trkpt>
      <trkpt lat="48.51869" lon="0.49314">
        <ele>238.242093</ele>
        <time>2021-09-06T15:27:43.000Z</time>
      </trkpt>
      <trkpt lat="48.5187" lon="0.49322">
        <ele>238.544045</ele>
        <time>2021-09-06T15:27:44.000Z</time>
      </trkpt>
      <trkpt lat="48.51875" lon="0.49344">
        <ele>239.418608</ele>
        <time>2021-09-06T15:27:47.000Z</time>
      </trkpt>
      <trkpt lat="48.51882" lon="0.49383">
        <ele>240.900621</ele>
        <time>2021-09-06T15:27:52.000Z</time>
      </trkpt>
      <trkpt lat="48.5189" lon="0.49429">
        <ele>242.686944</ele>
        <time>2021-09-06T15:27:57.000Z</time>
      </trkpt>
      <trkpt lat="48.51899" lon="0.49479">
        <ele>244.351889</ele>
        <time>2021-09-06T15:28:02.000Z</time>
      </trkpt>
      <trkpt lat="48.51901" lon="0.49489">
        <ele>244.666415</ele>
        <time>2021-09-06T15:28:03.000Z</time>
      </trkpt>
      <trkpt lat="48.51906" lon="0.49515">
        <ele>245.54896</ele>
        <time>2021-09-06T15:28:06.000Z</time>
      </trkpt>
      <trkpt lat="48.5191" lon="0.49534">
        <ele>246.168837</ele>
        <time>2021-09-06T15:28:08.000Z</time>
      </trkpt>
      <trkpt lat="48.51913" lon="0.49554">
        <ele>246.832893</ele>
        <time>2021-09-06T15:28:10.000Z</time>
      </trkpt>
      <trkpt lat="48.51926" lon="0.49627">
        <ele>249.224405</ele>
        <time>2021-09-06T15:28:17.000Z</time>
      </trkpt>
      <trkpt lat="48.51934" lon="0.49678">
        <ele>250.899576</ele>
        <time>2021-09-06T15:28:22.000Z</time>
      </trkpt>
      <trkpt lat="48.51936" lon="0.49687">
        <ele>251.217162</ele>
        <time>2021-09-06T15:28:23.000Z</time>
      </trkpt>
      <trkpt lat="48.5194" lon="0.49718">
        <ele>252.007336</ele>
        <time>2021-09-06T15:28:26.000Z</time>
      </trkpt>
      <trkpt lat="48.5194" lon="0.49729">
        <ele>252.256832</ele>
        <time>2021-09-06T15:28:27.000Z</time>
      </trkpt>
      <trkpt lat="48.51944" lon="0.49759">
        <ele>252.972695</ele>
        <time>2021-09-06T15:28:30.000Z</time>
      </trkpt>
      <trkpt lat="48.51947" lon="0.49779">
        <ele>253.463579</ele>
        <time>2021-09-06T15:28:32.000Z</time>
      </trkpt>
      <trkpt lat="48.51953" lon="0.49827">
        <ele>254.618311</ele>
        <time>2021-09-06T15:28:37.000Z</time>
      </trkpt>
      <trkpt lat="48.51957" lon="0.49885">
        <ele>255.992498</ele>
        <time>2021-09-06T15:28:43.000Z</time>
      </trkpt>
      <trkpt lat="48.51958" lon="0.49905">
        <ele>256.481163</ele>
        <time>2021-09-06T15:28:46.000Z</time>
      </trkpt>
      <trkpt lat="48.51966" lon="0.49938">
        <ele>257.314075</ele>
        <time>2021-09-06T15:28:51.000Z</time>
      </trkpt>
      <trkpt lat="48.51973" lon="0.49975">
        <ele>257.937174</ele>
        <time>2021-09-06T15:28:56.000Z</time>
      </trkpt>
      <trkpt lat="48.51973" lon="0.49983">
        <ele>257.995638</ele>
        <time>2021-09-06T15:28:57.000Z</time>
      </trkpt>
      <trkpt lat="48.51975" lon="0.50008">
        <ele>258.182458</ele>
        <time>2021-09-06T15:29:00.000Z</time>
      </trkpt>
      <trkpt lat="48.51979" lon="0.50056">
        <ele>258.54764</ele>
        <time>2021-09-06T15:29:05.000Z</time>
      </trkpt>
      <trkpt lat="48.51985" lon="0.50105">
        <ele>258.917852</ele>
        <time>2021-09-06T15:29:10.000Z</time>
      </trkpt>
      <trkpt lat="48.51986" lon="0.50123">
        <ele>259.056226</ele>
        <time>2021-09-06T15:29:12.000Z</time>
      </trkpt>
      <trkpt lat="48.51987" lon="0.50142">
        <ele>259.199679</ele>
        <time>2021-09-06T15:29:14.000Z</time>
      </trkpt>
      <trkpt lat="48.51988" lon="0.50161">
        <ele>259.343555</ele>
        <time>2021-09-06T15:29:16.000Z</time>
      </trkpt>
      <trkpt lat="48.51989" lon="0.50182">
        <ele>259.500146</ele>
        <time>2021-09-06T15:29:18.000Z</time>
      </trkpt>
      <trkpt lat="48.51991" lon="0.50228">
        <ele>259.833223</ele>
        <time>2021-09-06T15:29:23.000Z</time>
      </trkpt>
      <trkpt lat="48.51992" lon="0.50282">
        <ele>259.310121</ele>
        <time>2021-09-06T15:29:28.000Z</time>
      </trkpt>
      <trkpt lat="48.51993" lon="0.50325">
        <ele>258.883277</ele>
        <time>2021-09-06T15:29:32.000Z</time>
      </trkpt>
      <trkpt lat="48.51994" lon="0.50355">
        <ele>258.584443</ele>
        <time>2021-09-06T15:29:35.000Z</time>
      </trkpt>
      <trkpt lat="48.51995" lon="0.50366">
        <ele>258.482154</ele>
        <time>2021-09-06T15:29:36.000Z</time>
      </trkpt>
      <trkpt lat="48.51996" lon="0.50377">
        <ele>258.369641</ele>
        <time>2021-09-06T15:29:37.000Z</time>
      </trkpt>
      <trkpt lat="48.51995" lon="0.5041">
        <ele>258.048102</ele>
        <time>2021-09-06T15:29:40.000Z</time>
      </trkpt>
      <trkpt lat="48.51994" lon="0.50443">
        <ele>257.72465</ele>
        <time>2021-09-06T15:29:43.000Z</time>
      </trkpt>
      <trkpt lat="48.51993" lon="0.50462">
        <ele>257.533345</ele>
        <time>2021-09-06T15:29:45.000Z</time>
      </trkpt>
      <trkpt lat="48.51992" lon="0.50472">
        <ele>257.436896</ele>
        <time>2021-09-06T15:29:46.000Z</time>
      </trkpt>
      <trkpt lat="48.51992" lon="0.50502">
        <ele>257.118601</ele>
        <time>2021-09-06T15:29:49.000Z</time>
      </trkpt>
      <trkpt lat="48.51992" lon="0.50522">
        <ele>256.798745</ele>
        <time>2021-09-06T15:29:51.000Z</time>
      </trkpt>
      <trkpt lat="48.51991" lon="0.50553">
        <ele>256.312636</ele>
        <time>2021-09-06T15:29:54.000Z</time>
      </trkpt>
      <trkpt lat="48.51987" lon="0.50602">
        <ele>255.523042</ele>
        <time>2021-09-06T15:29:59.000Z</time>
      </trkpt>
      <trkpt lat="48.51984" lon="0.50654">
        <ele>254.699913</ele>
        <time>2021-09-06T15:30:04.000Z</time>
      </trkpt>
      <trkpt lat="48.51983" lon="0.50674">
        <ele>254.387534</ele>
        <time>2021-09-06T15:30:06.000Z</time>
      </trkpt>
      <trkpt lat="48.51983" lon="0.50694">
        <ele>254.061318</ele>
        <time>2021-09-06T15:30:08.000Z</time>
      </trkpt>
      <trkpt lat="48.51983" lon="0.50705">
        <ele>253.894786</ele>
        <time>2021-09-06T15:30:09.000Z</time>
      </trkpt>
      <trkpt lat="48.51977" lon="0.50737">
        <ele>253.376832</ele>
        <time>2021-09-06T15:30:12.000Z</time>
      </trkpt>
      <trkpt lat="48.51966" lon="0.50789">
        <ele>251.927126</ele>
        <time>2021-09-06T15:30:17.000Z</time>
      </trkpt>
      <trkpt lat="48.51961" lon="0.50842">
        <ele>249.781088</ele>
        <time>2021-09-06T15:30:22.000Z</time>
      </trkpt>
      <trkpt lat="48.51961" lon="0.5086">
        <ele>249.070009</ele>
        <time>2021-09-06T15:30:24.000Z</time>
      </trkpt>
      <trkpt lat="48.51961" lon="0.50878">
        <ele>248.36327</ele>
        <time>2021-09-06T15:30:26.000Z</time>
      </trkpt>
      <trkpt lat="48.5196" lon="0.50887">
        <ele>247.999111</ele>
        <time>2021-09-06T15:30:27.000Z</time>
      </trkpt>
      <trkpt lat="48.51957" lon="0.50927">
        <ele>246.351496</ele>
        <time>2021-09-06T15:30:31.000Z</time>
      </trkpt>
      <trkpt lat="48.51954" lon="0.50949">
        <ele>245.484766</ele>
        <time>2021-09-06T15:30:33.000Z</time>
      </trkpt>
      <trkpt lat="48.5195" lon="0.50967">
        <ele>244.726891</ele>
        <time>2021-09-06T15:30:35.000Z</time>
      </trkpt>
      <trkpt lat="48.51945" lon="0.51004">
        <ele>243.200939</ele>
        <time>2021-09-06T15:30:39.000Z</time>
      </trkpt>
      <trkpt lat="48.51936" lon="0.51041">
        <ele>241.514221</ele>
        <time>2021-09-06T15:30:43.000Z</time>
      </trkpt>
      <trkpt lat="48.51934" lon="0.5105">
        <ele>241.050636</ele>
        <time>2021-09-06T15:30:44.000Z</time>
      </trkpt>
      <trkpt lat="48.51932" lon="0.51059">
        <ele>240.596613</ele>
        <time>2021-09-06T15:30:45.000Z</time>
      </trkpt>
      <trkpt lat="48.51923" lon="0.51095">
        <ele>238.716202</ele>
        <time>2021-09-06T15:30:49.000Z</time>
      </trkpt>
      <trkpt lat="48.51905" lon="0.51155">
        <ele>235.506393</ele>
        <time>2021-09-06T15:30:55.000Z</time>
      </trkpt>
      <trkpt lat="48.51896" lon="0.51184">
        <ele>233.958588</ele>
        <time>2021-09-06T15:30:58.000Z</time>
      </trkpt>
      <trkpt lat="48.51887" lon="0.51212">
        <ele>232.413125</ele>
        <time>2021-09-06T15:31:01.000Z</time>
      </trkpt>
      <trkpt lat="48.51872" lon="0.51254">
        <ele>230.116253</ele>
        <time>2021-09-06T15:31:06.000Z</time>
      </trkpt>
      <trkpt lat="48.51869" lon="0.51263">
        <ele>229.607049</ele>
        <time>2021-09-06T15:31:07.000Z</time>
      </trkpt>
      <trkpt lat="48.5185" lon="0.51319">
        <ele>226.873314</ele>
        <time>2021-09-06T15:31:13.000Z</time>
      </trkpt>
      <trkpt lat="48.51839" lon="0.51345">
        <ele>225.590051</ele>
        <time>2021-09-06T15:31:16.000Z</time>
      </trkpt>
      <trkpt lat="48.51829" lon="0.51372">
        <ele>224.329572</ele>
        <time>2021-09-06T15:31:19.000Z</time>
      </trkpt>
      <trkpt lat="48.51811" lon="0.51413">
        <ele>222.286513</ele>
        <time>2021-09-06T15:31:24.000Z</time>
      </trkpt>
      <trkpt lat="48.51808" lon="0.51421">
        <ele>221.88207</ele>
        <time>2021-09-06T15:31:25.000Z</time>
      </trkpt>
      <trkpt lat="48.51802" lon="0.51436">
        <ele>221.152632</ele>
        <time>2021-09-06T15:31:27.000Z</time>
      </trkpt>
      <trkpt lat="48.51798" lon="0.51444">
        <ele>220.772378</ele>
        <time>2021-09-06T15:31:28.000Z</time>
      </trkpt>
      <trkpt lat="48.51794" lon="0.51452">
        <ele>220.354114</ele>
        <time>2021-09-06T15:31:29.000Z</time>
      </trkpt>
      <trkpt lat="48.51782" lon="0.51477">
        <ele>219.063267</ele>
        <time>2021-09-06T15:31:32.000Z</time>
      </trkpt>
      <trkpt lat="48.51756" lon="0.51522">
        <ele>216.808406</ele>
        <time>2021-09-06T15:31:38.000Z</time>
      </trkpt>
      <trkpt lat="48.51715" lon="0.51589">
        <ele>213.881679</ele>
        <time>2021-09-06T15:31:46.000Z</time>
      </trkpt>
      <trkpt lat="48.51678" lon="0.51642">
        <ele>211.444086</ele>
        <time>2021-09-06T15:31:53.000Z</time>
      </trkpt>
      <trkpt lat="48.51635" lon="0.51697">
        <ele>208.755293</ele>
        <time>2021-09-06T15:32:01.000Z</time>
      </trkpt>
      <trkpt lat="48.51604" lon="0.51736">
        <ele>207.117673</ele>
        <time>2021-09-06T15:32:07.000Z</time>
      </trkpt>
      <trkpt lat="48.51566" lon="0.51795">
        <ele>204.908228</ele>
        <time>2021-09-06T15:32:15.000Z</time>
      </trkpt>
      <trkpt lat="48.51545" lon="0.51828">
        <ele>203.691511</ele>
        <time>2021-09-06T15:32:20.000Z</time>
      </trkpt>
      <trkpt lat="48.5152" lon="0.5187">
        <ele>202.1893</ele>
        <time>2021-09-06T15:32:26.000Z</time>
      </trkpt>
      <trkpt lat="48.51509" lon="0.51893">
        <ele>201.464891</ele>
        <time>2021-09-06T15:32:29.000Z</time>
      </trkpt>
      <trkpt lat="48.51505" lon="0.51902">
        <ele>201.258544</ele>
        <time>2021-09-06T15:32:30.000Z</time>
      </trkpt>
      <trkpt lat="48.51478" lon="0.51955">
        <ele>199.98531</ele>
        <time>2021-09-06T15:32:36.000Z</time>
      </trkpt>
      <trkpt lat="48.5146" lon="0.51995">
        <ele>199.056734</ele>
        <time>2021-09-06T15:32:41.000Z</time>
      </trkpt>
      <trkpt lat="48.51438" lon="0.52046">
        <ele>197.90415</ele>
        <time>2021-09-06T15:32:47.000Z</time>
      </trkpt>
      <trkpt lat="48.51421" lon="0.5209">
        <ele>196.931427</ele>
        <time>2021-09-06T15:32:53.000Z</time>
      </trkpt>
      <trkpt lat="48.51419" lon="0.52096">
        <ele>196.807404</ele>
        <time>2021-09-06T15:32:54.000Z</time>
      </trkpt>
      <trkpt lat="48.51411" lon="0.52117">
        <ele>196.365715</ele>
        <time>2021-09-06T15:32:58.000Z</time>
      </trkpt>
      <trkpt lat="48.51408" lon="0.52122">
        <ele>196.302378</ele>
        <time>2021-09-06T15:32:59.000Z</time>
      </trkpt>
      <trkpt lat="48.51397" lon="0.52147">
        <ele>196.003265</ele>
        <time>2021-09-06T15:33:03.000Z</time>
      </trkpt>
      <trkpt lat="48.51372" lon="0.52211">
        <ele>195.258518</ele>
        <time>2021-09-06T15:33:12.000Z</time>
      </trkpt>
      <trkpt lat="48.5135" lon="0.52264">
        <ele>194.635842</ele>
        <time>2021-09-06T15:33:20.000Z</time>
      </trkpt>
      <trkpt lat="48.51329" lon="0.52317">
        <ele>194.016449</ele>
        <time>2021-09-06T15:33:28.000Z</time>
      </trkpt>
      <trkpt lat="48.51314" lon="0.52357">
        <ele>193.590988</ele>
        <time>2021-09-06T15:33:34.000Z</time>
      </trkpt>
      <trkpt lat="48.51295" lon="0.52415">
        <ele>193.126215</ele>
        <time>2021-09-06T15:33:42.000Z</time>
      </trkpt>
      <trkpt lat="48.51278" lon="0.52482">
        <ele>192.598382</ele>
        <time>2021-09-06T15:33:51.000Z</time>
      </trkpt>
      <trkpt lat="48.51262" lon="0.52555">
        <ele>192.042484</ele>
        <time>2021-09-06T15:34:00.000Z</time>
      </trkpt>
      <trkpt lat="48.51253" lon="0.52613">
        <ele>191.655652</ele>
        <time>2021-09-06T15:34:07.000Z</time>
      </trkpt>
      <trkpt lat="48.51247" lon="0.52668">
        <ele>191.422012</ele>
        <time>2021-09-06T15:34:14.000Z</time>
      </trkpt>
      <trkpt lat="48.51246" lon="0.52689">
        <ele>191.334428</ele>
        <time>2021-09-06T15:34:17.000Z</time>
      </trkpt>
      <trkpt lat="48.51245" lon="0.52702">
        <ele>191.278775</ele>
        <time>2021-09-06T15:34:19.000Z</time>
      </trkpt>
      <trkpt lat="48.51245" lon="0.52709">
        <ele>191.250169</ele>
        <time>2021-09-06T15:34:20.000Z</time>
      </trkpt>
      <trkpt lat="48.51243" lon="0.52742">
        <ele>191.109757</ele>
        <time>2021-09-06T15:34:24.000Z</time>
      </trkpt>
      <trkpt lat="48.51241" lon="0.52793">
        <ele>190.895602</ele>
        <time>2021-09-06T15:34:30.000Z</time>
      </trkpt>
      <trkpt lat="48.51242" lon="0.52801">
        <ele>190.861914</ele>
        <time>2021-09-06T15:34:31.000Z</time>
      </trkpt>
      <trkpt lat="48.51243" lon="0.52809">
        <ele>190.828001</ele>
        <time>2021-09-06T15:34:32.000Z</time>
      </trkpt>
      <trkpt lat="48.51243" lon="0.52844">
        <ele>190.679626</ele>
        <time>2021-09-06T15:34:36.000Z</time>
      </trkpt>
      <trkpt lat="48.51247" lon="0.52904">
        <ele>190.567897</ele>
        <time>2021-09-06T15:34:43.000Z</time>
      </trkpt>
      <trkpt lat="48.51248" lon="0.52948">
        <ele>190.561167</ele>
        <time>2021-09-06T15:34:48.000Z</time>
      </trkpt>
      <trkpt lat="48.51248" lon="0.52957">
        <ele>190.559758</ele>
        <time>2021-09-06T15:34:49.000Z</time>
      </trkpt>
      <trkpt lat="48.51251" lon="0.52993">
        <ele>190.554164</ele>
        <time>2021-09-06T15:34:53.000Z</time>
      </trkpt>
      <trkpt lat="48.51255" lon="0.53026">
        <ele>190.549041</ele>
        <time>2021-09-06T15:34:57.000Z</time>
      </trkpt>
      <trkpt lat="48.51255" lon="0.5307">
        <ele>190.542172</ele>
        <time>2021-09-06T15:35:02.000Z</time>
      </trkpt>
      <trkpt lat="48.51252" lon="0.53123">
        <ele>190.533922</ele>
        <time>2021-09-06T15:35:08.000Z</time>
      </trkpt>
      <trkpt lat="48.51248" lon="0.53172">
        <ele>190.50331</ele>
        <time>2021-09-06T15:35:14.000Z</time>
      </trkpt>
      <trkpt lat="48.5124" lon="0.53219">
        <ele>190.461833</ele>
        <time>2021-09-06T15:35:20.000Z</time>
      </trkpt>
      <trkpt lat="48.51239" lon="0.53227">
        <ele>190.454821</ele>
        <time>2021-09-06T15:35:21.000Z</time>
      </trkpt>
      <trkpt lat="48.51232" lon="0.53267">
        <ele>190.419258</ele>
        <time>2021-09-06T15:35:26.000Z</time>
      </trkpt>
      <trkpt lat="48.51228" lon="0.53283">
        <ele>190.404434</ele>
        <time>2021-09-06T15:35:28.000Z</time>
      </trkpt>
      <trkpt lat="48.51221" lon="0.53307">
        <ele>190.38209</ele>
        <time>2021-09-06T15:35:31.000Z</time>
      </trkpt>
      <trkpt lat="48.51209" lon="0.53353">
        <ele>190.3404</ele>
        <time>2021-09-06T15:35:37.000Z</time>
      </trkpt>
      <trkpt lat="48.51197" lon="0.53394">
        <ele>190.301285</ele>
        <time>2021-09-06T15:35:43.000Z</time>
      </trkpt>
      <trkpt lat="48.51195" lon="0.53401">
        <ele>190.362962</ele>
        <time>2021-09-06T15:35:44.000Z</time>
      </trkpt>
      <trkpt lat="48.51186" lon="0.53436">
        <ele>190.981366</ele>
        <time>2021-09-06T15:35:50.000Z</time>
      </trkpt>
      <trkpt lat="48.51178" lon="0.53462">
        <ele>191.448193</ele>
        <time>2021-09-06T15:35:55.000Z</time>
      </trkpt>
      <trkpt lat="48.51177" lon="0.53467">
        <ele>191.531021</ele>
        <time>2021-09-06T15:35:56.000Z</time>
      </trkpt>
      <trkpt lat="48.51174" lon="0.53481">
        <ele>191.767994</ele>
        <time>2021-09-06T15:35:59.000Z</time>
      </trkpt>
      <trkpt lat="48.51167" lon="0.53509">
        <ele>192.259256</ele>
        <time>2021-09-06T15:36:04.000Z</time>
      </trkpt>
      <trkpt lat="48.51159" lon="0.53544">
        <ele>192.854421</ele>
        <time>2021-09-06T15:36:10.000Z</time>
      </trkpt>
      <trkpt lat="48.51153" lon="0.53576">
        <ele>193.410018</ele>
        <time>2021-09-06T15:36:16.000Z</time>
      </trkpt>
      <trkpt lat="48.51146" lon="0.5362">
        <ele>194.13097</ele>
        <time>2021-09-06T15:36:23.000Z</time>
      </trkpt>
      <trkpt lat="48.51142" lon="0.5367">
        <ele>195.281525</ele>
        <time>2021-09-06T15:36:31.000Z</time>
      </trkpt>
      <trkpt lat="48.51139" lon="0.53699">
        <ele>196.365186</ele>
        <time>2021-09-06T15:36:36.000Z</time>
      </trkpt>
      <trkpt lat="48.51137" lon="0.53719">
        <ele>197.126935</ele>
        <time>2021-09-06T15:36:41.000Z</time>
      </trkpt>
      <trkpt lat="48.51136" lon="0.53738">
        <ele>197.801916</ele>
        <time>2021-09-06T15:36:46.000Z</time>
      </trkpt>
      <trkpt lat="48.51138" lon="0.53756">
        <ele>198.511688</ele>
        <time>2021-09-06T15:36:51.000Z</time>
      </trkpt>
      <trkpt lat="48.51141" lon="0.53773">
        <ele>199.149077</ele>
        <time>2021-09-06T15:36:56.000Z</time>
      </trkpt>
      <trkpt lat="48.51142" lon="0.53794">
        <ele>199.920006</ele>
        <time>2021-09-06T15:37:01.000Z</time>
      </trkpt>
      <trkpt lat="48.51144" lon="0.53817">
        <ele>200.797466</ele>
        <time>2021-09-06T15:37:08.000Z</time>
      </trkpt>
      <trkpt lat="48.5114" lon="0.53828">
        <ele>201.244238</ele>
        <time>2021-09-06T15:37:14.000Z</time>
      </trkpt>
      <trkpt lat="48.51142" lon="0.53832">
        <ele>201.453561</ele>
        <time>2021-09-06T15:41:13.000Z</time>
      </trkpt>
      <trkpt lat="48.51145" lon="0.53835">
        <ele>201.635998</ele>
        <time>2021-09-06T15:41:15.000Z</time>
      </trkpt>
      <trkpt lat="48.51155" lon="0.53845">
        <ele>202.333595</ele>
        <time>2021-09-06T15:41:21.000Z</time>
      </trkpt>
      <trkpt lat="48.51169" lon="0.53854">
        <ele>203.171098</ele>
        <time>2021-09-06T15:41:28.000Z</time>
      </trkpt>
      <trkpt lat="48.51181" lon="0.5386">
        <ele>203.86793</ele>
        <time>2021-09-06T15:41:34.000Z</time>
      </trkpt>
      <trkpt lat="48.51192" lon="0.53866">
        <ele>204.513783</ele>
        <time>2021-09-06T15:41:40.000Z</time>
      </trkpt>
      <trkpt lat="48.51201" lon="0.53873">
        <ele>204.917491</ele>
        <time>2021-09-06T15:41:45.000Z</time>
      </trkpt>
      <trkpt lat="48.51212" lon="0.53885">
        <ele>205.198888</ele>
        <time>2021-09-06T15:41:52.000Z</time>
      </trkpt>
      <trkpt lat="48.51225" lon="0.53897">
        <ele>205.515449</ele>
        <time>2021-09-06T15:42:00.000Z</time>
      </trkpt>
      <trkpt lat="48.51235" lon="0.539">
        <ele>205.702504</ele>
        <time>2021-09-06T15:42:05.000Z</time>
      </trkpt>
      <trkpt lat="48.51244" lon="0.53896">
        <ele>205.9054</ele>
        <time>2021-09-06T15:42:11.000Z</time>
      </trkpt>
      <trkpt lat="48.51248" lon="0.53896">
        <ele>205.978254</ele>
        <time>2021-09-06T15:42:14.000Z</time>
      </trkpt>
      <trkpt lat="48.51249" lon="0.539">
        <ele>206.043162</ele>
        <time>2021-09-06T15:42:16.000Z</time>
      </trkpt>
      <trkpt lat="48.51254" lon="0.53922">
        <ele>206.359195</ele>
        <time>2021-09-06T15:42:22.000Z</time>
      </trkpt>
      <trkpt lat="48.51262" lon="0.53954">
        <ele>206.804428</ele>
        <time>2021-09-06T15:42:30.000Z</time>
      </trkpt>
      <trkpt lat="48.51268" lon="0.53979">
        <ele>207.16331</ele>
        <time>2021-09-06T15:42:36.000Z</time>
      </trkpt>
      <trkpt lat="48.51274" lon="0.54007">
        <ele>207.557565</ele>
        <time>2021-09-06T15:42:42.000Z</time>
      </trkpt>
      <trkpt lat="48.51276" lon="0.54015">
        <ele>207.676067</ele>
        <time>2021-09-06T15:42:44.000Z</time>
      </trkpt>
      <trkpt lat="48.51281" lon="0.5402">
        <ele>207.788512</ele>
        <time>2021-09-06T15:42:46.000Z</time>
      </trkpt>
      <trkpt lat="48.51295" lon="0.54029">
        <ele>208.102353</ele>
        <time>2021-09-06T15:42:52.000Z</time>
      </trkpt>
      <trkpt lat="48.51316" lon="0.54036">
        <ele>208.545063</ele>
        <time>2021-09-06T15:43:00.000Z</time>
      </trkpt>
      <trkpt lat="48.5134" lon="0.5404">
        <ele>209.028857</ele>
        <time>2021-09-06T15:43:09.000Z</time>
      </trkpt>
      <trkpt lat="48.51362" lon="0.54045">
        <ele>209.4651</ele>
        <time>2021-09-06T15:43:17.000Z</time>
      </trkpt>
      <trkpt lat="48.51386" lon="0.5405">
        <ele>209.96263</ele>
        <time>2021-09-06T15:43:26.000Z</time>
      </trkpt>
      <trkpt lat="48.51405" lon="0.54055">
        <ele>210.348313</ele>
        <time>2021-09-06T15:43:33.000Z</time>
      </trkpt>
      <trkpt lat="48.51424" lon="0.54059">
        <ele>210.72368</ele>
        <time>2021-09-06T15:43:40.000Z</time>
      </trkpt>
      <trkpt lat="48.51441" lon="0.54063">
        <ele>211.063194</ele>
        <time>2021-09-06T15:43:46.000Z</time>
      </trkpt>
      <trkpt lat="48.5146" lon="0.5407">
        <ele>211.461705</ele>
        <time>2021-09-06T15:43:53.000Z</time>
      </trkpt>
      <trkpt lat="48.51482" lon="0.54078">
        <ele>211.907088</ele>
        <time>2021-09-06T15:44:01.000Z</time>
      </trkpt>
      <trkpt lat="48.51511" lon="0.5409">
        <ele>212.878679</ele>
        <time>2021-09-06T15:44:12.000Z</time>
      </trkpt>
      <trkpt lat="48.51538" lon="0.54101">
        <ele>213.857258</ele>
        <time>2021-09-06T15:44:22.000Z</time>
      </trkpt>
      <trkpt lat="48.51558" lon="0.5411">
        <ele>214.603364</ele>
        <time>2021-09-06T15:44:30.000Z</time>
      </trkpt>
      <trkpt lat="48.51579" lon="0.54119">
        <ele>215.374055</ele>
        <time>2021-09-06T15:44:38.000Z</time>
      </trkpt>
      <trkpt lat="48.51602" lon="0.5413">
        <ele>216.243174</ele>
        <time>2021-09-06T15:44:47.000Z</time>
      </trkpt>
      <trkpt lat="48.51621" lon="0.54138">
        <ele>216.934271</ele>
        <time>2021-09-06T15:44:54.000Z</time>
      </trkpt>
      <trkpt lat="48.5164" lon="0.54146">
        <ele>217.624072</ele>
        <time>2021-09-06T15:45:01.000Z</time>
      </trkpt>
      <trkpt lat="48.51663" lon="0.54156">
        <ele>218.493747</ele>
        <time>2021-09-06T15:45:10.000Z</time>
      </trkpt>
      <trkpt lat="48.51686" lon="0.54167">
        <ele>219.682479</ele>
        <time>2021-09-06T15:45:19.000Z</time>
      </trkpt>
      <trkpt lat="48.51704" lon="0.54174">
        <ele>220.556428</ele>
        <time>2021-09-06T15:45:26.000Z</time>
      </trkpt>
      <trkpt lat="48.51716" lon="0.54179">
        <ele>221.191051</ele>
        <time>2021-09-06T15:45:31.000Z</time>
      </trkpt>
      <trkpt lat="48.51736" lon="0.54188">
        <ele>222.176275</ele>
        <time>2021-09-06T15:45:38.000Z</time>
      </trkpt>
      <trkpt lat="48.51763" lon="0.54201">
        <ele>223.573851</ele>
        <time>2021-09-06T15:45:48.000Z</time>
      </trkpt>
      <trkpt lat="48.51785" lon="0.54209">
        <ele>224.666651</ele>
        <time>2021-09-06T15:45:56.000Z</time>
      </trkpt>
      <trkpt lat="48.51804" lon="0.54213">
        <ele>225.5929</ele>
        <time>2021-09-06T15:46:03.000Z</time>
      </trkpt>
      <trkpt lat="48.5182" lon="0.54215">
        <ele>226.376927</ele>
        <time>2021-09-06T15:46:09.000Z</time>
      </trkpt>
      <trkpt lat="48.51839" lon="0.54212">
        <ele>227.296862</ele>
        <time>2021-09-06T15:46:16.000Z</time>
      </trkpt>
      <trkpt lat="48.51859" lon="0.54204">
        <ele>228.648564</ele>
        <time>2021-09-06T15:46:24.000Z</time>
      </trkpt>
      <trkpt lat="48.51881" lon="0.54188">
        <ele>230.239125</ele>
        <time>2021-09-06T15:46:33.000Z</time>
      </trkpt>
      <trkpt lat="48.51899" lon="0.54171">
        <ele>231.619824</ele>
        <time>2021-09-06T15:46:41.000Z</time>
      </trkpt>
      <trkpt lat="48.51918" lon="0.54158">
        <ele>232.983977</ele>
        <time>2021-09-06T15:46:49.000Z</time>
      </trkpt>
      <trkpt lat="48.51935" lon="0.5416">
        <ele>234.053794</ele>
        <time>2021-09-06T15:46:55.000Z</time>
      </trkpt>
      <trkpt lat="48.51951" lon="0.54171">
        <ele>235.165073</ele>
        <time>2021-09-06T15:47:02.000Z</time>
      </trkpt>
      <trkpt lat="48.5196" lon="0.54184">
        <ele>235.958065</ele>
        <time>2021-09-06T15:47:08.000Z</time>
      </trkpt>
      <trkpt lat="48.51961" lon="0.54185">
        <ele>236.098419</ele>
        <time>2021-09-06T15:47:09.000Z</time>
      </trkpt>
      <trkpt lat="48.51975" lon="0.54205">
        <ele>237.313113</ele>
        <time>2021-09-06T15:47:18.000Z</time>
      </trkpt>
      <trkpt lat="48.5199" lon="0.54222">
        <ele>238.546311</ele>
        <time>2021-09-06T15:47:26.000Z</time>
      </trkpt>
      <trkpt lat="48.52006" lon="0.54243">
        <ele>239.648038</ele>
        <time>2021-09-06T15:47:35.000Z</time>
      </trkpt>
      <trkpt lat="48.52019" lon="0.54261">
        <ele>240.586625</ele>
        <time>2021-09-06T15:47:43.000Z</time>
      </trkpt>
      <trkpt lat="48.52031" lon="0.54279">
        <ele>241.465357</ele>
        <time>2021-09-06T15:47:51.000Z</time>
      </trkpt>
      <trkpt lat="48.52045" lon="0.54294">
        <ele>242.348102</ele>
        <time>2021-09-06T15:47:59.000Z</time>
      </trkpt>
      <trkpt lat="48.52052" lon="0.54303">
        <ele>242.821518</ele>
        <time>2021-09-06T15:48:04.000Z</time>
      </trkpt>
      <trkpt lat="48.52065" lon="0.5432">
        <ele>243.733825</ele>
        <time>2021-09-06T15:48:12.000Z</time>
      </trkpt>
      <trkpt lat="48.52076" lon="0.54337">
        <ele>244.531075</ele>
        <time>2021-09-06T15:48:19.000Z</time>
      </trkpt>
      <trkpt lat="48.52085" lon="0.54351">
        <ele>245.190848</ele>
        <time>2021-09-06T15:48:25.000Z</time>
      </trkpt>
      <trkpt lat="48.52097" lon="0.54371">
        <ele>246.108237</ele>
        <time>2021-09-06T15:48:33.000Z</time>
      </trkpt>
      <trkpt lat="48.52106" lon="0.54384">
        <ele>246.768617</ele>
        <time>2021-09-06T15:48:39.000Z</time>
      </trkpt>
      <trkpt lat="48.5211" lon="0.54392">
        <ele>247.123767</ele>
        <time>2021-09-06T15:48:43.000Z</time>
      </trkpt>
      <trkpt lat="48.52109" lon="0.54395">
        <ele>247.216664</ele>
        <time>2021-09-06T15:48:44.000Z</time>
      </trkpt>
      <trkpt lat="48.52108" lon="0.54398">
        <ele>247.319647</ele>
        <time>2021-09-06T15:48:45.000Z</time>
      </trkpt>
      <trkpt lat="48.52101" lon="0.54403">
        <ele>247.751587</ele>
        <time>2021-09-06T15:48:49.000Z</time>
      </trkpt>
      <trkpt lat="48.52099" lon="0.54405">
        <ele>247.858096</ele>
        <time>2021-09-06T15:48:50.000Z</time>
      </trkpt>
      <trkpt lat="48.52094" lon="0.54413">
        <ele>248.204212</ele>
        <time>2021-09-06T15:48:54.000Z</time>
      </trkpt>
      <trkpt lat="48.52084" lon="0.54432">
        <ele>248.719199</ele>
        <time>2021-09-06T15:49:00.000Z</time>
      </trkpt>
      <trkpt lat="48.52075" lon="0.54449">
        <ele>249.201204</ele>
        <time>2021-09-06T15:49:06.000Z</time>
      </trkpt>
      <trkpt lat="48.52067" lon="0.54466">
        <ele>249.656818</ele>
        <time>2021-09-06T15:49:11.000Z</time>
      </trkpt>
      <trkpt lat="48.52072" lon="0.54477">
        <ele>249.946052</ele>
        <time>2021-09-06T15:49:14.000Z</time>
      </trkpt>
      <trkpt lat="48.52077" lon="0.54492">
        <ele>250.331321</ele>
        <time>2021-09-06T15:49:18.000Z</time>
      </trkpt>
      <trkpt lat="48.52079" lon="0.54495">
        <ele>250.40696</ele>
        <time>2021-09-06T15:49:19.000Z</time>
      </trkpt>
      <trkpt lat="48.52081" lon="0.54499">
        <ele>250.524083</ele>
        <time>2021-09-06T15:49:21.000Z</time>
      </trkpt>
      <trkpt lat="48.5208" lon="0.54504">
        <ele>250.634099</ele>
        <time>2021-09-06T15:49:23.000Z</time>
      </trkpt>
      <trkpt lat="48.52072" lon="0.54517">
        <ele>251.0358</ele>
        <time>2021-09-06T15:49:29.000Z</time>
      </trkpt>
      <trkpt lat="48.52059" lon="0.54535">
        <ele>251.608845</ele>
        <time>2021-09-06T15:49:36.000Z</time>
      </trkpt>
      <trkpt lat="48.52053" lon="0.54547">
        <ele>251.953304</ele>
        <time>2021-09-06T15:49:40.000Z</time>
      </trkpt>
      <trkpt lat="48.52045" lon="0.54558">
        <ele>252.295647</ele>
        <time>2021-09-06T15:49:45.000Z</time>
      </trkpt>
      <trkpt lat="48.52034" lon="0.54572">
        <ele>252.762317</ele>
        <time>2021-09-06T15:49:52.000Z</time>
      </trkpt>
      <trkpt lat="48.52029" lon="0.54579">
        <ele>253.008441</ele>
        <time>2021-09-06T15:49:57.000Z</time>
      </trkpt>
      <trkpt lat="48.52033" lon="0.54588">
        <ele>253.240841</ele>
        <time>2021-09-06T15:50:01.000Z</time>
      </trkpt>
      <trkpt lat="48.52034" lon="0.54591">
        <ele>253.304897</ele>
        <time>2021-09-06T15:50:02.000Z</time>
      </trkpt>
      <trkpt lat="48.52033" lon="0.54598">
        <ele>253.464209</ele>
        <time>2021-09-06T15:50:05.000Z</time>
      </trkpt>
      <trkpt lat="48.52033" lon="0.54599">
        <ele>253.492933</ele>
        <time>2021-09-06T15:50:06.000Z</time>
      </trkpt>
      <trkpt lat="48.52033" lon="0.54601">
        <ele>253.529788</ele>
        <time>2021-09-06T15:50:08.000Z</time>
      </trkpt>
      <trkpt lat="48.51949" lon="0.54809">
        <ele>259.622759</ele>
        <time>2021-09-06T16:08:02.000Z</time>
      </trkpt>
      <trkpt lat="48.51917" lon="0.54829">
        <ele>260.919532</ele>
        <time>2021-09-06T16:08:08.000Z</time>
      </trkpt>
      <trkpt lat="48.51888" lon="0.54852">
        <ele>260.786941</ele>
        <time>2021-09-06T16:08:14.000Z</time>
      </trkpt>
      <trkpt lat="48.51857" lon="0.54871">
        <ele>260.655305</ele>
        <time>2021-09-06T16:08:19.000Z</time>
      </trkpt>
      <trkpt lat="48.51814" lon="0.54902">
        <ele>260.46421</ele>
        <time>2021-09-06T16:08:25.000Z</time>
      </trkpt>
      <trkpt lat="48.51756" lon="0.54939">
        <ele>260.215082</ele>
        <time>2021-09-06T16:08:32.000Z</time>
      </trkpt>
      <trkpt lat="48.51713" lon="0.54968">
        <ele>258.290519</ele>
        <time>2021-09-06T16:08:37.000Z</time>
      </trkpt>
      <trkpt lat="48.51681" lon="0.54986">
        <ele>256.834077</ele>
        <time>2021-09-06T16:08:41.000Z</time>
      </trkpt>
      <trkpt lat="48.51664" lon="0.54996">
        <ele>256.049205</ele>
        <time>2021-09-06T16:08:44.000Z</time>
      </trkpt>
      <trkpt lat="48.51658" lon="0.54996">
        <ele>255.813082</ele>
        <time>2021-09-06T16:08:45.000Z</time>
      </trkpt>
      <trkpt lat="48.51653" lon="0.54995">
        <ele>255.56645</ele>
        <time>2021-09-06T16:08:46.000Z</time>
      </trkpt>
      <trkpt lat="48.5163" lon="0.54988">
        <ele>254.577776</ele>
        <time>2021-09-06T16:08:50.000Z</time>
      </trkpt>
      <trkpt lat="48.51586" lon="0.5497">
        <ele>252.608379</ele>
        <time>2021-09-06T16:08:57.000Z</time>
      </trkpt>
      <trkpt lat="48.5155" lon="0.54959">
        <ele>250.896236</ele>
        <time>2021-09-06T16:09:02.000Z</time>
      </trkpt>
      <trkpt lat="48.51543" lon="0.54957">
        <ele>250.542566</ele>
        <time>2021-09-06T16:09:03.000Z</time>
      </trkpt>
      <trkpt lat="48.5152" lon="0.5495">
        <ele>249.431222</ele>
        <time>2021-09-06T16:09:06.000Z</time>
      </trkpt>
      <trkpt lat="48.51505" lon="0.54946">
        <ele>248.678205</ele>
        <time>2021-09-06T16:09:08.000Z</time>
      </trkpt>
      <trkpt lat="48.51471" lon="0.54933">
        <ele>247.035471</ele>
        <time>2021-09-06T16:09:12.000Z</time>
      </trkpt>
      <trkpt lat="48.51416" lon="0.54914">
        <ele>244.35551</ele>
        <time>2021-09-06T16:09:18.000Z</time>
      </trkpt>
      <trkpt lat="48.5136" lon="0.54892">
        <ele>241.537232</ele>
        <time>2021-09-06T16:09:24.000Z</time>
      </trkpt>
      <trkpt lat="48.5135" lon="0.54889">
        <ele>241.06405</ele>
        <time>2021-09-06T16:09:25.000Z</time>
      </trkpt>
      <trkpt lat="48.51303" lon="0.54871">
        <ele>238.684963</ele>
        <time>2021-09-06T16:09:30.000Z</time>
      </trkpt>
      <trkpt lat="48.51252" lon="0.54853">
        <ele>236.163223</ele>
        <time>2021-09-06T16:09:35.000Z</time>
      </trkpt>
      <trkpt lat="48.51192" lon="0.54832">
        <ele>232.758156</ele>
        <time>2021-09-06T16:09:41.000Z</time>
      </trkpt>
      <trkpt lat="48.51181" lon="0.54828">
        <ele>232.146133</ele>
        <time>2021-09-06T16:09:42.000Z</time>
      </trkpt>
      <trkpt lat="48.51123" lon="0.54806">
        <ele>228.677686</ele>
        <time>2021-09-06T16:09:48.000Z</time>
      </trkpt>
      <trkpt lat="48.51115" lon="0.54803">
        <ele>228.178</ele>
        <time>2021-09-06T16:09:49.000Z</time>
      </trkpt>
      <trkpt lat="48.51092" lon="0.54795">
        <ele>226.822086</ele>
        <time>2021-09-06T16:09:52.000Z</time>
      </trkpt>
      <trkpt lat="48.51068" lon="0.54786">
        <ele>225.375485</ele>
        <time>2021-09-06T16:09:56.000Z</time>
      </trkpt>
      <trkpt lat="48.51053" lon="0.54781">
        <ele>224.490928</ele>
        <time>2021-09-06T16:09:59.000Z</time>
      </trkpt>
      <trkpt lat="48.51045" lon="0.54779">
        <ele>223.975207</ele>
        <time>2021-09-06T16:10:01.000Z</time>
      </trkpt>
      <trkpt lat="48.51028" lon="0.54774">
        <ele>222.93658</ele>
        <time>2021-09-06T16:10:06.000Z</time>
      </trkpt>
      <trkpt lat="48.51022" lon="0.54784">
        <ele>222.381023</ele>
        <time>2021-09-06T16:10:09.000Z</time>
      </trkpt>
      <trkpt lat="48.51019" lon="0.54793">
        <ele>221.946688</ele>
        <time>2021-09-06T16:10:11.000Z</time>
      </trkpt>
      <trkpt lat="48.51018" lon="0.54799">
        <ele>221.720344</ele>
        <time>2021-09-06T16:10:12.000Z</time>
      </trkpt>
      <trkpt lat="48.51009" lon="0.5483">
        <ele>220.328424</ele>
        <time>2021-09-06T16:10:19.000Z</time>
      </trkpt>
      <trkpt lat="48.51" lon="0.54847">
        <ele>219.445535</ele>
        <time>2021-09-06T16:10:23.000Z</time>
      </trkpt>
      <trkpt lat="48.50995" lon="0.54858">
        <ele>218.90995</ele>
        <time>2021-09-06T16:10:25.000Z</time>
      </trkpt>
      <trkpt lat="48.50986" lon="0.54881">
        <ele>217.823251</ele>
        <time>2021-09-06T16:10:29.000Z</time>
      </trkpt>
      <trkpt lat="48.50979" lon="0.54905">
        <ele>216.760826</ele>
        <time>2021-09-06T16:10:33.000Z</time>
      </trkpt>
      <trkpt lat="48.50972" lon="0.54923">
        <ele>215.931067</ele>
        <time>2021-09-06T16:10:36.000Z</time>
      </trkpt>
      <trkpt lat="48.50963" lon="0.54954">
        <ele>214.522732</ele>
        <time>2021-09-06T16:10:41.000Z</time>
      </trkpt>
      <trkpt lat="48.50958" lon="0.54967">
        <ele>213.953801</ele>
        <time>2021-09-06T16:10:43.000Z</time>
      </trkpt>
      <trkpt lat="48.50949" lon="0.54998">
        <ele>213.035433</ele>
        <time>2021-09-06T16:10:48.000Z</time>
      </trkpt>
      <trkpt lat="48.50945" lon="0.55011">
        <ele>212.706648</ele>
        <time>2021-09-06T16:10:50.000Z</time>
      </trkpt>
      <trkpt lat="48.50936" lon="0.55044">
        <ele>211.854281</ele>
        <time>2021-09-06T16:10:56.000Z</time>
      </trkpt>
      <trkpt lat="48.50922" lon="0.5508">
        <ele>210.851515</ele>
        <time>2021-09-06T16:11:03.000Z</time>
      </trkpt>
      <trkpt lat="48.50914" lon="0.55102">
        <ele>210.238634</ele>
        <time>2021-09-06T16:11:08.000Z</time>
      </trkpt>
      <trkpt lat="48.50905" lon="0.55121">
        <ele>209.662173</ele>
        <time>2021-09-06T16:11:12.000Z</time>
      </trkpt>
      <trkpt lat="48.50899" lon="0.55132">
        <ele>209.330331</ele>
        <time>2021-09-06T16:11:14.000Z</time>
      </trkpt>
      <trkpt lat="48.50888" lon="0.55155">
        <ele>208.639752</ele>
        <time>2021-09-06T16:11:18.000Z</time>
      </trkpt>
      <trkpt lat="48.50873" lon="0.55187">
        <ele>207.709944</ele>
        <time>2021-09-06T16:11:23.000Z</time>
      </trkpt>
      <trkpt lat="48.50871" lon="0.55194">
        <ele>207.526457</ele>
        <time>2021-09-06T16:11:24.000Z</time>
      </trkpt>
      <trkpt lat="48.50868" lon="0.552">
        <ele>207.345521</ele>
        <time>2021-09-06T16:11:25.000Z</time>
      </trkpt>
      <trkpt lat="48.50857" lon="0.55224">
        <ele>206.516267</ele>
        <time>2021-09-06T16:11:29.000Z</time>
      </trkpt>
      <trkpt lat="48.50855" lon="0.5523">
        <ele>206.31356</ele>
        <time>2021-09-06T16:11:30.000Z</time>
      </trkpt>
      <trkpt lat="48.50849" lon="0.55247">
        <ele>205.745891</ele>
        <time>2021-09-06T16:11:33.000Z</time>
      </trkpt>
      <trkpt lat="48.50836" lon="0.5529">
        <ele>204.364931</ele>
        <time>2021-09-06T16:11:40.000Z</time>
      </trkpt>
      <trkpt lat="48.50828" lon="0.55316">
        <ele>203.514207</ele>
        <time>2021-09-06T16:11:44.000Z</time>
      </trkpt>
      <trkpt lat="48.50823" lon="0.55329">
        <ele>203.083325</ele>
        <time>2021-09-06T16:11:46.000Z</time>
      </trkpt>
      <trkpt lat="48.50812" lon="0.55363">
        <ele>201.996894</ele>
        <time>2021-09-06T16:11:51.000Z</time>
      </trkpt>
      <trkpt lat="48.5081" lon="0.55369">
        <ele>201.781654</ele>
        <time>2021-09-06T16:11:52.000Z</time>
      </trkpt>
      <trkpt lat="48.50793" lon="0.5541">
        <ele>200.356095</ele>
        <time>2021-09-06T16:11:58.000Z</time>
      </trkpt>
      <trkpt lat="48.50786" lon="0.55434">
        <ele>199.601976</ele>
        <time>2021-09-06T16:12:02.000Z</time>
      </trkpt>
      <trkpt lat="48.50783" lon="0.5544">
        <ele>199.398701</ele>
        <time>2021-09-06T16:12:03.000Z</time>
      </trkpt>
      <trkpt lat="48.50777" lon="0.55458">
        <ele>198.461792</ele>
        <time>2021-09-06T16:12:06.000Z</time>
      </trkpt>
      <trkpt lat="48.50766" lon="0.5549">
        <ele>196.723434</ele>
        <time>2021-09-06T16:12:11.000Z</time>
      </trkpt>
      <trkpt lat="48.50751" lon="0.55529">
        <ele>194.56194</ele>
        <time>2021-09-06T16:12:17.000Z</time>
      </trkpt>
      <trkpt lat="48.5074" lon="0.55559">
        <ele>192.929572</ele>
        <time>2021-09-06T16:12:22.000Z</time>
      </trkpt>
      <trkpt lat="48.50738" lon="0.55565">
        <ele>192.597102</ele>
        <time>2021-09-06T16:12:23.000Z</time>
      </trkpt>
      <trkpt lat="48.50724" lon="0.55592">
        <ele>190.916973</ele>
        <time>2021-09-06T16:12:27.000Z</time>
      </trkpt>
      <trkpt lat="48.50711" lon="0.55622">
        <ele>189.163124</ele>
        <time>2021-09-06T16:12:33.000Z</time>
      </trkpt>
      <trkpt lat="48.50704" lon="0.55639">
        <ele>188.210611</ele>
        <time>2021-09-06T16:12:38.000Z</time>
      </trkpt>
      <trkpt lat="48.50703" lon="0.55642">
        <ele>188.056784</ele>
        <time>2021-09-06T16:12:39.000Z</time>
      </trkpt>
      <trkpt lat="48.50702" lon="0.55646">
        <ele>187.850013</ele>
        <time>2021-09-06T16:12:41.000Z</time>
      </trkpt>
      <trkpt lat="48.50701" lon="0.55646">
        <ele>187.747699</ele>
        <time>2021-09-06T16:12:42.000Z</time>
      </trkpt>
      <trkpt lat="48.50696" lon="0.55645">
        <ele>187.358362</ele>
        <time>2021-09-06T16:12:48.000Z</time>
      </trkpt>
      <trkpt lat="48.50694" lon="0.55644">
        <ele>187.238371</ele>
        <time>2021-09-06T16:13:14.000Z</time>
      </trkpt>
      <trkpt lat="48.5069" lon="0.5564">
        <ele>186.877049</ele>
        <time>2021-09-06T16:13:16.000Z</time>
      </trkpt>
      <trkpt lat="48.50673" lon="0.55629">
        <ele>185.896042</ele>
        <time>2021-09-06T16:13:21.000Z</time>
      </trkpt>
      <trkpt lat="48.50651" lon="0.55625">
        <ele>185.234845</ele>
        <time>2021-09-06T16:13:27.000Z</time>
      </trkpt>
      <trkpt lat="48.50633" lon="0.55629">
        <ele>184.703338</ele>
        <time>2021-09-06T16:13:32.000Z</time>
      </trkpt>
      <trkpt lat="48.50622" lon="0.55631">
        <ele>184.343982</ele>
        <time>2021-09-06T16:13:34.000Z</time>
      </trkpt>
      <trkpt lat="48.50617" lon="0.55633">
        <ele>184.185264</ele>
        <time>2021-09-06T16:13:35.000Z</time>
      </trkpt>
      <trkpt lat="48.50612" lon="0.55637">
        <ele>184.02259</ele>
        <time>2021-09-06T16:13:36.000Z</time>
      </trkpt>
      <trkpt lat="48.50602" lon="0.55648">
        <ele>183.646448</ele>
        <time>2021-09-06T16:13:39.000Z</time>
      </trkpt>
      <trkpt lat="48.50589" lon="0.55666">
        <ele>183.124035</ele>
        <time>2021-09-06T16:13:44.000Z</time>
      </trkpt>
      <trkpt lat="48.50568" lon="0.5569">
        <ele>182.338022</ele>
        <time>2021-09-06T16:13:51.000Z</time>
      </trkpt>
      <trkpt lat="48.50564" lon="0.55694">
        <ele>182.195663</ele>
        <time>2021-09-06T16:13:52.000Z</time>
      </trkpt>
      <trkpt lat="48.50553" lon="0.55706">
        <ele>181.783441</ele>
        <time>2021-09-06T16:13:55.000Z</time>
      </trkpt>
      <trkpt lat="48.50546" lon="0.55713">
        <ele>181.539087</ele>
        <time>2021-09-06T16:13:57.000Z</time>
      </trkpt>
      <trkpt lat="48.5054" lon="0.5572">
        <ele>181.310304</ele>
        <time>2021-09-06T16:13:59.000Z</time>
      </trkpt>
      <trkpt lat="48.50534" lon="0.55726">
        <ele>181.094673</ele>
        <time>2021-09-06T16:14:03.000Z</time>
      </trkpt>
      <trkpt lat="48.50517" lon="0.55753">
        <ele>181.323208</ele>
        <time>2021-09-06T16:14:32.000Z</time>
      </trkpt>
      <trkpt lat="48.50513" lon="0.55756">
        <ele>181.49325</ele>
        <time>2021-09-06T16:14:34.000Z</time>
      </trkpt>
      <trkpt lat="48.50508" lon="0.55762">
        <ele>181.76524</ele>
        <time>2021-09-06T16:14:39.000Z</time>
      </trkpt>
      <trkpt lat="48.50503" lon="0.5577">
        <ele>182.051338</ele>
        <time>2021-09-06T16:14:43.000Z</time>
      </trkpt>
      <trkpt lat="48.50502" lon="0.55771">
        <ele>182.113268</ele>
        <time>2021-09-06T16:14:44.000Z</time>
      </trkpt>
      <trkpt lat="48.50498" lon="0.55774">
        <ele>182.294088</ele>
        <time>2021-09-06T16:14:47.000Z</time>
      </trkpt>
      <trkpt lat="48.50491" lon="0.55785">
        <ele>182.729564</ele>
        <time>2021-09-06T16:14:52.000Z</time>
      </trkpt>
      <trkpt lat="48.50489" lon="0.55787">
        <ele>182.835788</ele>
        <time>2021-09-06T16:14:53.000Z</time>
      </trkpt>
      <trkpt lat="48.50484" lon="0.55792">
        <ele>183.073544</ele>
        <time>2021-09-06T16:14:56.000Z</time>
      </trkpt>
      <trkpt lat="48.50477" lon="0.558">
        <ele>183.431987</ele>
        <time>2021-09-06T16:15:00.000Z</time>
      </trkpt>
      <trkpt lat="48.50474" lon="0.55804">
        <ele>183.58306</ele>
        <time>2021-09-06T16:15:02.000Z</time>
      </trkpt>
      <trkpt lat="48.50465" lon="0.55814">
        <ele>184.062778</ele>
        <time>2021-09-06T16:15:08.000Z</time>
      </trkpt>
      <trkpt lat="48.5045" lon="0.55823">
        <ele>184.722963</ele>
        <time>2021-09-06T16:15:14.000Z</time>
      </trkpt>
      <trkpt lat="48.50429" lon="0.55836">
        <ele>185.682358</ele>
        <time>2021-09-06T16:15:20.000Z</time>
      </trkpt>
      <trkpt lat="48.50408" lon="0.55846">
        <ele>186.583029</ele>
        <time>2021-09-06T16:15:26.000Z</time>
      </trkpt>
      <trkpt lat="48.50386" lon="0.55853">
        <ele>187.534142</ele>
        <time>2021-09-06T16:15:32.000Z</time>
      </trkpt>
      <trkpt lat="48.50358" lon="0.5586">
        <ele>188.277534</ele>
        <time>2021-09-06T16:15:39.000Z</time>
      </trkpt>
      <trkpt lat="48.5033" lon="0.55867">
        <ele>188.390746</ele>
        <time>2021-09-06T16:15:47.000Z</time>
      </trkpt>
      <trkpt lat="48.50315" lon="0.55869">
        <ele>188.455008</ele>
        <time>2021-09-06T16:15:52.000Z</time>
      </trkpt>
      <trkpt lat="48.50291" lon="0.5587">
        <ele>188.549307</ele>
        <time>2021-09-06T16:15:59.000Z</time>
      </trkpt>
      <trkpt lat="48.50278" lon="0.55872">
        <ele>188.602709</ele>
        <time>2021-09-06T16:16:03.000Z</time>
      </trkpt>
      <trkpt lat="48.5026" lon="0.55875">
        <ele>188.67516</ele>
        <time>2021-09-06T16:16:08.000Z</time>
      </trkpt>
      <trkpt lat="48.50247" lon="0.55877">
        <ele>188.728471</ele>
        <time>2021-09-06T16:16:11.000Z</time>
      </trkpt>
      <trkpt lat="48.50241" lon="0.55885">
        <ele>188.760517</ele>
        <time>2021-09-06T16:16:13.000Z</time>
      </trkpt>
      <trkpt lat="48.5024" lon="0.55902">
        <ele>188.807885</ele>
        <time>2021-09-06T16:16:17.000Z</time>
      </trkpt>
      <trkpt lat="48.5024" lon="0.5592">
        <ele>188.854272</ele>
        <time>2021-09-06T16:16:22.000Z</time>
      </trkpt>
      <trkpt lat="48.5024" lon="0.5594">
        <ele>188.909799</ele>
        <time>2021-09-06T16:16:28.000Z</time>
      </trkpt>
      <trkpt lat="48.50239" lon="0.55954">
        <ele>188.946056</ele>
        <time>2021-09-06T16:16:32.000Z</time>
      </trkpt>
      <trkpt lat="48.50242" lon="0.55968">
        <ele>188.909677</ele>
        <time>2021-09-06T16:16:37.000Z</time>
      </trkpt>
      <trkpt lat="48.50256" lon="0.5598">
        <ele>188.781525</ele>
        <time>2021-09-06T16:16:44.000Z</time>
      </trkpt>
      <trkpt lat="48.50269" lon="0.55993">
        <ele>188.659783</ele>
        <time>2021-09-06T16:16:51.000Z</time>
      </trkpt>
      <trkpt lat="48.50272" lon="0.56">
        <ele>188.614962</ele>
        <time>2021-09-06T16:16:54.000Z</time>
      </trkpt>
      <trkpt lat="48.50273" lon="0.56004">
        <ele>188.589817</ele>
        <time>2021-09-06T16:16:56.000Z</time>
      </trkpt>
      <trkpt lat="48.50272" lon="0.56018">
        <ele>188.51919</ele>
        <time>2021-09-06T16:17:00.000Z</time>
      </trkpt>
      <trkpt lat="48.50269" lon="0.5602">
        <ele>188.494748</ele>
        <time>2021-09-06T16:17:01.000Z</time>
      </trkpt>
      <trkpt lat="48.50263" lon="0.56026">
        <ele>188.438536</ele>
        <time>2021-09-06T16:17:04.000Z</time>
      </trkpt>
      <trkpt lat="48.50255" lon="0.56034">
        <ele>188.361496</ele>
        <time>2021-09-06T16:17:08.000Z</time>
      </trkpt>
      <trkpt lat="48.50248" lon="0.56042">
        <ele>188.292509</ele>
        <time>2021-09-06T16:17:12.000Z</time>
      </trkpt>
      <trkpt lat="48.50236" lon="0.56056">
        <ele>188.171304</ele>
        <time>2021-09-06T16:17:18.000Z</time>
      </trkpt>
      <trkpt lat="48.50225" lon="0.56068">
        <ele>188.066508</ele>
        <time>2021-09-06T16:17:22.000Z</time>
      </trkpt>
      <trkpt lat="48.50213" lon="0.5608">
        <ele>187.948643</ele>
        <time>2021-09-06T16:17:26.000Z</time>
      </trkpt>
      <trkpt lat="48.50193" lon="0.56103">
        <ele>187.750524</ele>
        <time>2021-09-06T16:17:32.000Z</time>
      </trkpt>
      <trkpt lat="48.50176" lon="0.56126">
        <ele>187.571625</ele>
        <time>2021-09-06T16:17:38.000Z</time>
      </trkpt>
      <trkpt lat="48.50164" lon="0.56142">
        <ele>187.284077</ele>
        <time>2021-09-06T16:17:43.000Z</time>
      </trkpt>
      <trkpt lat="48.50157" lon="0.56146">
        <ele>187.124752</ele>
        <time>2021-09-06T16:17:48.000Z</time>
      </trkpt>
      <trkpt lat="48.50154" lon="0.56151">
        <ele>187.024849</ele>
        <time>2021-09-06T16:19:06.000Z</time>
      </trkpt>
      <trkpt lat="48.5015" lon="0.56156">
        <ele>186.908486</ele>
        <time>2021-09-06T16:19:08.000Z</time>
      </trkpt>
      <trkpt lat="48.50136" lon="0.56177">
        <ele>186.498716</ele>
        <time>2021-09-06T16:19:13.000Z</time>
      </trkpt>
      <trkpt lat="48.50124" lon="0.56196">
        <ele>186.116308</ele>
        <time>2021-09-06T16:19:17.000Z</time>
      </trkpt>
      <trkpt lat="48.5011" lon="0.5622">
        <ele>185.660297</ele>
        <time>2021-09-06T16:19:22.000Z</time>
      </trkpt>
      <trkpt lat="48.50101" lon="0.56236">
        <ele>185.358808</ele>
        <time>2021-09-06T16:19:26.000Z</time>
      </trkpt>
      <trkpt lat="48.50099" lon="0.5624">
        <ele>185.298686</ele>
        <time>2021-09-06T16:19:27.000Z</time>
      </trkpt>
      <trkpt lat="48.5009" lon="0.56257">
        <ele>184.969779</ele>
        <time>2021-09-06T16:19:31.000Z</time>
      </trkpt>
      <trkpt lat="48.50086" lon="0.56262">
        <ele>184.868795</ele>
        <time>2021-09-06T16:19:32.000Z</time>
      </trkpt>
      <trkpt lat="48.50081" lon="0.56271">
        <ele>184.695063</ele>
        <time>2021-09-06T16:19:34.000Z</time>
      </trkpt>
      <trkpt lat="48.50067" lon="0.563">
        <ele>184.185445</ele>
        <time>2021-09-06T16:19:39.000Z</time>
      </trkpt>
      <trkpt lat="48.5005" lon="0.56339">
        <ele>183.5951</ele>
        <time>2021-09-06T16:19:45.000Z</time>
      </trkpt>
      <trkpt lat="48.50038" lon="0.56372">
        <ele>183.35528</ele>
        <time>2021-09-06T16:19:50.000Z</time>
      </trkpt>
      <trkpt lat="48.50023" lon="0.5641">
        <ele>183.073019</ele>
        <time>2021-09-06T16:19:56.000Z</time>
      </trkpt>
      <trkpt lat="48.50016" lon="0.56433">
        <ele>182.911818</ele>
        <time>2021-09-06T16:20:00.000Z</time>
      </trkpt>
      <trkpt lat="48.50005" lon="0.56464">
        <ele>182.691516</ele>
        <time>2021-09-06T16:20:05.000Z</time>
      </trkpt>
      <trkpt lat="48.49999" lon="0.56482">
        <ele>182.562615</ele>
        <time>2021-09-06T16:20:08.000Z</time>
      </trkpt>
      <trkpt lat="48.49995" lon="0.56494">
        <ele>182.475349</ele>
        <time>2021-09-06T16:20:10.000Z</time>
      </trkpt>
      <trkpt lat="48.49993" lon="0.56501">
        <ele>182.430281</ele>
        <time>2021-09-06T16:20:11.000Z</time>
      </trkpt>
      <trkpt lat="48.49989" lon="0.56513">
        <ele>182.341815</ele>
        <time>2021-09-06T16:20:13.000Z</time>
      </trkpt>
      <trkpt lat="48.49987" lon="0.56519">
        <ele>182.298263</ele>
        <time>2021-09-06T16:20:14.000Z</time>
      </trkpt>
      <trkpt lat="48.49977" lon="0.56555">
        <ele>182.050154</ele>
        <time>2021-09-06T16:20:20.000Z</time>
      </trkpt>
      <trkpt lat="48.49974" lon="0.56576">
        <ele>181.888873</ele>
        <time>2021-09-06T16:20:24.000Z</time>
      </trkpt>
      <trkpt lat="48.49964" lon="0.56603">
        <ele>181.456086</ele>
        <time>2021-09-06T16:20:29.000Z</time>
      </trkpt>
      <trkpt lat="48.4995" lon="0.56639">
        <ele>180.879303</ele>
        <time>2021-09-06T16:20:35.000Z</time>
      </trkpt>
      <trkpt lat="48.49943" lon="0.56661">
        <ele>180.532904</ele>
        <time>2021-09-06T16:20:39.000Z</time>
      </trkpt>
      <trkpt lat="48.49936" lon="0.56687">
        <ele>180.148407</ele>
        <time>2021-09-06T16:20:45.000Z</time>
      </trkpt>
      <trkpt lat="48.4993" lon="0.56704">
        <ele>179.87736</ele>
        <time>2021-09-06T16:20:49.000Z</time>
      </trkpt>
      <trkpt lat="48.49927" lon="0.56717">
        <ele>179.68447</ele>
        <time>2021-09-06T16:20:52.000Z</time>
      </trkpt>
      <trkpt lat="48.49924" lon="0.56725">
        <ele>179.556269</ele>
        <time>2021-09-06T16:20:54.000Z</time>
      </trkpt>
      <trkpt lat="48.4992" lon="0.56742">
        <ele>179.305719</ele>
        <time>2021-09-06T16:20:58.000Z</time>
      </trkpt>
      <trkpt lat="48.49918" lon="0.56747">
        <ele>179.229998</ele>
        <time>2021-09-06T16:20:59.000Z</time>
      </trkpt>
      <trkpt lat="48.49913" lon="0.5676">
        <ele>179.017679</ele>
        <time>2021-09-06T16:21:02.000Z</time>
      </trkpt>
      <trkpt lat="48.49912" lon="0.56764">
        <ele>178.946555</ele>
        <time>2021-09-06T16:21:03.000Z</time>
      </trkpt>
      <trkpt lat="48.49905" lon="0.56787">
        <ele>178.593121</ele>
        <time>2021-09-06T16:21:08.000Z</time>
      </trkpt>
      <trkpt lat="48.49899" lon="0.56807">
        <ele>178.296216</ele>
        <time>2021-09-06T16:21:12.000Z</time>
      </trkpt>
      <trkpt lat="48.49892" lon="0.56831">
        <ele>177.919916</ele>
        <time>2021-09-06T16:21:17.000Z</time>
      </trkpt>
      <trkpt lat="48.49888" lon="0.56844">
        <ele>177.696215</ele>
        <time>2021-09-06T16:21:20.000Z</time>
      </trkpt>
      <trkpt lat="48.49885" lon="0.56853">
        <ele>177.550753</ele>
        <time>2021-09-06T16:21:22.000Z</time>
      </trkpt>
      <trkpt lat="48.49878" lon="0.56875">
        <ele>177.173205</ele>
        <time>2021-09-06T16:21:26.000Z</time>
      </trkpt>
      <trkpt lat="48.49869" lon="0.569">
        <ele>176.751969</ele>
        <time>2021-09-06T16:21:31.000Z</time>
      </trkpt>
      <trkpt lat="48.49864" lon="0.56916">
        <ele>176.483187</ele>
        <time>2021-09-06T16:21:35.000Z</time>
      </trkpt>
      <trkpt lat="48.49859" lon="0.56931">
        <ele>176.224974</ele>
        <time>2021-09-06T16:21:39.000Z</time>
      </trkpt>
      <trkpt lat="48.49853" lon="0.56955">
        <ele>175.846362</ele>
        <time>2021-09-06T16:21:43.000Z</time>
      </trkpt>
      <trkpt lat="48.49844" lon="0.56983">
        <ele>175.377466</ele>
        <time>2021-09-06T16:21:48.000Z</time>
      </trkpt>
      <trkpt lat="48.49836" lon="0.57009">
        <ele>174.941747</ele>
        <time>2021-09-06T16:21:53.000Z</time>
      </trkpt>
      <trkpt lat="48.49832" lon="0.57025">
        <ele>174.696979</ele>
        <time>2021-09-06T16:21:56.000Z</time>
      </trkpt>
      <trkpt lat="48.49822" lon="0.57053">
        <ele>174.221184</ele>
        <time>2021-09-06T16:22:01.000Z</time>
      </trkpt>
      <trkpt lat="48.49815" lon="0.57076">
        <ele>174.037148</ele>
        <time>2021-09-06T16:22:06.000Z</time>
      </trkpt>
      <trkpt lat="48.49806" lon="0.57096">
        <ele>173.998055</ele>
        <time>2021-09-06T16:22:11.000Z</time>
      </trkpt>
      <trkpt lat="48.49799" lon="0.57128">
        <ele>173.944404</ele>
        <time>2021-09-06T16:22:16.000Z</time>
      </trkpt>
      <trkpt lat="48.49795" lon="0.57145">
        <ele>173.915993</ele>
        <time>2021-09-06T16:22:19.000Z</time>
      </trkpt>
      <trkpt lat="48.49793" lon="0.57148">
        <ele>173.908436</ele>
        <time>2021-09-06T16:22:20.000Z</time>
      </trkpt>
      <trkpt lat="48.4979" lon="0.57155">
        <ele>173.894687</ele>
        <time>2021-09-06T16:22:22.000Z</time>
      </trkpt>
      <trkpt lat="48.49787" lon="0.57164">
        <ele>173.879415</ele>
        <time>2021-09-06T16:22:24.000Z</time>
      </trkpt>
      <trkpt lat="48.4978" lon="0.5718">
        <ele>173.849259</ele>
        <time>2021-09-06T16:22:29.000Z</time>
      </trkpt>
      <trkpt lat="48.49779" lon="0.57183">
        <ele>173.842914</ele>
        <time>2021-09-06T16:22:30.000Z</time>
      </trkpt>
      <trkpt lat="48.49776" lon="0.57194">
        <ele>173.824562</ele>
        <time>2021-09-06T16:22:33.000Z</time>
      </trkpt>
      <trkpt lat="48.49766" lon="0.57223">
        <ele>173.77221</ele>
        <time>2021-09-06T16:22:39.000Z</time>
      </trkpt>
      <trkpt lat="48.49759" lon="0.57242">
        <ele>173.736689</ele>
        <time>2021-09-06T16:22:44.000Z</time>
      </trkpt>
      <trkpt lat="48.49748" lon="0.57266">
        <ele>173.689985</ele>
        <time>2021-09-06T16:22:50.000Z</time>
      </trkpt>
      <trkpt lat="48.49746" lon="0.5727">
        <ele>173.682466</ele>
        <time>2021-09-06T16:22:52.000Z</time>
      </trkpt>
      <trkpt lat="48.49742" lon="0.57281">
        <ele>173.661425</ele>
        <time>2021-09-06T16:23:40.000Z</time>
      </trkpt>
      <trkpt lat="48.49741" lon="0.57284">
        <ele>173.656934</ele>
        <time>2021-09-06T16:23:41.000Z</time>
      </trkpt>
      <trkpt lat="48.49731" lon="0.57306">
        <ele>173.687436</ele>
        <time>2021-09-06T16:23:46.000Z</time>
      </trkpt>
      <trkpt lat="48.49713" lon="0.57342">
        <ele>174.030681</ele>
        <time>2021-09-06T16:23:53.000Z</time>
      </trkpt>
      <trkpt lat="48.49711" lon="0.57348">
        <ele>174.084896</ele>
        <time>2021-09-06T16:23:54.000Z</time>
      </trkpt>
      <trkpt lat="48.497" lon="0.57364">
        <ele>174.256953</ele>
        <time>2021-09-06T16:23:57.000Z</time>
      </trkpt>
      <trkpt lat="48.49696" lon="0.57371">
        <ele>174.322504</ele>
        <time>2021-09-06T16:23:58.000Z</time>
      </trkpt>
      <trkpt lat="48.49688" lon="0.57386">
        <ele>174.477619</ele>
        <time>2021-09-06T16:24:01.000Z</time>
      </trkpt>
      <trkpt lat="48.49686" lon="0.57391">
        <ele>174.520277</ele>
        <time>2021-09-06T16:24:02.000Z</time>
      </trkpt>
      <trkpt lat="48.49678" lon="0.57403">
        <ele>174.650124</ele>
        <time>2021-09-06T16:24:04.000Z</time>
      </trkpt>
      <trkpt lat="48.49666" lon="0.57421">
        <ele>174.84465</ele>
        <time>2021-09-06T16:24:08.000Z</time>
      </trkpt>
      <trkpt lat="48.49645" lon="0.57448">
        <ele>175.156638</ele>
        <time>2021-09-06T16:24:13.000Z</time>
      </trkpt>
      <trkpt lat="48.49627" lon="0.57474">
        <ele>175.444761</ele>
        <time>2021-09-06T16:24:18.000Z</time>
      </trkpt>
      <trkpt lat="48.49609" lon="0.57496">
        <ele>175.718971</ele>
        <time>2021-09-06T16:24:23.000Z</time>
      </trkpt>
      <trkpt lat="48.49591" lon="0.57519">
        <ele>176.103333</ele>
        <time>2021-09-06T16:24:30.000Z</time>
      </trkpt>
      <trkpt lat="48.49577" lon="0.57538">
        <ele>176.406773</ele>
        <time>2021-09-06T16:24:35.000Z</time>
      </trkpt>
      <trkpt lat="48.49563" lon="0.57558">
        <ele>176.721505</ele>
        <time>2021-09-06T16:24:40.000Z</time>
      </trkpt>
      <trkpt lat="48.49546" lon="0.57575">
        <ele>177.051315</ele>
        <time>2021-09-06T16:24:45.000Z</time>
      </trkpt>
      <trkpt lat="48.49528" lon="0.57591">
        <ele>177.391765</ele>
        <time>2021-09-06T16:24:49.000Z</time>
      </trkpt>
      <trkpt lat="48.49505" lon="0.57622">
        <ele>177.891494</ele>
        <time>2021-09-06T16:24:55.000Z</time>
      </trkpt>
      <trkpt lat="48.49485" lon="0.57648">
        <ele>178.321531</ele>
        <time>2021-09-06T16:25:01.000Z</time>
      </trkpt>
      <trkpt lat="48.49473" lon="0.57666">
        <ele>178.59845</ele>
        <time>2021-09-06T16:25:05.000Z</time>
      </trkpt>
      <trkpt lat="48.49466" lon="0.57679">
        <ele>178.439861</ele>
        <time>2021-09-06T16:25:10.000Z</time>
      </trkpt>
      <trkpt lat="48.49463" lon="0.57682">
        <ele>178.382559</ele>
        <time>2021-09-06T16:25:12.000Z</time>
      </trkpt>
      <trkpt lat="48.49461" lon="0.57683">
        <ele>178.343868</ele>
        <time>2021-09-06T16:25:14.000Z</time>
      </trkpt>
      <trkpt lat="48.49461" lon="0.57682">
        <ele>178.333838</ele>
        <time>2021-09-06T16:25:15.000Z</time>
      </trkpt>
      <trkpt lat="48.49464" lon="0.57681">
        <ele>178.291076</ele>
        <time>2021-09-06T16:25:18.000Z</time>
      </trkpt>
      <trkpt lat="48.49465" lon="0.57677">
        <ele>178.232689</ele>
        <time>2021-09-06T16:25:20.000Z</time>
      </trkpt>
      <trkpt lat="48.49466" lon="0.57675">
        <ele>178.198521</ele>
        <time>2021-09-06T16:25:22.000Z</time>
      </trkpt>
      <trkpt lat="48.49468" lon="0.57672">
        <ele>178.154606</ele>
        <time>2021-09-06T16:25:24.000Z</time>
      </trkpt>
      <trkpt lat="48.49476" lon="0.57663">
        <ele>177.979877</ele>
        <time>2021-09-06T16:25:29.000Z</time>
      </trkpt>
      <trkpt lat="48.49486" lon="0.57651">
        <ele>177.754084</ele>
        <time>2021-09-06T16:25:33.000Z</time>
      </trkpt>
      <trkpt lat="48.49498" lon="0.57634">
        <ele>177.465752</ele>
        <time>2021-09-06T16:25:38.000Z</time>
      </trkpt>
      <trkpt lat="48.49513" lon="0.57613">
        <ele>177.097882</ele>
        <time>2021-09-06T16:25:43.000Z</time>
      </trkpt>
      <trkpt lat="48.49528" lon="0.57595">
        <ele>176.756105</ele>
        <time>2021-09-06T16:25:48.000Z</time>
      </trkpt>
      <trkpt lat="48.4954" lon="0.5758">
        <ele>176.479185</ele>
        <time>2021-09-06T16:25:53.000Z</time>
      </trkpt>
      <trkpt lat="48.49541" lon="0.57577">
        <ele>176.442093</ele>
        <time>2021-09-06T16:25:54.000Z</time>
      </trkpt>
      <trkpt lat="48.49538" lon="0.57572">
        <ele>176.360812</ele>
        <time>2021-09-06T16:25:56.000Z</time>
      </trkpt>
      <trkpt lat="48.4952" lon="0.57556">
        <ele>175.999647</ele>
        <time>2021-09-06T16:26:02.000Z</time>
      </trkpt>
      <trkpt lat="48.49503" lon="0.57544">
        <ele>175.663804</ele>
        <time>2021-09-06T16:26:08.000Z</time>
      </trkpt>
      <trkpt lat="48.49498" lon="0.57543">
        <ele>175.573882</ele>
        <time>2021-09-06T16:26:13.000Z</time>
      </trkpt>
      <trkpt lat="48.49498" lon="0.57543">
        <ele>175.567503</ele>
        <time>2021-09-06T16:26:14.000Z</time>
      </trkpt>
      <trkpt lat="48.49493" lon="0.5753">
        <ele>175.437402</ele>
        <time>2021-09-06T16:26:54.000Z</time>
      </trkpt>
      <trkpt lat="48.49489" lon="0.57526">
        <ele>175.451156</ele>
        <time>2021-09-06T16:26:56.000Z</time>
      </trkpt>
      <trkpt lat="48.49476" lon="0.57513">
        <ele>175.504677</ele>
        <time>2021-09-06T16:27:02.000Z</time>
      </trkpt>
      <trkpt lat="48.49461" lon="0.57499">
        <ele>175.564734</ele>
        <time>2021-09-06T16:27:09.000Z</time>
      </trkpt>
      <trkpt lat="48.49448" lon="0.57488">
        <ele>175.613882</ele>
        <time>2021-09-06T16:27:15.000Z</time>
      </trkpt>
      <trkpt lat="48.49444" lon="0.57484">
        <ele>175.631356</ele>
        <time>2021-09-06T16:27:18.000Z</time>
      </trkpt>
      <trkpt lat="48.49441" lon="0.57482">
        <ele>175.641197</ele>
        <time>2021-09-06T16:27:20.000Z</time>
      </trkpt>
      <trkpt lat="48.49433" lon="0.57473">
        <ele>175.675924</ele>
        <time>2021-09-06T16:27:26.000Z</time>
      </trkpt>
      <trkpt lat="48.49432" lon="0.57472">
        <ele>175.680348</ele>
        <time>2021-09-06T16:27:27.000Z</time>
      </trkpt>
      <trkpt lat="48.49428" lon="0.5747">
        <ele>175.694467</ele>
        <time>2021-09-06T16:27:30.000Z</time>
      </trkpt>
      <trkpt lat="48.49418" lon="0.57457">
        <ele>175.738233</ele>
        <time>2021-09-06T16:27:37.000Z</time>
      </trkpt>
      <trkpt lat="48.49406" lon="0.57448">
        <ele>175.782182</ele>
        <time>2021-09-06T16:27:43.000Z</time>
      </trkpt>
      <trkpt lat="48.49404" lon="0.57448">
        <ele>175.788256</ele>
        <time>2021-09-06T16:27:44.000Z</time>
      </trkpt>
      <trkpt lat="48.49406" lon="0.57452">
        <ele>175.797864</ele>
        <time>2021-09-06T16:27:46.000Z</time>
      </trkpt>
      <trkpt lat="48.49419" lon="0.57463">
        <ele>175.848014</ele>
        <time>2021-09-06T16:27:52.000Z</time>
      </trkpt>
      <trkpt lat="48.49432" lon="0.57473">
        <ele>175.898227</ele>
        <time>2021-09-06T16:27:59.000Z</time>
      </trkpt>
      <trkpt lat="48.49443" lon="0.57482">
        <ele>175.939534</ele>
        <time>2021-09-06T16:28:05.000Z</time>
      </trkpt>
      <trkpt lat="48.49452" lon="0.5749">
        <ele>175.97765</ele>
        <time>2021-09-06T16:28:11.000Z</time>
      </trkpt>
      <trkpt lat="48.49462" lon="0.57501">
        <ele>176.017113</ele>
        <time>2021-09-06T16:28:17.000Z</time>
      </trkpt>
      <trkpt lat="48.49471" lon="0.57511">
        <ele>176.118933</ele>
        <time>2021-09-06T16:28:23.000Z</time>
      </trkpt>
      <trkpt lat="48.49488" lon="0.57526">
        <ele>176.373367</ele>
        <time>2021-09-06T16:28:30.000Z</time>
      </trkpt>
      <trkpt lat="48.49509" lon="0.57544">
        <ele>176.691517</ele>
        <time>2021-09-06T16:28:38.000Z</time>
      </trkpt>
      <trkpt lat="48.49528" lon="0.57561">
        <ele>176.971853</ele>
        <time>2021-09-06T16:28:44.000Z</time>
      </trkpt>
      <trkpt lat="48.49539" lon="0.57574">
        <ele>177.162205</ele>
        <time>2021-09-06T16:28:49.000Z</time>
      </trkpt>
      <trkpt lat="48.4954" lon="0.57576">
        <ele>177.185331</ele>
        <time>2021-09-06T16:28:50.000Z</time>
      </trkpt>
      <trkpt lat="48.49538" lon="0.57581">
        <ele>177.234424</ele>
        <time>2021-09-06T16:28:52.000Z</time>
      </trkpt>
      <trkpt lat="48.49525" lon="0.57596">
        <ele>177.445108</ele>
        <time>2021-09-06T16:28:57.000Z</time>
      </trkpt>
      <trkpt lat="48.49511" lon="0.57615">
        <ele>177.695031</ele>
        <time>2021-09-06T16:29:02.000Z</time>
      </trkpt>
      <trkpt lat="48.49494" lon="0.57636">
        <ele>177.98552</ele>
        <time>2021-09-06T16:29:08.000Z</time>
      </trkpt>
      <trkpt lat="48.4948" lon="0.57658">
        <ele>178.248709</ele>
        <time>2021-09-06T16:29:13.000Z</time>
      </trkpt>
      <trkpt lat="48.49463" lon="0.5768">
        <ele>178.43002</ele>
        <time>2021-09-06T16:29:19.000Z</time>
      </trkpt>
      <trkpt lat="48.49442" lon="0.57707">
        <ele>178.531078</ele>
        <time>2021-09-06T16:29:25.000Z</time>
      </trkpt>
      <trkpt lat="48.49435" lon="0.57717">
        <ele>178.567618</ele>
        <time>2021-09-06T16:29:27.000Z</time>
      </trkpt>
      <trkpt lat="48.49423" lon="0.5773">
        <ele>178.623561</ele>
        <time>2021-09-06T16:29:30.000Z</time>
      </trkpt>
      <trkpt lat="48.49407" lon="0.57748">
        <ele>178.697654</ele>
        <time>2021-09-06T16:29:35.000Z</time>
      </trkpt>
      <trkpt lat="48.49393" lon="0.57768">
        <ele>178.769005</ele>
        <time>2021-09-06T16:29:39.000Z</time>
      </trkpt>
      <trkpt lat="48.49389" lon="0.57773">
        <ele>178.78881</ele>
        <time>2021-09-06T16:29:40.000Z</time>
      </trkpt>
      <trkpt lat="48.49379" lon="0.57786">
        <ele>178.838258</ele>
        <time>2021-09-06T16:29:43.000Z</time>
      </trkpt>
      <trkpt lat="48.49361" lon="0.57808">
        <ele>178.92303</ele>
        <time>2021-09-06T16:29:48.000Z</time>
      </trkpt>
      <trkpt lat="48.49341" lon="0.57834">
        <ele>179.023363</ele>
        <time>2021-09-06T16:29:53.000Z</time>
      </trkpt>
      <trkpt lat="48.49322" lon="0.57859">
        <ele>178.786421</ele>
        <time>2021-09-06T16:29:58.000Z</time>
      </trkpt>
      <trkpt lat="48.49314" lon="0.5787">
        <ele>178.602432</ele>
        <time>2021-09-06T16:30:00.000Z</time>
      </trkpt>
      <trkpt lat="48.49305" lon="0.57882">
        <ele>178.415494</ele>
        <time>2021-09-06T16:30:02.000Z</time>
      </trkpt>
      <trkpt lat="48.49284" lon="0.57909">
        <ele>177.953705</ele>
        <time>2021-09-06T16:30:08.000Z</time>
      </trkpt>
      <trkpt lat="48.49281" lon="0.57913">
        <ele>177.89292</ele>
        <time>2021-09-06T16:30:09.000Z</time>
      </trkpt>
      <trkpt lat="48.49276" lon="0.57921">
        <ele>177.764767</ele>
        <time>2021-09-06T16:30:11.000Z</time>
      </trkpt>
      <trkpt lat="48.49262" lon="0.57938">
        <ele>177.470134</ele>
        <time>2021-09-06T16:30:15.000Z</time>
      </trkpt>
      <trkpt lat="48.49249" lon="0.57955">
        <ele>177.183914</ele>
        <time>2021-09-06T16:30:19.000Z</time>
      </trkpt>
      <trkpt lat="48.49236" lon="0.57974">
        <ele>176.877921</ele>
        <time>2021-09-06T16:30:23.000Z</time>
      </trkpt>
      <trkpt lat="48.49232" lon="0.57979">
        <ele>176.796126</ele>
        <time>2021-09-06T16:30:24.000Z</time>
      </trkpt>
      <trkpt lat="48.49217" lon="0.57996">
        <ele>176.488119</ele>
        <time>2021-09-06T16:30:28.000Z</time>
      </trkpt>
      <trkpt lat="48.49204" lon="0.58015">
        <ele>176.195317</ele>
        <time>2021-09-06T16:30:32.000Z</time>
      </trkpt>
      <trkpt lat="48.49185" lon="0.58038">
        <ele>175.53276</ele>
        <time>2021-09-06T16:30:37.000Z</time>
      </trkpt>
      <trkpt lat="48.49169" lon="0.5806">
        <ele>174.837242</ele>
        <time>2021-09-06T16:30:42.000Z</time>
      </trkpt>
      <trkpt lat="48.49153" lon="0.5808">
        <ele>174.187358</ele>
        <time>2021-09-06T16:30:47.000Z</time>
      </trkpt>
      <trkpt lat="48.49134" lon="0.58103">
        <ele>173.419977</ele>
        <time>2021-09-06T16:30:53.000Z</time>
      </trkpt>
      <trkpt lat="48.49121" lon="0.58118">
        <ele>172.919559</ele>
        <time>2021-09-06T16:30:58.000Z</time>
      </trkpt>
      <trkpt lat="48.49109" lon="0.58132">
        <ele>172.44477</ele>
        <time>2021-09-06T16:31:02.000Z</time>
      </trkpt>
      <trkpt lat="48.49091" lon="0.58153">
        <ele>171.724131</ele>
        <time>2021-09-06T16:31:07.000Z</time>
      </trkpt>
      <trkpt lat="48.49076" lon="0.58172">
        <ele>171.105695</ele>
        <time>2021-09-06T16:31:12.000Z</time>
      </trkpt>
      <trkpt lat="48.49061" lon="0.58192">
        <ele>170.480645</ele>
        <time>2021-09-06T16:31:18.000Z</time>
      </trkpt>
      <trkpt lat="48.49051" lon="0.58206">
        <ele>170.344918</ele>
        <time>2021-09-06T16:31:22.000Z</time>
      </trkpt>
      <trkpt lat="48.4905" lon="0.58209">
        <ele>170.321065</ele>
        <time>2021-09-06T16:31:23.000Z</time>
      </trkpt>
      <trkpt lat="48.49046" lon="0.58214">
        <ele>170.276993</ele>
        <time>2021-09-06T16:31:25.000Z</time>
      </trkpt>
      <trkpt lat="48.49034" lon="0.58228">
        <ele>170.148728</ele>
        <time>2021-09-06T16:31:29.000Z</time>
      </trkpt>
      <trkpt lat="48.49017" lon="0.58248">
        <ele>169.965344</ele>
        <time>2021-09-06T16:31:34.000Z</time>
      </trkpt>
      <trkpt lat="48.49001" lon="0.5827">
        <ele>169.781078</ele>
        <time>2021-09-06T16:31:39.000Z</time>
      </trkpt>
      <trkpt lat="48.4898" lon="0.58294">
        <ele>169.558168</ele>
        <time>2021-09-06T16:31:45.000Z</time>
      </trkpt>
      <trkpt lat="48.48971" lon="0.58308">
        <ele>169.445983</ele>
        <time>2021-09-06T16:31:49.000Z</time>
      </trkpt>
      <trkpt lat="48.48954" lon="0.5833">
        <ele>169.254641</ele>
        <time>2021-09-06T16:31:54.000Z</time>
      </trkpt>
      <trkpt lat="48.48946" lon="0.58339">
        <ele>169.167882</ele>
        <time>2021-09-06T16:31:56.000Z</time>
      </trkpt>
      <trkpt lat="48.48935" lon="0.58351">
        <ele>169.056267</ele>
        <time>2021-09-06T16:31:59.000Z</time>
      </trkpt>
      <trkpt lat="48.48915" lon="0.58376">
        <ele>169.012379</ele>
        <time>2021-09-06T16:32:05.000Z</time>
      </trkpt>
      <trkpt lat="48.48898" lon="0.58396">
        <ele>169.243145</ele>
        <time>2021-09-06T16:32:10.000Z</time>
      </trkpt>
      <trkpt lat="48.48883" lon="0.58413">
        <ele>169.431741</ele>
        <time>2021-09-06T16:32:15.000Z</time>
      </trkpt>
      <trkpt lat="48.48865" lon="0.58433">
        <ele>169.670945</ele>
        <time>2021-09-06T16:32:20.000Z</time>
      </trkpt>
      <trkpt lat="48.4885" lon="0.5845">
        <ele>169.872181</ele>
        <time>2021-09-06T16:32:25.000Z</time>
      </trkpt>
      <trkpt lat="48.4884" lon="0.58463">
        <ele>170.01309</ele>
        <time>2021-09-06T16:32:28.000Z</time>
      </trkpt>
      <trkpt lat="48.48819" lon="0.58486">
        <ele>170.282681</ele>
        <time>2021-09-06T16:32:34.000Z</time>
      </trkpt>
      <trkpt lat="48.48804" lon="0.58501">
        <ele>170.473899</ele>
        <time>2021-09-06T16:32:39.000Z</time>
      </trkpt>
      <trkpt lat="48.48792" lon="0.58518">
        <ele>170.654274</ele>
        <time>2021-09-06T16:32:44.000Z</time>
      </trkpt>
      <trkpt lat="48.48777" lon="0.58535">
        <ele>170.865649</ele>
        <time>2021-09-06T16:32:48.000Z</time>
      </trkpt>
      <trkpt lat="48.48753" lon="0.58557">
        <ele>171.317141</ele>
        <time>2021-09-06T16:32:54.000Z</time>
      </trkpt>
      <trkpt lat="48.48741" lon="0.58569">
        <ele>171.555385</ele>
        <time>2021-09-06T16:32:58.000Z</time>
      </trkpt>
      <trkpt lat="48.48726" lon="0.58584">
        <ele>171.852349</ele>
        <time>2021-09-06T16:33:03.000Z</time>
      </trkpt>
      <trkpt lat="48.48717" lon="0.58594">
        <ele>172.037205</ele>
        <time>2021-09-06T16:33:08.000Z</time>
      </trkpt>
      <trkpt lat="48.48707" lon="0.58604">
        <ele>172.230936</ele>
        <time>2021-09-06T16:33:12.000Z</time>
      </trkpt>
      <trkpt lat="48.48694" lon="0.58617">
        <ele>172.486894</ele>
        <time>2021-09-06T16:33:17.000Z</time>
      </trkpt>
      <trkpt lat="48.48684" lon="0.58627">
        <ele>172.677302</ele>
        <time>2021-09-06T16:33:21.000Z</time>
      </trkpt>
      <trkpt lat="48.48672" lon="0.58639">
        <ele>172.911496</ele>
        <time>2021-09-06T16:33:26.000Z</time>
      </trkpt>
      <trkpt lat="48.48659" lon="0.58652">
        <ele>173.159598</ele>
        <time>2021-09-06T16:33:30.000Z</time>
      </trkpt>
      <trkpt lat="48.48646" lon="0.58665">
        <ele>173.412396</ele>
        <time>2021-09-06T16:33:34.000Z</time>
      </trkpt>
      <trkpt lat="48.48627" lon="0.58684">
        <ele>173.798381</ele>
        <time>2021-09-06T16:33:40.000Z</time>
      </trkpt>
      <trkpt lat="48.48607" lon="0.58701">
        <ele>174.197202</ele>
        <time>2021-09-06T16:33:45.000Z</time>
      </trkpt>
      <trkpt lat="48.48584" lon="0.58723">
        <ele>174.667877</ele>
        <time>2021-09-06T16:33:51.000Z</time>
      </trkpt>
      <trkpt lat="48.48566" lon="0.58741">
        <ele>175.043105</ele>
        <time>2021-09-06T16:33:56.000Z</time>
      </trkpt>
      <trkpt lat="48.48543" lon="0.58762">
        <ele>175.506255</ele>
        <time>2021-09-06T16:34:02.000Z</time>
      </trkpt>
      <trkpt lat="48.48525" lon="0.58779">
        <ele>175.873784</ele>
        <time>2021-09-06T16:34:07.000Z</time>
      </trkpt>
      <trkpt lat="48.4851" lon="0.58791">
        <ele>176.176204</ele>
        <time>2021-09-06T16:34:11.000Z</time>
      </trkpt>
      <trkpt lat="48.48491" lon="0.58809">
        <ele>176.57618</ele>
        <time>2021-09-06T16:34:17.000Z</time>
      </trkpt>
      <trkpt lat="48.48474" lon="0.58826">
        <ele>176.891354</ele>
        <time>2021-09-06T16:34:22.000Z</time>
      </trkpt>
      <trkpt lat="48.48453" lon="0.58845">
        <ele>177.031559</ele>
        <time>2021-09-06T16:34:28.000Z</time>
      </trkpt>
      <trkpt lat="48.48438" lon="0.58857">
        <ele>177.125949</ele>
        <time>2021-09-06T16:34:32.000Z</time>
      </trkpt>
      <trkpt lat="48.48424" lon="0.58871">
        <ele>177.220696</ele>
        <time>2021-09-06T16:34:37.000Z</time>
      </trkpt>
      <trkpt lat="48.48422" lon="0.58874">
        <ele>177.238213</ele>
        <time>2021-09-06T16:34:38.000Z</time>
      </trkpt>
      <trkpt lat="48.48416" lon="0.58879">
        <ele>177.278156</ele>
        <time>2021-09-06T16:34:40.000Z</time>
      </trkpt>
      <trkpt lat="48.48408" lon="0.58889">
        <ele>177.336312</ele>
        <time>2021-09-06T16:34:45.000Z</time>
      </trkpt>
      <trkpt lat="48.48407" lon="0.5889">
        <ele>177.343571</ele>
        <time>2021-09-06T16:34:46.000Z</time>
      </trkpt>
      <trkpt lat="48.48407" lon="0.58883">
        <ele>177.368433</ele>
        <time>2021-09-06T16:36:14.000Z</time>
      </trkpt>
      <trkpt lat="48.48406" lon="0.58885">
        <ele>177.378479</ele>
        <time>2021-09-06T16:36:15.000Z</time>
      </trkpt>
      <trkpt lat="48.48405" lon="0.58887">
        <ele>177.387554</ele>
        <time>2021-09-06T16:36:16.000Z</time>
      </trkpt>
      <trkpt lat="48.48396" lon="0.58896">
        <ele>177.447891</ele>
        <time>2021-09-06T16:36:20.000Z</time>
      </trkpt>
      <trkpt lat="48.48382" lon="0.58907">
        <ele>177.535387</ele>
        <time>2021-09-06T16:36:24.000Z</time>
      </trkpt>
      <trkpt lat="48.48365" lon="0.58923">
        <ele>177.64935</ele>
        <time>2021-09-06T16:36:29.000Z</time>
      </trkpt>
      <trkpt lat="48.48344" lon="0.58939">
        <ele>177.78506</ele>
        <time>2021-09-06T16:36:34.000Z</time>
      </trkpt>
      <trkpt lat="48.48328" lon="0.5895">
        <ele>177.883458</ele>
        <time>2021-09-06T16:36:38.000Z</time>
      </trkpt>
      <trkpt lat="48.48314" lon="0.58962">
        <ele>177.872535</ele>
        <time>2021-09-06T16:36:42.000Z</time>
      </trkpt>
      <trkpt lat="48.48299" lon="0.58973">
        <ele>177.839123</ele>
        <time>2021-09-06T16:36:47.000Z</time>
      </trkpt>
      <trkpt lat="48.48287" lon="0.58981">
        <ele>177.815717</ele>
        <time>2021-09-06T16:36:51.000Z</time>
      </trkpt>
      <trkpt lat="48.48274" lon="0.58988">
        <ele>177.788258</ele>
        <time>2021-09-06T16:36:56.000Z</time>
      </trkpt>
      <trkpt lat="48.48258" lon="0.58998">
        <ele>177.756049</ele>
        <time>2021-09-06T16:37:03.000Z</time>
      </trkpt>
      <trkpt lat="48.48245" lon="0.59008">
        <ele>177.728824</ele>
        <time>2021-09-06T16:37:09.000Z</time>
      </trkpt>
      <trkpt lat="48.48229" lon="0.59016">
        <ele>177.697141</ele>
        <time>2021-09-06T16:37:15.000Z</time>
      </trkpt>
      <trkpt lat="48.48215" lon="0.59026">
        <ele>177.667946</ele>
        <time>2021-09-06T16:37:21.000Z</time>
      </trkpt>
      <trkpt lat="48.48195" lon="0.59036">
        <ele>177.628607</ele>
        <time>2021-09-06T16:37:27.000Z</time>
      </trkpt>
      <trkpt lat="48.48181" lon="0.59044">
        <ele>177.599915</ele>
        <time>2021-09-06T16:37:32.000Z</time>
      </trkpt>
      <trkpt lat="48.48167" lon="0.59052">
        <ele>177.571491</ele>
        <time>2021-09-06T16:37:36.000Z</time>
      </trkpt>
      <trkpt lat="48.4815" lon="0.59063">
        <ele>177.41006</ele>
        <time>2021-09-06T16:37:41.000Z</time>
      </trkpt>
      <trkpt lat="48.48148" lon="0.59065">
        <ele>177.375448</ele>
        <time>2021-09-06T16:37:42.000Z</time>
      </trkpt>
      <trkpt lat="48.48142" lon="0.59067">
        <ele>177.28865</ele>
        <time>2021-09-06T16:37:46.000Z</time>
      </trkpt>
      <trkpt lat="48.4814" lon="0.59067">
        <ele>177.26382</ele>
        <time>2021-09-06T16:37:47.000Z</time>
      </trkpt>
      <trkpt lat="48.48138" lon="0.59065">
        <ele>177.238217</ele>
        <time>2021-09-06T16:37:48.000Z</time>
      </trkpt>
      <trkpt lat="48.48137" lon="0.59061">
        <ele>177.196137</ele>
        <time>2021-09-06T16:37:51.000Z</time>
      </trkpt>
      <trkpt lat="48.48134" lon="0.59056">
        <ele>177.133909</ele>
        <time>2021-09-06T16:37:56.000Z</time>
      </trkpt>
      <trkpt lat="48.48134" lon="0.59065">
        <ele>177.045882</ele>
        <time>2021-09-06T16:39:15.000Z</time>
      </trkpt>
      <trkpt lat="48.48134" lon="0.5907">
        <ele>177.00437</ele>
        <time>2021-09-06T16:39:17.000Z</time>
      </trkpt>
      <trkpt lat="48.48129" lon="0.59073">
        <ele>176.931467</ele>
        <time>2021-09-06T16:39:21.000Z</time>
      </trkpt>
      <trkpt lat="48.4811" lon="0.59084">
        <ele>176.664587</ele>
        <time>2021-09-06T16:39:27.000Z</time>
      </trkpt>
      <trkpt lat="48.48092" lon="0.59094">
        <ele>176.407714</ele>
        <time>2021-09-06T16:39:32.000Z</time>
      </trkpt>
      <trkpt lat="48.48073" lon="0.59104">
        <ele>176.136382</ele>
        <time>2021-09-06T16:39:37.000Z</time>
      </trkpt>
      <trkpt lat="48.48059" lon="0.59112">
        <ele>175.944521</ele>
        <time>2021-09-06T16:39:40.000Z</time>
      </trkpt>
      <trkpt lat="48.4805" lon="0.59117">
        <ele>175.805152</ele>
        <time>2021-09-06T16:39:42.000Z</time>
      </trkpt>
      <trkpt lat="48.48029" lon="0.59128">
        <ele>175.518872</ele>
        <time>2021-09-06T16:39:46.000Z</time>
      </trkpt>
      <trkpt lat="48.48006" lon="0.59141">
        <ele>175.187632</ele>
        <time>2021-09-06T16:39:51.000Z</time>
      </trkpt>
      <trkpt lat="48.47975" lon="0.59157">
        <ele>174.777097</ele>
        <time>2021-09-06T16:39:57.000Z</time>
      </trkpt>
      <trkpt lat="48.47945" lon="0.59175">
        <ele>174.36303</ele>
        <time>2021-09-06T16:40:04.000Z</time>
      </trkpt>
      <trkpt lat="48.47931" lon="0.59182">
        <ele>174.177869</ele>
        <time>2021-09-06T16:40:07.000Z</time>
      </trkpt>
      <trkpt lat="48.47925" lon="0.59185">
        <ele>174.107365</ele>
        <time>2021-09-06T16:40:08.000Z</time>
      </trkpt>
      <trkpt lat="48.47893" lon="0.59204">
        <ele>173.676497</ele>
        <time>2021-09-06T16:40:15.000Z</time>
      </trkpt>
      <trkpt lat="48.47877" lon="0.59213">
        <ele>173.455952</ele>
        <time>2021-09-06T16:40:19.000Z</time>
      </trkpt>
      <trkpt lat="48.47858" lon="0.59223">
        <ele>173.208885</ele>
        <time>2021-09-06T16:40:24.000Z</time>
      </trkpt>
      <trkpt lat="48.47846" lon="0.59232">
        <ele>173.029393</ele>
        <time>2021-09-06T16:40:29.000Z</time>
      </trkpt>
      <trkpt lat="48.47842" lon="0.59236">
        <ele>172.973256</ele>
        <time>2021-09-06T16:40:31.000Z</time>
      </trkpt>
      <trkpt lat="48.47839" lon="0.59233">
        <ele>172.93165</ele>
        <time>2021-09-06T16:40:33.000Z</time>
      </trkpt>
      <trkpt lat="48.47832" lon="0.59222">
        <ele>172.897209</ele>
        <time>2021-09-06T16:40:38.000Z</time>
      </trkpt>
      <trkpt lat="48.47831" lon="0.59222">
        <ele>172.897209</ele>
        <time>2021-09-06T16:40:39.000Z</time>
      </trkpt>
      <trkpt lat="48.4783" lon="0.59222">
        <ele>172.897209</ele>
        <time>2021-09-06T16:40:42.000Z</time>
      </trkpt>
      <trkpt lat="48.47825" lon="0.5923">
        <ele>172.897209</ele>
        <time>2021-09-06T16:40:49.000Z</time>
      </trkpt>
      <trkpt lat="48.47823" lon="0.59232">
        <ele>172.897209</ele>
        <time>2021-09-06T16:40:50.000Z</time>
      </trkpt>
      <trkpt lat="48.47816" lon="0.59237">
        <ele>172.897209</ele>
        <time>2021-09-06T16:40:55.000Z</time>
      </trkpt>
      <trkpt lat="48.47805" lon="0.59245">
        <ele>172.897209</ele>
        <time>2021-09-06T16:41:00.000Z</time>
      </trkpt>
      <trkpt lat="48.47795" lon="0.59251">
        <ele>172.897209</ele>
        <time>2021-09-06T16:41:05.000Z</time>
      </trkpt>
      <trkpt lat="48.47779" lon="0.59263">
        <ele>172.897209</ele>
        <time>2021-09-06T16:41:12.000Z</time>
      </trkpt>
      <trkpt lat="48.47766" lon="0.59274">
        <ele>172.897209</ele>
        <time>2021-09-06T16:41:18.000Z</time>
      </trkpt>
      <trkpt lat="48.47754" lon="0.59284">
        <ele>172.897209</ele>
        <time>2021-09-06T16:41:24.000Z</time>
      </trkpt>
      <trkpt lat="48.47741" lon="0.59294">
        <ele>172.897209</ele>
        <time>2021-09-06T16:41:30.000Z</time>
      </trkpt>
      <trkpt lat="48.47733" lon="0.593">
        <ele>172.897209</ele>
        <time>2021-09-06T16:41:36.000Z</time>
      </trkpt>
      <trkpt lat="48.47725" lon="0.59307">
        <ele>172.897209</ele>
        <time>2021-09-06T16:41:42.000Z</time>
      </trkpt>
      <trkpt lat="48.47714" lon="0.59315">
        <ele>172.897209</ele>
        <time>2021-09-06T16:41:50.000Z</time>
      </trkpt>
      <trkpt lat="48.47705" lon="0.59325">
        <ele>172.897209</ele>
        <time>2021-09-06T16:41:58.000Z</time>
      </trkpt>
      <trkpt lat="48.47697" lon="0.59331">
        <ele>172.897209</ele>
        <time>2021-09-06T16:42:06.000Z</time>
      </trkpt>
      <trkpt lat="48.4769" lon="0.59336">
        <ele>172.897209</ele>
        <time>2021-09-06T16:42:14.000Z</time>
      </trkpt>
      <trkpt lat="48.47686" lon="0.59343">
        <ele>172.897209</ele>
        <time>2021-09-06T16:42:21.000Z</time>
      </trkpt>
      <trkpt lat="48.47686" lon="0.59343">
        <ele>172.897209</ele>
        <time>2021-09-06T16:42:22.000Z</time>
      </trkpt>
    </trkseg>
  </trk>
</gpx>